<?xml version='1.0' encoding='UTF-8'?><gpx version="1.1" creator="JPX - https://github.com/jenetics/jpx" xmlns="http://www.topografix.com/GPX/1/1"><trk><trkseg><trkpt lat="43.483680095271964" lon="10.554352291753256"><ele>164.0</ele><time>2026-04-19T08:08:18.001Z</time></trkpt><trkpt lat="43.483613605098746" lon="10.554119988280199"><ele>164.0</ele><time>2026-04-19T08:08:19.001Z</time></trkpt><trkpt lat="43.48354589459462" lon="10.553888546296829"><ele>164.0</ele><time>2026-04-19T08:08:20.001Z</time></trkpt><trkpt lat="43.48348066164722" lon="10.553657186980754"><ele>161.66666666666666</ele><time>2026-04-19T08:08:21.002Z</time></trkpt><trkpt lat="43.483415817629485" lon="10.553425112308645"><ele>159.33333333333334</ele><time>2026-04-19T08:08:22.002Z</time></trkpt><trkpt lat="43.483346753912016" lon="10.553193735190929"><ele>157.0</ele><time>2026-04-19T08:08:23.002Z</time></trkpt><trkpt lat="43.483277607302135" lon="10.552963470973722"><ele>156.33333333333334</ele><time>2026-04-19T08:08:24.002Z</time></trkpt><trkpt lat="43.483205604047704" lon="10.552734770206218"><ele>155.66666666666666</ele><time>2026-04-19T08:08:25.002Z</time></trkpt><trkpt lat="43.483138926103784" lon="10.552505127708823"><ele>155.0</ele><time>2026-04-19T08:08:26.002Z</time></trkpt><trkpt lat="43.48307286894377" lon="10.552275774521002"><ele>155.0</ele><time>2026-04-19T08:08:27.002Z</time></trkpt><trkpt lat="43.48300805103785" lon="10.552049378260016"><ele>155.0</ele><time>2026-04-19T08:08:28.002Z</time></trkpt><trkpt lat="43.48294075575776" lon="10.55182400652962"><ele>155.0</ele><time>2026-04-19T08:08:29.002Z</time></trkpt><trkpt lat="43.48287411858624" lon="10.551600102956689"><ele>154.0</ele><time>2026-04-19T08:08:30.002Z</time></trkpt><trkpt lat="43.4828136600305" lon="10.551388065726206"><ele>153.0</ele><time>2026-04-19T08:08:31.002Z</time></trkpt><trkpt lat="43.482756796273605" lon="10.551177968046597"><ele>152.0</ele><time>2026-04-19T08:08:32.002Z</time></trkpt><trkpt lat="43.482690434942626" lon="10.550974542446836"><ele>151.33333333333331</ele><time>2026-04-19T08:08:33.002Z</time></trkpt><trkpt lat="43.48262702047072" lon="10.550770836513204"><ele>150.66666666666666</ele><time>2026-04-19T08:08:34.002Z</time></trkpt><trkpt lat="43.48254397729144" lon="10.550585720203143"><ele>150.0</ele><time>2026-04-19T08:08:35.002Z</time></trkpt><trkpt lat="43.48244471504222" lon="10.550411561172108"><ele>149.66666666666666</ele><time>2026-04-19T08:08:36.002Z</time></trkpt><trkpt lat="43.48233121172582" lon="10.550258207427236"><ele>149.33333333333331</ele><time>2026-04-19T08:08:37.002Z</time></trkpt><trkpt lat="43.48221218886251" lon="10.550114232024203"><ele>149.0</ele><time>2026-04-19T08:08:38.002Z</time></trkpt><trkpt lat="43.48209230255802" lon="10.549978432001586"><ele>146.0</ele><time>2026-04-19T08:08:39.002Z</time></trkpt><trkpt lat="43.4819830731251" lon="10.549829147338915"><ele>143.0</ele><time>2026-04-19T08:08:40.002Z</time></trkpt><trkpt lat="43.481855427220005" lon="10.549709840294408"><ele>140.0</ele><time>2026-04-19T08:08:41.002Z</time></trkpt><trkpt lat="43.48174386133435" lon="10.549576239965134"><ele>140.75</ele><time>2026-04-19T08:08:42.002Z</time></trkpt><trkpt lat="43.48163194559669" lon="10.549444673687477"><ele>141.5</ele><time>2026-04-19T08:08:43.002Z</time></trkpt><trkpt lat="43.48152085094346" lon="10.54931282155293"><ele>142.25</ele><time>2026-04-19T08:08:44.002Z</time></trkpt><trkpt lat="43.4814090694373" lon="10.54917937747645"><ele>143.0</ele><time>2026-04-19T08:08:45.002Z</time></trkpt><trkpt lat="43.48129127515918" lon="10.54905089265485"><ele>143.0</ele><time>2026-04-19T08:08:46.002Z</time></trkpt><trkpt lat="43.481174527239226" lon="10.548913059029642"><ele>143.0</ele><time>2026-04-19T08:08:47.002Z</time></trkpt><trkpt lat="43.48105627452852" lon="10.548774231389425"><ele>143.0</ele><time>2026-04-19T08:08:48.002Z</time></trkpt><trkpt lat="43.4809358788807" lon="10.548633991809602"><ele>143.0</ele><time>2026-04-19T08:08:49.002Z</time></trkpt><trkpt lat="43.480816943727" lon="10.548490317563232"><ele>143.0</ele><time>2026-04-19T08:08:50.002Z</time></trkpt><trkpt lat="43.48069664961906" lon="10.54834910193032"><ele>143.0</ele><time>2026-04-19T08:08:51.002Z</time></trkpt><trkpt lat="43.480580235718044" lon="10.548211032122033"><ele>143.0</ele><time>2026-04-19T08:08:52.002Z</time></trkpt><trkpt lat="43.48046112311576" lon="10.548075745676728"><ele>143.0</ele><time>2026-04-19T08:08:53.002Z</time></trkpt><trkpt lat="43.48034108963898" lon="10.54793877610719"><ele>143.0</ele><time>2026-04-19T08:08:54.002Z</time></trkpt><trkpt lat="43.48022150181063" lon="10.547798289639978"><ele>144.0</ele><time>2026-04-19T08:08:55.002Z</time></trkpt><trkpt lat="43.48009973079216" lon="10.547661564777655"><ele>145.0</ele><time>2026-04-19T08:08:56.002Z</time></trkpt><trkpt lat="43.479982081990116" lon="10.547525714907076"><ele>146.0</ele><time>2026-04-19T08:08:57.002Z</time></trkpt><trkpt lat="43.47987268278078" lon="10.547389540445776"><ele>146.0</ele><time>2026-04-19T08:08:58.002Z</time></trkpt><trkpt lat="43.47977060219559" lon="10.547241450439191"><ele>146.0</ele><time>2026-04-19T08:08:59.002Z</time></trkpt><trkpt lat="43.47967808311694" lon="10.547076639382645"><ele>146.0</ele><time>2026-04-19T08:09:00.002Z</time></trkpt><trkpt lat="43.47960049664433" lon="10.546893949037226"><ele>145.0</ele><time>2026-04-19T08:09:01.002Z</time></trkpt><trkpt lat="43.47953594486615" lon="10.546701290903814"><ele>144.0</ele><time>2026-04-19T08:09:02.002Z</time></trkpt><trkpt lat="43.47948886976638" lon="10.5464954526797"><ele>143.0</ele><time>2026-04-19T08:09:03.002Z</time></trkpt><trkpt lat="43.4794621499424" lon="10.546286355076553"><ele>143.75</ele><time>2026-04-19T08:09:04.002Z</time></trkpt><trkpt lat="43.47945815877406" lon="10.546075691230708"><ele>144.5</ele><time>2026-04-19T08:09:05.002Z</time></trkpt><trkpt lat="43.47947247464872" lon="10.545874624628151"><ele>145.25</ele><time>2026-04-19T08:09:06.002Z</time></trkpt><trkpt lat="43.479506145651996" lon="10.545684263588344"><ele>146.0</ele><time>2026-04-19T08:09:07.002Z</time></trkpt><trkpt lat="43.479553295566625" lon="10.545517993171371"><ele>145.25</ele><time>2026-04-19T08:09:08.002Z</time></trkpt><trkpt lat="43.479608661799055" lon="10.54537252174134"><ele>144.5</ele><time>2026-04-19T08:09:09.002Z</time></trkpt><trkpt lat="43.47967096470458" lon="10.545236805050676"><ele>143.75</ele><time>2026-04-19T08:09:10.002Z</time></trkpt><trkpt lat="43.4797379637179" lon="10.545111370272917"><ele>143.0</ele><time>2026-04-19T08:09:11.002Z</time></trkpt><trkpt lat="43.47980774184654" lon="10.544994658125079"><ele>143.0</ele><time>2026-04-19T08:09:12.002Z</time></trkpt><trkpt lat="43.47987899720604" lon="10.544880181802984"><ele>143.0</ele><time>2026-04-19T08:09:13.002Z</time></trkpt><trkpt lat="43.479949633283795" lon="10.544767655170201"><ele>143.0</ele><time>2026-04-19T08:09:14.002Z</time></trkpt><trkpt lat="43.48005719494812" lon="10.544591365325992"><ele>143.0</ele><time>2026-04-19T08:09:16.002Z</time></trkpt><trkpt lat="43.48009860501868" lon="10.544525931382834"><ele>143.0</ele><time>2026-04-19T08:09:17.002Z</time></trkpt><trkpt lat="43.480177495995676" lon="10.544404801926763"><ele>142.8</ele><time>2026-04-19T08:09:19.002Z</time></trkpt><trkpt lat="43.48021844934545" lon="10.54432858481704"><ele>142.60000000000002</ele><time>2026-04-19T08:09:20.001Z</time></trkpt><trkpt lat="43.48026556936412" lon="10.544265528742137"><ele>142.39999999999998</ele><time>2026-04-19T08:09:21.001Z</time></trkpt><trkpt lat="43.480154804766215" lon="10.544034150570063"><ele>142.2</ele><time>2026-04-19T08:09:23.001Z</time></trkpt><trkpt lat="43.48009740182098" lon="10.54394787583838"><ele>142.0</ele><time>2026-04-19T08:09:24.001Z</time></trkpt><trkpt lat="43.480054771527435" lon="10.54384088603664"><ele>142.0</ele><time>2026-04-19T08:09:25.001Z</time></trkpt><trkpt lat="43.48001680818719" lon="10.543730951385017"><ele>142.0</ele><time>2026-04-19T08:09:26.001Z</time></trkpt><trkpt lat="43.479980106675434" lon="10.543625955013107"><ele>142.0</ele><time>2026-04-19T08:09:27.001Z</time></trkpt><trkpt lat="43.479947661678594" lon="10.543526898479"><ele>142.0</ele><time>2026-04-19T08:09:28.001Z</time></trkpt><trkpt lat="43.47993017515019" lon="10.543423884127753"><ele>142.0</ele><time>2026-04-19T08:09:29.001Z</time></trkpt><trkpt lat="43.4799290015454" lon="10.543310928850557"><ele>142.0</ele><time>2026-04-19T08:09:30.001Z</time></trkpt><trkpt lat="43.479950363445084" lon="10.543193981763725"><ele>141.6</ele><time>2026-04-19T08:09:31.001Z</time></trkpt><trkpt lat="43.4799946867641" lon="10.543080995104056"><ele>141.2</ele><time>2026-04-19T08:09:32.001Z</time></trkpt><trkpt lat="43.48006043620343" lon="10.542983877027494"><ele>140.8</ele><time>2026-04-19T08:09:33.001Z</time></trkpt><trkpt lat="43.48013918158097" lon="10.542897703512478"><ele>140.4</ele><time>2026-04-19T08:09:34.001Z</time></trkpt><trkpt lat="43.48021897823787" lon="10.542806222980913"><ele>140.0</ele><time>2026-04-19T08:09:35.001Z</time></trkpt><trkpt lat="43.4802997418719" lon="10.542710244134984"><ele>138.25</ele><time>2026-04-19T08:09:36.001Z</time></trkpt><trkpt lat="43.480371691523814" lon="10.542601040118887"><ele>136.5</ele><time>2026-04-19T08:09:37.001Z</time></trkpt><trkpt lat="43.48042991247248" lon="10.542469781456518"><ele>134.75</ele><time>2026-04-19T08:09:38.001Z</time></trkpt><trkpt lat="43.48047208511571" lon="10.542321982967682"><ele>133.0</ele><time>2026-04-19T08:09:39.001Z</time></trkpt><trkpt lat="43.48050695356884" lon="10.542161893692654"><ele>132.0</ele><time>2026-04-19T08:09:40.001Z</time></trkpt><trkpt lat="43.480542401861996" lon="10.541993369381792"><ele>131.0</ele><time>2026-04-19T08:09:41.001Z</time></trkpt><trkpt lat="43.480580673573925" lon="10.54181573991475"><ele>130.0</ele><time>2026-04-19T08:09:42.001Z</time></trkpt><trkpt lat="43.48062265597084" lon="10.541625094917265"><ele>129.0</ele><time>2026-04-19T08:09:43.001Z</time></trkpt><trkpt lat="43.480668120100205" lon="10.54142230345274"><ele>128.66666666666666</ele><time>2026-04-19T08:09:44.001Z</time></trkpt><trkpt lat="43.480711424939095" lon="10.541210000676001"><ele>128.33333333333331</ele><time>2026-04-19T08:09:45.001Z</time></trkpt><trkpt lat="43.480753986522544" lon="10.540990084474371"><ele>128.0</ele><time>2026-04-19T08:09:46.001Z</time></trkpt><trkpt lat="43.48080476421518" lon="10.540770485693857"><ele>128.0</ele><time>2026-04-19T08:09:47.001Z</time></trkpt><trkpt lat="43.480850783228775" lon="10.540541899239187"><ele>128.0</ele><time>2026-04-19T08:09:48.001Z</time></trkpt><trkpt lat="43.48089766477419" lon="10.540311399517082"><ele>128.0</ele><time>2026-04-19T08:09:49.001Z</time></trkpt><trkpt lat="43.48094413881788" lon="10.540076944959564"><ele>128.33333333333331</ele><time>2026-04-19T08:09:50.001Z</time></trkpt><trkpt lat="43.48099547688084" lon="10.539838007047575"><ele>128.66666666666666</ele><time>2026-04-19T08:09:51.001Z</time></trkpt><trkpt lat="43.48104812359955" lon="10.539595802949453"><ele>129.0</ele><time>2026-04-19T08:09:52.001Z</time></trkpt><trkpt lat="43.48109847990975" lon="10.539360910004854"><ele>129.66666666666666</ele><time>2026-04-19T08:09:53.001Z</time></trkpt><trkpt lat="43.48114574488184" lon="10.539134150094057"><ele>130.33333333333331</ele><time>2026-04-19T08:09:54.001Z</time></trkpt><trkpt lat="43.48119097799124" lon="10.538913164453733"><ele>131.0</ele><time>2026-04-19T08:09:55.001Z</time></trkpt><trkpt lat="43.48123652078814" lon="10.538700770705175"><ele>130.66666666666666</ele><time>2026-04-19T08:09:56.001Z</time></trkpt><trkpt lat="43.48128399931948" lon="10.53849266577515"><ele>130.33333333333334</ele><time>2026-04-19T08:09:57.001Z</time></trkpt><trkpt lat="43.48132699033655" lon="10.538287108925747"><ele>130.0</ele><time>2026-04-19T08:09:58.001Z</time></trkpt><trkpt lat="43.48136145617666" lon="10.53808738687351"><ele>130.0</ele><time>2026-04-19T08:09:59.001Z</time></trkpt><trkpt lat="43.48138446403997" lon="10.537888313856905"><ele>130.0</ele><time>2026-04-19T08:10:00.001Z</time></trkpt><trkpt lat="43.481395241196076" lon="10.537687662162014"><ele>130.0</ele><time>2026-04-19T08:10:01.001Z</time></trkpt><trkpt lat="43.48138883861098" lon="10.537486180893708"><ele>130.0</ele><time>2026-04-19T08:10:02.001Z</time></trkpt><trkpt lat="43.48136645326982" lon="10.537292085786621"><ele>130.25</ele><time>2026-04-19T08:10:03.001Z</time></trkpt><trkpt lat="43.48132511847306" lon="10.537106694835222"><ele>130.5</ele><time>2026-04-19T08:10:04.001Z</time></trkpt><trkpt lat="43.48127181139606" lon="10.536935299610212"><ele>130.75</ele><time>2026-04-19T08:10:05.001Z</time></trkpt><trkpt lat="43.48123684337518" lon="10.536752124844945"><ele>131.0</ele><time>2026-04-19T08:10:06.001Z</time></trkpt><trkpt lat="43.48120005737847" lon="10.536565490351126"><ele>131.0</ele><time>2026-04-19T08:10:07.001Z</time></trkpt><trkpt lat="43.481161190710395" lon="10.53637991335845"><ele>131.0</ele><time>2026-04-19T08:10:08.001Z</time></trkpt><trkpt lat="43.48112203831696" lon="10.53619494897941"><ele>131.0</ele><time>2026-04-19T08:10:09.001Z</time></trkpt><trkpt lat="43.48108194743038" lon="10.536009755762235"><ele>131.0</ele><time>2026-04-19T08:10:10.001Z</time></trkpt><trkpt lat="43.481042360296804" lon="10.535822724708465"><ele>132.0</ele><time>2026-04-19T08:10:11.001Z</time></trkpt><trkpt lat="43.48100564960158" lon="10.535632544240682"><ele>133.0</ele><time>2026-04-19T08:10:12.001Z</time></trkpt><trkpt lat="43.48097415200592" lon="10.535435705482092"><ele>134.0</ele><time>2026-04-19T08:10:13.001Z</time></trkpt><trkpt lat="43.48094009251358" lon="10.535234516846598"><ele>135.0</ele><time>2026-04-19T08:10:14.001Z</time></trkpt><trkpt lat="43.48090199542654" lon="10.535030976109802"><ele>135.0</ele><time>2026-04-19T08:10:15.001Z</time></trkpt><trkpt lat="43.480865570975304" lon="10.53482271758503"><ele>135.0</ele><time>2026-04-19T08:10:16.001Z</time></trkpt><trkpt lat="43.480834362239506" lon="10.534610660321704"><ele>135.0</ele><time>2026-04-19T08:10:17.001Z</time></trkpt><trkpt lat="43.48080367067814" lon="10.53439614721314"><ele>135.33333333333334</ele><time>2026-04-19T08:10:18.001Z</time></trkpt><trkpt lat="43.48076821248479" lon="10.53418488591606"><ele>135.66666666666669</ele><time>2026-04-19T08:10:19.001Z</time></trkpt><trkpt lat="43.48073630698996" lon="10.533980149127146"><ele>136.0</ele><time>2026-04-19T08:10:20.001Z</time></trkpt><trkpt lat="43.48070522076753" lon="10.533779448063719"><ele>135.25</ele><time>2026-04-19T08:10:21.001Z</time></trkpt><trkpt lat="43.48066220296186" lon="10.533587338272488"><ele>134.5</ele><time>2026-04-19T08:10:22.001Z</time></trkpt><trkpt lat="43.480607730859106" lon="10.53340535565022"><ele>133.75</ele><time>2026-04-19T08:10:23.001Z</time></trkpt><trkpt lat="43.4805324783374" lon="10.533241749099476"><ele>133.0</ele><time>2026-04-19T08:10:24.001Z</time></trkpt><trkpt lat="43.48043749319542" lon="10.5330962856259"><ele>133.5</ele><time>2026-04-19T08:10:25.001Z</time></trkpt><trkpt lat="43.48032939775953" lon="10.532971018092601"><ele>134.0</ele><time>2026-04-19T08:10:26.001Z</time></trkpt><trkpt lat="43.48020826061524" lon="10.53286502921049"><ele>134.5</ele><time>2026-04-19T08:10:27.001Z</time></trkpt><trkpt lat="43.48008361921834" lon="10.532761212071035"><ele>135.0</ele><time>2026-04-19T08:10:28.001Z</time></trkpt><trkpt lat="43.47995730450533" lon="10.532654647437996"><ele>135.0</ele><time>2026-04-19T08:10:29.001Z</time></trkpt><trkpt lat="43.479826451535274" lon="10.532549953236744"><ele>135.0</ele><time>2026-04-19T08:10:30.001Z</time></trkpt><trkpt lat="43.47969767424214" lon="10.532433676710639"><ele>135.0</ele><time>2026-04-19T08:10:31.001Z</time></trkpt><trkpt lat="43.47957339765835" lon="10.532307105099967"><ele>134.0</ele><time>2026-04-19T08:10:32.001Z</time></trkpt><trkpt lat="43.479456147408854" lon="10.53216718076308"><ele>133.0</ele><time>2026-04-19T08:10:33.001Z</time></trkpt><trkpt lat="43.47935081182427" lon="10.532014476994748"><ele>132.0</ele><time>2026-04-19T08:10:34.001Z</time></trkpt><trkpt lat="43.4792527158458" lon="10.531853856345183"><ele>132.0</ele><time>2026-04-19T08:10:35.001Z</time></trkpt><trkpt lat="43.47916014526009" lon="10.531687585598375"><ele>132.0</ele><time>2026-04-19T08:10:36.001Z</time></trkpt><trkpt lat="43.479077295880295" lon="10.531512839399548"><ele>132.0</ele><time>2026-04-19T08:10:37.001Z</time></trkpt><trkpt lat="43.47900192683364" lon="10.531331954656615"><ele>131.75</ele><time>2026-04-19T08:10:38.001Z</time></trkpt><trkpt lat="43.4789308443035" lon="10.531149331448718"><ele>131.5</ele><time>2026-04-19T08:10:39.001Z</time></trkpt><trkpt lat="43.47885945139409" lon="10.530968617601234"><ele>131.25</ele><time>2026-04-19T08:10:40.001Z</time></trkpt><trkpt lat="43.478788617530995" lon="10.530787970136148"><ele>131.0</ele><time>2026-04-19T08:10:41.001Z</time></trkpt><trkpt lat="43.47871897489865" lon="10.530609698385852"><ele>129.0</ele><time>2026-04-19T08:10:42.001Z</time></trkpt><trkpt lat="43.478651152853956" lon="10.530432739070623"><ele>127.0</ele><time>2026-04-19T08:10:43.001Z</time></trkpt><trkpt lat="43.478586589996596" lon="10.5302582483453"><ele>125.0</ele><time>2026-04-19T08:10:44.001Z</time></trkpt><trkpt lat="43.47852756043459" lon="10.530100723459066"><ele>123.0</ele><time>2026-04-19T08:10:45.001Z</time></trkpt><trkpt lat="43.47847360501655" lon="10.529960660950712"><ele>123.0</ele><time>2026-04-19T08:10:46.001Z</time></trkpt><trkpt lat="43.47843001018355" lon="10.5298432187435"><ele>123.00000000000001</ele><time>2026-04-19T08:10:47.001Z</time></trkpt><trkpt lat="43.47839501648315" lon="10.529736675895345"><ele>123.00000000000001</ele><time>2026-04-19T08:10:48.001Z</time></trkpt><trkpt lat="43.4783580510784" lon="10.529627314197064"><ele>123.0</ele><time>2026-04-19T08:10:49.001Z</time></trkpt><trkpt lat="43.47831522820448" lon="10.529521586272555"><ele>123.0</ele><time>2026-04-19T08:10:50.001Z</time></trkpt><trkpt lat="43.47826832275253" lon="10.529405289995541"><ele>123.2</ele><time>2026-04-19T08:10:51.001Z</time></trkpt><trkpt lat="43.47821747950929" lon="10.52927575288345"><ele>123.4</ele><time>2026-04-19T08:10:52.001Z</time></trkpt><trkpt lat="43.47816566441444" lon="10.529142301695103"><ele>123.60000000000001</ele><time>2026-04-19T08:10:53.001Z</time></trkpt><trkpt lat="43.47811147052725" lon="10.529004848671345"><ele>123.80000000000001</ele><time>2026-04-19T08:10:54.001Z</time></trkpt><trkpt lat="43.47805771089816" lon="10.528870187568545"><ele>124.0</ele><time>2026-04-19T08:10:55.001Z</time></trkpt><trkpt lat="43.47800546753634" lon="10.528737905039696"><ele>123.75</ele><time>2026-04-19T08:10:56.001Z</time></trkpt><trkpt lat="43.47795354255272" lon="10.528602620085005"><ele>123.5</ele><time>2026-04-19T08:10:57.001Z</time></trkpt><trkpt lat="43.47790051165903" lon="10.528464641301806"><ele>123.25</ele><time>2026-04-19T08:10:58.001Z</time></trkpt><trkpt lat="43.47784573892731" lon="10.528319895041045"><ele>123.0</ele><time>2026-04-19T08:10:59.001Z</time></trkpt><trkpt lat="43.47778756712013" lon="10.528167179315176"><ele>121.5</ele><time>2026-04-19T08:11:00.001Z</time></trkpt><trkpt lat="43.4777260078349" lon="10.528009338894037"><ele>120.0</ele><time>2026-04-19T08:11:01.001Z</time></trkpt><trkpt lat="43.477660749786196" lon="10.527849465141257"><ele>118.5</ele><time>2026-04-19T08:11:02.001Z</time></trkpt><trkpt lat="43.477588141506786" lon="10.52768892970248"><ele>117.0</ele><time>2026-04-19T08:11:03.001Z</time></trkpt><trkpt lat="43.47750690653986" lon="10.527540574589782"><ele>117.0</ele><time>2026-04-19T08:11:04.001Z</time></trkpt><trkpt lat="43.477423603650806" lon="10.527402617473612"><ele>117.0</ele><time>2026-04-19T08:11:05.001Z</time></trkpt><trkpt lat="43.47733156334634" lon="10.527257366469405"><ele>117.0</ele><time>2026-04-19T08:11:06.001Z</time></trkpt><trkpt lat="43.477243164980614" lon="10.52712327592542"><ele>117.0</ele><time>2026-04-19T08:11:07.001Z</time></trkpt><trkpt lat="43.47714511058681" lon="10.526995197346407"><ele>115.25</ele><time>2026-04-19T08:11:08.001Z</time></trkpt><trkpt lat="43.477042572237565" lon="10.526877344537292"><ele>113.5</ele><time>2026-04-19T08:11:09.001Z</time></trkpt><trkpt lat="43.47693673220682" lon="10.526765889081208"><ele>111.75</ele><time>2026-04-19T08:11:10.002Z</time></trkpt><trkpt lat="43.47683087357402" lon="10.526664613595399"><ele>110.0</ele><time>2026-04-19T08:11:11.002Z</time></trkpt><trkpt lat="43.47672622482477" lon="10.526568313129287"><ele>110.0</ele><time>2026-04-19T08:11:12.002Z</time></trkpt><trkpt lat="43.47662244679337" lon="10.526472844702976"><ele>110.0</ele><time>2026-04-19T08:11:13.002Z</time></trkpt><trkpt lat="43.476519618036505" lon="10.526379693708611"><ele>110.0</ele><time>2026-04-19T08:11:14.002Z</time></trkpt><trkpt lat="43.47641732072157" lon="10.526284419060678"><ele>110.0</ele><time>2026-04-19T08:11:15.002Z</time></trkpt><trkpt lat="43.476321461868764" lon="10.526193376945045"><ele>109.66666666666666</ele><time>2026-04-19T08:11:16.002Z</time></trkpt><trkpt lat="43.47623852189158" lon="10.526118496409666"><ele>109.33333333333333</ele><time>2026-04-19T08:11:17.002Z</time></trkpt><trkpt lat="43.47616892952652" lon="10.52605642910855"><ele>109.0</ele><time>2026-04-19T08:11:18.001Z</time></trkpt><trkpt lat="43.47610362849942" lon="10.52599942699718"><ele>108.66666666666666</ele><time>2026-04-19T08:11:19.001Z</time></trkpt><trkpt lat="43.47604026900066" lon="10.52594236169222"><ele>108.33333333333333</ele><time>2026-04-19T08:11:20.001Z</time></trkpt><trkpt lat="43.47597683990077" lon="10.525877441566669"><ele>108.0</ele><time>2026-04-19T08:11:21.001Z</time></trkpt><trkpt lat="43.4759084833282" lon="10.525806058166708"><ele>108.0</ele><time>2026-04-19T08:11:22.001Z</time></trkpt><trkpt lat="43.47583348896797" lon="10.525728175829956"><ele>108.00000000000001</ele><time>2026-04-19T08:11:23.001Z</time></trkpt><trkpt lat="43.47575138402153" lon="10.525641759171135"><ele>108.00000000000001</ele><time>2026-04-19T08:11:24.001Z</time></trkpt><trkpt lat="43.47566471951561" lon="10.525546659922655"><ele>108.0</ele><time>2026-04-19T08:11:25.001Z</time></trkpt><trkpt lat="43.47557414845909" lon="10.525441728884639"><ele>108.0</ele><time>2026-04-19T08:11:26.001Z</time></trkpt><trkpt lat="43.47547953181935" lon="10.525325209572117"><ele>107.0</ele><time>2026-04-19T08:11:27.001Z</time></trkpt><trkpt lat="43.47538831698474" lon="10.525195683757683"><ele>106.0</ele><time>2026-04-19T08:11:28.001Z</time></trkpt><trkpt lat="43.47530676373077" lon="10.52505007675265"><ele>105.0</ele><time>2026-04-19T08:11:29.001Z</time></trkpt><trkpt lat="43.47523250900947" lon="10.524884839716144"><ele>104.0</ele><time>2026-04-19T08:11:30.001Z</time></trkpt><trkpt lat="43.47517084570384" lon="10.524704982499879"><ele>104.5</ele><time>2026-04-19T08:11:31.001Z</time></trkpt><trkpt lat="43.4751157123844" lon="10.524516432064999"><ele>105.0</ele><time>2026-04-19T08:11:32.001Z</time></trkpt><trkpt lat="43.47506552479621" lon="10.524325182298744"><ele>105.5</ele><time>2026-04-19T08:11:33.001Z</time></trkpt><trkpt lat="43.475016404104146" lon="10.524132168763419"><ele>106.0</ele><time>2026-04-19T08:11:34.001Z</time></trkpt><trkpt lat="43.47496835790837" lon="10.523943683314625"><ele>106.0</ele><time>2026-04-19T08:11:35.001Z</time></trkpt><trkpt lat="43.474922439131035" lon="10.5237612933085"><ele>106.0</ele><time>2026-04-19T08:11:36.001Z</time></trkpt><trkpt lat="43.474878276996506" lon="10.523583353019184"><ele>106.0</ele><time>2026-04-19T08:11:37.001Z</time></trkpt><trkpt lat="43.47483293793098" lon="10.52340695764625"><ele>106.0</ele><time>2026-04-19T08:11:38.001Z</time></trkpt><trkpt lat="43.47478965137879" lon="10.52324028516383"><ele>105.75</ele><time>2026-04-19T08:11:39.001Z</time></trkpt><trkpt lat="43.474747066571936" lon="10.523066379190917"><ele>105.5</ele><time>2026-04-19T08:11:40.001Z</time></trkpt><trkpt lat="43.474704034024654" lon="10.522888466184533"><ele>105.25</ele><time>2026-04-19T08:11:41.001Z</time></trkpt><trkpt lat="43.47466275207251" lon="10.52270905633956"><ele>105.0</ele><time>2026-04-19T08:11:42.001Z</time></trkpt><trkpt lat="43.474619092428576" lon="10.522530991810509"><ele>103.75</ele><time>2026-04-19T08:11:43.001Z</time></trkpt><trkpt lat="43.474584069013325" lon="10.522374990550942"><ele>102.5</ele><time>2026-04-19T08:11:44.001Z</time></trkpt><trkpt lat="43.47454583294249" lon="10.522224232248446"><ele>101.25</ele><time>2026-04-19T08:11:45.001Z</time></trkpt><trkpt lat="43.47449938710673" lon="10.522072914520066"><ele>100.0</ele><time>2026-04-19T08:11:46.001Z</time></trkpt><trkpt lat="43.47445175870184" lon="10.521914664506452"><ele>100.0</ele><time>2026-04-19T08:11:47.001Z</time></trkpt><trkpt lat="43.47440655759618" lon="10.521744969252012"><ele>100.0</ele><time>2026-04-19T08:11:48.001Z</time></trkpt><trkpt lat="43.47436157054171" lon="10.52157259632283"><ele>100.0</ele><time>2026-04-19T08:11:49.001Z</time></trkpt><trkpt lat="43.47431572812572" lon="10.52140127967961"><ele>100.0</ele><time>2026-04-19T08:11:50.001Z</time></trkpt><trkpt lat="43.474269300834756" lon="10.521228097407842"><ele>100.0</ele><time>2026-04-19T08:11:51.001Z</time></trkpt><trkpt lat="43.47422029676529" lon="10.521052833390668"><ele>100.0</ele><time>2026-04-19T08:11:52.001Z</time></trkpt><trkpt lat="43.47416904320887" lon="10.520875200940106"><ele>100.0</ele><time>2026-04-19T08:11:53.001Z</time></trkpt><trkpt lat="43.47411504973116" lon="10.520694363769577"><ele>100.0</ele><time>2026-04-19T08:11:54.001Z</time></trkpt><trkpt lat="43.47405936044657" lon="10.520517003877538"><ele>99.5</ele><time>2026-04-19T08:11:55.001Z</time></trkpt><trkpt lat="43.474004623489655" lon="10.520344470646998"><ele>99.0</ele><time>2026-04-19T08:11:56.001Z</time></trkpt><trkpt lat="43.473950506065314" lon="10.52017376486757"><ele>98.5</ele><time>2026-04-19T08:11:57.001Z</time></trkpt><trkpt lat="43.47389641769035" lon="10.520003123509925"><ele>98.0</ele><time>2026-04-19T08:11:58.001Z</time></trkpt><trkpt lat="43.47384374111397" lon="10.519836053644335"><ele>98.0</ele><time>2026-04-19T08:11:59.001Z</time></trkpt><trkpt lat="43.473790254263164" lon="10.519669693733581"><ele>98.0</ele><time>2026-04-19T08:12:00.001Z</time></trkpt><trkpt lat="43.47373779666204" lon="10.51950081833652"><ele>98.0</ele><time>2026-04-19T08:12:01.001Z</time></trkpt><trkpt lat="43.4736860912953" lon="10.51933460897849"><ele>98.0</ele><time>2026-04-19T08:12:02.001Z</time></trkpt><trkpt lat="43.473633850947856" lon="10.519169046317575"><ele>96.0</ele><time>2026-04-19T08:12:03.001Z</time></trkpt><trkpt lat="43.47358010338053" lon="10.519001419220764"><ele>94.0</ele><time>2026-04-19T08:12:04.001Z</time></trkpt><trkpt lat="43.4735260217083" lon="10.518832722366065"><ele>92.0</ele><time>2026-04-19T08:12:05.001Z</time></trkpt><trkpt lat="43.47347137134768" lon="10.518660556277545"><ele>90.0</ele><time>2026-04-19T08:12:06.001Z</time></trkpt><trkpt lat="43.473416552037904" lon="10.518487762788768"><ele>89.25</ele><time>2026-04-19T08:12:07.001Z</time></trkpt><trkpt lat="43.47336107373562" lon="10.518310938385984"><ele>88.5</ele><time>2026-04-19T08:12:08.001Z</time></trkpt><trkpt lat="43.47330441335521" lon="10.518133680729276"><ele>87.75</ele><time>2026-04-19T08:12:09.001Z</time></trkpt><trkpt lat="43.473247008274896" lon="10.51795478636306"><ele>87.0</ele><time>2026-04-19T08:12:10.001Z</time></trkpt><trkpt lat="43.47319419131527" lon="10.517770720294196"><ele>85.0</ele><time>2026-04-19T08:12:11.001Z</time></trkpt><trkpt lat="43.47314637997476" lon="10.517576276401252"><ele>83.0</ele><time>2026-04-19T08:12:12.001Z</time></trkpt><trkpt lat="43.47310542236052" lon="10.517374208120767"><ele>81.0</ele><time>2026-04-19T08:12:13.001Z</time></trkpt><trkpt lat="43.47307042691479" lon="10.517168581831283"><ele>78.66666666666667</ele><time>2026-04-19T08:12:14.001Z</time></trkpt><trkpt lat="43.47304387511506" lon="10.516955232981822"><ele>76.33333333333334</ele><time>2026-04-19T08:12:15.001Z</time></trkpt><trkpt lat="43.47302691721414" lon="10.516733253278439"><ele>74.0</ele><time>2026-04-19T08:12:16.001Z</time></trkpt><trkpt lat="43.473019320504875" lon="10.51651761211185"><ele>74.0</ele><time>2026-04-19T08:12:17.001Z</time></trkpt><trkpt lat="43.473016789107106" lon="10.516293470864946"><ele>74.0</ele><time>2026-04-19T08:12:18.001Z</time></trkpt><trkpt lat="43.47301783815129" lon="10.516067571829185"><ele>74.0</ele><time>2026-04-19T08:12:19.001Z</time></trkpt><trkpt lat="43.47301678046567" lon="10.515844253056834"><ele>72.0</ele><time>2026-04-19T08:12:20.001Z</time></trkpt><trkpt lat="43.47301677066457" lon="10.51562653830364"><ele>70.0</ele><time>2026-04-19T08:12:21.001Z</time></trkpt><trkpt lat="43.473006459207795" lon="10.515429737445375"><ele>68.0</ele><time>2026-04-19T08:12:22.001Z</time></trkpt><trkpt lat="43.47298685187937" lon="10.515260499649333"><ele>66.0</ele><time>2026-04-19T08:12:23.001Z</time></trkpt><trkpt lat="43.47295724047144" lon="10.51509117630848"><ele>65.25</ele><time>2026-04-19T08:12:24.001Z</time></trkpt><trkpt lat="43.472914734519286" lon="10.5149157317333"><ele>64.5</ele><time>2026-04-19T08:12:25.001Z</time></trkpt><trkpt lat="43.47286376292657" lon="10.514758178964884"><ele>63.75</ele><time>2026-04-19T08:12:26.001Z</time></trkpt><trkpt lat="43.472797895880205" lon="10.51459485977686"><ele>63.0</ele><time>2026-04-19T08:12:27.001Z</time></trkpt><trkpt lat="43.47272377163537" lon="10.51444148789573"><ele>63.0</ele><time>2026-04-19T08:12:28.001Z</time></trkpt><trkpt lat="43.47265097542788" lon="10.514299651953444"><ele>63.0</ele><time>2026-04-19T08:12:29.001Z</time></trkpt><trkpt lat="43.472592894851616" lon="10.514182145159882"><ele>63.0</ele><time>2026-04-19T08:12:30.001Z</time></trkpt><trkpt lat="43.472537837806996" lon="10.514068854356031"><ele>63.0</ele><time>2026-04-19T08:12:31.001Z</time></trkpt><trkpt lat="43.472482998473" lon="10.51395905777797"><ele>63.0</ele><time>2026-04-19T08:12:32.001Z</time></trkpt><trkpt lat="43.472426689135624" lon="10.513847567325143"><ele>63.2</ele><time>2026-04-19T08:12:33.001Z</time></trkpt><trkpt lat="43.47236897538125" lon="10.513731646385652"><ele>63.4</ele><time>2026-04-19T08:12:34.001Z</time></trkpt><trkpt lat="43.47231011931766" lon="10.513612558668862"><ele>63.60000000000001</ele><time>2026-04-19T08:12:35.001Z</time></trkpt><trkpt lat="43.47224527553338" lon="10.513489515476369"><ele>63.800000000000004</ele><time>2026-04-19T08:12:36.001Z</time></trkpt><trkpt lat="43.47217088490777" lon="10.513373316505373"><ele>64.0</ele><time>2026-04-19T08:12:37.001Z</time></trkpt><trkpt lat="43.472092519171575" lon="10.513263122683975"><ele>63.400000000000006</ele><time>2026-04-19T08:12:38.001Z</time></trkpt><trkpt lat="43.47200809341415" lon="10.51316028696696"><ele>62.800000000000004</ele><time>2026-04-19T08:12:39.001Z</time></trkpt><trkpt lat="43.471920568259335" lon="10.513073492479208"><ele>62.199999999999996</ele><time>2026-04-19T08:12:40.001Z</time></trkpt><trkpt lat="43.47183716591994" lon="10.512993553163174"><ele>61.599999999999994</ele><time>2026-04-19T08:12:41.001Z</time></trkpt><trkpt lat="43.47175462889847" lon="10.512910998433298"><ele>61.0</ele><time>2026-04-19T08:12:42.001Z</time></trkpt><trkpt lat="43.47167446782057" lon="10.51283322428873"><ele>61.49999999999999</ele><time>2026-04-19T08:12:43.001Z</time></trkpt><trkpt lat="43.471600255221475" lon="10.512769679984423"><ele>62.0</ele><time>2026-04-19T08:12:44.001Z</time></trkpt><trkpt lat="43.471523168248126" lon="10.512707050961236"><ele>62.5</ele><time>2026-04-19T08:12:45.001Z</time></trkpt><trkpt lat="43.471451670428195" lon="10.51265362093489"><ele>63.0</ele><time>2026-04-19T08:12:46.001Z</time></trkpt><trkpt lat="43.47137858820527" lon="10.512597890461"><ele>63.49999999999999</ele><time>2026-04-19T08:12:47.001Z</time></trkpt><trkpt lat="43.47131700793026" lon="10.51254192129498"><ele>64.0</ele><time>2026-04-19T08:12:48.001Z</time></trkpt><trkpt lat="43.471255164426466" lon="10.512479066082163"><ele>63.99999999999999</ele><time>2026-04-19T08:12:49.001Z</time></trkpt><trkpt lat="43.47119812945787" lon="10.512414387559595"><ele>64.0</ele><time>2026-04-19T08:12:50.001Z</time></trkpt><trkpt lat="43.47114056411635" lon="10.512346807375035"><ele>64.0</ele><time>2026-04-19T08:12:51.001Z</time></trkpt><trkpt lat="43.47108446766451" lon="10.512280638634332"><ele>64.0</ele><time>2026-04-19T08:12:52.001Z</time></trkpt><trkpt lat="43.47102719919677" lon="10.512219756210744"><ele>63.99999999999999</ele><time>2026-04-19T08:12:53.001Z</time></trkpt><trkpt lat="43.470974247750654" lon="10.512158482971968"><ele>64.0</ele><time>2026-04-19T08:12:54.001Z</time></trkpt><trkpt lat="43.47088350796838" lon="10.512040208775158"><ele>65.66666666666666</ele><time>2026-04-19T08:12:55.001Z</time></trkpt><trkpt lat="43.47081124309815" lon="10.51196713825655"><ele>67.33333333333333</ele><time>2026-04-19T08:12:56.001Z</time></trkpt><trkpt lat="43.47073769101803" lon="10.511892666864473"><ele>69.0</ele><time>2026-04-19T08:12:57.001Z</time></trkpt><trkpt lat="43.470667744063995" lon="10.511812808514136"><ele>70.66666666666667</ele><time>2026-04-19T08:12:58.001Z</time></trkpt><trkpt lat="43.47060339471985" lon="10.511738471162605"><ele>72.33333333333334</ele><time>2026-04-19T08:12:59.001Z</time></trkpt><trkpt lat="43.470548370048" lon="10.511661143519252"><ele>74.0</ele><time>2026-04-19T08:13:00.001Z</time></trkpt><trkpt lat="43.4704992113814" lon="10.511591362452302"><ele>74.0</ele><time>2026-04-19T08:13:01.001Z</time></trkpt><trkpt lat="43.47045292834409" lon="10.511526441777688"><ele>74.0</ele><time>2026-04-19T08:13:02.001Z</time></trkpt><trkpt lat="43.4703988570602" lon="10.511457088676371"><ele>74.0</ele><time>2026-04-19T08:13:03.001Z</time></trkpt><trkpt lat="43.47034422155908" lon="10.511378588195697"><ele>74.0</ele><time>2026-04-19T08:13:04.001Z</time></trkpt><trkpt lat="43.47028004676235" lon="10.511300556408893"><ele>74.0</ele><time>2026-04-19T08:13:05.001Z</time></trkpt><trkpt lat="43.470219838419766" lon="10.51121597536733"><ele>74.0</ele><time>2026-04-19T08:13:06.001Z</time></trkpt><trkpt lat="43.470169252719096" lon="10.51112411539762"><ele>74.33333333333334</ele><time>2026-04-19T08:13:07.001Z</time></trkpt><trkpt lat="43.47010077752576" lon="10.511048517038256"><ele>74.66666666666667</ele><time>2026-04-19T08:13:09.001Z</time></trkpt><trkpt lat="43.46998575107543" lon="10.511050982780418"><ele>75.0</ele><time>2026-04-19T08:13:11.001Z</time></trkpt><trkpt lat="43.46991915712865" lon="10.5110411195728"><ele>75.33333333333333</ele><time>2026-04-19T08:13:12.001Z</time></trkpt><trkpt lat="43.46984364082784" lon="10.511024353450932"><ele>75.66666666666666</ele><time>2026-04-19T08:13:13.001Z</time></trkpt><trkpt lat="43.46977968805955" lon="10.510997722110812"><ele>76.0</ele><time>2026-04-19T08:13:14.001Z</time></trkpt><trkpt lat="43.46965236530429" lon="10.511009405321017"><ele>76.39999999999999</ele><time>2026-04-19T08:13:16.001Z</time></trkpt><trkpt lat="43.469568840301115" lon="10.511024064013737"><ele>76.8</ele><time>2026-04-19T08:13:17.001Z</time></trkpt><trkpt lat="43.46947828390744" lon="10.511024167532135"><ele>77.19999999999999</ele><time>2026-04-19T08:13:18.001Z</time></trkpt><trkpt lat="43.4693824746423" lon="10.511045142395128"><ele>77.6</ele><time>2026-04-19T08:13:19.001Z</time></trkpt><trkpt lat="43.469286681757346" lon="10.511071575166406"><ele>78.0</ele><time>2026-04-19T08:13:20.001Z</time></trkpt><trkpt lat="43.46919759092729" lon="10.511105861776233"><ele>78.0</ele><time>2026-04-19T08:13:21.001Z</time></trkpt><trkpt lat="43.469120494247704" lon="10.511135140249179"><ele>78.0</ele><time>2026-04-19T08:13:22.001Z</time></trkpt><trkpt lat="43.46899950373271" lon="10.511175013811973"><ele>78.0</ele><time>2026-04-19T08:13:24.001Z</time></trkpt><trkpt lat="43.46893782444563" lon="10.51119708598228"><ele>78.0</ele><time>2026-04-19T08:13:25.001Z</time></trkpt><trkpt lat="43.468864935095574" lon="10.511224592195491"><ele>78.0</ele><time>2026-04-19T08:13:26.001Z</time></trkpt><trkpt lat="43.468783844429154" lon="10.511260828124625"><ele>78.0</ele><time>2026-04-19T08:13:27.001Z</time></trkpt><trkpt lat="43.46870173782852" lon="10.511304105899516"><ele>76.66666666666667</ele><time>2026-04-19T08:13:28.001Z</time></trkpt><trkpt lat="43.46861325518332" lon="10.511344068450914"><ele>75.33333333333333</ele><time>2026-04-19T08:13:29.001Z</time></trkpt><trkpt lat="43.46852114629941" lon="10.511380113709572"><ele>74.0</ele><time>2026-04-19T08:13:30.001Z</time></trkpt><trkpt lat="43.468423886417526" lon="10.511408390742014"><ele>72.66666666666666</ele><time>2026-04-19T08:13:31.001Z</time></trkpt><trkpt lat="43.46834214700425" lon="10.511419534537376"><ele>71.33333333333333</ele><time>2026-04-19T08:13:32.001Z</time></trkpt><trkpt lat="43.46827870963089" lon="10.51141562263758"><ele>70.0</ele><time>2026-04-19T08:13:33.001Z</time></trkpt><trkpt lat="43.46820520608911" lon="10.511414171832293"><ele>70.0</ele><time>2026-04-19T08:13:34.001Z</time></trkpt><trkpt lat="43.46811434654012" lon="10.511421335036236"><ele>70.0</ele><time>2026-04-19T08:13:35.001Z</time></trkpt><trkpt lat="43.46802207852056" lon="10.511428901174892"><ele>70.0</ele><time>2026-04-19T08:13:36.001Z</time></trkpt><trkpt lat="43.46792534836922" lon="10.51142842491778"><ele>70.0</ele><time>2026-04-19T08:13:37.001Z</time></trkpt><trkpt lat="43.467837734642686" lon="10.511430002240875"><ele>70.0</ele><time>2026-04-19T08:13:38.001Z</time></trkpt><trkpt lat="43.46772025110572" lon="10.511442829419181"><ele>70.33333333333333</ele><time>2026-04-19T08:13:40.001Z</time></trkpt><trkpt lat="43.46765410465541" lon="10.511459016612472"><ele>70.66666666666666</ele><time>2026-04-19T08:13:41.001Z</time></trkpt><trkpt lat="43.46758241485401" lon="10.511474387294307"><ele>71.0</ele><time>2026-04-19T08:13:42.001Z</time></trkpt><trkpt lat="43.467499446290624" lon="10.511485541701282"><ele>71.33333333333333</ele><time>2026-04-19T08:13:43.001Z</time></trkpt><trkpt lat="43.467418471733026" lon="10.511489932161876"><ele>71.66666666666667</ele><time>2026-04-19T08:13:44.001Z</time></trkpt><trkpt lat="43.46733530905547" lon="10.511504746342027"><ele>72.0</ele><time>2026-04-19T08:13:45.001Z</time></trkpt><trkpt lat="43.467271684102194" lon="10.511534040446595"><ele>72.0</ele><time>2026-04-19T08:13:46.001Z</time></trkpt><trkpt lat="43.46720379146786" lon="10.51153023734349"><ele>72.0</ele><time>2026-04-19T08:13:47.001Z</time></trkpt><trkpt lat="43.46712366060124" lon="10.511524579543408"><ele>72.0</ele><time>2026-04-19T08:13:48.001Z</time></trkpt><trkpt lat="43.46703685953289" lon="10.511523063249989"><ele>72.0</ele><time>2026-04-19T08:13:49.001Z</time></trkpt><trkpt lat="43.46694738435608" lon="10.511526387544059"><ele>72.0</ele><time>2026-04-19T08:13:50.001Z</time></trkpt><trkpt lat="43.46686115915409" lon="10.511534021089707"><ele>72.0</ele><time>2026-04-19T08:13:51.001Z</time></trkpt><trkpt lat="43.46677892926262" lon="10.511538878552297"><ele>72.16666666666667</ele><time>2026-04-19T08:13:52.001Z</time></trkpt><trkpt lat="43.466696363332986" lon="10.511541339887819"><ele>72.33333333333333</ele><time>2026-04-19T08:13:53.001Z</time></trkpt><trkpt lat="43.466614006043365" lon="10.511536319347343"><ele>72.5</ele><time>2026-04-19T08:13:54.001Z</time></trkpt><trkpt lat="43.466536078761884" lon="10.51151633194138"><ele>72.66666666666666</ele><time>2026-04-19T08:13:55.001Z</time></trkpt><trkpt lat="43.46645866922302" lon="10.511502730471607"><ele>72.83333333333333</ele><time>2026-04-19T08:13:56.001Z</time></trkpt><trkpt lat="43.46637810218442" lon="10.511486378879372"><ele>73.0</ele><time>2026-04-19T08:13:57.001Z</time></trkpt><trkpt lat="43.466299762435305" lon="10.511471777846022"><ele>72.6</ele><time>2026-04-19T08:13:58.001Z</time></trkpt><trkpt lat="43.4662162545894" lon="10.511455901391228"><ele>72.19999999999999</ele><time>2026-04-19T08:13:59.001Z</time></trkpt><trkpt lat="43.46612734841173" lon="10.5114395382595"><ele>71.8</ele><time>2026-04-19T08:14:00.001Z</time></trkpt><trkpt lat="43.466035505205866" lon="10.511420771069455"><ele>71.39999999999999</ele><time>2026-04-19T08:14:01.001Z</time></trkpt><trkpt lat="43.465942760822834" lon="10.511400927760413"><ele>71.0</ele><time>2026-04-19T08:14:02.001Z</time></trkpt><trkpt lat="43.4658537957649" lon="10.511375326962941"><ele>71.0</ele><time>2026-04-19T08:14:03.001Z</time></trkpt><trkpt lat="43.46577188811251" lon="10.511347412860466"><ele>71.0</ele><time>2026-04-19T08:14:04.001Z</time></trkpt><trkpt lat="43.4656900409498" lon="10.51132882827552"><ele>71.0</ele><time>2026-04-19T08:14:05.001Z</time></trkpt><trkpt lat="43.46560813081685" lon="10.51132333428314"><ele>71.0</ele><time>2026-04-19T08:14:06.001Z</time></trkpt><trkpt lat="43.465524353925254" lon="10.511315133139766"><ele>71.0</ele><time>2026-04-19T08:14:07.001Z</time></trkpt><trkpt lat="43.46543636934593" lon="10.511300026593043"><ele>71.0</ele><time>2026-04-19T08:14:08.001Z</time></trkpt><trkpt lat="43.465349517694" lon="10.511280452680841"><ele>71.2</ele><time>2026-04-19T08:14:09.001Z</time></trkpt><trkpt lat="43.46525973479787" lon="10.511259716768732"><ele>71.39999999999999</ele><time>2026-04-19T08:14:10.001Z</time></trkpt><trkpt lat="43.465169458385134" lon="10.511239351693376"><ele>71.6</ele><time>2026-04-19T08:14:11.001Z</time></trkpt><trkpt lat="43.465076248796784" lon="10.511217785915441"><ele>71.8</ele><time>2026-04-19T08:14:12.001Z</time></trkpt><trkpt lat="43.46498400426424" lon="10.511190645669036"><ele>72.0</ele><time>2026-04-19T08:14:13.001Z</time></trkpt><trkpt lat="43.464900117328035" lon="10.51117377596518"><ele>72.16666666666667</ele><time>2026-04-19T08:14:14.001Z</time></trkpt><trkpt lat="43.46483787526452" lon="10.51115601051914"><ele>72.33333333333333</ele><time>2026-04-19T08:14:15.001Z</time></trkpt><trkpt lat="43.464766471874746" lon="10.511146447460174"><ele>72.5</ele><time>2026-04-19T08:14:16.001Z</time></trkpt><trkpt lat="43.46469197813972" lon="10.51114159773178"><ele>72.66666666666666</ele><time>2026-04-19T08:14:17.001Z</time></trkpt><trkpt lat="43.46460859586161" lon="10.511141820242894"><ele>72.83333333333333</ele><time>2026-04-19T08:14:18.001Z</time></trkpt><trkpt lat="43.46452099194167" lon="10.511148012644572"><ele>73.0</ele><time>2026-04-19T08:14:19.001Z</time></trkpt><trkpt lat="43.4644307672618" lon="10.511154957693678"><ele>73.0</ele><time>2026-04-19T08:14:20.001Z</time></trkpt><trkpt lat="43.46433838816698" lon="10.511157141081181"><ele>73.0</ele><time>2026-04-19T08:14:21.001Z</time></trkpt><trkpt lat="43.46424314636413" lon="10.511167310733459"><ele>73.0</ele><time>2026-04-19T08:14:22.001Z</time></trkpt><trkpt lat="43.46414426552396" lon="10.511178618690103"><ele>73.0</ele><time>2026-04-19T08:14:23.001Z</time></trkpt><trkpt lat="43.46404553993205" lon="10.51118549274402"><ele>73.0</ele><time>2026-04-19T08:14:24.001Z</time></trkpt><trkpt lat="43.463947161173024" lon="10.511190706958637"><ele>73.0</ele><time>2026-04-19T08:14:25.001Z</time></trkpt><trkpt lat="43.463853608626955" lon="10.511197499412315"><ele>73.0</ele><time>2026-04-19T08:14:26.001Z</time></trkpt><trkpt lat="43.46376280678835" lon="10.511198354807002"><ele>73.0</ele><time>2026-04-19T08:14:27.001Z</time></trkpt><trkpt lat="43.46367551969545" lon="10.511202076916954"><ele>73.0</ele><time>2026-04-19T08:14:28.001Z</time></trkpt><trkpt lat="43.46359215522912" lon="10.511203076809268"><ele>73.0</ele><time>2026-04-19T08:14:29.001Z</time></trkpt><trkpt lat="43.463513099554554" lon="10.511201640465126"><ele>73.0</ele><time>2026-04-19T08:14:30.001Z</time></trkpt><trkpt lat="43.463437049818516" lon="10.511204649910603"><ele>72.66666666666666</ele><time>2026-04-19T08:14:31.001Z</time></trkpt><trkpt lat="43.46336668565188" lon="10.511208397907973"><ele>72.33333333333333</ele><time>2026-04-19T08:14:32.001Z</time></trkpt><trkpt lat="43.46329523401362" lon="10.511208239139282"><ele>72.0</ele><time>2026-04-19T08:14:33.001Z</time></trkpt><trkpt lat="43.46320070424462" lon="10.51120647875644"><ele>71.66666666666667</ele><time>2026-04-19T08:14:35.001Z</time></trkpt><trkpt lat="43.463127546749234" lon="10.511196423144662"><ele>71.33333333333334</ele><time>2026-04-19T08:14:41.001Z</time></trkpt><trkpt lat="43.4630503509533" lon="10.511211229472698"><ele>71.0</ele><time>2026-04-19T08:14:49.001Z</time></trkpt><trkpt lat="43.462984618494396" lon="10.511215052957485"><ele>70.6</ele><time>2026-04-19T08:14:51.001Z</time></trkpt><trkpt lat="43.46292143192668" lon="10.511205124542597"><ele>70.19999999999999</ele><time>2026-04-19T08:14:58.001Z</time></trkpt><trkpt lat="43.46281424141175" lon="10.511216144508456"><ele>69.80000000000001</ele><time>2026-04-19T08:15:02.001Z</time></trkpt><trkpt lat="43.46270737036811" lon="10.511225655577103"><ele>69.4</ele><time>2026-04-19T08:15:04.001Z</time></trkpt><trkpt lat="43.4625848064628" lon="10.51123672924331"><ele>69.0</ele><time>2026-04-19T08:15:06.001Z</time></trkpt><trkpt lat="43.46246491966363" lon="10.511251597369167"><ele>69.0</ele><time>2026-04-19T08:15:08.001Z</time></trkpt><trkpt lat="43.46235112515257" lon="10.511267341925873"><ele>69.0</ele><time>2026-04-19T08:15:10.001Z</time></trkpt><trkpt lat="43.462232285125665" lon="10.511287582174822"><ele>69.0</ele><time>2026-04-19T08:15:12.001Z</time></trkpt><trkpt lat="43.462111111497514" lon="10.511305740441697"><ele>69.0</ele><time>2026-04-19T08:15:14.001Z</time></trkpt><trkpt lat="43.46198716194613" lon="10.511332567309113"><ele>69.33333333333333</ele><time>2026-04-19T08:15:16.001Z</time></trkpt><trkpt lat="43.46187078830417" lon="10.511391417127582"><ele>69.66666666666667</ele><time>2026-04-19T08:15:18.001Z</time></trkpt><trkpt lat="43.4618112376384" lon="10.511426408558373"><ele>70.0</ele><time>2026-04-19T08:15:19.001Z</time></trkpt><trkpt lat="43.46174354282239" lon="10.51146468340656"><ele>70.33333333333334</ele><time>2026-04-19T08:15:20.001Z</time></trkpt><trkpt lat="43.46166941090194" lon="10.511510186026952"><ele>70.66666666666667</ele><time>2026-04-19T08:15:21.001Z</time></trkpt><trkpt lat="43.46159079674745" lon="10.511547024719656"><ele>71.0</ele><time>2026-04-19T08:15:22.001Z</time></trkpt><trkpt lat="43.46150796130486" lon="10.511565238961701"><ele>71.0</ele><time>2026-04-19T08:15:23.001Z</time></trkpt><trkpt lat="43.4614257778059" lon="10.511562830281665"><ele>71.0</ele><time>2026-04-19T08:15:24.001Z</time></trkpt><trkpt lat="43.46134189115573" lon="10.511564080164717"><ele>71.0</ele><time>2026-04-19T08:15:25.001Z</time></trkpt><trkpt lat="43.461271497679256" lon="10.511583640740326"><ele>71.0</ele><time>2026-04-19T08:15:26.001Z</time></trkpt><trkpt lat="43.4611561615717" lon="10.511639849778641"><ele>71.0</ele><time>2026-04-19T08:15:28.001Z</time></trkpt><trkpt lat="43.46109398364016" lon="10.511659285788673"><ele>71.0</ele><time>2026-04-19T08:15:29.001Z</time></trkpt><trkpt lat="43.461030701843534" lon="10.511669563623625"><ele>71.0</ele><time>2026-04-19T08:15:30.001Z</time></trkpt><trkpt lat="43.460959587441884" lon="10.511677269981856"><ele>71.0</ele><time>2026-04-19T08:15:32.001Z</time></trkpt><trkpt lat="43.46089384397247" lon="10.511678836374504"><ele>71.0</ele><time>2026-04-19T08:15:36.001Z</time></trkpt><trkpt lat="43.46081663641224" lon="10.511681696260222"><ele>71.0</ele><time>2026-04-19T08:15:40.001Z</time></trkpt><trkpt lat="43.46073166364615" lon="10.511684774508426"><ele>71.0</ele><time>2026-04-19T08:15:44.001Z</time></trkpt><trkpt lat="43.46065474863004" lon="10.51168904486765"><ele>71.0</ele><time>2026-04-19T08:15:48.001Z</time></trkpt><trkpt lat="43.46058255507177" lon="10.511691942175807"><ele>71.0</ele><time>2026-04-19T08:15:51.001Z</time></trkpt><trkpt lat="43.460494541768995" lon="10.511697081768034"><ele>71.33333333333334</ele><time>2026-04-19T08:15:54.001Z</time></trkpt><trkpt lat="43.460419179820065" lon="10.511703685625202"><ele>71.66666666666667</ele><time>2026-04-19T08:15:57.001Z</time></trkpt><trkpt lat="43.46034671805814" lon="10.51171234789395"><ele>72.0</ele><time>2026-04-19T08:16:00.001Z</time></trkpt><trkpt lat="43.46027322321047" lon="10.5117244775837"><ele>72.33333333333333</ele><time>2026-04-19T08:16:03.001Z</time></trkpt><trkpt lat="43.46020260395161" lon="10.511739879298064"><ele>72.66666666666666</ele><time>2026-04-19T08:16:05Z</time></trkpt><trkpt lat="43.46012860708183" lon="10.511768276965775"><ele>73.0</ele><time>2026-04-19T08:16:07Z</time></trkpt><trkpt lat="43.4600491670956" lon="10.51179914286792"><ele>73.0</ele><time>2026-04-19T08:16:10Z</time></trkpt><trkpt lat="43.4599686437414" lon="10.511827785059825"><ele>73.0</ele><time>2026-04-19T08:17:03Z</time></trkpt><trkpt lat="43.45990199792445" lon="10.511856752030614"><ele>73.0</ele><time>2026-04-19T08:17:05Z</time></trkpt><trkpt lat="43.459835795243066" lon="10.511900588602652"><ele>73.0</ele><time>2026-04-19T08:17:07Z</time></trkpt><trkpt lat="43.45977337345028" lon="10.511964896249323"><ele>73.0</ele><time>2026-04-19T08:17:10Z</time></trkpt><trkpt lat="43.45971166743437" lon="10.512020312328612"><ele>73.0</ele><time>2026-04-19T08:17:12Z</time></trkpt><trkpt lat="43.45962448910549" lon="10.512096652403672"><ele>73.4</ele><time>2026-04-19T08:17:14Z</time></trkpt><trkpt lat="43.45952831849771" lon="10.51218065264961"><ele>73.8</ele><time>2026-04-19T08:17:16Z</time></trkpt><trkpt lat="43.459425809085204" lon="10.512254493457169"><ele>74.2</ele><time>2026-04-19T08:17:18Z</time></trkpt><trkpt lat="43.45931975268338" lon="10.51233539897561"><ele>74.6</ele><time>2026-04-19T08:17:20Z</time></trkpt><trkpt lat="43.45926385408427" lon="10.51237640634175"><ele>75.0</ele><time>2026-04-19T08:17:21Z</time></trkpt><trkpt lat="43.45915688667087" lon="10.512442615575662"><ele>75.0</ele><time>2026-04-19T08:17:23Z</time></trkpt><trkpt lat="43.45905436241886" lon="10.512500116943704"><ele>75.0</ele><time>2026-04-19T08:17:25Z</time></trkpt><trkpt lat="43.45894887486931" lon="10.512551999778687"><ele>75.0</ele><time>2026-04-19T08:17:27Z</time></trkpt><trkpt lat="43.458836585348244" lon="10.512582462847046"><ele>75.0</ele><time>2026-04-19T08:17:29.001Z</time></trkpt><trkpt lat="43.458753380097185" lon="10.512603707150339"><ele>75.0</ele><time>2026-04-19T08:17:31.001Z</time></trkpt><trkpt lat="43.458702967052474" lon="10.51270795941235"><ele>75.5</ele><time>2026-04-19T08:17:33.001Z</time></trkpt><trkpt lat="43.4586591384225" lon="10.51288261023262"><ele>76.0</ele><time>2026-04-19T08:17:35.001Z</time></trkpt><trkpt lat="43.45863448053078" lon="10.512974725514738"><ele>76.5</ele><time>2026-04-19T08:17:36.001Z</time></trkpt><trkpt lat="43.45859649878734" lon="10.513045895522293"><ele>77.0</ele><time>2026-04-19T08:17:37.001Z</time></trkpt><trkpt lat="43.45851450660581" lon="10.513122989417655"><ele>77.5</ele><time>2026-04-19T08:17:39.001Z</time></trkpt><trkpt lat="43.458445871356076" lon="10.513173320940048"><ele>78.0</ele><time>2026-04-19T08:17:45.001Z</time></trkpt><trkpt lat="43.45838235646207" lon="10.513220348005337"><ele>78.0</ele><time>2026-04-19T08:17:47.001Z</time></trkpt><trkpt lat="43.4582991050829" lon="10.51328766783164"><ele>78.0</ele><time>2026-04-19T08:17:49.001Z</time></trkpt><trkpt lat="43.45821003561927" lon="10.513375604484118"><ele>78.0</ele><time>2026-04-19T08:17:51Z</time></trkpt><trkpt lat="43.45812787443684" lon="10.513486719596077"><ele>78.0</ele><time>2026-04-19T08:17:53Z</time></trkpt><trkpt lat="43.4580795543954" lon="10.513568644023016"><ele>78.0</ele><time>2026-04-19T08:17:55Z</time></trkpt><trkpt lat="43.45802617603304" lon="10.51365268176487"><ele>78.0</ele><time>2026-04-19T08:17:59Z</time></trkpt><trkpt lat="43.457961954508924" lon="10.513722044276145"><ele>78.0</ele><time>2026-04-19T08:18:01Z</time></trkpt><trkpt lat="43.45787434809928" lon="10.513772982191014"><ele>78.0</ele><time>2026-04-19T08:18:03Z</time></trkpt><trkpt lat="43.457799236605254" lon="10.51381289160404"><ele>78.0</ele><time>2026-04-19T08:18:05Z</time></trkpt><trkpt lat="43.45772210767046" lon="10.513838641905625"><ele>78.0</ele><time>2026-04-19T08:18:13Z</time></trkpt><trkpt lat="43.45763975378994" lon="10.513857518242725"><ele>78.0</ele><time>2026-04-19T08:18:16Z</time></trkpt><trkpt lat="43.4575669170956" lon="10.51388237256493"><ele>77.83333333333333</ele><time>2026-04-19T08:18:19Z</time></trkpt><trkpt lat="43.4574940802971" lon="10.513902729336282"><ele>77.66666666666667</ele><time>2026-04-19T08:18:23Z</time></trkpt><trkpt lat="43.45742309714722" lon="10.51387489441584"><ele>77.5</ele><time>2026-04-19T08:18:28Z</time></trkpt><trkpt lat="43.45745103654644" lon="10.513763991525181"><ele>77.33333333333334</ele><time>2026-04-19T08:18:32Z</time></trkpt><trkpt lat="43.457513207295804" lon="10.513635054270313"><ele>77.16666666666667</ele><time>2026-04-19T08:18:34Z</time></trkpt><trkpt lat="43.45754214973086" lon="10.513556416792927"><ele>77.0</ele><time>2026-04-19T08:18:35Z</time></trkpt><trkpt lat="43.457572702295174" lon="10.513466873572662"><ele>77.0</ele><time>2026-04-19T08:18:36Z</time></trkpt><trkpt lat="43.45760836557555" lon="10.513365532214172"><ele>77.0</ele><time>2026-04-19T08:18:37Z</time></trkpt><trkpt lat="43.45764748310146" lon="10.513253092539564"><ele>77.0</ele><time>2026-04-19T08:18:38Z</time></trkpt><trkpt lat="43.45769061452392" lon="10.513136652686741"><ele>77.0</ele><time>2026-04-19T08:18:39Z</time></trkpt><trkpt lat="43.45773140133131" lon="10.513024154647187"><ele>77.0</ele><time>2026-04-19T08:18:40Z</time></trkpt><trkpt lat="43.45776825641438" lon="10.51292174609807"><ele>77.0</ele><time>2026-04-19T08:18:41Z</time></trkpt><trkpt lat="43.45779807044855" lon="10.512828440691125"><ele>76.5</ele><time>2026-04-19T08:18:42Z</time></trkpt><trkpt lat="43.457823608853225" lon="10.512741542669932"><ele>76.0</ele><time>2026-04-19T08:18:43Z</time></trkpt><trkpt lat="43.45786161208982" lon="10.51259043762156"><ele>75.5</ele><time>2026-04-19T08:18:45Z</time></trkpt><trkpt lat="43.457902600207085" lon="10.512423865642338"><ele>75.0</ele><time>2026-04-19T08:18:47Z</time></trkpt><trkpt lat="43.45792380719275" lon="10.512336107704629"><ele>74.5</ele><time>2026-04-19T08:18:48Z</time></trkpt><trkpt lat="43.45794386784446" lon="10.512249788695083"><ele>74.0</ele><time>2026-04-19T08:18:49Z</time></trkpt><trkpt lat="43.45796291789875" lon="10.512163100061983"><ele>75.83333333333334</ele><time>2026-04-19T08:18:50Z</time></trkpt><trkpt lat="43.4579932235207" lon="10.512028580639683"><ele>77.66666666666667</ele><time>2026-04-19T08:18:52Z</time></trkpt><trkpt lat="43.45801914788462" lon="10.511937761828117"><ele>79.5</ele><time>2026-04-19T08:18:54Z</time></trkpt><trkpt lat="43.45805113404676" lon="10.51181922584595"><ele>81.33333333333333</ele><time>2026-04-19T08:18:57Z</time></trkpt><trkpt lat="43.45806850809672" lon="10.511734146193712"><ele>83.16666666666666</ele><time>2026-04-19T08:18:59Z</time></trkpt><trkpt lat="43.458096634792504" lon="10.51162390247182"><ele>85.0</ele><time>2026-04-19T08:19:01Z</time></trkpt><trkpt lat="43.45812794295159" lon="10.511529390847757"><ele>85.0</ele><time>2026-04-19T08:19:03Z</time></trkpt><trkpt lat="43.45815870324426" lon="10.51143944433277"><ele>85.0</ele><time>2026-04-19T08:19:05Z</time></trkpt><trkpt lat="43.458196676974374" lon="10.511320173304261"><ele>85.0</ele><time>2026-04-19T08:19:07Z</time></trkpt><trkpt lat="43.458237927156105" lon="10.51117808657094"><ele>85.0</ele><time>2026-04-19T08:19:09Z</time></trkpt><trkpt lat="43.458279994249025" lon="10.511027321245553"><ele>85.0</ele><time>2026-04-19T08:19:11Z</time></trkpt><trkpt lat="43.45830153605374" lon="10.510945208282093"><ele>85.71428571428572</ele><time>2026-04-19T08:19:12Z</time></trkpt><trkpt lat="43.45832087812503" lon="10.510859542007097"><ele>86.42857142857142</ele><time>2026-04-19T08:19:13Z</time></trkpt><trkpt lat="43.45833446413191" lon="10.510772801722581"><ele>87.14285714285714</ele><time>2026-04-19T08:19:14Z</time></trkpt><trkpt lat="43.458341792593195" lon="10.510680882198194"><ele>87.85714285714286</ele><time>2026-04-19T08:19:15Z</time></trkpt><trkpt lat="43.45834351921591" lon="10.51058854533965"><ele>88.57142857142858</ele><time>2026-04-19T08:19:16Z</time></trkpt><trkpt lat="43.45834243145523" lon="10.510497714140234"><ele>89.28571428571428</ele><time>2026-04-19T08:19:17Z</time></trkpt><trkpt lat="43.45833666583944" lon="10.510404229995714"><ele>90.0</ele><time>2026-04-19T08:19:18Z</time></trkpt><trkpt lat="43.45832700058422" lon="10.510307569988202"><ele>90.28571428571428</ele><time>2026-04-19T08:19:19Z</time></trkpt><trkpt lat="43.45831725575971" lon="10.51020580712584"><ele>90.57142857142858</ele><time>2026-04-19T08:19:20Z</time></trkpt><trkpt lat="43.45830708521826" lon="10.510110089545869"><ele>90.85714285714286</ele><time>2026-04-19T08:19:21Z</time></trkpt><trkpt lat="43.45829913665049" lon="10.510022607689608"><ele>91.14285714285714</ele><time>2026-04-19T08:19:22Z</time></trkpt><trkpt lat="43.458291746031605" lon="10.509935680288168"><ele>91.42857142857142</ele><time>2026-04-19T08:19:23Z</time></trkpt><trkpt lat="43.45828297976554" lon="10.509846883294585"><ele>91.71428571428572</ele><time>2026-04-19T08:19:24Z</time></trkpt><trkpt lat="43.45827086682075" lon="10.509758708137468"><ele>92.0</ele><time>2026-04-19T08:19:25Z</time></trkpt><trkpt lat="43.45825397224107" lon="10.509674574226423"><ele>91.19999999999999</ele><time>2026-04-19T08:19:26Z</time></trkpt><trkpt lat="43.458207899142614" lon="10.509520446874399"><ele>90.4</ele><time>2026-04-19T08:19:28Z</time></trkpt><trkpt lat="43.45814859410145" lon="10.509382945368525"><ele>89.6</ele><time>2026-04-19T08:19:30Z</time></trkpt><trkpt lat="43.45808334397335" lon="10.509233700273372"><ele>88.80000000000001</ele><time>2026-04-19T08:19:32Z</time></trkpt><trkpt lat="43.45805066399833" lon="10.50915916189948"><ele>88.0</ele><time>2026-04-19T08:19:33Z</time></trkpt><trkpt lat="43.45801832469468" lon="10.509083393355738"><ele>88.0</ele><time>2026-04-19T08:19:34Z</time></trkpt><trkpt lat="43.45798508650996" lon="10.509001250803985"><ele>88.0</ele><time>2026-04-19T08:19:35Z</time></trkpt><trkpt lat="43.45795310315503" lon="10.508922909718745"><ele>88.0</ele><time>2026-04-19T08:19:36Z</time></trkpt><trkpt lat="43.45789973140253" lon="10.50878401247065"><ele>88.0</ele><time>2026-04-19T08:19:38Z</time></trkpt><trkpt lat="43.45785349112458" lon="10.508653854599034"><ele>88.0</ele><time>2026-04-19T08:19:40Z</time></trkpt><trkpt lat="43.457803569318" lon="10.508537279003834"><ele>87.42857142857143</ele><time>2026-04-19T08:19:42Z</time></trkpt><trkpt lat="43.45774867665975" lon="10.508450083748077"><ele>86.85714285714286</ele><time>2026-04-19T08:19:44Z</time></trkpt><trkpt lat="43.45768611563169" lon="10.508401999832763"><ele>86.28571428571428</ele><time>2026-04-19T08:19:46Z</time></trkpt><trkpt lat="43.45760913145788" lon="10.508414184527037"><ele>85.71428571428572</ele><time>2026-04-19T08:19:48Z</time></trkpt><trkpt lat="43.457543205765376" lon="10.508421402316594"><ele>85.14285714285714</ele><time>2026-04-19T08:19:50Z</time></trkpt><trkpt lat="43.457478043899684" lon="10.50841393826174"><ele>84.57142857142857</ele><time>2026-04-19T08:19:52Z</time></trkpt><trkpt lat="43.45740992767679" lon="10.508400501615817"><ele>84.0</ele><time>2026-04-19T08:19:54Z</time></trkpt><trkpt lat="43.45734754722581" lon="10.508422615656121"><ele>84.0</ele><time>2026-04-19T08:19:57Z</time></trkpt><trkpt lat="43.45727830807332" lon="10.50847822183692"><ele>84.0</ele><time>2026-04-19T08:20:01Z</time></trkpt><trkpt lat="43.457231598059764" lon="10.508538564752035"><ele>84.0</ele><time>2026-04-19T08:20:04Z</time></trkpt><trkpt lat="43.45715915369094" lon="10.508636329577236"><ele>84.0</ele><time>2026-04-19T08:20:07Z</time></trkpt><trkpt lat="43.457081402905104" lon="10.508751649046113"><ele>84.0</ele><time>2026-04-19T08:20:09Z</time></trkpt><trkpt lat="43.45703320105551" lon="10.5088135237427"><ele>84.0</ele><time>2026-04-19T08:20:10Z</time></trkpt><trkpt lat="43.4569807636774" lon="10.508865445144508"><ele>83.33333333333333</ele><time>2026-04-19T08:20:11Z</time></trkpt><trkpt lat="43.456885618246545" lon="10.508948023327923"><ele>82.66666666666667</ele><time>2026-04-19T08:20:13Z</time></trkpt><trkpt lat="43.4567698687093" lon="10.508967829511741"><ele>82.0</ele><time>2026-04-19T08:20:15Z</time></trkpt><trkpt lat="43.45668880060436" lon="10.508959443303677"><ele>81.33333333333334</ele><time>2026-04-19T08:20:17Z</time></trkpt><trkpt lat="43.45662361292852" lon="10.508948396665394"><ele>80.66666666666667</ele><time>2026-04-19T08:20:21Z</time></trkpt><trkpt lat="43.45655354620978" lon="10.508923530701269"><ele>80.0</ele><time>2026-04-19T08:20:23Z</time></trkpt><trkpt lat="43.45646887064038" lon="10.508888051190617"><ele>80.0</ele><time>2026-04-19T08:20:25Z</time></trkpt><trkpt lat="43.456382259815406" lon="10.508856385920808"><ele>80.0</ele><time>2026-04-19T08:20:27Z</time></trkpt><trkpt lat="43.4562997127851" lon="10.508856873799347"><ele>80.0</ele><time>2026-04-19T08:20:29Z</time></trkpt><trkpt lat="43.456231443493856" lon="10.508864067800731"><ele>80.0</ele><time>2026-04-19T08:20:32Z</time></trkpt><trkpt lat="43.4561575314131" lon="10.508865442143955"><ele>80.0</ele><time>2026-04-19T08:20:35Z</time></trkpt><trkpt lat="43.456068606951" lon="10.508840100935291"><ele>80.0</ele><time>2026-04-19T08:20:38Z</time></trkpt><trkpt lat="43.456003861755015" lon="10.508808503022271"><ele>79.6</ele><time>2026-04-19T08:20:40Z</time></trkpt><trkpt lat="43.455926447963776" lon="10.508770292773882"><ele>79.2</ele><time>2026-04-19T08:20:42Z</time></trkpt><trkpt lat="43.45582068131252" lon="10.508723123704604"><ele>78.8</ele><time>2026-04-19T08:20:44Z</time></trkpt><trkpt lat="43.45570194627925" lon="10.508670005188502"><ele>78.4</ele><time>2026-04-19T08:20:46Z</time></trkpt><trkpt lat="43.4556364893868" lon="10.508636980246719"><ele>78.0</ele><time>2026-04-19T08:20:47Z</time></trkpt><trkpt lat="43.45557314293845" lon="10.508602927519046"><ele>76.85714285714286</ele><time>2026-04-19T08:20:48Z</time></trkpt><trkpt lat="43.455513029273476" lon="10.508571290160354"><ele>75.71428571428571</ele><time>2026-04-19T08:20:49Z</time></trkpt><trkpt lat="43.455448845364565" lon="10.508538649786603"><ele>74.57142857142857</ele><time>2026-04-19T08:20:50Z</time></trkpt><trkpt lat="43.45538226514978" lon="10.508505884782444"><ele>73.42857142857143</ele><time>2026-04-19T08:20:51Z</time></trkpt><trkpt lat="43.45531596902461" lon="10.50847251724829"><ele>72.28571428571428</ele><time>2026-04-19T08:20:52Z</time></trkpt><trkpt lat="43.455249790452726" lon="10.50843603461971"><ele>71.14285714285714</ele><time>2026-04-19T08:20:53Z</time></trkpt><trkpt lat="43.45518672939382" lon="10.508400317791287"><ele>70.0</ele><time>2026-04-19T08:20:54Z</time></trkpt><trkpt lat="43.45512897181784" lon="10.508364013974766"><ele>70.0</ele><time>2026-04-19T08:20:55Z</time></trkpt><trkpt lat="43.45502183737818" lon="10.508288194132057"><ele>70.0</ele><time>2026-04-19T08:20:57Z</time></trkpt><trkpt lat="43.45491756965069" lon="10.508228092788428"><ele>70.0</ele><time>2026-04-19T08:20:59Z</time></trkpt><trkpt lat="43.45480123385508" lon="10.508164282554612"><ele>70.0</ele><time>2026-04-19T08:21:01Z</time></trkpt><trkpt lat="43.45473970176225" lon="10.508131137868675"><ele>70.0</ele><time>2026-04-19T08:21:02Z</time></trkpt><trkpt lat="43.45467913876345" lon="10.508103463725229"><ele>69.83333333333333</ele><time>2026-04-19T08:21:03Z</time></trkpt><trkpt lat="43.45461599776811" lon="10.508081397622322"><ele>69.66666666666666</ele><time>2026-04-19T08:21:04Z</time></trkpt><trkpt lat="43.45455435947697" lon="10.5080632154649"><ele>69.5</ele><time>2026-04-19T08:21:05Z</time></trkpt><trkpt lat="43.45444332248847" lon="10.508037156292005"><ele>69.33333333333333</ele><time>2026-04-19T08:21:07Z</time></trkpt><trkpt lat="43.45436632536921" lon="10.508028873378112"><ele>69.16666666666667</ele><time>2026-04-19T08:21:09Z</time></trkpt><trkpt lat="43.45427186132598" lon="10.508023210679658"><ele>69.0</ele><time>2026-04-19T08:21:12Z</time></trkpt><trkpt lat="43.45419049440606" lon="10.508007899392432"><ele>69.0</ele><time>2026-04-19T08:21:14Z</time></trkpt><trkpt lat="43.45411038496148" lon="10.507986052934264"><ele>69.0</ele><time>2026-04-19T08:21:16Z</time></trkpt><trkpt lat="43.45404563286643" lon="10.507962780072464"><ele>69.0</ele><time>2026-04-19T08:22:11Z</time></trkpt><trkpt lat="43.45398128173328" lon="10.50794589081073"><ele>69.0</ele><time>2026-04-19T08:22:13Z</time></trkpt><trkpt lat="43.45388047160107" lon="10.507920071512482"><ele>69.0</ele><time>2026-04-19T08:22:15Z</time></trkpt><trkpt lat="43.4538180885454" lon="10.507898628083609"><ele>69.0</ele><time>2026-04-19T08:22:16Z</time></trkpt><trkpt lat="43.4537511059173" lon="10.507868963744707"><ele>68.28571428571429</ele><time>2026-04-19T08:22:17Z</time></trkpt><trkpt lat="43.45368193669504" lon="10.507828912185845"><ele>67.57142857142858</ele><time>2026-04-19T08:22:18Z</time></trkpt><trkpt lat="43.45361658751135" lon="10.507789638588696"><ele>66.85714285714286</ele><time>2026-04-19T08:22:19Z</time></trkpt><trkpt lat="43.453553870336044" lon="10.507750123455573"><ele>66.14285714285714</ele><time>2026-04-19T08:22:20Z</time></trkpt><trkpt lat="43.45348965902264" lon="10.507711872521957"><ele>65.42857142857142</ele><time>2026-04-19T08:22:21Z</time></trkpt><trkpt lat="43.45342788121276" lon="10.507672836824497"><ele>64.71428571428571</ele><time>2026-04-19T08:22:22Z</time></trkpt><trkpt lat="43.453368599207785" lon="10.507628973736232"><ele>64.0</ele><time>2026-04-19T08:22:23Z</time></trkpt><trkpt lat="43.45326916747195" lon="10.50753802855073"><ele>63.99999999999999</ele><time>2026-04-19T08:22:25Z</time></trkpt><trkpt lat="43.45319364888261" lon="10.507440429597892"><ele>64.0</ele><time>2026-04-19T08:22:27Z</time></trkpt><trkpt lat="43.45313181710218" lon="10.507361488844575"><ele>64.0</ele><time>2026-04-19T08:22:29Z</time></trkpt><trkpt lat="43.453062446084495" lon="10.507293767898302"><ele>64.0</ele><time>2026-04-19T08:22:31Z</time></trkpt><trkpt lat="43.45299266370378" lon="10.50723861155459"><ele>63.99999999999999</ele><time>2026-04-19T08:22:33Z</time></trkpt><trkpt lat="43.45291359910357" lon="10.507178779430868"><ele>64.0</ele><time>2026-04-19T08:22:35Z</time></trkpt><trkpt lat="43.452820597533936" lon="10.507108806098055"><ele>63.99999999999999</ele><time>2026-04-19T08:22:37Z</time></trkpt><trkpt lat="43.452717966186334" lon="10.507019748262067"><ele>64.0</ele><time>2026-04-19T08:22:39Z</time></trkpt><trkpt lat="43.45265675011298" lon="10.506969222473092"><ele>64.0</ele><time>2026-04-19T08:22:40Z</time></trkpt><trkpt lat="43.45259189628529" lon="10.506916856906551"><ele>64.0</ele><time>2026-04-19T08:22:41Z</time></trkpt><trkpt lat="43.45252226081972" lon="10.506866694669059"><ele>63.99999999999999</ele><time>2026-04-19T08:22:42Z</time></trkpt><trkpt lat="43.452445791884955" lon="10.506821148361723"><ele>64.0</ele><time>2026-04-19T08:22:43Z</time></trkpt><trkpt lat="43.45236191861809" lon="10.506776927542214"><ele>64.0</ele><time>2026-04-19T08:22:44Z</time></trkpt><trkpt lat="43.45227365299743" lon="10.506722334122925"><ele>64.0</ele><time>2026-04-19T08:22:45Z</time></trkpt><trkpt lat="43.45218820505337" lon="10.506666136846706"><ele>64.0</ele><time>2026-04-19T08:22:46Z</time></trkpt><trkpt lat="43.45210727284409" lon="10.506607642878816"><ele>64.0</ele><time>2026-04-19T08:22:47Z</time></trkpt><trkpt lat="43.45203166534415" lon="10.506545686168897"><ele>64.0</ele><time>2026-04-19T08:22:48Z</time></trkpt><trkpt lat="43.451959415191716" lon="10.506475786981422"><ele>63.42857142857142</ele><time>2026-04-19T08:22:49Z</time></trkpt><trkpt lat="43.451898255249" lon="10.506399246269572"><ele>62.85714285714285</ele><time>2026-04-19T08:22:50Z</time></trkpt><trkpt lat="43.4518485982625" lon="10.506325003498517"><ele>62.285714285714285</ele><time>2026-04-19T08:22:51Z</time></trkpt><trkpt lat="43.4518029771945" lon="10.50626052028398"><ele>61.71428571428571</ele><time>2026-04-19T08:22:52Z</time></trkpt><trkpt lat="43.4517593853295" lon="10.50619192518402"><ele>61.14285714285714</ele><time>2026-04-19T08:22:53Z</time></trkpt><trkpt lat="43.45171375857145" lon="10.506122441512503"><ele>60.57142857142857</ele><time>2026-04-19T08:22:54Z</time></trkpt><trkpt lat="43.451656597403534" lon="10.50605062850092"><ele>60.0</ele><time>2026-04-19T08:22:55Z</time></trkpt><trkpt lat="43.45159595706362" lon="10.505980516809066"><ele>60.0</ele><time>2026-04-19T08:22:56Z</time></trkpt><trkpt lat="43.451537340578426" lon="10.505912620957961"><ele>60.0</ele><time>2026-04-19T08:22:57Z</time></trkpt><trkpt lat="43.45145093832968" lon="10.505796115373542"><ele>60.0</ele><time>2026-04-19T08:22:59Z</time></trkpt><trkpt lat="43.45139413511352" lon="10.50567547911355"><ele>60.0</ele><time>2026-04-19T08:23:01Z</time></trkpt><trkpt lat="43.45134667844906" lon="10.505566734037176"><ele>60.0</ele><time>2026-04-19T08:23:03Z</time></trkpt><trkpt lat="43.45128923772369" lon="10.505427492356338"><ele>59.42857142857143</ele><time>2026-04-19T08:23:05Z</time></trkpt><trkpt lat="43.45125453692342" lon="10.505353566039291"><ele>58.857142857142854</ele><time>2026-04-19T08:23:06Z</time></trkpt><trkpt lat="43.45121602653143" lon="10.505276526617218"><ele>58.285714285714285</ele><time>2026-04-19T08:23:07Z</time></trkpt><trkpt lat="43.45117759784811" lon="10.505197832803068"><ele>57.714285714285715</ele><time>2026-04-19T08:23:08Z</time></trkpt><trkpt lat="43.45113737953779" lon="10.505115952557844"><ele>57.14285714285714</ele><time>2026-04-19T08:23:09Z</time></trkpt><trkpt lat="43.45109534041251" lon="10.505035675871525"><ele>56.57142857142857</ele><time>2026-04-19T08:23:10Z</time></trkpt><trkpt lat="43.451056583354436" lon="10.504950386236013"><ele>56.0</ele><time>2026-04-19T08:23:11Z</time></trkpt><trkpt lat="43.45101427916629" lon="10.504858837103164"><ele>56.00000000000001</ele><time>2026-04-19T08:23:12Z</time></trkpt><trkpt lat="43.45096677851672" lon="10.504758397229761"><ele>56.0</ele><time>2026-04-19T08:23:13Z</time></trkpt><trkpt lat="43.45091703216081" lon="10.5046561466213"><ele>56.0</ele><time>2026-04-19T08:23:14Z</time></trkpt><trkpt lat="43.450870912264214" lon="10.50456016248887"><ele>56.0</ele><time>2026-04-19T08:23:15Z</time></trkpt><trkpt lat="43.45083123562317" lon="10.504477839925654"><ele>56.00000000000001</ele><time>2026-04-19T08:23:16Z</time></trkpt><trkpt lat="43.450794732360976" lon="10.50440483278959"><ele>56.0</ele><time>2026-04-19T08:23:17Z</time></trkpt><trkpt lat="43.45072829529155" lon="10.504284167287802"><ele>55.333333333333336</ele><time>2026-04-19T08:23:19Z</time></trkpt><trkpt lat="43.45066991232749" lon="10.504189973305111"><ele>54.66666666666667</ele><time>2026-04-19T08:23:22Z</time></trkpt><trkpt lat="43.45061694451237" lon="10.504095551845595"><ele>54.0</ele><time>2026-04-19T08:23:25Z</time></trkpt><trkpt lat="43.45057564966655" lon="10.504016888590568"><ele>53.33333333333333</ele><time>2026-04-19T08:23:28Z</time></trkpt><trkpt lat="43.45052685793371" lon="10.503937139952875"><ele>52.666666666666664</ele><time>2026-04-19T08:23:31Z</time></trkpt><trkpt lat="43.45046495149299" lon="10.503850971283473"><ele>52.0</ele><time>2026-04-19T08:23:34Z</time></trkpt><trkpt lat="43.450395511034344" lon="10.503776825832027"><ele>50.99999999999999</ele><time>2026-04-19T08:23:37Z</time></trkpt><trkpt lat="43.450344584079694" lon="10.503697705113819"><ele>50.0</ele><time>2026-04-19T08:23:40Z</time></trkpt><trkpt lat="43.45030033259512" lon="10.50362901157601"><ele>49.0</ele><time>2026-04-19T08:23:42Z</time></trkpt><trkpt lat="43.45024215203296" lon="10.50356390623329"><ele>48.0</ele><time>2026-04-19T08:23:44Z</time></trkpt><trkpt lat="43.45015650281148" lon="10.503486612313509"><ele>47.0</ele><time>2026-04-19T08:23:45.999Z</time></trkpt><trkpt lat="43.450047388135154" lon="10.503406480411204"><ele>46.0</ele><time>2026-04-19T08:23:47.999Z</time></trkpt><trkpt lat="43.44994185448873" lon="10.503322528208555"><ele>46.0</ele><time>2026-04-19T08:23:49.999Z</time></trkpt><trkpt lat="43.449851103231886" lon="10.503240762467705"><ele>46.0</ele><time>2026-04-19T08:23:51.999Z</time></trkpt><trkpt lat="43.44979044348587" lon="10.503169089794788"><ele>46.0</ele><time>2026-04-19T08:23:53.999Z</time></trkpt><trkpt lat="43.44972967586062" lon="10.50311163287442"><ele>46.0</ele><time>2026-04-19T08:23:55.999Z</time></trkpt><trkpt lat="43.44966658029213" lon="10.503054491958146"><ele>46.0</ele><time>2026-04-19T08:23:57.999Z</time></trkpt><trkpt lat="43.44960681684404" lon="10.502976794205523"><ele>46.0</ele><time>2026-04-19T08:23:59.999Z</time></trkpt><trkpt lat="43.44954186545562" lon="10.502891976275341"><ele>44.8</ele><time>2026-04-19T08:24:01.999Z</time></trkpt><trkpt lat="43.449464006380374" lon="10.502815166485417"><ele>43.599999999999994</ele><time>2026-04-19T08:24:03.999Z</time></trkpt><trkpt lat="43.44938841943345" lon="10.502753327119768"><ele>42.4</ele><time>2026-04-19T08:24:05.999Z</time></trkpt><trkpt lat="43.449317303569366" lon="10.502690280944208"><ele>41.2</ele><time>2026-04-19T08:24:07.999Z</time></trkpt><trkpt lat="43.449232019311886" lon="10.502629228539393"><ele>40.0</ele><time>2026-04-19T08:24:09.999Z</time></trkpt><trkpt lat="43.44913538465125" lon="10.502567726938231"><ele>40.0</ele><time>2026-04-19T08:24:11.999Z</time></trkpt><trkpt lat="43.449032877114114" lon="10.502512985710387"><ele>40.0</ele><time>2026-04-19T08:24:13.999Z</time></trkpt><trkpt lat="43.448921378497154" lon="10.502468008265497"><ele>40.0</ele><time>2026-04-19T08:24:15.999Z</time></trkpt><trkpt lat="43.44881708071759" lon="10.502430840974307"><ele>40.0</ele><time>2026-04-19T08:24:17.999Z</time></trkpt><trkpt lat="43.44870830380434" lon="10.502397264913588"><ele>40.0</ele><time>2026-04-19T08:24:19.999Z</time></trkpt><trkpt lat="43.448605440172095" lon="10.502377920424678"><ele>39.4</ele><time>2026-04-19T08:24:21.999Z</time></trkpt><trkpt lat="43.44851763076363" lon="10.502363870416934"><ele>38.8</ele><time>2026-04-19T08:24:23.999Z</time></trkpt><trkpt lat="43.44842263062617" lon="10.50235936289165"><ele>38.2</ele><time>2026-04-19T08:24:25.999Z</time></trkpt><trkpt lat="43.4483268495787" lon="10.50237009895231"><ele>37.6</ele><time>2026-04-19T08:24:27.999Z</time></trkpt><trkpt lat="43.44820889063315" lon="10.502433294580591"><ele>37.0</ele><time>2026-04-19T08:24:29.999Z</time></trkpt><trkpt lat="43.44814288921109" lon="10.502481206565749"><ele>37.0</ele><time>2026-04-19T08:24:30.999Z</time></trkpt><trkpt lat="43.4480739095802" lon="10.502529512954418"><ele>37.0</ele><time>2026-04-19T08:24:31.999Z</time></trkpt><trkpt lat="43.44800537389707" lon="10.502579294146312"><ele>37.0</ele><time>2026-04-19T08:24:32.999Z</time></trkpt><trkpt lat="43.44793835873923" lon="10.502628156929939"><ele>37.0</ele><time>2026-04-19T08:24:33.999Z</time></trkpt><trkpt lat="43.44786861132841" lon="10.502677317528875"><ele>37.0</ele><time>2026-04-19T08:24:34.999Z</time></trkpt><trkpt lat="43.447799597935166" lon="10.50272302381529"><ele>37.0</ele><time>2026-04-19T08:24:35.999Z</time></trkpt><trkpt lat="43.44773920757184" lon="10.502758395885671"><ele>36.800000000000004</ele><time>2026-04-19T08:24:36.999Z</time></trkpt><trkpt lat="43.44764662088457" lon="10.502796003900455"><ele>36.6</ele><time>2026-04-19T08:24:38.999Z</time></trkpt><trkpt lat="43.44757445798924" lon="10.502799183328774"><ele>36.400000000000006</ele><time>2026-04-19T08:24:43.999Z</time></trkpt><trkpt lat="43.44751014420509" lon="10.502792565997906"><ele>36.2</ele><time>2026-04-19T08:24:46.999Z</time></trkpt><trkpt lat="43.44743626682009" lon="10.502759689854031"><ele>36.0</ele><time>2026-04-19T08:24:49Z</time></trkpt><trkpt lat="43.44733400501059" lon="10.502628170408894"><ele>36.0</ele><time>2026-04-19T08:24:51Z</time></trkpt><trkpt lat="43.44728083163206" lon="10.502539048036644"><ele>36.0</ele><time>2026-04-19T08:24:52Z</time></trkpt><trkpt lat="43.44723250453009" lon="10.502458805351608"><ele>36.0</ele><time>2026-04-19T08:24:53Z</time></trkpt><trkpt lat="43.447178752324184" lon="10.502369336959188"><ele>36.0</ele><time>2026-04-19T08:24:54Z</time></trkpt><trkpt lat="43.44712448410851" lon="10.502277460842603"><ele>36.0</ele><time>2026-04-19T08:24:55Z</time></trkpt><trkpt lat="43.44707211389921" lon="10.502188232298098"><ele>36.0</ele><time>2026-04-19T08:24:56Z</time></trkpt><trkpt lat="43.447023548548955" lon="10.502101274938623"><ele>36.0</ele><time>2026-04-19T08:24:57Z</time></trkpt><trkpt lat="43.44697502301694" lon="10.50202282282283"><ele>36.0</ele><time>2026-04-19T08:24:58Z</time></trkpt><trkpt lat="43.44692047097398" lon="10.50196535396291"><ele>36.0</ele><time>2026-04-19T08:24:59Z</time></trkpt><trkpt lat="43.44686670127224" lon="10.501913902571703"><ele>36.0</ele><time>2026-04-19T08:25:00Z</time></trkpt><trkpt lat="43.44680797725412" lon="10.501878723723317"><ele>36.0</ele><time>2026-04-19T08:25:01Z</time></trkpt><trkpt lat="43.44668715526967" lon="10.501867352463812"><ele>36.0</ele><time>2026-04-19T08:25:03Z</time></trkpt><trkpt lat="43.44662972666477" lon="10.501904738526074"><ele>36.0</ele><time>2026-04-19T08:25:04Z</time></trkpt><trkpt lat="43.446554943521384" lon="10.501980674670403"><ele>36.0</ele><time>2026-04-19T08:25:06Z</time></trkpt><trkpt lat="43.446476501254736" lon="10.502066656516543"><ele>36.0</ele><time>2026-04-19T08:25:08Z</time></trkpt><trkpt lat="43.44641874562515" lon="10.50213219054837"><ele>36.0</ele><time>2026-04-19T08:25:09Z</time></trkpt><trkpt lat="43.44635432927457" lon="10.502207662174575"><ele>36.0</ele><time>2026-04-19T08:25:10Z</time></trkpt><trkpt lat="43.44628666723233" lon="10.502286839404102"><ele>36.0</ele><time>2026-04-19T08:25:11Z</time></trkpt><trkpt lat="43.446214969966995" lon="10.502368698763933"><ele>36.2</ele><time>2026-04-19T08:25:12Z</time></trkpt><trkpt lat="43.4461405718186" lon="10.50244900379633"><ele>36.400000000000006</ele><time>2026-04-19T08:25:13Z</time></trkpt><trkpt lat="43.4460652664793" lon="10.50252901590586"><ele>36.6</ele><time>2026-04-19T08:25:14Z</time></trkpt><trkpt lat="43.44598529282176" lon="10.5026122517595"><ele>36.800000000000004</ele><time>2026-04-19T08:25:15Z</time></trkpt><trkpt lat="43.445901771518166" lon="10.502699404982446"><ele>37.0</ele><time>2026-04-19T08:25:16Z</time></trkpt><trkpt lat="43.44581654982165" lon="10.502787807198677"><ele>37.0</ele><time>2026-04-19T08:25:17Z</time></trkpt><trkpt lat="43.44573268773784" lon="10.50287180039808"><ele>37.0</ele><time>2026-04-19T08:25:18Z</time></trkpt><trkpt lat="43.44564749106549" lon="10.50295841248024"><ele>37.0</ele><time>2026-04-19T08:25:19Z</time></trkpt><trkpt lat="43.44555984482161" lon="10.503047550988377"><ele>37.0</ele><time>2026-04-19T08:25:20Z</time></trkpt><trkpt lat="43.44546697042777" lon="10.503142327801235"><ele>37.0</ele><time>2026-04-19T08:25:21Z</time></trkpt><trkpt lat="43.445371132047825" lon="10.503241565118547"><ele>36.75</ele><time>2026-04-19T08:25:22Z</time></trkpt><trkpt lat="43.44526825930298" lon="10.503340171197605"><ele>36.5</ele><time>2026-04-19T08:25:23Z</time></trkpt><trkpt lat="43.44516435303045" lon="10.503448726043048"><ele>36.25</ele><time>2026-04-19T08:25:24Z</time></trkpt><trkpt lat="43.44506224966261" lon="10.503552402689973"><ele>36.0</ele><time>2026-04-19T08:25:25Z</time></trkpt><trkpt lat="43.44496825872782" lon="10.503652031370507"><ele>36.6</ele><time>2026-04-19T08:25:26Z</time></trkpt><trkpt lat="43.444873963424975" lon="10.503749418764635"><ele>37.2</ele><time>2026-04-19T08:25:27Z</time></trkpt><trkpt lat="43.4447814120187" lon="10.503847132844754"><ele>37.8</ele><time>2026-04-19T08:25:28Z</time></trkpt><trkpt lat="43.44469599676462" lon="10.503939906210856"><ele>38.4</ele><time>2026-04-19T08:25:29Z</time></trkpt><trkpt lat="43.4446158900653" lon="10.504027330773491"><ele>39.0</ele><time>2026-04-19T08:25:30Z</time></trkpt><trkpt lat="43.44453866157987" lon="10.504109572174336"><ele>39.0</ele><time>2026-04-19T08:25:31Z</time></trkpt><trkpt lat="43.444464410475376" lon="10.50419396128926"><ele>39.0</ele><time>2026-04-19T08:25:32Z</time></trkpt><trkpt lat="43.444396647964155" lon="10.504272087606216"><ele>39.0</ele><time>2026-04-19T08:25:33Z</time></trkpt><trkpt lat="43.44433030653276" lon="10.504345970133691"><ele>39.0</ele><time>2026-04-19T08:25:34Z</time></trkpt><trkpt lat="43.444253851493606" lon="10.504417870055159"><ele>39.0</ele><time>2026-04-19T08:25:35Z</time></trkpt><trkpt lat="43.44416783003311" lon="10.50449834293641"><ele>39.6</ele><time>2026-04-19T08:25:36Z</time></trkpt><trkpt lat="43.44408487777815" lon="10.504582525302268"><ele>40.2</ele><time>2026-04-19T08:25:37Z</time></trkpt><trkpt lat="43.443997153141375" lon="10.50467262073819"><ele>40.800000000000004</ele><time>2026-04-19T08:25:38Z</time></trkpt><trkpt lat="43.443908758742715" lon="10.50476175280212"><ele>41.4</ele><time>2026-04-19T08:25:39Z</time></trkpt><trkpt lat="43.443823765283405" lon="10.504849701186462"><ele>42.0</ele><time>2026-04-19T08:25:40Z</time></trkpt><trkpt lat="43.44374261793626" lon="10.504934179315965"><ele>42.833333333333336</ele><time>2026-04-19T08:25:41Z</time></trkpt><trkpt lat="43.443665226997695" lon="10.505007254157254"><ele>43.666666666666664</ele><time>2026-04-19T08:25:42Z</time></trkpt><trkpt lat="43.4435965563703" lon="10.505076819291627"><ele>44.5</ele><time>2026-04-19T08:25:43Z</time></trkpt><trkpt lat="43.44352914089944" lon="10.50514321712942"><ele>45.33333333333333</ele><time>2026-04-19T08:25:44Z</time></trkpt><trkpt lat="43.44346687033308" lon="10.505204917880514"><ele>46.166666666666664</ele><time>2026-04-19T08:25:45Z</time></trkpt><trkpt lat="43.44340640203127" lon="10.505267237053381"><ele>47.0</ele><time>2026-04-19T08:25:46Z</time></trkpt><trkpt lat="43.44334586960369" lon="10.505330630008642"><ele>47.0</ele><time>2026-04-19T08:25:47Z</time></trkpt><trkpt lat="43.44328538993056" lon="10.50539242686332"><ele>47.0</ele><time>2026-04-19T08:25:48Z</time></trkpt><trkpt lat="43.443228082153695" lon="10.505449396485636"><ele>47.0</ele><time>2026-04-19T08:25:49Z</time></trkpt><trkpt lat="43.44314482169641" lon="10.505534183192422"><ele>47.0</ele><time>2026-04-19T08:25:50.999Z</time></trkpt><trkpt lat="43.44306070067831" lon="10.505609426504192"><ele>47.0</ele><time>2026-04-19T08:25:52.999Z</time></trkpt><trkpt lat="43.44299207103333" lon="10.505622707623347"><ele>47.0</ele><time>2026-04-19T08:25:54.999Z</time></trkpt><trkpt lat="43.44293526429795" lon="10.505583021036156"><ele>48.0</ele><time>2026-04-19T08:25:56.999Z</time></trkpt><trkpt lat="43.44288369927294" lon="10.505439712347597"><ele>49.0</ele><time>2026-04-19T08:25:58.999Z</time></trkpt><trkpt lat="43.44285338881805" lon="10.505346275047987"><ele>50.0</ele><time>2026-04-19T08:25:59.999Z</time></trkpt><trkpt lat="43.442816407462345" lon="10.505246963128332"><ele>51.0</ele><time>2026-04-19T08:26:00.999Z</time></trkpt><trkpt lat="43.4427738520386" lon="10.505142645220504"><ele>52.0</ele><time>2026-04-19T08:26:01.999Z</time></trkpt><trkpt lat="43.44272697315724" lon="10.505031554119709"><ele>52.0</ele><time>2026-04-19T08:26:02.999Z</time></trkpt><trkpt lat="43.44267255826338" lon="10.504909127324886"><ele>52.0</ele><time>2026-04-19T08:26:03.999Z</time></trkpt><trkpt lat="43.44261271782154" lon="10.50477116531146"><ele>52.0</ele><time>2026-04-19T08:26:04.999Z</time></trkpt><trkpt lat="43.44254849445751" lon="10.504618325234647"><ele>52.0</ele><time>2026-04-19T08:26:05.999Z</time></trkpt><trkpt lat="43.442484004933505" lon="10.50445960969761"><ele>51.0</ele><time>2026-04-19T08:26:06.999Z</time></trkpt><trkpt lat="43.44242042264595" lon="10.50429141917034"><ele>50.0</ele><time>2026-04-19T08:26:07.999Z</time></trkpt><trkpt lat="43.442361162620806" lon="10.504114302629231"><ele>49.0</ele><time>2026-04-19T08:26:08.999Z</time></trkpt><trkpt lat="43.44230635741438" lon="10.503927693205563"><ele>48.0</ele><time>2026-04-19T08:26:09.999Z</time></trkpt><trkpt lat="43.44225472090277" lon="10.503738801679203"><ele>48.0</ele><time>2026-04-19T08:26:10.999Z</time></trkpt><trkpt lat="43.44220620269983" lon="10.503549717948642"><ele>48.0</ele><time>2026-04-19T08:26:11.999Z</time></trkpt><trkpt lat="43.442162314174006" lon="10.503371922319692"><ele>48.0</ele><time>2026-04-19T08:26:12.999Z</time></trkpt><trkpt lat="43.442126966308415" lon="10.503209495555165"><ele>48.0</ele><time>2026-04-19T08:26:13.999Z</time></trkpt><trkpt lat="43.442096962351194" lon="10.503070479988123"><ele>48.0</ele><time>2026-04-19T08:26:14.999Z</time></trkpt><trkpt lat="43.44207155642939" lon="10.502949320101123"><ele>48.0</ele><time>2026-04-19T08:26:15.999Z</time></trkpt><trkpt lat="43.44205068528843" lon="10.502849781964382"><ele>48.0</ele><time>2026-04-19T08:26:16.999Z</time></trkpt><trkpt lat="43.44201292889402" lon="10.502717950707444"><ele>48.0</ele><time>2026-04-19T08:26:18.999Z</time></trkpt><trkpt lat="43.441917538974515" lon="10.502668401266526"><ele>48.0</ele><time>2026-04-19T08:26:20.999Z</time></trkpt><trkpt lat="43.44184667373982" lon="10.502683345378266"><ele>48.0</ele><time>2026-04-19T08:26:21.999Z</time></trkpt><trkpt lat="43.44176495114314" lon="10.502704397701834"><ele>48.2</ele><time>2026-04-19T08:26:22.999Z</time></trkpt><trkpt lat="43.441680604196755" lon="10.502718314616075"><ele>48.4</ele><time>2026-04-19T08:26:24Z</time></trkpt><trkpt lat="43.44158803048961" lon="10.502731803749441"><ele>48.6</ele><time>2026-04-19T08:26:25Z</time></trkpt><trkpt lat="43.44149240022299" lon="10.502748164261062"><ele>48.800000000000004</ele><time>2026-04-19T08:26:26Z</time></trkpt><trkpt lat="43.44139087900214" lon="10.502766291588225"><ele>49.0</ele><time>2026-04-19T08:26:27Z</time></trkpt><trkpt lat="43.4412822557909" lon="10.502787136089074"><ele>49.0</ele><time>2026-04-19T08:26:28Z</time></trkpt><trkpt lat="43.441166205722695" lon="10.502807787598405"><ele>49.0</ele><time>2026-04-19T08:26:29Z</time></trkpt><trkpt lat="43.44105337505928" lon="10.502832747350379"><ele>49.0</ele><time>2026-04-19T08:26:30Z</time></trkpt><trkpt lat="43.44094088034561" lon="10.502855256594543"><ele>49.0</ele><time>2026-04-19T08:26:31Z</time></trkpt><trkpt lat="43.4408308141827" lon="10.502874758949432"><ele>49.0</ele><time>2026-04-19T08:26:32Z</time></trkpt><trkpt lat="43.440738269795716" lon="10.502890985762853"><ele>49.0</ele><time>2026-04-19T08:26:33Z</time></trkpt><trkpt lat="43.440646386585705" lon="10.502910190646887"><ele>49.0</ele><time>2026-04-19T08:26:34Z</time></trkpt><trkpt lat="43.44056634978678" lon="10.502930246282306"><ele>49.0</ele><time>2026-04-19T08:26:35Z</time></trkpt><trkpt lat="43.44050321784455" lon="10.50294903718055"><ele>49.0</ele><time>2026-04-19T08:26:36Z</time></trkpt><trkpt lat="43.44037828752873" lon="10.502986594108174"><ele>47.99999999999999</ele><time>2026-04-19T08:26:38Z</time></trkpt><trkpt lat="43.44030677073184" lon="10.50300519994489"><ele>47.0</ele><time>2026-04-19T08:26:39Z</time></trkpt><trkpt lat="43.44023903316442" lon="10.503016158125668"><ele>46.0</ele><time>2026-04-19T08:26:40Z</time></trkpt><trkpt lat="43.44013625953685" lon="10.503024369956456"><ele>45.0</ele><time>2026-04-19T08:26:42Z</time></trkpt><trkpt lat="43.44001542383479" lon="10.503029317309837"><ele>44.0</ele><time>2026-04-19T08:26:44Z</time></trkpt><trkpt lat="43.439946859600575" lon="10.503029243663779"><ele>43.0</ele><time>2026-04-19T08:26:45Z</time></trkpt><trkpt lat="43.43988098052225" lon="10.503024498418132"><ele>43.0</ele><time>2026-04-19T08:26:46Z</time></trkpt><trkpt lat="43.43981415592287" lon="10.50301788899094"><ele>43.0</ele><time>2026-04-19T08:26:47Z</time></trkpt><trkpt lat="43.43973643221944" lon="10.503010084554777"><ele>43.0</ele><time>2026-04-19T08:26:48Z</time></trkpt><trkpt lat="43.4396492241203" lon="10.503002504265588"><ele>43.0</ele><time>2026-04-19T08:26:49Z</time></trkpt><trkpt lat="43.43955449710861" lon="10.502994487171"><ele>43.0</ele><time>2026-04-19T08:26:50Z</time></trkpt><trkpt lat="43.43946062038898" lon="10.502984997214954"><ele>43.0</ele><time>2026-04-19T08:26:51Z</time></trkpt><trkpt lat="43.439371094320926" lon="10.502978073350317"><ele>42.599999999999994</ele><time>2026-04-19T08:26:52Z</time></trkpt><trkpt lat="43.43928011687348" lon="10.502971016253323"><ele>42.199999999999996</ele><time>2026-04-19T08:26:53Z</time></trkpt><trkpt lat="43.43918959548526" lon="10.502965159418878"><ele>41.8</ele><time>2026-04-19T08:26:54Z</time></trkpt><trkpt lat="43.43909602832488" lon="10.502959102892858"><ele>41.4</ele><time>2026-04-19T08:26:55Z</time></trkpt><trkpt lat="43.439001026297" lon="10.50295338190667"><ele>41.0</ele><time>2026-04-19T08:26:56Z</time></trkpt><trkpt lat="43.43890828745631" lon="10.502948095206143"><ele>41.0</ele><time>2026-04-19T08:26:57Z</time></trkpt><trkpt lat="43.43881333001251" lon="10.502940700024983"><ele>41.0</ele><time>2026-04-19T08:26:58Z</time></trkpt><trkpt lat="43.438716650511374" lon="10.50293670209496"><ele>41.0</ele><time>2026-04-19T08:26:59Z</time></trkpt><trkpt lat="43.43862672521535" lon="10.50292768360156"><ele>41.0</ele><time>2026-04-19T08:27:00Z</time></trkpt><trkpt lat="43.43853519773509" lon="10.502921218998853"><ele>41.0</ele><time>2026-04-19T08:27:01Z</time></trkpt><trkpt lat="43.43844003860628" lon="10.502914465300082"><ele>41.0</ele><time>2026-04-19T08:27:02Z</time></trkpt><trkpt lat="43.43834328588859" lon="10.502905590958896"><ele>41.0</ele><time>2026-04-19T08:27:03Z</time></trkpt><trkpt lat="43.43824321204021" lon="10.502896705049848"><ele>41.0</ele><time>2026-04-19T08:27:04Z</time></trkpt><trkpt lat="43.43814130041227" lon="10.502888851972298"><ele>41.0</ele><time>2026-04-19T08:27:05Z</time></trkpt><trkpt lat="43.43804133464062" lon="10.502882501030768"><ele>41.0</ele><time>2026-04-19T08:27:06Z</time></trkpt><trkpt lat="43.437939980496296" lon="10.502876088889089"><ele>40.5</ele><time>2026-04-19T08:27:07Z</time></trkpt><trkpt lat="43.43784425163024" lon="10.502865882072587"><ele>40.0</ele><time>2026-04-19T08:27:08Z</time></trkpt><trkpt lat="43.437749263950025" lon="10.502859171732025"><ele>39.5</ele><time>2026-04-19T08:27:09Z</time></trkpt><trkpt lat="43.437665823281925" lon="10.50285204529252"><ele>39.0</ele><time>2026-04-19T08:27:10Z</time></trkpt><trkpt lat="43.43758949747664" lon="10.502844213768286"><ele>38.5</ele><time>2026-04-19T08:27:11Z</time></trkpt><trkpt lat="43.43751700178396" lon="10.502838054639197"><ele>38.0</ele><time>2026-04-19T08:27:12Z</time></trkpt><trkpt lat="43.43745021946158" lon="10.502833381128488"><ele>38.0</ele><time>2026-04-19T08:27:13Z</time></trkpt><trkpt lat="43.43738025256833" lon="10.502824728310886"><ele>38.0</ele><time>2026-04-19T08:27:14Z</time></trkpt><trkpt lat="43.437313617307154" lon="10.50281421432876"><ele>38.0</ele><time>2026-04-19T08:27:15Z</time></trkpt><trkpt lat="43.437248541005005" lon="10.50280567243214"><ele>38.0</ele><time>2026-04-19T08:27:16Z</time></trkpt><trkpt lat="43.43718137377744" lon="10.50280623834152"><ele>38.0</ele><time>2026-04-19T08:27:17Z</time></trkpt><trkpt lat="43.43711308481437" lon="10.502823109642707"><ele>38.0</ele><time>2026-04-19T08:27:18Z</time></trkpt><trkpt lat="43.43704410041334" lon="10.502860010481237"><ele>38.0</ele><time>2026-04-19T08:27:19Z</time></trkpt><trkpt lat="43.436990082861875" lon="10.502916293382318"><ele>37.857142857142854</ele><time>2026-04-19T08:27:20Z</time></trkpt><trkpt lat="43.43694300293781" lon="10.502974149632486"><ele>37.714285714285715</ele><time>2026-04-19T08:27:21Z</time></trkpt><trkpt lat="43.436882587507746" lon="10.503067249099592"><ele>37.57142857142857</ele><time>2026-04-19T08:27:23Z</time></trkpt><trkpt lat="43.4368371940971" lon="10.503152548521738"><ele>37.42857142857143</ele><time>2026-04-19T08:27:25Z</time></trkpt><trkpt lat="43.43679855497691" lon="10.503224247477645"><ele>37.285714285714285</ele><time>2026-04-19T08:27:27Z</time></trkpt><trkpt lat="43.436749829729465" lon="10.503289050218523"><ele>37.142857142857146</ele><time>2026-04-19T08:27:29Z</time></trkpt><trkpt lat="43.43668508744957" lon="10.503337815607132"><ele>37.0</ele><time>2026-04-19T08:27:31Z</time></trkpt><trkpt lat="43.43658427713522" lon="10.503385509916416"><ele>37.0</ele><time>2026-04-19T08:27:33Z</time></trkpt><trkpt lat="43.436506367089905" lon="10.503507471172961"><ele>37.0</ele><time>2026-04-19T08:27:35Z</time></trkpt><trkpt lat="43.43648109549904" lon="10.503598123442234"><ele>37.0</ele><time>2026-04-19T08:27:36Z</time></trkpt><trkpt lat="43.436459798371956" lon="10.503692173343302"><ele>37.0</ele><time>2026-04-19T08:27:37Z</time></trkpt><trkpt lat="43.43643318698571" lon="10.503847593549358"><ele>37.0</ele><time>2026-04-19T08:27:39Z</time></trkpt><trkpt lat="43.436405642311605" lon="10.504011554560764"><ele>37.0</ele><time>2026-04-19T08:27:41Z</time></trkpt><trkpt lat="43.43636911646534" lon="10.504169816337159"><ele>37.0</ele><time>2026-04-19T08:27:43Z</time></trkpt><trkpt lat="43.43634361446215" lon="10.504256484428423"><ele>37.0</ele><time>2026-04-19T08:27:44Z</time></trkpt><trkpt lat="43.43632101503153" lon="10.504343985715918"><ele>37.0</ele><time>2026-04-19T08:27:45Z</time></trkpt><trkpt lat="43.43629031356171" lon="10.50449826630238"><ele>37.0</ele><time>2026-04-19T08:27:47Z</time></trkpt><trkpt lat="43.43629615626367" lon="10.504585579092195"><ele>37.0</ele><time>2026-04-19T08:27:48Z</time></trkpt><trkpt lat="43.4363679336314" lon="10.504724670041496"><ele>36.2</ele><time>2026-04-19T08:27:50Z</time></trkpt><trkpt lat="43.4364156791019" lon="10.504781698773227"><ele>35.400000000000006</ele><time>2026-04-19T08:27:51Z</time></trkpt><trkpt lat="43.43644919941126" lon="10.504959312437132"><ele>34.599999999999994</ele><time>2026-04-19T08:27:53Z</time></trkpt><trkpt lat="43.43641802330934" lon="10.505083342545133"><ele>33.8</ele><time>2026-04-19T08:27:54Z</time></trkpt><trkpt lat="43.43636501223871" lon="10.50521350744946"><ele>33.0</ele><time>2026-04-19T08:27:55Z</time></trkpt><trkpt lat="43.43631702370999" lon="10.505346760612513"><ele>33.8</ele><time>2026-04-19T08:27:56Z</time></trkpt><trkpt lat="43.43628055211282" lon="10.505471388695026"><ele>34.599999999999994</ele><time>2026-04-19T08:27:56.999Z</time></trkpt><trkpt lat="43.4362419618403" lon="10.505593107653226"><ele>35.400000000000006</ele><time>2026-04-19T08:27:57.999Z</time></trkpt><trkpt lat="43.43620557605816" lon="10.505708444924862"><ele>36.2</ele><time>2026-04-19T08:27:58.999Z</time></trkpt><trkpt lat="43.436178003692895" lon="10.505828278167913"><ele>37.0</ele><time>2026-04-19T08:27:59.999Z</time></trkpt><trkpt lat="43.43616898389905" lon="10.505965610133005"><ele>37.0</ele><time>2026-04-19T08:28:00.999Z</time></trkpt><trkpt lat="43.43617982341343" lon="10.506106759175628"><ele>37.0</ele><time>2026-04-19T08:28:01.999Z</time></trkpt><trkpt lat="43.43620419146596" lon="10.506232334651019"><ele>37.0</ele><time>2026-04-19T08:28:02.999Z</time></trkpt><trkpt lat="43.43623848127096" lon="10.506368018597604"><ele>37.0</ele><time>2026-04-19T08:28:03.999Z</time></trkpt><trkpt lat="43.43626313121754" lon="10.506503802980465"><ele>37.0</ele><time>2026-04-19T08:28:04.999Z</time></trkpt><trkpt lat="43.436275778905916" lon="10.50662495747851"><ele>36.85714285714286</ele><time>2026-04-19T08:28:05.999Z</time></trkpt><trkpt lat="43.43628028851482" lon="10.506732207119507"><ele>36.714285714285715</ele><time>2026-04-19T08:28:06.999Z</time></trkpt><trkpt lat="43.436275458410485" lon="10.506830105693146"><ele>36.57142857142857</ele><time>2026-04-19T08:28:07.999Z</time></trkpt><trkpt lat="43.43626914907337" lon="10.506928033129705"><ele>36.42857142857143</ele><time>2026-04-19T08:28:08.999Z</time></trkpt><trkpt lat="43.4362672992119" lon="10.50702704983352"><ele>36.285714285714285</ele><time>2026-04-19T08:28:09.999Z</time></trkpt><trkpt lat="43.436272323726314" lon="10.507129771478182"><ele>36.142857142857146</ele><time>2026-04-19T08:28:10.999Z</time></trkpt><trkpt lat="43.436274153701284" lon="10.50723800932896"><ele>36.0</ele><time>2026-04-19T08:28:11.999Z</time></trkpt><trkpt lat="43.43626998532883" lon="10.507341974586264"><ele>36.28571428571429</ele><time>2026-04-19T08:28:12.999Z</time></trkpt><trkpt lat="43.43625031197515" lon="10.507432296492306"><ele>36.57142857142857</ele><time>2026-04-19T08:28:13.999Z</time></trkpt><trkpt lat="43.436223451699426" lon="10.507514950045877"><ele>36.85714285714286</ele><time>2026-04-19T08:28:14.999Z</time></trkpt><trkpt lat="43.43619201605278" lon="10.507605455495373"><ele>37.142857142857146</ele><time>2026-04-19T08:28:15.999Z</time></trkpt><trkpt lat="43.436176661249405" lon="10.507701067145865"><ele>37.42857142857143</ele><time>2026-04-19T08:28:16.999Z</time></trkpt><trkpt lat="43.4361812310029" lon="10.507803152508705"><ele>37.714285714285715</ele><time>2026-04-19T08:28:17.999Z</time></trkpt><trkpt lat="43.43619728163065" lon="10.507909808107264"><ele>38.0</ele><time>2026-04-19T08:28:18.999Z</time></trkpt><trkpt lat="43.43622531372971" lon="10.508018836405231"><ele>38.0</ele><time>2026-04-19T08:28:19.999Z</time></trkpt><trkpt lat="43.43626074963265" lon="10.508127701863852"><ele>38.0</ele><time>2026-04-19T08:28:20.999Z</time></trkpt><trkpt lat="43.43628616254748" lon="10.508245310649938"><ele>38.0</ele><time>2026-04-19T08:28:21.999Z</time></trkpt><trkpt lat="43.43630563850676" lon="10.508382809935451"><ele>38.0</ele><time>2026-04-19T08:28:22.999Z</time></trkpt><trkpt lat="43.436316399113466" lon="10.508503596152256"><ele>38.0</ele><time>2026-04-19T08:28:23.999Z</time></trkpt><trkpt lat="43.436328832331704" lon="10.50862648066141"><ele>38.33333333333333</ele><time>2026-04-19T08:28:24.999Z</time></trkpt><trkpt lat="43.43633547311348" lon="10.508752173776573"><ele>38.666666666666664</ele><time>2026-04-19T08:28:25.999Z</time></trkpt><trkpt lat="43.43634224547017" lon="10.508872604837489"><ele>39.0</ele><time>2026-04-19T08:28:26.999Z</time></trkpt><trkpt lat="43.43634728265523" lon="10.508992040844989"><ele>39.333333333333336</ele><time>2026-04-19T08:28:28Z</time></trkpt><trkpt lat="43.43635380415116" lon="10.509111343264724"><ele>39.66666666666667</ele><time>2026-04-19T08:28:29Z</time></trkpt><trkpt lat="43.43636133936884" lon="10.509230864014459"><ele>40.0</ele><time>2026-04-19T08:28:30Z</time></trkpt><trkpt lat="43.43636691623766" lon="10.509358217963209"><ele>40.0</ele><time>2026-04-19T08:28:31Z</time></trkpt><trkpt lat="43.436363159264125" lon="10.509477849392772"><ele>40.0</ele><time>2026-04-19T08:28:32Z</time></trkpt><trkpt lat="43.436353408371566" lon="10.509591063118204"><ele>40.0</ele><time>2026-04-19T08:28:33Z</time></trkpt><trkpt lat="43.436341617770054" lon="10.509698139265103"><ele>40.0</ele><time>2026-04-19T08:28:34Z</time></trkpt><trkpt lat="43.436327010333294" lon="10.509802675848292"><ele>40.0</ele><time>2026-04-19T08:28:35Z</time></trkpt><trkpt lat="43.43630920882182" lon="10.509914488196046"><ele>40.0</ele><time>2026-04-19T08:28:36Z</time></trkpt><trkpt lat="43.43629175082091" lon="10.510029101702411"><ele>42.0</ele><time>2026-04-19T08:28:37Z</time></trkpt><trkpt lat="43.436275450074774" lon="10.51014566321159"><ele>44.0</ele><time>2026-04-19T08:28:38Z</time></trkpt><trkpt lat="43.43626275180711" lon="10.510262789274911"><ele>46.0</ele><time>2026-04-19T08:28:39Z</time></trkpt><trkpt lat="43.43625153787714" lon="10.510377421380989"><ele>48.0</ele><time>2026-04-19T08:28:40Z</time></trkpt><trkpt lat="43.43624600877426" lon="10.51048948206111"><ele>49.99999999999999</ele><time>2026-04-19T08:28:41Z</time></trkpt><trkpt lat="43.43623383400429" lon="10.510599412099875"><ele>52.0</ele><time>2026-04-19T08:28:42Z</time></trkpt><trkpt lat="43.436223738444475" lon="10.510715168710448"><ele>53.0</ele><time>2026-04-19T08:28:43Z</time></trkpt><trkpt lat="43.43621180237064" lon="10.510839627247949"><ele>54.0</ele><time>2026-04-19T08:28:44Z</time></trkpt><trkpt lat="43.43620095196357" lon="10.510971480851826"><ele>55.0</ele><time>2026-04-19T08:28:45Z</time></trkpt><trkpt lat="43.43618821555788" lon="10.511109841031324"><ele>56.0</ele><time>2026-04-19T08:28:46Z</time></trkpt><trkpt lat="43.436176127959634" lon="10.511260855519081"><ele>57.0</ele><time>2026-04-19T08:28:47Z</time></trkpt><trkpt lat="43.4361598161342" lon="10.511414754949024"><ele>57.75</ele><time>2026-04-19T08:28:48Z</time></trkpt><trkpt lat="43.43614265328133" lon="10.511572867717193"><ele>58.5</ele><time>2026-04-19T08:28:49Z</time></trkpt><trkpt lat="43.43612910775419" lon="10.51174167358035"><ele>59.25</ele><time>2026-04-19T08:28:50Z</time></trkpt><trkpt lat="43.43611509595786" lon="10.511926051640076"><ele>60.0</ele><time>2026-04-19T08:28:51Z</time></trkpt><trkpt lat="43.436100120432556" lon="10.512120502638275"><ele>60.0</ele><time>2026-04-19T08:28:52Z</time></trkpt><trkpt lat="43.43608457184571" lon="10.512325354973475"><ele>60.0</ele><time>2026-04-19T08:28:53Z</time></trkpt><trkpt lat="43.43606584679415" lon="10.512514597881491"><ele>60.0</ele><time>2026-04-19T08:28:54Z</time></trkpt><trkpt lat="43.436044987752126" lon="10.51271595799051"><ele>60.0</ele><time>2026-04-19T08:28:55Z</time></trkpt><trkpt lat="43.43602638990704" lon="10.512913701789182"><ele>61.0</ele><time>2026-04-19T08:28:56Z</time></trkpt><trkpt lat="43.436002950590904" lon="10.513114217646901"><ele>62.0</ele><time>2026-04-19T08:28:57Z</time></trkpt><trkpt lat="43.43598291947494" lon="10.513312869455273"><ele>63.0</ele><time>2026-04-19T08:28:58Z</time></trkpt><trkpt lat="43.43596335298106" lon="10.513502315210411"><ele>64.0</ele><time>2026-04-19T08:28:59Z</time></trkpt><trkpt lat="43.435946599713255" lon="10.513691685127863"><ele>64.75</ele><time>2026-04-19T08:29:00Z</time></trkpt><trkpt lat="43.43592708238287" lon="10.513880726793808"><ele>65.5</ele><time>2026-04-19T08:29:01Z</time></trkpt><trkpt lat="43.43590890083677" lon="10.514078545010902"><ele>66.25</ele><time>2026-04-19T08:29:02Z</time></trkpt><trkpt lat="43.43589051788716" lon="10.514276156769101"><ele>67.0</ele><time>2026-04-19T08:29:03Z</time></trkpt><trkpt lat="43.43587362058983" lon="10.51446985110938"><ele>67.5</ele><time>2026-04-19T08:29:04Z</time></trkpt><trkpt lat="43.43584763680762" lon="10.514656322369026"><ele>68.0</ele><time>2026-04-19T08:29:05Z</time></trkpt><trkpt lat="43.43584157799433" lon="10.514849565874012"><ele>68.5</ele><time>2026-04-19T08:29:06Z</time></trkpt><trkpt lat="43.435827827236324" lon="10.515045849309987"><ele>69.0</ele><time>2026-04-19T08:29:07Z</time></trkpt><trkpt lat="43.43581290409655" lon="10.51523854604708"><ele>69.75</ele><time>2026-04-19T08:29:08Z</time></trkpt><trkpt lat="43.435796630606646" lon="10.515434441251433"><ele>70.5</ele><time>2026-04-19T08:29:09Z</time></trkpt><trkpt lat="43.43578023730772" lon="10.51563598913501"><ele>71.25</ele><time>2026-04-19T08:29:10Z</time></trkpt><trkpt lat="43.43576075373732" lon="10.515838194047346"><ele>72.0</ele><time>2026-04-19T08:29:11Z</time></trkpt><trkpt lat="43.43573971862401" lon="10.516042949890887"><ele>72.0</ele><time>2026-04-19T08:29:12Z</time></trkpt><trkpt lat="43.435718726815026" lon="10.51623394497966"><ele>72.0</ele><time>2026-04-19T08:29:13Z</time></trkpt><trkpt lat="43.435700014620814" lon="10.51640696649574"><ele>72.0</ele><time>2026-04-19T08:29:14Z</time></trkpt><trkpt lat="43.435668677718425" lon="10.516559612213552"><ele>72.0</ele><time>2026-04-19T08:29:15Z</time></trkpt><trkpt lat="43.43564100339716" lon="10.516704714103133"><ele>72.4</ele><time>2026-04-19T08:29:16Z</time></trkpt><trkpt lat="43.43562193645205" lon="10.516852268250327"><ele>72.80000000000001</ele><time>2026-04-19T08:29:17Z</time></trkpt><trkpt lat="43.43560632992858" lon="10.517001713099592"><ele>73.2</ele><time>2026-04-19T08:29:18Z</time></trkpt><trkpt lat="43.435591314257216" lon="10.517152731340854"><ele>73.60000000000001</ele><time>2026-04-19T08:29:19Z</time></trkpt><trkpt lat="43.43556351196389" lon="10.517303218313904"><ele>74.0</ele><time>2026-04-19T08:29:20Z</time></trkpt><trkpt lat="43.43552430013014" lon="10.517435259299598"><ele>74.0</ele><time>2026-04-19T08:29:21Z</time></trkpt><trkpt lat="43.43548632214843" lon="10.51756119665941"><ele>74.0</ele><time>2026-04-19T08:29:22Z</time></trkpt><trkpt lat="43.43545573667661" lon="10.517685086853662"><ele>74.0</ele><time>2026-04-19T08:29:23Z</time></trkpt><trkpt lat="43.435442205678314" lon="10.517830869925795"><ele>74.0</ele><time>2026-04-19T08:29:24Z</time></trkpt><trkpt lat="43.43543901590939" lon="10.517983646875567"><ele>74.0</ele><time>2026-04-19T08:29:25Z</time></trkpt><trkpt lat="43.435448528976565" lon="10.518134787116427"><ele>73.75</ele><time>2026-04-19T08:29:26Z</time></trkpt><trkpt lat="43.435456888656965" lon="10.518277506967275"><ele>73.5</ele><time>2026-04-19T08:29:27Z</time></trkpt><trkpt lat="43.43545485730475" lon="10.518446463213962"><ele>73.25</ele><time>2026-04-19T08:29:28Z</time></trkpt><trkpt lat="43.43544548553522" lon="10.518609583166196"><ele>73.0</ele><time>2026-04-19T08:29:29Z</time></trkpt><trkpt lat="43.43543119898517" lon="10.518787146665007"><ele>72.5</ele><time>2026-04-19T08:29:30Z</time></trkpt><trkpt lat="43.43540902369029" lon="10.518974845061003"><ele>72.0</ele><time>2026-04-19T08:29:31Z</time></trkpt><trkpt lat="43.43538209146701" lon="10.519154247354146"><ele>71.5</ele><time>2026-04-19T08:29:32Z</time></trkpt><trkpt lat="43.43533658412376" lon="10.519326446971357"><ele>71.0</ele><time>2026-04-19T08:29:33Z</time></trkpt><trkpt lat="43.435326102691384" lon="10.51950762842827"><ele>71.25</ele><time>2026-04-19T08:29:34Z</time></trkpt><trkpt lat="43.43530243214249" lon="10.519692940241235"><ele>71.5</ele><time>2026-04-19T08:29:35Z</time></trkpt><trkpt lat="43.43528579159645" lon="10.519886380479907"><ele>71.75</ele><time>2026-04-19T08:29:36Z</time></trkpt><trkpt lat="43.43527480210152" lon="10.520075562760374"><ele>72.0</ele><time>2026-04-19T08:29:37Z</time></trkpt><trkpt lat="43.4352692921056" lon="10.52026129542691"><ele>73.25</ele><time>2026-04-19T08:29:38Z</time></trkpt><trkpt lat="43.43526426092459" lon="10.520436472870083"><ele>74.5</ele><time>2026-04-19T08:29:39Z</time></trkpt><trkpt lat="43.4352615899326" lon="10.520616045770138"><ele>75.75</ele><time>2026-04-19T08:29:40Z</time></trkpt><trkpt lat="43.43525685666146" lon="10.520800743426463"><ele>77.0</ele><time>2026-04-19T08:29:41Z</time></trkpt><trkpt lat="43.435259775462015" lon="10.520967513085056"><ele>77.0</ele><time>2026-04-19T08:29:42Z</time></trkpt><trkpt lat="43.43526464042236" lon="10.52113614009528"><ele>77.0</ele><time>2026-04-19T08:29:43Z</time></trkpt><trkpt lat="43.43527524955358" lon="10.521311382796673"><ele>77.0</ele><time>2026-04-19T08:29:44Z</time></trkpt><trkpt lat="43.435298100322235" lon="10.521476726903444"><ele>77.0</ele><time>2026-04-19T08:29:45Z</time></trkpt><trkpt lat="43.43533763956344" lon="10.521636651028887"><ele>77.5</ele><time>2026-04-19T08:29:46Z</time></trkpt><trkpt lat="43.43538675521806" lon="10.52179854214734"><ele>78.0</ele><time>2026-04-19T08:29:47Z</time></trkpt><trkpt lat="43.435451360793415" lon="10.52195408154402"><ele>78.5</ele><time>2026-04-19T08:29:48Z</time></trkpt><trkpt lat="43.435535152691486" lon="10.522101538167894"><ele>79.0</ele><time>2026-04-19T08:29:49Z</time></trkpt><trkpt lat="43.4356285645047" lon="10.522245176646782"><ele>79.5</ele><time>2026-04-19T08:29:50Z</time></trkpt><trkpt lat="43.435724595316756" lon="10.522383537901632"><ele>80.0</ele><time>2026-04-19T08:29:51Z</time></trkpt><trkpt lat="43.43582057823782" lon="10.522510614691736"><ele>80.5</ele><time>2026-04-19T08:29:52Z</time></trkpt><trkpt lat="43.435912944009466" lon="10.522634502013583"><ele>81.0</ele><time>2026-04-19T08:29:53Z</time></trkpt><trkpt lat="43.43599946906315" lon="10.52277262889483"><ele>80.75</ele><time>2026-04-19T08:29:54Z</time></trkpt><trkpt lat="43.436078425023396" lon="10.522918790869127"><ele>80.5</ele><time>2026-04-19T08:29:55Z</time></trkpt><trkpt lat="43.436148042863344" lon="10.523087775409383"><ele>80.25</ele><time>2026-04-19T08:29:56Z</time></trkpt><trkpt lat="43.43619931415548" lon="10.523273532809219"><ele>80.0</ele><time>2026-04-19T08:29:57Z</time></trkpt><trkpt lat="43.436233285380844" lon="10.523455775524672"><ele>80.0</ele><time>2026-04-19T08:29:58Z</time></trkpt><trkpt lat="43.43626308591359" lon="10.52364096632497"><ele>80.0</ele><time>2026-04-19T08:29:59Z</time></trkpt><trkpt lat="43.43628194064012" lon="10.523838789378296"><ele>80.0</ele><time>2026-04-19T08:30:00Z</time></trkpt><trkpt lat="43.43629563309135" lon="10.52403391996942"><ele>80.0</ele><time>2026-04-19T08:30:01Z</time></trkpt><trkpt lat="43.436306006032176" lon="10.524237088461266"><ele>80.75</ele><time>2026-04-19T08:30:02Z</time></trkpt><trkpt lat="43.436293682328255" lon="10.524432710536221"><ele>81.5</ele><time>2026-04-19T08:30:02.999Z</time></trkpt><trkpt lat="43.436312787205445" lon="10.52461385650194"><ele>82.25</ele><time>2026-04-19T08:30:03.999Z</time></trkpt><trkpt lat="43.436309814378575" lon="10.524792193163792"><ele>83.0</ele><time>2026-04-19T08:30:04.999Z</time></trkpt><trkpt lat="43.436322037514216" lon="10.524967029497507"><ele>84.0</ele><time>2026-04-19T08:30:05.999Z</time></trkpt><trkpt lat="43.43634313098405" lon="10.525124406429976"><ele>85.0</ele><time>2026-04-19T08:30:06.999Z</time></trkpt><trkpt lat="43.43636883982633" lon="10.525311783271444"><ele>86.0</ele><time>2026-04-19T08:30:07.999Z</time></trkpt><trkpt lat="43.4363939715159" lon="10.525505029510878"><ele>87.0</ele><time>2026-04-19T08:30:08.999Z</time></trkpt><trkpt lat="43.4364201547938" lon="10.525695834036707"><ele>87.5</ele><time>2026-04-19T08:30:09.999Z</time></trkpt><trkpt lat="43.43644428479173" lon="10.525888092080578"><ele>88.0</ele><time>2026-04-19T08:30:10.999Z</time></trkpt><trkpt lat="43.43646776088072" lon="10.52606958143755"><ele>88.5</ele><time>2026-04-19T08:30:11.999Z</time></trkpt><trkpt lat="43.43648777271545" lon="10.526225672098946"><ele>89.0</ele><time>2026-04-19T08:30:12.999Z</time></trkpt><trkpt lat="43.43650559005111" lon="10.526356659213185"><ele>89.16666666666667</ele><time>2026-04-19T08:30:13.999Z</time></trkpt><trkpt lat="43.436520785551664" lon="10.526477126136726"><ele>89.33333333333334</ele><time>2026-04-19T08:30:14.999Z</time></trkpt><trkpt lat="43.43652465648088" lon="10.526608096676858"><ele>89.5</ele><time>2026-04-19T08:30:15.999Z</time></trkpt><trkpt lat="43.43653805557581" lon="10.526716656336202"><ele>89.66666666666667</ele><time>2026-04-19T08:30:16.999Z</time></trkpt><trkpt lat="43.43655757682309" lon="10.52683424785468"><ele>89.83333333333333</ele><time>2026-04-19T08:30:18.999Z</time></trkpt><trkpt lat="43.43657384345181" lon="10.526949326592536"><ele>90.0</ele><time>2026-04-19T08:30:21.999Z</time></trkpt><trkpt lat="43.43659944698106" lon="10.527086359271916"><ele>90.33333333333333</ele><time>2026-04-19T08:30:23.999Z</time></trkpt><trkpt lat="43.43661766690524" lon="10.527171616544953"><ele>90.66666666666667</ele><time>2026-04-19T08:30:24.999Z</time></trkpt><trkpt lat="43.436636455781965" lon="10.527268164718851"><ele>91.0</ele><time>2026-04-19T08:30:25.999Z</time></trkpt><trkpt lat="43.436650534511905" lon="10.52737577714176"><ele>91.33333333333334</ele><time>2026-04-19T08:30:26.999Z</time></trkpt><trkpt lat="43.43666103259393" lon="10.527490253236085"><ele>91.66666666666667</ele><time>2026-04-19T08:30:28Z</time></trkpt><trkpt lat="43.436681634889126" lon="10.527612670964784"><ele>92.0</ele><time>2026-04-19T08:30:29Z</time></trkpt><trkpt lat="43.43670363495161" lon="10.527718669081358"><ele>92.0</ele><time>2026-04-19T08:30:30Z</time></trkpt><trkpt lat="43.43672846158983" lon="10.527804080919834"><ele>92.0</ele><time>2026-04-19T08:30:31Z</time></trkpt><trkpt lat="43.43676149434188" lon="10.527892262055296"><ele>92.0</ele><time>2026-04-19T08:30:34Z</time></trkpt><trkpt lat="43.4367902071706" lon="10.527974599633644"><ele>92.0</ele><time>2026-04-19T08:30:36Z</time></trkpt><trkpt lat="43.43682444157401" lon="10.52806664020531"><ele>92.0</ele><time>2026-04-19T08:30:39Z</time></trkpt><trkpt lat="43.43686516993232" lon="10.528171222171864"><ele>92.0</ele><time>2026-04-19T08:30:42Z</time></trkpt><trkpt lat="43.4369148206106" lon="10.528302591675175"><ele>92.6</ele><time>2026-04-19T08:30:44Z</time></trkpt><trkpt lat="43.43699276165247" lon="10.528452286931604"><ele>93.19999999999999</ele><time>2026-04-19T08:30:46Z</time></trkpt><trkpt lat="43.437041862884925" lon="10.528538301599712"><ele>93.8</ele><time>2026-04-19T08:30:47Z</time></trkpt><trkpt lat="43.43710093508689" lon="10.52863139391341"><ele>94.4</ele><time>2026-04-19T08:30:48Z</time></trkpt><trkpt lat="43.43715952211755" lon="10.528724820342726"><ele>95.0</ele><time>2026-04-19T08:30:49Z</time></trkpt><trkpt lat="43.43722206497229" lon="10.528817627160755"><ele>96.0</ele><time>2026-04-19T08:30:50Z</time></trkpt><trkpt lat="43.43728777058313" lon="10.528905232070885"><ele>97.0</ele><time>2026-04-19T08:30:51Z</time></trkpt><trkpt lat="43.4373606910078" lon="10.528993877292768"><ele>98.0</ele><time>2026-04-19T08:30:52Z</time></trkpt><trkpt lat="43.4374314988147" lon="10.529080278358855"><ele>99.0</ele><time>2026-04-19T08:30:53Z</time></trkpt><trkpt lat="43.437504169213554" lon="10.52917027772654"><ele>100.0</ele><time>2026-04-19T08:30:54Z</time></trkpt><trkpt lat="43.43757791102316" lon="10.529264597642598"><ele>100.0</ele><time>2026-04-19T08:30:55Z</time></trkpt><trkpt lat="43.43764996191178" lon="10.529362941814421"><ele>100.0</ele><time>2026-04-19T08:30:56Z</time></trkpt><trkpt lat="43.43772507288809" lon="10.52946172795224"><ele>100.0</ele><time>2026-04-19T08:30:57Z</time></trkpt><trkpt lat="43.437801108736224" lon="10.52957070880243"><ele>100.0</ele><time>2026-04-19T08:30:58Z</time></trkpt><trkpt lat="43.4378678606194" lon="10.529675773664536"><ele>100.0</ele><time>2026-04-19T08:30:59Z</time></trkpt><trkpt lat="43.437923455554525" lon="10.529800123875837"><ele>100.6</ele><time>2026-04-19T08:31:00Z</time></trkpt><trkpt lat="43.437985184744804" lon="10.52990927444631"><ele>101.2</ele><time>2026-04-19T08:31:01Z</time></trkpt><trkpt lat="43.43804294027071" lon="10.530011328484063"><ele>101.80000000000001</ele><time>2026-04-19T08:31:02Z</time></trkpt><trkpt lat="43.43810609270437" lon="10.530119335814016"><ele>102.4</ele><time>2026-04-19T08:31:03Z</time></trkpt><trkpt lat="43.43817564909043" lon="10.530228130125515"><ele>103.0</ele><time>2026-04-19T08:31:04Z</time></trkpt><trkpt lat="43.43825889764339" lon="10.530326728097405"><ele>103.0</ele><time>2026-04-19T08:31:05Z</time></trkpt><trkpt lat="43.43831521585746" lon="10.53045290631472"><ele>103.0</ele><time>2026-04-19T08:31:06Z</time></trkpt><trkpt lat="43.43837172680449" lon="10.530569005816501"><ele>103.0</ele><time>2026-04-19T08:31:07Z</time></trkpt><trkpt lat="43.43842115395466" lon="10.530696538146985"><ele>103.0</ele><time>2026-04-19T08:31:08Z</time></trkpt><trkpt lat="43.43846104913537" lon="10.530825122429672"><ele>103.0</ele><time>2026-04-19T08:31:09Z</time></trkpt><trkpt lat="43.43849789338921" lon="10.530956617619976"><ele>103.0</ele><time>2026-04-19T08:31:10Z</time></trkpt><trkpt lat="43.43852737908273" lon="10.531097349178852"><ele>103.0</ele><time>2026-04-19T08:31:11Z</time></trkpt><trkpt lat="43.438551937050725" lon="10.531237455136294"><ele>103.0</ele><time>2026-04-19T08:31:12Z</time></trkpt><trkpt lat="43.438575185103716" lon="10.531373007533697"><ele>103.0</ele><time>2026-04-19T08:31:13Z</time></trkpt><trkpt lat="43.43860244547484" lon="10.531511210748956"><ele>103.0</ele><time>2026-04-19T08:31:14Z</time></trkpt><trkpt lat="43.43862730299727" lon="10.531666837860264"><ele>103.75</ele><time>2026-04-19T08:31:15Z</time></trkpt><trkpt lat="43.43865658067343" lon="10.531827629240016"><ele>104.5</ele><time>2026-04-19T08:31:16Z</time></trkpt><trkpt lat="43.438687958120575" lon="10.5319890236897"><ele>105.25</ele><time>2026-04-19T08:31:17Z</time></trkpt><trkpt lat="43.43873018842249" lon="10.532150513775504"><ele>106.0</ele><time>2026-04-19T08:31:18Z</time></trkpt><trkpt lat="43.43876888144388" lon="10.532319904979497"><ele>106.25</ele><time>2026-04-19T08:31:19Z</time></trkpt><trkpt lat="43.4388081114895" lon="10.532493484231656"><ele>106.5</ele><time>2026-04-19T08:31:20Z</time></trkpt><trkpt lat="43.43884876031977" lon="10.532677613340109"><ele>106.75</ele><time>2026-04-19T08:31:21Z</time></trkpt><trkpt lat="43.438889181519855" lon="10.5328587432427"><ele>107.0</ele><time>2026-04-19T08:31:22Z</time></trkpt><trkpt lat="43.43892762325131" lon="10.533039062216758"><ele>107.0</ele><time>2026-04-19T08:31:23Z</time></trkpt><trkpt lat="43.438957036920684" lon="10.533206908844571"><ele>107.0</ele><time>2026-04-19T08:31:24Z</time></trkpt><trkpt lat="43.43897830670253" lon="10.533394047236248"><ele>107.0</ele><time>2026-04-19T08:31:25Z</time></trkpt><trkpt lat="43.43899965492357" lon="10.533588405137973"><ele>107.0</ele><time>2026-04-19T08:31:26Z</time></trkpt><trkpt lat="43.439013455421176" lon="10.533781090712663"><ele>106.5</ele><time>2026-04-19T08:31:27Z</time></trkpt><trkpt lat="43.43902866760185" lon="10.533986682473957"><ele>106.0</ele><time>2026-04-19T08:31:28Z</time></trkpt><trkpt lat="43.439040536622166" lon="10.534175410014395"><ele>105.5</ele><time>2026-04-19T08:31:29Z</time></trkpt><trkpt lat="43.4390451489469" lon="10.534334255948346"><ele>105.0</ele><time>2026-04-19T08:31:30Z</time></trkpt><trkpt lat="43.439061111100834" lon="10.534528461708245"><ele>105.5</ele><time>2026-04-19T08:31:31Z</time></trkpt><trkpt lat="43.439065036271245" lon="10.534692525134334"><ele>106.0</ele><time>2026-04-19T08:31:32Z</time></trkpt><trkpt lat="43.43908036396683" lon="10.53485510311997"><ele>106.5</ele><time>2026-04-19T08:31:33Z</time></trkpt><trkpt lat="43.43907595743629" lon="10.535006588583146"><ele>107.0</ele><time>2026-04-19T08:31:34Z</time></trkpt><trkpt lat="43.4390841348768" lon="10.535159264091954"><ele>107.0</ele><time>2026-04-19T08:31:35Z</time></trkpt><trkpt lat="43.4390941841229" lon="10.535326626316728"><ele>107.0</ele><time>2026-04-19T08:31:36Z</time></trkpt><trkpt lat="43.43910535562794" lon="10.53549798000367"><ele>107.0</ele><time>2026-04-19T08:31:37Z</time></trkpt><trkpt lat="43.43911965668613" lon="10.53566926947596"><ele>107.0</ele><time>2026-04-19T08:31:38Z</time></trkpt><trkpt lat="43.439150267828545" lon="10.535830031172098"><ele>107.25</ele><time>2026-04-19T08:31:39Z</time></trkpt><trkpt lat="43.43916661603398" lon="10.535984498951846"><ele>107.5</ele><time>2026-04-19T08:31:40Z</time></trkpt><trkpt lat="43.43919455035386" lon="10.536132063532222"><ele>107.75</ele><time>2026-04-19T08:31:41Z</time></trkpt><trkpt lat="43.439232537128724" lon="10.536276866903894"><ele>108.0</ele><time>2026-04-19T08:31:42Z</time></trkpt><trkpt lat="43.43927487527267" lon="10.536424344909635"><ele>108.0</ele><time>2026-04-19T08:31:43Z</time></trkpt><trkpt lat="43.43930995881854" lon="10.536582202745851"><ele>108.0</ele><time>2026-04-19T08:31:44Z</time></trkpt><trkpt lat="43.43933451571296" lon="10.536743926285977"><ele>108.0</ele><time>2026-04-19T08:31:45Z</time></trkpt><trkpt lat="43.43934875291291" lon="10.536899497298938"><ele>108.0</ele><time>2026-04-19T08:31:46Z</time></trkpt><trkpt lat="43.43936560230734" lon="10.537046545555757"><ele>108.5</ele><time>2026-04-19T08:31:47Z</time></trkpt><trkpt lat="43.43936942910182" lon="10.537198570121474"><ele>109.0</ele><time>2026-04-19T08:31:48Z</time></trkpt><trkpt lat="43.43937176799842" lon="10.537352848350103"><ele>109.5</ele><time>2026-04-19T08:31:49Z</time></trkpt><trkpt lat="43.43936660411088" lon="10.537518190190468"><ele>110.0</ele><time>2026-04-19T08:31:50Z</time></trkpt><trkpt lat="43.43935833845783" lon="10.537677270966162"><ele>110.0</ele><time>2026-04-19T08:31:51Z</time></trkpt><trkpt lat="43.43935397320387" lon="10.537799222627013"><ele>110.0</ele><time>2026-04-19T08:31:52Z</time></trkpt><trkpt lat="43.4393481936582" lon="10.537941251409265"><ele>110.0</ele><time>2026-04-19T08:31:53Z</time></trkpt><trkpt lat="43.439393035017154" lon="10.538073292603794"><ele>110.0</ele><time>2026-04-19T08:31:54Z</time></trkpt><trkpt lat="43.43943002446188" lon="10.538206278990904"><ele>110.0</ele><time>2026-04-19T08:31:55Z</time></trkpt><trkpt lat="43.43946862833391" lon="10.538330285256356"><ele>110.2</ele><time>2026-04-19T08:31:56Z</time></trkpt><trkpt lat="43.43950273920941" lon="10.538441621306369"><ele>110.4</ele><time>2026-04-19T08:31:57Z</time></trkpt><trkpt lat="43.439533615744644" lon="10.538546178872116"><ele>110.6</ele><time>2026-04-19T08:31:58Z</time></trkpt><trkpt lat="43.439561701607715" lon="10.538640558725715"><ele>110.8</ele><time>2026-04-19T08:31:59Z</time></trkpt><trkpt lat="43.43960805371705" lon="10.538803939193942"><ele>111.0</ele><time>2026-04-19T08:32:01Z</time></trkpt><trkpt lat="43.43963852678114" lon="10.538908820302503"><ele>109.6</ele><time>2026-04-19T08:32:03Z</time></trkpt><trkpt lat="43.43966781111386" lon="10.539014455318965"><ele>108.19999999999999</ele><time>2026-04-19T08:32:16.999Z</time></trkpt><trkpt lat="43.439695927587636" lon="10.539138686722689"><ele>106.80000000000001</ele><time>2026-04-19T08:32:21Z</time></trkpt><trkpt lat="43.43972305466269" lon="10.539261619728379"><ele>105.4</ele><time>2026-04-19T08:32:23Z</time></trkpt><trkpt lat="43.43975192973932" lon="10.53942248977285"><ele>104.0</ele><time>2026-04-19T08:32:25Z</time></trkpt><trkpt lat="43.43976720284425" lon="10.539509638862276"><ele>104.49999999999999</ele><time>2026-04-19T08:32:26Z</time></trkpt><trkpt lat="43.439783210597994" lon="10.539604793048268"><ele>105.0</ele><time>2026-04-19T08:32:27Z</time></trkpt><trkpt lat="43.439799963868396" lon="10.539706475431501"><ele>105.5</ele><time>2026-04-19T08:32:28Z</time></trkpt><trkpt lat="43.43981643951505" lon="10.539801582028248"><ele>106.0</ele><time>2026-04-19T08:32:29Z</time></trkpt><trkpt lat="43.439828822397615" lon="10.539892480612604"><ele>106.49999999999999</ele><time>2026-04-19T08:32:30Z</time></trkpt><trkpt lat="43.439832645957466" lon="10.539983425914603"><ele>107.0</ele><time>2026-04-19T08:32:31Z</time></trkpt><trkpt lat="43.43987465803634" lon="10.540132056497429"><ele>107.0</ele><time>2026-04-19T08:32:33Z</time></trkpt><trkpt lat="43.439884042115665" lon="10.540290906892118"><ele>106.99999999999999</ele><time>2026-04-19T08:32:35Z</time></trkpt><trkpt lat="43.43991882554116" lon="10.540413085550552"><ele>106.99999999999999</ele><time>2026-04-19T08:32:37Z</time></trkpt><trkpt lat="43.439927272941624" lon="10.540535382451194"><ele>107.0</ele><time>2026-04-19T08:32:39Z</time></trkpt><trkpt lat="43.43993728112436" lon="10.540704120523863"><ele>107.0</ele><time>2026-04-19T08:32:41Z</time></trkpt><trkpt lat="43.43995360048786" lon="10.54080337229935"><ele>107.25</ele><time>2026-04-19T08:32:42Z</time></trkpt><trkpt lat="43.43998986359748" lon="10.541005991135258"><ele>107.5</ele><time>2026-04-19T08:32:44Z</time></trkpt><trkpt lat="43.44002433923883" lon="10.54116258588043"><ele>107.75</ele><time>2026-04-19T08:32:46Z</time></trkpt><trkpt lat="43.440045293156935" lon="10.54134194390934"><ele>108.0</ele><time>2026-04-19T08:32:48Z</time></trkpt><trkpt lat="43.44005130417817" lon="10.541445308010928"><ele>108.33333333333333</ele><time>2026-04-19T08:32:49Z</time></trkpt><trkpt lat="43.44004681069058" lon="10.541550509229241"><ele>108.66666666666666</ele><time>2026-04-19T08:32:50Z</time></trkpt><trkpt lat="43.440032486538875" lon="10.54165262079355"><ele>109.0</ele><time>2026-04-19T08:32:51Z</time></trkpt><trkpt lat="43.44000380321071" lon="10.541746268253927"><ele>109.33333333333333</ele><time>2026-04-19T08:32:52Z</time></trkpt><trkpt lat="43.43996979583822" lon="10.541819803312203"><ele>109.66666666666666</ele><time>2026-04-19T08:32:53Z</time></trkpt><trkpt lat="43.439897186004316" lon="10.541933125284162"><ele>110.0</ele><time>2026-04-19T08:32:55Z</time></trkpt><trkpt lat="43.43980367496926" lon="10.541997484200069"><ele>110.2</ele><time>2026-04-19T08:32:57Z</time></trkpt><trkpt lat="43.43972484485718" lon="10.542097290883207"><ele>110.4</ele><time>2026-04-19T08:32:59Z</time></trkpt><trkpt lat="43.43963150922065" lon="10.542183294307245"><ele>110.6</ele><time>2026-04-19T08:33:01Z</time></trkpt><trkpt lat="43.43955553352152" lon="10.542297086926688"><ele>110.8</ele><time>2026-04-19T08:33:03Z</time></trkpt><trkpt lat="43.43951352365256" lon="10.5424436999726"><ele>111.0</ele><time>2026-04-19T08:33:05Z</time></trkpt><trkpt lat="43.43950901658634" lon="10.54257938078277"><ele>111.0</ele><time>2026-04-19T08:33:07Z</time></trkpt><trkpt lat="43.43955709890404" lon="10.542703035937901"><ele>111.0</ele><time>2026-04-19T08:33:09Z</time></trkpt><trkpt lat="43.43959923599611" lon="10.54277414248481"><ele>111.0</ele><time>2026-04-19T08:33:10Z</time></trkpt><trkpt lat="43.439647213367806" lon="10.542852064717364"><ele>111.0</ele><time>2026-04-19T08:33:11Z</time></trkpt><trkpt lat="43.43969611292933" lon="10.54293632851119"><ele>111.0</ele><time>2026-04-19T08:33:12Z</time></trkpt><trkpt lat="43.43974498022659" lon="10.54302293857266"><ele>111.0</ele><time>2026-04-19T08:33:13Z</time></trkpt><trkpt lat="43.43979140708561" lon="10.543104670999316"><ele>111.0</ele><time>2026-04-19T08:33:14Z</time></trkpt><trkpt lat="43.43983260727482" lon="10.543179908009119"><ele>111.0</ele><time>2026-04-19T08:33:15Z</time></trkpt><trkpt lat="43.439871419646884" lon="10.54324868756717"><ele>111.0</ele><time>2026-04-19T08:33:16Z</time></trkpt><trkpt lat="43.43991013223778" lon="10.543318979499183"><ele>111.0</ele><time>2026-04-19T08:33:17Z</time></trkpt><trkpt lat="43.4399862764931" lon="10.543452488346748"><ele>111.0</ele><time>2026-04-19T08:33:19Z</time></trkpt><trkpt lat="43.44005117086375" lon="10.543567206290204"><ele>111.0</ele><time>2026-04-19T08:33:21Z</time></trkpt><trkpt lat="43.440115600774554" lon="10.543685954908792"><ele>111.8</ele><time>2026-04-19T08:33:23Z</time></trkpt><trkpt lat="43.44018656102016" lon="10.543831625044154"><ele>112.6</ele><time>2026-04-19T08:33:25Z</time></trkpt><trkpt lat="43.44024858545687" lon="10.543979291572994"><ele>113.4</ele><time>2026-04-19T08:33:27Z</time></trkpt><trkpt lat="43.440279242796755" lon="10.544143965669017"><ele>114.2</ele><time>2026-04-19T08:33:29Z</time></trkpt><trkpt lat="43.44027673274902" lon="10.544240378531267"><ele>115.0</ele><time>2026-04-19T08:33:30Z</time></trkpt><trkpt lat="43.44024943804254" lon="10.544327801939989"><ele>115.00000000000001</ele><time>2026-04-19T08:33:31Z</time></trkpt><trkpt lat="43.440240707169984" lon="10.544415906967641"><ele>115.0</ele><time>2026-04-19T08:33:32Z</time></trkpt><trkpt lat="43.44020531857118" lon="10.544499283720837"><ele>115.0</ele><time>2026-04-19T08:33:33Z</time></trkpt><trkpt lat="43.44016523178403" lon="10.54458692807272"><ele>115.0</ele><time>2026-04-19T08:33:34Z</time></trkpt><trkpt lat="43.44011238616747" lon="10.544669010112612"><ele>115.00000000000001</ele><time>2026-04-19T08:33:35Z</time></trkpt><trkpt lat="43.44003781459043" lon="10.544725308435948"><ele>115.0</ele><time>2026-04-19T08:33:36Z</time></trkpt><trkpt lat="43.43997146177609" lon="10.544791492913646"><ele>115.50000000000001</ele><time>2026-04-19T08:33:37Z</time></trkpt><trkpt lat="43.439909991720334" lon="10.54487365374484"><ele>116.0</ele><time>2026-04-19T08:33:38Z</time></trkpt><trkpt lat="43.43983955051143" lon="10.544938032896065"><ele>116.5</ele><time>2026-04-19T08:33:39Z</time></trkpt><trkpt lat="43.43976529825613" lon="10.54500076158896"><ele>117.0</ele><time>2026-04-19T08:33:40Z</time></trkpt><trkpt lat="43.43967911781751" lon="10.545050653584813"><ele>117.50000000000001</ele><time>2026-04-19T08:33:41Z</time></trkpt><trkpt lat="43.43960682361282" lon="10.545133955463827"><ele>118.0</ele><time>2026-04-19T08:33:42Z</time></trkpt><trkpt lat="43.439532172633356" lon="10.54519645608014"><ele>118.16666666666667</ele><time>2026-04-19T08:33:43Z</time></trkpt><trkpt lat="43.43945904391497" lon="10.545257015776503"><ele>118.33333333333334</ele><time>2026-04-19T08:33:44Z</time></trkpt><trkpt lat="43.43939012391224" lon="10.54531264822557"><ele>118.5</ele><time>2026-04-19T08:33:45Z</time></trkpt><trkpt lat="43.43932309487686" lon="10.545367265635468"><ele>118.66666666666666</ele><time>2026-04-19T08:33:46Z</time></trkpt><trkpt lat="43.439257127899474" lon="10.545422866342598"><ele>118.83333333333333</ele><time>2026-04-19T08:33:47Z</time></trkpt><trkpt lat="43.43919011644555" lon="10.545466713380828"><ele>119.0</ele><time>2026-04-19T08:33:48Z</time></trkpt><trkpt lat="43.4391182232197" lon="10.545495323204118"><ele>119.2</ele><time>2026-04-19T08:33:49Z</time></trkpt><trkpt lat="43.43903054530062" lon="10.54551056995359"><ele>119.4</ele><time>2026-04-19T08:33:50Z</time></trkpt><trkpt lat="43.43894005520154" lon="10.545528998821467"><ele>119.6</ele><time>2026-04-19T08:33:51Z</time></trkpt><trkpt lat="43.43884529187667" lon="10.545540885787625"><ele>119.8</ele><time>2026-04-19T08:33:52Z</time></trkpt><trkpt lat="43.438752995827784" lon="10.545555329443324"><ele>120.0</ele><time>2026-04-19T08:33:53Z</time></trkpt><trkpt lat="43.438662006643085" lon="10.54556670500443"><ele>119.66666666666667</ele><time>2026-04-19T08:33:54.001Z</time></trkpt><trkpt lat="43.43856743674411" lon="10.545581939549738"><ele>119.33333333333334</ele><time>2026-04-19T08:33:55.001Z</time></trkpt><trkpt lat="43.43847407552827" lon="10.545599374456064"><ele>119.0</ele><time>2026-04-19T08:33:56.001Z</time></trkpt><trkpt lat="43.43838745546761" lon="10.545621440129397"><ele>118.66666666666667</ele><time>2026-04-19T08:33:57.001Z</time></trkpt><trkpt lat="43.43831215331561" lon="10.545649435633564"><ele>118.33333333333334</ele><time>2026-04-19T08:33:58.001Z</time></trkpt><trkpt lat="43.43824517794721" lon="10.545677585934355"><ele>118.0</ele><time>2026-04-19T08:33:59.001Z</time></trkpt><trkpt lat="43.43818115033314" lon="10.545693546327271"><ele>118.0</ele><time>2026-04-19T08:34:00.001Z</time></trkpt><trkpt lat="43.43807503645479" lon="10.545722885157714"><ele>118.00000000000001</ele><time>2026-04-19T08:34:02.001Z</time></trkpt><trkpt lat="43.437971467009646" lon="10.54578785362643"><ele>118.00000000000001</ele><time>2026-04-19T08:34:04.001Z</time></trkpt><trkpt lat="43.43788182320203" lon="10.545808729296445"><ele>118.0</ele><time>2026-04-19T08:34:06.001Z</time></trkpt><trkpt lat="43.43781526681272" lon="10.545837265862113"><ele>118.0</ele><time>2026-04-19T08:34:08.001Z</time></trkpt><trkpt lat="43.43773216606789" lon="10.545870925393789"><ele>117.5</ele><time>2026-04-19T08:34:10.001Z</time></trkpt><trkpt lat="43.43761945455481" lon="10.545918975189299"><ele>117.0</ele><time>2026-04-19T08:34:12.001Z</time></trkpt><trkpt lat="43.437511542486135" lon="10.545981762193556"><ele>116.5</ele><time>2026-04-19T08:34:14.001Z</time></trkpt><trkpt lat="43.437423057279084" lon="10.546094125379502"><ele>116.0</ele><time>2026-04-19T08:34:16Z</time></trkpt><trkpt lat="43.43740555314877" lon="10.54626934873942"><ele>116.66666666666666</ele><time>2026-04-19T08:34:18Z</time></trkpt><trkpt lat="43.437430717288514" lon="10.546358029815304"><ele>117.33333333333333</ele><time>2026-04-19T08:34:19Z</time></trkpt><trkpt lat="43.43747153194608" lon="10.546437988254306"><ele>118.0</ele><time>2026-04-19T08:34:20Z</time></trkpt><trkpt lat="43.43751372002177" lon="10.546537718104299"><ele>118.66666666666666</ele><time>2026-04-19T08:34:21Z</time></trkpt><trkpt lat="43.43755511663428" lon="10.546641655768843"><ele>119.33333333333333</ele><time>2026-04-19T08:34:22Z</time></trkpt><trkpt lat="43.43759520313581" lon="10.546730875216163"><ele>120.0</ele><time>2026-04-19T08:34:23Z</time></trkpt><trkpt lat="43.437634516734086" lon="10.546821182983475"><ele>120.0</ele><time>2026-04-19T08:34:24Z</time></trkpt><trkpt lat="43.43767494648912" lon="10.546918932257762"><ele>120.0</ele><time>2026-04-19T08:34:25Z</time></trkpt><trkpt lat="43.43772010482183" lon="10.54702922611818"><ele>120.0</ele><time>2026-04-19T08:34:26Z</time></trkpt><trkpt lat="43.43776859140729" lon="10.547147359587747"><ele>120.0</ele><time>2026-04-19T08:34:27Z</time></trkpt><trkpt lat="43.437819000867556" lon="10.547272174954863"><ele>120.0</ele><time>2026-04-19T08:34:28Z</time></trkpt><trkpt lat="43.437875430516" lon="10.547405973196364"><ele>120.75</ele><time>2026-04-19T08:34:29Z</time></trkpt><trkpt lat="43.43793440876136" lon="10.54754728328931"><ele>121.5</ele><time>2026-04-19T08:34:30Z</time></trkpt><trkpt lat="43.43799300844492" lon="10.547692268958025"><ele>122.25</ele><time>2026-04-19T08:34:31Z</time></trkpt><trkpt lat="43.438051719237" lon="10.547835249598462"><ele>123.0</ele><time>2026-04-19T08:34:32Z</time></trkpt><trkpt lat="43.43810986390393" lon="10.547975063401978"><ele>123.4</ele><time>2026-04-19T08:34:33Z</time></trkpt><trkpt lat="43.438163578641145" lon="10.548102569793068"><ele>123.80000000000001</ele><time>2026-04-19T08:34:34Z</time></trkpt><trkpt lat="43.438213106621866" lon="10.548226906175486"><ele>124.2</ele><time>2026-04-19T08:34:35Z</time></trkpt><trkpt lat="43.43826172634345" lon="10.548350635014986"><ele>124.6</ele><time>2026-04-19T08:34:36Z</time></trkpt><trkpt lat="43.438307474795344" lon="10.548467199854823"><ele>125.0</ele><time>2026-04-19T08:34:37Z</time></trkpt><trkpt lat="43.43834553924844" lon="10.548566965966407"><ele>125.0</ele><time>2026-04-19T08:34:38Z</time></trkpt><trkpt lat="43.43838605008596" lon="10.548673873981496"><ele>125.0</ele><time>2026-04-19T08:34:39Z</time></trkpt><trkpt lat="43.43843306677591" lon="10.548789907630596"><ele>125.0</ele><time>2026-04-19T08:34:40Z</time></trkpt><trkpt lat="43.438484634284826" lon="10.548902241861922"><ele>125.0</ele><time>2026-04-19T08:34:41Z</time></trkpt><trkpt lat="43.438536526323816" lon="10.549017848031598"><ele>125.0</ele><time>2026-04-19T08:34:42Z</time></trkpt><trkpt lat="43.438587099502655" lon="10.549134825758685"><ele>125.66666666666666</ele><time>2026-04-19T08:34:43Z</time></trkpt><trkpt lat="43.43863124265309" lon="10.549238353264519"><ele>126.33333333333333</ele><time>2026-04-19T08:34:44Z</time></trkpt><trkpt lat="43.4386721956082" lon="10.549335273986333"><ele>127.0</ele><time>2026-04-19T08:34:45Z</time></trkpt><trkpt lat="43.43871259843093" lon="10.549429123441172"><ele>127.66666666666666</ele><time>2026-04-19T08:34:46Z</time></trkpt><trkpt lat="43.43875592330986" lon="10.54953479449991"><ele>128.33333333333334</ele><time>2026-04-19T08:34:47Z</time></trkpt><trkpt lat="43.43880113244297" lon="10.549650852582895"><ele>129.0</ele><time>2026-04-19T08:34:48Z</time></trkpt><trkpt lat="43.43884406265742" lon="10.549766492578348"><ele>129.66666666666666</ele><time>2026-04-19T08:34:49Z</time></trkpt><trkpt lat="43.43888573385804" lon="10.549874587680996"><ele>130.33333333333334</ele><time>2026-04-19T08:34:50Z</time></trkpt><trkpt lat="43.43892895182575" lon="10.549988745715185"><ele>131.0</ele><time>2026-04-19T08:34:51Z</time></trkpt><trkpt lat="43.43897319587838" lon="10.550094805161221"><ele>131.66666666666669</ele><time>2026-04-19T08:34:52Z</time></trkpt><trkpt lat="43.43901417172935" lon="10.550191316712958"><ele>132.33333333333334</ele><time>2026-04-19T08:34:53Z</time></trkpt><trkpt lat="43.439052651715976" lon="10.550275243813502"><ele>133.0</ele><time>2026-04-19T08:34:54Z</time></trkpt><trkpt lat="43.43911659817185" lon="10.550414521600482"><ele>133.66666666666669</ele><time>2026-04-19T08:34:56Z</time></trkpt><trkpt lat="43.43916180731758" lon="10.550549198884987"><ele>134.33333333333334</ele><time>2026-04-19T08:34:58Z</time></trkpt><trkpt lat="43.439216472707784" lon="10.550680210153914"><ele>135.0</ele><time>2026-04-19T08:35:00Z</time></trkpt><trkpt lat="43.439253036694" lon="10.550763672812922"><ele>135.66666666666666</ele><time>2026-04-19T08:35:01Z</time></trkpt><trkpt lat="43.43928847893484" lon="10.550849326210963"><ele>136.33333333333331</ele><time>2026-04-19T08:35:02Z</time></trkpt><trkpt lat="43.43932054199726" lon="10.550939125123149"><ele>137.0</ele><time>2026-04-19T08:35:03Z</time></trkpt><trkpt lat="43.43934756799933" lon="10.551030731554874"><ele>137.0</ele><time>2026-04-19T08:35:04Z</time></trkpt><trkpt lat="43.439373019697605" lon="10.551129461723175"><ele>137.0</ele><time>2026-04-19T08:35:05Z</time></trkpt><trkpt lat="43.439395950827844" lon="10.551230731049216"><ele>137.0</ele><time>2026-04-19T08:35:06Z</time></trkpt><trkpt lat="43.43941787861874" lon="10.551330618647114"><ele>137.0</ele><time>2026-04-19T08:35:07Z</time></trkpt><trkpt lat="43.439449002735444" lon="10.551432355671727"><ele>137.0</ele><time>2026-04-19T08:35:08Z</time></trkpt><trkpt lat="43.43948533827009" lon="10.551534401110143"><ele>137.0</ele><time>2026-04-19T08:35:09Z</time></trkpt><trkpt lat="43.439529284510286" lon="10.551641118287394"><ele>137.16666666666666</ele><time>2026-04-19T08:35:10Z</time></trkpt><trkpt lat="43.43957881304734" lon="10.551749314053167"><ele>137.33333333333331</ele><time>2026-04-19T08:35:11Z</time></trkpt><trkpt lat="43.439631997711864" lon="10.55184959705521"><ele>137.5</ele><time>2026-04-19T08:35:12Z</time></trkpt><trkpt lat="43.439689705503504" lon="10.551938238442089"><ele>137.66666666666666</ele><time>2026-04-19T08:35:13Z</time></trkpt><trkpt lat="43.43974550617636" lon="10.5520385544549"><ele>137.83333333333334</ele><time>2026-04-19T08:35:14Z</time></trkpt><trkpt lat="43.43978869735808" lon="10.552139200406955"><ele>138.0</ele><time>2026-04-19T08:35:15Z</time></trkpt><trkpt lat="43.43981946619127" lon="10.552225949416785"><ele>139.20000000000002</ele><time>2026-04-19T08:35:16Z</time></trkpt><trkpt lat="43.43986858706353" lon="10.552373546622864"><ele>140.4</ele><time>2026-04-19T08:35:18Z</time></trkpt><trkpt lat="43.43991086611542" lon="10.552506619587989"><ele>141.60000000000002</ele><time>2026-04-19T08:35:20Z</time></trkpt><trkpt lat="43.439965307027734" lon="10.552673242630094"><ele>142.8</ele><time>2026-04-19T08:35:22Z</time></trkpt><trkpt lat="43.439996959954506" lon="10.552765827239245"><ele>144.0</ele><time>2026-04-19T08:35:23Z</time></trkpt><trkpt lat="43.440033825266866" lon="10.55287104311706"><ele>144.33333333333334</ele><time>2026-04-19T08:35:24Z</time></trkpt><trkpt lat="43.440063514535666" lon="10.552967168426417"><ele>144.66666666666666</ele><time>2026-04-19T08:35:25Z</time></trkpt><trkpt lat="43.44009468459791" lon="10.553074420697776"><ele>145.0</ele><time>2026-04-19T08:35:26Z</time></trkpt><trkpt lat="43.440127393344795" lon="10.55319048854417"><ele>145.33333333333331</ele><time>2026-04-19T08:35:27Z</time></trkpt><trkpt lat="43.44015286492544" lon="10.553292058580762"><ele>145.66666666666666</ele><time>2026-04-19T08:35:28Z</time></trkpt><trkpt lat="43.440180349783724" lon="10.553391083843092"><ele>146.0</ele><time>2026-04-19T08:35:29Z</time></trkpt><trkpt lat="43.44021124587195" lon="10.553488510854912"><ele>146.0</ele><time>2026-04-19T08:35:30Z</time></trkpt><trkpt lat="43.44024468780081" lon="10.55359955269946"><ele>146.0</ele><time>2026-04-19T08:35:31Z</time></trkpt><trkpt lat="43.44028290623616" lon="10.553719544129965"><ele>146.0</ele><time>2026-04-19T08:35:32Z</time></trkpt><trkpt lat="43.44032290862055" lon="10.553830850152265"><ele>146.0</ele><time>2026-04-19T08:35:33Z</time></trkpt><trkpt lat="43.44036666236414" lon="10.553950597955154"><ele>146.0</ele><time>2026-04-19T08:35:34Z</time></trkpt><trkpt lat="43.44041389636887" lon="10.554073046921463"><ele>146.16666666666666</ele><time>2026-04-19T08:35:35Z</time></trkpt><trkpt lat="43.440454007676344" lon="10.554190074497097"><ele>146.33333333333331</ele><time>2026-04-19T08:35:36Z</time></trkpt><trkpt lat="43.440490111090725" lon="10.554299722099392"><ele>146.5</ele><time>2026-04-19T08:35:37Z</time></trkpt><trkpt lat="43.44052239627176" lon="10.554403066978695"><ele>146.66666666666666</ele><time>2026-04-19T08:35:38Z</time></trkpt><trkpt lat="43.44055126919165" lon="10.554496964706725"><ele>146.83333333333334</ele><time>2026-04-19T08:35:39Z</time></trkpt><trkpt lat="43.44057565677147" lon="10.55458072625341"><ele>147.0</ele><time>2026-04-19T08:35:40Z</time></trkpt><trkpt lat="43.44061274058609" lon="10.554712315016307"><ele>148.0</ele><time>2026-04-19T08:35:42Z</time></trkpt><trkpt lat="43.44064272610988" lon="10.554793967797734"><ele>149.0</ele><time>2026-04-19T08:35:44Z</time></trkpt><trkpt lat="43.44066708692344" lon="10.554919601599984"><ele>150.0</ele><time>2026-04-19T08:35:47.001Z</time></trkpt><trkpt lat="43.44072617719954" lon="10.555049875133408"><ele>151.0</ele><time>2026-04-19T08:35:49.001Z</time></trkpt><trkpt lat="43.440780917675326" lon="10.555221786262576"><ele>152.0</ele><time>2026-04-19T08:35:51.001Z</time></trkpt><trkpt lat="43.44081229929516" lon="10.555317640928125"><ele>152.4</ele><time>2026-04-19T08:35:52.001Z</time></trkpt><trkpt lat="43.44084919084385" lon="10.555429217835261"><ele>152.79999999999998</ele><time>2026-04-19T08:35:53.001Z</time></trkpt><trkpt lat="43.440888019926646" lon="10.555549021904403"><ele>153.2</ele><time>2026-04-19T08:35:54.001Z</time></trkpt><trkpt lat="43.440926221628864" lon="10.555679727716129"><ele>153.6</ele><time>2026-04-19T08:35:55.001Z</time></trkpt><trkpt lat="43.440967849848775" lon="10.555811677140344"><ele>154.0</ele><time>2026-04-19T08:35:56.001Z</time></trkpt><trkpt lat="43.4410061054029" lon="10.555934306137825"><ele>154.0</ele><time>2026-04-19T08:35:57.001Z</time></trkpt><trkpt lat="43.44104154912735" lon="10.556046590818008"><ele>154.0</ele><time>2026-04-19T08:35:58.001Z</time></trkpt><trkpt lat="43.44107391220402" lon="10.556151515835356"><ele>154.0</ele><time>2026-04-19T08:35:59.001Z</time></trkpt><trkpt lat="43.441102191424285" lon="10.55624666301253"><ele>154.0</ele><time>2026-04-19T08:36:00.001Z</time></trkpt><trkpt lat="43.44112870000782" lon="10.556337370149503"><ele>154.0</ele><time>2026-04-19T08:36:01.001Z</time></trkpt><trkpt lat="43.44116422797283" lon="10.556459713018455"><ele>154.0</ele><time>2026-04-19T08:36:03.001Z</time></trkpt><trkpt lat="43.44119363372253" lon="10.556557635548854"><ele>154.0</ele><time>2026-04-19T08:36:09.001Z</time></trkpt><trkpt lat="43.44122164855339" lon="10.556652698774275"><ele>154.0</ele><time>2026-04-19T08:36:12.001Z</time></trkpt><trkpt lat="43.44125564423293" lon="10.556776129777846"><ele>154.0</ele><time>2026-04-19T08:36:14.001Z</time></trkpt><trkpt lat="43.44127525756229" lon="10.556858533805922"><ele>154.0</ele><time>2026-04-19T08:36:15.001Z</time></trkpt><trkpt lat="43.441298673206184" lon="10.556940849047557"><ele>154.0</ele><time>2026-04-19T08:36:16.001Z</time></trkpt><trkpt lat="43.44131881237073" lon="10.557029048318997"><ele>154.0</ele><time>2026-04-19T08:36:17.001Z</time></trkpt><trkpt lat="43.44134020146658" lon="10.557132842720153"><ele>154.0</ele><time>2026-04-19T08:36:18.001Z</time></trkpt><trkpt lat="43.44135798256094" lon="10.557247006359393"><ele>154.8</ele><time>2026-04-19T08:36:19.001Z</time></trkpt><trkpt lat="43.44137605534902" lon="10.557374037479125"><ele>155.60000000000002</ele><time>2026-04-19T08:36:20.001Z</time></trkpt><trkpt lat="43.441394938026846" lon="10.55750478549154"><ele>156.4</ele><time>2026-04-19T08:36:21Z</time></trkpt><trkpt lat="43.44141320800432" lon="10.55763506736495"><ele>157.20000000000002</ele><time>2026-04-19T08:36:21.999Z</time></trkpt><trkpt lat="43.44143191421581" lon="10.557759084355192"><ele>158.0</ele><time>2026-04-19T08:36:23Z</time></trkpt><trkpt lat="43.441449742003606" lon="10.557876766257776"><ele>158.33333333333331</ele><time>2026-04-19T08:36:23.999Z</time></trkpt><trkpt lat="43.44146399198237" lon="10.557980304028092"><ele>158.66666666666666</ele><time>2026-04-19T08:36:24.999Z</time></trkpt><trkpt lat="43.44147609513948" lon="10.558076580022902"><ele>159.0</ele><time>2026-04-19T08:36:26Z</time></trkpt><trkpt lat="43.44149574337937" lon="10.558234502180971"><ele>159.33333333333334</ele><time>2026-04-19T08:36:27.999Z</time></trkpt><trkpt lat="43.44150927986391" lon="10.558359459693596"><ele>159.66666666666669</ele><time>2026-04-19T08:36:30Z</time></trkpt><trkpt lat="43.44152163510503" lon="10.55845342063368"><ele>160.0</ele><time>2026-04-19T08:36:32Z</time></trkpt><trkpt lat="43.44153589321089" lon="10.55855052487191"><ele>160.0</ele><time>2026-04-19T08:36:36Z</time></trkpt><trkpt lat="43.44154268432047" lon="10.558447743822033"><ele>160.0</ele><time>2026-04-19T08:59:40.001Z</time></trkpt><trkpt lat="43.44152657227433" lon="10.55854324190855"><ele>160.0</ele><time>2026-04-19T09:01:23Z</time></trkpt><trkpt lat="43.44155831886595" lon="10.558437720332607"><ele>160.0</ele><time>2026-04-19T09:03:59Z</time></trkpt><trkpt lat="43.441555211124644" lon="10.55852564347116"><ele>160.0</ele><time>2026-04-19T09:13:43Z</time></trkpt><trkpt lat="43.44156344638975" lon="10.558617136437201"><ele>160.0</ele><time>2026-04-19T09:13:53Z</time></trkpt><trkpt lat="43.44153331773888" lon="10.558524922238966"><ele>160.0</ele><time>2026-04-19T09:14:17Z</time></trkpt><trkpt lat="43.441576297482264" lon="10.558588277454426"><ele>160.2</ele><time>2026-04-19T09:19:46.999Z</time></trkpt><trkpt lat="43.441590579732505" lon="10.558748416467576"><ele>160.4</ele><time>2026-04-19T09:21:46Z</time></trkpt><trkpt lat="43.44160927431751" lon="10.558843333281338"><ele>160.60000000000002</ele><time>2026-04-19T09:21:47Z</time></trkpt><trkpt lat="43.44162828381955" lon="10.558952042294303"><ele>160.8</ele><time>2026-04-19T09:21:48Z</time></trkpt><trkpt lat="43.44164417322002" lon="10.559072441167366"><ele>161.0</ele><time>2026-04-19T09:21:49Z</time></trkpt><trkpt lat="43.4416599844919" lon="10.559205074871722"><ele>161.0</ele><time>2026-04-19T09:21:50Z</time></trkpt><trkpt lat="43.44167835081596" lon="10.559344088346865"><ele>161.0</ele><time>2026-04-19T09:21:51Z</time></trkpt><trkpt lat="43.44169769984797" lon="10.559482353434591"><ele>161.0</ele><time>2026-04-19T09:21:52Z</time></trkpt><trkpt lat="43.44172034363641" lon="10.559625533656883"><ele>161.0</ele><time>2026-04-19T09:21:53Z</time></trkpt><trkpt lat="43.44175163924458" lon="10.559761197528589"><ele>161.0</ele><time>2026-04-19T09:21:54Z</time></trkpt><trkpt lat="43.44179052497953" lon="10.559902048742813"><ele>161.0</ele><time>2026-04-19T09:21:55Z</time></trkpt><trkpt lat="43.44183817248833" lon="10.560043677229887"><ele>161.0</ele><time>2026-04-19T09:21:56Z</time></trkpt><trkpt lat="43.4418815793768" lon="10.560188180969899"><ele>161.0</ele><time>2026-04-19T09:21:57Z</time></trkpt><trkpt lat="43.44192273253424" lon="10.560327779143497"><ele>161.0</ele><time>2026-04-19T09:21:58Z</time></trkpt><trkpt lat="43.441965621939715" lon="10.560463685446164"><ele>161.0</ele><time>2026-04-19T09:21:59Z</time></trkpt><trkpt lat="43.442021552551736" lon="10.560592251435008"><ele>161.0</ele><time>2026-04-19T09:22:00Z</time></trkpt><trkpt lat="43.442083223660966" lon="10.560721115332107"><ele>161.0</ele><time>2026-04-19T09:22:01Z</time></trkpt><trkpt lat="43.442129425016574" lon="10.560860392620839"><ele>161.0</ele><time>2026-04-19T09:22:02Z</time></trkpt><trkpt lat="43.44220725267193" lon="10.560982808384695"><ele>161.0</ele><time>2026-04-19T09:22:03Z</time></trkpt><trkpt lat="43.44227326148244" lon="10.561131214369324"><ele>160.5</ele><time>2026-04-19T09:22:04Z</time></trkpt><trkpt lat="43.4423595656385" lon="10.561259803195577"><ele>160.0</ele><time>2026-04-19T09:22:05Z</time></trkpt><trkpt lat="43.4424489160109" lon="10.561387485419923"><ele>159.5</ele><time>2026-04-19T09:22:06Z</time></trkpt><trkpt lat="43.44253636884954" lon="10.561510541367435"><ele>159.0</ele><time>2026-04-19T09:22:07Z</time></trkpt><trkpt lat="43.44262252137724" lon="10.56162808549666"><ele>159.0</ele><time>2026-04-19T09:22:08Z</time></trkpt><trkpt lat="43.44271033893296" lon="10.561735749513355"><ele>159.0</ele><time>2026-04-19T09:22:09Z</time></trkpt><trkpt lat="43.44288135244916" lon="10.561960018788545"><ele>159.0</ele><time>2026-04-19T09:22:11Z</time></trkpt><trkpt lat="43.44296241762555" lon="10.562071932172799"><ele>159.5</ele><time>2026-04-19T09:22:12Z</time></trkpt><trkpt lat="43.44305344965702" lon="10.56219032149074"><ele>160.0</ele><time>2026-04-19T09:22:13Z</time></trkpt><trkpt lat="43.44312895236411" lon="10.562292885652019"><ele>160.5</ele><time>2026-04-19T09:22:14Z</time></trkpt><trkpt lat="43.44321120015276" lon="10.562406072568853"><ele>161.0</ele><time>2026-04-19T09:22:15Z</time></trkpt><trkpt lat="43.44329664577778" lon="10.562521463897685"><ele>161.0</ele><time>2026-04-19T09:22:16Z</time></trkpt><trkpt lat="43.443386405423105" lon="10.562649102189303"><ele>161.0</ele><time>2026-04-19T09:22:17Z</time></trkpt><trkpt lat="43.44347104505308" lon="10.562790736905422"><ele>161.0</ele><time>2026-04-19T09:22:18Z</time></trkpt><trkpt lat="43.44354853783449" lon="10.562938560854928"><ele>161.0</ele><time>2026-04-19T09:22:19Z</time></trkpt><trkpt lat="43.443625417664116" lon="10.563096772137333"><ele>161.25</ele><time>2026-04-19T09:22:20Z</time></trkpt><trkpt lat="43.44367313388604" lon="10.563256724953208"><ele>161.5</ele><time>2026-04-19T09:22:21Z</time></trkpt><trkpt lat="43.443720530565905" lon="10.563422835106294"><ele>161.75</ele><time>2026-04-19T09:22:22Z</time></trkpt><trkpt lat="43.443764223068534" lon="10.563588465730358"><ele>162.0</ele><time>2026-04-19T09:22:23Z</time></trkpt><trkpt lat="43.443814556365275" lon="10.563758646881446"><ele>164.25</ele><time>2026-04-19T09:22:24Z</time></trkpt><trkpt lat="43.443875024590405" lon="10.563911697265638"><ele>166.5</ele><time>2026-04-19T09:22:25Z</time></trkpt><trkpt lat="43.443936961311906" lon="10.564057257557037"><ele>168.75</ele><time>2026-04-19T09:22:26Z</time></trkpt><trkpt lat="43.44400087428635" lon="10.564199835400784"><ele>171.0</ele><time>2026-04-19T09:22:27Z</time></trkpt><trkpt lat="43.44405858621293" lon="10.564349068224322"><ele>171.0</ele><time>2026-04-19T09:22:28Z</time></trkpt><trkpt lat="43.4441070230743" lon="10.564501013004072"><ele>171.0</ele><time>2026-04-19T09:22:29Z</time></trkpt><trkpt lat="43.44415120224043" lon="10.564658266826523"><ele>171.0</ele><time>2026-04-19T09:22:30Z</time></trkpt><trkpt lat="43.44419025983059" lon="10.564832243136008"><ele>171.0</ele><time>2026-04-19T09:22:31Z</time></trkpt><trkpt lat="43.44422016920368" lon="10.564991388630611"><ele>171.5</ele><time>2026-04-19T09:22:32Z</time></trkpt><trkpt lat="43.44426404491777" lon="10.565147122019557"><ele>172.0</ele><time>2026-04-19T09:22:33Z</time></trkpt><trkpt lat="43.444309046049746" lon="10.565315235745988"><ele>172.5</ele><time>2026-04-19T09:22:34Z</time></trkpt><trkpt lat="43.44435291763652" lon="10.565483420422275"><ele>173.0</ele><time>2026-04-19T09:22:35Z</time></trkpt><trkpt lat="43.444393410532676" lon="10.565657558051628"><ele>173.0</ele><time>2026-04-19T09:22:36Z</time></trkpt><trkpt lat="43.44443809346097" lon="10.565835844664626"><ele>173.0</ele><time>2026-04-19T09:22:37Z</time></trkpt><trkpt lat="43.44449823299489" lon="10.566060338766658"><ele>173.0</ele><time>2026-04-19T09:22:38Z</time></trkpt><trkpt lat="43.44454089654983" lon="10.566221837892632"><ele>173.0</ele><time>2026-04-19T09:22:39Z</time></trkpt><trkpt lat="43.444582590930885" lon="10.566385966105607"><ele>173.75</ele><time>2026-04-19T09:22:40Z</time></trkpt><trkpt lat="43.44462649613623" lon="10.566527712964222"><ele>174.5</ele><time>2026-04-19T09:22:41Z</time></trkpt><trkpt lat="43.44467420234301" lon="10.56669811449081"><ele>175.25</ele><time>2026-04-19T09:22:42Z</time></trkpt><trkpt lat="43.444732390897045" lon="10.566843876953216"><ele>176.0</ele><time>2026-04-19T09:22:43Z</time></trkpt><trkpt lat="43.44478943520347" lon="10.566994922390837"><ele>178.75</ele><time>2026-04-19T09:22:44Z</time></trkpt><trkpt lat="43.444859567387624" lon="10.567135758558045"><ele>181.5</ele><time>2026-04-19T09:22:45Z</time></trkpt><trkpt lat="43.444934357428075" lon="10.56726788663543"><ele>184.25</ele><time>2026-04-19T09:22:46Z</time></trkpt><trkpt lat="43.445011509767035" lon="10.567402787299274"><ele>187.0</ele><time>2026-04-19T09:22:47Z</time></trkpt><trkpt lat="43.44508460404164" lon="10.567535258491855"><ele>187.0</ele><time>2026-04-19T09:22:48Z</time></trkpt><trkpt lat="43.4451375220395" lon="10.567656417495435"><ele>187.0</ele><time>2026-04-19T09:22:49Z</time></trkpt><trkpt lat="43.44518061178804" lon="10.567750033137933"><ele>187.0</ele><time>2026-04-19T09:22:50Z</time></trkpt><trkpt lat="43.44521546664151" lon="10.56782298458889"><ele>187.0</ele><time>2026-04-19T09:22:51Z</time></trkpt><trkpt lat="43.44525417095378" lon="10.567913741059838"><ele>187.0</ele><time>2026-04-19T09:22:53Z</time></trkpt><trkpt lat="43.44530122397449" lon="10.567981377105363"><ele>187.0</ele><time>2026-04-19T09:22:56Z</time></trkpt><trkpt lat="43.44541660266417" lon="10.567924255391857"><ele>187.0</ele><time>2026-04-19T09:23:00Z</time></trkpt><trkpt lat="43.445459112742505" lon="10.567842246160637"><ele>187.0</ele><time>2026-04-19T09:23:01Z</time></trkpt><trkpt lat="43.44551124895407" lon="10.567761409359138"><ele>187.0</ele><time>2026-04-19T09:23:02Z</time></trkpt><trkpt lat="43.445582805491696" lon="10.567690871409251"><ele>187.0</ele><time>2026-04-19T09:23:03Z</time></trkpt><trkpt lat="43.44567300345418" lon="10.567622843795561"><ele>187.0</ele><time>2026-04-19T09:23:04Z</time></trkpt><trkpt lat="43.445778219612045" lon="10.567568586667223"><ele>187.5</ele><time>2026-04-19T09:23:05Z</time></trkpt><trkpt lat="43.445894861948354" lon="10.567570341854026"><ele>188.0</ele><time>2026-04-19T09:23:06Z</time></trkpt><trkpt lat="43.44601885564285" lon="10.567582852846472"><ele>188.5</ele><time>2026-04-19T09:23:07Z</time></trkpt><trkpt lat="43.44615268090725" lon="10.56760361971105"><ele>189.0</ele><time>2026-04-19T09:23:08Z</time></trkpt><trkpt lat="43.44629006804292" lon="10.567677676537171"><ele>187.66666666666666</ele><time>2026-04-19T09:23:09Z</time></trkpt><trkpt lat="43.44640733423884" lon="10.567797029204748"><ele>186.33333333333331</ele><time>2026-04-19T09:23:10Z</time></trkpt><trkpt lat="43.4465252781005" lon="10.567915515074683"><ele>185.0</ele><time>2026-04-19T09:23:11Z</time></trkpt><trkpt lat="43.44663933804633" lon="10.56807383188233"><ele>188.25</ele><time>2026-04-19T09:23:12Z</time></trkpt><trkpt lat="43.446752531272175" lon="10.568210772269344"><ele>191.5</ele><time>2026-04-19T09:23:13Z</time></trkpt><trkpt lat="43.44687547698459" lon="10.568311887574973"><ele>194.75</ele><time>2026-04-19T09:23:14Z</time></trkpt><trkpt lat="43.44700205641991" lon="10.56834636828522"><ele>198.0</ele><time>2026-04-19T09:23:15Z</time></trkpt><trkpt lat="43.44712192107706" lon="10.568308427192314"><ele>196.60000000000002</ele><time>2026-04-19T09:23:16Z</time></trkpt><trkpt lat="43.44720387094912" lon="10.56821127891519"><ele>195.20000000000002</ele><time>2026-04-19T09:23:17Z</time></trkpt><trkpt lat="43.447253586631874" lon="10.568087615365833"><ele>193.8</ele><time>2026-04-19T09:23:18Z</time></trkpt><trkpt lat="43.4472917796642" lon="10.567970876485996"><ele>192.4</ele><time>2026-04-19T09:23:19Z</time></trkpt><trkpt lat="43.44729301729112" lon="10.567856363862651"><ele>191.0</ele><time>2026-04-19T09:23:20Z</time></trkpt><trkpt lat="43.44724162847873" lon="10.567747941817865"><ele>191.0</ele><time>2026-04-19T09:23:21Z</time></trkpt><trkpt lat="43.44717000614948" lon="10.567652093850935"><ele>191.0</ele><time>2026-04-19T09:23:22Z</time></trkpt><trkpt lat="43.44711105435765" lon="10.567549576137493"><ele>191.0</ele><time>2026-04-19T09:23:23Z</time></trkpt><trkpt lat="43.44706312007281" lon="10.567433317800885"><ele>191.0</ele><time>2026-04-19T09:23:24Z</time></trkpt><trkpt lat="43.44702791690881" lon="10.56730269876981"><ele>191.0</ele><time>2026-04-19T09:23:25Z</time></trkpt><trkpt lat="43.44700357482871" lon="10.567163371431757"><ele>191.60000000000002</ele><time>2026-04-19T09:23:26Z</time></trkpt><trkpt lat="43.4470121179036" lon="10.56701272959487"><ele>192.2</ele><time>2026-04-19T09:23:27Z</time></trkpt><trkpt lat="43.447026090399326" lon="10.566865945564867"><ele>192.8</ele><time>2026-04-19T09:23:28Z</time></trkpt><trkpt lat="43.44706783647857" lon="10.56673509995581"><ele>193.39999999999998</ele><time>2026-04-19T09:23:29Z</time></trkpt><trkpt lat="43.44713781822359" lon="10.566632649995535"><ele>194.0</ele><time>2026-04-19T09:23:30Z</time></trkpt><trkpt lat="43.44722163025906" lon="10.566522017237912"><ele>194.0</ele><time>2026-04-19T09:23:31Z</time></trkpt><trkpt lat="43.44729957455662" lon="10.566397601276599"><ele>194.0</ele><time>2026-04-19T09:23:32Z</time></trkpt><trkpt lat="43.44739011598989" lon="10.566284925783123"><ele>194.0</ele><time>2026-04-19T09:23:33Z</time></trkpt><trkpt lat="43.44748105692082" lon="10.566173197707572"><ele>194.0</ele><time>2026-04-19T09:23:34Z</time></trkpt><trkpt lat="43.447567970603615" lon="10.566057153003731"><ele>192.25</ele><time>2026-04-19T09:23:35Z</time></trkpt><trkpt lat="43.447639155884644" lon="10.565925953488284"><ele>190.5</ele><time>2026-04-19T09:23:36Z</time></trkpt><trkpt lat="43.44767970028861" lon="10.565769185361214"><ele>188.75</ele><time>2026-04-19T09:23:37Z</time></trkpt><trkpt lat="43.44768748221537" lon="10.56559856022769"><ele>187.0</ele><time>2026-04-19T09:23:38Z</time></trkpt><trkpt lat="43.44768269251661" lon="10.565427975076451"><ele>185.75</ele><time>2026-04-19T09:23:39Z</time></trkpt><trkpt lat="43.44771578681387" lon="10.565268300388816"><ele>184.5</ele><time>2026-04-19T09:23:40Z</time></trkpt><trkpt lat="43.447769160864794" lon="10.565127613240481"><ele>183.25</ele><time>2026-04-19T09:23:41Z</time></trkpt><trkpt lat="43.44781933935403" lon="10.56498838799958"><ele>182.0</ele><time>2026-04-19T09:23:42Z</time></trkpt><trkpt lat="43.447890294411884" lon="10.564876865005564"><ele>183.6</ele><time>2026-04-19T09:23:43Z</time></trkpt><trkpt lat="43.44796219316899" lon="10.564779121185705"><ele>185.2</ele><time>2026-04-19T09:23:44Z</time></trkpt><trkpt lat="43.448054484811365" lon="10.564729590420358"><ele>186.8</ele><time>2026-04-19T09:23:45Z</time></trkpt><trkpt lat="43.44815637834481" lon="10.564750871211391"><ele>188.4</ele><time>2026-04-19T09:23:46Z</time></trkpt><trkpt lat="43.44824453465414" lon="10.56484158744463"><ele>190.0</ele><time>2026-04-19T09:23:47Z</time></trkpt><trkpt lat="43.448293086997275" lon="10.564976517879284"><ele>190.0</ele><time>2026-04-19T09:23:48Z</time></trkpt><trkpt lat="43.44836410126814" lon="10.565085372904301"><ele>190.0</ele><time>2026-04-19T09:23:49Z</time></trkpt><trkpt lat="43.44842571232377" lon="10.565209343173846"><ele>190.0</ele><time>2026-04-19T09:23:50Z</time></trkpt><trkpt lat="43.44849493259249" lon="10.56533289753032"><ele>190.0</ele><time>2026-04-19T09:23:51Z</time></trkpt><trkpt lat="43.44856984677729" lon="10.565459707085859"><ele>190.0</ele><time>2026-04-19T09:23:52Z</time></trkpt><trkpt lat="43.4486512177749" lon="10.565584331477854"><ele>192.0</ele><time>2026-04-19T09:23:53Z</time></trkpt><trkpt lat="43.448745430014355" lon="10.565689627908878"><ele>194.0</ele><time>2026-04-19T09:23:54Z</time></trkpt><trkpt lat="43.44885705386725" lon="10.565742961577701"><ele>196.0</ele><time>2026-04-19T09:23:55Z</time></trkpt><trkpt lat="43.448972022255376" lon="10.565740254482824"><ele>198.0</ele><time>2026-04-19T09:23:56Z</time></trkpt><trkpt lat="43.44908675983901" lon="10.565687871244537"><ele>198.5</ele><time>2026-04-19T09:23:57Z</time></trkpt><trkpt lat="43.44920117241391" lon="10.565612522569818"><ele>199.0</ele><time>2026-04-19T09:23:58Z</time></trkpt><trkpt lat="43.449304978039585" lon="10.565503618921033"><ele>199.5</ele><time>2026-04-19T09:23:59Z</time></trkpt><trkpt lat="43.4494061397969" lon="10.56538144135759"><ele>200.0</ele><time>2026-04-19T09:24:00Z</time></trkpt><trkpt lat="43.449524417947885" lon="10.565317962023933"><ele>197.25</ele><time>2026-04-19T09:24:01Z</time></trkpt><trkpt lat="43.449648278060984" lon="10.565271552449186"><ele>194.5</ele><time>2026-04-19T09:24:02Z</time></trkpt><trkpt lat="43.44977742764896" lon="10.56521363089194"><ele>191.75</ele><time>2026-04-19T09:24:03Z</time></trkpt><trkpt lat="43.4499133928746" lon="10.56516373697919"><ele>189.0</ele><time>2026-04-19T09:24:04Z</time></trkpt><trkpt lat="43.45004455473101" lon="10.565097077683177"><ele>189.0</ele><time>2026-04-19T09:24:05Z</time></trkpt><trkpt lat="43.4501784666825" lon="10.565030960584263"><ele>189.0</ele><time>2026-04-19T09:24:06Z</time></trkpt><trkpt lat="43.45031198043708" lon="10.564958525461556"><ele>189.0</ele><time>2026-04-19T09:24:07Z</time></trkpt><trkpt lat="43.450439283636186" lon="10.564862755081432"><ele>189.0</ele><time>2026-04-19T09:24:08Z</time></trkpt><trkpt lat="43.450555598133846" lon="10.564740178355924"><ele>188.5</ele><time>2026-04-19T09:24:09Z</time></trkpt><trkpt lat="43.45066386158911" lon="10.56461137683503"><ele>188.0</ele><time>2026-04-19T09:24:10Z</time></trkpt><trkpt lat="43.45076436113936" lon="10.564495251325663"><ele>187.5</ele><time>2026-04-19T09:24:11Z</time></trkpt><trkpt lat="43.450869288907086" lon="10.564396140219152"><ele>187.0</ele><time>2026-04-19T09:24:12Z</time></trkpt><trkpt lat="43.450974562572185" lon="10.5643035633608"><ele>187.0</ele><time>2026-04-19T09:24:13Z</time></trkpt><trkpt lat="43.45107326496645" lon="10.564202111072255"><ele>187.0</ele><time>2026-04-19T09:24:14Z</time></trkpt><trkpt lat="43.451162384300325" lon="10.564092146425432"><ele>187.0</ele><time>2026-04-19T09:24:15Z</time></trkpt><trkpt lat="43.4512565020872" lon="10.563987546292166"><ele>187.0</ele><time>2026-04-19T09:24:16Z</time></trkpt><trkpt lat="43.451350940474384" lon="10.563886166194727"><ele>187.8</ele><time>2026-04-19T09:24:17Z</time></trkpt><trkpt lat="43.45144835004959" lon="10.563797866411154"><ele>188.6</ele><time>2026-04-19T09:24:18Z</time></trkpt><trkpt lat="43.45155118023579" lon="10.563736675589361"><ele>189.4</ele><time>2026-04-19T09:24:19Z</time></trkpt><trkpt lat="43.45164849098993" lon="10.563726280480163"><ele>190.20000000000002</ele><time>2026-04-19T09:24:20Z</time></trkpt><trkpt lat="43.451737430763636" lon="10.5637867483146"><ele>191.0</ele><time>2026-04-19T09:24:21Z</time></trkpt><trkpt lat="43.45179463532744" lon="10.56389157284105"><ele>191.0</ele><time>2026-04-19T09:24:22Z</time></trkpt><trkpt lat="43.45182157620361" lon="10.564019901016113"><ele>191.0</ele><time>2026-04-19T09:24:23Z</time></trkpt><trkpt lat="43.45183330018438" lon="10.564152934011291"><ele>191.0</ele><time>2026-04-19T09:24:24Z</time></trkpt><trkpt lat="43.45183776184466" lon="10.564288902666435"><ele>191.0</ele><time>2026-04-19T09:24:25Z</time></trkpt><trkpt lat="43.451834722698145" lon="10.564430291855304"><ele>191.0</ele><time>2026-04-19T09:24:26Z</time></trkpt><trkpt lat="43.45177153784538" lon="10.564726959147908"><ele>192.25</ele><time>2026-04-19T09:24:28Z</time></trkpt><trkpt lat="43.45171333808909" lon="10.564877125476274"><ele>193.5</ele><time>2026-04-19T09:24:29Z</time></trkpt><trkpt lat="43.45164810187825" lon="10.565027815072021"><ele>194.75</ele><time>2026-04-19T09:24:30Z</time></trkpt><trkpt lat="43.45158779175926" lon="10.565191078297872"><ele>196.0</ele><time>2026-04-19T09:24:31Z</time></trkpt><trkpt lat="43.4515521976385" lon="10.565363263509733"><ele>197.5</ele><time>2026-04-19T09:24:32Z</time></trkpt><trkpt lat="43.45154674006688" lon="10.565543997742608"><ele>199.0</ele><time>2026-04-19T09:24:33Z</time></trkpt><trkpt lat="43.45157607732696" lon="10.56572425046118"><ele>200.5</ele><time>2026-04-19T09:24:34Z</time></trkpt><trkpt lat="43.45164829752145" lon="10.565879488148937"><ele>202.0</ele><time>2026-04-19T09:24:35Z</time></trkpt><trkpt lat="43.45175992191721" lon="10.56597487231681"><ele>202.0</ele><time>2026-04-19T09:24:36Z</time></trkpt><trkpt lat="43.451891888931634" lon="10.565954010257256"><ele>202.0</ele><time>2026-04-19T09:24:37Z</time></trkpt><trkpt lat="43.45200911665878" lon="10.56593727984788"><ele>202.0</ele><time>2026-04-19T09:24:38Z</time></trkpt><trkpt lat="43.45211582053094" lon="10.565918842026063"><ele>202.0</ele><time>2026-04-19T09:24:38.999Z</time></trkpt><trkpt lat="43.45221645937917" lon="10.565931407665554"><ele>201.8</ele><time>2026-04-19T09:24:39.999Z</time></trkpt><trkpt lat="43.45230511986845" lon="10.56598446310363"><ele>201.6</ele><time>2026-04-19T09:24:40.999Z</time></trkpt><trkpt lat="43.45236803944524" lon="10.566081565081126"><ele>201.4</ele><time>2026-04-19T09:24:41.999Z</time></trkpt><trkpt lat="43.45238096427621" lon="10.56621394597873"><ele>201.20000000000002</ele><time>2026-04-19T09:24:42.999Z</time></trkpt><trkpt lat="43.45238650538147" lon="10.566341787649906"><ele>201.0</ele><time>2026-04-19T09:24:43.999Z</time></trkpt><trkpt lat="43.45239529015581" lon="10.5664764225003"><ele>201.0</ele><time>2026-04-19T09:24:44.999Z</time></trkpt><trkpt lat="43.45237830918617" lon="10.566617985763871"><ele>201.0</ele><time>2026-04-19T09:24:45.999Z</time></trkpt><trkpt lat="43.452362977041474" lon="10.5667576936439"><ele>201.0</ele><time>2026-04-19T09:24:46.999Z</time></trkpt><trkpt lat="43.45236710818386" lon="10.566900934109883"><ele>201.0</ele><time>2026-04-19T09:24:47.999Z</time></trkpt><trkpt lat="43.4523662690273" lon="10.567025073099968"><ele>201.0</ele><time>2026-04-19T09:24:48.999Z</time></trkpt><trkpt lat="43.452356835190976" lon="10.567121081028244"><ele>202.33333333333334</ele><time>2026-04-19T09:24:49.999Z</time></trkpt><trkpt lat="43.45238069725679" lon="10.567218224254843"><ele>203.66666666666669</ele><time>2026-04-19T09:24:51.999Z</time></trkpt><trkpt lat="43.45243527074505" lon="10.567272985976393"><ele>205.0</ele><time>2026-04-19T09:24:53.999Z</time></trkpt><trkpt lat="43.45248806205348" lon="10.56732477859485"><ele>206.33333333333334</ele><time>2026-04-19T09:25:00.999Z</time></trkpt><trkpt lat="43.4525261823991" lon="10.567459584285496"><ele>207.66666666666669</ele><time>2026-04-19T09:25:11.999Z</time></trkpt><trkpt lat="43.4525516863654" lon="10.56758148759297"><ele>209.0</ele><time>2026-04-19T09:25:13.999Z</time></trkpt><trkpt lat="43.452574147041254" lon="10.567697589224979"><ele>209.00000000000003</ele><time>2026-04-19T09:25:15.999Z</time></trkpt><trkpt lat="43.452576224666494" lon="10.567798020217582"><ele>209.0</ele><time>2026-04-19T09:25:17.999Z</time></trkpt><trkpt lat="43.45253297387975" lon="10.567864899713305"><ele>209.0</ele><time>2026-04-19T09:25:19.999Z</time></trkpt><trkpt lat="43.45248587414977" lon="10.567754403842832"><ele>209.0</ele><time>2026-04-19T09:25:21.999Z</time></trkpt><trkpt lat="43.45244237735584" lon="10.567686138334729"><ele>209.00000000000003</ele><time>2026-04-19T09:25:23.999Z</time></trkpt><trkpt lat="43.45238283820534" lon="10.567610132299468"><ele>209.0</ele><time>2026-04-19T09:25:25.999Z</time></trkpt><trkpt lat="43.45234427154941" lon="10.567481311210953"><ele>209.0</ele><time>2026-04-19T09:25:27.999Z</time></trkpt><trkpt lat="43.45229237041203" lon="10.567337567395015"><ele>209.0</ele><time>2026-04-19T09:25:29.999Z</time></trkpt><trkpt lat="43.45225770549264" lon="10.567182260289385"><ele>209.0</ele><time>2026-04-19T09:25:31.999Z</time></trkpt><trkpt lat="43.452229602659266" lon="10.567009456325529"><ele>209.0</ele><time>2026-04-19T09:25:33.999Z</time></trkpt><trkpt lat="43.45219312068173" lon="10.566842743655911"><ele>207.39999999999998</ele><time>2026-04-19T09:25:35.999Z</time></trkpt><trkpt lat="43.4521303658092" lon="10.56671607348404"><ele>205.8</ele><time>2026-04-19T09:25:37.999Z</time></trkpt><trkpt lat="43.45205910165039" lon="10.566625071242639"><ele>204.2</ele><time>2026-04-19T09:25:39.999Z</time></trkpt><trkpt lat="43.451960551483545" lon="10.566644266245909"><ele>202.60000000000002</ele><time>2026-04-19T09:25:41.999Z</time></trkpt><trkpt lat="43.451845926402704" lon="10.566704208392052"><ele>201.0</ele><time>2026-04-19T09:25:43.999Z</time></trkpt><trkpt lat="43.45177701815663" lon="10.566733844310665"><ele>204.0</ele><time>2026-04-19T09:25:44.999Z</time></trkpt><trkpt lat="43.45170589844446" lon="10.566760054149727"><ele>207.0</ele><time>2026-04-19T09:25:45.999Z</time></trkpt><trkpt lat="43.451629517215494" lon="10.56679175797972"><ele>210.0</ele><time>2026-04-19T09:25:46.999Z</time></trkpt><trkpt lat="43.4515466577813" lon="10.566818169166806"><ele>213.0</ele><time>2026-04-19T09:25:47.999Z</time></trkpt><trkpt lat="43.45146079580581" lon="10.56684670698143"><ele>216.0</ele><time>2026-04-19T09:25:48.999Z</time></trkpt><trkpt lat="43.45137065859507" lon="10.566873288866633"><ele>219.0</ele><time>2026-04-19T09:25:49.999Z</time></trkpt><trkpt lat="43.451277768942866" lon="10.566857923686742"><ele>219.0</ele><time>2026-04-19T09:25:50.999Z</time></trkpt><trkpt lat="43.45117826234075" lon="10.566867255596689"><ele>218.99999999999997</ele><time>2026-04-19T09:25:51.999Z</time></trkpt><trkpt lat="43.45107251830847" lon="10.566908931925665"><ele>218.99999999999997</ele><time>2026-04-19T09:25:52.999Z</time></trkpt><trkpt lat="43.450963704163854" lon="10.56692630298652"><ele>219.0</ele><time>2026-04-19T09:25:53.999Z</time></trkpt><trkpt lat="43.45087445863801" lon="10.566962059388649"><ele>219.0</ele><time>2026-04-19T09:25:54.999Z</time></trkpt><trkpt lat="43.45079020557276" lon="10.566994421663914"><ele>222.66666666666666</ele><time>2026-04-19T09:25:55.999Z</time></trkpt><trkpt lat="43.45073290364607" lon="10.567073613727745"><ele>226.33333333333331</ele><time>2026-04-19T09:25:56.999Z</time></trkpt><trkpt lat="43.45070058370793" lon="10.567191501223999"><ele>230.0</ele><time>2026-04-19T09:25:57.999Z</time></trkpt><trkpt lat="43.450692060636065" lon="10.567308772333003"><ele>233.66666666666666</ele><time>2026-04-19T09:25:58.999Z</time></trkpt><trkpt lat="43.45065649192546" lon="10.567413140373327"><ele>237.33333333333331</ele><time>2026-04-19T09:25:59.999Z</time></trkpt><trkpt lat="43.450619878535846" lon="10.567516440708014"><ele>241.0</ele><time>2026-04-19T09:26:00.999Z</time></trkpt><trkpt lat="43.4505674922197" lon="10.567590437586846"><ele>240.99999999999997</ele><time>2026-04-19T09:26:01.999Z</time></trkpt><trkpt lat="43.45052489971343" lon="10.567667896656793"><ele>241.0</ele><time>2026-04-19T09:26:02.999Z</time></trkpt><trkpt lat="43.45048277837036" lon="10.567734500250982"><ele>241.0</ele><time>2026-04-19T09:26:03.999Z</time></trkpt><trkpt lat="43.450414106843816" lon="10.567822859683616"><ele>241.0</ele><time>2026-04-19T09:26:05.999Z</time></trkpt><trkpt lat="43.450342808703276" lon="10.567913370560971"><ele>240.99999999999997</ele><time>2026-04-19T09:26:07.999Z</time></trkpt><trkpt lat="43.450233269958744" lon="10.567963933161655"><ele>241.0</ele><time>2026-04-19T09:26:09.999Z</time></trkpt><trkpt lat="43.4501739988939" lon="10.568002857408553"><ele>241.99999999999997</ele><time>2026-04-19T09:26:10.999Z</time></trkpt><trkpt lat="43.450106813966954" lon="10.56804812173969"><ele>243.0</ele><time>2026-04-19T09:26:11.999Z</time></trkpt><trkpt lat="43.450041427546324" lon="10.568100653917687"><ele>244.0</ele><time>2026-04-19T09:26:12.999Z</time></trkpt><trkpt lat="43.44997834402652" lon="10.568170002988985"><ele>245.0</ele><time>2026-04-19T09:26:13.999Z</time></trkpt><trkpt lat="43.44992271725874" lon="10.56824043022399"><ele>245.99999999999997</ele><time>2026-04-19T09:26:14.999Z</time></trkpt><trkpt lat="43.44987412818081" lon="10.568315019279677"><ele>247.0</ele><time>2026-04-19T09:26:15.999Z</time></trkpt><trkpt lat="43.449844848932855" lon="10.568410058154825"><ele>246.99999999999997</ele><time>2026-04-19T09:26:16.999Z</time></trkpt><trkpt lat="43.449798581782034" lon="10.568497991964186"><ele>247.0</ele><time>2026-04-19T09:26:17.999Z</time></trkpt><trkpt lat="43.44977058329771" lon="10.568603538402757"><ele>247.0</ele><time>2026-04-19T09:26:18.999Z</time></trkpt><trkpt lat="43.4497560394427" lon="10.568717531071682"><ele>247.0</ele><time>2026-04-19T09:26:19.999Z</time></trkpt><trkpt lat="43.44971934693894" lon="10.568827252949099"><ele>246.99999999999997</ele><time>2026-04-19T09:26:20.999Z</time></trkpt><trkpt lat="43.44970677840285" lon="10.56893928228081"><ele>247.0</ele><time>2026-04-19T09:26:21.999Z</time></trkpt><trkpt lat="43.44971159628714" lon="10.56904544699828"><ele>248.57142857142858</ele><time>2026-04-19T09:26:22.999Z</time></trkpt><trkpt lat="43.4496919492141" lon="10.569141412981157"><ele>250.1428571428571</ele><time>2026-04-19T09:26:23.999Z</time></trkpt><trkpt lat="43.44970549208839" lon="10.569233104412483"><ele>251.7142857142857</ele><time>2026-04-19T09:26:24.999Z</time></trkpt><trkpt lat="43.44976178156175" lon="10.5693068790554"><ele>253.28571428571428</ele><time>2026-04-19T09:26:25.999Z</time></trkpt><trkpt lat="43.44981115041809" lon="10.569376022309966"><ele>254.85714285714283</ele><time>2026-04-19T09:26:26.999Z</time></trkpt><trkpt lat="43.44986593005383" lon="10.569436143032634"><ele>256.4285714285714</ele><time>2026-04-19T09:26:27.999Z</time></trkpt><trkpt lat="43.44992382578628" lon="10.569497070918045"><ele>258.0</ele><time>2026-04-19T09:26:28.999Z</time></trkpt><trkpt lat="43.44997794836059" lon="10.569567523320389"><ele>258.0</ele><time>2026-04-19T09:26:29.999Z</time></trkpt><trkpt lat="43.450024327817374" lon="10.569644338214673"><ele>258.0</ele><time>2026-04-19T09:26:30.999Z</time></trkpt><trkpt lat="43.45007754480914" lon="10.569756534798817"><ele>258.0</ele><time>2026-04-19T09:26:32.999Z</time></trkpt><trkpt lat="43.45010282883221" lon="10.569881653064748"><ele>258.0</ele><time>2026-04-19T09:26:34.999Z</time></trkpt><trkpt lat="43.450144516199074" lon="10.570040183419717"><ele>258.0</ele><time>2026-04-19T09:26:36.999Z</time></trkpt><trkpt lat="43.45023277147347" lon="10.570135638354525"><ele>258.0</ele><time>2026-04-19T09:26:38.999Z</time></trkpt><trkpt lat="43.45031966821023" lon="10.570211332570773"><ele>258.0</ele><time>2026-04-19T09:26:40.999Z</time></trkpt><trkpt lat="43.45042299974572" lon="10.570279052516293"><ele>258.0</ele><time>2026-04-19T09:26:42.999Z</time></trkpt><trkpt lat="43.45048706626266" lon="10.570309530528577"><ele>258.0</ele><time>2026-04-19T09:26:43.999Z</time></trkpt><trkpt lat="43.45055935375319" lon="10.570339466493733"><ele>258.0</ele><time>2026-04-19T09:26:44.998Z</time></trkpt><trkpt lat="43.450639105581544" lon="10.570376375271131"><ele>258.0</ele><time>2026-04-19T09:26:45.998Z</time></trkpt><trkpt lat="43.450729550472" lon="10.570423211874326"><ele>260.0</ele><time>2026-04-19T09:26:46.998Z</time></trkpt><trkpt lat="43.45081929191413" lon="10.570488961694368"><ele>262.0</ele><time>2026-04-19T09:26:47.998Z</time></trkpt><trkpt lat="43.45090138478431" lon="10.57058009227805"><ele>264.0</ele><time>2026-04-19T09:26:48.998Z</time></trkpt><trkpt lat="43.45097577354893" lon="10.57069312956561"><ele>266.0</ele><time>2026-04-19T09:26:49.998Z</time></trkpt><trkpt lat="43.45105114419382" lon="10.570810675085736"><ele>268.0</ele><time>2026-04-19T09:26:50.998Z</time></trkpt><trkpt lat="43.451136984993106" lon="10.570913147828486"><ele>268.0</ele><time>2026-04-19T09:26:51.998Z</time></trkpt><trkpt lat="43.45122918713759" lon="10.570994762726743"><ele>268.0</ele><time>2026-04-19T09:26:52.998Z</time></trkpt><trkpt lat="43.4512845349682" lon="10.57111272174537"><ele>268.0</ele><time>2026-04-19T09:26:53.998Z</time></trkpt><trkpt lat="43.45132599048157" lon="10.571221108969732"><ele>268.0</ele><time>2026-04-19T09:26:54.998Z</time></trkpt><trkpt lat="43.4513466318126" lon="10.571327173628797"><ele>268.0</ele><time>2026-04-19T09:26:55.998Z</time></trkpt><trkpt lat="43.451352265252346" lon="10.571422552595076"><ele>268.3333333333333</ele><time>2026-04-19T09:26:56.998Z</time></trkpt><trkpt lat="43.45133414919822" lon="10.57155689880983"><ele>268.66666666666663</ele><time>2026-04-19T09:26:58.998Z</time></trkpt><trkpt lat="43.45127510455075" lon="10.571636437819103"><ele>269.0</ele><time>2026-04-19T09:27:00.998Z</time></trkpt><trkpt lat="43.45122016157415" lon="10.571681391994577"><ele>269.3333333333333</ele><time>2026-04-19T09:27:01.998Z</time></trkpt><trkpt lat="43.451159421280366" lon="10.571718263113254"><ele>269.6666666666667</ele><time>2026-04-19T09:27:02.999Z</time></trkpt><trkpt lat="43.451084671785864" lon="10.571755884218959"><ele>270.0</ele><time>2026-04-19T09:27:03.999Z</time></trkpt><trkpt lat="43.4510017260588" lon="10.57180517830539"><ele>271.6666666666667</ele><time>2026-04-19T09:27:04.999Z</time></trkpt><trkpt lat="43.45092072719533" lon="10.571857967515573"><ele>273.3333333333333</ele><time>2026-04-19T09:27:05.999Z</time></trkpt><trkpt lat="43.45083745071547" lon="10.571906702840835"><ele>275.0</ele><time>2026-04-19T09:27:06.999Z</time></trkpt><trkpt lat="43.45075691667942" lon="10.571945142913263"><ele>276.66666666666663</ele><time>2026-04-19T09:27:07.999Z</time></trkpt><trkpt lat="43.45068277458812" lon="10.571965610760182"><ele>278.3333333333333</ele><time>2026-04-19T09:27:08.999Z</time></trkpt><trkpt lat="43.45061140143368" lon="10.5719819461995"><ele>280.0</ele><time>2026-04-19T09:27:09.999Z</time></trkpt><trkpt lat="43.45053526985924" lon="10.571992453196227"><ele>280.0</ele><time>2026-04-19T09:27:10.999Z</time></trkpt><trkpt lat="43.45045885988362" lon="10.571992604263746"><ele>280.0</ele><time>2026-04-19T09:27:11.999Z</time></trkpt><trkpt lat="43.450380858000116" lon="10.57199047079432"><ele>280.0</ele><time>2026-04-19T09:27:12.999Z</time></trkpt><trkpt lat="43.45030667882576" lon="10.571993318272407"><ele>280.0</ele><time>2026-04-19T09:27:13.999Z</time></trkpt><trkpt lat="43.45024039674212" lon="10.572004250771412"><ele>280.0</ele><time>2026-04-19T09:27:14.999Z</time></trkpt><trkpt lat="43.450123587636035" lon="10.57202650916137"><ele>280.0</ele><time>2026-04-19T09:27:16.999Z</time></trkpt><trkpt lat="43.450027133919114" lon="10.572049321825464"><ele>282.0</ele><time>2026-04-19T09:27:18.999Z</time></trkpt><trkpt lat="43.44992123253014" lon="10.572069806473527"><ele>284.0</ele><time>2026-04-19T09:27:20.999Z</time></trkpt><trkpt lat="43.44982874256998" lon="10.572099602365396"><ele>286.0</ele><time>2026-04-19T09:27:22.999Z</time></trkpt><trkpt lat="43.44976632887181" lon="10.572201932948087"><ele>288.0</ele><time>2026-04-19T09:27:24.999Z</time></trkpt><trkpt lat="43.44978513710262" lon="10.572302960832628"><ele>290.0</ele><time>2026-04-19T09:27:25.999Z</time></trkpt><trkpt lat="43.4498224221517" lon="10.572387976471353"><ele>292.0</ele><time>2026-04-19T09:27:26.999Z</time></trkpt><trkpt lat="43.44987303838997" lon="10.57244525732055"><ele>292.0</ele><time>2026-04-19T09:27:27.999Z</time></trkpt><trkpt lat="43.44992046257887" lon="10.572516942480188"><ele>292.0</ele><time>2026-04-19T09:27:28.999Z</time></trkpt><trkpt lat="43.44996942147367" lon="10.572586183516451"><ele>292.0</ele><time>2026-04-19T09:27:29.999Z</time></trkpt><trkpt lat="43.450016921075786" lon="10.572655591479652"><ele>292.0</ele><time>2026-04-19T09:27:30.999Z</time></trkpt><trkpt lat="43.45006629253506" lon="10.572726664308284"><ele>292.0</ele><time>2026-04-19T09:27:31.999Z</time></trkpt><trkpt lat="43.45011929179336" lon="10.57279250064658"><ele>292.0</ele><time>2026-04-19T09:27:32.999Z</time></trkpt><trkpt lat="43.45016228144707" lon="10.572866145891625"><ele>292.0</ele><time>2026-04-19T09:27:33.999Z</time></trkpt><trkpt lat="43.45021120701319" lon="10.572940805989377"><ele>290.16666666666663</ele><time>2026-04-19T09:27:34.999Z</time></trkpt><trkpt lat="43.450262964831786" lon="10.573022147001286"><ele>288.3333333333333</ele><time>2026-04-19T09:27:35.999Z</time></trkpt><trkpt lat="43.45031020281785" lon="10.57312091285766"><ele>286.5</ele><time>2026-04-19T09:27:36.999Z</time></trkpt><trkpt lat="43.450339664802094" lon="10.573237320957038"><ele>284.6666666666667</ele><time>2026-04-19T09:27:37.999Z</time></trkpt><trkpt lat="43.45037972633295" lon="10.573346843729572"><ele>282.83333333333337</ele><time>2026-04-19T09:27:38.999Z</time></trkpt><trkpt lat="43.45041796719412" lon="10.573457542167034"><ele>281.0</ele><time>2026-04-19T09:27:39.999Z</time></trkpt><trkpt lat="43.45046761463904" lon="10.573559319667325"><ele>284.83333333333337</ele><time>2026-04-19T09:27:40.999Z</time></trkpt><trkpt lat="43.450486219972476" lon="10.57367754195227"><ele>288.6666666666667</ele><time>2026-04-19T09:27:41.999Z</time></trkpt><trkpt lat="43.4505477292418" lon="10.573761394363617"><ele>292.5</ele><time>2026-04-19T09:27:42.999Z</time></trkpt><trkpt lat="43.45063443169292" lon="10.57378468909665"><ele>296.3333333333333</ele><time>2026-04-19T09:27:43.999Z</time></trkpt><trkpt lat="43.45069830012908" lon="10.573832735213502"><ele>300.16666666666663</ele><time>2026-04-19T09:27:44.999Z</time></trkpt><trkpt lat="43.450749079447746" lon="10.57390047850567"><ele>304.0</ele><time>2026-04-19T09:27:45.999Z</time></trkpt><trkpt lat="43.45078863750366" lon="10.573972599612048"><ele>304.66666666666663</ele><time>2026-04-19T09:27:46.999Z</time></trkpt><trkpt lat="43.45084694365977" lon="10.574032089267302"><ele>305.3333333333333</ele><time>2026-04-19T09:27:47.999Z</time></trkpt><trkpt lat="43.45089744495184" lon="10.574116051504978"><ele>306.0</ele><time>2026-04-19T09:27:48.999Z</time></trkpt><trkpt lat="43.450961364982625" lon="10.574196003102148"><ele>306.6666666666667</ele><time>2026-04-19T09:27:49.999Z</time></trkpt><trkpt lat="43.45103650015672" lon="10.57426965913265"><ele>307.33333333333337</ele><time>2026-04-19T09:27:50.999Z</time></trkpt><trkpt lat="43.451093120923815" lon="10.574382162148567"><ele>308.0</ele><time>2026-04-19T09:27:51.999Z</time></trkpt><trkpt lat="43.45117217418141" lon="10.574478346820344"><ele>307.2</ele><time>2026-04-19T09:27:52.999Z</time></trkpt><trkpt lat="43.45121329692843" lon="10.574615747783652"><ele>306.4</ele><time>2026-04-19T09:27:53.999Z</time></trkpt><trkpt lat="43.4512732472123" lon="10.574722522311825"><ele>305.59999999999997</ele><time>2026-04-19T09:27:54.999Z</time></trkpt><trkpt lat="43.45135045212963" lon="10.574796420569667"><ele>304.8</ele><time>2026-04-19T09:27:55.999Z</time></trkpt><trkpt lat="43.45142573089191" lon="10.574863303863456"><ele>304.0</ele><time>2026-04-19T09:27:56.999Z</time></trkpt><trkpt lat="43.451499035003884" lon="10.574914476475268"><ele>307.0</ele><time>2026-04-19T09:27:57.999Z</time></trkpt><trkpt lat="43.451549630671" lon="10.574979492500733"><ele>310.0</ele><time>2026-04-19T09:27:58.999Z</time></trkpt><trkpt lat="43.45158553402121" lon="10.575053610018557"><ele>313.0</ele><time>2026-04-19T09:27:59.999Z</time></trkpt><trkpt lat="43.45162293162601" lon="10.575131176638829"><ele>316.0</ele><time>2026-04-19T09:28:00.999Z</time></trkpt><trkpt lat="43.451658148999826" lon="10.575207882175341"><ele>319.0</ele><time>2026-04-19T09:28:01.999Z</time></trkpt><trkpt lat="43.45168809336766" lon="10.575292874645653"><ele>322.0</ele><time>2026-04-19T09:28:02.999Z</time></trkpt><trkpt lat="43.45170465191884" lon="10.575398685769354"><ele>325.0</ele><time>2026-04-19T09:28:03.999Z</time></trkpt><trkpt lat="43.45170279502477" lon="10.575525486122627"><ele>326.0</ele><time>2026-04-19T09:28:04.999Z</time></trkpt><trkpt lat="43.45167299365948" lon="10.575650019960023"><ele>327.0</ele><time>2026-04-19T09:28:05.999Z</time></trkpt><trkpt lat="43.451649313918615" lon="10.575788052885027"><ele>328.0</ele><time>2026-04-19T09:28:06.999Z</time></trkpt><trkpt lat="43.45164006929112" lon="10.575926934342792"><ele>329.0</ele><time>2026-04-19T09:28:07.999Z</time></trkpt><trkpt lat="43.45168703442651" lon="10.576055732200581"><ele>330.0</ele><time>2026-04-19T09:28:08.999Z</time></trkpt><trkpt lat="43.45173695152682" lon="10.576159626767769"><ele>330.0</ele><time>2026-04-19T09:28:09.999Z</time></trkpt><trkpt lat="43.45177190514129" lon="10.57627861050632"><ele>330.0</ele><time>2026-04-19T09:28:10.999Z</time></trkpt><trkpt lat="43.45183346152248" lon="10.576377652313736"><ele>330.0</ele><time>2026-04-19T09:28:11.999Z</time></trkpt><trkpt lat="43.45188934803295" lon="10.57649131557194"><ele>330.0</ele><time>2026-04-19T09:28:12.999Z</time></trkpt><trkpt lat="43.45195354575322" lon="10.576591881304603"><ele>330.0</ele><time>2026-04-19T09:28:13.999Z</time></trkpt><trkpt lat="43.45202708863399" lon="10.576644765371917"><ele>330.0</ele><time>2026-04-19T09:28:14.999Z</time></trkpt><trkpt lat="43.45209482055399" lon="10.576674112804001"><ele>330.0</ele><time>2026-04-19T09:28:15.999Z</time></trkpt><trkpt lat="43.4522024599545" lon="10.576719267995026"><ele>330.0</ele><time>2026-04-19T09:28:17.999Z</time></trkpt><trkpt lat="43.45230800573517" lon="10.576759261763534"><ele>330.0</ele><time>2026-04-19T09:28:19.999Z</time></trkpt><trkpt lat="43.45243154815775" lon="10.576732291204127"><ele>330.0</ele><time>2026-04-19T09:28:21.999Z</time></trkpt><trkpt lat="43.45248915081533" lon="10.576688651599206"><ele>332.1666666666667</ele><time>2026-04-19T09:28:22.999Z</time></trkpt><trkpt lat="43.45259273938404" lon="10.576588564827855"><ele>334.3333333333333</ele><time>2026-04-19T09:28:24.999Z</time></trkpt><trkpt lat="43.452649823136774" lon="10.576539899595373"><ele>336.5</ele><time>2026-04-19T09:28:25.999Z</time></trkpt><trkpt lat="43.45271721725241" lon="10.57650486720703"><ele>338.66666666666663</ele><time>2026-04-19T09:28:26.999Z</time></trkpt><trkpt lat="43.452786034554954" lon="10.576490164019704"><ele>340.8333333333333</ele><time>2026-04-19T09:28:27.999Z</time></trkpt><trkpt lat="43.45284951686744" lon="10.576502744420784"><ele>343.0</ele><time>2026-04-19T09:28:28.999Z</time></trkpt><trkpt lat="43.452909688889925" lon="10.576534931440186"><ele>346.2</ele><time>2026-04-19T09:28:29.999Z</time></trkpt><trkpt lat="43.453003718455406" lon="10.576620913524863"><ele>349.4</ele><time>2026-04-19T09:28:31.999Z</time></trkpt><trkpt lat="43.45310479341033" lon="10.576711919776818"><ele>352.59999999999997</ele><time>2026-04-19T09:28:33.999Z</time></trkpt><trkpt lat="43.45316998036835" lon="10.576727140417674"><ele>355.79999999999995</ele><time>2026-04-19T09:28:34.999Z</time></trkpt><trkpt lat="43.45323474850225" lon="10.57673252167523"><ele>359.0</ele><time>2026-04-19T09:28:35.999Z</time></trkpt><trkpt lat="43.45335336369248" lon="10.576749050880101"><ele>359.0</ele><time>2026-04-19T09:28:37.999Z</time></trkpt><trkpt lat="43.45346077066532" lon="10.576819614665917"><ele>359.0</ele><time>2026-04-19T09:28:39.999Z</time></trkpt><trkpt lat="43.45355545027942" lon="10.576891186278518"><ele>359.0</ele><time>2026-04-19T09:28:41.999Z</time></trkpt><trkpt lat="43.45363252809882" lon="10.576988011732068"><ele>359.0</ele><time>2026-04-19T09:28:43.999Z</time></trkpt><trkpt lat="43.45370214681539" lon="10.577123401792024"><ele>358.7142857142857</ele><time>2026-04-19T09:28:45.999Z</time></trkpt><trkpt lat="43.453743018885916" lon="10.577195539720323"><ele>358.42857142857144</ele><time>2026-04-19T09:28:46.999Z</time></trkpt><trkpt lat="43.45378094422143" lon="10.577268566524648"><ele>358.1428571428571</ele><time>2026-04-19T09:28:47.999Z</time></trkpt><trkpt lat="43.453825068468376" lon="10.577338826294003"><ele>357.8571428571429</ele><time>2026-04-19T09:28:48.999Z</time></trkpt><trkpt lat="43.45386473051607" lon="10.577413934989126"><ele>357.57142857142856</ele><time>2026-04-19T09:28:49.999Z</time></trkpt><trkpt lat="43.45389735948378" lon="10.577500549637481"><ele>357.2857142857143</ele><time>2026-04-19T09:28:50.998Z</time></trkpt><trkpt lat="43.45393570742538" lon="10.577598958810292"><ele>357.0</ele><time>2026-04-19T09:28:51.998Z</time></trkpt><trkpt lat="43.45397182250772" lon="10.5776908069597"><ele>359.6666666666667</ele><time>2026-04-19T09:28:52.998Z</time></trkpt><trkpt lat="43.45398782815332" lon="10.577808382545888"><ele>362.3333333333333</ele><time>2026-04-19T09:28:53.998Z</time></trkpt><trkpt lat="43.454003690267854" lon="10.577913924144204"><ele>365.0</ele><time>2026-04-19T09:28:54.998Z</time></trkpt><trkpt lat="43.45402374757991" lon="10.578027525598687"><ele>367.66666666666663</ele><time>2026-04-19T09:28:55.998Z</time></trkpt><trkpt lat="43.45404456562843" lon="10.578135579363508"><ele>370.3333333333333</ele><time>2026-04-19T09:28:56.998Z</time></trkpt><trkpt lat="43.454072119574796" lon="10.578244814359802"><ele>373.0</ele><time>2026-04-19T09:28:57.998Z</time></trkpt><trkpt lat="43.454107399663144" lon="10.578339541098572"><ele>373.0</ele><time>2026-04-19T09:28:58.998Z</time></trkpt><trkpt lat="43.45414388096785" lon="10.578437317877286"><ele>373.0</ele><time>2026-04-19T09:28:59.998Z</time></trkpt><trkpt lat="43.45418092452816" lon="10.578537468917867"><ele>373.0</ele><time>2026-04-19T09:29:00.998Z</time></trkpt><trkpt lat="43.45421635117007" lon="10.57864923058697"><ele>373.0</ele><time>2026-04-19T09:29:01.998Z</time></trkpt><trkpt lat="43.454258252903195" lon="10.578760359915384"><ele>373.0</ele><time>2026-04-19T09:29:02.998Z</time></trkpt><trkpt lat="43.454305657869966" lon="10.578867397983052"><ele>373.0</ele><time>2026-04-19T09:29:03.998Z</time></trkpt><trkpt lat="43.45435950115565" lon="10.57896750936959"><ele>373.0</ele><time>2026-04-19T09:29:04.998Z</time></trkpt><trkpt lat="43.45442191805199" lon="10.57905714710464"><ele>373.0</ele><time>2026-04-19T09:29:05.998Z</time></trkpt><trkpt lat="43.45449126267822" lon="10.579136638682899"><ele>373.0</ele><time>2026-04-19T09:29:06.998Z</time></trkpt><trkpt lat="43.45456164059454" lon="10.579209430209204"><ele>373.0</ele><time>2026-04-19T09:29:07.998Z</time></trkpt><trkpt lat="43.45462885532252" lon="10.579274698179088"><ele>373.0</ele><time>2026-04-19T09:29:08.998Z</time></trkpt><trkpt lat="43.454688236423095" lon="10.579331641922296"><ele>373.0</ele><time>2026-04-19T09:29:09.998Z</time></trkpt><trkpt lat="43.4547798979276" lon="10.579418930923891"><ele>377.0</ele><time>2026-04-19T09:29:11.999Z</time></trkpt><trkpt lat="43.45482219733717" lon="10.579537017798424"><ele>381.0</ele><time>2026-04-19T09:29:13.999Z</time></trkpt><trkpt lat="43.45477360479513" lon="10.579655902225213"><ele>385.0</ele><time>2026-04-19T09:29:15.999Z</time></trkpt><trkpt lat="43.454743579347" lon="10.579810826340333"><ele>389.0</ele><time>2026-04-19T09:29:17.999Z</time></trkpt><trkpt lat="43.454735755788384" lon="10.580058244223741"><ele>388.99999999999994</ele><time>2026-04-19T09:29:20.999Z</time></trkpt><trkpt lat="43.45470970655694" lon="10.580224223488582"><ele>389.0</ele><time>2026-04-19T09:29:22.999Z</time></trkpt><trkpt lat="43.454709208527106" lon="10.580318463139909"><ele>389.0</ele><time>2026-04-19T09:29:23.999Z</time></trkpt><trkpt lat="43.454696852693" lon="10.58041412587453"><ele>389.0</ele><time>2026-04-19T09:29:24.999Z</time></trkpt><trkpt lat="43.454706680654695" lon="10.580504744733192"><ele>388.99999999999994</ele><time>2026-04-19T09:29:25.999Z</time></trkpt><trkpt lat="43.454757431784614" lon="10.58064192452911"><ele>389.0</ele><time>2026-04-19T09:29:27.999Z</time></trkpt><trkpt lat="43.45484029848701" lon="10.580712153761876"><ele>391.2</ele><time>2026-04-19T09:29:29.999Z</time></trkpt><trkpt lat="43.454897504651164" lon="10.58079135495407"><ele>393.4</ele><time>2026-04-19T09:29:31.999Z</time></trkpt><trkpt lat="43.454980609816225" lon="10.580881144741738"><ele>395.6</ele><time>2026-04-19T09:29:33.999Z</time></trkpt><trkpt lat="43.455038994976746" lon="10.58101992460089"><ele>397.8</ele><time>2026-04-19T09:29:35.999Z</time></trkpt><trkpt lat="43.45506905320912" lon="10.581183451571546"><ele>400.0</ele><time>2026-04-19T09:29:37.999Z</time></trkpt><trkpt lat="43.45513636774496" lon="10.5813240551762"><ele>401.00000000000006</ele><time>2026-04-19T09:29:39.999Z</time></trkpt><trkpt lat="43.455171751330816" lon="10.58139958820039"><ele>402.0</ele><time>2026-04-19T09:29:40.999Z</time></trkpt><trkpt lat="43.45520070277088" lon="10.58148022044416"><ele>403.0</ele><time>2026-04-19T09:29:41.999Z</time></trkpt><trkpt lat="43.45522638071888" lon="10.581563801150326"><ele>404.0</ele><time>2026-04-19T09:29:42.999Z</time></trkpt><trkpt lat="43.45524554903258" lon="10.581655448547208"><ele>405.0</ele><time>2026-04-19T09:29:43.999Z</time></trkpt><trkpt lat="43.455266298810955" lon="10.581739094285808"><ele>406.00000000000006</ele><time>2026-04-19T09:29:44.999Z</time></trkpt><trkpt lat="43.45529440247588" lon="10.58189241147287"><ele>407.0</ele><time>2026-04-19T09:29:46.999Z</time></trkpt><trkpt lat="43.455326454865045" lon="10.58206787162631"><ele>407.40000000000003</ele><time>2026-04-19T09:29:48.999Z</time></trkpt><trkpt lat="43.45534609480973" lon="10.582174311756537"><ele>407.8</ele><time>2026-04-19T09:29:49.999Z</time></trkpt><trkpt lat="43.455362702421674" lon="10.582293781191735"><ele>408.2</ele><time>2026-04-19T09:29:50.999Z</time></trkpt><trkpt lat="43.455360943562404" lon="10.582426385342258"><ele>408.6</ele><time>2026-04-19T09:29:51.999Z</time></trkpt><trkpt lat="43.45537147825142" lon="10.582567908181916"><ele>409.0</ele><time>2026-04-19T09:29:52.999Z</time></trkpt><trkpt lat="43.455388971667894" lon="10.582714103912448"><ele>410.2</ele><time>2026-04-19T09:29:53.999Z</time></trkpt><trkpt lat="43.45541716881765" lon="10.582858986943709"><ele>411.4</ele><time>2026-04-19T09:29:54.999Z</time></trkpt><trkpt lat="43.455409828377206" lon="10.5830074546875"><ele>412.6</ele><time>2026-04-19T09:29:55.999Z</time></trkpt><trkpt lat="43.45536224448691" lon="10.583139107351695"><ele>413.8</ele><time>2026-04-19T09:29:56.999Z</time></trkpt><trkpt lat="43.45535368393949" lon="10.583275368480793"><ele>415.0</ele><time>2026-04-19T09:29:57.999Z</time></trkpt><trkpt lat="43.455347640285595" lon="10.58339389031193"><ele>415.00000000000006</ele><time>2026-04-19T09:29:58.999Z</time></trkpt><trkpt lat="43.45535963557804" lon="10.583502595366124"><ele>415.0</ele><time>2026-04-19T09:29:59.999Z</time></trkpt><trkpt lat="43.45537369074856" lon="10.583610715179146"><ele>415.0</ele><time>2026-04-19T09:30:00.999Z</time></trkpt><trkpt lat="43.45538498936108" lon="10.583711761393618"><ele>415.0</ele><time>2026-04-19T09:30:01.999Z</time></trkpt><trkpt lat="43.4553961581913" lon="10.583817715982685"><ele>415.00000000000006</ele><time>2026-04-19T09:30:02.999Z</time></trkpt><trkpt lat="43.45540545092409" lon="10.583926321273326"><ele>415.0</ele><time>2026-04-19T09:30:03.999Z</time></trkpt><trkpt lat="43.45541164056556" lon="10.58404074844201"><ele>416.50000000000006</ele><time>2026-04-19T09:30:04.999Z</time></trkpt><trkpt lat="43.455422000795515" lon="10.584150911955554"><ele>418.0</ele><time>2026-04-19T09:30:05.999Z</time></trkpt><trkpt lat="43.45544290390341" lon="10.58425437118764"><ele>419.5</ele><time>2026-04-19T09:30:06.999Z</time></trkpt><trkpt lat="43.45547921241116" lon="10.584348304012446"><ele>421.0</ele><time>2026-04-19T09:30:07.999Z</time></trkpt><trkpt lat="43.455512917818666" lon="10.584446094546763"><ele>422.50000000000006</ele><time>2026-04-19T09:30:08.999Z</time></trkpt><trkpt lat="43.45555293235151" lon="10.584546070371822"><ele>424.0</ele><time>2026-04-19T09:30:09.999Z</time></trkpt><trkpt lat="43.45559441160765" lon="10.584647910310037"><ele>425.6</ele><time>2026-04-19T09:30:10.999Z</time></trkpt><trkpt lat="43.455631852897284" lon="10.584757656103907"><ele>427.2</ele><time>2026-04-19T09:30:11.999Z</time></trkpt><trkpt lat="43.455668029538614" lon="10.584876146957281"><ele>428.80000000000007</ele><time>2026-04-19T09:30:12.999Z</time></trkpt><trkpt lat="43.455714809471345" lon="10.584995045483227"><ele>430.40000000000003</ele><time>2026-04-19T09:30:13.999Z</time></trkpt><trkpt lat="43.45576997264636" lon="10.585107518883099"><ele>432.0</ele><time>2026-04-19T09:30:14.999Z</time></trkpt><trkpt lat="43.455825065963076" lon="10.58521815007949"><ele>432.0</ele><time>2026-04-19T09:30:15.999Z</time></trkpt><trkpt lat="43.45587197853423" lon="10.58532467579338"><ele>432.0</ele><time>2026-04-19T09:30:16.999Z</time></trkpt><trkpt lat="43.45591150088807" lon="10.585425973960628"><ele>432.0</ele><time>2026-04-19T09:30:17.999Z</time></trkpt><trkpt lat="43.45594372169909" lon="10.585526331528447"><ele>432.0</ele><time>2026-04-19T09:30:18.999Z</time></trkpt><trkpt lat="43.45597309028505" lon="10.585624060593295"><ele>432.0</ele><time>2026-04-19T09:30:19.999Z</time></trkpt><trkpt lat="43.45600338224373" lon="10.58572325740136"><ele>432.0</ele><time>2026-04-19T09:30:20.999Z</time></trkpt><trkpt lat="43.45603602212914" lon="10.585830703318138"><ele>433.20000000000005</ele><time>2026-04-19T09:30:21.999Z</time></trkpt><trkpt lat="43.45606781458055" lon="10.585948077345384"><ele>434.40000000000003</ele><time>2026-04-19T09:30:22.999Z</time></trkpt><trkpt lat="43.45610327063285" lon="10.58607003166578"><ele>435.59999999999997</ele><time>2026-04-19T09:30:23.999Z</time></trkpt><trkpt lat="43.456148284801664" lon="10.586190543502548"><ele>436.79999999999995</ele><time>2026-04-19T09:30:24.999Z</time></trkpt><trkpt lat="43.45619986734354" lon="10.586310083700601"><ele>438.0</ele><time>2026-04-19T09:30:25.999Z</time></trkpt><trkpt lat="43.456257452762934" lon="10.58643259761713"><ele>438.79999999999995</ele><time>2026-04-19T09:30:26.999Z</time></trkpt><trkpt lat="43.456318849809456" lon="10.586552118846864"><ele>439.59999999999997</ele><time>2026-04-19T09:30:27.999Z</time></trkpt><trkpt lat="43.456386132561654" lon="10.5866706978476"><ele>440.40000000000003</ele><time>2026-04-19T09:30:28.999Z</time></trkpt><trkpt lat="43.456454834153284" lon="10.586785548532509"><ele>441.20000000000005</ele><time>2026-04-19T09:30:29.999Z</time></trkpt><trkpt lat="43.45651412657242" lon="10.586900616862504"><ele>442.0</ele><time>2026-04-19T09:30:30.999Z</time></trkpt><trkpt lat="43.456558297209355" lon="10.58701514911797"><ele>444.1666666666667</ele><time>2026-04-19T09:30:31.999Z</time></trkpt><trkpt lat="43.45658709112802" lon="10.587126400802466"><ele>446.33333333333337</ele><time>2026-04-19T09:30:32.999Z</time></trkpt><trkpt lat="43.456608887823215" lon="10.587232676868906"><ele>448.5</ele><time>2026-04-19T09:30:33.999Z</time></trkpt><trkpt lat="43.45662649081598" lon="10.587334487254989"><ele>450.66666666666663</ele><time>2026-04-19T09:30:34.999Z</time></trkpt><trkpt lat="43.45664196983385" lon="10.58744337548012"><ele>452.8333333333333</ele><time>2026-04-19T09:30:35.999Z</time></trkpt><trkpt lat="43.45666244825319" lon="10.587544004245022"><ele>455.0</ele><time>2026-04-19T09:30:36.999Z</time></trkpt><trkpt lat="43.456689965066424" lon="10.587643555165794"><ele>454.99999999999994</ele><time>2026-04-19T09:30:37.999Z</time></trkpt><trkpt lat="43.456712288037004" lon="10.587745171672537"><ele>455.0</ele><time>2026-04-19T09:30:38.999Z</time></trkpt><trkpt lat="43.45675076078105" lon="10.587843316366163"><ele>455.0</ele><time>2026-04-19T09:30:39.999Z</time></trkpt><trkpt lat="43.456806349528655" lon="10.587929068089268"><ele>455.0</ele><time>2026-04-19T09:30:40.999Z</time></trkpt><trkpt lat="43.45688062271346" lon="10.587993923872284"><ele>454.99999999999994</ele><time>2026-04-19T09:30:41.999Z</time></trkpt><trkpt lat="43.456953399745274" lon="10.58806588797963"><ele>455.0</ele><time>2026-04-19T09:30:42.999Z</time></trkpt><trkpt lat="43.45702574638885" lon="10.588135123040239"><ele>457.0</ele><time>2026-04-19T09:30:43.999Z</time></trkpt><trkpt lat="43.457089520191666" lon="10.588201557156353"><ele>459.0</ele><time>2026-04-19T09:30:44.999Z</time></trkpt><trkpt lat="43.45715090760404" lon="10.588251669479808"><ele>461.0</ele><time>2026-04-19T09:30:45.999Z</time></trkpt><trkpt lat="43.45721182297293" lon="10.588345185126064"><ele>463.0</ele><time>2026-04-19T09:30:47.999Z</time></trkpt><trkpt lat="43.457269847911235" lon="10.58845535114169"><ele>465.0</ele><time>2026-04-19T09:30:49.999Z</time></trkpt><trkpt lat="43.45733364429266" lon="10.588588048765702"><ele>465.0</ele><time>2026-04-19T09:30:51.999Z</time></trkpt><trkpt lat="43.45739232163065" lon="10.588635393074409"><ele>465.0</ele><time>2026-04-19T09:30:52.999Z</time></trkpt><trkpt lat="43.457448323150054" lon="10.588682488753351"><ele>465.0</ele><time>2026-04-19T09:30:53.999Z</time></trkpt><trkpt lat="43.457516002275" lon="10.588701593250912"><ele>465.0</ele><time>2026-04-19T09:30:54.999Z</time></trkpt><trkpt lat="43.45758463775483" lon="10.58870525248735"><ele>465.0</ele><time>2026-04-19T09:30:55.999Z</time></trkpt><trkpt lat="43.45765638680204" lon="10.588726756028633"><ele>465.0</ele><time>2026-04-19T09:30:56.998Z</time></trkpt><trkpt lat="43.457724197083756" lon="10.588778825082393"><ele>465.0</ele><time>2026-04-19T09:30:57.998Z</time></trkpt><trkpt lat="43.45778970417275" lon="10.58884308669873"><ele>466.4</ele><time>2026-04-19T09:30:58.998Z</time></trkpt><trkpt lat="43.45786075028071" lon="10.588916228152252"><ele>467.8</ele><time>2026-04-19T09:30:59.998Z</time></trkpt><trkpt lat="43.45792811271048" lon="10.588999461875119"><ele>469.20000000000005</ele><time>2026-04-19T09:31:00.998Z</time></trkpt><trkpt lat="43.457992288677126" lon="10.589089789126744"><ele>470.6</ele><time>2026-04-19T09:31:01.998Z</time></trkpt><trkpt lat="43.45805072496063" lon="10.58918674489704"><ele>472.0</ele><time>2026-04-19T09:31:02.998Z</time></trkpt><trkpt lat="43.45810631493962" lon="10.58929198310874"><ele>472.0</ele><time>2026-04-19T09:31:03.998Z</time></trkpt><trkpt lat="43.45816212229042" lon="10.589395588383894"><ele>472.00000000000006</ele><time>2026-04-19T09:31:04.998Z</time></trkpt><trkpt lat="43.458223473473794" lon="10.589496223509594"><ele>472.00000000000006</ele><time>2026-04-19T09:31:05.998Z</time></trkpt><trkpt lat="43.45827255545255" lon="10.58961273970756"><ele>472.0</ele><time>2026-04-19T09:31:06.998Z</time></trkpt><trkpt lat="43.458311328344" lon="10.589728849397776"><ele>472.0</ele><time>2026-04-19T09:31:07.998Z</time></trkpt><trkpt lat="43.458359683035" lon="10.589830247871516"><ele>476.0</ele><time>2026-04-19T09:31:08.998Z</time></trkpt><trkpt lat="43.458502129485694" lon="10.589867020941067"><ele>480.0</ele><time>2026-04-19T09:31:10.999Z</time></trkpt><trkpt lat="43.45860742062623" lon="10.58998465741076"><ele>484.0</ele><time>2026-04-19T09:31:12.999Z</time></trkpt><trkpt lat="43.45866254038519" lon="10.590076141678159"><ele>488.0</ele><time>2026-04-19T09:31:13.999Z</time></trkpt><trkpt lat="43.45869482398836" lon="10.590191752708243"><ele>488.0</ele><time>2026-04-19T09:31:14.999Z</time></trkpt><trkpt lat="43.45873662886074" lon="10.590304212241726"><ele>487.99999999999994</ele><time>2026-04-19T09:31:15.999Z</time></trkpt><trkpt lat="43.45877894211104" lon="10.590418445214741"><ele>487.99999999999994</ele><time>2026-04-19T09:31:16.999Z</time></trkpt><trkpt lat="43.45883000822329" lon="10.590532651112323"><ele>488.0</ele><time>2026-04-19T09:31:17.999Z</time></trkpt><trkpt lat="43.45892307084059" lon="10.590607861563566"><ele>488.0</ele><time>2026-04-19T09:31:18.999Z</time></trkpt><trkpt lat="43.45901417162385" lon="10.590659017417924"><ele>488.0</ele><time>2026-04-19T09:31:19.999Z</time></trkpt><trkpt lat="43.45910270490523" lon="10.59070428766992"><ele>487.99999999999994</ele><time>2026-04-19T09:31:20.999Z</time></trkpt><trkpt lat="43.45918667884317" lon="10.590759837892326"><ele>487.99999999999994</ele><time>2026-04-19T09:31:21.999Z</time></trkpt><trkpt lat="43.45928346195191" lon="10.59080654088632"><ele>488.0</ele><time>2026-04-19T09:31:22.999Z</time></trkpt><trkpt lat="43.45938622661672" lon="10.59084150423766"><ele>488.0</ele><time>2026-04-19T09:31:23.999Z</time></trkpt><trkpt lat="43.459480982387404" lon="10.590886091790845"><ele>488.0</ele><time>2026-04-19T09:31:24.999Z</time></trkpt><trkpt lat="43.45956019175643" lon="10.590963833848937"><ele>487.99999999999994</ele><time>2026-04-19T09:31:25.999Z</time></trkpt><trkpt lat="43.4596218874799" lon="10.591069437769658"><ele>487.99999999999994</ele><time>2026-04-19T09:31:26.999Z</time></trkpt><trkpt lat="43.45967837805127" lon="10.591180221055891"><ele>488.0</ele><time>2026-04-19T09:31:27.999Z</time></trkpt><trkpt lat="43.459743978272435" lon="10.591289188204927"><ele>488.0</ele><time>2026-04-19T09:31:28.999Z</time></trkpt><trkpt lat="43.459825410664436" lon="10.59136232996035"><ele>487.59999999999997</ele><time>2026-04-19T09:31:29.999Z</time></trkpt><trkpt lat="43.45988399787596" lon="10.591475546408503"><ele>487.19999999999993</ele><time>2026-04-19T09:31:30.999Z</time></trkpt><trkpt lat="43.45993319727767" lon="10.591596695335664"><ele>486.8</ele><time>2026-04-19T09:31:31.999Z</time></trkpt><trkpt lat="43.459980243631485" lon="10.59171972656561"><ele>486.4</ele><time>2026-04-19T09:31:32.999Z</time></trkpt><trkpt lat="43.46002765356063" lon="10.591849517464754"><ele>486.0</ele><time>2026-04-19T09:31:33.999Z</time></trkpt><trkpt lat="43.46006577294041" lon="10.591989718929293"><ele>486.4</ele><time>2026-04-19T09:31:34.999Z</time></trkpt><trkpt lat="43.460088595062096" lon="10.59213068722643"><ele>486.8</ele><time>2026-04-19T09:31:35.999Z</time></trkpt><trkpt lat="43.46011443396974" lon="10.592260799605503"><ele>487.19999999999993</ele><time>2026-04-19T09:31:36.999Z</time></trkpt><trkpt lat="43.460154267850314" lon="10.592367646480954"><ele>487.59999999999997</ele><time>2026-04-19T09:31:37.999Z</time></trkpt><trkpt lat="43.46024308034446" lon="10.592402727830258"><ele>488.0</ele><time>2026-04-19T09:31:38.999Z</time></trkpt><trkpt lat="43.460327190863794" lon="10.592418447852186"><ele>488.0</ele><time>2026-04-19T09:31:39.999Z</time></trkpt><trkpt lat="43.4604194958279" lon="10.59241434403442"><ele>487.99999999999994</ele><time>2026-04-19T09:31:40.999Z</time></trkpt><trkpt lat="43.46051752821106" lon="10.59242815173062"><ele>487.99999999999994</ele><time>2026-04-19T09:31:41.999Z</time></trkpt><trkpt lat="43.46061653519975" lon="10.592442737353867"><ele>488.0</ele><time>2026-04-19T09:31:42.999Z</time></trkpt><trkpt lat="43.460715414570736" lon="10.59246191247216"><ele>488.0</ele><time>2026-04-19T09:31:43.999Z</time></trkpt><trkpt lat="43.460802865061524" lon="10.592480838108544"><ele>486.66666666666663</ele><time>2026-04-19T09:31:44.999Z</time></trkpt><trkpt lat="43.460872080017815" lon="10.592497783110622"><ele>485.3333333333333</ele><time>2026-04-19T09:31:45.999Z</time></trkpt><trkpt lat="43.46093657401029" lon="10.592518513297119"><ele>484.0</ele><time>2026-04-19T09:31:46.999Z</time></trkpt><trkpt lat="43.46099872201217" lon="10.592539095560987"><ele>482.66666666666663</ele><time>2026-04-19T09:31:47.999Z</time></trkpt><trkpt lat="43.46110950568909" lon="10.59259360903889"><ele>481.3333333333333</ele><time>2026-04-19T09:31:49.999Z</time></trkpt><trkpt lat="43.46120102070156" lon="10.59268746784289"><ele>480.0</ele><time>2026-04-19T09:31:51.999Z</time></trkpt><trkpt lat="43.46127180441596" lon="10.592788295711815"><ele>479.0</ele><time>2026-04-19T09:31:53.999Z</time></trkpt><trkpt lat="43.46136204731575" lon="10.592828555612918"><ele>478.0</ele><time>2026-04-19T09:31:55.999Z</time></trkpt><trkpt lat="43.46143723750873" lon="10.592740945125062"><ele>477.0</ele><time>2026-04-19T09:31:57.999Z</time></trkpt><trkpt lat="43.46145735475679" lon="10.592657773004095"><ele>476.0</ele><time>2026-04-19T09:32:02.999Z</time></trkpt><trkpt lat="43.46148082508662" lon="10.592573487247213"><ele>475.0</ele><time>2026-04-19T09:32:07.999Z</time></trkpt><trkpt lat="43.461523477282846" lon="10.59245412128138"><ele>474.0</ele><time>2026-04-19T09:32:17.999Z</time></trkpt><trkpt lat="43.46156781324805" lon="10.592360450193164"><ele>474.0</ele><time>2026-04-19T09:32:29Z</time></trkpt><trkpt lat="43.46163824966419" lon="10.592319634601285"><ele>474.0</ele><time>2026-04-19T09:32:37Z</time></trkpt><trkpt lat="43.46169987556716" lon="10.592445274452478"><ele>474.0</ele><time>2026-04-19T09:32:39Z</time></trkpt><trkpt lat="43.46176908641333" lon="10.592505876669252"><ele>474.0</ele><time>2026-04-19T09:32:43Z</time></trkpt><trkpt lat="43.46181621696427" lon="10.592577424472363"><ele>474.0</ele><time>2026-04-19T09:32:48Z</time></trkpt><trkpt lat="43.461860869975865" lon="10.59264521150201"><ele>474.0</ele><time>2026-04-19T09:32:52Z</time></trkpt><trkpt lat="43.46190588720875" lon="10.5927064198062"><ele>474.0</ele><time>2026-04-19T09:32:56Z</time></trkpt><trkpt lat="43.46195797729753" lon="10.592777084336046"><ele>474.0</ele><time>2026-04-19T09:33:00Z</time></trkpt><trkpt lat="43.46200708834634" lon="10.592843706799616"><ele>474.0</ele><time>2026-04-19T09:33:02.999Z</time></trkpt><trkpt lat="43.46198612446375" lon="10.5938642773945"><ele>473.2857142857142</ele><time>2026-04-19T09:34:00Z</time></trkpt><trkpt lat="43.46197619598271" lon="10.593958209104407"><ele>472.57142857142856</ele><time>2026-04-19T09:34:05Z</time></trkpt><trkpt lat="43.46197777115345" lon="10.594052722193533"><ele>471.85714285714283</ele><time>2026-04-19T09:34:11Z</time></trkpt><trkpt lat="43.46200504377888" lon="10.594147096432735"><ele>471.1428571428571</ele><time>2026-04-19T09:34:17Z</time></trkpt><trkpt lat="43.462034408215274" lon="10.59423685895893"><ele>470.42857142857144</ele><time>2026-04-19T09:34:21Z</time></trkpt><trkpt lat="43.46206116890007" lon="10.594318231020265"><ele>469.7142857142857</ele><time>2026-04-19T09:34:26Z</time></trkpt><trkpt lat="43.46208175871948" lon="10.594412645320077"><ele>469.0</ele><time>2026-04-19T09:34:33Z</time></trkpt><trkpt lat="43.46205935012616" lon="10.59450537731465"><ele>468.50000000000006</ele><time>2026-04-19T09:34:37Z</time></trkpt><trkpt lat="43.46204021516969" lon="10.594593611795123"><ele>468.0</ele><time>2026-04-19T09:34:40Z</time></trkpt><trkpt lat="43.462015951778184" lon="10.594712630251516"><ele>467.5</ele><time>2026-04-19T09:34:43Z</time></trkpt><trkpt lat="43.46200809259249" lon="10.594830169246327"><ele>467.0</ele><time>2026-04-19T09:34:46Z</time></trkpt><trkpt lat="43.46199979238693" lon="10.594929847865249"><ele>466.50000000000006</ele><time>2026-04-19T09:34:50Z</time></trkpt><trkpt lat="43.46198719282195" lon="10.595027752390838"><ele>466.0</ele><time>2026-04-19T09:34:53Z</time></trkpt><trkpt lat="43.46199397603036" lon="10.595139339747085"><ele>466.0</ele><time>2026-04-19T09:34:56Z</time></trkpt><trkpt lat="43.462012727317656" lon="10.595248650761429"><ele>466.0</ele><time>2026-04-19T09:34:59Z</time></trkpt><trkpt lat="43.46202195818072" lon="10.59533486852548"><ele>466.0</ele><time>2026-04-19T09:35:01Z</time></trkpt><trkpt lat="43.462020624976255" lon="10.595436192644131"><ele>466.0</ele><time>2026-04-19T09:35:04Z</time></trkpt><trkpt lat="43.462020167560404" lon="10.595532816727445"><ele>466.0</ele><time>2026-04-19T09:35:07Z</time></trkpt><trkpt lat="43.46202199343689" lon="10.595620293045194"><ele>466.0</ele><time>2026-04-19T09:35:10Z</time></trkpt><trkpt lat="43.46202131866936" lon="10.59571895021611"><ele>466.0</ele><time>2026-04-19T09:35:13Z</time></trkpt><trkpt lat="43.462008236052796" lon="10.595836443572125"><ele>465.42857142857144</ele><time>2026-04-19T09:35:16Z</time></trkpt><trkpt lat="43.46200133492063" lon="10.59595409472037"><ele>464.85714285714283</ele><time>2026-04-19T09:35:19Z</time></trkpt><trkpt lat="43.46200837703119" lon="10.596055570069469"><ele>464.2857142857143</ele><time>2026-04-19T09:35:22Z</time></trkpt><trkpt lat="43.46202742156814" lon="10.596142489724182"><ele>463.7142857142857</ele><time>2026-04-19T09:35:25Z</time></trkpt><trkpt lat="43.46204891910798" lon="10.596227120520142"><ele>463.1428571428571</ele><time>2026-04-19T09:35:28Z</time></trkpt><trkpt lat="43.462069289572355" lon="10.596317909310883"><ele>462.57142857142856</ele><time>2026-04-19T09:35:31Z</time></trkpt><trkpt lat="43.462093033861066" lon="10.596406663066091"><ele>462.0</ele><time>2026-04-19T09:35:34Z</time></trkpt><trkpt lat="43.462123366120146" lon="10.596513230255113"><ele>462.0</ele><time>2026-04-19T09:35:40Z</time></trkpt><trkpt lat="43.46214429861453" lon="10.596598637796244"><ele>462.0</ele><time>2026-04-19T09:35:43Z</time></trkpt><trkpt lat="43.462174676947136" lon="10.596698051555293"><ele>462.0</ele><time>2026-04-19T09:35:46Z</time></trkpt><trkpt lat="43.46220033619144" lon="10.596787990148437"><ele>462.0</ele><time>2026-04-19T09:35:49Z</time></trkpt><trkpt lat="43.46222068015996" lon="10.596881664355019"><ele>462.0</ele><time>2026-04-19T09:35:52Z</time></trkpt><trkpt lat="43.46224085304009" lon="10.596969898768457"><ele>462.0</ele><time>2026-04-19T09:35:55Z</time></trkpt><trkpt lat="43.46226016126013" lon="10.597071809564914"><ele>462.0</ele><time>2026-04-19T09:35:59Z</time></trkpt><trkpt lat="43.46227767410329" lon="10.597190327584089"><ele>460.8571428571429</ele><time>2026-04-19T09:36:02Z</time></trkpt><trkpt lat="43.46231001241465" lon="10.597276961997611"><ele>459.7142857142857</ele><time>2026-04-19T09:36:05Z</time></trkpt><trkpt lat="43.462347680924886" lon="10.59736104976868"><ele>458.57142857142856</ele><time>2026-04-19T09:36:10Z</time></trkpt><trkpt lat="43.462379974392306" lon="10.597436631344836"><ele>457.42857142857144</ele><time>2026-04-19T09:36:13Z</time></trkpt><trkpt lat="43.4624079170213" lon="10.597528376793276"><ele>456.28571428571433</ele><time>2026-04-19T09:36:23Z</time></trkpt><trkpt lat="43.4624468626126" lon="10.59761257015134"><ele>455.14285714285717</ele><time>2026-04-19T09:36:52Z</time></trkpt><trkpt lat="43.46248667317359" lon="10.597692867395322"><ele>454.0</ele><time>2026-04-19T09:37:09.001Z</time></trkpt><trkpt lat="43.46249145268203" lon="10.597781531601623"><ele>453.6666666666667</ele><time>2026-04-19T09:37:34Z</time></trkpt><trkpt lat="43.462456377218714" lon="10.597856056975923"><ele>453.33333333333337</ele><time>2026-04-19T09:37:39Z</time></trkpt><trkpt lat="43.46240811075278" lon="10.59796275023206"><ele>453.0</ele><time>2026-04-19T09:37:43Z</time></trkpt><trkpt lat="43.462358196058126" lon="10.59805675977836"><ele>452.66666666666663</ele><time>2026-04-19T09:37:46Z</time></trkpt><trkpt lat="43.46235374377185" lon="10.598170473443743"><ele>452.3333333333333</ele><time>2026-04-19T09:37:50Z</time></trkpt><trkpt lat="43.46237556750602" lon="10.59827013225746"><ele>452.0</ele><time>2026-04-19T09:37:53Z</time></trkpt><trkpt lat="43.4623892927351" lon="10.598356709518786"><ele>452.0</ele><time>2026-04-19T09:37:56Z</time></trkpt><trkpt lat="43.46241436420541" lon="10.59844339514158"><ele>452.0</ele><time>2026-04-19T09:38:00Z</time></trkpt><trkpt lat="43.46243817963904" lon="10.598525771014494"><ele>452.0</ele><time>2026-04-19T09:38:04Z</time></trkpt><trkpt lat="43.46243555312868" lon="10.59863118076947"><ele>452.0</ele><time>2026-04-19T09:38:08Z</time></trkpt><trkpt lat="43.46241248180055" lon="10.598734793654218"><ele>452.0</ele><time>2026-04-19T09:38:12Z</time></trkpt><trkpt lat="43.462404055762455" lon="10.598826878885868"><ele>452.0</ele><time>2026-04-19T09:38:21Z</time></trkpt><trkpt lat="43.46242848388265" lon="10.598916872100986"><ele>452.0</ele><time>2026-04-19T09:38:28Z</time></trkpt><trkpt lat="43.462452541290666" lon="10.599014868263982"><ele>451.7142857142857</ele><time>2026-04-19T09:38:33Z</time></trkpt><trkpt lat="43.46248072435135" lon="10.599094433264641"><ele>451.42857142857144</ele><time>2026-04-19T09:38:38Z</time></trkpt><trkpt lat="43.46249985579217" lon="10.599194565126055"><ele>451.14285714285717</ele><time>2026-04-19T09:38:45Z</time></trkpt><trkpt lat="43.46249163796555" lon="10.599282843323921"><ele>450.8571428571429</ele><time>2026-04-19T09:38:50Z</time></trkpt><trkpt lat="43.46244257649596" lon="10.599340342449965"><ele>450.57142857142856</ele><time>2026-04-19T09:38:54Z</time></trkpt><trkpt lat="43.462436578964514" lon="10.599446979967476"><ele>450.28571428571433</ele><time>2026-04-19T09:38:57Z</time></trkpt><trkpt lat="43.46244370399376" lon="10.599534649319587"><ele>450.00000000000006</ele><time>2026-04-19T09:39:01.001Z</time></trkpt><trkpt lat="43.4624406235951" lon="10.59964843608213"><ele>449.1666666666667</ele><time>2026-04-19T09:39:04.001Z</time></trkpt><trkpt lat="43.46239738787793" lon="10.599758414315055"><ele>448.33333333333337</ele><time>2026-04-19T09:39:08.001Z</time></trkpt><trkpt lat="43.46236476835908" lon="10.599859945728118"><ele>447.5</ele><time>2026-04-19T09:39:11.001Z</time></trkpt><trkpt lat="43.46236899045357" lon="10.599952665818563"><ele>446.6666666666667</ele><time>2026-04-19T09:39:15.001Z</time></trkpt><trkpt lat="43.462355332570375" lon="10.60004341062461"><ele>445.83333333333337</ele><time>2026-04-19T09:40:01.999Z</time></trkpt><trkpt lat="43.462373295172846" lon="10.600157510641568"><ele>445.0</ele><time>2026-04-19T09:40:19Z</time></trkpt><trkpt lat="43.46241689468925" lon="10.600244541772577"><ele>444.8571428571429</ele><time>2026-04-19T09:40:23Z</time></trkpt><trkpt lat="43.462442647414235" lon="10.600336522525922"><ele>444.71428571428567</ele><time>2026-04-19T09:40:26Z</time></trkpt><trkpt lat="43.46243947515192" lon="10.600429958528743"><ele>444.57142857142856</ele><time>2026-04-19T09:40:29Z</time></trkpt><trkpt lat="43.46241379085619" lon="10.600532489435924"><ele>444.42857142857144</ele><time>2026-04-19T09:40:32Z</time></trkpt><trkpt lat="43.462396516233824" lon="10.600622149033212"><ele>444.28571428571433</ele><time>2026-04-19T09:40:35Z</time></trkpt><trkpt lat="43.46239199685841" lon="10.600729632996996"><ele>444.1428571428571</ele><time>2026-04-19T09:40:39Z</time></trkpt><trkpt lat="43.462393874097565" lon="10.600827682672408"><ele>444.0</ele><time>2026-04-19T09:40:42Z</time></trkpt><trkpt lat="43.46238268553412" lon="10.600913139650716"><ele>444.0</ele><time>2026-04-19T09:40:45Z</time></trkpt><trkpt lat="43.462371721931845" lon="10.601021617831284"><ele>444.0</ele><time>2026-04-19T09:40:47Z</time></trkpt><trkpt lat="43.462340961545905" lon="10.601108902101993"><ele>444.0</ele><time>2026-04-19T09:40:49Z</time></trkpt><trkpt lat="43.4622987892704" lon="10.60121459469723"><ele>444.0</ele><time>2026-04-19T09:40:52Z</time></trkpt><trkpt lat="43.46226745526546" lon="10.601308999158489"><ele>444.0</ele><time>2026-04-19T09:40:55Z</time></trkpt><trkpt lat="43.46223369721155" lon="10.601398261476499"><ele>444.0</ele><time>2026-04-19T09:40:57Z</time></trkpt><trkpt lat="43.46222197799479" lon="10.601483822803806"><ele>444.0</ele><time>2026-04-19T09:41:00Z</time></trkpt><trkpt lat="43.46221726080599" lon="10.601600566410962"><ele>442.0</ele><time>2026-04-19T09:41:03Z</time></trkpt><trkpt lat="43.46221823523907" lon="10.601691129134219"><ele>440.0</ele><time>2026-04-19T09:41:05Z</time></trkpt><trkpt lat="43.462237492418794" lon="10.60180484149764"><ele>438.0</ele><time>2026-04-19T09:41:07Z</time></trkpt><trkpt lat="43.46224393600674" lon="10.601936387895405"><ele>436.0</ele><time>2026-04-19T09:41:10Z</time></trkpt><trkpt lat="43.46225264256338" lon="10.60215874298726"><ele>434.0</ele><time>2026-04-19T09:41:12Z</time></trkpt><trkpt lat="43.46226703984855" lon="10.602244391759484"><ele>432.49999999999994</ele><time>2026-04-19T09:41:14Z</time></trkpt><trkpt lat="43.46228325170047" lon="10.602361568910217"><ele>431.0</ele><time>2026-04-19T09:41:17Z</time></trkpt><trkpt lat="43.46228812044476" lon="10.60245263745397"><ele>429.5</ele><time>2026-04-19T09:41:21Z</time></trkpt><trkpt lat="43.46219136243933" lon="10.602453983158894"><ele>428.0</ele><time>2026-04-19T09:41:28.997Z</time></trkpt><trkpt lat="43.46211717822326" lon="10.602410457114782"><ele>426.49999999999994</ele><time>2026-04-19T09:41:31.997Z</time></trkpt><trkpt lat="43.462175556322656" lon="10.602474932751461"><ele>425.0</ele><time>2026-04-19T09:41:52.998Z</time></trkpt><trkpt lat="43.46224642210162" lon="10.602521248105283"><ele>424.99999999999994</ele><time>2026-04-19T09:41:55.999Z</time></trkpt><trkpt lat="43.462300841289746" lon="10.602567545934876"><ele>425.0</ele><time>2026-04-19T09:41:58.999Z</time></trkpt><trkpt lat="43.4623478678739" lon="10.602636309631949"><ele>425.0</ele><time>2026-04-19T09:42:03.999Z</time></trkpt><trkpt lat="43.462431380014586" lon="10.602662240066472"><ele>425.0</ele><time>2026-04-19T09:42:49Z</time></trkpt><trkpt lat="43.46252643358177" lon="10.60275687420505"><ele>424.99999999999994</ele><time>2026-04-19T09:42:51Z</time></trkpt><trkpt lat="43.46260768250861" lon="10.602857507878372"><ele>425.0</ele><time>2026-04-19T09:42:53Z</time></trkpt><trkpt lat="43.462630531481615" lon="10.603021024462977"><ele>425.2</ele><time>2026-04-19T09:42:55Z</time></trkpt><trkpt lat="43.46260780366284" lon="10.603192748615323"><ele>425.4</ele><time>2026-04-19T09:42:57Z</time></trkpt><trkpt lat="43.46253192824558" lon="10.603332291808982"><ele>425.6</ele><time>2026-04-19T09:42:59Z</time></trkpt><trkpt lat="43.4624728418968" lon="10.603385875047799"><ele>425.8</ele><time>2026-04-19T09:43:00Z</time></trkpt><trkpt lat="43.462409886016" lon="10.6034369143832"><ele>426.0</ele><time>2026-04-19T09:43:01Z</time></trkpt><trkpt lat="43.46234751416364" lon="10.603499702740733"><ele>426.0</ele><time>2026-04-19T09:43:02Z</time></trkpt><trkpt lat="43.462284311445565" lon="10.603573602388376"><ele>426.0</ele><time>2026-04-19T09:43:03Z</time></trkpt><trkpt lat="43.46223505980605" lon="10.603670292241736"><ele>426.0</ele><time>2026-04-19T09:43:04Z</time></trkpt><trkpt lat="43.46220111552947" lon="10.60378844767827"><ele>426.0</ele><time>2026-04-19T09:43:05Z</time></trkpt><trkpt lat="43.462177509288956" lon="10.603913476916077"><ele>426.0</ele><time>2026-04-19T09:43:06Z</time></trkpt><trkpt lat="43.46215176423078" lon="10.60403467119544"><ele>426.0</ele><time>2026-04-19T09:43:07Z</time></trkpt><trkpt lat="43.4621094667397" lon="10.604149165611835"><ele>425.8</ele><time>2026-04-19T09:43:08Z</time></trkpt><trkpt lat="43.46206949872149" lon="10.604267874873104"><ele>425.6</ele><time>2026-04-19T09:43:09Z</time></trkpt><trkpt lat="43.46203543549893" lon="10.604404561514926"><ele>425.4</ele><time>2026-04-19T09:43:10Z</time></trkpt><trkpt lat="43.46199777223468" lon="10.60452506275216"><ele>425.2</ele><time>2026-04-19T09:43:11Z</time></trkpt><trkpt lat="43.46195877652631" lon="10.604646056077804"><ele>425.0</ele><time>2026-04-19T09:43:12Z</time></trkpt><trkpt lat="43.46191465749302" lon="10.6047656790516"><ele>425.0</ele><time>2026-04-19T09:43:13Z</time></trkpt><trkpt lat="43.461858708292915" lon="10.604872645821775"><ele>425.0</ele><time>2026-04-19T09:43:14Z</time></trkpt><trkpt lat="43.461800729240515" lon="10.60498271951661"><ele>425.0</ele><time>2026-04-19T09:43:15Z</time></trkpt><trkpt lat="43.4617493578453" lon="10.605097233515734"><ele>425.0</ele><time>2026-04-19T09:43:16Z</time></trkpt><trkpt lat="43.46170170509711" lon="10.605202898209262"><ele>425.0</ele><time>2026-04-19T09:43:17Z</time></trkpt><trkpt lat="43.46167219268082" lon="10.60529127776552"><ele>427.49999999999994</ele><time>2026-04-19T09:43:18Z</time></trkpt><trkpt lat="43.46166786484702" lon="10.605381847024324"><ele>430.0</ele><time>2026-04-19T09:43:20Z</time></trkpt><trkpt lat="43.46167205956737" lon="10.605476838174729"><ele>432.5</ele><time>2026-04-19T09:43:24Z</time></trkpt><trkpt lat="43.46165974192639" lon="10.605570695045818"><ele>435.0</ele><time>2026-04-19T09:43:26Z</time></trkpt><trkpt lat="43.46161916182028" lon="10.605662616868585"><ele>437.49999999999994</ele><time>2026-04-19T09:43:28Z</time></trkpt><trkpt lat="43.4615599846663" lon="10.605764483498929"><ele>440.0</ele><time>2026-04-19T09:43:30Z</time></trkpt><trkpt lat="43.461502370807935" lon="10.605876732316192"><ele>439.99999999999994</ele><time>2026-04-19T09:43:32Z</time></trkpt><trkpt lat="43.46144610195033" lon="10.605978979851432"><ele>440.0</ele><time>2026-04-19T09:43:33.997Z</time></trkpt><trkpt lat="43.461390098705444" lon="10.60607301282701"><ele>440.0</ele><time>2026-04-19T09:43:35.997Z</time></trkpt><trkpt lat="43.46133445825453" lon="10.606169975586322"><ele>440.0</ele><time>2026-04-19T09:43:37.998Z</time></trkpt><trkpt lat="43.461285834813985" lon="10.606265925182091"><ele>439.99999999999994</ele><time>2026-04-19T09:43:39.998Z</time></trkpt><trkpt lat="43.46122747627494" lon="10.60635046935456"><ele>440.0</ele><time>2026-04-19T09:43:41.998Z</time></trkpt><trkpt lat="43.46118145900455" lon="10.606453844881342"><ele>439.3333333333333</ele><time>2026-04-19T09:43:43.998Z</time></trkpt><trkpt lat="43.46115512329044" lon="10.606533105300535"><ele>438.66666666666663</ele><time>2026-04-19T09:43:45.998Z</time></trkpt><trkpt lat="43.46115501791288" lon="10.60665941722745"><ele>438.0</ele><time>2026-04-19T09:43:47.998Z</time></trkpt><trkpt lat="43.461157456149536" lon="10.606769767117994"><ele>437.33333333333337</ele><time>2026-04-19T09:43:49.998Z</time></trkpt><trkpt lat="43.46115795990603" lon="10.606873132357483"><ele>436.6666666666667</ele><time>2026-04-19T09:43:51.998Z</time></trkpt><trkpt lat="43.46115510737147" lon="10.60697968518473"><ele>436.0</ele><time>2026-04-19T09:43:53.998Z</time></trkpt><trkpt lat="43.46114852557886" lon="10.607077721854221"><ele>436.0</ele><time>2026-04-19T09:43:55.998Z</time></trkpt><trkpt lat="43.46113366278553" lon="10.607199002774731"><ele>436.0</ele><time>2026-04-19T09:43:57.999Z</time></trkpt><trkpt lat="43.46112228082937" lon="10.607396839118673"><ele>436.0</ele><time>2026-04-19T09:44:00.999Z</time></trkpt><trkpt lat="43.46110898463874" lon="10.60749622293695"><ele>436.0</ele><time>2026-04-19T09:44:02.999Z</time></trkpt><trkpt lat="43.46110124276005" lon="10.607627997667167"><ele>436.0</ele><time>2026-04-19T09:44:05.999Z</time></trkpt><trkpt lat="43.46108759967459" lon="10.607752719536233"><ele>437.50000000000006</ele><time>2026-04-19T09:44:07.999Z</time></trkpt><trkpt lat="43.46107671906155" lon="10.607847907250552"><ele>439.0</ele><time>2026-04-19T09:44:09.999Z</time></trkpt><trkpt lat="43.461052347820605" lon="10.607988117073445"><ele>440.5</ele><time>2026-04-19T09:44:12.999Z</time></trkpt><trkpt lat="43.461030666087225" lon="10.608083834498109"><ele>442.0</ele><time>2026-04-19T09:44:14.999Z</time></trkpt><trkpt lat="43.46100539088908" lon="10.608172082492242"><ele>443.50000000000006</ele><time>2026-04-19T09:44:16.999Z</time></trkpt><trkpt lat="43.46096421551327" lon="10.608248665365036"><ele>445.0</ele><time>2026-04-19T09:44:18.999Z</time></trkpt><trkpt lat="43.46089807564201" lon="10.608336618109387"><ele>445.00000000000006</ele><time>2026-04-19T09:44:21.999Z</time></trkpt><trkpt lat="43.46083957404248" lon="10.608381332331675"><ele>445.0</ele><time>2026-04-19T09:44:23.999Z</time></trkpt><trkpt lat="43.460765760750824" lon="10.60841418606981"><ele>445.0</ele><time>2026-04-19T09:44:26Z</time></trkpt><trkpt lat="43.46069486596946" lon="10.608416916539564"><ele>445.0</ele><time>2026-04-19T09:44:28Z</time></trkpt><trkpt lat="43.46061322569552" lon="10.608375446589438"><ele>445.00000000000006</ele><time>2026-04-19T09:44:30Z</time></trkpt><trkpt lat="43.4605266860782" lon="10.608285653744645"><ele>445.0</ele><time>2026-04-19T09:44:32Z</time></trkpt><trkpt lat="43.46045041062457" lon="10.608192642296265"><ele>442.83333333333337</ele><time>2026-04-19T09:44:34Z</time></trkpt><trkpt lat="43.46037477810191" lon="10.608141991498776"><ele>440.6666666666667</ele><time>2026-04-19T09:44:36Z</time></trkpt><trkpt lat="43.4602949057802" lon="10.608116100455963"><ele>438.5</ele><time>2026-04-19T09:44:38Z</time></trkpt><trkpt lat="43.4602062680712" lon="10.608136845259644"><ele>436.33333333333337</ele><time>2026-04-19T09:44:40Z</time></trkpt><trkpt lat="43.460138306714875" lon="10.608218702708248"><ele>434.1666666666667</ele><time>2026-04-19T09:44:42Z</time></trkpt><trkpt lat="43.46007976729953" lon="10.60832747384511"><ele>432.0</ele><time>2026-04-19T09:44:44Z</time></trkpt><trkpt lat="43.460035607829006" lon="10.608432702826414"><ele>432.0</ele><time>2026-04-19T09:44:46Z</time></trkpt><trkpt lat="43.460006034572345" lon="10.608535691039373"><ele>432.0</ele><time>2026-04-19T09:44:48Z</time></trkpt><trkpt lat="43.459995883290055" lon="10.608626507544948"><ele>432.0</ele><time>2026-04-19T09:44:50Z</time></trkpt><trkpt lat="43.45998914466428" lon="10.608748273843103"><ele>432.0</ele><time>2026-04-19T09:44:53Z</time></trkpt><trkpt lat="43.45998240731418" lon="10.608835386595265"><ele>432.0</ele><time>2026-04-19T09:45:00Z</time></trkpt><trkpt lat="43.459962620132785" lon="10.608920993662618"><ele>432.0</ele><time>2026-04-19T09:45:07Z</time></trkpt><trkpt lat="43.459937261994504" lon="10.609022592124557"><ele>432.0</ele><time>2026-04-19T09:48:52.002Z</time></trkpt><trkpt lat="43.45990375975218" lon="10.60909825531813"><ele>433.7142857142857</ele><time>2026-04-19T09:48:55.002Z</time></trkpt><trkpt lat="43.45986110390138" lon="10.609181614291263"><ele>435.42857142857144</ele><time>2026-04-19T09:48:57.002Z</time></trkpt><trkpt lat="43.45981931827762" lon="10.60926627170771"><ele>437.1428571428571</ele><time>2026-04-19T09:48:59.002Z</time></trkpt><trkpt lat="43.459780302682134" lon="10.609359614308609"><ele>438.8571428571429</ele><time>2026-04-19T09:49:02.002Z</time></trkpt><trkpt lat="43.45974133702494" lon="10.609450379822079"><ele>440.5714285714286</ele><time>2026-04-19T09:49:07.002Z</time></trkpt><trkpt lat="43.459704484630976" lon="10.60953298258267"><ele>442.2857142857143</ele><time>2026-04-19T09:49:11.002Z</time></trkpt><trkpt lat="43.45966650071179" lon="10.609622535375784"><ele>444.0</ele><time>2026-04-19T09:49:15.002Z</time></trkpt><trkpt lat="43.45962353401491" lon="10.609720095800666"><ele>442.5</ele><time>2026-04-19T09:49:19.002Z</time></trkpt><trkpt lat="43.45957846114844" lon="10.609819279069518"><ele>441.0</ele><time>2026-04-19T09:49:22.002Z</time></trkpt><trkpt lat="43.45954357422899" lon="10.609904587623474"><ele>439.5</ele><time>2026-04-19T09:49:24.002Z</time></trkpt><trkpt lat="43.45950306521261" lon="10.609992669934716"><ele>438.0</ele><time>2026-04-19T09:49:26.002Z</time></trkpt><trkpt lat="43.459455182111085" lon="10.610075547521824"><ele>436.5</ele><time>2026-04-19T09:49:28.003Z</time></trkpt><trkpt lat="43.45941303017914" lon="10.610155311280096"><ele>435.0</ele><time>2026-04-19T09:49:30.003Z</time></trkpt><trkpt lat="43.4593628107801" lon="10.610244594059072"><ele>436.6666666666667</ele><time>2026-04-19T09:49:32.003Z</time></trkpt><trkpt lat="43.459316763079045" lon="10.610331222365627"><ele>438.33333333333337</ele><time>2026-04-19T09:49:34.003Z</time></trkpt><trkpt lat="43.459270651852975" lon="10.61043671738752"><ele>440.0</ele><time>2026-04-19T09:49:36.003Z</time></trkpt><trkpt lat="43.45922224295663" lon="10.610550141703825"><ele>441.6666666666667</ele><time>2026-04-19T09:49:38.003Z</time></trkpt><trkpt lat="43.45917111633813" lon="10.610656070788199"><ele>443.33333333333337</ele><time>2026-04-19T09:49:40.003Z</time></trkpt><trkpt lat="43.459111949736304" lon="10.61074908106122"><ele>445.0</ele><time>2026-04-19T09:49:42.003Z</time></trkpt><trkpt lat="43.45903827419793" lon="10.610806213530005"><ele>445.00000000000006</ele><time>2026-04-19T09:49:44.003Z</time></trkpt><trkpt lat="43.45896310632827" lon="10.610865652269268"><ele>445.0</ele><time>2026-04-19T09:49:46.003Z</time></trkpt><trkpt lat="43.45889727881869" lon="10.610931862094475"><ele>445.0</ele><time>2026-04-19T09:49:48.003Z</time></trkpt><trkpt lat="43.45883920648684" lon="10.610999913484928"><ele>445.0</ele><time>2026-04-19T09:49:50.003Z</time></trkpt><trkpt lat="43.45877979224356" lon="10.611079978451373"><ele>445.00000000000006</ele><time>2026-04-19T09:49:52.003Z</time></trkpt><trkpt lat="43.45870443547769" lon="10.611166724309939"><ele>445.0</ele><time>2026-04-19T09:49:54.003Z</time></trkpt><trkpt lat="43.45863713639337" lon="10.61124806929467"><ele>443.6666666666667</ele><time>2026-04-19T09:49:56.003Z</time></trkpt><trkpt lat="43.45857493137891" lon="10.611341683227097"><ele>442.33333333333337</ele><time>2026-04-19T09:49:58.003Z</time></trkpt><trkpt lat="43.45853825853699" lon="10.611445405818676"><ele>441.0</ele><time>2026-04-19T09:50:00.002Z</time></trkpt><trkpt lat="43.45850752745069" lon="10.61153762734013"><ele>439.66666666666663</ele><time>2026-04-19T09:50:02.002Z</time></trkpt><trkpt lat="43.45844233820669" lon="10.61159929761981"><ele>438.3333333333333</ele><time>2026-04-19T09:50:04.002Z</time></trkpt><trkpt lat="43.458368862660635" lon="10.611626376943624"><ele>437.0</ele><time>2026-04-19T09:50:06.002Z</time></trkpt><trkpt lat="43.458280134792254" lon="10.611657476273727"><ele>436.99999999999994</ele><time>2026-04-19T09:50:08.002Z</time></trkpt><trkpt lat="43.458210095006955" lon="10.611747437351001"><ele>437.0</ele><time>2026-04-19T09:50:10.002Z</time></trkpt><trkpt lat="43.458180639350246" lon="10.61187831549729"><ele>437.0</ele><time>2026-04-19T09:50:12.002Z</time></trkpt><trkpt lat="43.45816885939357" lon="10.611990889689563"><ele>437.0</ele><time>2026-04-19T09:50:14.002Z</time></trkpt><trkpt lat="43.458161455480905" lon="10.612103012530763"><ele>436.99999999999994</ele><time>2026-04-19T09:50:16.002Z</time></trkpt><trkpt lat="43.458155709171244" lon="10.612204393918786"><ele>437.0</ele><time>2026-04-19T09:50:18.002Z</time></trkpt><trkpt lat="43.45814181225706" lon="10.612312370575028"><ele>438.8333333333333</ele><time>2026-04-19T09:50:20.002Z</time></trkpt><trkpt lat="43.458124394194286" lon="10.61241728096144"><ele>440.66666666666663</ele><time>2026-04-19T09:50:22.002Z</time></trkpt><trkpt lat="43.458109869340156" lon="10.612516294186308"><ele>442.5</ele><time>2026-04-19T09:50:24.002Z</time></trkpt><trkpt lat="43.458086699525346" lon="10.612624027109005"><ele>444.33333333333337</ele><time>2026-04-19T09:50:26.002Z</time></trkpt><trkpt lat="43.45806594523254" lon="10.612719048469915"><ele>446.1666666666667</ele><time>2026-04-19T09:50:28.002Z</time></trkpt><trkpt lat="43.45804116973046" lon="10.612809059869926"><ele>448.0</ele><time>2026-04-19T09:50:30.002Z</time></trkpt><trkpt lat="43.457989866444926" lon="10.612905506114494"><ele>444.83333333333337</ele><time>2026-04-19T09:50:32.002Z</time></trkpt><trkpt lat="43.45792312474179" lon="10.612968265686863"><ele>441.6666666666667</ele><time>2026-04-19T09:50:34.002Z</time></trkpt><trkpt lat="43.45784868596806" lon="10.61300591263591"><ele>438.5</ele><time>2026-04-19T09:50:36.002Z</time></trkpt><trkpt lat="43.4577651687244" lon="10.613041613506724"><ele>435.33333333333337</ele><time>2026-04-19T09:50:38.002Z</time></trkpt><trkpt lat="43.45769237182429" lon="10.61311777320612"><ele>432.1666666666667</ele><time>2026-04-19T09:50:40.002Z</time></trkpt><trkpt lat="43.45763664300198" lon="10.613206386999853"><ele>429.0</ele><time>2026-04-19T09:50:42.002Z</time></trkpt><trkpt lat="43.45757743221415" lon="10.61333451178434"><ele>429.0</ele><time>2026-04-19T09:50:44.002Z</time></trkpt><trkpt lat="43.45753347539743" lon="10.613469611787027"><ele>429.0</ele><time>2026-04-19T09:50:46.002Z</time></trkpt><trkpt lat="43.457491250639606" lon="10.613612241376908"><ele>429.0</ele><time>2026-04-19T09:50:48.002Z</time></trkpt><trkpt lat="43.45746241770402" lon="10.613760433877237"><ele>429.0</ele><time>2026-04-19T09:50:50.002Z</time></trkpt><trkpt lat="43.45744716730756" lon="10.613889271845206"><ele>429.0</ele><time>2026-04-19T09:50:52.002Z</time></trkpt><trkpt lat="43.45742933138298" lon="10.614001978868709"><ele>430.4</ele><time>2026-04-19T09:50:54.002Z</time></trkpt><trkpt lat="43.45741889155454" lon="10.6141239076172"><ele>431.79999999999995</ele><time>2026-04-19T09:50:56.002Z</time></trkpt><trkpt lat="43.45741433486507" lon="10.614259070247629"><ele>433.20000000000005</ele><time>2026-04-19T09:50:58.002Z</time></trkpt><trkpt lat="43.45742111041441" lon="10.614401280327408"><ele>434.6</ele><time>2026-04-19T09:51:00.002Z</time></trkpt><trkpt lat="43.45742831117674" lon="10.614534474488577"><ele>436.0</ele><time>2026-04-19T09:51:02.002Z</time></trkpt><trkpt lat="43.45744905937656" lon="10.614660515847868"><ele>436.0</ele><time>2026-04-19T09:51:04.002Z</time></trkpt><trkpt lat="43.45748504090829" lon="10.61479440820113"><ele>436.0</ele><time>2026-04-19T09:51:06.002Z</time></trkpt><trkpt lat="43.457520794793574" lon="10.614909580246481"><ele>436.0</ele><time>2026-04-19T09:51:08.002Z</time></trkpt><trkpt lat="43.457535216040604" lon="10.615036940190093"><ele>436.0</ele><time>2026-04-19T09:51:10.002Z</time></trkpt><trkpt lat="43.45752033235012" lon="10.615175067351569"><ele>436.0</ele><time>2026-04-19T09:51:12.002Z</time></trkpt><trkpt lat="43.45751157250338" lon="10.615312881726542"><ele>435.0</ele><time>2026-04-19T09:51:14.002Z</time></trkpt><trkpt lat="43.45753972982099" lon="10.615445856664747"><ele>434.0</ele><time>2026-04-19T09:51:16.002Z</time></trkpt><trkpt lat="43.457584098937104" lon="10.615565275295241"><ele>433.0</ele><time>2026-04-19T09:51:18.002Z</time></trkpt><trkpt lat="43.45764982321484" lon="10.615691713113177"><ele>432.0</ele><time>2026-04-19T09:51:20.002Z</time></trkpt><trkpt lat="43.457718900162526" lon="10.615821854328642"><ele>431.0</ele><time>2026-04-19T09:51:22.003Z</time></trkpt><trkpt lat="43.45775232078998" lon="10.615896419943954"><ele>430.99999999999994</ele><time>2026-04-19T09:51:23.003Z</time></trkpt><trkpt lat="43.45777931387984" lon="10.615983365401005"><ele>431.0</ele><time>2026-04-19T09:51:24.003Z</time></trkpt><trkpt lat="43.45781349350295" lon="10.616068610422715"><ele>431.0</ele><time>2026-04-19T09:51:25.003Z</time></trkpt><trkpt lat="43.45784829979888" lon="10.616152664482339"><ele>431.0</ele><time>2026-04-19T09:51:26.003Z</time></trkpt><trkpt lat="43.45787854694596" lon="10.616235618178782"><ele>430.99999999999994</ele><time>2026-04-19T09:51:27.003Z</time></trkpt><trkpt lat="43.45789906109938" lon="10.616320423797704"><ele>431.0</ele><time>2026-04-19T09:51:28.003Z</time></trkpt><trkpt lat="43.45790029824623" lon="10.616486473835927"><ele>430.20000000000005</ele><time>2026-04-19T09:51:30.003Z</time></trkpt><trkpt lat="43.457869956996205" lon="10.616639815879847"><ele>429.40000000000003</ele><time>2026-04-19T09:51:32.003Z</time></trkpt><trkpt lat="43.457858676272075" lon="10.61674412737765"><ele>428.6</ele><time>2026-04-19T09:51:33.003Z</time></trkpt><trkpt lat="43.457844946386494" lon="10.616835502511826"><ele>427.8</ele><time>2026-04-19T09:51:34.003Z</time></trkpt><trkpt lat="43.4578448171006" lon="10.616999715015952"><ele>427.0</ele><time>2026-04-19T09:51:36.003Z</time></trkpt><trkpt lat="43.457852455205646" lon="10.617171242197186"><ele>427.0</ele><time>2026-04-19T09:51:38.003Z</time></trkpt><trkpt lat="43.457849223296705" lon="10.617341131561764"><ele>427.0</ele><time>2026-04-19T09:51:40.003Z</time></trkpt><trkpt lat="43.45784672967439" lon="10.61749681071212"><ele>427.0</ele><time>2026-04-19T09:51:42.003Z</time></trkpt><trkpt lat="43.45785490519084" lon="10.617639548052258"><ele>427.0</ele><time>2026-04-19T09:51:44.003Z</time></trkpt><trkpt lat="43.45788683158233" lon="10.61778565744446"><ele>426.20000000000005</ele><time>2026-04-19T09:51:46.003Z</time></trkpt><trkpt lat="43.45793159531301" lon="10.6179591031696"><ele>425.40000000000003</ele><time>2026-04-19T09:51:48.003Z</time></trkpt><trkpt lat="43.4579769539662" lon="10.618113346306995"><ele>424.6</ele><time>2026-04-19T09:51:50.003Z</time></trkpt><trkpt lat="43.458025107065346" lon="10.618267021035145"><ele>423.79999999999995</ele><time>2026-04-19T09:51:52.003Z</time></trkpt><trkpt lat="43.458052670716484" lon="10.618346510768154"><ele>423.0</ele><time>2026-04-19T09:51:53.003Z</time></trkpt><trkpt lat="43.45808381307857" lon="10.618432652391231"><ele>426.8333333333333</ele><time>2026-04-19T09:51:54.003Z</time></trkpt><trkpt lat="43.45811562107196" lon="10.618516851238113"><ele>430.66666666666663</ele><time>2026-04-19T09:51:55.003Z</time></trkpt><trkpt lat="43.45815761909707" lon="10.618593155933876"><ele>434.5</ele><time>2026-04-19T09:51:56.003Z</time></trkpt><trkpt lat="43.45820463002724" lon="10.618661154875598"><ele>438.3333333333333</ele><time>2026-04-19T09:51:57.002Z</time></trkpt><trkpt lat="43.45825611047536" lon="10.618808698539402"><ele>442.16666666666663</ele><time>2026-04-19T09:51:59.002Z</time></trkpt><trkpt lat="43.458270956238486" lon="10.618957647669113"><ele>446.0</ele><time>2026-04-19T09:52:01.002Z</time></trkpt><trkpt lat="43.45827002582014" lon="10.619122900183276"><ele>445.99999999999994</ele><time>2026-04-19T09:52:03.002Z</time></trkpt><trkpt lat="43.458259594797944" lon="10.619294977921284"><ele>446.0</ele><time>2026-04-19T09:52:05.002Z</time></trkpt><trkpt lat="43.4582563779035" lon="10.619388166259139"><ele>446.0</ele><time>2026-04-19T09:52:06.002Z</time></trkpt><trkpt lat="43.45825340027297" lon="10.619482834722783"><ele>446.0</ele><time>2026-04-19T09:52:07.002Z</time></trkpt><trkpt lat="43.45825014754769" lon="10.619574847310936"><ele>445.99999999999994</ele><time>2026-04-19T09:52:08.002Z</time></trkpt><trkpt lat="43.4582433432325" lon="10.619662803905173"><ele>446.0</ele><time>2026-04-19T09:52:09.002Z</time></trkpt><trkpt lat="43.45822942334941" lon="10.619756730524433"><ele>445.99999999999994</ele><time>2026-04-19T09:52:10.002Z</time></trkpt><trkpt lat="43.45821188442462" lon="10.619840831367439"><ele>446.0</ele><time>2026-04-19T09:52:11.002Z</time></trkpt><trkpt lat="43.45816578614571" lon="10.620014882856369"><ele>446.0</ele><time>2026-04-19T09:52:13.002Z</time></trkpt><trkpt lat="43.45814452471742" lon="10.620097626936642"><ele>446.0</ele><time>2026-04-19T09:52:14.002Z</time></trkpt><trkpt lat="43.458129187217935" lon="10.620182446207078"><ele>445.99999999999994</ele><time>2026-04-19T09:52:15.002Z</time></trkpt><trkpt lat="43.45811856110192" lon="10.620269970811608"><ele>446.0</ele><time>2026-04-19T09:52:16.002Z</time></trkpt><trkpt lat="43.45811006719588" lon="10.620357079623492"><ele>445.99999999999994</ele><time>2026-04-19T09:52:17.002Z</time></trkpt><trkpt lat="43.45811642164597" lon="10.62045188473217"><ele>446.0</ele><time>2026-04-19T09:52:18.002Z</time></trkpt><trkpt lat="43.45813397148322" lon="10.620549249852951"><ele>446.0</ele><time>2026-04-19T09:52:19.002Z</time></trkpt><trkpt lat="43.458151286948684" lon="10.62065455653195"><ele>446.0</ele><time>2026-04-19T09:52:20.002Z</time></trkpt><trkpt lat="43.45817127610101" lon="10.620759382396386"><ele>445.99999999999994</ele><time>2026-04-19T09:52:21.002Z</time></trkpt><trkpt lat="43.45819043903051" lon="10.620868511853427"><ele>446.0</ele><time>2026-04-19T09:52:22.002Z</time></trkpt><trkpt lat="43.45820989069509" lon="10.620978231264374"><ele>445.99999999999994</ele><time>2026-04-19T09:52:23.002Z</time></trkpt><trkpt lat="43.45823629501999" lon="10.621086791505183"><ele>446.0</ele><time>2026-04-19T09:52:24.002Z</time></trkpt><trkpt lat="43.458272885158614" lon="10.621189246152907"><ele>446.0</ele><time>2026-04-19T09:52:25.002Z</time></trkpt><trkpt lat="43.45831749487438" lon="10.621284591811875"><ele>446.0</ele><time>2026-04-19T09:52:26.002Z</time></trkpt><trkpt lat="43.45836240261235" lon="10.621365610325446"><ele>445.99999999999994</ele><time>2026-04-19T09:52:27.002Z</time></trkpt><trkpt lat="43.458433359014336" lon="10.62148731434823"><ele>446.0</ele><time>2026-04-19T09:52:29.002Z</time></trkpt><trkpt lat="43.45847963230325" lon="10.62157227006195"><ele>445.49999999999994</ele><time>2026-04-19T09:52:31.002Z</time></trkpt><trkpt lat="43.45852124438371" lon="10.621651132502919"><ele>445.0</ele><time>2026-04-19T09:52:33.002Z</time></trkpt><trkpt lat="43.45857485825535" lon="10.621733688603099"><ele>444.5</ele><time>2026-04-19T09:52:35.002Z</time></trkpt><trkpt lat="43.458637251610405" lon="10.621805813816739"><ele>444.0</ele><time>2026-04-19T09:52:37.002Z</time></trkpt><trkpt lat="43.458700192664026" lon="10.621878810230008"><ele>443.49999999999994</ele><time>2026-04-19T09:52:39.002Z</time></trkpt><trkpt lat="43.45874059359636" lon="10.621965477947363"><ele>443.0</ele><time>2026-04-19T09:52:41.002Z</time></trkpt><trkpt lat="43.45878787291531" lon="10.62205561721857"><ele>442.99999999999994</ele><time>2026-04-19T09:52:43.002Z</time></trkpt><trkpt lat="43.45883270377918" lon="10.622147591326916"><ele>443.0</ele><time>2026-04-19T09:52:45.002Z</time></trkpt><trkpt lat="43.45888452078369" lon="10.62224713846052"><ele>443.0</ele><time>2026-04-19T09:52:47.002Z</time></trkpt><trkpt lat="43.45895793181545" lon="10.622302106204105"><ele>443.0</ele><time>2026-04-19T09:52:49.002Z</time></trkpt><trkpt lat="43.459048193619445" lon="10.622317770866607"><ele>442.99999999999994</ele><time>2026-04-19T09:52:51.002Z</time></trkpt><trkpt lat="43.45913822790704" lon="10.622330187748085"><ele>443.0</ele><time>2026-04-19T09:52:53.002Z</time></trkpt><trkpt lat="43.45923358216788" lon="10.622339933736704"><ele>442.99999999999994</ele><time>2026-04-19T09:52:55.002Z</time></trkpt><trkpt lat="43.45932555700432" lon="10.622359148991425"><ele>443.0</ele><time>2026-04-19T09:52:57.002Z</time></trkpt><trkpt lat="43.45941312695924" lon="10.622369818250325"><ele>443.0</ele><time>2026-04-19T09:52:59.002Z</time></trkpt><trkpt lat="43.459498977917036" lon="10.622358891041252"><ele>443.0</ele><time>2026-04-19T09:53:01.002Z</time></trkpt><trkpt lat="43.45957365876575" lon="10.622307568771381"><ele>442.99999999999994</ele><time>2026-04-19T09:53:03.002Z</time></trkpt><trkpt lat="43.459634238644384" lon="10.6222320249339"><ele>443.0</ele><time>2026-04-19T09:53:05.002Z</time></trkpt><trkpt lat="43.45969460119301" lon="10.622143314536435"><ele>441.16666666666663</ele><time>2026-04-19T09:53:07.002Z</time></trkpt><trkpt lat="43.459751963509454" lon="10.622040638196593"><ele>439.3333333333333</ele><time>2026-04-19T09:53:09.002Z</time></trkpt><trkpt lat="43.45981456860432" lon="10.622007820925418"><ele>437.5</ele><time>2026-04-19T09:53:10.002Z</time></trkpt><trkpt lat="43.459854276140554" lon="10.621912740266442"><ele>435.66666666666663</ele><time>2026-04-19T09:53:12.002Z</time></trkpt><trkpt lat="43.4598989522955" lon="10.62180435376755"><ele>433.8333333333333</ele><time>2026-04-19T09:53:14.002Z</time></trkpt><trkpt lat="43.45995133314578" lon="10.621664971156973"><ele>432.0</ele><time>2026-04-19T09:53:16.002Z</time></trkpt><trkpt lat="43.46000380898021" lon="10.62152190489944"><ele>437.0</ele><time>2026-04-19T09:53:18.002Z</time></trkpt><trkpt lat="43.46005845038752" lon="10.621380539591591"><ele>442.00000000000006</ele><time>2026-04-19T09:53:20.002Z</time></trkpt><trkpt lat="43.46011019056974" lon="10.621250438232208"><ele>447.00000000000006</ele><time>2026-04-19T09:53:22.002Z</time></trkpt><trkpt lat="43.46015578396791" lon="10.621126578474708"><ele>452.0</ele><time>2026-04-19T09:53:24.002Z</time></trkpt><trkpt lat="43.460199313300464" lon="10.620989842869653"><ele>457.0</ele><time>2026-04-19T09:53:26.002Z</time></trkpt><trkpt lat="43.46022007088146" lon="10.620850105573412"><ele>460.40000000000003</ele><time>2026-04-19T09:53:28.002Z</time></trkpt><trkpt lat="43.46026220900565" lon="10.620733991683265"><ele>463.80000000000007</ele><time>2026-04-19T09:53:30.002Z</time></trkpt><trkpt lat="43.4602907817169" lon="10.62061434675132"><ele>467.2</ele><time>2026-04-19T09:53:32.002Z</time></trkpt><trkpt lat="43.46032159289622" lon="10.62049573856952"><ele>470.6</ele><time>2026-04-19T09:53:34.002Z</time></trkpt><trkpt lat="43.46035757911986" lon="10.620372847701871"><ele>474.0</ele><time>2026-04-19T09:53:36.002Z</time></trkpt><trkpt lat="43.460391603972504" lon="10.620248289512215"><ele>477.0</ele><time>2026-04-19T09:53:38.002Z</time></trkpt><trkpt lat="43.460422189783856" lon="10.620135624179015"><ele>480.0</ele><time>2026-04-19T09:53:40.002Z</time></trkpt><trkpt lat="43.460455627213655" lon="10.620017498527528"><ele>483.0</ele><time>2026-04-19T09:53:42.002Z</time></trkpt><trkpt lat="43.460480692030494" lon="10.61988924327493"><ele>486.0</ele><time>2026-04-19T09:53:44.002Z</time></trkpt><trkpt lat="43.46050072227662" lon="10.619751628234114"><ele>489.0</ele><time>2026-04-19T09:53:46.002Z</time></trkpt><trkpt lat="43.46053498316101" lon="10.619612567910695"><ele>484.4</ele><time>2026-04-19T09:53:48.002Z</time></trkpt><trkpt lat="43.46055474685684" lon="10.619470082935754"><ele>479.79999999999995</ele><time>2026-04-19T09:53:50.002Z</time></trkpt><trkpt lat="43.46059859400617" lon="10.619356545032286"><ele>475.20000000000005</ele><time>2026-04-19T09:53:52.002Z</time></trkpt><trkpt lat="43.46066881196809" lon="10.619259739111275"><ele>470.6</ele><time>2026-04-19T09:53:54.002Z</time></trkpt><trkpt lat="43.46074367194263" lon="10.619165424722501"><ele>466.0</ele><time>2026-04-19T09:53:56.002Z</time></trkpt><trkpt lat="43.46082317913722" lon="10.619057216888633"><ele>466.00000000000006</ele><time>2026-04-19T09:53:58.002Z</time></trkpt><trkpt lat="43.46089571525316" lon="10.618961215376473"><ele>466.0</ele><time>2026-04-19T09:54:00.002Z</time></trkpt><trkpt lat="43.460975609840666" lon="10.618844163092808"><ele>466.0</ele><time>2026-04-19T09:54:02.002Z</time></trkpt><trkpt lat="43.46101511745889" lon="10.618766329006572"><ele>466.0</ele><time>2026-04-19T09:54:03.001Z</time></trkpt><trkpt lat="43.46105598849265" lon="10.618669321763054"><ele>466.00000000000006</ele><time>2026-04-19T09:54:04.001Z</time></trkpt><trkpt lat="43.46108339940148" lon="10.618573585856877"><ele>466.0</ele><time>2026-04-19T09:54:05.001Z</time></trkpt><trkpt lat="43.46110422322811" lon="10.618482530902979"><ele>468.6666666666667</ele><time>2026-04-19T09:54:06.001Z</time></trkpt><trkpt lat="43.461118521836624" lon="10.618390095163813"><ele>471.33333333333337</ele><time>2026-04-19T09:54:07.001Z</time></trkpt><trkpt lat="43.46112837156305" lon="10.618295446937546"><ele>474.0</ele><time>2026-04-19T09:54:08.001Z</time></trkpt><trkpt lat="43.46113462111745" lon="10.618203423090316"><ele>476.66666666666663</ele><time>2026-04-19T09:54:09.001Z</time></trkpt><trkpt lat="43.4611459882075" lon="10.618041317893741"><ele>479.3333333333333</ele><time>2026-04-19T09:54:11.001Z</time></trkpt><trkpt lat="43.461140374408" lon="10.61787868480274"><ele>482.0</ele><time>2026-04-19T09:54:13.001Z</time></trkpt><trkpt lat="43.46113335020009" lon="10.617769869433113"><ele>483.40000000000003</ele><time>2026-04-19T09:54:15.001Z</time></trkpt><trkpt lat="43.46115482340543" lon="10.617669809265003"><ele>484.80000000000007</ele><time>2026-04-19T09:54:18.001Z</time></trkpt><trkpt lat="43.4612077560347" lon="10.617561178822237"><ele>486.2</ele><time>2026-04-19T09:54:20.001Z</time></trkpt><trkpt lat="43.4612534029705" lon="10.617493089359911"><ele>487.6</ele><time>2026-04-19T09:54:21.001Z</time></trkpt><trkpt lat="43.46133278361227" lon="10.617396635875227"><ele>489.0</ele><time>2026-04-19T09:54:23.001Z</time></trkpt><trkpt lat="43.461429346573105" lon="10.617310246373906"><ele>485.2</ele><time>2026-04-19T09:54:25.001Z</time></trkpt><trkpt lat="43.46150903827447" lon="10.617233792204942"><ele>481.4</ele><time>2026-04-19T09:54:27.001Z</time></trkpt><trkpt lat="43.461596587413396" lon="10.617105168255671"><ele>477.6</ele><time>2026-04-19T09:54:29.001Z</time></trkpt><trkpt lat="43.46162753743098" lon="10.617028642494764"><ele>473.8</ele><time>2026-04-19T09:54:30.001Z</time></trkpt><trkpt lat="43.461670505500805" lon="10.6168755641648"><ele>470.0</ele><time>2026-04-19T09:54:32.001Z</time></trkpt><trkpt lat="43.461712686419965" lon="10.616737411204998"><ele>470.0</ele><time>2026-04-19T09:54:34.001Z</time></trkpt><trkpt lat="43.46176310215177" lon="10.616620863540506"><ele>470.0</ele><time>2026-04-19T09:54:36.001Z</time></trkpt><trkpt lat="43.46181341423631" lon="10.616515023588036"><ele>470.0</ele><time>2026-04-19T09:54:38.001Z</time></trkpt><trkpt lat="43.4618735863795" lon="10.616402536265388"><ele>470.0</ele><time>2026-04-19T09:54:40.001Z</time></trkpt><trkpt lat="43.46194360991638" lon="10.616291656880357"><ele>470.0</ele><time>2026-04-19T09:54:42.001Z</time></trkpt><trkpt lat="43.46201759089487" lon="10.6162112211714"><ele>470.0</ele><time>2026-04-19T09:54:44.001Z</time></trkpt><trkpt lat="43.462081761647404" lon="10.616159464778518"><ele>469.99999999999994</ele><time>2026-04-19T09:54:46.001Z</time></trkpt><trkpt lat="43.462165768604" lon="10.616140592493544"><ele>470.0</ele><time>2026-04-19T09:54:49.001Z</time></trkpt><trkpt lat="43.46223115310814" lon="10.616178489380548"><ele>470.0</ele><time>2026-04-19T09:54:51.001Z</time></trkpt><trkpt lat="43.46229720474884" lon="10.616243989012526"><ele>469.99999999999994</ele><time>2026-04-19T09:54:52.001Z</time></trkpt><trkpt lat="43.4623351661632" lon="10.616317100556216"><ele>470.0</ele><time>2026-04-19T09:54:53.001Z</time></trkpt><trkpt lat="43.46237082079083" lon="10.616401007260553"><ele>470.0</ele><time>2026-04-19T09:54:54.001Z</time></trkpt><trkpt lat="43.462412451615876" lon="10.616480046896209"><ele>468.6</ele><time>2026-04-19T09:54:55.001Z</time></trkpt><trkpt lat="43.462453546286206" lon="10.616566785699224"><ele>467.2</ele><time>2026-04-19T09:54:56.001Z</time></trkpt><trkpt lat="43.46249269226617" lon="10.616641068645512"><ele>465.79999999999995</ele><time>2026-04-19T09:54:57.001Z</time></trkpt><trkpt lat="43.46256662712278" lon="10.616777155532498"><ele>464.4</ele><time>2026-04-19T09:54:59.001Z</time></trkpt><trkpt lat="43.46265474124345" lon="10.616883451752622"><ele>463.0</ele><time>2026-04-19T09:55:01.001Z</time></trkpt><trkpt lat="43.46276379820575" lon="10.616925510419222"><ele>463.0</ele><time>2026-04-19T09:55:03.001Z</time></trkpt><trkpt lat="43.462878516328686" lon="10.61690287570087"><ele>462.99999999999994</ele><time>2026-04-19T09:55:05.001Z</time></trkpt><trkpt lat="43.46298604328187" lon="10.616845520764358"><ele>462.99999999999994</ele><time>2026-04-19T09:55:07.001Z</time></trkpt><trkpt lat="43.46306606872744" lon="10.616777835012394"><ele>463.0</ele><time>2026-04-19T09:55:09.001Z</time></trkpt><trkpt lat="43.46313053477021" lon="10.616701818857637"><ele>463.0</ele><time>2026-04-19T09:55:11.001Z</time></trkpt><trkpt lat="43.46318624562612" lon="10.616599871958554"><ele>462.79999999999995</ele><time>2026-04-19T09:55:13.001Z</time></trkpt><trkpt lat="43.46325549907659" lon="10.61647338819651"><ele>462.59999999999997</ele><time>2026-04-19T09:55:15.001Z</time></trkpt><trkpt lat="43.463285414567686" lon="10.61631134967825"><ele>462.40000000000003</ele><time>2026-04-19T09:55:17.001Z</time></trkpt><trkpt lat="43.46328732404695" lon="10.616220332230162"><ele>462.20000000000005</ele><time>2026-04-19T09:55:18.001Z</time></trkpt><trkpt lat="43.46327992843876" lon="10.616044877987497"><ele>462.0</ele><time>2026-04-19T09:55:20.001Z</time></trkpt><trkpt lat="43.463272380273835" lon="10.615925659329784"><ele>464.20000000000005</ele><time>2026-04-19T09:55:22.001Z</time></trkpt><trkpt lat="43.46326444409111" lon="10.615800663691362"><ele>466.40000000000003</ele><time>2026-04-19T09:55:24.001Z</time></trkpt><trkpt lat="43.46325845621796" lon="10.615635255451515"><ele>468.59999999999997</ele><time>2026-04-19T09:55:26.001Z</time></trkpt><trkpt lat="43.46325238421652" lon="10.61546472355272"><ele>470.79999999999995</ele><time>2026-04-19T09:55:28.001Z</time></trkpt><trkpt lat="43.46324993729886" lon="10.615377562793446"><ele>473.0</ele><time>2026-04-19T09:55:29.001Z</time></trkpt><trkpt lat="43.46325808775383" lon="10.61524098708152"><ele>472.99999999999994</ele><time>2026-04-19T09:55:31.001Z</time></trkpt><trkpt lat="43.46330104605101" lon="10.615165879130227"><ele>473.0</ele><time>2026-04-19T09:55:33.001Z</time></trkpt><trkpt lat="43.46338086133629" lon="10.615258670593413"><ele>473.0</ele><time>2026-04-19T09:55:36.001Z</time></trkpt><trkpt lat="43.46346943034999" lon="10.615378703844149"><ele>473.0</ele><time>2026-04-19T09:55:38.001Z</time></trkpt><trkpt lat="43.46352486040257" lon="10.615437640694333"><ele>472.99999999999994</ele><time>2026-04-19T09:55:39.001Z</time></trkpt><trkpt lat="43.46356366967007" lon="10.615510565124762"><ele>473.0</ele><time>2026-04-19T09:55:40.001Z</time></trkpt><trkpt lat="43.46360616522041" lon="10.615577114726197"><ele>473.0</ele><time>2026-04-19T09:55:41.001Z</time></trkpt><trkpt lat="43.463673203272" lon="10.615703330631742"><ele>472.99999999999994</ele><time>2026-04-19T09:55:43.001Z</time></trkpt><trkpt lat="43.463719485962024" lon="10.615827610972149"><ele>472.99999999999994</ele><time>2026-04-19T09:55:45.001Z</time></trkpt><trkpt lat="43.46376448428113" lon="10.615937959375781"><ele>473.0</ele><time>2026-04-19T09:55:47.001Z</time></trkpt><trkpt lat="43.4637940639643" lon="10.616015898793666"><ele>473.0</ele><time>2026-04-19T09:55:48.001Z</time></trkpt><trkpt lat="43.46384701664457" lon="10.616158998568082"><ele>469.79999999999995</ele><time>2026-04-19T09:55:50.001Z</time></trkpt><trkpt lat="43.46389985684897" lon="10.616305475089638"><ele>466.59999999999997</ele><time>2026-04-19T09:55:52.001Z</time></trkpt><trkpt lat="43.463945618618666" lon="10.616427621435752"><ele>463.40000000000003</ele><time>2026-04-19T09:55:54.001Z</time></trkpt><trkpt lat="43.46399216645224" lon="10.616542851429502"><ele>460.20000000000005</ele><time>2026-04-19T09:55:56.002Z</time></trkpt><trkpt lat="43.46402614982063" lon="10.616631631774023"><ele>457.0</ele><time>2026-04-19T09:55:58.002Z</time></trkpt><trkpt lat="43.464076543338095" lon="10.61670584388216"><ele>457.0</ele><time>2026-04-19T09:57:24.001Z</time></trkpt><trkpt lat="43.46425113044172" lon="10.616649124142889"><ele>457.0</ele><time>2026-04-19T09:57:30.001Z</time></trkpt><trkpt lat="43.46428378423129" lon="10.616565109658163"><ele>457.0</ele><time>2026-04-19T09:57:34.001Z</time></trkpt><trkpt lat="43.46416378314804" lon="10.616102325413456"><ele>459.4285714285715</ele><time>2026-04-19T09:58:02.001Z</time></trkpt><trkpt lat="43.46414838762897" lon="10.615998805402647"><ele>461.8571428571429</ele><time>2026-04-19T09:58:06.001Z</time></trkpt><trkpt lat="43.46412342946683" lon="10.615893346575394"><ele>464.2857142857143</ele><time>2026-04-19T09:58:10.001Z</time></trkpt><trkpt lat="43.46408614124193" lon="10.615805034663058"><ele>466.7142857142857</ele><time>2026-04-19T09:58:13.001Z</time></trkpt><trkpt lat="43.464065788643495" lon="10.615721341356837"><ele>469.1428571428571</ele><time>2026-04-19T09:58:15.998Z</time></trkpt><trkpt lat="43.46409780889665" lon="10.61581427508056"><ele>471.5714285714285</ele><time>2026-04-19T10:01:38Z</time></trkpt><trkpt lat="43.46406787441578" lon="10.615735236135958"><ele>473.99999999999994</ele><time>2026-04-19T10:02:30.996Z</time></trkpt><trkpt lat="43.46404710282506" lon="10.615647542219262"><ele>474.0</ele><time>2026-04-19T10:02:42.997Z</time></trkpt><trkpt lat="43.464034507220696" lon="10.615555170031826"><ele>474.0</ele><time>2026-04-19T10:03:06.999Z</time></trkpt><trkpt lat="43.464037457704706" lon="10.615450681420004"><ele>474.0</ele><time>2026-04-19T10:03:12.999Z</time></trkpt><trkpt lat="43.464075094175435" lon="10.615338403402172"><ele>474.0</ele><time>2026-04-19T10:03:21.999Z</time></trkpt><trkpt lat="43.464098673811264" lon="10.61523933878728"><ele>474.0</ele><time>2026-04-19T10:03:27.999Z</time></trkpt><trkpt lat="43.46412697906897" lon="10.61516125007878"><ele>474.0</ele><time>2026-04-19T10:03:34Z</time></trkpt><trkpt lat="43.46417371400477" lon="10.615071893856465"><ele>476.99999999999994</ele><time>2026-04-19T10:03:40Z</time></trkpt><trkpt lat="43.46418375418299" lon="10.614978611535065"><ele>480.0</ele><time>2026-04-19T10:03:44Z</time></trkpt><trkpt lat="43.464191203837295" lon="10.614886256201789"><ele>482.99999999999994</ele><time>2026-04-19T10:03:47Z</time></trkpt><trkpt lat="43.46420053957298" lon="10.61478385062892"><ele>485.99999999999994</ele><time>2026-04-19T10:03:51Z</time></trkpt><trkpt lat="43.46424164322721" lon="10.614706715782019"><ele>489.0</ele><time>2026-04-19T10:03:55Z</time></trkpt><trkpt lat="43.4642815150052" lon="10.614618259076629"><ele>491.99999999999994</ele><time>2026-04-19T10:03:58Z</time></trkpt><trkpt lat="43.46432270818105" lon="10.614526171070782"><ele>494.99999999999994</ele><time>2026-04-19T10:04:01Z</time></trkpt><trkpt lat="43.46435457651349" lon="10.614415689055592"><ele>497.1428571428571</ele><time>2026-04-19T10:04:04Z</time></trkpt><trkpt lat="43.464345368687134" lon="10.614317236009743"><ele>499.2857142857143</ele><time>2026-04-19T10:04:07.001Z</time></trkpt><trkpt lat="43.46434367431827" lon="10.614222129324181"><ele>501.42857142857144</ele><time>2026-04-19T10:04:10.001Z</time></trkpt><trkpt lat="43.464345261268846" lon="10.614131526659172"><ele>503.57142857142856</ele><time>2026-04-19T10:04:13.001Z</time></trkpt><trkpt lat="43.464373983755856" lon="10.61403234693887"><ele>505.7142857142858</ele><time>2026-04-19T10:04:17.001Z</time></trkpt><trkpt lat="43.46440099171629" lon="10.61391710982303"><ele>507.8571428571429</ele><time>2026-04-19T10:04:20.001Z</time></trkpt><trkpt lat="43.46443595345947" lon="10.61383147066082"><ele>510.0</ele><time>2026-04-19T10:04:22.001Z</time></trkpt><trkpt lat="43.46445612514656" lon="10.613724931031443"><ele>510.5</ele><time>2026-04-19T10:04:25.001Z</time></trkpt><trkpt lat="43.46446614729603" lon="10.613606015581148"><ele>511.0</ele><time>2026-04-19T10:04:28.001Z</time></trkpt><trkpt lat="43.464488810680194" lon="10.613492252753243"><ele>511.5</ele><time>2026-04-19T10:04:31.001Z</time></trkpt><trkpt lat="43.4645433377815" lon="10.613419873234916"><ele>512.0</ele><time>2026-04-19T10:04:33.997Z</time></trkpt><trkpt lat="43.464608319811596" lon="10.61338372857149"><ele>512.5</ele><time>2026-04-19T10:04:35.997Z</time></trkpt><trkpt lat="43.46467056689597" lon="10.613278881721728"><ele>513.0</ele><time>2026-04-19T10:04:38.997Z</time></trkpt><trkpt lat="43.46465505730834" lon="10.613168881419469"><ele>514.0</ele><time>2026-04-19T10:04:40.998Z</time></trkpt><trkpt lat="43.46461157579612" lon="10.613051061640146"><ele>515.0</ele><time>2026-04-19T10:04:42.998Z</time></trkpt><trkpt lat="43.46456962892678" lon="10.612947548739639"><ele>516.0</ele><time>2026-04-19T10:04:44.998Z</time></trkpt><trkpt lat="43.464569189632094" lon="10.612856978413022"><ele>517.0</ele><time>2026-04-19T10:04:47.998Z</time></trkpt><trkpt lat="43.4645845357992" lon="10.61275956807145"><ele>518.0</ele><time>2026-04-19T10:04:52.998Z</time></trkpt><trkpt lat="43.464598930605646" lon="10.61266942820058"><ele>519.0</ele><time>2026-04-19T10:04:57.999Z</time></trkpt><trkpt lat="43.46458828764358" lon="10.61257083175181"><ele>520.8333333333334</ele><time>2026-04-19T10:05:02.999Z</time></trkpt><trkpt lat="43.464592709587855" lon="10.612460625844625"><ele>522.6666666666666</ele><time>2026-04-19T10:05:06.999Z</time></trkpt><trkpt lat="43.464594932227925" lon="10.6123590038522"><ele>524.5</ele><time>2026-04-19T10:05:11Z</time></trkpt><trkpt lat="43.46459785469049" lon="10.612246251980059"><ele>526.3333333333333</ele><time>2026-04-19T10:05:14Z</time></trkpt><trkpt lat="43.46459763642369" lon="10.612146048706075"><ele>528.1666666666666</ele><time>2026-04-19T10:05:17Z</time></trkpt><trkpt lat="43.46460572471509" lon="10.612024348067983"><ele>530.0</ele><time>2026-04-19T10:05:20Z</time></trkpt><trkpt lat="43.46460101247608" lon="10.611926761700163"><ele>531.7142857142857</ele><time>2026-04-19T10:05:24Z</time></trkpt><trkpt lat="43.46460154178954" lon="10.611832452687208"><ele>533.4285714285714</ele><time>2026-04-19T10:05:28Z</time></trkpt><trkpt lat="43.46459460121714" lon="10.611741972900326"><ele>535.1428571428571</ele><time>2026-04-19T10:05:33Z</time></trkpt><trkpt lat="43.464587298241206" lon="10.61165276638672"><ele>536.8571428571429</ele><time>2026-04-19T10:05:37Z</time></trkpt><trkpt lat="43.464599287935776" lon="10.611562605498067"><ele>538.5714285714286</ele><time>2026-04-19T10:05:41.001Z</time></trkpt><trkpt lat="43.464616255606664" lon="10.611444759073741"><ele>540.2857142857142</ele><time>2026-04-19T10:05:48.001Z</time></trkpt><trkpt lat="43.46462986734118" lon="10.611347589409757"><ele>542.0</ele><time>2026-04-19T10:05:51.001Z</time></trkpt><trkpt lat="43.464615699775415" lon="10.611213702974844"><ele>544.5714285714286</ele><time>2026-04-19T10:05:55.001Z</time></trkpt><trkpt lat="43.4646225232605" lon="10.611111368715127"><ele>547.1428571428571</ele><time>2026-04-19T10:05:58.001Z</time></trkpt><trkpt lat="43.46466329374988" lon="10.61104416297445"><ele>549.7142857142858</ele><time>2026-04-19T10:06:01.001Z</time></trkpt><trkpt lat="43.46471376883587" lon="10.610976973786016"><ele>552.2857142857142</ele><time>2026-04-19T10:06:05.001Z</time></trkpt><trkpt lat="43.46471987406938" lon="10.610889191063224"><ele>554.8571428571429</ele><time>2026-04-19T10:06:09.002Z</time></trkpt><trkpt lat="43.46476949006146" lon="10.610802123126158"><ele>557.4285714285714</ele><time>2026-04-19T10:06:13.002Z</time></trkpt><trkpt lat="43.464824269152786" lon="10.610731069186514"><ele>560.0</ele><time>2026-04-19T10:06:17.002Z</time></trkpt><trkpt lat="43.46487468334465" lon="10.610662057208197"><ele>560.0</ele><time>2026-04-19T10:06:34.002Z</time></trkpt><trkpt lat="43.46491141982813" lon="10.610577667797635"><ele>560.0</ele><time>2026-04-19T10:06:37.002Z</time></trkpt><trkpt lat="43.46492202233956" lon="10.610460702476463"><ele>560.0</ele><time>2026-04-19T10:06:39.998Z</time></trkpt><trkpt lat="43.46496882877066" lon="10.610349743473483"><ele>560.0</ele><time>2026-04-19T10:06:43.998Z</time></trkpt><trkpt lat="43.465027464465955" lon="10.6102758690615"><ele>560.0</ele><time>2026-04-19T10:06:46.999Z</time></trkpt><trkpt lat="43.46505862861601" lon="10.610168808351574"><ele>560.0</ele><time>2026-04-19T10:06:49.999Z</time></trkpt><trkpt lat="43.465064965232344" lon="10.610054431877153"><ele>560.6666666666666</ele><time>2026-04-19T10:06:52.999Z</time></trkpt><trkpt lat="43.46508442143478" lon="10.609943915840569"><ele>561.3333333333333</ele><time>2026-04-19T10:06:55.999Z</time></trkpt><trkpt lat="43.4651398185658" lon="10.609841441539631"><ele>562.0</ele><time>2026-04-19T10:06:59Z</time></trkpt><trkpt lat="43.46517251058333" lon="10.609751896538862"><ele>562.6666666666666</ele><time>2026-04-19T10:07:01Z</time></trkpt><trkpt lat="43.46520148769363" lon="10.60966568066292"><ele>563.3333333333334</ele><time>2026-04-19T10:07:03Z</time></trkpt><trkpt lat="43.4652514989871" lon="10.609571536750046"><ele>564.0</ele><time>2026-04-19T10:07:06Z</time></trkpt><trkpt lat="43.46529214046677" lon="10.609502096310468"><ele>564.1428571428571</ele><time>2026-04-19T10:07:14.001Z</time></trkpt><trkpt lat="43.465309163279166" lon="10.609418370834886"><ele>564.2857142857142</ele><time>2026-04-19T10:07:37.002Z</time></trkpt><trkpt lat="43.46533940780561" lon="10.609334252856526"><ele>564.4285714285713</ele><time>2026-04-19T10:07:41.002Z</time></trkpt><trkpt lat="43.4653268823568" lon="10.609240476280405"><ele>564.5714285714286</ele><time>2026-04-19T10:07:49.002Z</time></trkpt><trkpt lat="43.46532244414338" lon="10.609144676623421"><ele>564.7142857142857</ele><time>2026-04-19T10:07:57.002Z</time></trkpt><trkpt lat="43.46533088896432" lon="10.609055414645633"><ele>564.8571428571428</ele><time>2026-04-19T10:08:03.002Z</time></trkpt><trkpt lat="43.465333214658116" lon="10.608949982712653"><ele>565.0</ele><time>2026-04-19T10:08:10.003Z</time></trkpt><trkpt lat="43.465325184342134" lon="10.608847405024553"><ele>565.0</ele><time>2026-04-19T10:08:14.003Z</time></trkpt><trkpt lat="43.465282195397734" lon="10.608763917036134"><ele>565.0</ele><time>2026-04-19T10:08:20.003Z</time></trkpt><trkpt lat="43.46520984722022" lon="10.608773272927474"><ele>565.0</ele><time>2026-04-19T10:11:16.001Z</time></trkpt><trkpt lat="43.46515219124083" lon="10.608726234201221"><ele>565.0</ele><time>2026-04-19T10:13:02Z</time></trkpt><trkpt lat="43.465131590923335" lon="10.608626543599934"><ele>565.0</ele><time>2026-04-19T10:13:56.001Z</time></trkpt><trkpt lat="43.46515750798716" lon="10.608706673445539"><ele>565.0</ele><time>2026-04-19T10:15:26.001Z</time></trkpt><trkpt lat="43.465257846834945" lon="10.608726419955568"><ele>564.9999999999999</ele><time>2026-04-19T10:15:51Z</time></trkpt><trkpt lat="43.465319100693364" lon="10.608769715061456"><ele>565.0</ele><time>2026-04-19T10:22:00.001Z</time></trkpt><trkpt lat="43.46533650867503" lon="10.60885318120557"><ele>565.0</ele><time>2026-04-19T10:22:09.001Z</time></trkpt><trkpt lat="43.46533828857184" lon="10.608980534060695"><ele>565.0</ele><time>2026-04-19T10:22:37.001Z</time></trkpt><trkpt lat="43.465332712635835" lon="10.609069088529871"><ele>565.0</ele><time>2026-04-19T10:22:47.001Z</time></trkpt><trkpt lat="43.46533296797545" lon="10.609160443584388"><ele>564.9999999999999</ele><time>2026-04-19T10:23:10.001Z</time></trkpt><trkpt lat="43.46534351639729" lon="10.609248504497925"><ele>565.0</ele><time>2026-04-19T10:23:19.001Z</time></trkpt><trkpt lat="43.4653564940504" lon="10.609344780738965"><ele>565.0</ele><time>2026-04-19T10:23:30.001Z</time></trkpt><trkpt lat="43.46532885282847" lon="10.6094282457238"><ele>565.0</ele><time>2026-04-19T10:23:38.001Z</time></trkpt><trkpt lat="43.46536459863434" lon="10.609315600505278"><ele>565.0</ele><time>2026-04-19T10:25:48Z</time></trkpt><trkpt lat="43.46542340067376" lon="10.609222614569363"><ele>565.0</ele><time>2026-04-19T10:25:51Z</time></trkpt><trkpt lat="43.465495594786034" lon="10.609142595265915"><ele>565.0</ele><time>2026-04-19T10:25:54Z</time></trkpt><trkpt lat="43.46556233151585" lon="10.609056319366646"><ele>565.0</ele><time>2026-04-19T10:25:57Z</time></trkpt><trkpt lat="43.46557896194241" lon="10.608957231440886"><ele>566.4285714285713</ele><time>2026-04-19T10:26:00Z</time></trkpt><trkpt lat="43.465548564165154" lon="10.608847627870162"><ele>567.8571428571429</ele><time>2026-04-19T10:26:03Z</time></trkpt><trkpt lat="43.46552613918406" lon="10.608756048384292"><ele>569.2857142857142</ele><time>2026-04-19T10:26:07Z</time></trkpt><trkpt lat="43.465519057670804" lon="10.608669384005674"><ele>570.7142857142857</ele><time>2026-04-19T10:26:42Z</time></trkpt><trkpt lat="43.465558189093166" lon="10.608596250945268"><ele>572.1428571428571</ele><time>2026-04-19T10:26:52.001Z</time></trkpt><trkpt lat="43.465628964567934" lon="10.608555024734116"><ele>573.5714285714286</ele><time>2026-04-19T10:26:57.001Z</time></trkpt><trkpt lat="43.46571110919973" lon="10.608536454732281"><ele>575.0</ele><time>2026-04-19T10:27:00.001Z</time></trkpt><trkpt lat="43.46577452791528" lon="10.60853486230156"><ele>575.1666666666666</ele><time>2026-04-19T10:27:03.001Z</time></trkpt><trkpt lat="43.46584271559002" lon="10.608548041407115"><ele>575.3333333333333</ele><time>2026-04-19T10:27:08.001Z</time></trkpt><trkpt lat="43.46592697484697" lon="10.608564603789832"><ele>575.5</ele><time>2026-04-19T10:27:49Z</time></trkpt><trkpt lat="43.465996980033495" lon="10.608547672802183"><ele>575.6666666666666</ele><time>2026-04-19T10:28:33Z</time></trkpt><trkpt lat="43.46608339798925" lon="10.608536215550386"><ele>575.8333333333334</ele><time>2026-04-19T10:28:36Z</time></trkpt><trkpt lat="43.46616170408786" lon="10.608547322861057"><ele>576.0</ele><time>2026-04-19T10:28:38Z</time></trkpt><trkpt lat="43.466250544195724" lon="10.608555306944563"><ele>576.3333333333334</ele><time>2026-04-19T10:28:40Z</time></trkpt><trkpt lat="43.46634925991528" lon="10.608568611880095"><ele>576.6666666666666</ele><time>2026-04-19T10:28:42Z</time></trkpt><trkpt lat="43.46644441669147" lon="10.608564159253106"><ele>577.0</ele><time>2026-04-19T10:28:44Z</time></trkpt><trkpt lat="43.466516127953824" lon="10.608497568714565"><ele>577.3333333333333</ele><time>2026-04-19T10:28:46Z</time></trkpt><trkpt lat="43.466557917105206" lon="10.608413049016988"><ele>577.6666666666666</ele><time>2026-04-19T10:28:48Z</time></trkpt><trkpt lat="43.46659438181717" lon="10.608329731658769"><ele>578.0</ele><time>2026-04-19T10:28:51Z</time></trkpt><trkpt lat="43.466645432923755" lon="10.608246077381436"><ele>578.0</ele><time>2026-04-19T10:28:54Z</time></trkpt><trkpt lat="43.46671454706206" lon="10.608163516681799"><ele>578.0</ele><time>2026-04-19T10:28:57Z</time></trkpt><trkpt lat="43.466768769885995" lon="10.6080879030907"><ele>578.0</ele><time>2026-04-19T10:28:59Z</time></trkpt><trkpt lat="43.46681123527533" lon="10.60800332577748"><ele>578.0</ele><time>2026-04-19T10:29:01Z</time></trkpt><trkpt lat="43.46683093488107" lon="10.607910131545118"><ele>578.0</ele><time>2026-04-19T10:29:03Z</time></trkpt><trkpt lat="43.46685780756758" lon="10.607808306940768"><ele>578.0</ele><time>2026-04-19T10:29:10Z</time></trkpt><trkpt lat="43.46691363517395" lon="10.607736150030574"><ele>577.5</ele><time>2026-04-19T10:29:17Z</time></trkpt><trkpt lat="43.46692627111904" lon="10.607651134680092"><ele>577.0</ele><time>2026-04-19T10:29:30Z</time></trkpt><trkpt lat="43.46699217391103" lon="10.60749638677707"><ele>576.5</ele><time>2026-04-19T10:34:07.999Z</time></trkpt><trkpt lat="43.46706667042919" lon="10.607488866387875"><ele>576.0</ele><time>2026-04-19T10:34:20.999Z</time></trkpt><trkpt lat="43.467105213909726" lon="10.607558643007861"><ele>575.5</ele><time>2026-04-19T10:34:27Z</time></trkpt><trkpt lat="43.46705908963408" lon="10.607626589185346"><ele>575.0</ele><time>2026-04-19T10:34:32Z</time></trkpt><trkpt lat="43.46700542098978" lon="10.607673577421009"><ele>575.0</ele><time>2026-04-19T10:34:35Z</time></trkpt><trkpt lat="43.46694469779282" lon="10.607728481821166"><ele>575.0</ele><time>2026-04-19T10:34:38Z</time></trkpt><trkpt lat="43.466876435851574" lon="10.607800893884065"><ele>575.0</ele><time>2026-04-19T10:34:41Z</time></trkpt><trkpt lat="43.46685044415183" lon="10.607897244953639"><ele>575.0</ele><time>2026-04-19T10:34:44Z</time></trkpt><trkpt lat="43.4668062699848" lon="10.6080003600126"><ele>575.0</ele><time>2026-04-19T10:35:23Z</time></trkpt><trkpt lat="43.46676444593913" lon="10.608084060457102"><ele>575.0</ele><time>2026-04-19T10:35:26Z</time></trkpt><trkpt lat="43.46670649229223" lon="10.608168443857197"><ele>575.4285714285714</ele><time>2026-04-19T10:35:29Z</time></trkpt><trkpt lat="43.46665903510424" lon="10.608226646213224"><ele>575.8571428571428</ele><time>2026-04-19T10:35:32Z</time></trkpt><trkpt lat="43.46660610569761" lon="10.608318597567282"><ele>576.2857142857142</ele><time>2026-04-19T10:35:35Z</time></trkpt><trkpt lat="43.46657124428923" lon="10.60839843222183"><ele>576.7142857142857</ele><time>2026-04-19T10:35:37Z</time></trkpt><trkpt lat="43.466532341579885" lon="10.608477888142522"><ele>577.1428571428571</ele><time>2026-04-19T10:35:39Z</time></trkpt><trkpt lat="43.46647458447526" lon="10.608537673244884"><ele>577.5714285714286</ele><time>2026-04-19T10:35:41Z</time></trkpt><trkpt lat="43.46640688322164" lon="10.6085574891081"><ele>578.0</ele><time>2026-04-19T10:35:43Z</time></trkpt><trkpt lat="43.46633645460575" lon="10.608556138069504"><ele>577.6666666666666</ele><time>2026-04-19T10:35:45Z</time></trkpt><trkpt lat="43.46626408995307" lon="10.608554633350428"><ele>577.3333333333333</ele><time>2026-04-19T10:35:47Z</time></trkpt><trkpt lat="43.466162801149736" lon="10.608531174345623"><ele>577.0</ele><time>2026-04-19T10:35:50Z</time></trkpt><trkpt lat="43.46607837165167" lon="10.608524031421723"><ele>576.6666666666666</ele><time>2026-04-19T10:35:52Z</time></trkpt><trkpt lat="43.4660082763966" lon="10.60854065855128"><ele>576.3333333333334</ele><time>2026-04-19T10:35:53.001Z</time></trkpt><trkpt lat="43.46590653183357" lon="10.608541652472002"><ele>576.0</ele><time>2026-04-19T10:35:55.001Z</time></trkpt><trkpt lat="43.46581822695511" lon="10.608529066091673"><ele>576.0</ele><time>2026-04-19T10:35:57.001Z</time></trkpt><trkpt lat="43.465722514376004" lon="10.608532617063453"><ele>576.0</ele><time>2026-04-19T10:35:59.001Z</time></trkpt><trkpt lat="43.46562393552186" lon="10.608563565532696"><ele>576.0</ele><time>2026-04-19T10:36:01.001Z</time></trkpt><trkpt lat="43.46555771110958" lon="10.608637873515356"><ele>576.0</ele><time>2026-04-19T10:36:03Z</time></trkpt><trkpt lat="43.46555024879994" lon="10.608732493460506"><ele>576.0</ele><time>2026-04-19T10:36:05.001Z</time></trkpt><trkpt lat="43.46558184456714" lon="10.608833599797212"><ele>576.0</ele><time>2026-04-19T10:36:07.001Z</time></trkpt><trkpt lat="43.46561092025641" lon="10.608914362043269"><ele>575.8333333333334</ele><time>2026-04-19T10:36:09.001Z</time></trkpt><trkpt lat="43.46559601002594" lon="10.60901786295079"><ele>575.6666666666666</ele><time>2026-04-19T10:36:11Z</time></trkpt><trkpt lat="43.4655394601878" lon="10.609108394407622"><ele>575.5</ele><time>2026-04-19T10:36:13Z</time></trkpt><trkpt lat="43.46547410134859" lon="10.60918101014329"><ele>575.3333333333333</ele><time>2026-04-19T10:36:15Z</time></trkpt><trkpt lat="43.46542075359707" lon="10.609248631190212"><ele>575.1666666666666</ele><time>2026-04-19T10:36:17Z</time></trkpt><trkpt lat="43.46537406678157" lon="10.60932368794927"><ele>575.0</ele><time>2026-04-19T10:36:19Z</time></trkpt><trkpt lat="43.465346984803126" lon="10.609419119267626"><ele>573.1666666666666</ele><time>2026-04-19T10:36:21Z</time></trkpt><trkpt lat="43.465291417270755" lon="10.609519062123113"><ele>571.3333333333333</ele><time>2026-04-19T10:36:23Z</time></trkpt><trkpt lat="43.465229229197895" lon="10.609605904310243"><ele>569.5</ele><time>2026-04-19T10:36:25Z</time></trkpt><trkpt lat="43.46518745228342" lon="10.609711901940006"><ele>567.6666666666666</ele><time>2026-04-19T10:36:27Z</time></trkpt><trkpt lat="43.46515365111967" lon="10.609805835376758"><ele>565.8333333333334</ele><time>2026-04-19T10:36:29Z</time></trkpt><trkpt lat="43.46511703945557" lon="10.609888393712033"><ele>564.0</ele><time>2026-04-19T10:36:31Z</time></trkpt><trkpt lat="43.46508386091817" lon="10.60996839405251"><ele>564.0</ele><time>2026-04-19T10:36:33Z</time></trkpt><trkpt lat="43.46506933243151" lon="10.610075666741741"><ele>564.0</ele><time>2026-04-19T10:36:35Z</time></trkpt><trkpt lat="43.4650682110518" lon="10.610163160931428"><ele>564.0</ele><time>2026-04-19T10:36:40Z</time></trkpt><trkpt lat="43.465042235031554" lon="10.610258014363987"><ele>564.0</ele><time>2026-04-19T10:36:43Z</time></trkpt><trkpt lat="43.46496394523369" lon="10.610346505503323"><ele>564.0</ele><time>2026-04-19T10:36:46.001Z</time></trkpt><trkpt lat="43.46493244545147" lon="10.610428300102077"><ele>564.0</ele><time>2026-04-19T10:36:48.001Z</time></trkpt><trkpt lat="43.4649250006531" lon="10.61051948327085"><ele>563.3333333333334</ele><time>2026-04-19T10:36:50.001Z</time></trkpt><trkpt lat="43.464897795761104" lon="10.610608374423611"><ele>562.6666666666666</ele><time>2026-04-19T10:36:52.001Z</time></trkpt><trkpt lat="43.46485830872677" lon="10.610678942430482"><ele>562.0</ele><time>2026-04-19T10:36:54.001Z</time></trkpt><trkpt lat="43.46480690878888" lon="10.610779944587028"><ele>561.3333333333333</ele><time>2026-04-19T10:36:57.001Z</time></trkpt><trkpt lat="43.46475689382899" lon="10.610883118046218"><ele>560.6666666666666</ele><time>2026-04-19T10:37:00.001Z</time></trkpt><trkpt lat="43.464712766389695" lon="10.61097293649414"><ele>560.0</ele><time>2026-04-19T10:37:04.001Z</time></trkpt><trkpt lat="43.46466115818722" lon="10.611046042806128"><ele>560.0</ele><time>2026-04-19T10:37:07.001Z</time></trkpt><trkpt lat="43.46463704394263" lon="10.61113970575039"><ele>560.0</ele><time>2026-04-19T10:37:11.001Z</time></trkpt><trkpt lat="43.464617008948764" lon="10.611243532513704"><ele>560.0</ele><time>2026-04-19T10:37:29.001Z</time></trkpt><trkpt lat="43.46462039784088" lon="10.611337353497499"><ele>560.0</ele><time>2026-04-19T10:37:34.001Z</time></trkpt><trkpt lat="43.46461316490805" lon="10.611425254203013"><ele>560.0</ele><time>2026-04-19T10:37:40.001Z</time></trkpt><trkpt lat="43.46460011479654" lon="10.61151823943245"><ele>560.0</ele><time>2026-04-19T10:37:47.001Z</time></trkpt><trkpt lat="43.46458705754781" lon="10.611620464136598"><ele>560.0</ele><time>2026-04-19T10:37:53.001Z</time></trkpt><trkpt lat="43.464585966177594" lon="10.611725930960178"><ele>557.4285714285714</ele><time>2026-04-19T10:37:59.001Z</time></trkpt><trkpt lat="43.46459796015176" lon="10.61182631330961"><ele>554.8571428571429</ele><time>2026-04-19T10:38:05.001Z</time></trkpt><trkpt lat="43.464598391939894" lon="10.61193804626369"><ele>552.2857142857142</ele><time>2026-04-19T10:38:09.001Z</time></trkpt><trkpt lat="43.4646034654775" lon="10.612048686022327"><ele>549.7142857142858</ele><time>2026-04-19T10:38:12.001Z</time></trkpt><trkpt lat="43.46459881184338" lon="10.612141487792845"><ele>547.1428571428571</ele><time>2026-04-19T10:38:15.001Z</time></trkpt><trkpt lat="43.46459266990381" lon="10.612230329116258"><ele>544.5714285714286</ele><time>2026-04-19T10:38:19.001Z</time></trkpt><trkpt lat="43.464591254838346" lon="10.612323786203735"><ele>542.0</ele><time>2026-04-19T10:38:24.001Z</time></trkpt><trkpt lat="43.4645893932163" lon="10.612424155853716"><ele>540.2857142857142</ele><time>2026-04-19T10:38:41.001Z</time></trkpt><trkpt lat="43.46459243839759" lon="10.612514620243598"><ele>538.5714285714286</ele><time>2026-04-19T10:38:50.001Z</time></trkpt><trkpt lat="43.46459248051184" lon="10.612602235167751"><ele>536.8571428571429</ele><time>2026-04-19T10:38:55.001Z</time></trkpt><trkpt lat="43.46460115408955" lon="10.612691648212454"><ele>535.1428571428571</ele><time>2026-04-19T10:39:02.001Z</time></trkpt><trkpt lat="43.464598812720695" lon="10.612822775711768"><ele>533.4285714285714</ele><time>2026-04-19T10:39:06.001Z</time></trkpt><trkpt lat="43.464616860667974" lon="10.61292687924884"><ele>531.7142857142857</ele><time>2026-04-19T10:39:11.001Z</time></trkpt><trkpt lat="43.464640477040675" lon="10.613032977809194"><ele>530.0</ele><time>2026-04-19T10:39:15.001Z</time></trkpt><trkpt lat="43.46466622641795" lon="10.6131251944984"><ele>528.4285714285713</ele><time>2026-04-19T10:39:20.001Z</time></trkpt><trkpt lat="43.46465149977711" lon="10.613219977847674"><ele>526.8571428571429</ele><time>2026-04-19T10:39:26.001Z</time></trkpt><trkpt lat="43.46462412425527" lon="10.613304452755278"><ele>525.2857142857142</ele><time>2026-04-19T10:39:32.001Z</time></trkpt><trkpt lat="43.46459513075989" lon="10.613381987817535"><ele>523.7142857142857</ele><time>2026-04-19T10:39:39.001Z</time></trkpt><trkpt lat="43.46456187534443" lon="10.613475271313527"><ele>522.1428571428571</ele><time>2026-04-19T10:39:44.001Z</time></trkpt><trkpt lat="43.46453013647775" lon="10.613571234048665"><ele>520.5714285714286</ele><time>2026-04-19T10:39:48.001Z</time></trkpt><trkpt lat="43.46450576858131" lon="10.61365958003859"><ele>519.0</ele><time>2026-04-19T10:39:51.001Z</time></trkpt><trkpt lat="43.464479963736984" lon="10.613752409608821"><ele>517.7142857142857</ele><time>2026-04-19T10:39:55.001Z</time></trkpt><trkpt lat="43.46445073686293" lon="10.613839901227117"><ele>516.4285714285713</ele><time>2026-04-19T10:40:00.001Z</time></trkpt><trkpt lat="43.46442727798833" lon="10.613935213178003"><ele>515.1428571428571</ele><time>2026-04-19T10:40:04.001Z</time></trkpt><trkpt lat="43.464423550224424" lon="10.614028382979736"><ele>513.8571428571429</ele><time>2026-04-19T10:40:10.001Z</time></trkpt><trkpt lat="43.46440346113079" lon="10.614132289050149"><ele>512.5714285714287</ele><time>2026-04-19T10:40:14.001Z</time></trkpt><trkpt lat="43.46438843609983" lon="10.614242019594395"><ele>511.28571428571433</ele><time>2026-04-19T10:40:18.001Z</time></trkpt><trkpt lat="43.46437308034658" lon="10.614342096080353"><ele>510.0</ele><time>2026-04-19T10:40:23.001Z</time></trkpt><trkpt lat="43.464352158148465" lon="10.614436166368623"><ele>507.8571428571429</ele><time>2026-04-19T10:40:26.001Z</time></trkpt><trkpt lat="43.464331581681506" lon="10.614545466234446"><ele>505.7142857142858</ele><time>2026-04-19T10:40:30.001Z</time></trkpt><trkpt lat="43.464297167080616" lon="10.614638175150242"><ele>503.57142857142856</ele><time>2026-04-19T10:40:35.001Z</time></trkpt><trkpt lat="43.46426060853033" lon="10.614722685086033"><ele>501.42857142857144</ele><time>2026-04-19T10:40:41.001Z</time></trkpt><trkpt lat="43.46424898192067" lon="10.614811644403677"><ele>499.2857142857143</ele><time>2026-04-19T10:40:48.001Z</time></trkpt><trkpt lat="43.46423143542874" lon="10.614905541241658"><ele>497.1428571428571</ele><time>2026-04-19T10:40:54.001Z</time></trkpt><trkpt lat="43.46421208133658" lon="10.615004803222448"><ele>494.99999999999994</ele><time>2026-04-19T10:41:05.001Z</time></trkpt><trkpt lat="43.464187375224036" lon="10.61508545551005"><ele>494.99999999999994</ele><time>2026-04-19T10:41:12.001Z</time></trkpt><trkpt lat="43.46415900715499" lon="10.615178121698145"><ele>495.0</ele><time>2026-04-19T10:41:21.001Z</time></trkpt><trkpt lat="43.46413476430389" lon="10.615264283212184"><ele>494.99999999999994</ele><time>2026-04-19T10:41:29.001Z</time></trkpt><trkpt lat="43.464107593736976" lon="10.615353036277758"><ele>494.99999999999994</ele><time>2026-04-19T10:41:37.001Z</time></trkpt><trkpt lat="43.464090893672214" lon="10.615444662519907"><ele>495.0</ele><time>2026-04-19T10:41:51.001Z</time></trkpt><trkpt lat="43.464070206683246" lon="10.615536553632458"><ele>494.99999999999994</ele><time>2026-04-19T10:41:57.001Z</time></trkpt><trkpt lat="43.46405862323746" lon="10.615621979154014"><ele>494.99999999999994</ele><time>2026-04-19T10:42:03.001Z</time></trkpt><trkpt lat="43.464062536072404" lon="10.615745262697601"><ele>491.99999999999994</ele><time>2026-04-19T10:42:43Z</time></trkpt><trkpt lat="43.46409554435711" lon="10.615823107299175"><ele>489.0</ele><time>2026-04-19T10:42:54Z</time></trkpt><trkpt lat="43.46412900252351" lon="10.615897314790628"><ele>485.99999999999994</ele><time>2026-04-19T10:43:02Z</time></trkpt><trkpt lat="43.464155182695784" lon="10.61598522598494"><ele>482.99999999999994</ele><time>2026-04-19T10:43:14Z</time></trkpt><trkpt lat="43.46416299711746" lon="10.616073508102208"><ele>480.0</ele><time>2026-04-19T10:43:19Z</time></trkpt><trkpt lat="43.46417321333276" lon="10.616159495431324"><ele>476.99999999999994</ele><time>2026-04-19T10:43:21Z</time></trkpt><trkpt lat="43.46415724291207" lon="10.616274252580364"><ele>473.99999999999994</ele><time>2026-04-19T10:43:24Z</time></trkpt><trkpt lat="43.46414739995405" lon="10.61637262803266"><ele>471.5714285714285</ele><time>2026-04-19T10:43:28Z</time></trkpt><trkpt lat="43.46415139349628" lon="10.616484663553948"><ele>469.1428571428571</ele><time>2026-04-19T10:43:32Z</time></trkpt><trkpt lat="43.464134507003145" lon="10.616578676464309"><ele>466.7142857142857</ele><time>2026-04-19T10:43:48Z</time></trkpt><trkpt lat="43.46411687170338" lon="10.616663599085808"><ele>464.2857142857143</ele><time>2026-04-19T10:43:57Z</time></trkpt><trkpt lat="43.46412350090829" lon="10.616753794623085"><ele>461.8571428571429</ele><time>2026-04-19T10:44:30Z</time></trkpt><trkpt lat="43.46419804757645" lon="10.6167406545429"><ele>459.4285714285715</ele><time>2026-04-19T10:44:34Z</time></trkpt><trkpt lat="43.464242704400704" lon="10.61666900860302"><ele>457.00000000000006</ele><time>2026-04-19T10:44:36Z</time></trkpt><trkpt lat="43.464276745789206" lon="10.61658821100081"><ele>457.00000000000006</ele><time>2026-04-19T10:44:38Z</time></trkpt><trkpt lat="43.464300819911394" lon="10.616493443727277"><ele>457.0</ele><time>2026-04-19T10:44:41Z</time></trkpt><trkpt lat="43.464317670107675" lon="10.616401578264712"><ele>457.0</ele><time>2026-04-19T10:44:44Z</time></trkpt><trkpt lat="43.46433399219393" lon="10.616300036285221"><ele>457.0</ele><time>2026-04-19T10:44:47Z</time></trkpt><trkpt lat="43.46436338929327" lon="10.61620069136094"><ele>457.00000000000006</ele><time>2026-04-19T10:44:50Z</time></trkpt><trkpt lat="43.46440692106002" lon="10.616104832030748"><ele>457.0</ele><time>2026-04-19T10:44:53Z</time></trkpt><trkpt lat="43.46446666156699" lon="10.616020918216222"><ele>455.1666666666667</ele><time>2026-04-19T10:44:56Z</time></trkpt><trkpt lat="43.46451957755928" lon="10.615958228077607"><ele>453.33333333333337</ele><time>2026-04-19T10:44:58Z</time></trkpt><trkpt lat="43.46457287652694" lon="10.615849515447039"><ele>451.5</ele><time>2026-04-19T10:45:01Z</time></trkpt><trkpt lat="43.46461728165864" lon="10.615775549941798"><ele>449.66666666666663</ele><time>2026-04-19T10:45:03Z</time></trkpt><trkpt lat="43.464668615279386" lon="10.615672440112967"><ele>447.8333333333333</ele><time>2026-04-19T10:45:06Z</time></trkpt><trkpt lat="43.464730185671336" lon="10.615562375198108"><ele>446.0</ele><time>2026-04-19T10:45:09Z</time></trkpt><trkpt lat="43.46480369631369" lon="10.61541037483508"><ele>450.20000000000005</ele><time>2026-04-19T10:45:12Z</time></trkpt><trkpt lat="43.4648561544235" lon="10.61530895310328"><ele>454.40000000000003</ele><time>2026-04-19T10:45:14Z</time></trkpt><trkpt lat="43.46491282124085" lon="10.61518742175655"><ele>458.6</ele><time>2026-04-19T10:45:16Z</time></trkpt><trkpt lat="43.46497912504266" lon="10.615078794815826"><ele>462.8</ele><time>2026-04-19T10:45:18Z</time></trkpt><trkpt lat="43.46504029758275" lon="10.614975781792333"><ele>467.0</ele><time>2026-04-19T10:45:20Z</time></trkpt><trkpt lat="43.46510044251593" lon="10.61490549723684"><ele>466.99999999999994</ele><time>2026-04-19T10:45:22Z</time></trkpt><trkpt lat="43.465166866098556" lon="10.614836333848766"><ele>467.0</ele><time>2026-04-19T10:45:24Z</time></trkpt><trkpt lat="43.46522075418907" lon="10.61474531368695"><ele>467.0</ele><time>2026-04-19T10:45:26Z</time></trkpt><trkpt lat="43.46527384173958" lon="10.61465194605365"><ele>467.0</ele><time>2026-04-19T10:45:28Z</time></trkpt><trkpt lat="43.46533295814705" lon="10.614556878139142"><ele>466.99999999999994</ele><time>2026-04-19T10:45:30Z</time></trkpt><trkpt lat="43.46540137871304" lon="10.614461806937536"><ele>467.0</ele><time>2026-04-19T10:45:32Z</time></trkpt><trkpt lat="43.46545012837387" lon="10.614361641182398"><ele>463.8</ele><time>2026-04-19T10:45:34Z</time></trkpt><trkpt lat="43.46550684871789" lon="10.614278018749232"><ele>460.6</ele><time>2026-04-19T10:45:36Z</time></trkpt><trkpt lat="43.46556748472669" lon="10.614196702944936"><ele>457.40000000000003</ele><time>2026-04-19T10:45:38Z</time></trkpt><trkpt lat="43.46563765603151" lon="10.614105784233058"><ele>454.20000000000005</ele><time>2026-04-19T10:45:40Z</time></trkpt><trkpt lat="43.465702124489574" lon="10.614004010305264"><ele>451.0</ele><time>2026-04-19T10:45:42Z</time></trkpt><trkpt lat="43.465757518975046" lon="10.613900220672965"><ele>451.0</ele><time>2026-04-19T10:45:44Z</time></trkpt><trkpt lat="43.46582639778819" lon="10.613793315542647"><ele>451.0</ele><time>2026-04-19T10:45:46Z</time></trkpt><trkpt lat="43.465880968862336" lon="10.613698988122506"><ele>451.0</ele><time>2026-04-19T10:45:48Z</time></trkpt><trkpt lat="43.46593037633424" lon="10.613615885946237"><ele>451.0</ele><time>2026-04-19T10:45:50Z</time></trkpt><trkpt lat="43.46599094994373" lon="10.61349955624118"><ele>451.0</ele><time>2026-04-19T10:45:52Z</time></trkpt><trkpt lat="43.46608909381318" lon="10.613431165748537"><ele>451.00000000000006</ele><time>2026-04-19T10:45:54Z</time></trkpt><trkpt lat="43.466194534340346" lon="10.613490751466955"><ele>451.0</ele><time>2026-04-19T10:45:56Z</time></trkpt><trkpt lat="43.466237624751145" lon="10.613569745372358"><ele>451.0</ele><time>2026-04-19T10:45:57Z</time></trkpt><trkpt lat="43.46623597943528" lon="10.613666115355796"><ele>451.0</ele><time>2026-04-19T10:45:58Z</time></trkpt><trkpt lat="43.466225531196145" lon="10.613758372311354"><ele>451.00000000000006</ele><time>2026-04-19T10:45:59Z</time></trkpt><trkpt lat="43.466196419177514" lon="10.613856128874602"><ele>451.0</ele><time>2026-04-19T10:46:00Z</time></trkpt><trkpt lat="43.466162927035924" lon="10.613986814319805"><ele>451.0</ele><time>2026-04-19T10:46:01Z</time></trkpt><trkpt lat="43.46609789635235" lon="10.61410493358498"><ele>451.0</ele><time>2026-04-19T10:46:02Z</time></trkpt><trkpt lat="43.46603816607895" lon="10.614218726972798"><ele>451.0</ele><time>2026-04-19T10:46:03Z</time></trkpt><trkpt lat="43.46597690475182" lon="10.614337105669923"><ele>451.0</ele><time>2026-04-19T10:46:04Z</time></trkpt><trkpt lat="43.46591925332917" lon="10.614456072149906"><ele>451.0</ele><time>2026-04-19T10:46:05Z</time></trkpt><trkpt lat="43.46586085704269" lon="10.614571750085766"><ele>449.20000000000005</ele><time>2026-04-19T10:46:06Z</time></trkpt><trkpt lat="43.46580950640722" lon="10.614683298163513"><ele>447.40000000000003</ele><time>2026-04-19T10:46:07Z</time></trkpt><trkpt lat="43.465792319799796" lon="10.614820932895363"><ele>445.6</ele><time>2026-04-19T10:46:08Z</time></trkpt><trkpt lat="43.46578659629498" lon="10.614962844707694"><ele>443.8</ele><time>2026-04-19T10:46:09Z</time></trkpt><trkpt lat="43.46579242538834" lon="10.61509264442567"><ele>442.0</ele><time>2026-04-19T10:46:10Z</time></trkpt><trkpt lat="43.465784122217556" lon="10.615212210852816"><ele>441.83333333333337</ele><time>2026-04-19T10:46:11Z</time></trkpt><trkpt lat="43.465751605443515" lon="10.615327292391052"><ele>441.6666666666667</ele><time>2026-04-19T10:46:12Z</time></trkpt><trkpt lat="43.46569990202774" lon="10.61542270672424"><ele>441.5</ele><time>2026-04-19T10:46:13Z</time></trkpt><trkpt lat="43.46561938187897" lon="10.615484731315883"><ele>441.33333333333337</ele><time>2026-04-19T10:46:14Z</time></trkpt><trkpt lat="43.46557061233062" lon="10.615570799725235"><ele>441.1666666666667</ele><time>2026-04-19T10:46:15Z</time></trkpt><trkpt lat="43.46555672409749" lon="10.615664448423514"><ele>441.0</ele><time>2026-04-19T10:46:16Z</time></trkpt><trkpt lat="43.465547765906365" lon="10.61584027813628"><ele>441.0</ele><time>2026-04-19T10:46:18Z</time></trkpt><trkpt lat="43.465570701341505" lon="10.615938585446582"><ele>441.0</ele><time>2026-04-19T10:46:19Z</time></trkpt><trkpt lat="43.4656038285183" lon="10.616038782224487"><ele>441.0</ele><time>2026-04-19T10:46:20Z</time></trkpt><trkpt lat="43.4656327545408" lon="10.61614334808343"><ele>441.0</ele><time>2026-04-19T10:46:21Z</time></trkpt><trkpt lat="43.46565043155805" lon="10.61626329248283"><ele>441.0</ele><time>2026-04-19T10:46:22Z</time></trkpt><trkpt lat="43.46567988641862" lon="10.616383880381067"><ele>441.0</ele><time>2026-04-19T10:46:23Z</time></trkpt><trkpt lat="43.46572705070256" lon="10.616505114478338"><ele>439.20000000000005</ele><time>2026-04-19T10:46:24Z</time></trkpt><trkpt lat="43.465752900172994" lon="10.616629997817912"><ele>437.40000000000003</ele><time>2026-04-19T10:46:25Z</time></trkpt><trkpt lat="43.46577696123979" lon="10.616748804701855"><ele>435.6</ele><time>2026-04-19T10:46:26Z</time></trkpt><trkpt lat="43.46581119316843" lon="10.61686547725233"><ele>433.8</ele><time>2026-04-19T10:46:27Z</time></trkpt><trkpt lat="43.46585035246889" lon="10.616978988853667"><ele>432.0</ele><time>2026-04-19T10:46:28Z</time></trkpt><trkpt lat="43.465890531883154" lon="10.617093662167827"><ele>428.40000000000003</ele><time>2026-04-19T10:46:29Z</time></trkpt><trkpt lat="43.4659358119518" lon="10.617206014085669"><ele>424.80000000000007</ele><time>2026-04-19T10:46:30Z</time></trkpt><trkpt lat="43.46598244883408" lon="10.617320570792815"><ele>421.2</ele><time>2026-04-19T10:46:31Z</time></trkpt><trkpt lat="43.466033042126256" lon="10.61742605574285"><ele>417.6</ele><time>2026-04-19T10:46:32Z</time></trkpt><trkpt lat="43.46607441526338" lon="10.617537651453961"><ele>414.0</ele><time>2026-04-19T10:46:33Z</time></trkpt><trkpt lat="43.466103367796876" lon="10.61766302551619"><ele>414.0</ele><time>2026-04-19T10:46:34Z</time></trkpt><trkpt lat="43.46614112330923" lon="10.617781333512166"><ele>414.0</ele><time>2026-04-19T10:46:35Z</time></trkpt><trkpt lat="43.46619105453726" lon="10.617893698229098"><ele>414.0</ele><time>2026-04-19T10:46:36Z</time></trkpt><trkpt lat="43.466246244654066" lon="10.617988968777745"><ele>414.0</ele><time>2026-04-19T10:46:37Z</time></trkpt><trkpt lat="43.4663066443205" lon="10.618085219793153"><ele>414.0</ele><time>2026-04-19T10:46:38Z</time></trkpt><trkpt lat="43.4663567961821" lon="10.61819008181132"><ele>413.6666666666667</ele><time>2026-04-19T10:46:39Z</time></trkpt><trkpt lat="43.4664023098196" lon="10.61829568068046"><ele>413.33333333333337</ele><time>2026-04-19T10:46:40Z</time></trkpt><trkpt lat="43.46645131237102" lon="10.618381456628889"><ele>413.0</ele><time>2026-04-19T10:46:41Z</time></trkpt><trkpt lat="43.46650422669401" lon="10.618451173699974"><ele>412.6666666666667</ele><time>2026-04-19T10:46:42Z</time></trkpt><trkpt lat="43.46656101487819" lon="10.618528051356497"><ele>412.33333333333337</ele><time>2026-04-19T10:46:43Z</time></trkpt><trkpt lat="43.46661078790557" lon="10.618617331860102"><ele>412.0</ele><time>2026-04-19T10:46:44Z</time></trkpt><trkpt lat="43.46662225489561" lon="10.618723019543474"><ele>411.99999999999994</ele><time>2026-04-19T10:46:45Z</time></trkpt><trkpt lat="43.46662640364853" lon="10.618818020812673"><ele>412.0</ele><time>2026-04-19T10:46:46Z</time></trkpt><trkpt lat="43.46662159754333" lon="10.618923151811542"><ele>412.0</ele><time>2026-04-19T10:46:47Z</time></trkpt><trkpt lat="43.46663936760466" lon="10.619027627485737"><ele>412.0</ele><time>2026-04-19T10:46:48Z</time></trkpt><trkpt lat="43.46664401630074" lon="10.619129155748784"><ele>412.0</ele><time>2026-04-19T10:46:49Z</time></trkpt><trkpt lat="43.466654440060296" lon="10.619232277115328"><ele>411.99999999999994</ele><time>2026-04-19T10:46:50Z</time></trkpt><trkpt lat="43.466663799450046" lon="10.61933621434636"><ele>412.0</ele><time>2026-04-19T10:46:51Z</time></trkpt><trkpt lat="43.46667284595413" lon="10.61943718555109"><ele>411.1428571428571</ele><time>2026-04-19T10:46:52Z</time></trkpt><trkpt lat="43.466682684931016" lon="10.61952961848013"><ele>410.2857142857143</ele><time>2026-04-19T10:46:53Z</time></trkpt><trkpt lat="43.46667844659967" lon="10.6196194800288"><ele>409.42857142857144</ele><time>2026-04-19T10:46:54Z</time></trkpt><trkpt lat="43.46667183587746" lon="10.61970668992254"><ele>408.57142857142856</ele><time>2026-04-19T10:46:55Z</time></trkpt><trkpt lat="43.46666470353037" lon="10.619793431016353"><ele>407.7142857142857</ele><time>2026-04-19T10:46:56Z</time></trkpt><trkpt lat="43.46664356589847" lon="10.619954435121484"><ele>406.85714285714283</ele><time>2026-04-19T10:46:58Z</time></trkpt><trkpt lat="43.466629834158844" lon="10.620039196072684"><ele>406.0</ele><time>2026-04-19T10:46:59Z</time></trkpt><trkpt lat="43.46662062460768" lon="10.620127394365825"><ele>406.0</ele><time>2026-04-19T10:47:00Z</time></trkpt><trkpt lat="43.466611861896034" lon="10.620290471813027"><ele>406.0</ele><time>2026-04-19T10:47:02Z</time></trkpt><trkpt lat="43.46664034522219" lon="10.620439067069062"><ele>406.0</ele><time>2026-04-19T10:47:04Z</time></trkpt><trkpt lat="43.46671847953269" lon="10.620558352081877"><ele>406.0</ele><time>2026-04-19T10:47:06Z</time></trkpt><trkpt lat="43.46680450837381" lon="10.62068256847424"><ele>405.4</ele><time>2026-04-19T10:47:08Z</time></trkpt><trkpt lat="43.466852298398706" lon="10.620824950753304"><ele>404.8</ele><time>2026-04-19T10:47:10Z</time></trkpt><trkpt lat="43.46687304007193" lon="10.620961049701705"><ele>404.2</ele><time>2026-04-19T10:47:12Z</time></trkpt><trkpt lat="43.46686400572604" lon="10.62104826130157"><ele>403.59999999999997</ele><time>2026-04-19T10:47:13Z</time></trkpt><trkpt lat="43.46679467416434" lon="10.62115872198792"><ele>403.0</ele><time>2026-04-19T10:47:15Z</time></trkpt><trkpt lat="43.46671033254307" lon="10.621258093581535"><ele>403.0</ele><time>2026-04-19T10:47:17Z</time></trkpt><trkpt lat="43.466617363805746" lon="10.621389598877878"><ele>403.0</ele><time>2026-04-19T10:47:19Z</time></trkpt><trkpt lat="43.466529263305226" lon="10.62151888695573"><ele>403.0</ele><time>2026-04-19T10:47:21Z</time></trkpt><trkpt lat="43.46650545923187" lon="10.621618985222224"><ele>403.0</ele><time>2026-04-19T10:47:22Z</time></trkpt><trkpt lat="43.466484841572644" lon="10.621716477865093"><ele>403.0</ele><time>2026-04-19T10:47:23Z</time></trkpt><trkpt lat="43.4664682884985" lon="10.621808359154818"><ele>403.00000000000006</ele><time>2026-04-19T10:47:24Z</time></trkpt><trkpt lat="43.46645010390234" lon="10.62191051350351"><ele>403.0</ele><time>2026-04-19T10:47:25Z</time></trkpt><trkpt lat="43.46643574005223" lon="10.622020980451953"><ele>403.0</ele><time>2026-04-19T10:47:26Z</time></trkpt><trkpt lat="43.46642765664014" lon="10.622129366235098"><ele>403.0</ele><time>2026-04-19T10:47:27Z</time></trkpt><trkpt lat="43.46643608468086" lon="10.622240205175073"><ele>403.00000000000006</ele><time>2026-04-19T10:47:28Z</time></trkpt><trkpt lat="43.46645236661369" lon="10.622345112283544"><ele>403.0</ele><time>2026-04-19T10:47:29Z</time></trkpt><trkpt lat="43.46642401857205" lon="10.622432368132342"><ele>402.5714285714286</ele><time>2026-04-19T10:47:30Z</time></trkpt><trkpt lat="43.466406043190396" lon="10.622520751127885"><ele>402.1428571428571</ele><time>2026-04-19T10:47:31Z</time></trkpt><trkpt lat="43.466391391043445" lon="10.622615053984058"><ele>401.7142857142857</ele><time>2026-04-19T10:47:32Z</time></trkpt><trkpt lat="43.466333658496914" lon="10.622693759413444"><ele>401.28571428571433</ele><time>2026-04-19T10:47:33Z</time></trkpt><trkpt lat="43.46627862522933" lon="10.622759256898963"><ele>400.8571428571429</ele><time>2026-04-19T10:47:34Z</time></trkpt><trkpt lat="43.46621711521212" lon="10.622822731182941"><ele>400.42857142857144</ele><time>2026-04-19T10:47:35Z</time></trkpt><trkpt lat="43.466141259635734" lon="10.622839512283056"><ele>400.0</ele><time>2026-04-19T10:47:36Z</time></trkpt><trkpt lat="43.466072112547046" lon="10.622874302195624"><ele>400.00000000000006</ele><time>2026-04-19T10:47:37Z</time></trkpt><trkpt lat="43.46600416698145" lon="10.622902247298105"><ele>400.0</ele><time>2026-04-19T10:47:38Z</time></trkpt><trkpt lat="43.465879772102646" lon="10.622922018158704"><ele>400.0</ele><time>2026-04-19T10:47:40Z</time></trkpt><trkpt lat="43.465806945723884" lon="10.62293297033511"><ele>400.0</ele><time>2026-04-19T10:47:41Z</time></trkpt><trkpt lat="43.46573561874773" lon="10.622964234040591"><ele>400.00000000000006</ele><time>2026-04-19T10:47:42Z</time></trkpt><trkpt lat="43.465669323291394" lon="10.6230139912263"><ele>400.0</ele><time>2026-04-19T10:47:43Z</time></trkpt><trkpt lat="43.46561836864443" lon="10.623107318052648"><ele>400.00000000000006</ele><time>2026-04-19T10:47:44Z</time></trkpt><trkpt lat="43.46557982707636" lon="10.623193734510494"><ele>400.0</ele><time>2026-04-19T10:47:45Z</time></trkpt><trkpt lat="43.46554429394623" lon="10.62327492314771"><ele>400.0</ele><time>2026-04-19T10:47:46Z</time></trkpt><trkpt lat="43.46550849243149" lon="10.623355217729104"><ele>400.0</ele><time>2026-04-19T10:47:47Z</time></trkpt><trkpt lat="43.4654695501621" lon="10.623439622639223"><ele>400.0</ele><time>2026-04-19T10:47:48Z</time></trkpt><trkpt lat="43.465428171433324" lon="10.623529863860542"><ele>400.00000000000006</ele><time>2026-04-19T10:47:49Z</time></trkpt><trkpt lat="43.465390060187644" lon="10.62361568230912"><ele>400.0</ele><time>2026-04-19T10:47:50Z</time></trkpt><trkpt lat="43.46536380394317" lon="10.623707220086928"><ele>396.8</ele><time>2026-04-19T10:47:51Z</time></trkpt><trkpt lat="43.46531911240853" lon="10.623777130907703"><ele>393.6</ele><time>2026-04-19T10:47:52Z</time></trkpt><trkpt lat="43.46524856988266" lon="10.62390485841784"><ele>390.4</ele><time>2026-04-19T10:47:54Z</time></trkpt><trkpt lat="43.465212832268506" lon="10.62405685194172"><ele>387.2</ele><time>2026-04-19T10:47:56Z</time></trkpt><trkpt lat="43.46516721508249" lon="10.624199027991345"><ele>384.0</ele><time>2026-04-19T10:47:58Z</time></trkpt><trkpt lat="43.46513750533838" lon="10.624277136869537"><ele>384.0</ele><time>2026-04-19T10:47:59Z</time></trkpt><trkpt lat="43.465100023279355" lon="10.62435104328392"><ele>384.0</ele><time>2026-04-19T10:48:00Z</time></trkpt><trkpt lat="43.46502259452409" lon="10.624479467210708"><ele>384.0</ele><time>2026-04-19T10:48:02Z</time></trkpt><trkpt lat="43.464973343616116" lon="10.624546646398521"><ele>384.0</ele><time>2026-04-19T10:48:03Z</time></trkpt><trkpt lat="43.46492271243685" lon="10.624610817697459"><ele>384.0</ele><time>2026-04-19T10:48:04Z</time></trkpt><trkpt lat="43.46487533246979" lon="10.624672724476886"><ele>384.0</ele><time>2026-04-19T10:48:05Z</time></trkpt><trkpt lat="43.464830127371584" lon="10.624740033142558"><ele>386.1666666666667</ele><time>2026-04-19T10:48:06Z</time></trkpt><trkpt lat="43.46478950058486" lon="10.624814579036508"><ele>388.33333333333337</ele><time>2026-04-19T10:48:07Z</time></trkpt><trkpt lat="43.46475172544371" lon="10.624884321076994"><ele>390.5</ele><time>2026-04-19T10:48:08Z</time></trkpt><trkpt lat="43.46472891136252" lon="10.624965937435046"><ele>392.6666666666667</ele><time>2026-04-19T10:48:09Z</time></trkpt><trkpt lat="43.46472735894114" lon="10.625127933327976"><ele>394.83333333333337</ele><time>2026-04-19T10:48:11Z</time></trkpt><trkpt lat="43.464745796730995" lon="10.625281853898198"><ele>397.0</ele><time>2026-04-19T10:48:13Z</time></trkpt><trkpt lat="43.46472001744928" lon="10.625454815844915"><ele>398.00000000000006</ele><time>2026-04-19T10:48:15Z</time></trkpt><trkpt lat="43.46467842614084" lon="10.62553623335693"><ele>399.0</ele><time>2026-04-19T10:48:16Z</time></trkpt><trkpt lat="43.464626003794606" lon="10.625619406633577"><ele>400.0</ele><time>2026-04-19T10:48:17Z</time></trkpt><trkpt lat="43.46456942277721" lon="10.625705229444089"><ele>401.0</ele><time>2026-04-19T10:48:18Z</time></trkpt><trkpt lat="43.46451398042035" lon="10.625798345256085"><ele>402.00000000000006</ele><time>2026-04-19T10:48:19Z</time></trkpt><trkpt lat="43.46446195505135" lon="10.625898175779499"><ele>403.0</ele><time>2026-04-19T10:48:20Z</time></trkpt><trkpt lat="43.4644225575693" lon="10.626010453111036"><ele>396.83333333333337</ele><time>2026-04-19T10:48:21Z</time></trkpt><trkpt lat="43.464401084482915" lon="10.626128734792346"><ele>390.6666666666667</ele><time>2026-04-19T10:48:22Z</time></trkpt><trkpt lat="43.46439774880999" lon="10.626247532435482"><ele>384.5</ele><time>2026-04-19T10:48:23Z</time></trkpt><trkpt lat="43.46440796885145" lon="10.62636682237589"><ele>378.33333333333337</ele><time>2026-04-19T10:48:24Z</time></trkpt><trkpt lat="43.46441382997927" lon="10.6264870206175"><ele>372.1666666666667</ele><time>2026-04-19T10:48:25Z</time></trkpt><trkpt lat="43.4644354451324" lon="10.626603446385216"><ele>366.0</ele><time>2026-04-19T10:48:26Z</time></trkpt><trkpt lat="43.464480785889045" lon="10.626707075242447"><ele>365.3333333333333</ele><time>2026-04-19T10:48:27Z</time></trkpt><trkpt lat="43.46453882023351" lon="10.626787676384655"><ele>364.6666666666667</ele><time>2026-04-19T10:48:28Z</time></trkpt><trkpt lat="43.46459180793792" lon="10.626847336536736"><ele>364.0</ele><time>2026-04-19T10:48:29Z</time></trkpt><trkpt lat="43.464694826271725" lon="10.626947621437722"><ele>363.33333333333337</ele><time>2026-04-19T10:48:31Z</time></trkpt><trkpt lat="43.464754410241696" lon="10.626982037890013"><ele>362.6666666666667</ele><time>2026-04-19T10:48:32Z</time></trkpt><trkpt lat="43.46481710560015" lon="10.627006111515717"><ele>362.0</ele><time>2026-04-19T10:48:33Z</time></trkpt><trkpt lat="43.46488300604199" lon="10.627021521387409"><ele>363.8</ele><time>2026-04-19T10:48:34Z</time></trkpt><trkpt lat="43.4649499189486" lon="10.627034791146437"><ele>365.6</ele><time>2026-04-19T10:48:35Z</time></trkpt><trkpt lat="43.465012614293954" lon="10.627046654526577"><ele>367.40000000000003</ele><time>2026-04-19T10:48:36Z</time></trkpt><trkpt lat="43.465119838238294" lon="10.627086603689273"><ele>369.20000000000005</ele><time>2026-04-19T10:48:37.999Z</time></trkpt><trkpt lat="43.4652324939662" lon="10.627110885305592"><ele>371.0</ele><time>2026-04-19T10:48:39.999Z</time></trkpt><trkpt lat="43.46534268279746" lon="10.627131958940751"><ele>371.0</ele><time>2026-04-19T10:48:41.999Z</time></trkpt><trkpt lat="43.46545796709784" lon="10.627187123236068"><ele>371.0</ele><time>2026-04-19T10:48:43.999Z</time></trkpt><trkpt lat="43.465517615270684" lon="10.627309090069842"><ele>371.0</ele><time>2026-04-19T10:48:45.999Z</time></trkpt><trkpt lat="43.46548273237233" lon="10.627464102873082"><ele>371.0</ele><time>2026-04-19T10:48:47.999Z</time></trkpt><trkpt lat="43.465437698993476" lon="10.627529524960318"><ele>371.0</ele><time>2026-04-19T10:48:48.999Z</time></trkpt><trkpt lat="43.46538472805697" lon="10.627590061235718"><ele>371.0</ele><time>2026-04-19T10:48:49.999Z</time></trkpt><trkpt lat="43.465334066616656" lon="10.627653420734035"><ele>371.0</ele><time>2026-04-19T10:48:50.999Z</time></trkpt><trkpt lat="43.465286654276674" lon="10.627723177755952"><ele>371.0</ele><time>2026-04-19T10:48:51.999Z</time></trkpt><trkpt lat="43.465241096085386" lon="10.6278001007451"><ele>371.0</ele><time>2026-04-19T10:48:52.999Z</time></trkpt><trkpt lat="43.4651943057437" lon="10.62788386882267"><ele>371.0</ele><time>2026-04-19T10:48:53.999Z</time></trkpt><trkpt lat="43.46515483224278" lon="10.627968481465418"><ele>371.0</ele><time>2026-04-19T10:48:54.999Z</time></trkpt><trkpt lat="43.46509243041124" lon="10.628102481935116"><ele>370.20000000000005</ele><time>2026-04-19T10:48:57Z</time></trkpt><trkpt lat="43.465037030155386" lon="10.62821294633076"><ele>369.40000000000003</ele><time>2026-04-19T10:48:59Z</time></trkpt><trkpt lat="43.465024247218174" lon="10.62834560937071"><ele>368.6</ele><time>2026-04-19T10:49:01Z</time></trkpt><trkpt lat="43.46506946468015" lon="10.62850400415601"><ele>367.8</ele><time>2026-04-19T10:49:03Z</time></trkpt><trkpt lat="43.465107091763706" lon="10.628579523410249"><ele>367.0</ele><time>2026-04-19T10:49:04Z</time></trkpt><trkpt lat="43.46514918565362" lon="10.628654637718391"><ele>365.85714285714283</ele><time>2026-04-19T10:49:05Z</time></trkpt><trkpt lat="43.465195254997575" lon="10.62873318477243"><ele>364.7142857142857</ele><time>2026-04-19T10:49:06Z</time></trkpt><trkpt lat="43.46524148979424" lon="10.628811821484586"><ele>363.57142857142856</ele><time>2026-04-19T10:49:07Z</time></trkpt><trkpt lat="43.46528701383234" lon="10.628891098283145"><ele>362.42857142857144</ele><time>2026-04-19T10:49:08Z</time></trkpt><trkpt lat="43.46533518262773" lon="10.628965482112989"><ele>361.28571428571433</ele><time>2026-04-19T10:49:09Z</time></trkpt><trkpt lat="43.465390874913155" lon="10.629030396030272"><ele>360.14285714285717</ele><time>2026-04-19T10:49:10Z</time></trkpt><trkpt lat="43.4654505937511" lon="10.62908675887368"><ele>359.0</ele><time>2026-04-19T10:49:11Z</time></trkpt><trkpt lat="43.465511715106324" lon="10.629134033019072"><ele>360.0</ele><time>2026-04-19T10:49:12Z</time></trkpt><trkpt lat="43.465571925197665" lon="10.62918289261309"><ele>361.0</ele><time>2026-04-19T10:49:13Z</time></trkpt><trkpt lat="43.46562832207036" lon="10.629237856814246"><ele>362.0</ele><time>2026-04-19T10:49:14Z</time></trkpt><trkpt lat="43.46567856754512" lon="10.62930371655343"><ele>363.0</ele><time>2026-04-19T10:49:15Z</time></trkpt><trkpt lat="43.4657246098165" lon="10.629370407050443"><ele>364.0</ele><time>2026-04-19T10:49:16Z</time></trkpt><trkpt lat="43.465795351388905" lon="10.629497162575207"><ele>365.0</ele><time>2026-04-19T10:49:18Z</time></trkpt><trkpt lat="43.46586892420694" lon="10.629612060087387"><ele>365.0</ele><time>2026-04-19T10:49:20Z</time></trkpt><trkpt lat="43.465939386488614" lon="10.629725511897913"><ele>365.0</ele><time>2026-04-19T10:49:22Z</time></trkpt><trkpt lat="43.466008146539714" lon="10.629856962585484"><ele>365.0</ele><time>2026-04-19T10:49:24Z</time></trkpt><trkpt lat="43.466034637939245" lon="10.629938044081843"><ele>365.0</ele><time>2026-04-19T10:49:25Z</time></trkpt><trkpt lat="43.46604625965825" lon="10.630031815314933"><ele>365.0</ele><time>2026-04-19T10:49:26Z</time></trkpt><trkpt lat="43.466046546730176" lon="10.630128022154194"><ele>365.0</ele><time>2026-04-19T10:49:27Z</time></trkpt><trkpt lat="43.46603692971351" lon="10.630222902512266"><ele>364.6</ele><time>2026-04-19T10:49:28Z</time></trkpt><trkpt lat="43.46602000930408" lon="10.630443804764496"><ele>364.2</ele><time>2026-04-19T10:49:31Z</time></trkpt><trkpt lat="43.46603439553432" lon="10.6305485166867"><ele>363.79999999999995</ele><time>2026-04-19T10:49:33Z</time></trkpt><trkpt lat="43.466049115001915" lon="10.630642027639409"><ele>363.4</ele><time>2026-04-19T10:49:35Z</time></trkpt><trkpt lat="43.46607781450037" lon="10.630739025943491"><ele>363.0</ele><time>2026-04-19T10:49:38Z</time></trkpt><trkpt lat="43.46616544159807" lon="10.630865577750335"><ele>363.0</ele><time>2026-04-19T10:49:40Z</time></trkpt><trkpt lat="43.46623235060492" lon="10.63092213949215"><ele>363.0</ele><time>2026-04-19T10:49:41Z</time></trkpt><trkpt lat="43.46631598120289" lon="10.630967694077105"><ele>363.0</ele><time>2026-04-19T10:49:42Z</time></trkpt><trkpt lat="43.466419694504125" lon="10.630979705408857"><ele>363.0</ele><time>2026-04-19T10:49:43Z</time></trkpt><trkpt lat="43.466533352214384" lon="10.630956712002465"><ele>363.0</ele><time>2026-04-19T10:49:44Z</time></trkpt><trkpt lat="43.46665027742211" lon="10.63091168705553"><ele>363.25</ele><time>2026-04-19T10:49:45Z</time></trkpt><trkpt lat="43.46676960621141" lon="10.630857606606769"><ele>363.5</ele><time>2026-04-19T10:49:46Z</time></trkpt><trkpt lat="43.46689118799411" lon="10.630812071243165"><ele>363.75</ele><time>2026-04-19T10:49:47Z</time></trkpt><trkpt lat="43.467012671538605" lon="10.63078667747092"><ele>364.0</ele><time>2026-04-19T10:49:48Z</time></trkpt><trkpt lat="43.46713200615881" lon="10.630796994467142"><ele>364.25</ele><time>2026-04-19T10:49:49Z</time></trkpt><trkpt lat="43.467246835694304" lon="10.630837988749494"><ele>364.5</ele><time>2026-04-19T10:49:50Z</time></trkpt><trkpt lat="43.46735724928142" lon="10.630900352686625"><ele>364.75</ele><time>2026-04-19T10:49:51Z</time></trkpt><trkpt lat="43.467465566783034" lon="10.630960914231794"><ele>365.0</ele><time>2026-04-19T10:49:52Z</time></trkpt><trkpt lat="43.467576182199174" lon="10.631007095765023"><ele>365.0</ele><time>2026-04-19T10:49:53Z</time></trkpt><trkpt lat="43.46768721235202" lon="10.631052483886227"><ele>365.0</ele><time>2026-04-19T10:49:54Z</time></trkpt><trkpt lat="43.46779152633636" lon="10.631101095363217"><ele>365.0</ele><time>2026-04-19T10:49:55Z</time></trkpt><trkpt lat="43.46788928768726" lon="10.631156282382106"><ele>365.0</ele><time>2026-04-19T10:49:56Z</time></trkpt><trkpt lat="43.46797741402052" lon="10.631215157486531"><ele>365.0</ele><time>2026-04-19T10:49:57Z</time></trkpt><trkpt lat="43.468059607209184" lon="10.631267687689103"><ele>364.8</ele><time>2026-04-19T10:49:58Z</time></trkpt><trkpt lat="43.46814593307552" lon="10.631293372759876"><ele>364.6</ele><time>2026-04-19T10:49:59Z</time></trkpt><trkpt lat="43.46823410732728" lon="10.631284844509409"><ele>364.4</ele><time>2026-04-19T10:50:00Z</time></trkpt><trkpt lat="43.46831619281967" lon="10.631228449932287"><ele>364.2</ele><time>2026-04-19T10:50:01Z</time></trkpt><trkpt lat="43.4683850971969" lon="10.631134732569956"><ele>364.0</ele><time>2026-04-19T10:50:02Z</time></trkpt><trkpt lat="43.46843550687429" lon="10.631012833873505"><ele>364.0</ele><time>2026-04-19T10:50:03Z</time></trkpt><trkpt lat="43.468469535117" lon="10.630871786982802"><ele>364.0</ele><time>2026-04-19T10:50:04Z</time></trkpt><trkpt lat="43.46849540570647" lon="10.630721000764385"><ele>364.0</ele><time>2026-04-19T10:50:05Z</time></trkpt><trkpt lat="43.4685240847175" lon="10.630564949900775"><ele>364.0</ele><time>2026-04-19T10:50:06Z</time></trkpt><trkpt lat="43.468574704448514" lon="10.630410588645388"><ele>362.75</ele><time>2026-04-19T10:50:07Z</time></trkpt><trkpt lat="43.468605704832314" lon="10.630246792794171"><ele>361.5</ele><time>2026-04-19T10:50:08Z</time></trkpt><trkpt lat="43.468670291277434" lon="10.630109327201144"><ele>360.25</ele><time>2026-04-19T10:50:09Z</time></trkpt><trkpt lat="43.46875611072801" lon="10.629993456508876"><ele>359.0</ele><time>2026-04-19T10:50:10Z</time></trkpt><trkpt lat="43.468851464200014" lon="10.629901060839279"><ele>359.0</ele><time>2026-04-19T10:50:11Z</time></trkpt><trkpt lat="43.46895403801244" lon="10.629829092015944"><ele>359.0</ele><time>2026-04-19T10:50:12Z</time></trkpt><trkpt lat="43.46905028488838" lon="10.629744363049323"><ele>359.0</ele><time>2026-04-19T10:50:13Z</time></trkpt><trkpt lat="43.469146082016515" lon="10.62967371601469"><ele>359.0</ele><time>2026-04-19T10:50:14Z</time></trkpt><trkpt lat="43.469224755652405" lon="10.629594912476692"><ele>359.0</ele><time>2026-04-19T10:50:15Z</time></trkpt><trkpt lat="43.46930572164712" lon="10.629550076888979"><ele>359.0</ele><time>2026-04-19T10:50:16Z</time></trkpt><trkpt lat="43.469392457607064" lon="10.629573943264699"><ele>359.0</ele><time>2026-04-19T10:50:17Z</time></trkpt><trkpt lat="43.46945121275002" lon="10.629626339399247"><ele>359.0</ele><time>2026-04-19T10:50:18Z</time></trkpt><trkpt lat="43.46947943498843" lon="10.629711532646414"><ele>359.0</ele><time>2026-04-19T10:50:19Z</time></trkpt><trkpt lat="43.46947246690762" lon="10.629821691238767"><ele>359.0</ele><time>2026-04-19T10:50:20Z</time></trkpt><trkpt lat="43.469455466552546" lon="10.62993588236396"><ele>359.0</ele><time>2026-04-19T10:50:21Z</time></trkpt><trkpt lat="43.4694179960741" lon="10.630060092094569"><ele>359.0</ele><time>2026-04-19T10:50:22Z</time></trkpt><trkpt lat="43.469358161446344" lon="10.63017706488369"><ele>359.0</ele><time>2026-04-19T10:50:23Z</time></trkpt><trkpt lat="43.4692848398265" lon="10.630280888124108"><ele>359.0</ele><time>2026-04-19T10:50:24Z</time></trkpt><trkpt lat="43.469219231730335" lon="10.630353505888278"><ele>359.0</ele><time>2026-04-19T10:50:25Z</time></trkpt><trkpt lat="43.46917956006603" lon="10.630433396903134"><ele>359.0</ele><time>2026-04-19T10:50:26Z</time></trkpt><trkpt lat="43.469166437650365" lon="10.630525235572907"><ele>359.0</ele><time>2026-04-19T10:50:27Z</time></trkpt><trkpt lat="43.469168996643916" lon="10.630624418402167"><ele>357.0</ele><time>2026-04-19T10:50:28Z</time></trkpt><trkpt lat="43.46918969664406" lon="10.630731610501053"><ele>355.0</ele><time>2026-04-19T10:50:29Z</time></trkpt><trkpt lat="43.46922512444717" lon="10.630843591376381"><ele>353.0</ele><time>2026-04-19T10:50:30Z</time></trkpt><trkpt lat="43.46926665391535" lon="10.630963583053882"><ele>351.0</ele><time>2026-04-19T10:50:31Z</time></trkpt><trkpt lat="43.46930951674662" lon="10.631090744799272"><ele>349.0</ele><time>2026-04-19T10:50:32Z</time></trkpt><trkpt lat="43.469348840161935" lon="10.631229463037489"><ele>347.0</ele><time>2026-04-19T10:50:33Z</time></trkpt><trkpt lat="43.469370270528636" lon="10.63137964963503"><ele>345.0</ele><time>2026-04-19T10:50:34Z</time></trkpt><trkpt lat="43.46936227489777" lon="10.631526714306945"><ele>343.0</ele><time>2026-04-19T10:50:35Z</time></trkpt><trkpt lat="43.469354520883186" lon="10.63165737384215"><ele>341.0</ele><time>2026-04-19T10:50:36Z</time></trkpt><trkpt lat="43.469378503460206" lon="10.63177597474943"><ele>339.0</ele><time>2026-04-19T10:50:37Z</time></trkpt><trkpt lat="43.469442670736996" lon="10.631859454046632"><ele>339.0</ele><time>2026-04-19T10:50:38Z</time></trkpt><trkpt lat="43.469524495072704" lon="10.631909507931049"><ele>339.0</ele><time>2026-04-19T10:50:39Z</time></trkpt><trkpt lat="43.46961507429478" lon="10.631933707075973"><ele>339.0</ele><time>2026-04-19T10:50:40Z</time></trkpt><trkpt lat="43.46970731180372" lon="10.631956234565632"><ele>339.0</ele><time>2026-04-19T10:50:41Z</time></trkpt><trkpt lat="43.46980278487549" lon="10.63198926650554"><ele>339.0</ele><time>2026-04-19T10:50:42Z</time></trkpt><trkpt lat="43.46989614113899" lon="10.632052004683326"><ele>342.0</ele><time>2026-04-19T10:50:43Z</time></trkpt><trkpt lat="43.469985555200466" lon="10.632138143278135"><ele>345.0</ele><time>2026-04-19T10:50:43.999Z</time></trkpt><trkpt lat="43.47006770597269" lon="10.632248254799515"><ele>348.0</ele><time>2026-04-19T10:50:44.999Z</time></trkpt><trkpt lat="43.470148621112074" lon="10.632368959654732"><ele>351.0</ele><time>2026-04-19T10:50:45.999Z</time></trkpt><trkpt lat="43.47023532378725" lon="10.632494661496985"><ele>351.0</ele><time>2026-04-19T10:50:46.999Z</time></trkpt><trkpt lat="43.470328290076885" lon="10.632618756658843"><ele>351.0</ele><time>2026-04-19T10:50:47.999Z</time></trkpt><trkpt lat="43.470426550098225" lon="10.63274664001912"><ele>351.0</ele><time>2026-04-19T10:50:48.999Z</time></trkpt><trkpt lat="43.470532202501396" lon="10.632874405333997"><ele>351.0</ele><time>2026-04-19T10:50:49.999Z</time></trkpt><trkpt lat="43.47063928646808" lon="10.633008982929413"><ele>351.25</ele><time>2026-04-19T10:50:50.999Z</time></trkpt><trkpt lat="43.47073032866835" lon="10.633171248023"><ele>351.5</ele><time>2026-04-19T10:50:51.999Z</time></trkpt><trkpt lat="43.470804553846705" lon="10.633352042548669"><ele>351.75</ele><time>2026-04-19T10:50:52.999Z</time></trkpt><trkpt lat="43.470867655665664" lon="10.633534260022433"><ele>352.0</ele><time>2026-04-19T10:50:53.999Z</time></trkpt><trkpt lat="43.47093319417235" lon="10.633702897659905"><ele>352.0</ele><time>2026-04-19T10:50:54.999Z</time></trkpt><trkpt lat="43.47099503989306" lon="10.633867091796857"><ele>352.0</ele><time>2026-04-19T10:50:55.999Z</time></trkpt><trkpt lat="43.47105617015744" lon="10.63403302434337"><ele>352.0</ele><time>2026-04-19T10:50:56.999Z</time></trkpt><trkpt lat="43.47111909994845" lon="10.634194949788917"><ele>352.0</ele><time>2026-04-19T10:50:57.999Z</time></trkpt><trkpt lat="43.47118125103002" lon="10.634355861786052"><ele>351.5</ele><time>2026-04-19T10:50:58.999Z</time></trkpt><trkpt lat="43.471239495422715" lon="10.63450976108625"><ele>351.0</ele><time>2026-04-19T10:50:59.999Z</time></trkpt><trkpt lat="43.471291875831554" lon="10.634653217033682"><ele>350.5</ele><time>2026-04-19T10:51:00.999Z</time></trkpt><trkpt lat="43.47134679389708" lon="10.634791760748621"><ele>350.0</ele><time>2026-04-19T10:51:01.999Z</time></trkpt><trkpt lat="43.471398088754846" lon="10.63492487768078"><ele>352.0</ele><time>2026-04-19T10:51:02.999Z</time></trkpt><trkpt lat="43.47144818981969" lon="10.635048617580813"><ele>354.0</ele><time>2026-04-19T10:51:03.999Z</time></trkpt><trkpt lat="43.471499994130816" lon="10.635183215129418"><ele>356.0</ele><time>2026-04-19T10:51:04.999Z</time></trkpt><trkpt lat="43.47155401854126" lon="10.635320179275315"><ele>358.0</ele><time>2026-04-19T10:51:05.999Z</time></trkpt><trkpt lat="43.47160829363351" lon="10.6354546247358"><ele>360.0</ele><time>2026-04-19T10:51:06.999Z</time></trkpt><trkpt lat="43.4716602800132" lon="10.635590421106642"><ele>360.0</ele><time>2026-04-19T10:51:07.999Z</time></trkpt><trkpt lat="43.471714067399674" lon="10.63572569731058"><ele>360.0</ele><time>2026-04-19T10:51:08.999Z</time></trkpt><trkpt lat="43.471764834982665" lon="10.635851722825594"><ele>360.0</ele><time>2026-04-19T10:51:09.999Z</time></trkpt><trkpt lat="43.47183316615701" lon="10.635961673580645"><ele>360.0</ele><time>2026-04-19T10:51:10.999Z</time></trkpt><trkpt lat="43.4719062756545" lon="10.63605446415754"><ele>360.0</ele><time>2026-04-19T10:51:11.999Z</time></trkpt><trkpt lat="43.47199146520074" lon="10.636126050573795"><ele>360.4</ele><time>2026-04-19T10:51:12.999Z</time></trkpt><trkpt lat="43.47208660636023" lon="10.636172772176499"><ele>360.8</ele><time>2026-04-19T10:51:13.999Z</time></trkpt><trkpt lat="43.472188928443494" lon="10.636193878819528"><ele>361.20000000000005</ele><time>2026-04-19T10:51:14.999Z</time></trkpt><trkpt lat="43.47228606985985" lon="10.636190998903702"><ele>361.6</ele><time>2026-04-19T10:51:15.999Z</time></trkpt><trkpt lat="43.47237617297384" lon="10.636162634652898"><ele>362.0</ele><time>2026-04-19T10:51:17.999Z</time></trkpt><trkpt lat="43.47245301996261" lon="10.636118562590289"><ele>362.0</ele><time>2026-04-19T10:51:21.999Z</time></trkpt><trkpt lat="43.472514667671085" lon="10.63609035575715"><ele>362.0</ele><time>2026-04-19T10:51:26.999Z</time></trkpt><trkpt lat="43.47245600885065" lon="10.636156703999564"><ele>362.0</ele><time>2026-04-19T10:51:35.999Z</time></trkpt><trkpt lat="43.472394981062166" lon="10.63618167841961"><ele>362.0</ele><time>2026-04-19T10:51:37.999Z</time></trkpt><trkpt lat="43.472318696740004" lon="10.636204407513027"><ele>362.0</ele><time>2026-04-19T10:51:40Z</time></trkpt><trkpt lat="43.472232661852864" lon="10.636215934487145"><ele>362.0</ele><time>2026-04-19T10:51:42Z</time></trkpt><trkpt lat="43.47216116196958" lon="10.636207890300284"><ele>362.0</ele><time>2026-04-19T10:51:44Z</time></trkpt><trkpt lat="43.472097094620686" lon="10.636193983360531"><ele>359.0</ele><time>2026-04-19T10:51:46Z</time></trkpt><trkpt lat="43.472006581853094" lon="10.636152561916905"><ele>356.0</ele><time>2026-04-19T10:51:50Z</time></trkpt><trkpt lat="43.47147105271595" lon="10.637050968497284"><ele>355.0</ele><time>2026-04-19T10:51:57Z</time></trkpt><trkpt lat="43.47139945545171" lon="10.637111147506728"><ele>354.0</ele><time>2026-04-19T10:51:59Z</time></trkpt><trkpt lat="43.471336906823765" lon="10.637169874700529"><ele>353.0</ele><time>2026-04-19T10:52:01Z</time></trkpt><trkpt lat="43.471272363305836" lon="10.637234849577485"><ele>352.0</ele><time>2026-04-19T10:52:03Z</time></trkpt><trkpt lat="43.471196802590605" lon="10.637283465522204"><ele>351.0</ele><time>2026-04-19T10:52:05Z</time></trkpt><trkpt lat="43.47112543107536" lon="10.637351346376084"><ele>350.0</ele><time>2026-04-19T10:52:07Z</time></trkpt><trkpt lat="43.47104211158534" lon="10.637446958666507"><ele>350.0</ele><time>2026-04-19T10:52:09Z</time></trkpt><trkpt lat="43.47095204530039" lon="10.637540718455003"><ele>350.0</ele><time>2026-04-19T10:52:11Z</time></trkpt><trkpt lat="43.4708581435548" lon="10.637646802878953"><ele>350.0</ele><time>2026-04-19T10:52:13Z</time></trkpt><trkpt lat="43.4707448449247" lon="10.637698937235136"><ele>350.0</ele><time>2026-04-19T10:52:15Z</time></trkpt><trkpt lat="43.47063953295939" lon="10.637731065109161"><ele>350.0</ele><time>2026-04-19T10:52:17Z</time></trkpt><trkpt lat="43.47053586614852" lon="10.63775984250812"><ele>350.0</ele><time>2026-04-19T10:52:19Z</time></trkpt><trkpt lat="43.470426797492294" lon="10.637763018509766"><ele>350.0</ele><time>2026-04-19T10:52:21Z</time></trkpt><trkpt lat="43.47040436227902" lon="10.637859288305075"><ele>350.0</ele><time>2026-04-19T10:52:22Z</time></trkpt><trkpt lat="43.47032872629754" lon="10.637890319748276"><ele>350.0</ele><time>2026-04-19T10:52:24Z</time></trkpt><trkpt lat="43.470252111442974" lon="10.637927627382675"><ele>350.0</ele><time>2026-04-19T10:52:26Z</time></trkpt><trkpt lat="43.4701807785564" lon="10.6379616227019"><ele>349.0</ele><time>2026-04-19T10:52:28Z</time></trkpt><trkpt lat="43.47010572086549" lon="10.63799774119639"><ele>348.0</ele><time>2026-04-19T10:52:30Z</time></trkpt><trkpt lat="43.47002883461705" lon="10.638041816363483"><ele>347.0</ele><time>2026-04-19T10:52:32Z</time></trkpt><trkpt lat="43.46993624820483" lon="10.638096109006133"><ele>346.0</ele><time>2026-04-19T10:52:34Z</time></trkpt><trkpt lat="43.469829920619276" lon="10.638157087016026"><ele>345.0</ele><time>2026-04-19T10:52:36Z</time></trkpt><trkpt lat="43.46972910401552" lon="10.638254006797506"><ele>345.0</ele><time>2026-04-19T10:52:38Z</time></trkpt><trkpt lat="43.469677845088604" lon="10.638314550167259"><ele>345.0</ele><time>2026-04-19T10:52:39Z</time></trkpt><trkpt lat="43.46963445666574" lon="10.638380758495229"><ele>345.0</ele><time>2026-04-19T10:52:40Z</time></trkpt><trkpt lat="43.46959823005598" lon="10.638454008853177"><ele>345.0</ele><time>2026-04-19T10:52:41Z</time></trkpt><trkpt lat="43.46957682806619" lon="10.63853878458236"><ele>345.0</ele><time>2026-04-19T10:52:42Z</time></trkpt><trkpt lat="43.46954874990067" lon="10.638624485925472"><ele>345.0</ele><time>2026-04-19T10:52:43Z</time></trkpt><trkpt lat="43.46952795612066" lon="10.638714542314233"><ele>345.0</ele><time>2026-04-19T10:52:44Z</time></trkpt><trkpt lat="43.469510169464115" lon="10.638806294018908"><ele>343.0</ele><time>2026-04-19T10:52:45Z</time></trkpt><trkpt lat="43.46949345786733" lon="10.638902991353033"><ele>341.0</ele><time>2026-04-19T10:52:46Z</time></trkpt><trkpt lat="43.46946983535814" lon="10.638997846442743"><ele>339.0</ele><time>2026-04-19T10:52:47Z</time></trkpt><trkpt lat="43.4694207548885" lon="10.639096694349384"><ele>337.0</ele><time>2026-04-19T10:52:48Z</time></trkpt><trkpt lat="43.46935842611044" lon="10.639191044217075"><ele>335.0</ele><time>2026-04-19T10:52:49Z</time></trkpt><trkpt lat="43.46928472785804" lon="10.639282001346732"><ele>333.0</ele><time>2026-04-19T10:52:49.998Z</time></trkpt><trkpt lat="43.469203783977456" lon="10.639365107524101"><ele>333.0</ele><time>2026-04-19T10:52:50.998Z</time></trkpt><trkpt lat="43.46912188386831" lon="10.63943854493585"><ele>333.0</ele><time>2026-04-19T10:52:51.998Z</time></trkpt><trkpt lat="43.46903474157776" lon="10.639491373491202"><ele>333.0</ele><time>2026-04-19T10:52:52.998Z</time></trkpt><trkpt lat="43.46895884815171" lon="10.639552472215955"><ele>333.0</ele><time>2026-04-19T10:52:53.998Z</time></trkpt><trkpt lat="43.46888891286366" lon="10.639604263026984"><ele>333.0</ele><time>2026-04-19T10:52:54.998Z</time></trkpt><trkpt lat="43.46882698274201" lon="10.639646995805743"><ele>333.0</ele><time>2026-04-19T10:52:55.998Z</time></trkpt><trkpt lat="43.46877509023903" lon="10.639704616933491"><ele>332.79999999999995</ele><time>2026-04-19T10:52:56.998Z</time></trkpt><trkpt lat="43.46867424937263" lon="10.639761063459469"><ele>332.6</ele><time>2026-04-19T10:52:58.998Z</time></trkpt><trkpt lat="43.468584591018846" lon="10.639799714441676"><ele>332.4</ele><time>2026-04-19T10:53:00.998Z</time></trkpt><trkpt lat="43.46849938354644" lon="10.639836921904983"><ele>332.20000000000005</ele><time>2026-04-19T10:53:02.998Z</time></trkpt><trkpt lat="43.46841392407759" lon="10.63987433327415"><ele>332.0</ele><time>2026-04-19T10:53:04.998Z</time></trkpt><trkpt lat="43.46832626524159" lon="10.639929718126174"><ele>332.0</ele><time>2026-04-19T10:53:06.999Z</time></trkpt><trkpt lat="43.468239860868565" lon="10.639993380883132"><ele>332.0</ele><time>2026-04-19T10:53:08.999Z</time></trkpt><trkpt lat="43.468143218475774" lon="10.64009782344957"><ele>332.0</ele><time>2026-04-19T10:53:10.999Z</time></trkpt><trkpt lat="43.46809856178159" lon="10.640165159492957"><ele>332.0</ele><time>2026-04-19T10:53:11.999Z</time></trkpt><trkpt lat="43.468060621216026" lon="10.640238528672574"><ele>332.0</ele><time>2026-04-19T10:53:12.999Z</time></trkpt><trkpt lat="43.468029544139256" lon="10.640314590731542"><ele>332.0</ele><time>2026-04-19T10:53:13.999Z</time></trkpt><trkpt lat="43.46797702709994" lon="10.640449045214465"><ele>330.40000000000003</ele><time>2026-04-19T10:53:15.999Z</time></trkpt><trkpt lat="43.467924314563696" lon="10.64058967805138"><ele>328.8</ele><time>2026-04-19T10:53:17.999Z</time></trkpt><trkpt lat="43.46787517030479" lon="10.640728145424779"><ele>327.2</ele><time>2026-04-19T10:53:19.999Z</time></trkpt><trkpt lat="43.467830510637135" lon="10.640856221150962"><ele>325.6</ele><time>2026-04-19T10:53:21.999Z</time></trkpt><trkpt lat="43.46778590745864" lon="10.64097896462304"><ele>324.0</ele><time>2026-04-19T10:53:23.999Z</time></trkpt><trkpt lat="43.46774658507734" lon="10.641120701119197"><ele>323.0</ele><time>2026-04-19T10:53:25.999Z</time></trkpt><trkpt lat="43.467683477236406" lon="10.641269605081506"><ele>322.0</ele><time>2026-04-19T10:53:27.999Z</time></trkpt><trkpt lat="43.467650980527154" lon="10.641353029573855"><ele>321.0</ele><time>2026-04-19T10:53:28.999Z</time></trkpt><trkpt lat="43.46759843140366" lon="10.641502541990631"><ele>320.0</ele><time>2026-04-19T10:53:30.999Z</time></trkpt><trkpt lat="43.46755436496619" lon="10.641639255984009"><ele>319.0</ele><time>2026-04-19T10:53:32.999Z</time></trkpt><trkpt lat="43.467497679900596" lon="10.641789105317727"><ele>319.0</ele><time>2026-04-19T10:53:34.999Z</time></trkpt><trkpt lat="43.46746256473454" lon="10.641866888158514"><ele>319.0</ele><time>2026-04-19T10:53:35.999Z</time></trkpt><trkpt lat="43.46742390651437" lon="10.641944547881415"><ele>319.0</ele><time>2026-04-19T10:53:36.999Z</time></trkpt><trkpt lat="43.467382389863175" lon="10.642019275456775"><ele>319.0</ele><time>2026-04-19T10:53:37.999Z</time></trkpt><trkpt lat="43.467338776041586" lon="10.642096093477916"><ele>319.0</ele><time>2026-04-19T10:53:38.999Z</time></trkpt><trkpt lat="43.46729373913849" lon="10.642171719778457"><ele>319.0</ele><time>2026-04-19T10:53:39.999Z</time></trkpt><trkpt lat="43.46724645945555" lon="10.642247670387434"><ele>319.0</ele><time>2026-04-19T10:53:40.999Z</time></trkpt><trkpt lat="43.467193352299944" lon="10.64231909340382"><ele>317.8333333333333</ele><time>2026-04-19T10:53:41.999Z</time></trkpt><trkpt lat="43.46713464648524" lon="10.642387113899776"><ele>316.66666666666663</ele><time>2026-04-19T10:53:42.999Z</time></trkpt><trkpt lat="43.46707514580699" lon="10.642448274905766"><ele>315.5</ele><time>2026-04-19T10:53:43.999Z</time></trkpt><trkpt lat="43.46701906539609" lon="10.642505133725242"><ele>314.3333333333333</ele><time>2026-04-19T10:53:45Z</time></trkpt><trkpt lat="43.46693571985941" lon="10.64260122792412"><ele>313.1666666666667</ele><time>2026-04-19T10:53:47Z</time></trkpt><trkpt lat="43.46685473353562" lon="10.642674868387395"><ele>312.0</ele><time>2026-04-19T10:53:49Z</time></trkpt><trkpt lat="43.4668842871774" lon="10.642795789204566"><ele>310.0</ele><time>2026-04-19T10:53:50Z</time></trkpt><trkpt lat="43.46693190012993" lon="10.64295251262955"><ele>308.0</ele><time>2026-04-19T10:53:52Z</time></trkpt><trkpt lat="43.46694074846645" lon="10.643040817213434"><ele>306.0</ele><time>2026-04-19T10:53:53Z</time></trkpt><trkpt lat="43.46688586835762" lon="10.64316475225669"><ele>304.0</ele><time>2026-04-19T10:53:54Z</time></trkpt><trkpt lat="43.46684099310507" lon="10.643280637761384"><ele>302.0</ele><time>2026-04-19T10:53:55Z</time></trkpt><trkpt lat="43.46679767415214" lon="10.643397076647496"><ele>302.0</ele><time>2026-04-19T10:53:56Z</time></trkpt><trkpt lat="43.46675461827435" lon="10.643517522060677"><ele>302.0</ele><time>2026-04-19T10:53:57Z</time></trkpt><trkpt lat="43.46671237653461" lon="10.643633652545924"><ele>302.0</ele><time>2026-04-19T10:53:58Z</time></trkpt><trkpt lat="43.46667543724964" lon="10.643737842190676"><ele>302.0</ele><time>2026-04-19T10:53:59Z</time></trkpt><trkpt lat="43.46664096650703" lon="10.643834576962144"><ele>302.0</ele><time>2026-04-19T10:54:00Z</time></trkpt><trkpt lat="43.46660693319355" lon="10.643930865259243"><ele>302.0</ele><time>2026-04-19T10:54:01Z</time></trkpt><trkpt lat="43.466570631347906" lon="10.644029813284295"><ele>301.1666666666667</ele><time>2026-04-19T10:54:02Z</time></trkpt><trkpt lat="43.46653157617646" lon="10.644131491559923"><ele>300.33333333333337</ele><time>2026-04-19T10:54:03Z</time></trkpt><trkpt lat="43.46649483685124" lon="10.644233238939108"><ele>299.5</ele><time>2026-04-19T10:54:04Z</time></trkpt><trkpt lat="43.46645704520261" lon="10.6443357296837"><ele>298.6666666666667</ele><time>2026-04-19T10:54:05Z</time></trkpt><trkpt lat="43.46641909801794" lon="10.644438580192862"><ele>297.8333333333333</ele><time>2026-04-19T10:54:06Z</time></trkpt><trkpt lat="43.46638305432305" lon="10.644544454483391"><ele>297.0</ele><time>2026-04-19T10:54:07Z</time></trkpt><trkpt lat="43.46634854828888" lon="10.644651511611064"><ele>296.3333333333333</ele><time>2026-04-19T10:54:08Z</time></trkpt><trkpt lat="43.466316293163324" lon="10.644759479736443"><ele>295.6666666666667</ele><time>2026-04-19T10:54:09Z</time></trkpt><trkpt lat="43.466289484048545" lon="10.644873368381587"><ele>295.0</ele><time>2026-04-19T10:54:10Z</time></trkpt><trkpt lat="43.46625824944323" lon="10.644983760537277"><ele>294.33333333333337</ele><time>2026-04-19T10:54:11Z</time></trkpt><trkpt lat="43.466231609045444" lon="10.64509458641995"><ele>293.6666666666667</ele><time>2026-04-19T10:54:12Z</time></trkpt><trkpt lat="43.466207190974785" lon="10.64520636751375"><ele>293.0</ele><time>2026-04-19T10:54:13Z</time></trkpt><trkpt lat="43.466183545861696" lon="10.645320059677204"><ele>292.1666666666667</ele><time>2026-04-19T10:54:14Z</time></trkpt><trkpt lat="43.46616154077425" lon="10.64543060110912"><ele>291.33333333333337</ele><time>2026-04-19T10:54:15Z</time></trkpt><trkpt lat="43.46613528487808" lon="10.64554285706744"><ele>290.5</ele><time>2026-04-19T10:54:16Z</time></trkpt><trkpt lat="43.46610648472247" lon="10.645656440360137"><ele>289.6666666666667</ele><time>2026-04-19T10:54:17Z</time></trkpt><trkpt lat="43.4660797474703" lon="10.6457726713818"><ele>288.8333333333333</ele><time>2026-04-19T10:54:18Z</time></trkpt><trkpt lat="43.466052820786665" lon="10.645887216779473"><ele>288.0</ele><time>2026-04-19T10:54:19Z</time></trkpt><trkpt lat="43.466029040491016" lon="10.645997658188188"><ele>288.0</ele><time>2026-04-19T10:54:20Z</time></trkpt><trkpt lat="43.46601147257874" lon="10.646104368677717"><ele>288.0</ele><time>2026-04-19T10:54:21Z</time></trkpt><trkpt lat="43.46599343503412" lon="10.646208569162527"><ele>288.0</ele><time>2026-04-19T10:54:22Z</time></trkpt><trkpt lat="43.46598018215132" lon="10.646302006541493"><ele>288.0</ele><time>2026-04-19T10:54:23Z</time></trkpt><trkpt lat="43.46596614342571" lon="10.646396244125336"><ele>288.0</ele><time>2026-04-19T10:54:24Z</time></trkpt><trkpt lat="43.46594762562231" lon="10.646563943449232"><ele>288.0</ele><time>2026-04-19T10:54:26Z</time></trkpt><trkpt lat="43.46593000387731" lon="10.646726945151158"><ele>288.0</ele><time>2026-04-19T10:54:28Z</time></trkpt><trkpt lat="43.46591469241665" lon="10.646888884628968"><ele>288.0</ele><time>2026-04-19T10:54:30Z</time></trkpt><trkpt lat="43.46590658346344" lon="10.646974923123722"><ele>288.0</ele><time>2026-04-19T10:54:31Z</time></trkpt><trkpt lat="43.46590027469703" lon="10.647064321549069"><ele>288.0</ele><time>2026-04-19T10:54:32Z</time></trkpt><trkpt lat="43.465892701314615" lon="10.647159311759381"><ele>288.0</ele><time>2026-04-19T10:54:33Z</time></trkpt><trkpt lat="43.465883061278994" lon="10.64725926297157"><ele>288.0</ele><time>2026-04-19T10:54:34Z</time></trkpt><trkpt lat="43.46587222619727" lon="10.64736120303081"><ele>288.00000000000006</ele><time>2026-04-19T10:54:35Z</time></trkpt><trkpt lat="43.46586223763161" lon="10.647462681338956"><ele>288.0</ele><time>2026-04-19T10:54:36Z</time></trkpt><trkpt lat="43.46584983595203" lon="10.647562748413357"><ele>288.0</ele><time>2026-04-19T10:54:37Z</time></trkpt><trkpt lat="43.465835946218235" lon="10.647661188539894"><ele>288.0</ele><time>2026-04-19T10:54:38Z</time></trkpt><trkpt lat="43.46582293778408" lon="10.647756737718254"><ele>288.0</ele><time>2026-04-19T10:54:39Z</time></trkpt><trkpt lat="43.46581089850688" lon="10.647843874084808"><ele>288.00000000000006</ele><time>2026-04-19T10:54:40Z</time></trkpt><trkpt lat="43.465799928007144" lon="10.64792940454541"><ele>288.0</ele><time>2026-04-19T10:54:41Z</time></trkpt><trkpt lat="43.465779039329036" lon="10.648092827993926"><ele>289.75</ele><time>2026-04-19T10:54:43Z</time></trkpt><trkpt lat="43.465763396741714" lon="10.64824392222726"><ele>291.5</ele><time>2026-04-19T10:54:45Z</time></trkpt><trkpt lat="43.46574070300528" lon="10.64839783236664"><ele>293.25</ele><time>2026-04-19T10:54:47Z</time></trkpt><trkpt lat="43.46571587535976" lon="10.64855841304242"><ele>295.0</ele><time>2026-04-19T10:54:49Z</time></trkpt><trkpt lat="43.465686281033655" lon="10.648722969193868"><ele>297.4</ele><time>2026-04-19T10:54:51Z</time></trkpt><trkpt lat="43.465651174543446" lon="10.648881113276083"><ele>299.8</ele><time>2026-04-19T10:54:53Z</time></trkpt><trkpt lat="43.46561753269606" lon="10.649047787229113"><ele>302.2</ele><time>2026-04-19T10:54:55Z</time></trkpt><trkpt lat="43.46560022699571" lon="10.649132725544693"><ele>304.6</ele><time>2026-04-19T10:54:55.998Z</time></trkpt><trkpt lat="43.46557980469059" lon="10.649223084203614"><ele>307.0</ele><time>2026-04-19T10:54:56.998Z</time></trkpt><trkpt lat="43.465558217616774" lon="10.649317221835048"><ele>306.99999999999994</ele><time>2026-04-19T10:54:57.998Z</time></trkpt><trkpt lat="43.46553781262935" lon="10.649414390963546"><ele>307.0</ele><time>2026-04-19T10:54:58.998Z</time></trkpt><trkpt lat="43.4655176003287" lon="10.649512546615275"><ele>307.0</ele><time>2026-04-19T10:54:59.998Z</time></trkpt><trkpt lat="43.465496940792775" lon="10.649607494512466"><ele>307.0</ele><time>2026-04-19T10:55:00.998Z</time></trkpt><trkpt lat="43.46547651475581" lon="10.64970395331417"><ele>307.0</ele><time>2026-04-19T10:55:01.998Z</time></trkpt><trkpt lat="43.46545684094615" lon="10.649799026227875"><ele>306.99999999999994</ele><time>2026-04-19T10:55:02.998Z</time></trkpt><trkpt lat="43.46544103858621" lon="10.649897724058421"><ele>307.0</ele><time>2026-04-19T10:55:03.998Z</time></trkpt><trkpt lat="43.46541952205623" lon="10.649998766537582"><ele>307.0</ele><time>2026-04-19T10:55:04.998Z</time></trkpt><trkpt lat="43.465394161117985" lon="10.650101777462632"><ele>307.0</ele><time>2026-04-19T10:55:05.998Z</time></trkpt><trkpt lat="43.46537368320149" lon="10.650215077190193"><ele>307.0</ele><time>2026-04-19T10:55:06.998Z</time></trkpt><trkpt lat="43.46536672354906" lon="10.650332535435417"><ele>307.0</ele><time>2026-04-19T10:55:07.998Z</time></trkpt><trkpt lat="43.46536519869104" lon="10.650444298635325"><ele>307.0</ele><time>2026-04-19T10:55:08.998Z</time></trkpt><trkpt lat="43.465360760472535" lon="10.650570576602533"><ele>307.0</ele><time>2026-04-19T10:55:09.998Z</time></trkpt><trkpt lat="43.465343254151044" lon="10.650704031659627"><ele>307.2</ele><time>2026-04-19T10:55:10.999Z</time></trkpt><trkpt lat="43.46532464613245" lon="10.650836459422294"><ele>307.4</ele><time>2026-04-19T10:55:11.999Z</time></trkpt><trkpt lat="43.46530739972652" lon="10.650974609154828"><ele>307.6</ele><time>2026-04-19T10:55:12.999Z</time></trkpt><trkpt lat="43.46528895415848" lon="10.651114560065462"><ele>307.8</ele><time>2026-04-19T10:55:13.999Z</time></trkpt><trkpt lat="43.465271116224024" lon="10.651254434894266"><ele>308.0</ele><time>2026-04-19T10:55:14.999Z</time></trkpt><trkpt lat="43.46524984918238" lon="10.65139430319002"><ele>307.6</ele><time>2026-04-19T10:55:15.999Z</time></trkpt><trkpt lat="43.465232457439114" lon="10.651531124077282"><ele>307.20000000000005</ele><time>2026-04-19T10:55:16.999Z</time></trkpt><trkpt lat="43.46521638291356" lon="10.651669403600259"><ele>306.8</ele><time>2026-04-19T10:55:17.999Z</time></trkpt><trkpt lat="43.46520214932178" lon="10.65179796156677"><ele>306.40000000000003</ele><time>2026-04-19T10:55:18.999Z</time></trkpt><trkpt lat="43.46518485601576" lon="10.651923066074804"><ele>306.0</ele><time>2026-04-19T10:55:19.999Z</time></trkpt><trkpt lat="43.46516319248434" lon="10.652050180020284"><ele>305.6</ele><time>2026-04-19T10:55:20.999Z</time></trkpt><trkpt lat="43.46513918056654" lon="10.652167902366763"><ele>305.20000000000005</ele><time>2026-04-19T10:55:21.999Z</time></trkpt><trkpt lat="43.4651130486906" lon="10.652293637883002"><ele>304.79999999999995</ele><time>2026-04-19T10:55:22.999Z</time></trkpt><trkpt lat="43.46509851237602" lon="10.652422306517241"><ele>304.4</ele><time>2026-04-19T10:55:23.999Z</time></trkpt><trkpt lat="43.46509973026963" lon="10.652551700492088"><ele>304.0</ele><time>2026-04-19T10:55:24.999Z</time></trkpt><trkpt lat="43.46511635962579" lon="10.652682916927258"><ele>303.4</ele><time>2026-04-19T10:55:25.999Z</time></trkpt><trkpt lat="43.465146910202265" lon="10.652809496796568"><ele>302.79999999999995</ele><time>2026-04-19T10:55:26.999Z</time></trkpt><trkpt lat="43.46517874546673" lon="10.652937821818412"><ele>302.20000000000005</ele><time>2026-04-19T10:55:27.999Z</time></trkpt><trkpt lat="43.46521024502108" lon="10.653058903437902"><ele>301.6</ele><time>2026-04-19T10:55:28.999Z</time></trkpt><trkpt lat="43.465237203646154" lon="10.653176195596735"><ele>301.0</ele><time>2026-04-19T10:55:29.999Z</time></trkpt><trkpt lat="43.46526561081057" lon="10.653300285632504"><ele>301.0</ele><time>2026-04-19T10:55:30.999Z</time></trkpt><trkpt lat="43.46529526541957" lon="10.653421657434308"><ele>301.0</ele><time>2026-04-19T10:55:31.999Z</time></trkpt><trkpt lat="43.46532748765339" lon="10.653541740103938"><ele>301.0</ele><time>2026-04-19T10:55:32.999Z</time></trkpt><trkpt lat="43.465357724913915" lon="10.653661426617408"><ele>301.0</ele><time>2026-04-19T10:55:33.999Z</time></trkpt><trkpt lat="43.465383162600304" lon="10.653779868122708"><ele>301.0</ele><time>2026-04-19T10:55:34.999Z</time></trkpt><trkpt lat="43.465409150520486" lon="10.653896352744779"><ele>300.5</ele><time>2026-04-19T10:55:35.999Z</time></trkpt><trkpt lat="43.46543670816857" lon="10.654011678980428"><ele>300.0</ele><time>2026-04-19T10:55:36.999Z</time></trkpt><trkpt lat="43.46545351900924" lon="10.654119962566615"><ele>299.5</ele><time>2026-04-19T10:55:37.999Z</time></trkpt><trkpt lat="43.46547574628291" lon="10.654219781499313"><ele>299.0</ele><time>2026-04-19T10:55:38.999Z</time></trkpt><trkpt lat="43.46549884166506" lon="10.654321450422211"><ele>298.5</ele><time>2026-04-19T10:55:39.999Z</time></trkpt><trkpt lat="43.465520724761305" lon="10.654425059487968"><ele>298.0</ele><time>2026-04-19T10:55:40.999Z</time></trkpt><trkpt lat="43.46554593365996" lon="10.654527658472583"><ele>296.8333333333333</ele><time>2026-04-19T10:55:41.999Z</time></trkpt><trkpt lat="43.46556977905418" lon="10.654633613228327"><ele>295.66666666666663</ele><time>2026-04-19T10:55:42.999Z</time></trkpt><trkpt lat="43.465596241042526" lon="10.65474495272255"><ele>294.5</ele><time>2026-04-19T10:55:43.999Z</time></trkpt><trkpt lat="43.46562496193844" lon="10.65485797416812"><ele>293.3333333333333</ele><time>2026-04-19T10:55:44.999Z</time></trkpt><trkpt lat="43.46565391927316" lon="10.654975468500673"><ele>292.1666666666667</ele><time>2026-04-19T10:55:45.999Z</time></trkpt><trkpt lat="43.46567989208077" lon="10.655089338198115"><ele>291.0</ele><time>2026-04-19T10:55:46.999Z</time></trkpt><trkpt lat="43.465707216011346" lon="10.655206178447735"><ele>290.2</ele><time>2026-04-19T10:55:48Z</time></trkpt><trkpt lat="43.46573266398585" lon="10.655327219793739"><ele>289.40000000000003</ele><time>2026-04-19T10:55:49Z</time></trkpt><trkpt lat="43.46576301039281" lon="10.65545775440416"><ele>288.6</ele><time>2026-04-19T10:55:50Z</time></trkpt><trkpt lat="43.46579264658482" lon="10.65558314275433"><ele>287.8</ele><time>2026-04-19T10:55:51Z</time></trkpt><trkpt lat="43.46582235076465" lon="10.655712893971511"><ele>287.0</ele><time>2026-04-19T10:55:52Z</time></trkpt><trkpt lat="43.46585340316597" lon="10.655849069867664"><ele>287.0</ele><time>2026-04-19T10:55:53Z</time></trkpt><trkpt lat="43.46587985023748" lon="10.655984949852947"><ele>287.0</ele><time>2026-04-19T10:55:54Z</time></trkpt><trkpt lat="43.46591062996506" lon="10.656124834602451"><ele>287.0</ele><time>2026-04-19T10:55:55Z</time></trkpt><trkpt lat="43.46594414225004" lon="10.65626387119655"><ele>287.0</ele><time>2026-04-19T10:55:56Z</time></trkpt><trkpt lat="43.46597303153283" lon="10.656396443657489"><ele>287.0</ele><time>2026-04-19T10:55:57Z</time></trkpt><trkpt lat="43.465996515283486" lon="10.65650526299161"><ele>286.0</ele><time>2026-04-19T10:55:58Z</time></trkpt><trkpt lat="43.466023702769775" lon="10.656615159119717"><ele>285.0</ele><time>2026-04-19T10:55:59Z</time></trkpt><trkpt lat="43.466052268930255" lon="10.656718962574876"><ele>284.0</ele><time>2026-04-19T10:56:00Z</time></trkpt><trkpt lat="43.466073405652864" lon="10.656814922808211"><ele>283.0</ele><time>2026-04-19T10:56:01Z</time></trkpt><trkpt lat="43.46609923961637" lon="10.656911553314242"><ele>282.0</ele><time>2026-04-19T10:56:02Z</time></trkpt><trkpt lat="43.466118572335574" lon="10.657007155401539"><ele>281.0</ele><time>2026-04-19T10:56:03Z</time></trkpt><trkpt lat="43.46613405053173" lon="10.657118515553567"><ele>280.0</ele><time>2026-04-19T10:56:04Z</time></trkpt><trkpt lat="43.46616163741515" lon="10.657232511880048"><ele>279.0</ele><time>2026-04-19T10:56:05Z</time></trkpt><trkpt lat="43.466189479088776" lon="10.657354399030792"><ele>278.0</ele><time>2026-04-19T10:56:06Z</time></trkpt><trkpt lat="43.46622055229748" lon="10.657485842966736"><ele>277.0</ele><time>2026-04-19T10:56:07Z</time></trkpt><trkpt lat="43.46626811881334" lon="10.657608002669878"><ele>276.0</ele><time>2026-04-19T10:56:08Z</time></trkpt><trkpt lat="43.46633705243441" lon="10.657720314940734"><ele>274.5</ele><time>2026-04-19T10:56:09Z</time></trkpt><trkpt lat="43.46642768653275" lon="10.657820226510063"><ele>273.0</ele><time>2026-04-19T10:56:10Z</time></trkpt><trkpt lat="43.466520400968186" lon="10.657924524076387"><ele>271.5</ele><time>2026-04-19T10:56:11Z</time></trkpt><trkpt lat="43.466616005274105" lon="10.65802041617984"><ele>270.0</ele><time>2026-04-19T10:56:12Z</time></trkpt><trkpt lat="43.46671308165675" lon="10.658122276101656"><ele>270.0</ele><time>2026-04-19T10:56:13Z</time></trkpt><trkpt lat="43.46681459011608" lon="10.658231302635254"><ele>270.0</ele><time>2026-04-19T10:56:14Z</time></trkpt><trkpt lat="43.466920480388104" lon="10.658342245537586"><ele>270.0</ele><time>2026-04-19T10:56:15Z</time></trkpt><trkpt lat="43.46702757800958" lon="10.658456627721462"><ele>270.0</ele><time>2026-04-19T10:56:16Z</time></trkpt><trkpt lat="43.467135798803774" lon="10.658572681156693"><ele>266.75</ele><time>2026-04-19T10:56:17Z</time></trkpt><trkpt lat="43.46724538511895" lon="10.658688964738941"><ele>263.5</ele><time>2026-04-19T10:56:18Z</time></trkpt><trkpt lat="43.46735060481605" lon="10.658801504871185"><ele>260.25</ele><time>2026-04-19T10:56:19Z</time></trkpt><trkpt lat="43.46745112691258" lon="10.65890965991742"><ele>257.0</ele><time>2026-04-19T10:56:20Z</time></trkpt><trkpt lat="43.467547474428315" lon="10.659022483950018"><ele>257.0</ele><time>2026-04-19T10:56:21Z</time></trkpt><trkpt lat="43.46763930574534" lon="10.65914813929316"><ele>257.0</ele><time>2026-04-19T10:56:22Z</time></trkpt><trkpt lat="43.46772280529601" lon="10.659255198044022"><ele>257.0</ele><time>2026-04-19T10:56:23Z</time></trkpt><trkpt lat="43.46778705607292" lon="10.659350035065193"><ele>257.0</ele><time>2026-04-19T10:56:24Z</time></trkpt><trkpt lat="43.467859437463574" lon="10.659457913037292"><ele>257.0</ele><time>2026-04-19T10:56:25Z</time></trkpt><trkpt lat="43.46793746322153" lon="10.659562113023298"><ele>253.75</ele><time>2026-04-19T10:56:26Z</time></trkpt><trkpt lat="43.4680144321018" lon="10.659676365996496"><ele>250.5</ele><time>2026-04-19T10:56:27Z</time></trkpt><trkpt lat="43.468095611626865" lon="10.659795777698072"><ele>247.25</ele><time>2026-04-19T10:56:28Z</time></trkpt><trkpt lat="43.46818279554267" lon="10.65991619470362"><ele>244.0</ele><time>2026-04-19T10:56:29Z</time></trkpt><trkpt lat="43.46827414626625" lon="10.660044326421408"><ele>244.0</ele><time>2026-04-19T10:56:30Z</time></trkpt><trkpt lat="43.46835333594622" lon="10.660160545278549"><ele>244.0</ele><time>2026-04-19T10:56:31Z</time></trkpt><trkpt lat="43.468432568467186" lon="10.660274977460189"><ele>244.0</ele><time>2026-04-19T10:56:32Z</time></trkpt><trkpt lat="43.468517176085456" lon="10.660391297756199"><ele>244.0</ele><time>2026-04-19T10:56:33Z</time></trkpt><trkpt lat="43.4686009800063" lon="10.660514016450643"><ele>242.0</ele><time>2026-04-19T10:56:34Z</time></trkpt><trkpt lat="43.46868399902324" lon="10.66064405340312"><ele>240.0</ele><time>2026-04-19T10:56:35Z</time></trkpt><trkpt lat="43.46876319096133" lon="10.660781552975267"><ele>238.0</ele><time>2026-04-19T10:56:36Z</time></trkpt><trkpt lat="43.46883873863585" lon="10.6609263755243"><ele>236.0</ele><time>2026-04-19T10:56:37Z</time></trkpt><trkpt lat="43.46890980135317" lon="10.661077685437082"><ele>235.5</ele><time>2026-04-19T10:56:38Z</time></trkpt><trkpt lat="43.46897553859224" lon="10.661228866986711"><ele>235.0</ele><time>2026-04-19T10:56:39Z</time></trkpt><trkpt lat="43.46904245208459" lon="10.661378126157116"><ele>234.5</ele><time>2026-04-19T10:56:40Z</time></trkpt><trkpt lat="43.469105356767855" lon="10.661520111703174"><ele>234.0</ele><time>2026-04-19T10:56:41Z</time></trkpt><trkpt lat="43.46916698683685" lon="10.661656457899195"><ele>234.0</ele><time>2026-04-19T10:56:42Z</time></trkpt><trkpt lat="43.469227140086176" lon="10.661785870945085"><ele>233.99999999999997</ele><time>2026-04-19T10:56:43Z</time></trkpt><trkpt lat="43.469287020342726" lon="10.661904852090043"><ele>233.99999999999997</ele><time>2026-04-19T10:56:44Z</time></trkpt><trkpt lat="43.469352793746154" lon="10.662009020689215"><ele>234.0</ele><time>2026-04-19T10:56:45Z</time></trkpt><trkpt lat="43.469426178081406" lon="10.662107728007738"><ele>234.0</ele><time>2026-04-19T10:56:46Z</time></trkpt><trkpt lat="43.46949717897105" lon="10.662208055474565"><ele>234.0</ele><time>2026-04-19T10:56:47Z</time></trkpt><trkpt lat="43.46957061331729" lon="10.662300298389928"><ele>233.99999999999997</ele><time>2026-04-19T10:56:48Z</time></trkpt><trkpt lat="43.46965090864999" lon="10.662394561687872"><ele>233.99999999999997</ele><time>2026-04-19T10:56:49Z</time></trkpt><trkpt lat="43.46973000712396" lon="10.662494714687494"><ele>234.0</ele><time>2026-04-19T10:56:50Z</time></trkpt><trkpt lat="43.469806064952415" lon="10.662591903613345"><ele>234.0</ele><time>2026-04-19T10:56:51Z</time></trkpt><trkpt lat="43.46988391538441" lon="10.662690502032575"><ele>232.33333333333334</ele><time>2026-04-19T10:56:52Z</time></trkpt><trkpt lat="43.46995839114369" lon="10.662786254501084"><ele>230.66666666666669</ele><time>2026-04-19T10:56:53Z</time></trkpt><trkpt lat="43.47002800556545" lon="10.66286798121426"><ele>229.0</ele><time>2026-04-19T10:56:54Z</time></trkpt><trkpt lat="43.47008352949464" lon="10.662948119170865"><ele>227.33333333333334</ele><time>2026-04-19T10:56:55Z</time></trkpt><trkpt lat="43.47014033534812" lon="10.66302482243552"><ele>225.66666666666669</ele><time>2026-04-19T10:56:56Z</time></trkpt><trkpt lat="43.47019688633472" lon="10.663109132100903"><ele>224.0</ele><time>2026-04-19T10:56:57Z</time></trkpt><trkpt lat="43.4702374010868" lon="10.663206812237686"><ele>224.00000000000003</ele><time>2026-04-19T10:56:58Z</time></trkpt><trkpt lat="43.470256634754165" lon="10.663311533848706"><ele>224.0</ele><time>2026-04-19T10:56:59Z</time></trkpt><trkpt lat="43.470263104381026" lon="10.663414644701705"><ele>224.0</ele><time>2026-04-19T10:57:00Z</time></trkpt><trkpt lat="43.47026615183823" lon="10.663516649657641"><ele>224.0</ele><time>2026-04-19T10:57:01Z</time></trkpt><trkpt lat="43.470266120444286" lon="10.663619248976449"><ele>224.00000000000003</ele><time>2026-04-19T10:57:01.998Z</time></trkpt><trkpt lat="43.47026297188916" lon="10.663721652934537"><ele>224.0</ele><time>2026-04-19T10:57:02.998Z</time></trkpt><trkpt lat="43.47025868458615" lon="10.66382682543946"><ele>223.16666666666669</ele><time>2026-04-19T10:57:03.998Z</time></trkpt><trkpt lat="43.470248744516276" lon="10.663932775000312"><ele>222.33333333333334</ele><time>2026-04-19T10:57:04.998Z</time></trkpt><trkpt lat="43.470241878509235" lon="10.66404643830941"><ele>221.5</ele><time>2026-04-19T10:57:05.998Z</time></trkpt><trkpt lat="43.470236972317885" lon="10.664165695791647"><ele>220.66666666666669</ele><time>2026-04-19T10:57:06.998Z</time></trkpt><trkpt lat="43.47024196339847" lon="10.664285129982305"><ele>219.83333333333334</ele><time>2026-04-19T10:57:07.998Z</time></trkpt><trkpt lat="43.47026568264478" lon="10.664391044774824"><ele>219.0</ele><time>2026-04-19T10:57:08.998Z</time></trkpt><trkpt lat="43.47030325132246" lon="10.664488165924492"><ele>218.66666666666666</ele><time>2026-04-19T10:57:09.998Z</time></trkpt><trkpt lat="43.47034548239009" lon="10.66458776899493"><ele>218.33333333333331</ele><time>2026-04-19T10:57:10.998Z</time></trkpt><trkpt lat="43.47039013383528" lon="10.664693525138045"><ele>218.0</ele><time>2026-04-19T10:57:11.998Z</time></trkpt><trkpt lat="43.470438817619566" lon="10.664793898314363"><ele>217.66666666666666</ele><time>2026-04-19T10:57:12.998Z</time></trkpt><trkpt lat="43.4704842223461" lon="10.664897822260437"><ele>217.33333333333331</ele><time>2026-04-19T10:57:13.998Z</time></trkpt><trkpt lat="43.47053303848612" lon="10.665006542523544"><ele>217.0</ele><time>2026-04-19T10:57:14.998Z</time></trkpt><trkpt lat="43.47058499809485" lon="10.665113050553982"><ele>213.8</ele><time>2026-04-19T10:57:15.998Z</time></trkpt><trkpt lat="43.47064217361349" lon="10.665210159967424"><ele>210.6</ele><time>2026-04-19T10:57:16.998Z</time></trkpt><trkpt lat="43.47071658612291" lon="10.665297743107903"><ele>207.4</ele><time>2026-04-19T10:57:17.998Z</time></trkpt><trkpt lat="43.47079753827176" lon="10.665351948143094"><ele>204.20000000000002</ele><time>2026-04-19T10:57:18.998Z</time></trkpt><trkpt lat="43.47087589128133" lon="10.665424037104463"><ele>201.0</ele><time>2026-04-19T10:57:19.998Z</time></trkpt><trkpt lat="43.4709674888823" lon="10.665493460372897"><ele>199.60000000000002</ele><time>2026-04-19T10:57:20.999Z</time></trkpt><trkpt lat="43.47106274491863" lon="10.6655659404796"><ele>198.2</ele><time>2026-04-19T10:57:21.999Z</time></trkpt><trkpt lat="43.47115917604869" lon="10.665641949557731"><ele>196.8</ele><time>2026-04-19T10:57:22.999Z</time></trkpt><trkpt lat="43.47125368583827" lon="10.66571554832607"><ele>195.39999999999998</ele><time>2026-04-19T10:57:23.999Z</time></trkpt><trkpt lat="43.47134377822654" lon="10.665786329748974"><ele>194.0</ele><time>2026-04-19T10:57:24.999Z</time></trkpt><trkpt lat="43.471426936786685" lon="10.665850825907894"><ele>193.6</ele><time>2026-04-19T10:57:25.999Z</time></trkpt><trkpt lat="43.47150483535877" lon="10.665911792872823"><ele>193.2</ele><time>2026-04-19T10:57:26.999Z</time></trkpt><trkpt lat="43.47158085672556" lon="10.665977468231612"><ele>192.79999999999998</ele><time>2026-04-19T10:57:27.999Z</time></trkpt><trkpt lat="43.47165689639967" lon="10.666040748797018"><ele>192.39999999999998</ele><time>2026-04-19T10:57:28.999Z</time></trkpt><trkpt lat="43.47173646543993" lon="10.6661052501234"><ele>192.0</ele><time>2026-04-19T10:57:29.999Z</time></trkpt><trkpt lat="43.47182218518797" lon="10.66616648762183"><ele>191.0</ele><time>2026-04-19T10:57:30.999Z</time></trkpt><trkpt lat="43.4719088168978" lon="10.666229550188346"><ele>190.0</ele><time>2026-04-19T10:57:31.999Z</time></trkpt><trkpt lat="43.47199738392282" lon="10.666296352664546"><ele>189.0</ele><time>2026-04-19T10:57:32.999Z</time></trkpt><trkpt lat="43.47208855926031" lon="10.66636536956784"><ele>188.0</ele><time>2026-04-19T10:57:33.999Z</time></trkpt><trkpt lat="43.47218159463034" lon="10.666436791989748"><ele>187.0</ele><time>2026-04-19T10:57:34.999Z</time></trkpt><trkpt lat="43.4722733501422" lon="10.666508615702865"><ele>187.0</ele><time>2026-04-19T10:57:35.999Z</time></trkpt><trkpt lat="43.47236043215835" lon="10.666579162449855"><ele>187.0</ele><time>2026-04-19T10:57:36.999Z</time></trkpt><trkpt lat="43.4724400668236" lon="10.666641880623033"><ele>187.0</ele><time>2026-04-19T10:57:37.999Z</time></trkpt><trkpt lat="43.47251421296989" lon="10.66669921002198"><ele>187.0</ele><time>2026-04-19T10:57:38.999Z</time></trkpt><trkpt lat="43.47258728988343" lon="10.66675193578366"><ele>187.0</ele><time>2026-04-19T10:57:39.999Z</time></trkpt><trkpt lat="43.47265789384833" lon="10.66680281790172"><ele>187.0</ele><time>2026-04-19T10:57:40.999Z</time></trkpt><trkpt lat="43.47272404982865" lon="10.666853406715045"><ele>187.0</ele><time>2026-04-19T10:57:41.999Z</time></trkpt><trkpt lat="43.47278493919157" lon="10.666912141480376"><ele>187.0</ele><time>2026-04-19T10:57:42.999Z</time></trkpt><trkpt lat="43.47284408184339" lon="10.66698188951476"><ele>187.0</ele><time>2026-04-19T10:57:43.999Z</time></trkpt><trkpt lat="43.47289912272278" lon="10.667060671489594"><ele>187.0</ele><time>2026-04-19T10:57:44.999Z</time></trkpt><trkpt lat="43.47295070277347" lon="10.667149988629031"><ele>187.0</ele><time>2026-04-19T10:57:45.999Z</time></trkpt><trkpt lat="43.47299584852139" lon="10.667257635738626"><ele>187.0</ele><time>2026-04-19T10:57:46.999Z</time></trkpt><trkpt lat="43.47304538141102" lon="10.667370828440866"><ele>185.6</ele><time>2026-04-19T10:57:47.999Z</time></trkpt><trkpt lat="43.47309906133921" lon="10.667491635571063"><ele>184.2</ele><time>2026-04-19T10:57:49Z</time></trkpt><trkpt lat="43.47316820498078" lon="10.667605818381194"><ele>182.8</ele><time>2026-04-19T10:57:50Z</time></trkpt><trkpt lat="43.473249473726405" lon="10.667702312302854"><ele>181.4</ele><time>2026-04-19T10:57:51Z</time></trkpt><trkpt lat="43.47334190165727" lon="10.667776478577844"><ele>180.0</ele><time>2026-04-19T10:57:52Z</time></trkpt><trkpt lat="43.47344451728688" lon="10.667833488271626"><ele>179.0</ele><time>2026-04-19T10:57:53Z</time></trkpt><trkpt lat="43.473547424660204" lon="10.667889717046059"><ele>178.0</ele><time>2026-04-19T10:57:54Z</time></trkpt><trkpt lat="43.47365145925787" lon="10.667936148435897"><ele>177.0</ele><time>2026-04-19T10:57:55Z</time></trkpt><trkpt lat="43.47375616798326" lon="10.66798050112459"><ele>176.0</ele><time>2026-04-19T10:57:56Z</time></trkpt><trkpt lat="43.47382841249441" lon="10.668021028466589"><ele>175.0</ele><time>2026-04-19T10:57:57Z</time></trkpt><trkpt lat="43.47390169866849" lon="10.668057843397746"><ele>174.2</ele><time>2026-04-19T10:57:58Z</time></trkpt><trkpt lat="43.47398494129116" lon="10.668095939226355"><ele>173.4</ele><time>2026-04-19T10:57:59Z</time></trkpt><trkpt lat="43.47406933222589" lon="10.668139641327176"><ele>172.60000000000002</ele><time>2026-04-19T10:58:00Z</time></trkpt><trkpt lat="43.47415861331625" lon="10.66817312328344"><ele>171.8</ele><time>2026-04-19T10:58:01Z</time></trkpt><trkpt lat="43.47425189187127" lon="10.668216590043011"><ele>171.0</ele><time>2026-04-19T10:58:02Z</time></trkpt><trkpt lat="43.47435357435903" lon="10.668268982914778"><ele>171.0</ele><time>2026-04-19T10:58:03Z</time></trkpt><trkpt lat="43.474460944526164" lon="10.668322333472439"><ele>171.0</ele><time>2026-04-19T10:58:04Z</time></trkpt><trkpt lat="43.47457262546585" lon="10.668371551157488"><ele>171.0</ele><time>2026-04-19T10:58:05Z</time></trkpt><trkpt lat="43.47468543670934" lon="10.66842401499187"><ele>171.0</ele><time>2026-04-19T10:58:06Z</time></trkpt><trkpt lat="43.47479369967087" lon="10.668481833220984"><ele>170.20000000000002</ele><time>2026-04-19T10:58:07Z</time></trkpt><trkpt lat="43.47489398607392" lon="10.668556499425053"><ele>169.4</ele><time>2026-04-19T10:58:08Z</time></trkpt><trkpt lat="43.47498866306307" lon="10.668653682882875"><ele>168.6</ele><time>2026-04-19T10:58:09Z</time></trkpt><trkpt lat="43.47507292005285" lon="10.66875674472"><ele>167.8</ele><time>2026-04-19T10:58:10Z</time></trkpt><trkpt lat="43.475153924761756" lon="10.668834778388439"><ele>167.0</ele><time>2026-04-19T10:58:11Z</time></trkpt><trkpt lat="43.475234855926075" lon="10.668912814354272"><ele>167.0</ele><time>2026-04-19T10:58:12Z</time></trkpt><trkpt lat="43.47532316138564" lon="10.668992952688468"><ele>167.0</ele><time>2026-04-19T10:58:13Z</time></trkpt><trkpt lat="43.47544534852797" lon="10.669019177284186"><ele>167.0</ele><time>2026-04-19T10:58:14Z</time></trkpt><trkpt lat="43.47558374982927" lon="10.668996192120524"><ele>167.0</ele><time>2026-04-19T10:58:15Z</time></trkpt><trkpt lat="43.47571613550954" lon="10.668934498285408"><ele>163.33333333333331</ele><time>2026-04-19T10:58:16Z</time></trkpt><trkpt lat="43.47585810597917" lon="10.66888876768625"><ele>159.66666666666666</ele><time>2026-04-19T10:58:17Z</time></trkpt><trkpt lat="43.476010691525964" lon="10.668864092025327"><ele>156.0</ele><time>2026-04-19T10:58:18Z</time></trkpt><trkpt lat="43.47616365974958" lon="10.668817423765633"><ele>154.33333333333334</ele><time>2026-04-19T10:58:19Z</time></trkpt><trkpt lat="43.47631261605097" lon="10.668773635751808"><ele>152.66666666666669</ele><time>2026-04-19T10:58:20Z</time></trkpt><trkpt lat="43.47645821306564" lon="10.668730659828041"><ele>151.0</ele><time>2026-04-19T10:58:21Z</time></trkpt><trkpt lat="43.476604127974646" lon="10.66868832287526"><ele>151.0</ele><time>2026-04-19T10:58:22Z</time></trkpt><trkpt lat="43.47674972967893" lon="10.668646076857211"><ele>151.0</ele><time>2026-04-19T10:58:23Z</time></trkpt><trkpt lat="43.476895968050336" lon="10.668603127862166"><ele>151.0</ele><time>2026-04-19T10:58:24Z</time></trkpt><trkpt lat="43.47704018266921" lon="10.668562680379107"><ele>151.0</ele><time>2026-04-19T10:58:25Z</time></trkpt><trkpt lat="43.47717829583229" lon="10.66852955192776"><ele>152.33333333333334</ele><time>2026-04-19T10:58:26Z</time></trkpt><trkpt lat="43.47730348025292" lon="10.668499524551066"><ele>153.66666666666669</ele><time>2026-04-19T10:58:27Z</time></trkpt><trkpt lat="43.477398185121075" lon="10.668476808181861"><ele>155.0</ele><time>2026-04-19T10:58:28Z</time></trkpt><trkpt lat="43.47746814096264" lon="10.668460028167635"><ele>156.33333333333334</ele><time>2026-04-19T10:58:29Z</time></trkpt><trkpt lat="43.47754208243327" lon="10.668442581123589"><ele>157.66666666666666</ele><time>2026-04-19T10:58:30Z</time></trkpt><trkpt lat="43.47761381290376" lon="10.668427470918934"><ele>159.0</ele><time>2026-04-19T10:58:31Z</time></trkpt><trkpt lat="43.47768982166834" lon="10.668411459493505"><ele>159.0</ele><time>2026-04-19T10:58:32Z</time></trkpt><trkpt lat="43.477765570478425" lon="10.668395502859708"><ele>159.0</ele><time>2026-04-19T10:58:33Z</time></trkpt><trkpt lat="43.47783303275421" lon="10.668381291895608"><ele>159.0</ele><time>2026-04-19T10:58:34Z</time></trkpt><trkpt lat="43.47790107646684" lon="10.66837234281141"><ele>159.0</ele><time>2026-04-19T10:58:35Z</time></trkpt><trkpt lat="43.477975535352655" lon="10.6683731940799"><ele>159.0</ele><time>2026-04-19T10:58:36Z</time></trkpt><trkpt lat="43.47805426269452" lon="10.668384143059734"><ele>159.0</ele><time>2026-04-19T10:58:37Z</time></trkpt><trkpt lat="43.47813740910325" lon="10.668404114446592"><ele>158.4</ele><time>2026-04-19T10:58:38Z</time></trkpt><trkpt lat="43.47822976190071" lon="10.668432376314373"><ele>157.8</ele><time>2026-04-19T10:58:39Z</time></trkpt><trkpt lat="43.4783317215744" lon="10.668464098387565"><ele>157.2</ele><time>2026-04-19T10:58:40Z</time></trkpt><trkpt lat="43.47843930150861" lon="10.66849657239783"><ele>156.6</ele><time>2026-04-19T10:58:41Z</time></trkpt><trkpt lat="43.47855354165191" lon="10.66853011546109"><ele>156.0</ele><time>2026-04-19T10:58:42Z</time></trkpt><trkpt lat="43.47867097268519" lon="10.66856386067871"><ele>156.0</ele><time>2026-04-19T10:58:43Z</time></trkpt><trkpt lat="43.47878764109824" lon="10.668590484369195"><ele>156.0</ele><time>2026-04-19T10:58:44Z</time></trkpt><trkpt lat="43.47887806542474" lon="10.668608341927186"><ele>156.0</ele><time>2026-04-19T10:58:45Z</time></trkpt><trkpt lat="43.47897015637005" lon="10.668613713726234"><ele>156.0</ele><time>2026-04-19T10:58:46Z</time></trkpt><trkpt lat="43.47906066304801" lon="10.668589320450083"><ele>156.0</ele><time>2026-04-19T10:58:47Z</time></trkpt><trkpt lat="43.47915300976879" lon="10.66859315640819"><ele>156.0</ele><time>2026-04-19T10:58:48.001Z</time></trkpt><trkpt lat="43.47924314649986" lon="10.668550467595388"><ele>156.0</ele><time>2026-04-19T10:58:49.001Z</time></trkpt><trkpt lat="43.47933256771162" lon="10.66847612198877"><ele>156.0</ele><time>2026-04-19T10:58:50.001Z</time></trkpt><trkpt lat="43.47942734720461" lon="10.66840100905744"><ele>156.0</ele><time>2026-04-19T10:58:51.001Z</time></trkpt><trkpt lat="43.4795200798637" lon="10.66834579809634"><ele>156.0</ele><time>2026-04-19T10:58:52.001Z</time></trkpt><trkpt lat="43.479614769335946" lon="10.66830215344908"><ele>155.8</ele><time>2026-04-19T10:58:53.001Z</time></trkpt><trkpt lat="43.479718035230434" lon="10.66835559960333"><ele>155.6</ele><time>2026-04-19T10:58:54.001Z</time></trkpt><trkpt lat="43.47981197545239" lon="10.668418589416696"><ele>155.4</ele><time>2026-04-19T10:58:55.001Z</time></trkpt><trkpt lat="43.47987955498583" lon="10.668529664247464"><ele>155.2</ele><time>2026-04-19T10:58:56.001Z</time></trkpt><trkpt lat="43.479929945059354" lon="10.668660381582198"><ele>155.0</ele><time>2026-04-19T10:58:57.001Z</time></trkpt><trkpt lat="43.47998630449218" lon="10.66877844551663"><ele>155.0</ele><time>2026-04-19T10:58:58.001Z</time></trkpt><trkpt lat="43.4800424601317" lon="10.668889147004943"><ele>155.0</ele><time>2026-04-19T10:58:59.001Z</time></trkpt><trkpt lat="43.48009925056754" lon="10.668996999205639"><ele>155.0</ele><time>2026-04-19T10:59:00.001Z</time></trkpt><trkpt lat="43.480160021489525" lon="10.669107888538122"><ele>155.0</ele><time>2026-04-19T10:59:01.001Z</time></trkpt><trkpt lat="43.48022491286682" lon="10.669219938267743"><ele>155.0</ele><time>2026-04-19T10:59:02.001Z</time></trkpt><trkpt lat="43.48029429151595" lon="10.669331420772224"><ele>155.6</ele><time>2026-04-19T10:59:03.001Z</time></trkpt><trkpt lat="43.480362474144464" lon="10.66944741841694"><ele>156.2</ele><time>2026-04-19T10:59:04.001Z</time></trkpt><trkpt lat="43.48043320254789" lon="10.669559079796656"><ele>156.8</ele><time>2026-04-19T10:59:05.001Z</time></trkpt><trkpt lat="43.480501114064126" lon="10.669668168403097"><ele>157.4</ele><time>2026-04-19T10:59:06.001Z</time></trkpt><trkpt lat="43.48056890906231" lon="10.669774575114312"><ele>158.0</ele><time>2026-04-19T10:59:07.001Z</time></trkpt><trkpt lat="43.480633806562196" lon="10.669876987045603"><ele>158.0</ele><time>2026-04-19T10:59:07.999Z</time></trkpt><trkpt lat="43.48069636459689" lon="10.669974929154938"><ele>158.0</ele><time>2026-04-19T10:59:08.999Z</time></trkpt><trkpt lat="43.48076024328608" lon="10.670072533757393"><ele>158.0</ele><time>2026-04-19T10:59:09.999Z</time></trkpt><trkpt lat="43.48082295647444" lon="10.67017128459874"><ele>158.0</ele><time>2026-04-19T10:59:10.999Z</time></trkpt><trkpt lat="43.48088228307301" lon="10.670275172108687"><ele>158.0</ele><time>2026-04-19T10:59:11.999Z</time></trkpt><trkpt lat="43.48092247998113" lon="10.670399912366475"><ele>158.4</ele><time>2026-04-19T10:59:13Z</time></trkpt><trkpt lat="43.48093318642538" lon="10.670541970729321"><ele>158.8</ele><time>2026-04-19T10:59:14Z</time></trkpt><trkpt lat="43.480913565831685" lon="10.670687527183949"><ele>159.2</ele><time>2026-04-19T10:59:15Z</time></trkpt><trkpt lat="43.48087292057835" lon="10.670829937009504"><ele>159.6</ele><time>2026-04-19T10:59:16Z</time></trkpt><trkpt lat="43.480840586020996" lon="10.670961173584141"><ele>160.0</ele><time>2026-04-19T10:59:17Z</time></trkpt><trkpt lat="43.48082385414118" lon="10.671089609699933"><ele>158.4</ele><time>2026-04-19T10:59:18Z</time></trkpt><trkpt lat="43.48083436340922" lon="10.671228866499554"><ele>156.8</ele><time>2026-04-19T10:59:19Z</time></trkpt><trkpt lat="43.480875180207526" lon="10.671365813074976"><ele>155.2</ele><time>2026-04-19T10:59:20Z</time></trkpt><trkpt lat="43.480913597360065" lon="10.67151255202818"><ele>153.6</ele><time>2026-04-19T10:59:21Z</time></trkpt><trkpt lat="43.4809448269804" lon="10.67166810575002"><ele>152.0</ele><time>2026-04-19T10:59:22Z</time></trkpt><trkpt lat="43.48098441873156" lon="10.671826160572028"><ele>150.0</ele><time>2026-04-19T10:59:23Z</time></trkpt><trkpt lat="43.48102272466383" lon="10.671993101954863"><ele>148.0</ele><time>2026-04-19T10:59:24Z</time></trkpt><trkpt lat="43.4810618520079" lon="10.672162634849816"><ele>146.0</ele><time>2026-04-19T10:59:25Z</time></trkpt><trkpt lat="43.48109898481085" lon="10.672337647054961"><ele>144.0</ele><time>2026-04-19T10:59:26Z</time></trkpt><trkpt lat="43.48113869131383" lon="10.672513210233976"><ele>144.0</ele><time>2026-04-19T10:59:27Z</time></trkpt><trkpt lat="43.481183222444194" lon="10.672688942978409"><ele>144.0</ele><time>2026-04-19T10:59:28Z</time></trkpt><trkpt lat="43.481236319569966" lon="10.67285654946903"><ele>144.0</ele><time>2026-04-19T10:59:29Z</time></trkpt><trkpt lat="43.48129657606388" lon="10.673014201790945"><ele>144.0</ele><time>2026-04-19T10:59:30Z</time></trkpt><trkpt lat="43.481356775733346" lon="10.673165862468686"><ele>142.25</ele><time>2026-04-19T10:59:31Z</time></trkpt><trkpt lat="43.48140630515693" lon="10.673320573304455"><ele>140.5</ele><time>2026-04-19T10:59:32Z</time></trkpt><trkpt lat="43.481463575110084" lon="10.67346482439693"><ele>138.75</ele><time>2026-04-19T10:59:33Z</time></trkpt><trkpt lat="43.481535187366724" lon="10.673586043051653"><ele>137.0</ele><time>2026-04-19T10:59:34Z</time></trkpt><trkpt lat="43.48160965133266" lon="10.673694394730799"><ele>137.0</ele><time>2026-04-19T10:59:35Z</time></trkpt><trkpt lat="43.481717160849165" lon="10.673730868145544"><ele>137.0</ele><time>2026-04-19T10:59:36Z</time></trkpt><trkpt lat="43.48181796280974" lon="10.673758084424598"><ele>137.0</ele><time>2026-04-19T10:59:37Z</time></trkpt><trkpt lat="43.48190387231277" lon="10.673791540492088"><ele>137.0</ele><time>2026-04-19T10:59:38Z</time></trkpt><trkpt lat="43.48197218138363" lon="10.673800347511703"><ele>137.0</ele><time>2026-04-19T10:59:39Z</time></trkpt><trkpt lat="43.48203478686817" lon="10.673788063650909"><ele>137.0</ele><time>2026-04-19T10:59:41Z</time></trkpt><trkpt lat="43.48211624263254" lon="10.673804143857339"><ele>137.0</ele><time>2026-04-19T10:59:47Z</time></trkpt><trkpt lat="43.482186907180775" lon="10.673909524836846"><ele>137.0</ele><time>2026-04-19T10:59:50Z</time></trkpt><trkpt lat="43.48220941246437" lon="10.674007628734447"><ele>137.0</ele><time>2026-04-19T10:59:53Z</time></trkpt><trkpt lat="43.48224996179107" lon="10.674131065182706"><ele>137.0</ele><time>2026-04-19T11:00:07.001Z</time></trkpt><trkpt lat="43.482290424612174" lon="10.674261877188634"><ele>137.0</ele><time>2026-04-19T11:00:09.001Z</time></trkpt><trkpt lat="43.48231149913672" lon="10.674346329984562"><ele>137.0</ele><time>2026-04-19T11:00:10.001Z</time></trkpt><trkpt lat="43.48232989997783" lon="10.674443565820555"><ele>137.4</ele><time>2026-04-19T11:00:11.001Z</time></trkpt><trkpt lat="43.48234197616935" lon="10.674554111048886"><ele>137.79999999999998</ele><time>2026-04-19T11:00:12.001Z</time></trkpt><trkpt lat="43.48234404277503" lon="10.674674146383383"><ele>138.2</ele><time>2026-04-19T11:00:13.001Z</time></trkpt><trkpt lat="43.48233827747528" lon="10.674800529188937"><ele>138.6</ele><time>2026-04-19T11:00:14.001Z</time></trkpt><trkpt lat="43.48232081481322" lon="10.674933921310693"><ele>139.0</ele><time>2026-04-19T11:00:15.001Z</time></trkpt><trkpt lat="43.482298220858674" lon="10.675062006357955"><ele>139.0</ele><time>2026-04-19T11:00:16.001Z</time></trkpt><trkpt lat="43.482271439121746" lon="10.675178027329917"><ele>139.0</ele><time>2026-04-19T11:00:17.001Z</time></trkpt><trkpt lat="43.48224273668181" lon="10.675286659598415"><ele>139.0</ele><time>2026-04-19T11:00:18.001Z</time></trkpt><trkpt lat="43.482211649052346" lon="10.675390317854403"><ele>139.0</ele><time>2026-04-19T11:00:19.001Z</time></trkpt><trkpt lat="43.4821814370505" lon="10.6754879453873"><ele>139.0</ele><time>2026-04-19T11:00:20.001Z</time></trkpt><trkpt lat="43.48215133641851" lon="10.675585502445633"><ele>139.0</ele><time>2026-04-19T11:00:21.001Z</time></trkpt><trkpt lat="43.48212030837339" lon="10.67568645455314"><ele>137.83333333333334</ele><time>2026-04-19T11:00:22.001Z</time></trkpt><trkpt lat="43.48208873734058" lon="10.675791857937927"><ele>136.66666666666669</ele><time>2026-04-19T11:00:23.001Z</time></trkpt><trkpt lat="43.482055630579865" lon="10.675900268137593"><ele>135.5</ele><time>2026-04-19T11:00:24.001Z</time></trkpt><trkpt lat="43.482020878322395" lon="10.67601241159162"><ele>134.33333333333334</ele><time>2026-04-19T11:00:25.001Z</time></trkpt><trkpt lat="43.48198216703494" lon="10.676128781616848"><ele>133.16666666666666</ele><time>2026-04-19T11:00:26.001Z</time></trkpt><trkpt lat="43.4819444861756" lon="10.67624932290591"><ele>132.0</ele><time>2026-04-19T11:00:27.001Z</time></trkpt><trkpt lat="43.48190518645446" lon="10.676375012696957"><ele>131.6</ele><time>2026-04-19T11:00:28.001Z</time></trkpt><trkpt lat="43.481866451143866" lon="10.676505959950306"><ele>131.2</ele><time>2026-04-19T11:00:29.001Z</time></trkpt><trkpt lat="43.48182628306204" lon="10.676641036568572"><ele>130.8</ele><time>2026-04-19T11:00:30.001Z</time></trkpt><trkpt lat="43.481785625951204" lon="10.676779812747421"><ele>130.4</ele><time>2026-04-19T11:00:31.001Z</time></trkpt><trkpt lat="43.48174431766405" lon="10.676923542431004"><ele>130.0</ele><time>2026-04-19T11:00:32.001Z</time></trkpt><trkpt lat="43.48170071813469" lon="10.677067610117689"><ele>129.4</ele><time>2026-04-19T11:00:33.001Z</time></trkpt><trkpt lat="43.48165848820228" lon="10.677207906549679"><ele>128.8</ele><time>2026-04-19T11:00:34.001Z</time></trkpt><trkpt lat="43.48161694920464" lon="10.677346019284832"><ele>128.2</ele><time>2026-04-19T11:00:35.001Z</time></trkpt><trkpt lat="43.48157727543303" lon="10.677481117369329"><ele>127.6</ele><time>2026-04-19T11:00:36.001Z</time></trkpt><trkpt lat="43.481538536250795" lon="10.677607680341364"><ele>127.0</ele><time>2026-04-19T11:00:37.001Z</time></trkpt><trkpt lat="43.48150393327742" lon="10.677719674341624"><ele>126.6</ele><time>2026-04-19T11:00:38.001Z</time></trkpt><trkpt lat="43.48147533737282" lon="10.677816863062146"><ele>126.19999999999999</ele><time>2026-04-19T11:00:39.001Z</time></trkpt><trkpt lat="43.481437316643664" lon="10.677954792266151"><ele>125.8</ele><time>2026-04-19T11:00:41.001Z</time></trkpt><trkpt lat="43.481411481453335" lon="10.678069576136338"><ele>125.4</ele><time>2026-04-19T11:00:44.001Z</time></trkpt><trkpt lat="43.48134546479744" lon="10.678106014859662"><ele>125.0</ele><time>2026-04-19T11:00:48.001Z</time></trkpt><trkpt lat="43.48142190272831" lon="10.67798146692438"><ele>125.0</ele><time>2026-04-19T11:02:32.001Z</time></trkpt><trkpt lat="43.48140270258995" lon="10.67810884637747"><ele>125.0</ele><time>2026-04-19T11:02:47.001Z</time></trkpt><trkpt lat="43.48137852811311" lon="10.678278325195407"><ele>125.0</ele><time>2026-04-19T11:02:49.001Z</time></trkpt><trkpt lat="43.48137007315301" lon="10.678386432406159"><ele>125.0</ele><time>2026-04-19T11:02:50.001Z</time></trkpt><trkpt lat="43.481362825856465" lon="10.678509907733392"><ele>125.0</ele><time>2026-04-19T11:02:51.001Z</time></trkpt><trkpt lat="43.481355553910966" lon="10.678646014726421"><ele>124.5</ele><time>2026-04-19T11:02:52.001Z</time></trkpt><trkpt lat="43.481348805241055" lon="10.678794279494264"><ele>124.0</ele><time>2026-04-19T11:02:53.001Z</time></trkpt><trkpt lat="43.48133851896066" lon="10.67895034200615"><ele>123.5</ele><time>2026-04-19T11:02:54.001Z</time></trkpt><trkpt lat="43.481326461360425" lon="10.679116761777943"><ele>123.0</ele><time>2026-04-19T11:02:55.002Z</time></trkpt><trkpt lat="43.481317800501884" lon="10.679292432187689"><ele>122.5</ele><time>2026-04-19T11:02:56.002Z</time></trkpt><trkpt lat="43.48130804902254" lon="10.679477575710774"><ele>122.0</ele><time>2026-04-19T11:02:57.002Z</time></trkpt><trkpt lat="43.481296773048356" lon="10.679671724044175"><ele>121.5</ele><time>2026-04-19T11:02:58.002Z</time></trkpt><trkpt lat="43.48128689136859" lon="10.679873090607547"><ele>121.0</ele><time>2026-04-19T11:02:59.002Z</time></trkpt><trkpt lat="43.481274560407556" lon="10.680081546553907"><ele>120.66666666666667</ele><time>2026-04-19T11:03:00.002Z</time></trkpt><trkpt lat="43.48126171160998" lon="10.680295932492974"><ele>120.33333333333334</ele><time>2026-04-19T11:03:01.002Z</time></trkpt><trkpt lat="43.481248736885476" lon="10.68051824158916"><ele>120.0</ele><time>2026-04-19T11:03:02.002Z</time></trkpt><trkpt lat="43.48123465403029" lon="10.680745070814634"><ele>120.0</ele><time>2026-04-19T11:03:03.002Z</time></trkpt><trkpt lat="43.48121852390716" lon="10.68097547198714"><ele>120.0</ele><time>2026-04-19T11:03:04.002Z</time></trkpt><trkpt lat="43.48120239689681" lon="10.681210581674126"><ele>120.0</ele><time>2026-04-19T11:03:05.002Z</time></trkpt><trkpt lat="43.48118850677178" lon="10.681449620717492"><ele>119.66666666666666</ele><time>2026-04-19T11:03:06.002Z</time></trkpt><trkpt lat="43.481175164761694" lon="10.68168597335032"><ele>119.33333333333333</ele><time>2026-04-19T11:03:07.002Z</time></trkpt><trkpt lat="43.48115983602081" lon="10.681920218414051"><ele>119.0</ele><time>2026-04-19T11:03:08.002Z</time></trkpt><trkpt lat="43.48114531815382" lon="10.682150990283565"><ele>118.66666666666666</ele><time>2026-04-19T11:03:09.002Z</time></trkpt><trkpt lat="43.481131090669166" lon="10.682379511871035"><ele>118.33333333333334</ele><time>2026-04-19T11:03:10.002Z</time></trkpt><trkpt lat="43.48111665106321" lon="10.682605837065674"><ele>118.0</ele><time>2026-04-19T11:03:11.002Z</time></trkpt><trkpt lat="43.48110084570526" lon="10.682828760379195"><ele>117.33333333333334</ele><time>2026-04-19T11:03:12.002Z</time></trkpt><trkpt lat="43.48109204356685" lon="10.683048258153644"><ele>116.66666666666666</ele><time>2026-04-19T11:03:13.002Z</time></trkpt><trkpt lat="43.48111573922799" lon="10.683288759790104"><ele>116.0</ele><time>2026-04-19T11:03:14.002Z</time></trkpt><trkpt lat="43.48117101662073" lon="10.683494640803357"><ele>116.0</ele><time>2026-04-19T11:03:15.002Z</time></trkpt><trkpt lat="43.481256217729076" lon="10.683685982183988"><ele>116.0</ele><time>2026-04-19T11:03:16.002Z</time></trkpt><trkpt lat="43.481343657440405" lon="10.683876503414833"><ele>116.0</ele><time>2026-04-19T11:03:17.002Z</time></trkpt><trkpt lat="43.48142150727775" lon="10.684079260055798"><ele>116.0</ele><time>2026-04-19T11:03:18.002Z</time></trkpt><trkpt lat="43.481484873161044" lon="10.68429282117538"><ele>116.0</ele><time>2026-04-19T11:03:19.002Z</time></trkpt><trkpt lat="43.481534848308605" lon="10.684515592603848"><ele>116.0</ele><time>2026-04-19T11:03:20Z</time></trkpt><trkpt lat="43.48157312710733" lon="10.684743801919742"><ele>115.66666666666666</ele><time>2026-04-19T11:03:21Z</time></trkpt><trkpt lat="43.48160603601215" lon="10.684970512770768"><ele>115.33333333333334</ele><time>2026-04-19T11:03:22Z</time></trkpt><trkpt lat="43.481634885989614" lon="10.685189745911735"><ele>115.0</ele><time>2026-04-19T11:03:23Z</time></trkpt><trkpt lat="43.48166980087726" lon="10.685403150617931"><ele>114.33333333333334</ele><time>2026-04-19T11:03:24Z</time></trkpt><trkpt lat="43.48169484905698" lon="10.685611555821229"><ele>113.66666666666666</ele><time>2026-04-19T11:03:25Z</time></trkpt><trkpt lat="43.48169040804575" lon="10.685817732025551"><ele>113.0</ele><time>2026-04-19T11:03:26Z</time></trkpt><trkpt lat="43.48164600692815" lon="10.686017138582262"><ele>113.33333333333333</ele><time>2026-04-19T11:03:27Z</time></trkpt><trkpt lat="43.48159138946387" lon="10.68621120499118"><ele>113.66666666666666</ele><time>2026-04-19T11:03:28Z</time></trkpt><trkpt lat="43.48154490251033" lon="10.686416693057865"><ele>114.0</ele><time>2026-04-19T11:03:29Z</time></trkpt><trkpt lat="43.48150095551807" lon="10.68663077675621"><ele>114.0</ele><time>2026-04-19T11:03:30Z</time></trkpt><trkpt lat="43.48145958850405" lon="10.686853327884059"><ele>114.0</ele><time>2026-04-19T11:03:31Z</time></trkpt><trkpt lat="43.48142239774081" lon="10.68708073503466"><ele>114.0</ele><time>2026-04-19T11:03:32Z</time></trkpt><trkpt lat="43.481383248718615" lon="10.687309728087396"><ele>115.0</ele><time>2026-04-19T11:03:33Z</time></trkpt><trkpt lat="43.481342910973616" lon="10.687534660731215"><ele>116.0</ele><time>2026-04-19T11:03:34Z</time></trkpt><trkpt lat="43.48130648986588" lon="10.687755823976486"><ele>117.0</ele><time>2026-04-19T11:03:35Z</time></trkpt><trkpt lat="43.48128727207618" lon="10.68798262426897"><ele>117.33333333333334</ele><time>2026-04-19T11:03:36Z</time></trkpt><trkpt lat="43.48128623158605" lon="10.688215645685744"><ele>117.66666666666667</ele><time>2026-04-19T11:03:37Z</time></trkpt><trkpt lat="43.48130131135545" lon="10.688452767877541"><ele>118.0</ele><time>2026-04-19T11:03:38Z</time></trkpt><trkpt lat="43.4813247132673" lon="10.68869363342124"><ele>116.66666666666667</ele><time>2026-04-19T11:03:39Z</time></trkpt><trkpt lat="43.48134555924911" lon="10.688941419817452"><ele>115.33333333333334</ele><time>2026-04-19T11:03:40Z</time></trkpt><trkpt lat="43.48136564217798" lon="10.689197087486331"><ele>114.0</ele><time>2026-04-19T11:03:41Z</time></trkpt><trkpt lat="43.48138586207724" lon="10.689456169029867"><ele>113.0</ele><time>2026-04-19T11:03:42Z</time></trkpt><trkpt lat="43.4814017985362" lon="10.68971513895876"><ele>112.0</ele><time>2026-04-19T11:03:43Z</time></trkpt><trkpt lat="43.48140052363097" lon="10.689970151928291"><ele>111.0</ele><time>2026-04-19T11:03:44Z</time></trkpt><trkpt lat="43.48138017110414" lon="10.69022707302179"><ele>111.0</ele><time>2026-04-19T11:03:45Z</time></trkpt><trkpt lat="43.481342929455366" lon="10.690486618325666"><ele>111.0</ele><time>2026-04-19T11:03:46Z</time></trkpt><trkpt lat="43.4812940778063" lon="10.690742950696128"><ele>111.0</ele><time>2026-04-19T11:03:47Z</time></trkpt><trkpt lat="43.481243881386675" lon="10.69099837601835"><ele>110.33333333333334</ele><time>2026-04-19T11:03:48Z</time></trkpt><trkpt lat="43.4811957096117" lon="10.691253783224273"><ele>109.66666666666667</ele><time>2026-04-19T11:03:49Z</time></trkpt><trkpt lat="43.48114810827283" lon="10.69150372673182"><ele>109.0</ele><time>2026-04-19T11:03:50Z</time></trkpt><trkpt lat="43.4810989443978" lon="10.691750208524065"><ele>108.33333333333334</ele><time>2026-04-19T11:03:51Z</time></trkpt><trkpt lat="43.481050110232694" lon="10.691997431809114"><ele>107.66666666666666</ele><time>2026-04-19T11:03:52Z</time></trkpt><trkpt lat="43.4810179850828" lon="10.692248637278745"><ele>107.0</ele><time>2026-04-19T11:03:53.001Z</time></trkpt><trkpt lat="43.4809922336687" lon="10.692498671058075"><ele>107.0</ele><time>2026-04-19T11:03:54.001Z</time></trkpt><trkpt lat="43.480956784415675" lon="10.692736842376043"><ele>107.0</ele><time>2026-04-19T11:03:55.001Z</time></trkpt><trkpt lat="43.48089108657917" lon="10.692960307579002"><ele>107.0</ele><time>2026-04-19T11:03:56.001Z</time></trkpt><trkpt lat="43.48081051490243" lon="10.693170249324671"><ele>106.66666666666666</ele><time>2026-04-19T11:03:57.001Z</time></trkpt><trkpt lat="43.480724554964254" lon="10.693374881398261"><ele>106.33333333333334</ele><time>2026-04-19T11:03:58.001Z</time></trkpt><trkpt lat="43.480631543196175" lon="10.693560078529673"><ele>106.0</ele><time>2026-04-19T11:03:59.001Z</time></trkpt><trkpt lat="43.48052897651291" lon="10.69370525774313"><ele>106.33333333333334</ele><time>2026-04-19T11:04:00.001Z</time></trkpt><trkpt lat="43.48038891845448" lon="10.693794515196839"><ele>106.66666666666666</ele><time>2026-04-19T11:04:01.001Z</time></trkpt><trkpt lat="43.48023999153798" lon="10.693843674893973"><ele>107.0</ele><time>2026-04-19T11:04:02.001Z</time></trkpt><trkpt lat="43.4801045202549" lon="10.693933651351731"><ele>107.0</ele><time>2026-04-19T11:04:03.001Z</time></trkpt><trkpt lat="43.479857940905546" lon="10.694217327281098"><ele>107.0</ele><time>2026-04-19T11:04:05.001Z</time></trkpt><trkpt lat="43.47973443952022" lon="10.694377245445182"><ele>105.66666666666666</ele><time>2026-04-19T11:04:06.001Z</time></trkpt><trkpt lat="43.47961721011924" lon="10.69454773229229"><ele>104.33333333333334</ele><time>2026-04-19T11:04:07.001Z</time></trkpt><trkpt lat="43.4795072186191" lon="10.694730109878563"><ele>103.0</ele><time>2026-04-19T11:04:08.001Z</time></trkpt><trkpt lat="43.47939987832723" lon="10.694919157619456"><ele>103.0</ele><time>2026-04-19T11:04:09.001Z</time></trkpt><trkpt lat="43.47930185966044" lon="10.695127214160502"><ele>103.0</ele><time>2026-04-19T11:04:10.001Z</time></trkpt><trkpt lat="43.479210444230816" lon="10.695344376028762"><ele>103.0</ele><time>2026-04-19T11:04:11.001Z</time></trkpt><trkpt lat="43.47913076112376" lon="10.695572492133149"><ele>103.33333333333334</ele><time>2026-04-19T11:04:12.001Z</time></trkpt><trkpt lat="43.47906636970796" lon="10.695820369658906"><ele>103.66666666666666</ele><time>2026-04-19T11:04:13.001Z</time></trkpt><trkpt lat="43.479010435512514" lon="10.69606612527158"><ele>104.0</ele><time>2026-04-19T11:04:14.001Z</time></trkpt><trkpt lat="43.47896702498018" lon="10.696302969707064"><ele>104.0</ele><time>2026-04-19T11:04:15.001Z</time></trkpt><trkpt lat="43.478929304001674" lon="10.696512101835483"><ele>104.0</ele><time>2026-04-19T11:04:16.001Z</time></trkpt><trkpt lat="43.47889316751766" lon="10.69669733355906"><ele>104.0</ele><time>2026-04-19T11:04:17.001Z</time></trkpt><trkpt lat="43.47885844013434" lon="10.696874311660851"><ele>104.0</ele><time>2026-04-19T11:04:18.001Z</time></trkpt><trkpt lat="43.478825511873445" lon="10.697047633065862"><ele>104.0</ele><time>2026-04-19T11:04:19.001Z</time></trkpt><trkpt lat="43.47878417638431" lon="10.697208921164584"><ele>104.0</ele><time>2026-04-19T11:04:20.001Z</time></trkpt><trkpt lat="43.47872131688925" lon="10.69734813749829"><ele>104.0</ele><time>2026-04-19T11:04:21.001Z</time></trkpt><trkpt lat="43.478636959660186" lon="10.69746547811422"><ele>104.0</ele><time>2026-04-19T11:04:22.001Z</time></trkpt><trkpt lat="43.4785298324157" lon="10.697542062510877"><ele>102.5</ele><time>2026-04-19T11:04:23.001Z</time></trkpt><trkpt lat="43.478430119287104" lon="10.697639280158073"><ele>101.0</ele><time>2026-04-19T11:04:24.001Z</time></trkpt><trkpt lat="43.478318029948575" lon="10.697712822865284"><ele>99.5</ele><time>2026-04-19T11:04:25.001Z</time></trkpt><trkpt lat="43.47821133604732" lon="10.697794596909338"><ele>98.0</ele><time>2026-04-19T11:04:26.001Z</time></trkpt><trkpt lat="43.47810682014375" lon="10.697875054455366"><ele>97.60000000000001</ele><time>2026-04-19T11:04:27.001Z</time></trkpt><trkpt lat="43.478005732824975" lon="10.69795410207567"><ele>97.2</ele><time>2026-04-19T11:04:28.001Z</time></trkpt><trkpt lat="43.47790716229852" lon="10.698034022768406"><ele>96.8</ele><time>2026-04-19T11:04:29.001Z</time></trkpt><trkpt lat="43.47781550287193" lon="10.698110280825615"><ele>96.4</ele><time>2026-04-19T11:04:30.001Z</time></trkpt><trkpt lat="43.477742829312824" lon="10.698174567970682"><ele>96.0</ele><time>2026-04-19T11:04:31.001Z</time></trkpt><trkpt lat="43.477691532349354" lon="10.698231428646858"><ele>96.0</ele><time>2026-04-19T11:04:32.001Z</time></trkpt><trkpt lat="43.4776241456952" lon="10.698337891296374"><ele>96.0</ele><time>2026-04-19T11:04:34.001Z</time></trkpt><trkpt lat="43.47758697817585" lon="10.698419017602852"><ele>96.0</ele><time>2026-04-19T11:04:36.001Z</time></trkpt><trkpt lat="43.47754561876417" lon="10.69849969581562"><ele>96.0</ele><time>2026-04-19T11:04:38.001Z</time></trkpt><trkpt lat="43.47748495920087" lon="10.698540391746336"><ele>96.0</ele><time>2026-04-19T11:04:41.001Z</time></trkpt><trkpt lat="43.47745512385942" lon="10.698447033973098"><ele>96.0</ele><time>2026-04-19T11:04:42.001Z</time></trkpt><trkpt lat="43.47738576334456" lon="10.698360577441722"><ele>96.0</ele><time>2026-04-19T11:04:44.001Z</time></trkpt><trkpt lat="43.477255959824355" lon="10.698385282817686"><ele>96.0</ele><time>2026-04-19T11:04:47.001Z</time></trkpt><trkpt lat="43.477192061972744" lon="10.698420070005653"><ele>96.0</ele><time>2026-04-19T11:04:50.001Z</time></trkpt><trkpt lat="43.47711348511161" lon="10.698443603886844"><ele>96.0</ele><time>2026-04-19T11:05:01.001Z</time></trkpt><trkpt lat="43.47704909485659" lon="10.698512188267754"><ele>96.0</ele><time>2026-04-19T11:05:28Z</time></trkpt><trkpt lat="43.47700828719211" lon="10.698583604277411"><ele>96.0</ele><time>2026-04-19T11:05:31Z</time></trkpt><trkpt lat="43.47697301820005" lon="10.698680119404548"><ele>95.83333333333333</ele><time>2026-04-19T11:05:47Z</time></trkpt><trkpt lat="43.47694428776364" lon="10.698776872037358"><ele>95.66666666666667</ele><time>2026-04-19T11:05:50Z</time></trkpt><trkpt lat="43.47693328795575" lon="10.698875351958037"><ele>95.5</ele><time>2026-04-19T11:05:53Z</time></trkpt><trkpt lat="43.47690954025195" lon="10.698982821192661"><ele>95.33333333333334</ele><time>2026-04-19T11:05:55Z</time></trkpt><trkpt lat="43.47689639937341" lon="10.699104329130138"><ele>95.16666666666667</ele><time>2026-04-19T11:05:58Z</time></trkpt><trkpt lat="43.47687554842665" lon="10.699231312243938"><ele>95.0</ele><time>2026-04-19T11:06:00Z</time></trkpt><trkpt lat="43.47689056657437" lon="10.699337383420785"><ele>95.0</ele><time>2026-04-19T11:06:02Z</time></trkpt><trkpt lat="43.476910855283265" lon="10.69942219422691"><ele>95.0</ele><time>2026-04-19T11:06:04Z</time></trkpt><trkpt lat="43.47694654177886" lon="10.699497217184312"><ele>95.0</ele><time>2026-04-19T11:06:05Z</time></trkpt><trkpt lat="43.476910310541136" lon="10.699620793142337"><ele>95.0</ele><time>2026-04-19T11:06:07Z</time></trkpt><trkpt lat="43.47687728445504" lon="10.69972336609011"><ele>95.0</ele><time>2026-04-19T11:06:08Z</time></trkpt><trkpt lat="43.47684505000689" lon="10.699829194675642"><ele>95.0</ele><time>2026-04-19T11:06:09Z</time></trkpt><trkpt lat="43.47682525424956" lon="10.699964192539737"><ele>95.0</ele><time>2026-04-19T11:06:10Z</time></trkpt><trkpt lat="43.47682166186041" lon="10.700140894479821"><ele>95.0</ele><time>2026-04-19T11:06:11Z</time></trkpt><trkpt lat="43.47679423049597" lon="10.700314632469645"><ele>95.0</ele><time>2026-04-19T11:06:12Z</time></trkpt><trkpt lat="43.47675760823702" lon="10.70049915661361"><ele>95.0</ele><time>2026-04-19T11:06:13Z</time></trkpt><trkpt lat="43.47670375527283" lon="10.70068111985549"><ele>95.25</ele><time>2026-04-19T11:06:14Z</time></trkpt><trkpt lat="43.47664564539514" lon="10.700863573214214"><ele>95.5</ele><time>2026-04-19T11:06:15Z</time></trkpt><trkpt lat="43.47659016596204" lon="10.701055082670305"><ele>95.75</ele><time>2026-04-19T11:06:16Z</time></trkpt><trkpt lat="43.47653333636515" lon="10.701250040173132"><ele>96.0</ele><time>2026-04-19T11:06:17Z</time></trkpt><trkpt lat="43.47648398665587" lon="10.701423265278272"><ele>95.75</ele><time>2026-04-19T11:06:18Z</time></trkpt><trkpt lat="43.476430754266296" lon="10.70160635170254"><ele>95.5</ele><time>2026-04-19T11:06:19Z</time></trkpt><trkpt lat="43.47637844239975" lon="10.701777346873069"><ele>95.25</ele><time>2026-04-19T11:06:20Z</time></trkpt><trkpt lat="43.47632556137798" lon="10.701946280056385"><ele>95.0</ele><time>2026-04-19T11:06:21.001Z</time></trkpt><trkpt lat="43.476281867985236" lon="10.702117825456808"><ele>95.0</ele><time>2026-04-19T11:06:22.001Z</time></trkpt><trkpt lat="43.476228260398784" lon="10.702286110177873"><ele>95.0</ele><time>2026-04-19T11:06:23.001Z</time></trkpt><trkpt lat="43.476182827056945" lon="10.702437985734905"><ele>95.0</ele><time>2026-04-19T11:06:24.001Z</time></trkpt><trkpt lat="43.476152437738094" lon="10.702528659516313"><ele>95.0</ele><time>2026-04-19T11:06:25.001Z</time></trkpt><trkpt lat="43.47611450493603" lon="10.702627999604806"><ele>95.0</ele><time>2026-04-19T11:06:27.001Z</time></trkpt><trkpt lat="43.476066366621" lon="10.702791111165476"><ele>95.0</ele><time>2026-04-19T11:06:51.001Z</time></trkpt><trkpt lat="43.47603196139766" lon="10.702908341576535"><ele>95.0</ele><time>2026-04-19T11:06:52.001Z</time></trkpt><trkpt lat="43.475996343227145" lon="10.703027059377265"><ele>95.0</ele><time>2026-04-19T11:06:53.001Z</time></trkpt><trkpt lat="43.475959821269235" lon="10.703144079923447"><ele>95.0</ele><time>2026-04-19T11:06:54.001Z</time></trkpt><trkpt lat="43.47592433165126" lon="10.703263126025005"><ele>95.0</ele><time>2026-04-19T11:06:55.001Z</time></trkpt><trkpt lat="43.47589103651015" lon="10.703383052285973"><ele>95.0</ele><time>2026-04-19T11:06:56.001Z</time></trkpt><trkpt lat="43.47585417557076" lon="10.70350775965336"><ele>95.0</ele><time>2026-04-19T11:06:57.001Z</time></trkpt><trkpt lat="43.47581775363813" lon="10.703630460494148"><ele>95.0</ele><time>2026-04-19T11:06:58.001Z</time></trkpt><trkpt lat="43.47578078993949" lon="10.703756779594833"><ele>95.0</ele><time>2026-04-19T11:06:59.001Z</time></trkpt><trkpt lat="43.47574132595319" lon="10.703885634203521"><ele>95.0</ele><time>2026-04-19T11:07:00.001Z</time></trkpt><trkpt lat="43.475701269563814" lon="10.704025041651972"><ele>94.75</ele><time>2026-04-19T11:07:01.001Z</time></trkpt><trkpt lat="43.475660515927856" lon="10.704164783590967"><ele>94.5</ele><time>2026-04-19T11:07:02.001Z</time></trkpt><trkpt lat="43.47561897165644" lon="10.704309993394236"><ele>94.25</ele><time>2026-04-19T11:07:03.001Z</time></trkpt><trkpt lat="43.47557502613337" lon="10.70445610769568"><ele>94.0</ele><time>2026-04-19T11:07:04.001Z</time></trkpt><trkpt lat="43.47553112873761" lon="10.704607879914313"><ele>94.0</ele><time>2026-04-19T11:07:05.001Z</time></trkpt><trkpt lat="43.47548886891285" lon="10.704750522649787"><ele>94.0</ele><time>2026-04-19T11:07:06.001Z</time></trkpt><trkpt lat="43.4754438333607" lon="10.704884218731678"><ele>94.0</ele><time>2026-04-19T11:07:07.001Z</time></trkpt><trkpt lat="43.47538794610658" lon="10.705012597411597"><ele>94.0</ele><time>2026-04-19T11:07:08.001Z</time></trkpt><trkpt lat="43.47532026698133" lon="10.705131413174495"><ele>94.0</ele><time>2026-04-19T11:07:09.001Z</time></trkpt><trkpt lat="43.475234577437824" lon="10.705241310002348"><ele>94.5</ele><time>2026-04-19T11:07:10.001Z</time></trkpt><trkpt lat="43.475135195535984" lon="10.705338028815707"><ele>95.0</ele><time>2026-04-19T11:07:11.001Z</time></trkpt><trkpt lat="43.47503224872015" lon="10.705423021283984"><ele>95.5</ele><time>2026-04-19T11:07:12.001Z</time></trkpt><trkpt lat="43.474925483067665" lon="10.705508082569086"><ele>96.0</ele><time>2026-04-19T11:07:13.001Z</time></trkpt><trkpt lat="43.474817910033" lon="10.705595267747107"><ele>96.0</ele><time>2026-04-19T11:07:14.001Z</time></trkpt><trkpt lat="43.474705025760485" lon="10.705678351996108"><ele>96.0</ele><time>2026-04-19T11:07:15.001Z</time></trkpt><trkpt lat="43.47459856843066" lon="10.705764249394212"><ele>96.0</ele><time>2026-04-19T11:07:16.001Z</time></trkpt><trkpt lat="43.47449191459441" lon="10.705841548703164"><ele>96.0</ele><time>2026-04-19T11:07:17.001Z</time></trkpt><trkpt lat="43.4744015842767" lon="10.705951248451491"><ele>96.5</ele><time>2026-04-19T11:07:18.001Z</time></trkpt><trkpt lat="43.474328067321736" lon="10.706084111028657"><ele>97.0</ele><time>2026-04-19T11:07:19.001Z</time></trkpt><trkpt lat="43.47427495080765" lon="10.70623679642056"><ele>97.5</ele><time>2026-04-19T11:07:20.001Z</time></trkpt><trkpt lat="43.47425354431358" lon="10.706409070920726"><ele>98.0</ele><time>2026-04-19T11:07:21.001Z</time></trkpt><trkpt lat="43.47424904960306" lon="10.706582151514326"><ele>98.0</ele><time>2026-04-19T11:07:22.001Z</time></trkpt><trkpt lat="43.47423943222592" lon="10.706755132240955"><ele>98.0</ele><time>2026-04-19T11:07:23.001Z</time></trkpt><trkpt lat="43.47422570172107" lon="10.706928824390443"><ele>98.0</ele><time>2026-04-19T11:07:24.001Z</time></trkpt><trkpt lat="43.47421380902348" lon="10.707105399397527"><ele>98.0</ele><time>2026-04-19T11:07:25.002Z</time></trkpt><trkpt lat="43.47420174236268" lon="10.707279784725086"><ele>98.4</ele><time>2026-04-19T11:07:26.002Z</time></trkpt><trkpt lat="43.47419013422999" lon="10.707446770743644"><ele>98.80000000000001</ele><time>2026-04-19T11:07:27.002Z</time></trkpt><trkpt lat="43.474186269471" lon="10.707603947012046"><ele>99.2</ele><time>2026-04-19T11:07:28.002Z</time></trkpt><trkpt lat="43.474205662011826" lon="10.707746549311457"><ele>99.6</ele><time>2026-04-19T11:07:29.002Z</time></trkpt><trkpt lat="43.4742584014765" lon="10.70786580833656"><ele>100.0</ele><time>2026-04-19T11:07:30.002Z</time></trkpt><trkpt lat="43.474331003250036" lon="10.707964824377536"><ele>101.4</ele><time>2026-04-19T11:07:31.002Z</time></trkpt><trkpt lat="43.474424194448865" lon="10.708034668080666"><ele>102.8</ele><time>2026-04-19T11:07:32Z</time></trkpt><trkpt lat="43.47452081603601" lon="10.708068943033396"><ele>104.19999999999999</ele><time>2026-04-19T11:07:33Z</time></trkpt><trkpt lat="43.4746130094603" lon="10.708062844525806"><ele>105.6</ele><time>2026-04-19T11:07:34Z</time></trkpt><trkpt lat="43.47468899074317" lon="10.708009031449155"><ele>107.0</ele><time>2026-04-19T11:07:35Z</time></trkpt><trkpt lat="43.4747528930997" lon="10.707932428802005"><ele>108.0</ele><time>2026-04-19T11:07:36Z</time></trkpt><trkpt lat="43.47481754400943" lon="10.707856578802218"><ele>108.99999999999999</ele><time>2026-04-19T11:07:37Z</time></trkpt><trkpt lat="43.4748947552775" lon="10.707789614014398"><ele>109.99999999999999</ele><time>2026-04-19T11:07:38Z</time></trkpt><trkpt lat="43.47498156118807" lon="10.707747609122091"><ele>111.0</ele><time>2026-04-19T11:07:39Z</time></trkpt><trkpt lat="43.475076326411674" lon="10.707728341018482"><ele>112.0</ele><time>2026-04-19T11:07:40Z</time></trkpt><trkpt lat="43.47517410646528" lon="10.707727862105495"><ele>112.19999999999999</ele><time>2026-04-19T11:07:41Z</time></trkpt><trkpt lat="43.475272436427296" lon="10.70772942779406"><ele>112.39999999999999</ele><time>2026-04-19T11:07:42Z</time></trkpt><trkpt lat="43.47537035712156" lon="10.70773273018063"><ele>112.60000000000001</ele><time>2026-04-19T11:07:43Z</time></trkpt><trkpt lat="43.47546999869197" lon="10.707751202584667"><ele>112.80000000000001</ele><time>2026-04-19T11:07:44Z</time></trkpt><trkpt lat="43.47557167207146" lon="10.70778176277924"><ele>113.0</ele><time>2026-04-19T11:07:45Z</time></trkpt><trkpt lat="43.47566678159496" lon="10.707827099199758"><ele>113.0</ele><time>2026-04-19T11:07:46Z</time></trkpt><trkpt lat="43.47575320379168" lon="10.70788745563721"><ele>113.00000000000001</ele><time>2026-04-19T11:07:47Z</time></trkpt><trkpt lat="43.47583074296207" lon="10.707954586705483"><ele>113.00000000000001</ele><time>2026-04-19T11:07:48Z</time></trkpt><trkpt lat="43.47589584892357" lon="10.70803884306964"><ele>113.0</ele><time>2026-04-19T11:07:49Z</time></trkpt><trkpt lat="43.47595845796229" lon="10.708133164834745"><ele>113.0</ele><time>2026-04-19T11:07:50Z</time></trkpt><trkpt lat="43.47601403649661" lon="10.708241389048348"><ele>113.0</ele><time>2026-04-19T11:07:51Z</time></trkpt><trkpt lat="43.4760695579856" lon="10.708349970269834"><ele>113.00000000000001</ele><time>2026-04-19T11:07:52Z</time></trkpt><trkpt lat="43.47612060527638" lon="10.708466960627488"><ele>113.00000000000001</ele><time>2026-04-19T11:07:53Z</time></trkpt><trkpt lat="43.47615788540217" lon="10.708596770061455"><ele>113.0</ele><time>2026-04-19T11:07:54Z</time></trkpt><trkpt lat="43.476175573516024" lon="10.708731111165614"><ele>113.0</ele><time>2026-04-19T11:07:55Z</time></trkpt><trkpt lat="43.47616761272342" lon="10.708868289445245"><ele>114.4</ele><time>2026-04-19T11:07:56Z</time></trkpt><trkpt lat="43.47614758634629" lon="10.709001569469525"><ele>115.80000000000001</ele><time>2026-04-19T11:07:57Z</time></trkpt><trkpt lat="43.47610189980688" lon="10.70912783930627"><ele>117.2</ele><time>2026-04-19T11:07:58Z</time></trkpt><trkpt lat="43.47606409275473" lon="10.70925714868834"><ele>118.6</ele><time>2026-04-19T11:07:59Z</time></trkpt><trkpt lat="43.476027124530304" lon="10.709380782931039"><ele>120.0</ele><time>2026-04-19T11:08:00Z</time></trkpt><trkpt lat="43.475990344644934" lon="10.709512523418313"><ele>120.0</ele><time>2026-04-19T11:08:01Z</time></trkpt><trkpt lat="43.47594982137792" lon="10.709638399343682"><ele>120.0</ele><time>2026-04-19T11:08:02Z</time></trkpt><trkpt lat="43.47589647454438" lon="10.709750857431263"><ele>120.0</ele><time>2026-04-19T11:08:03Z</time></trkpt><trkpt lat="43.47582273427456" lon="10.7098422174783"><ele>120.0</ele><time>2026-04-19T11:08:04Z</time></trkpt><trkpt lat="43.47575506776094" lon="10.709942306866536"><ele>120.0</ele><time>2026-04-19T11:08:05Z</time></trkpt><trkpt lat="43.47568950244346" lon="10.710048631874889"><ele>120.0</ele><time>2026-04-19T11:08:06.001Z</time></trkpt><trkpt lat="43.475600832285345" lon="10.710122224433734"><ele>120.0</ele><time>2026-04-19T11:08:07.001Z</time></trkpt><trkpt lat="43.47551581392717" lon="10.710204900491496"><ele>120.0</ele><time>2026-04-19T11:08:08.001Z</time></trkpt><trkpt lat="43.47542754627658" lon="10.710296302763961"><ele>120.0</ele><time>2026-04-19T11:08:09.001Z</time></trkpt><trkpt lat="43.4753541101044" lon="10.710422086386265"><ele>120.0</ele><time>2026-04-19T11:08:10.001Z</time></trkpt><trkpt lat="43.4752823750156" lon="10.710552488892702"><ele>122.75</ele><time>2026-04-19T11:08:11.001Z</time></trkpt><trkpt lat="43.47522518132354" lon="10.7107079540368"><ele>125.5</ele><time>2026-04-19T11:08:12.001Z</time></trkpt><trkpt lat="43.47517770811375" lon="10.710873692902359"><ele>128.25</ele><time>2026-04-19T11:08:13.001Z</time></trkpt><trkpt lat="43.475120021413005" lon="10.711042147101962"><ele>131.0</ele><time>2026-04-19T11:08:14.001Z</time></trkpt><trkpt lat="43.475071572461275" lon="10.711204193506921"><ele>131.0</ele><time>2026-04-19T11:08:15.001Z</time></trkpt><trkpt lat="43.47502433959777" lon="10.711375418628771"><ele>131.0</ele><time>2026-04-19T11:08:16.001Z</time></trkpt><trkpt lat="43.47497251521955" lon="10.711549881688718"><ele>131.0</ele><time>2026-04-19T11:08:17.001Z</time></trkpt><trkpt lat="43.47492498105344" lon="10.711703055813972"><ele>131.0</ele><time>2026-04-19T11:08:18.001Z</time></trkpt><trkpt lat="43.47487263600711" lon="10.711835818473356"><ele>131.2</ele><time>2026-04-19T11:08:19.001Z</time></trkpt><trkpt lat="43.47481416097598" lon="10.711950833119902"><ele>131.39999999999998</ele><time>2026-04-19T11:08:20.001Z</time></trkpt><trkpt lat="43.47472889163052" lon="10.712002748311754"><ele>131.6</ele><time>2026-04-19T11:08:21.001Z</time></trkpt><trkpt lat="43.47464368606112" lon="10.712032844871837"><ele>131.79999999999998</ele><time>2026-04-19T11:08:22.001Z</time></trkpt><trkpt lat="43.474550195619855" lon="10.712027263903567"><ele>132.0</ele><time>2026-04-19T11:08:23.001Z</time></trkpt><trkpt lat="43.474445355478856" lon="10.712022635838684"><ele>133.2</ele><time>2026-04-19T11:08:24.001Z</time></trkpt><trkpt lat="43.47433623767027" lon="10.71202263583933"><ele>134.39999999999998</ele><time>2026-04-19T11:08:25.001Z</time></trkpt><trkpt lat="43.47422488380501" lon="10.71202312275897"><ele>135.60000000000002</ele><time>2026-04-19T11:08:26.001Z</time></trkpt><trkpt lat="43.47410117276365" lon="10.712045435586644"><ele>136.8</ele><time>2026-04-19T11:08:27.001Z</time></trkpt><trkpt lat="43.47400270978582" lon="10.712059480432204"><ele>138.0</ele><time>2026-04-19T11:08:28.001Z</time></trkpt><trkpt lat="43.47393436815882" lon="10.712103978518126"><ele>138.0</ele><time>2026-04-19T11:08:29.001Z</time></trkpt><trkpt lat="43.473866646172304" lon="10.712171754763752"><ele>138.0</ele><time>2026-04-19T11:08:30.001Z</time></trkpt><trkpt lat="43.473750587160595" lon="10.712302256507876"><ele>138.0</ele><time>2026-04-19T11:08:31.001Z</time></trkpt><trkpt lat="43.47372927172599" lon="10.71242687345204"><ele>138.0</ele><time>2026-04-19T11:08:32.001Z</time></trkpt><trkpt lat="43.473758844015805" lon="10.712644670527068"><ele>135.5</ele><time>2026-04-19T11:08:33.001Z</time></trkpt><trkpt lat="43.47374369917847" lon="10.712834055330598"><ele>133.0</ele><time>2026-04-19T11:08:34.001Z</time></trkpt><trkpt lat="43.47374262661644" lon="10.713025298018342"><ele>130.5</ele><time>2026-04-19T11:08:35.001Z</time></trkpt><trkpt lat="43.4737484442587" lon="10.71319561343874"><ele>128.0</ele><time>2026-04-19T11:08:36.001Z</time></trkpt><trkpt lat="43.473747184619995" lon="10.713323891053273"><ele>127.99999999999999</ele><time>2026-04-19T11:08:37.001Z</time></trkpt><trkpt lat="43.47374516347903" lon="10.71342506560778"><ele>128.0</ele><time>2026-04-19T11:08:38.001Z</time></trkpt><trkpt lat="43.47373719611813" lon="10.713520733657775"><ele>128.0</ele><time>2026-04-19T11:08:39.001Z</time></trkpt><trkpt lat="43.473730558079865" lon="10.713616549768119"><ele>128.0</ele><time>2026-04-19T11:08:40.001Z</time></trkpt><trkpt lat="43.4737265107052" lon="10.713712994082062"><ele>127.99999999999999</ele><time>2026-04-19T11:08:41.001Z</time></trkpt><trkpt lat="43.47372276852682" lon="10.713802287978782"><ele>128.0</ele><time>2026-04-19T11:08:42.001Z</time></trkpt><trkpt lat="43.473716232186334" lon="10.713970689229805"><ele>127.80000000000001</ele><time>2026-04-19T11:08:44.001Z</time></trkpt><trkpt lat="43.47370837638339" lon="10.714129001795925"><ele>127.60000000000001</ele><time>2026-04-19T11:08:46.001Z</time></trkpt><trkpt lat="43.473713783195045" lon="10.714273733772815"><ele>127.39999999999999</ele><time>2026-04-19T11:08:48.001Z</time></trkpt><trkpt lat="43.47374790865453" lon="10.714445489549274"><ele>127.19999999999999</ele><time>2026-04-19T11:08:50.001Z</time></trkpt><trkpt lat="43.47377206504724" lon="10.714547751577056"><ele>127.0</ele><time>2026-04-19T11:08:51.001Z</time></trkpt><trkpt lat="43.473811305583766" lon="10.714646859206354"><ele>128.83333333333334</ele><time>2026-04-19T11:08:52.001Z</time></trkpt><trkpt lat="43.47385529111679" lon="10.714750275347773"><ele>130.66666666666669</ele><time>2026-04-19T11:08:53.001Z</time></trkpt><trkpt lat="43.4738992675786" lon="10.714854370417772"><ele>132.5</ele><time>2026-04-19T11:08:54.001Z</time></trkpt><trkpt lat="43.473940273393566" lon="10.714958999238947"><ele>134.33333333333334</ele><time>2026-04-19T11:08:55.001Z</time></trkpt><trkpt lat="43.473978957165535" lon="10.7150731282407"><ele>136.16666666666666</ele><time>2026-04-19T11:08:56.001Z</time></trkpt><trkpt lat="43.47400926744639" lon="10.715191730574846"><ele>138.0</ele><time>2026-04-19T11:08:57.001Z</time></trkpt><trkpt lat="43.47403599066059" lon="10.715315580110241"><ele>138.0</ele><time>2026-04-19T11:08:58.001Z</time></trkpt><trkpt lat="43.4740590954942" lon="10.715442926179689"><ele>138.0</ele><time>2026-04-19T11:08:59.001Z</time></trkpt><trkpt lat="43.47407005884022" lon="10.71557251901412"><ele>138.0</ele><time>2026-04-19T11:09:00.001Z</time></trkpt><trkpt lat="43.47407076602468" lon="10.715692982922358"><ele>138.0</ele><time>2026-04-19T11:09:01.001Z</time></trkpt><trkpt lat="43.474059894709804" lon="10.715836657452641"><ele>138.0</ele><time>2026-04-19T11:09:02.001Z</time></trkpt><trkpt lat="43.474040548468665" lon="10.715967343329533"><ele>137.6</ele><time>2026-04-19T11:09:03.001Z</time></trkpt><trkpt lat="43.474012425945986" lon="10.71610308727667"><ele>137.20000000000002</ele><time>2026-04-19T11:09:04.001Z</time></trkpt><trkpt lat="43.47398291375543" lon="10.716232174195763"><ele>136.8</ele><time>2026-04-19T11:09:05.001Z</time></trkpt><trkpt lat="43.473927440105165" lon="10.71635059253779"><ele>136.4</ele><time>2026-04-19T11:09:06.001Z</time></trkpt><trkpt lat="43.473873881764916" lon="10.71647220685837"><ele>136.0</ele><time>2026-04-19T11:09:07.001Z</time></trkpt><trkpt lat="43.473826556887744" lon="10.716603533467255"><ele>136.8</ele><time>2026-04-19T11:09:08.001Z</time></trkpt><trkpt lat="43.47375476958609" lon="10.716715249152184"><ele>137.6</ele><time>2026-04-19T11:09:09.001Z</time></trkpt><trkpt lat="43.47368121890085" lon="10.716822574089983"><ele>138.4</ele><time>2026-04-19T11:09:10.001Z</time></trkpt><trkpt lat="43.473611347052824" lon="10.716925023436753"><ele>139.2</ele><time>2026-04-19T11:09:11.002Z</time></trkpt><trkpt lat="43.47353420110021" lon="10.717023808238716"><ele>140.0</ele><time>2026-04-19T11:09:12.002Z</time></trkpt><trkpt lat="43.473471117084415" lon="10.71711994260121"><ele>140.0</ele><time>2026-04-19T11:09:13.002Z</time></trkpt><trkpt lat="43.473409242924916" lon="10.717209443001357"><ele>140.0</ele><time>2026-04-19T11:09:14.002Z</time></trkpt><trkpt lat="43.473351634904766" lon="10.717294607693166"><ele>140.0</ele><time>2026-04-19T11:09:15.002Z</time></trkpt><trkpt lat="43.47328809052337" lon="10.717385203851226"><ele>140.0</ele><time>2026-04-19T11:09:16.002Z</time></trkpt><trkpt lat="43.47322321022212" lon="10.717474013099286"><ele>140.0</ele><time>2026-04-19T11:09:17.002Z</time></trkpt><trkpt lat="43.4731551115405" lon="10.71756622440446"><ele>140.0</ele><time>2026-04-19T11:09:18.002Z</time></trkpt><trkpt lat="43.47308470027777" lon="10.717664032935312"><ele>140.0</ele><time>2026-04-19T11:09:19.002Z</time></trkpt><trkpt lat="43.47301096151699" lon="10.717768522332253"><ele>140.0</ele><time>2026-04-19T11:09:20.002Z</time></trkpt><trkpt lat="43.472930931037816" lon="10.717869730235268"><ele>140.0</ele><time>2026-04-19T11:09:21.002Z</time></trkpt><trkpt lat="43.4728551322241" lon="10.717973177974343"><ele>140.0</ele><time>2026-04-19T11:09:22.002Z</time></trkpt><trkpt lat="43.47277290288918" lon="10.718081963974187"><ele>140.5</ele><time>2026-04-19T11:09:23.002Z</time></trkpt><trkpt lat="43.47269271191998" lon="10.718194076527366"><ele>141.0</ele><time>2026-04-19T11:09:24.002Z</time></trkpt><trkpt lat="43.472612503183555" lon="10.71830974930563"><ele>141.5</ele><time>2026-04-19T11:09:25.002Z</time></trkpt><trkpt lat="43.47252544755343" lon="10.718428614149747"><ele>142.0</ele><time>2026-04-19T11:09:26.002Z</time></trkpt><trkpt lat="43.47243850826462" lon="10.718543880935755"><ele>141.25</ele><time>2026-04-19T11:09:27.002Z</time></trkpt><trkpt lat="43.472349152408114" lon="10.718662774304248"><ele>140.5</ele><time>2026-04-19T11:09:28.002Z</time></trkpt><trkpt lat="43.47226497833918" lon="10.718782006426693"><ele>139.75</ele><time>2026-04-19T11:09:29.002Z</time></trkpt><trkpt lat="43.47218132295647" lon="10.718896663463472"><ele>139.0</ele><time>2026-04-19T11:09:30.002Z</time></trkpt><trkpt lat="43.47209004871801" lon="10.719016554188086"><ele>140.5</ele><time>2026-04-19T11:09:31.002Z</time></trkpt><trkpt lat="43.47200720436196" lon="10.719135577496612"><ele>142.0</ele><time>2026-04-19T11:09:32.002Z</time></trkpt><trkpt lat="43.47192113272288" lon="10.719253109986415"><ele>143.5</ele><time>2026-04-19T11:09:33.002Z</time></trkpt><trkpt lat="43.47183821714445" lon="10.719367590671865"><ele>145.0</ele><time>2026-04-19T11:09:34.002Z</time></trkpt><trkpt lat="43.471749885946245" lon="10.719488256989"><ele>145.5</ele><time>2026-04-19T11:09:35.002Z</time></trkpt><trkpt lat="43.471661782082336" lon="10.719605082326519"><ele>146.0</ele><time>2026-04-19T11:09:36.002Z</time></trkpt><trkpt lat="43.47157164040858" lon="10.71972582833808"><ele>146.5</ele><time>2026-04-19T11:09:37.002Z</time></trkpt><trkpt lat="43.47148308213039" lon="10.719848462821508"><ele>147.0</ele><time>2026-04-19T11:09:38.001Z</time></trkpt><trkpt lat="43.471396266778434" lon="10.71996355574948"><ele>147.0</ele><time>2026-04-19T11:09:39Z</time></trkpt><trkpt lat="43.47130901086232" lon="10.72008944470364"><ele>147.0</ele><time>2026-04-19T11:09:40.001Z</time></trkpt><trkpt lat="43.4712193952961" lon="10.720212508187249"><ele>147.0</ele><time>2026-04-19T11:09:41.001Z</time></trkpt><trkpt lat="43.47113643715583" lon="10.720333997329824"><ele>147.0</ele><time>2026-04-19T11:09:42Z</time></trkpt><trkpt lat="43.47104772473908" lon="10.720456226681984"><ele>147.5</ele><time>2026-04-19T11:09:43.001Z</time></trkpt><trkpt lat="43.47096292078548" lon="10.720568309784111"><ele>148.0</ele><time>2026-04-19T11:09:44Z</time></trkpt><trkpt lat="43.470878892657964" lon="10.720687077679584"><ele>148.5</ele><time>2026-04-19T11:09:45Z</time></trkpt><trkpt lat="43.470792937948126" lon="10.720801391049973"><ele>149.0</ele><time>2026-04-19T11:09:46Z</time></trkpt><trkpt lat="43.47071132860299" lon="10.720920722181937"><ele>149.0</ele><time>2026-04-19T11:09:47Z</time></trkpt><trkpt lat="43.47062637287838" lon="10.721045404350333"><ele>149.0</ele><time>2026-04-19T11:09:48Z</time></trkpt><trkpt lat="43.4705402648182" lon="10.721158466937467"><ele>149.0</ele><time>2026-04-19T11:09:49Z</time></trkpt><trkpt lat="43.47045095181018" lon="10.721270419854688"><ele>149.0</ele><time>2026-04-19T11:09:50Z</time></trkpt><trkpt lat="43.470370455488265" lon="10.721385282252797"><ele>151.25</ele><time>2026-04-19T11:09:51Z</time></trkpt><trkpt lat="43.47028295446424" lon="10.721538419984437"><ele>153.5</ele><time>2026-04-19T11:09:52Z</time></trkpt><trkpt lat="43.47021060443413" lon="10.721663559699488"><ele>155.75</ele><time>2026-04-19T11:09:53Z</time></trkpt><trkpt lat="43.470154410722024" lon="10.721753544261945"><ele>158.0</ele><time>2026-04-19T11:09:54Z</time></trkpt><trkpt lat="43.47017459355514" lon="10.721924536343634"><ele>159.60000000000002</ele><time>2026-04-19T11:09:55Z</time></trkpt><trkpt lat="43.470222061880214" lon="10.722028385850802"><ele>161.20000000000002</ele><time>2026-04-19T11:09:56Z</time></trkpt><trkpt lat="43.470253174345295" lon="10.72215056714396"><ele>162.8</ele><time>2026-04-19T11:09:57Z</time></trkpt><trkpt lat="43.47030630867373" lon="10.722232917506291"><ele>164.4</ele><time>2026-04-19T11:09:58.001Z</time></trkpt><trkpt lat="43.47036260883075" lon="10.722357158655045"><ele>166.0</ele><time>2026-04-19T11:09:59.001Z</time></trkpt><trkpt lat="43.47042498243653" lon="10.72248382615385"><ele>166.0</ele><time>2026-04-19T11:10:00.001Z</time></trkpt><trkpt lat="43.470433520406786" lon="10.722611521738541"><ele>166.0</ele><time>2026-04-19T11:10:01.001Z</time></trkpt><trkpt lat="43.4703913443005" lon="10.722730604657402"><ele>166.0</ele><time>2026-04-19T11:10:02.001Z</time></trkpt><trkpt lat="43.470348490211464" lon="10.722857261394482"><ele>166.0</ele><time>2026-04-19T11:10:03.001Z</time></trkpt><trkpt lat="43.470298624906754" lon="10.722978637138638"><ele>166.0</ele><time>2026-04-19T11:10:04.001Z</time></trkpt><trkpt lat="43.47025158859475" lon="10.72311086173967"><ele>166.8</ele><time>2026-04-19T11:10:05.001Z</time></trkpt><trkpt lat="43.47019634168329" lon="10.7232257936403"><ele>167.60000000000002</ele><time>2026-04-19T11:10:06.001Z</time></trkpt><trkpt lat="43.470144647254465" lon="10.723338123750231"><ele>168.4</ele><time>2026-04-19T11:10:07.001Z</time></trkpt><trkpt lat="43.47009963478064" lon="10.723452888242651"><ele>169.2</ele><time>2026-04-19T11:10:08.001Z</time></trkpt><trkpt lat="43.47004534707386" lon="10.723579852611797"><ele>170.0</ele><time>2026-04-19T11:10:09.001Z</time></trkpt><trkpt lat="43.46999353144274" lon="10.72369338299643"><ele>170.0</ele><time>2026-04-19T11:10:10.001Z</time></trkpt><trkpt lat="43.469951982628004" lon="10.723789372316533"><ele>170.0</ele><time>2026-04-19T11:10:11.001Z</time></trkpt><trkpt lat="43.46992194218407" lon="10.723867855418046"><ele>170.0</ele><time>2026-04-19T11:10:12.001Z</time></trkpt><trkpt lat="43.46986386051346" lon="10.723979244303735"><ele>170.0</ele><time>2026-04-19T11:10:14.001Z</time></trkpt><trkpt lat="43.46983309777662" lon="10.724061332196142"><ele>170.0</ele><time>2026-04-19T11:10:20.001Z</time></trkpt><trkpt lat="43.46977747426375" lon="10.724135921304073"><ele>170.0</ele><time>2026-04-19T11:10:27.001Z</time></trkpt><trkpt lat="43.46973902031186" lon="10.724003508393901"><ele>170.0</ele><time>2026-04-19T11:10:32.001Z</time></trkpt><trkpt lat="43.469731583358225" lon="10.723871658532515"><ele>170.0</ele><time>2026-04-19T11:10:33.001Z</time></trkpt><trkpt lat="43.469727076384274" lon="10.7237572378695"><ele>170.0</ele><time>2026-04-19T11:10:34.001Z</time></trkpt><trkpt lat="43.4697237507057" lon="10.72365019151683"><ele>170.0</ele><time>2026-04-19T11:10:35.001Z</time></trkpt><trkpt lat="43.469719596484566" lon="10.72351647580963"><ele>170.0</ele><time>2026-04-19T11:10:36.001Z</time></trkpt><trkpt lat="43.46971136433498" lon="10.723207734979004"><ele>170.66666666666666</ele><time>2026-04-19T11:10:38.001Z</time></trkpt><trkpt lat="43.46971187924821" lon="10.7230437654334"><ele>171.33333333333334</ele><time>2026-04-19T11:10:39.001Z</time></trkpt><trkpt lat="43.469695222891325" lon="10.722878134743937"><ele>172.0</ele><time>2026-04-19T11:10:40.001Z</time></trkpt><trkpt lat="43.46958693558035" lon="10.722399621399552"><ele>172.5</ele><time>2026-04-19T11:10:43.001Z</time></trkpt><trkpt lat="43.469471266618285" lon="10.72229199521668"><ele>173.0</ele><time>2026-04-19T11:10:44.001Z</time></trkpt><trkpt lat="43.46935265178858" lon="10.722220169722306"><ele>173.5</ele><time>2026-04-19T11:10:45.001Z</time></trkpt><trkpt lat="43.469232176491595" lon="10.72218198775883"><ele>174.0</ele><time>2026-04-19T11:10:46.001Z</time></trkpt><trkpt lat="43.46909282796531" lon="10.722183986550652"><ele>174.0</ele><time>2026-04-19T11:10:47.001Z</time></trkpt><trkpt lat="43.46895203279976" lon="10.7221984222673"><ele>174.0</ele><time>2026-04-19T11:10:48.001Z</time></trkpt><trkpt lat="43.468799616988925" lon="10.722156578161307"><ele>174.0</ele><time>2026-04-19T11:10:49.001Z</time></trkpt><trkpt lat="43.4686430716579" lon="10.722087754222319"><ele>171.33333333333334</ele><time>2026-04-19T11:10:50.001Z</time></trkpt><trkpt lat="43.46848737553852" lon="10.721996224285466"><ele>168.66666666666669</ele><time>2026-04-19T11:10:51.001Z</time></trkpt><trkpt lat="43.468325055284524" lon="10.721920856447547"><ele>166.0</ele><time>2026-04-19T11:10:52.001Z</time></trkpt><trkpt lat="43.468178860152065" lon="10.72182324975214"><ele>166.0</ele><time>2026-04-19T11:10:53.001Z</time></trkpt><trkpt lat="43.468040988464054" lon="10.721730299334483"><ele>166.0</ele><time>2026-04-19T11:10:54.001Z</time></trkpt><trkpt lat="43.467919284828334" lon="10.721641454733756"><ele>166.0</ele><time>2026-04-19T11:10:55.001Z</time></trkpt><trkpt lat="43.46780555964262" lon="10.721552870930719"><ele>166.0</ele><time>2026-04-19T11:10:56.001Z</time></trkpt><trkpt lat="43.467694815494944" lon="10.72147544732195"><ele>166.0</ele><time>2026-04-19T11:10:57.001Z</time></trkpt><trkpt lat="43.467598029482005" lon="10.72140780173318"><ele>166.0</ele><time>2026-04-19T11:10:58.001Z</time></trkpt><trkpt lat="43.467512660914124" lon="10.721352955091238"><ele>166.0</ele><time>2026-04-19T11:10:59.001Z</time></trkpt><trkpt lat="43.467450019975225" lon="10.72129801239113"><ele>166.0</ele><time>2026-04-19T11:11:00.001Z</time></trkpt><trkpt lat="43.46738214461177" lon="10.721249874985622"><ele>166.0</ele><time>2026-04-19T11:11:01.001Z</time></trkpt><trkpt lat="43.467313614718606" lon="10.721178011880239"><ele>166.0</ele><time>2026-04-19T11:11:02.001Z</time></trkpt><trkpt lat="43.46723417915981" lon="10.721109438618099"><ele>165.8</ele><time>2026-04-19T11:11:03.001Z</time></trkpt><trkpt lat="43.46713918446782" lon="10.721049090723971"><ele>165.60000000000002</ele><time>2026-04-19T11:11:04.001Z</time></trkpt><trkpt lat="43.46707461747138" lon="10.72092168398505"><ele>165.4</ele><time>2026-04-19T11:11:05.001Z</time></trkpt><trkpt lat="43.46702701073365" lon="10.720783639256478"><ele>165.2</ele><time>2026-04-19T11:11:06.001Z</time></trkpt><trkpt lat="43.46701044398045" lon="10.720633299708231"><ele>165.0</ele><time>2026-04-19T11:11:07.001Z</time></trkpt><trkpt lat="43.46697798773607" lon="10.720471211244343"><ele>167.5</ele><time>2026-04-19T11:11:08.001Z</time></trkpt><trkpt lat="43.46692743309255" lon="10.720326037377662"><ele>170.0</ele><time>2026-04-19T11:11:09.001Z</time></trkpt><trkpt lat="43.46685048590449" lon="10.720202196784971"><ele>172.5</ele><time>2026-04-19T11:11:10.002Z</time></trkpt><trkpt lat="43.46679210210233" lon="10.72005986458964"><ele>175.0</ele><time>2026-04-19T11:11:11.002Z</time></trkpt><trkpt lat="43.46672878998055" lon="10.719926006732928"><ele>175.25</ele><time>2026-04-19T11:11:12.002Z</time></trkpt><trkpt lat="43.46666736881726" lon="10.719785241986408"><ele>175.5</ele><time>2026-04-19T11:11:13.002Z</time></trkpt><trkpt lat="43.46660271121353" lon="10.719643264449617"><ele>175.75</ele><time>2026-04-19T11:11:14.002Z</time></trkpt><trkpt lat="43.46655310325543" lon="10.719492202786274"><ele>176.0</ele><time>2026-04-19T11:11:15.002Z</time></trkpt><trkpt lat="43.46651843044231" lon="10.719316155800595"><ele>175.5</ele><time>2026-04-19T11:11:16.002Z</time></trkpt><trkpt lat="43.466480945687486" lon="10.719125358814502"><ele>175.0</ele><time>2026-04-19T11:11:17.002Z</time></trkpt><trkpt lat="43.46644317583058" lon="10.71893311103838"><ele>174.5</ele><time>2026-04-19T11:11:18.002Z</time></trkpt><trkpt lat="43.46640574542584" lon="10.718748688135367"><ele>174.0</ele><time>2026-04-19T11:11:19.002Z</time></trkpt><trkpt lat="43.46634407897922" lon="10.718582223862366"><ele>173.75</ele><time>2026-04-19T11:11:20.002Z</time></trkpt><trkpt lat="43.46627341480578" lon="10.71843213453596"><ele>173.5</ele><time>2026-04-19T11:11:21.002Z</time></trkpt><trkpt lat="43.466182983276795" lon="10.718306195818297"><ele>173.25</ele><time>2026-04-19T11:11:22.002Z</time></trkpt><trkpt lat="43.46607915492603" lon="10.718204617399213"><ele>173.0</ele><time>2026-04-19T11:11:23.002Z</time></trkpt><trkpt lat="43.46597837062125" lon="10.718106411946478"><ele>173.0</ele><time>2026-04-19T11:11:24.002Z</time></trkpt><trkpt lat="43.465887097828315" lon="10.71799370499512"><ele>173.0</ele><time>2026-04-19T11:11:25.002Z</time></trkpt><trkpt lat="43.46579225604886" lon="10.717888990055108"><ele>173.0</ele><time>2026-04-19T11:11:26.002Z</time></trkpt><trkpt lat="43.46570526072078" lon="10.717768158085441"><ele>173.0</ele><time>2026-04-19T11:11:27.002Z</time></trkpt><trkpt lat="43.465622216739526" lon="10.717642108202961"><ele>172.60000000000002</ele><time>2026-04-19T11:11:28.002Z</time></trkpt><trkpt lat="43.46554109247359" lon="10.717511276981725"><ele>172.20000000000002</ele><time>2026-04-19T11:11:29.002Z</time></trkpt><trkpt lat="43.46546395414521" lon="10.717386875179212"><ele>171.8</ele><time>2026-04-19T11:11:30.002Z</time></trkpt><trkpt lat="43.46539844099467" lon="10.717273149757228"><ele>171.4</ele><time>2026-04-19T11:11:31.002Z</time></trkpt><trkpt lat="43.46535627634684" lon="10.71715791964786"><ele>171.0</ele><time>2026-04-19T11:11:32.002Z</time></trkpt><trkpt lat="43.4653233950685" lon="10.717030602595617"><ele>169.75</ele><time>2026-04-19T11:11:33.002Z</time></trkpt><trkpt lat="43.46530854649192" lon="10.716890325586391"><ele>168.5</ele><time>2026-04-19T11:11:34.002Z</time></trkpt><trkpt lat="43.46528342972654" lon="10.716728411577867"><ele>167.25</ele><time>2026-04-19T11:11:35.002Z</time></trkpt><trkpt lat="43.465256316810404" lon="10.716553716885997"><ele>166.0</ele><time>2026-04-19T11:11:36.002Z</time></trkpt><trkpt lat="43.46522211400122" lon="10.716362432158274"><ele>166.0</ele><time>2026-04-19T11:11:37.002Z</time></trkpt><trkpt lat="43.46517977088654" lon="10.716173008172316"><ele>166.0</ele><time>2026-04-19T11:11:38.002Z</time></trkpt><trkpt lat="43.46511451724864" lon="10.715986917883392"><ele>166.0</ele><time>2026-04-19T11:11:39.002Z</time></trkpt><trkpt lat="43.465041526017636" lon="10.715799646915682"><ele>166.0</ele><time>2026-04-19T11:11:40.002Z</time></trkpt><trkpt lat="43.464967516575605" lon="10.715608372320427"><ele>164.33333333333334</ele><time>2026-04-19T11:11:41.002Z</time></trkpt><trkpt lat="43.46489323505769" lon="10.715415689503532"><ele>162.66666666666666</ele><time>2026-04-19T11:11:42.002Z</time></trkpt><trkpt lat="43.464818862121874" lon="10.715225269483986"><ele>161.0</ele><time>2026-04-19T11:11:43.002Z</time></trkpt><trkpt lat="43.46473617780481" lon="10.715036567962693"><ele>159.66666666666666</ele><time>2026-04-19T11:11:44.001Z</time></trkpt><trkpt lat="43.464634149525196" lon="10.71486035856087"><ele>158.33333333333334</ele><time>2026-04-19T11:11:45.001Z</time></trkpt><trkpt lat="43.4645164916517" lon="10.71469963247484"><ele>157.0</ele><time>2026-04-19T11:11:46.001Z</time></trkpt><trkpt lat="43.46439693907011" lon="10.714540411759181"><ele>156.33333333333334</ele><time>2026-04-19T11:11:47.001Z</time></trkpt><trkpt lat="43.4642780968801" lon="10.714373853049635"><ele>155.66666666666666</ele><time>2026-04-19T11:11:48.001Z</time></trkpt><trkpt lat="43.46415899899738" lon="10.714204915019748"><ele>155.0</ele><time>2026-04-19T11:11:49.001Z</time></trkpt><trkpt lat="43.46406196729676" lon="10.714020822765967"><ele>155.0</ele><time>2026-04-19T11:11:50.001Z</time></trkpt><trkpt lat="43.46398550383804" lon="10.713824596696298"><ele>155.0</ele><time>2026-04-19T11:11:51.001Z</time></trkpt><trkpt lat="43.463911299024666" lon="10.713633689877808"><ele>155.0</ele><time>2026-04-19T11:11:52.001Z</time></trkpt><trkpt lat="43.463839815758774" lon="10.713463770814714"><ele>154.75</ele><time>2026-04-19T11:11:53.001Z</time></trkpt><trkpt lat="43.46376682655614" lon="10.713309610331937"><ele>154.5</ele><time>2026-04-19T11:11:54.001Z</time></trkpt><trkpt lat="43.46369958123414" lon="10.713173173777479"><ele>154.25</ele><time>2026-04-19T11:11:55.001Z</time></trkpt><trkpt lat="43.46363886844041" lon="10.713051981420614"><ele>154.0</ele><time>2026-04-19T11:11:56.001Z</time></trkpt><trkpt lat="43.46357107024888" lon="10.712959400630757"><ele>154.0</ele><time>2026-04-19T11:11:57.001Z</time></trkpt><trkpt lat="43.46352596686153" lon="10.71286881434302"><ele>154.0</ele><time>2026-04-19T11:11:58.001Z</time></trkpt><trkpt lat="43.46349072221509" lon="10.712780378662895"><ele>154.0</ele><time>2026-04-19T11:11:59.001Z</time></trkpt><trkpt lat="43.46334329396375" lon="10.712735740050936"><ele>154.0</ele><time>2026-04-19T11:12:01.001Z</time></trkpt><trkpt lat="43.46327026772984" lon="10.712732350045517"><ele>154.0</ele><time>2026-04-19T11:12:02.001Z</time></trkpt><trkpt lat="43.46319252950626" lon="10.712726779524866"><ele>154.6</ele><time>2026-04-19T11:12:03.001Z</time></trkpt><trkpt lat="43.46310827482577" lon="10.712713071961904"><ele>155.2</ele><time>2026-04-19T11:12:04.001Z</time></trkpt><trkpt lat="43.46301506272764" lon="10.712694769678485"><ele>155.79999999999998</ele><time>2026-04-19T11:12:05.001Z</time></trkpt><trkpt lat="43.46292400031229" lon="10.712634506034648"><ele>156.4</ele><time>2026-04-19T11:12:06.001Z</time></trkpt><trkpt lat="43.462830962450894" lon="10.712573631664977"><ele>157.0</ele><time>2026-04-19T11:12:07.001Z</time></trkpt><trkpt lat="43.46274529872292" lon="10.712499333257485"><ele>157.5</ele><time>2026-04-19T11:12:08.001Z</time></trkpt><trkpt lat="43.46265383152907" lon="10.712408628321382"><ele>158.0</ele><time>2026-04-19T11:12:09.001Z</time></trkpt><trkpt lat="43.46255841871087" lon="10.71231267426326"><ele>158.5</ele><time>2026-04-19T11:12:10.001Z</time></trkpt><trkpt lat="43.46247128220617" lon="10.712217590241206"><ele>159.0</ele><time>2026-04-19T11:12:11.001Z</time></trkpt><trkpt lat="43.46239097717853" lon="10.712111492427688"><ele>159.0</ele><time>2026-04-19T11:12:12.001Z</time></trkpt><trkpt lat="43.46232621235457" lon="10.71199176209646"><ele>159.0</ele><time>2026-04-19T11:12:13.001Z</time></trkpt><trkpt lat="43.46226833050239" lon="10.711864797373199"><ele>159.0</ele><time>2026-04-19T11:12:14.001Z</time></trkpt><trkpt lat="43.46221418776516" lon="10.711745693726728"><ele>159.0</ele><time>2026-04-19T11:12:15.001Z</time></trkpt><trkpt lat="43.462145555567375" lon="10.711640984385527"><ele>159.0</ele><time>2026-04-19T11:12:16.001Z</time></trkpt><trkpt lat="43.46206570414142" lon="10.711569221898081"><ele>160.33333333333334</ele><time>2026-04-19T11:12:17.001Z</time></trkpt><trkpt lat="43.461968612287244" lon="10.711559580381872"><ele>161.66666666666666</ele><time>2026-04-19T11:12:18.001Z</time></trkpt><trkpt lat="43.46188557370007" lon="10.71154676041739"><ele>163.0</ele><time>2026-04-19T11:12:19.001Z</time></trkpt><trkpt lat="43.46180168619444" lon="10.71155146341052"><ele>164.33333333333331</ele><time>2026-04-19T11:12:20.001Z</time></trkpt><trkpt lat="43.46173231783229" lon="10.711550194172341"><ele>165.66666666666666</ele><time>2026-04-19T11:12:21.001Z</time></trkpt><trkpt lat="43.46164309730243" lon="10.711548263461912"><ele>167.0</ele><time>2026-04-19T11:12:22.001Z</time></trkpt><trkpt lat="43.461562321792144" lon="10.711545644524424"><ele>167.0</ele><time>2026-04-19T11:12:23.001Z</time></trkpt><trkpt lat="43.46147824797988" lon="10.711541122174024"><ele>167.0</ele><time>2026-04-19T11:12:24.001Z</time></trkpt><trkpt lat="43.46140203997734" lon="10.71152816405018"><ele>167.0</ele><time>2026-04-19T11:12:25.001Z</time></trkpt><trkpt lat="43.461302568409444" lon="10.711519188533412"><ele>167.0</ele><time>2026-04-19T11:12:26.001Z</time></trkpt><trkpt lat="43.461208747053846" lon="10.711516465146165"><ele>167.0</ele><time>2026-04-19T11:12:27.001Z</time></trkpt><trkpt lat="43.46112134132609" lon="10.71150132600201"><ele>167.0</ele><time>2026-04-19T11:12:28.001Z</time></trkpt><trkpt lat="43.46102559179067" lon="10.711489777374343"><ele>168.0</ele><time>2026-04-19T11:12:29.001Z</time></trkpt><trkpt lat="43.46092666474813" lon="10.711478127613736"><ele>169.0</ele><time>2026-04-19T11:12:30.001Z</time></trkpt><trkpt lat="43.46082753533867" lon="10.711461199541006"><ele>170.0</ele><time>2026-04-19T11:12:31.001Z</time></trkpt><trkpt lat="43.46074357316776" lon="10.711438770215395"><ele>171.0</ele><time>2026-04-19T11:12:32.001Z</time></trkpt><trkpt lat="43.46063003528049" lon="10.7114108118143"><ele>172.0</ele><time>2026-04-19T11:12:33.001Z</time></trkpt><trkpt lat="43.460528329855165" lon="10.711389201351198"><ele>172.6</ele><time>2026-04-19T11:12:34.001Z</time></trkpt><trkpt lat="43.46042952659758" lon="10.711346073842572"><ele>173.2</ele><time>2026-04-19T11:12:35.001Z</time></trkpt><trkpt lat="43.46033412037051" lon="10.711294414026645"><ele>173.8</ele><time>2026-04-19T11:12:36.001Z</time></trkpt><trkpt lat="43.46023745564602" lon="10.711235057116738"><ele>174.4</ele><time>2026-04-19T11:12:37.001Z</time></trkpt><trkpt lat="43.46014056430267" lon="10.711165188086925"><ele>175.0</ele><time>2026-04-19T11:12:38.001Z</time></trkpt><trkpt lat="43.460047576206584" lon="10.711094405892371"><ele>176.5</ele><time>2026-04-19T11:12:39.001Z</time></trkpt><trkpt lat="43.459969260103406" lon="10.710993837295542"><ele>178.0</ele><time>2026-04-19T11:12:40.001Z</time></trkpt><trkpt lat="43.459908194819384" lon="10.710892602389215"><ele>179.5</ele><time>2026-04-19T11:12:41.001Z</time></trkpt><trkpt lat="43.45986909866754" lon="10.71079920249404"><ele>181.0</ele><time>2026-04-19T11:12:42.001Z</time></trkpt><trkpt lat="43.459847068040276" lon="10.710706057090485"><ele>182.5</ele><time>2026-04-19T11:12:43.001Z</time></trkpt><trkpt lat="43.459845350921796" lon="10.710617557530341"><ele>184.0</ele><time>2026-04-19T11:12:44.001Z</time></trkpt><trkpt lat="43.45984595408728" lon="10.710513319800393"><ele>184.0</ele><time>2026-04-19T11:12:45.001Z</time></trkpt><trkpt lat="43.45989763361001" lon="10.71040792295893"><ele>184.0</ele><time>2026-04-19T11:12:46.001Z</time></trkpt><trkpt lat="43.45993893705225" lon="10.71028269257662"><ele>184.0</ele><time>2026-04-19T11:12:47.001Z</time></trkpt><trkpt lat="43.45995664938242" lon="10.710156362607627"><ele>184.0</ele><time>2026-04-19T11:12:48.001Z</time></trkpt><trkpt lat="43.45994168157565" lon="10.710015932690066"><ele>184.0</ele><time>2026-04-19T11:12:50.001Z</time></trkpt><trkpt lat="43.45991131072378" lon="10.709897230049519"><ele>184.0</ele><time>2026-04-19T11:12:52.001Z</time></trkpt><trkpt lat="43.459838747242486" lon="10.709799020546338"><ele>184.0</ele><time>2026-04-19T11:12:54.001Z</time></trkpt><trkpt lat="43.45976357979188" lon="10.709755987873466"><ele>184.0</ele><time>2026-04-19T11:12:56.001Z</time></trkpt><trkpt lat="43.459672939655505" lon="10.70972578585387"><ele>184.0</ele><time>2026-04-19T11:12:59.001Z</time></trkpt><trkpt lat="43.45961005447639" lon="10.709710426185671"><ele>184.0</ele><time>2026-04-19T11:13:01.001Z</time></trkpt><trkpt lat="43.459531001162674" lon="10.709697035313807"><ele>184.0</ele><time>2026-04-19T11:13:03.001Z</time></trkpt><trkpt lat="43.4594350606722" lon="10.709671536357822"><ele>184.0</ele><time>2026-04-19T11:13:05.001Z</time></trkpt><trkpt lat="43.45931537684481" lon="10.70965811516784"><ele>184.0</ele><time>2026-04-19T11:13:07.001Z</time></trkpt><trkpt lat="43.45923877223542" lon="10.709647829618989"><ele>184.0</ele><time>2026-04-19T11:13:08.001Z</time></trkpt><trkpt lat="43.459113467415015" lon="10.709628957504181"><ele>184.0</ele><time>2026-04-19T11:13:10.001Z</time></trkpt><trkpt lat="43.45904883346079" lon="10.709621323357466"><ele>184.0</ele><time>2026-04-19T11:13:11.001Z</time></trkpt><trkpt lat="43.4589831353402" lon="10.709609315167443"><ele>184.0</ele><time>2026-04-19T11:13:12.001Z</time></trkpt><trkpt lat="43.458882818175525" lon="10.709589345753995"><ele>184.0</ele><time>2026-04-19T11:13:14.001Z</time></trkpt><trkpt lat="43.458782758146214" lon="10.709584072862283"><ele>184.0</ele><time>2026-04-19T11:13:16.002Z</time></trkpt><trkpt lat="43.458691860966425" lon="10.709562032523984"><ele>184.0</ele><time>2026-04-19T11:13:18.002Z</time></trkpt><trkpt lat="43.45862712676622" lon="10.709550593574694"><ele>184.0</ele><time>2026-04-19T11:13:19.002Z</time></trkpt><trkpt lat="43.458505336730305" lon="10.709521718156628"><ele>183.5</ele><time>2026-04-19T11:13:21.002Z</time></trkpt><trkpt lat="43.45838801077195" lon="10.709498516477238"><ele>183.0</ele><time>2026-04-19T11:13:23.002Z</time></trkpt><trkpt lat="43.45827807308559" lon="10.709474439792192"><ele>182.5</ele><time>2026-04-19T11:13:25.002Z</time></trkpt><trkpt lat="43.4581647209425" lon="10.709450767073829"><ele>182.0</ele><time>2026-04-19T11:13:27.002Z</time></trkpt><trkpt lat="43.4580486967322" lon="10.709424440223845"><ele>181.66666666666666</ele><time>2026-04-19T11:13:29.002Z</time></trkpt><trkpt lat="43.45792908281633" lon="10.709402167331035"><ele>181.33333333333331</ele><time>2026-04-19T11:13:31.002Z</time></trkpt><trkpt lat="43.457805762453035" lon="10.709377066208178"><ele>181.0</ele><time>2026-04-19T11:13:33.002Z</time></trkpt><trkpt lat="43.45774259938066" lon="10.70936358011911"><ele>180.66666666666666</ele><time>2026-04-19T11:13:34.002Z</time></trkpt><trkpt lat="43.45767832877383" lon="10.709349726485549"><ele>180.33333333333334</ele><time>2026-04-19T11:13:35.002Z</time></trkpt><trkpt lat="43.45761573948072" lon="10.709337670662368"><ele>180.0</ele><time>2026-04-19T11:13:36.002Z</time></trkpt><trkpt lat="43.45754901217918" lon="10.70932650085832"><ele>180.0</ele><time>2026-04-19T11:13:37.002Z</time></trkpt><trkpt lat="43.45742879677809" lon="10.70930233838769"><ele>180.0</ele><time>2026-04-19T11:13:39.002Z</time></trkpt><trkpt lat="43.45732317845971" lon="10.70929920219605"><ele>180.0</ele><time>2026-04-19T11:13:41.002Z</time></trkpt><trkpt lat="43.457234933758755" lon="10.709268636893277"><ele>180.0</ele><time>2026-04-19T11:13:43.002Z</time></trkpt><trkpt lat="43.457163357423916" lon="10.709219857882356"><ele>180.0</ele><time>2026-04-19T11:13:45.002Z</time></trkpt><trkpt lat="43.45711043951321" lon="10.709103051202316"><ele>180.2</ele><time>2026-04-19T11:13:47.002Z</time></trkpt><trkpt lat="43.457051138805134" lon="10.708944529679169"><ele>180.4</ele><time>2026-04-19T11:13:49.001Z</time></trkpt><trkpt lat="43.45702018419769" lon="10.708851457961343"><ele>180.60000000000002</ele><time>2026-04-19T11:13:50.001Z</time></trkpt><trkpt lat="43.45698976368459" lon="10.708754639920413"><ele>180.8</ele><time>2026-04-19T11:13:51.001Z</time></trkpt><trkpt lat="43.45695722345737" lon="10.70864376866174"><ele>181.0</ele><time>2026-04-19T11:13:52.001Z</time></trkpt><trkpt lat="43.45692373070774" lon="10.708534462624314"><ele>181.0</ele><time>2026-04-19T11:13:53.001Z</time></trkpt><trkpt lat="43.45688664826262" lon="10.708424307973345"><ele>181.0</ele><time>2026-04-19T11:13:54.001Z</time></trkpt><trkpt lat="43.456847710795245" lon="10.708317360047948"><ele>181.0</ele><time>2026-04-19T11:13:55.001Z</time></trkpt><trkpt lat="43.45680411754883" lon="10.708216910842422"><ele>181.0</ele><time>2026-04-19T11:13:56.001Z</time></trkpt><trkpt lat="43.45675386622832" lon="10.708123802850933"><ele>181.0</ele><time>2026-04-19T11:13:57.001Z</time></trkpt><trkpt lat="43.45670872569179" lon="10.70804468836436"><ele>181.0</ele><time>2026-04-19T11:13:58.001Z</time></trkpt><trkpt lat="43.456663407129604" lon="10.707968384717349"><ele>181.0</ele><time>2026-04-19T11:13:59.001Z</time></trkpt><trkpt lat="43.45661752171683" lon="10.707894717892673"><ele>181.0</ele><time>2026-04-19T11:14:00.001Z</time></trkpt><trkpt lat="43.456567694556966" lon="10.707821029491916"><ele>181.0</ele><time>2026-04-19T11:14:01.001Z</time></trkpt><trkpt lat="43.45652148517909" lon="10.707757369340134"><ele>181.0</ele><time>2026-04-19T11:14:02.001Z</time></trkpt><trkpt lat="43.45645861954552" lon="10.70767654714571"><ele>181.0</ele><time>2026-04-19T11:14:03.001Z</time></trkpt><trkpt lat="43.45640402432094" lon="10.707612189669497"><ele>181.0</ele><time>2026-04-19T11:14:04.001Z</time></trkpt><trkpt lat="43.456348634378955" lon="10.70755205534548"><ele>181.0</ele><time>2026-04-19T11:14:05.001Z</time></trkpt><trkpt lat="43.45629346258944" lon="10.707496458378882"><ele>182.20000000000002</ele><time>2026-04-19T11:14:06.001Z</time></trkpt><trkpt lat="43.45623948078326" lon="10.707442060359597"><ele>183.4</ele><time>2026-04-19T11:14:07.001Z</time></trkpt><trkpt lat="43.456188821604066" lon="10.707389670279216"><ele>184.6</ele><time>2026-04-19T11:14:08.001Z</time></trkpt><trkpt lat="43.45609074065725" lon="10.707286126569453"><ele>185.8</ele><time>2026-04-19T11:14:10.001Z</time></trkpt><trkpt lat="43.45600314062816" lon="10.707190103874522"><ele>187.0</ele><time>2026-04-19T11:14:12.001Z</time></trkpt><trkpt lat="43.45591351247709" lon="10.70708467699354"><ele>187.0</ele><time>2026-04-19T11:14:14.001Z</time></trkpt><trkpt lat="43.455825985373906" lon="10.706967690932021"><ele>187.0</ele><time>2026-04-19T11:14:16.001Z</time></trkpt><trkpt lat="43.45574414230845" lon="10.70683904169914"><ele>187.0</ele><time>2026-04-19T11:14:18.001Z</time></trkpt><trkpt lat="43.45567513692073" lon="10.706699626268753"><ele>187.0</ele><time>2026-04-19T11:14:20.001Z</time></trkpt><trkpt lat="43.45561470040277" lon="10.706540553306997"><ele>187.83333333333334</ele><time>2026-04-19T11:14:22.001Z</time></trkpt><trkpt lat="43.455584440648344" lon="10.706459198467302"><ele>188.66666666666669</ele><time>2026-04-19T11:14:23.001Z</time></trkpt><trkpt lat="43.45554885242695" lon="10.706368872317364"><ele>189.5</ele><time>2026-04-19T11:14:24.001Z</time></trkpt><trkpt lat="43.45551181365039" lon="10.706275110709555"><ele>190.33333333333334</ele><time>2026-04-19T11:14:25.001Z</time></trkpt><trkpt lat="43.45547016900558" lon="10.706180300285546"><ele>191.16666666666666</ele><time>2026-04-19T11:14:26.001Z</time></trkpt><trkpt lat="43.45542108407236" lon="10.706083296747813"><ele>192.0</ele><time>2026-04-19T11:14:27.001Z</time></trkpt><trkpt lat="43.45535529069772" lon="10.706012211562587"><ele>193.5</ele><time>2026-04-19T11:14:28.001Z</time></trkpt><trkpt lat="43.455295212097" lon="10.705932602780257"><ele>195.0</ele><time>2026-04-19T11:14:29.001Z</time></trkpt><trkpt lat="43.45523357217825" lon="10.705847655292008"><ele>196.5</ele><time>2026-04-19T11:14:30.001Z</time></trkpt><trkpt lat="43.45516033546988" lon="10.705785026016132"><ele>198.0</ele><time>2026-04-19T11:14:31.001Z</time></trkpt><trkpt lat="43.45508122335747" lon="10.70571728441415"><ele>199.5</ele><time>2026-04-19T11:14:32.001Z</time></trkpt><trkpt lat="43.455013897511904" lon="10.70564464603137"><ele>201.0</ele><time>2026-04-19T11:14:33.001Z</time></trkpt><trkpt lat="43.45494953917404" lon="10.705562856890705"><ele>201.0</ele><time>2026-04-19T11:14:34.001Z</time></trkpt><trkpt lat="43.45490060132816" lon="10.705469053705729"><ele>201.0</ele><time>2026-04-19T11:14:35.001Z</time></trkpt><trkpt lat="43.454854950672996" lon="10.705381546367787"><ele>201.0</ele><time>2026-04-19T11:14:36.001Z</time></trkpt><trkpt lat="43.454799247619675" lon="10.705283827645333"><ele>201.0</ele><time>2026-04-19T11:14:37.001Z</time></trkpt><trkpt lat="43.4547468731945" lon="10.705197402655525"><ele>201.0</ele><time>2026-04-19T11:14:38.001Z</time></trkpt><trkpt lat="43.45469101546376" lon="10.705121163948501"><ele>201.0</ele><time>2026-04-19T11:14:39.001Z</time></trkpt><trkpt lat="43.45463723182444" lon="10.705042643678611"><ele>203.66666666666666</ele><time>2026-04-19T11:14:40.001Z</time></trkpt><trkpt lat="43.45458545589572" lon="10.7049648105738"><ele>206.33333333333331</ele><time>2026-04-19T11:14:41.001Z</time></trkpt><trkpt lat="43.45453661400281" lon="10.704887641744785"><ele>209.0</ele><time>2026-04-19T11:14:42.001Z</time></trkpt><trkpt lat="43.45449295733978" lon="10.704808453033982"><ele>211.66666666666666</ele><time>2026-04-19T11:14:43.001Z</time></trkpt><trkpt lat="43.45446087277687" lon="10.704726713357575"><ele>214.33333333333331</ele><time>2026-04-19T11:14:44.001Z</time></trkpt><trkpt lat="43.454440202106994" lon="10.70463824257877"><ele>217.0</ele><time>2026-04-19T11:14:45.001Z</time></trkpt><trkpt lat="43.45441971248779" lon="10.70450764306471"><ele>217.39999999999998</ele><time>2026-04-19T11:14:47.001Z</time></trkpt><trkpt lat="43.45439942610381" lon="10.70437459143509"><ele>217.79999999999998</ele><time>2026-04-19T11:14:50.001Z</time></trkpt><trkpt lat="43.454370125047376" lon="10.704237272676357"><ele>218.2</ele><time>2026-04-19T11:14:52.001Z</time></trkpt><trkpt lat="43.454313967323934" lon="10.70409964567661"><ele>218.6</ele><time>2026-04-19T11:14:54.001Z</time></trkpt><trkpt lat="43.454258998691294" lon="10.704043444587281"><ele>219.0</ele><time>2026-04-19T11:14:55.001Z</time></trkpt><trkpt lat="43.4541985970587" lon="10.704001983256365"><ele>219.0</ele><time>2026-04-19T11:14:56.001Z</time></trkpt><trkpt lat="43.45412223756673" lon="10.703987260933246"><ele>219.0</ele><time>2026-04-19T11:14:57.001Z</time></trkpt><trkpt lat="43.454041324643846" lon="10.704009016959361"><ele>219.0</ele><time>2026-04-19T11:14:58.001Z</time></trkpt><trkpt lat="43.45396475464272" lon="10.70400919710035"><ele>219.0</ele><time>2026-04-19T11:14:59.001Z</time></trkpt><trkpt lat="43.453880025526544" lon="10.704018085618845"><ele>219.0</ele><time>2026-04-19T11:15:00.001Z</time></trkpt><trkpt lat="43.45378215915565" lon="10.7040284691092"><ele>219.0</ele><time>2026-04-19T11:15:01.001Z</time></trkpt><trkpt lat="43.453680574452086" lon="10.704031644710815"><ele>220.2</ele><time>2026-04-19T11:15:02.001Z</time></trkpt><trkpt lat="43.4535697550856" lon="10.704039542020627"><ele>221.39999999999998</ele><time>2026-04-19T11:15:03.001Z</time></trkpt><trkpt lat="43.45345480408415" lon="10.704048298085304"><ele>222.6</ele><time>2026-04-19T11:15:04.001Z</time></trkpt><trkpt lat="43.45334673382207" lon="10.704069052166835"><ele>223.8</ele><time>2026-04-19T11:15:05.002Z</time></trkpt><trkpt lat="43.45324449633167" lon="10.704088800651345"><ele>225.0</ele><time>2026-04-19T11:15:06.002Z</time></trkpt><trkpt lat="43.45314900820685" lon="10.704102198496892"><ele>225.0</ele><time>2026-04-19T11:15:07.002Z</time></trkpt><trkpt lat="43.45306023042109" lon="10.704123130699234"><ele>225.0</ele><time>2026-04-19T11:15:08.002Z</time></trkpt><trkpt lat="43.45297468504538" lon="10.704160453528706"><ele>225.0</ele><time>2026-04-19T11:15:09.002Z</time></trkpt><trkpt lat="43.45288406737854" lon="10.704193817905589"><ele>225.0</ele><time>2026-04-19T11:15:10.002Z</time></trkpt><trkpt lat="43.45280658544666" lon="10.704242894675966"><ele>225.0</ele><time>2026-04-19T11:15:11.002Z</time></trkpt><trkpt lat="43.45262370964781" lon="10.704357656439415"><ele>226.8</ele><time>2026-04-19T11:15:13.002Z</time></trkpt><trkpt lat="43.45253605710807" lon="10.70441845707722"><ele>228.6</ele><time>2026-04-19T11:15:14.002Z</time></trkpt><trkpt lat="43.45243933723313" lon="10.704482098395347"><ele>230.39999999999998</ele><time>2026-04-19T11:15:15.002Z</time></trkpt><trkpt lat="43.45234553723151" lon="10.70455236017721"><ele>232.2</ele><time>2026-04-19T11:15:16.002Z</time></trkpt><trkpt lat="43.45224900074946" lon="10.704627050250151"><ele>234.0</ele><time>2026-04-19T11:15:17.002Z</time></trkpt><trkpt lat="43.45215876067825" lon="10.704718706846663"><ele>236.2</ele><time>2026-04-19T11:15:18.002Z</time></trkpt><trkpt lat="43.45208472225848" lon="10.70482027865096"><ele>238.39999999999998</ele><time>2026-04-19T11:15:19.002Z</time></trkpt><trkpt lat="43.4519913362331" lon="10.704933325291547"><ele>240.6</ele><time>2026-04-19T11:15:20.002Z</time></trkpt><trkpt lat="43.451933435899775" lon="10.70505484046632"><ele>242.8</ele><time>2026-04-19T11:15:21.002Z</time></trkpt><trkpt lat="43.45190608426003" lon="10.705182890114378"><ele>245.0</ele><time>2026-04-19T11:15:22.002Z</time></trkpt><trkpt lat="43.45189120034159" lon="10.70531486414459"><ele>245.0</ele><time>2026-04-19T11:15:23.002Z</time></trkpt><trkpt lat="43.45184718433448" lon="10.705439209097321"><ele>245.0</ele><time>2026-04-19T11:15:24.002Z</time></trkpt><trkpt lat="43.451803345086525" lon="10.705560897205503"><ele>245.0</ele><time>2026-04-19T11:15:25.002Z</time></trkpt><trkpt lat="43.45175276406822" lon="10.705684808909773"><ele>245.0</ele><time>2026-04-19T11:15:26.002Z</time></trkpt><trkpt lat="43.451694243870364" lon="10.705803411295312"><ele>245.0</ele><time>2026-04-19T11:15:27.002Z</time></trkpt><trkpt lat="43.451629142891484" lon="10.705920876156137"><ele>245.0</ele><time>2026-04-19T11:15:28.002Z</time></trkpt><trkpt lat="43.45155828173036" lon="10.706040008826205"><ele>245.0</ele><time>2026-04-19T11:15:29.002Z</time></trkpt><trkpt lat="43.45148184225649" lon="10.706157791253764"><ele>245.0</ele><time>2026-04-19T11:15:30.002Z</time></trkpt><trkpt lat="43.451406883428014" lon="10.706269336569218"><ele>245.0</ele><time>2026-04-19T11:15:31.002Z</time></trkpt><trkpt lat="43.45134862380744" lon="10.70634112274492"><ele>245.0</ele><time>2026-04-19T11:15:32.002Z</time></trkpt><trkpt lat="43.45129493520397" lon="10.706414220595514"><ele>244.25</ele><time>2026-04-19T11:15:34.002Z</time></trkpt><trkpt lat="43.4512349683915" lon="10.70649402777659"><ele>243.5</ele><time>2026-04-19T11:15:36.002Z</time></trkpt><trkpt lat="43.45116731017153" lon="10.706553779949703"><ele>242.75</ele><time>2026-04-19T11:15:38.002Z</time></trkpt><trkpt lat="43.45110033155994" lon="10.706632625494539"><ele>242.0</ele><time>2026-04-19T11:15:42.002Z</time></trkpt><trkpt lat="43.45117270501685" lon="10.70692880554065"><ele>241.0</ele><time>2026-04-19T11:15:44.002Z</time></trkpt><trkpt lat="43.45117857715779" lon="10.707036111592139"><ele>239.99999999999997</ele><time>2026-04-19T11:15:45.002Z</time></trkpt><trkpt lat="43.451179481373735" lon="10.707136443452956"><ele>239.0</ele><time>2026-04-19T11:15:46.002Z</time></trkpt><trkpt lat="43.45117602709125" lon="10.70722717527348"><ele>238.0</ele><time>2026-04-19T11:15:47.002Z</time></trkpt><trkpt lat="43.45117612488313" lon="10.70731893290421"><ele>236.99999999999997</ele><time>2026-04-19T11:15:48.002Z</time></trkpt><trkpt lat="43.451174658860786" lon="10.707407437497901"><ele>236.0</ele><time>2026-04-19T11:15:49.002Z</time></trkpt><trkpt lat="43.45117864827182" lon="10.707502315779182"><ele>235.0</ele><time>2026-04-19T11:15:50.002Z</time></trkpt><trkpt lat="43.45118068002092" lon="10.707593734488157"><ele>234.99999999999997</ele><time>2026-04-19T11:15:51.002Z</time></trkpt><trkpt lat="43.45119017453901" lon="10.707683788717231"><ele>235.0</ele><time>2026-04-19T11:15:52.002Z</time></trkpt><trkpt lat="43.45122939695611" lon="10.707806643704341"><ele>235.0</ele><time>2026-04-19T11:15:54.002Z</time></trkpt><trkpt lat="43.45125160722444" lon="10.707888324830842"><ele>235.0</ele><time>2026-04-19T11:15:56.001Z</time></trkpt><trkpt lat="43.45127735551368" lon="10.708009422326782"><ele>234.99999999999997</ele><time>2026-04-19T11:16:18.001Z</time></trkpt><trkpt lat="43.45129137267485" lon="10.70813757113233"><ele>235.0</ele><time>2026-04-19T11:16:20.001Z</time></trkpt><trkpt lat="43.45129422094739" lon="10.708245782937283"><ele>234.99999999999997</ele><time>2026-04-19T11:16:22.001Z</time></trkpt><trkpt lat="43.451290747168635" lon="10.708359727071247"><ele>235.0</ele><time>2026-04-19T11:16:26.001Z</time></trkpt><trkpt lat="43.451271072671474" lon="10.708455591128194"><ele>235.0</ele><time>2026-04-19T11:16:29.001Z</time></trkpt><trkpt lat="43.451217093574016" lon="10.70856625008502"><ele>235.0</ele><time>2026-04-19T11:16:32.001Z</time></trkpt><trkpt lat="43.45117070842562" lon="10.70866012207126"><ele>234.99999999999997</ele><time>2026-04-19T11:16:34.001Z</time></trkpt><trkpt lat="43.45111857100082" lon="10.708762069041914"><ele>235.0</ele><time>2026-04-19T11:16:36.001Z</time></trkpt><trkpt lat="43.45106652870199" lon="10.708866905078846"><ele>234.33333333333331</ele><time>2026-04-19T11:16:38.001Z</time></trkpt><trkpt lat="43.451022001450276" lon="10.708958699995222"><ele>233.66666666666666</ele><time>2026-04-19T11:16:40.001Z</time></trkpt><trkpt lat="43.450958229769874" lon="10.70899332085501"><ele>233.0</ele><time>2026-04-19T11:16:44.001Z</time></trkpt><trkpt lat="43.45089047135194" lon="10.708946818282351"><ele>232.33333333333331</ele><time>2026-04-19T11:16:49.001Z</time></trkpt><trkpt lat="43.4508227392537" lon="10.708969170311725"><ele>231.66666666666666</ele><time>2026-04-19T11:16:51.001Z</time></trkpt><trkpt lat="43.45077248846223" lon="10.70906755529139"><ele>231.0</ele><time>2026-04-19T11:16:53.001Z</time></trkpt><trkpt lat="43.45072514335456" lon="10.709148613375891"><ele>231.0</ele><time>2026-04-19T11:16:56.001Z</time></trkpt><trkpt lat="43.450680566062196" lon="10.709274043023948"><ele>231.0</ele><time>2026-04-19T11:16:59.001Z</time></trkpt><trkpt lat="43.450649654474994" lon="10.709389195566079"><ele>231.0</ele><time>2026-04-19T11:17:02.001Z</time></trkpt><trkpt lat="43.45061927082653" lon="10.709474816563596"><ele>231.0</ele><time>2026-04-19T11:17:04.001Z</time></trkpt><trkpt lat="43.45057471617702" lon="10.709548218822368"><ele>231.0</ele><time>2026-04-19T11:17:06.001Z</time></trkpt><trkpt lat="43.45052341907921" lon="10.709621855132756"><ele>231.0</ele><time>2026-04-19T11:17:08.001Z</time></trkpt><trkpt lat="43.450448422312455" lon="10.709714947873767"><ele>227.25</ele><time>2026-04-19T11:17:10.002Z</time></trkpt><trkpt lat="43.450373285733335" lon="10.709831616643648"><ele>223.5</ele><time>2026-04-19T11:17:12.002Z</time></trkpt><trkpt lat="43.45031707894543" lon="10.70998428799631"><ele>219.75</ele><time>2026-04-19T11:17:14.002Z</time></trkpt><trkpt lat="43.45028541703269" lon="10.710134380482137"><ele>216.0</ele><time>2026-04-19T11:17:16.002Z</time></trkpt><trkpt lat="43.45028044382006" lon="10.71028548556952"><ele>215.60000000000002</ele><time>2026-04-19T11:17:18.002Z</time></trkpt><trkpt lat="43.4502803889376" lon="10.710424754752454"><ele>215.20000000000002</ele><time>2026-04-19T11:17:20.002Z</time></trkpt><trkpt lat="43.45027679875028" lon="10.710569319389936"><ele>214.79999999999998</ele><time>2026-04-19T11:17:22.002Z</time></trkpt><trkpt lat="43.450275241130754" lon="10.710704318676227"><ele>214.39999999999998</ele><time>2026-04-19T11:17:24.002Z</time></trkpt><trkpt lat="43.45027592261637" lon="10.710838028751521"><ele>214.0</ele><time>2026-04-19T11:17:26.002Z</time></trkpt><trkpt lat="43.450264831151635" lon="10.710988212402203"><ele>213.6</ele><time>2026-04-19T11:17:28.002Z</time></trkpt><trkpt lat="43.45023303329617" lon="10.711156996935696"><ele>213.2</ele><time>2026-04-19T11:17:30.002Z</time></trkpt><trkpt lat="43.45021580902775" lon="10.711244204002035"><ele>212.79999999999998</ele><time>2026-04-19T11:17:31.002Z</time></trkpt><trkpt lat="43.450188888190354" lon="10.711404555139419"><ele>212.39999999999998</ele><time>2026-04-19T11:17:33.002Z</time></trkpt><trkpt lat="43.45016036272616" lon="10.711565492482881"><ele>212.0</ele><time>2026-04-19T11:17:35.002Z</time></trkpt><trkpt lat="43.450141955973464" lon="10.71165069648266"><ele>212.0</ele><time>2026-04-19T11:17:36.002Z</time></trkpt><trkpt lat="43.450109007340245" lon="10.711797440138612"><ele>212.0</ele><time>2026-04-19T11:17:38.002Z</time></trkpt><trkpt lat="43.45007185767176" lon="10.7119392475637"><ele>212.0</ele><time>2026-04-19T11:17:40.002Z</time></trkpt><trkpt lat="43.45003709595257" lon="10.712085803331899"><ele>212.0</ele><time>2026-04-19T11:17:42.002Z</time></trkpt><trkpt lat="43.45000208828885" lon="10.712214395516714"><ele>212.0</ele><time>2026-04-19T11:17:44.002Z</time></trkpt><trkpt lat="43.44996848121277" lon="10.712331459113908"><ele>211.8</ele><time>2026-04-19T11:17:46.002Z</time></trkpt><trkpt lat="43.44993627346899" lon="10.712460142431258"><ele>211.6</ele><time>2026-04-19T11:17:48.002Z</time></trkpt><trkpt lat="43.44990129360534" lon="10.712601820117653"><ele>211.4</ele><time>2026-04-19T11:17:50.002Z</time></trkpt><trkpt lat="43.44986855067949" lon="10.712730327285911"><ele>211.20000000000002</ele><time>2026-04-19T11:17:52.002Z</time></trkpt><trkpt lat="43.44982061137817" lon="10.712839594723816"><ele>211.0</ele><time>2026-04-19T11:17:54.002Z</time></trkpt><trkpt lat="43.449763350161234" lon="10.712931818965107"><ele>210.99999999999997</ele><time>2026-04-19T11:17:56.002Z</time></trkpt><trkpt lat="43.449693684416516" lon="10.713022090865232"><ele>211.0</ele><time>2026-04-19T11:17:58.002Z</time></trkpt><trkpt lat="43.449649192911764" lon="10.713113209273207"><ele>211.0</ele><time>2026-04-19T11:18:00.002Z</time></trkpt><trkpt lat="43.44963935588844" lon="10.713219890434976"><ele>211.0</ele><time>2026-04-19T11:18:02.002Z</time></trkpt><trkpt lat="43.449671557367616" lon="10.713317108608905"><ele>210.99999999999997</ele><time>2026-04-19T11:18:06.002Z</time></trkpt><trkpt lat="43.449703666938234" lon="10.713415176224277"><ele>211.0</ele><time>2026-04-19T11:18:09.002Z</time></trkpt><trkpt lat="43.44975168385552" lon="10.713495158177087"><ele>211.0</ele><time>2026-04-19T11:18:12.002Z</time></trkpt><trkpt lat="43.449809881940354" lon="10.713568465419915"><ele>211.0</ele><time>2026-04-19T11:18:15.002Z</time></trkpt><trkpt lat="43.44986337180387" lon="10.713616762919836"><ele>211.0</ele><time>2026-04-19T11:18:17.002Z</time></trkpt><trkpt lat="43.449921930688326" lon="10.713658867889903"><ele>211.0</ele><time>2026-04-19T11:18:19.002Z</time></trkpt><trkpt lat="43.44998469019688" lon="10.71373720477602"><ele>211.0</ele><time>2026-04-19T11:18:22.002Z</time></trkpt><trkpt lat="43.45005184547833" lon="10.713811567470495"><ele>211.0</ele><time>2026-04-19T11:18:25.002Z</time></trkpt><trkpt lat="43.450111811518056" lon="10.713856985548047"><ele>211.0</ele><time>2026-04-19T11:18:27.002Z</time></trkpt><trkpt lat="43.4501856777474" lon="10.71392730472893"><ele>209.4</ele><time>2026-04-19T11:18:29.001Z</time></trkpt><trkpt lat="43.450260031919335" lon="10.713987973545843"><ele>207.8</ele><time>2026-04-19T11:18:31.001Z</time></trkpt><trkpt lat="43.450340276830055" lon="10.714067826853304"><ele>206.20000000000002</ele><time>2026-04-19T11:18:33.001Z</time></trkpt><trkpt lat="43.450442799213626" lon="10.714147015337979"><ele>204.60000000000002</ele><time>2026-04-19T11:18:35.001Z</time></trkpt><trkpt lat="43.45054360305519" lon="10.714196423587927"><ele>203.0</ele><time>2026-04-19T11:18:37.001Z</time></trkpt><trkpt lat="43.450656852507215" lon="10.714248882465286"><ele>201.33333333333334</ele><time>2026-04-19T11:18:39.001Z</time></trkpt><trkpt lat="43.4507151906869" lon="10.714290122186387"><ele>199.66666666666669</ele><time>2026-04-19T11:18:40.001Z</time></trkpt><trkpt lat="43.450769189765936" lon="10.714337396786087"><ele>198.0</ele><time>2026-04-19T11:18:41.001Z</time></trkpt><trkpt lat="43.45082104151945" lon="10.714403071829642"><ele>196.33333333333331</ele><time>2026-04-19T11:18:42.001Z</time></trkpt><trkpt lat="43.45088972854501" lon="10.714543745875687"><ele>194.66666666666666</ele><time>2026-04-19T11:18:44.001Z</time></trkpt><trkpt lat="43.45095131871338" lon="10.714687161784022"><ele>193.0</ele><time>2026-04-19T11:18:46.001Z</time></trkpt><trkpt lat="43.45099430703885" lon="10.714765496664038"><ele>192.71428571428572</ele><time>2026-04-19T11:18:47.001Z</time></trkpt><trkpt lat="43.45103479755871" lon="10.714841069274492"><ele>192.42857142857144</ele><time>2026-04-19T11:18:48.001Z</time></trkpt><trkpt lat="43.45108204486582" lon="10.71491364440344"><ele>192.14285714285717</ele><time>2026-04-19T11:18:49.001Z</time></trkpt><trkpt lat="43.45113370061494" lon="10.714988243308676"><ele>191.85714285714286</ele><time>2026-04-19T11:18:50.001Z</time></trkpt><trkpt lat="43.45118534621298" lon="10.715066541981654"><ele>191.57142857142856</ele><time>2026-04-19T11:18:51.001Z</time></trkpt><trkpt lat="43.451236413623015" lon="10.715143022483067"><ele>191.2857142857143</ele><time>2026-04-19T11:18:52.001Z</time></trkpt><trkpt lat="43.451277158802405" lon="10.715217014369303"><ele>191.0</ele><time>2026-04-19T11:18:53.001Z</time></trkpt><trkpt lat="43.45133628774167" lon="10.715331137690416"><ele>190.20000000000002</ele><time>2026-04-19T11:18:55.001Z</time></trkpt><trkpt lat="43.45139581296118" lon="10.715402369298058"><ele>189.4</ele><time>2026-04-19T11:18:57.001Z</time></trkpt><trkpt lat="43.45147871377923" lon="10.715470106086643"><ele>188.6</ele><time>2026-04-19T11:18:59.002Z</time></trkpt><trkpt lat="43.451579608245666" lon="10.715546470035925"><ele>187.8</ele><time>2026-04-19T11:19:01.002Z</time></trkpt><trkpt lat="43.451667062288955" lon="10.715665201341043"><ele>187.0</ele><time>2026-04-19T11:19:03.002Z</time></trkpt><trkpt lat="43.45171020893791" lon="10.715771705376845"><ele>187.0</ele><time>2026-04-19T11:19:05.002Z</time></trkpt><trkpt lat="43.451704745829154" lon="10.715865347519966"><ele>187.0</ele><time>2026-04-19T11:19:09.002Z</time></trkpt><trkpt lat="43.45169747406102" lon="10.715964091269639"><ele>187.0</ele><time>2026-04-19T11:19:13.002Z</time></trkpt><trkpt lat="43.451719248263444" lon="10.716095573626596"><ele>187.0</ele><time>2026-04-19T11:19:16.002Z</time></trkpt><trkpt lat="43.451757050889256" lon="10.71616934399752"><ele>187.0</ele><time>2026-04-19T11:19:18.002Z</time></trkpt><trkpt lat="43.451809562636676" lon="10.716251199589742"><ele>187.0</ele><time>2026-04-19T11:19:20.002Z</time></trkpt><trkpt lat="43.4518832436402" lon="10.716307889473475"><ele>186.2</ele><time>2026-04-19T11:19:23.002Z</time></trkpt><trkpt lat="43.451984894129886" lon="10.71638873189586"><ele>185.39999999999998</ele><time>2026-04-19T11:19:25.002Z</time></trkpt><trkpt lat="43.45209579391859" lon="10.716457887314787"><ele>184.60000000000002</ele><time>2026-04-19T11:19:27.002Z</time></trkpt><trkpt lat="43.452145327160125" lon="10.716517571670698"><ele>183.8</ele><time>2026-04-19T11:19:28.002Z</time></trkpt><trkpt lat="43.452200717703754" lon="10.71664346732487"><ele>183.0</ele><time>2026-04-19T11:19:30.002Z</time></trkpt><trkpt lat="43.45225087127134" lon="10.716784999442512"><ele>184.0</ele><time>2026-04-19T11:19:32.002Z</time></trkpt><trkpt lat="43.45228868119" lon="10.71691380774912"><ele>185.0</ele><time>2026-04-19T11:19:34.002Z</time></trkpt><trkpt lat="43.45233238953782" lon="10.716992956091831"><ele>186.0</ele><time>2026-04-19T11:19:36.002Z</time></trkpt><trkpt lat="43.45237770887078" lon="10.717097522416589"><ele>187.0</ele><time>2026-04-19T11:19:38.002Z</time></trkpt><trkpt lat="43.45243657527325" lon="10.71720626200451"><ele>188.0</ele><time>2026-04-19T11:19:40.002Z</time></trkpt><trkpt lat="43.45252659627472" lon="10.71729639500157"><ele>188.0</ele><time>2026-04-19T11:19:42.002Z</time></trkpt><trkpt lat="43.452581796029335" lon="10.717372225080053"><ele>188.0</ele><time>2026-04-19T11:19:44.002Z</time></trkpt><trkpt lat="43.452611022944566" lon="10.717476003359701"><ele>188.0</ele><time>2026-04-19T11:19:46.002Z</time></trkpt><trkpt lat="43.45265457730937" lon="10.717634491097014"><ele>188.0</ele><time>2026-04-19T11:19:48.002Z</time></trkpt><trkpt lat="43.452698782572256" lon="10.71777865650518"><ele>188.0</ele><time>2026-04-19T11:19:50.002Z</time></trkpt><trkpt lat="43.45271905610154" lon="10.717896293931316"><ele>187.0</ele><time>2026-04-19T11:19:52.002Z</time></trkpt><trkpt lat="43.45272761901136" lon="10.717995159235137"><ele>186.0</ele><time>2026-04-19T11:19:54.002Z</time></trkpt><trkpt lat="43.45274339748419" lon="10.718111864112096"><ele>185.0</ele><time>2026-04-19T11:19:56.002Z</time></trkpt><trkpt lat="43.45276189299697" lon="10.718247774470104"><ele>184.0</ele><time>2026-04-19T11:19:58.002Z</time></trkpt><trkpt lat="43.45278936856386" lon="10.718374851705256"><ele>183.0</ele><time>2026-04-19T11:20:00.002Z</time></trkpt><trkpt lat="43.452809974476196" lon="10.71849827052486"><ele>182.0</ele><time>2026-04-19T11:20:02.002Z</time></trkpt><trkpt lat="43.4528256627177" lon="10.718583637375312"><ele>180.8</ele><time>2026-04-19T11:20:03.002Z</time></trkpt><trkpt lat="43.45286992565132" lon="10.718734545430312"><ele>179.6</ele><time>2026-04-19T11:20:05.002Z</time></trkpt><trkpt lat="43.45292027745922" lon="10.71886908424431"><ele>178.4</ele><time>2026-04-19T11:20:07.001Z</time></trkpt><trkpt lat="43.45298532272321" lon="10.718984506501215"><ele>177.20000000000002</ele><time>2026-04-19T11:20:09.001Z</time></trkpt><trkpt lat="43.45304524598886" lon="10.71909014511818"><ele>176.0</ele><time>2026-04-19T11:20:11.001Z</time></trkpt><trkpt lat="43.45308258483639" lon="10.719170414824296"><ele>176.0</ele><time>2026-04-19T11:20:12.001Z</time></trkpt><trkpt lat="43.45315968478404" lon="10.719291774289843"><ele>176.0</ele><time>2026-04-19T11:20:14.001Z</time></trkpt><trkpt lat="43.45323326985699" lon="10.719410039303055"><ele>176.0</ele><time>2026-04-19T11:20:16.001Z</time></trkpt><trkpt lat="43.45329756089684" lon="10.719520959225312"><ele>176.0</ele><time>2026-04-19T11:20:18.001Z</time></trkpt><trkpt lat="43.45335125243239" lon="10.719633747227277"><ele>176.0</ele><time>2026-04-19T11:20:20.001Z</time></trkpt><trkpt lat="43.45339751266372" lon="10.7197257324998"><ele>174.75</ele><time>2026-04-19T11:20:22.001Z</time></trkpt><trkpt lat="43.45346764720967" lon="10.719849911922438"><ele>173.5</ele><time>2026-04-19T11:20:24.001Z</time></trkpt><trkpt lat="43.45353180808619" lon="10.719985637519335"><ele>172.25</ele><time>2026-04-19T11:20:26.001Z</time></trkpt><trkpt lat="43.453595869101854" lon="10.720120903966546"><ele>171.0</ele><time>2026-04-19T11:20:28.001Z</time></trkpt><trkpt lat="43.45365321802608" lon="10.720254887534553"><ele>170.20000000000002</ele><time>2026-04-19T11:20:30.001Z</time></trkpt><trkpt lat="43.453714909768536" lon="10.720359704187805"><ele>169.4</ele><time>2026-04-19T11:20:32.001Z</time></trkpt><trkpt lat="43.453766748963794" lon="10.720444636782254"><ele>168.6</ele><time>2026-04-19T11:20:34.001Z</time></trkpt><trkpt lat="43.45382075878529" lon="10.720549550596061"><ele>167.8</ele><time>2026-04-19T11:20:36.001Z</time></trkpt><trkpt lat="43.453881655221316" lon="10.720665316652388"><ele>167.0</ele><time>2026-04-19T11:20:38.001Z</time></trkpt><trkpt lat="43.45392621845995" lon="10.720747386406291"><ele>167.0</ele><time>2026-04-19T11:20:40.001Z</time></trkpt><trkpt lat="43.45396587355704" lon="10.720818372503569"><ele>167.0</ele><time>2026-04-19T11:20:42.001Z</time></trkpt><trkpt lat="43.45401587723916" lon="10.720929799815064"><ele>167.0</ele><time>2026-04-19T11:21:15.001Z</time></trkpt><trkpt lat="43.45405341494173" lon="10.72105394520354"><ele>167.0</ele><time>2026-04-19T11:21:17.001Z</time></trkpt><trkpt lat="43.45408595623031" lon="10.721166053756212"><ele>167.0</ele><time>2026-04-19T11:21:19.001Z</time></trkpt><trkpt lat="43.45412350212678" lon="10.721267462528338"><ele>167.0</ele><time>2026-04-19T11:21:21.001Z</time></trkpt><trkpt lat="43.45420112389248" lon="10.72135174495188"><ele>167.66666666666666</ele><time>2026-04-19T11:21:23.001Z</time></trkpt><trkpt lat="43.454274316245126" lon="10.721416731868098"><ele>168.33333333333331</ele><time>2026-04-19T11:21:25.001Z</time></trkpt><trkpt lat="43.45434651676515" lon="10.721452067271121"><ele>169.0</ele><time>2026-04-19T11:21:28.001Z</time></trkpt><trkpt lat="43.45442891232299" lon="10.721518015290293"><ele>169.66666666666666</ele><time>2026-04-19T11:21:31.001Z</time></trkpt><trkpt lat="43.454473928813265" lon="10.721584822116355"><ele>170.33333333333334</ele><time>2026-04-19T11:21:34.001Z</time></trkpt><trkpt lat="43.45449718904195" lon="10.721712697283655"><ele>171.0</ele><time>2026-04-19T11:21:38.001Z</time></trkpt><trkpt lat="43.45449934216732" lon="10.721809627550003"><ele>171.85714285714283</ele><time>2026-04-19T11:21:40.001Z</time></trkpt><trkpt lat="43.45449390066221" lon="10.721934715729974"><ele>172.71428571428572</ele><time>2026-04-19T11:21:43.001Z</time></trkpt><trkpt lat="43.454491916578725" lon="10.722030255227724"><ele>173.57142857142856</ele><time>2026-04-19T11:21:45.001Z</time></trkpt><trkpt lat="43.454487160723716" lon="10.722116959639685"><ele>174.42857142857142</ele><time>2026-04-19T11:21:47.001Z</time></trkpt><trkpt lat="43.45449567516624" lon="10.722215405116176"><ele>175.28571428571428</ele><time>2026-04-19T11:21:49.001Z</time></trkpt><trkpt lat="43.45452017266935" lon="10.722308675051258"><ele>176.14285714285714</ele><time>2026-04-19T11:21:51.001Z</time></trkpt><trkpt lat="43.4545484880894" lon="10.722401974489049"><ele>177.0</ele><time>2026-04-19T11:21:53.001Z</time></trkpt><trkpt lat="43.454592456324114" lon="10.722522573268057"><ele>177.8</ele><time>2026-04-19T11:21:56.001Z</time></trkpt><trkpt lat="43.454627936550715" lon="10.722624662018767"><ele>178.6</ele><time>2026-04-19T11:21:58.001Z</time></trkpt><trkpt lat="43.454681108405055" lon="10.722746665412119"><ele>179.4</ele><time>2026-04-19T11:22:00.001Z</time></trkpt><trkpt lat="43.454749453373545" lon="10.72287974588899"><ele>180.20000000000002</ele><time>2026-04-19T11:22:02.001Z</time></trkpt><trkpt lat="43.45478969799994" lon="10.722987827749003"><ele>181.0</ele><time>2026-04-19T11:22:04.001Z</time></trkpt><trkpt lat="43.454836297030475" lon="10.723081535413401"><ele>181.5</ele><time>2026-04-19T11:22:06.001Z</time></trkpt><trkpt lat="43.45490911068802" lon="10.723202818904461"><ele>182.0</ele><time>2026-04-19T11:22:08.001Z</time></trkpt><trkpt lat="43.45498247378427" lon="10.723341622084575"><ele>182.5</ele><time>2026-04-19T11:22:10.001Z</time></trkpt><trkpt lat="43.455036190417445" lon="10.72348345053692"><ele>183.0</ele><time>2026-04-19T11:22:12Z</time></trkpt><trkpt lat="43.45508558385221" lon="10.723611834341273"><ele>183.0</ele><time>2026-04-19T11:22:14Z</time></trkpt><trkpt lat="43.455122791958935" lon="10.72370108074532"><ele>183.0</ele><time>2026-04-19T11:22:17Z</time></trkpt><trkpt lat="43.45517116381408" lon="10.72381553378918"><ele>183.0</ele><time>2026-04-19T11:22:20Z</time></trkpt><trkpt lat="43.45522809515789" lon="10.723917039436412"><ele>183.0</ele><time>2026-04-19T11:22:22Z</time></trkpt><trkpt lat="43.455278878055324" lon="10.723995600779823"><ele>183.0</ele><time>2026-04-19T11:22:24Z</time></trkpt><trkpt lat="43.45532967395555" lon="10.724089409733697"><ele>183.0</ele><time>2026-04-19T11:22:26Z</time></trkpt><trkpt lat="43.455374688872666" lon="10.724162839401123"><ele>183.0</ele><time>2026-04-19T11:22:27Z</time></trkpt><trkpt lat="43.45542320924917" lon="10.724246987509037"><ele>183.0</ele><time>2026-04-19T11:22:28Z</time></trkpt><trkpt lat="43.45553075698757" lon="10.7243674465098"><ele>183.0</ele><time>2026-04-19T11:22:30Z</time></trkpt><trkpt lat="43.45558259282275" lon="10.724448600357517"><ele>183.0</ele><time>2026-04-19T11:22:31Z</time></trkpt><trkpt lat="43.455633878915116" lon="10.724517760901561"><ele>183.0</ele><time>2026-04-19T11:22:32Z</time></trkpt><trkpt lat="43.455716481285315" lon="10.72463739275064"><ele>182.33333333333334</ele><time>2026-04-19T11:22:34Z</time></trkpt><trkpt lat="43.45580259948199" lon="10.724765720498675"><ele>181.66666666666666</ele><time>2026-04-19T11:22:36Z</time></trkpt><trkpt lat="43.45585002609327" lon="10.724836572945435"><ele>181.0</ele><time>2026-04-19T11:22:37Z</time></trkpt><trkpt lat="43.45589382737459" lon="10.724908505763864"><ele>180.33333333333331</ele><time>2026-04-19T11:22:38Z</time></trkpt><trkpt lat="43.45594158488335" lon="10.724976198360348"><ele>179.66666666666666</ele><time>2026-04-19T11:22:39Z</time></trkpt><trkpt lat="43.45598462312597" lon="10.725039621441635"><ele>179.0</ele><time>2026-04-19T11:22:40Z</time></trkpt><trkpt lat="43.456029817721166" lon="10.72510150056318"><ele>179.0</ele><time>2026-04-19T11:22:41Z</time></trkpt><trkpt lat="43.45610885547746" lon="10.72519591595923"><ele>179.0</ele><time>2026-04-19T11:22:43Z</time></trkpt><trkpt lat="43.45618507212357" lon="10.725311733964976"><ele>179.0</ele><time>2026-04-19T11:22:45Z</time></trkpt><trkpt lat="43.45624824287602" lon="10.725414189411199"><ele>179.0</ele><time>2026-04-19T11:22:47Z</time></trkpt><trkpt lat="43.456302956293435" lon="10.72547989548814"><ele>179.0</ele><time>2026-04-19T11:22:49Z</time></trkpt><trkpt lat="43.456361741562894" lon="10.72556864689473"><ele>176.79999999999998</ele><time>2026-04-19T11:22:52Z</time></trkpt><trkpt lat="43.45643075983841" lon="10.725660875724822"><ele>174.6</ele><time>2026-04-19T11:22:55Z</time></trkpt><trkpt lat="43.4564950858832" lon="10.725753045247528"><ele>172.4</ele><time>2026-04-19T11:22:57Z</time></trkpt><trkpt lat="43.45656114055074" lon="10.72584250681263"><ele>170.2</ele><time>2026-04-19T11:22:59Z</time></trkpt><trkpt lat="43.456614075079365" lon="10.725925087506257"><ele>168.0</ele><time>2026-04-19T11:23:01Z</time></trkpt><trkpt lat="43.45668005808027" lon="10.726027421044341"><ele>166.8</ele><time>2026-04-19T11:23:03Z</time></trkpt><trkpt lat="43.45672758555685" lon="10.726099321643938"><ele>165.60000000000002</ele><time>2026-04-19T11:23:04Z</time></trkpt><trkpt lat="43.45678580987446" lon="10.726200196753112"><ele>164.39999999999998</ele><time>2026-04-19T11:23:06Z</time></trkpt><trkpt lat="43.456856247615576" lon="10.726318053193296"><ele>163.2</ele><time>2026-04-19T11:23:08Z</time></trkpt><trkpt lat="43.45690877439487" lon="10.726397810947512"><ele>162.0</ele><time>2026-04-19T11:23:10Z</time></trkpt><trkpt lat="43.45695953961534" lon="10.726513786447779"><ele>162.0</ele><time>2026-04-19T11:23:12Z</time></trkpt><trkpt lat="43.45702699180206" lon="10.726639506082705"><ele>162.0</ele><time>2026-04-19T11:23:14Z</time></trkpt><trkpt lat="43.45707371045644" lon="10.726739046592646"><ele>162.0</ele><time>2026-04-19T11:23:16Z</time></trkpt><trkpt lat="43.45713310758208" lon="10.726827529506625"><ele>162.0</ele><time>2026-04-19T11:23:19Z</time></trkpt><trkpt lat="43.45715617700828" lon="10.726934636337846"><ele>162.0</ele><time>2026-04-19T11:23:22Z</time></trkpt><trkpt lat="43.45718056883366" lon="10.727035809341862"><ele>162.0</ele><time>2026-04-19T11:23:24Z</time></trkpt><trkpt lat="43.457208805126996" lon="10.727156878050506"><ele>161.4</ele><time>2026-04-19T11:23:26Z</time></trkpt><trkpt lat="43.45723214525999" lon="10.727270861763367"><ele>160.79999999999998</ele><time>2026-04-19T11:23:28Z</time></trkpt><trkpt lat="43.45727079722928" lon="10.727431036763413"><ele>160.2</ele><time>2026-04-19T11:23:30Z</time></trkpt><trkpt lat="43.45730594157518" lon="10.727579066779088"><ele>159.6</ele><time>2026-04-19T11:23:32Z</time></trkpt><trkpt lat="43.45732704276653" lon="10.727717739809691"><ele>159.0</ele><time>2026-04-19T11:23:34Z</time></trkpt><trkpt lat="43.45734818835138" lon="10.727836969750332"><ele>158.66666666666666</ele><time>2026-04-19T11:23:36Z</time></trkpt><trkpt lat="43.45737842491728" lon="10.727969867775855"><ele>158.33333333333334</ele><time>2026-04-19T11:23:38Z</time></trkpt><trkpt lat="43.45740386992066" lon="10.72807566777513"><ele>158.0</ele><time>2026-04-19T11:23:40Z</time></trkpt><trkpt lat="43.457425756604216" lon="10.728165271555502"><ele>157.66666666666669</ele><time>2026-04-19T11:23:42Z</time></trkpt><trkpt lat="43.45745050798318" lon="10.728265391920186"><ele>157.33333333333334</ele><time>2026-04-19T11:23:44Z</time></trkpt><trkpt lat="43.45746697446167" lon="10.72836425944601"><ele>157.0</ele><time>2026-04-19T11:23:46.001Z</time></trkpt><trkpt lat="43.45748495594407" lon="10.72846368687146"><ele>156.5</ele><time>2026-04-19T11:23:48.001Z</time></trkpt><trkpt lat="43.45750443910731" lon="10.7285682007487"><ele>156.0</ele><time>2026-04-19T11:23:50.001Z</time></trkpt><trkpt lat="43.457528478283436" lon="10.728690656409656"><ele>155.5</ele><time>2026-04-19T11:23:52.001Z</time></trkpt><trkpt lat="43.45754795853793" lon="10.728794043643045"><ele>155.0</ele><time>2026-04-19T11:23:54.001Z</time></trkpt><trkpt lat="43.45757184855609" lon="10.728909618009144"><ele>154.5</ele><time>2026-04-19T11:23:56.001Z</time></trkpt><trkpt lat="43.457593562974395" lon="10.729030400094057"><ele>154.0</ele><time>2026-04-19T11:23:58.001Z</time></trkpt><trkpt lat="43.457617049199605" lon="10.729152420990863"><ele>154.0</ele><time>2026-04-19T11:24:00.001Z</time></trkpt><trkpt lat="43.457643256854695" lon="10.729268171256617"><ele>154.0</ele><time>2026-04-19T11:24:02.001Z</time></trkpt><trkpt lat="43.45766841148823" lon="10.729391889945237"><ele>154.0</ele><time>2026-04-19T11:24:04.001Z</time></trkpt><trkpt lat="43.457692185256555" lon="10.729511153746751"><ele>154.0</ele><time>2026-04-19T11:24:06.001Z</time></trkpt><trkpt lat="43.457697932179734" lon="10.7296884487177"><ele>154.0</ele><time>2026-04-19T11:24:09.001Z</time></trkpt><trkpt lat="43.4576827416974" lon="10.729822946209385"><ele>153.16666666666669</ele><time>2026-04-19T11:24:12.001Z</time></trkpt><trkpt lat="43.45763886302822" lon="10.729907482020693"><ele>152.33333333333334</ele><time>2026-04-19T11:24:15.001Z</time></trkpt><trkpt lat="43.457594714796535" lon="10.729974154287374"><ele>151.5</ele><time>2026-04-19T11:24:17.001Z</time></trkpt><trkpt lat="43.45752424503985" lon="10.730055411258501"><ele>150.66666666666666</ele><time>2026-04-19T11:24:18.998Z</time></trkpt><trkpt lat="43.4574538121983" lon="10.730148675917619"><ele>149.83333333333331</ele><time>2026-04-19T11:24:20.998Z</time></trkpt><trkpt lat="43.45738381460533" lon="10.73024475678379"><ele>149.0</ele><time>2026-04-19T11:24:22.998Z</time></trkpt><trkpt lat="43.457313480651486" lon="10.730329437327853"><ele>147.8</ele><time>2026-04-19T11:24:24.998Z</time></trkpt><trkpt lat="43.45725471720926" lon="10.730407479485368"><ele>146.60000000000002</ele><time>2026-04-19T11:24:26.998Z</time></trkpt><trkpt lat="43.457184656339805" lon="10.730483493906451"><ele>145.4</ele><time>2026-04-19T11:24:28.998Z</time></trkpt><trkpt lat="43.457109871754824" lon="10.730596295352102"><ele>144.20000000000002</ele><time>2026-04-19T11:24:30.998Z</time></trkpt><trkpt lat="43.457018598020234" lon="10.730702801972209"><ele>143.0</ele><time>2026-04-19T11:24:32.999Z</time></trkpt><trkpt lat="43.45692673163519" lon="10.730825285455634"><ele>141.20000000000002</ele><time>2026-04-19T11:24:34.999Z</time></trkpt><trkpt lat="43.456876765839496" lon="10.730886339953374"><ele>139.4</ele><time>2026-04-19T11:24:35.999Z</time></trkpt><trkpt lat="43.45678182290676" lon="10.731001125469998"><ele>137.60000000000002</ele><time>2026-04-19T11:24:37.999Z</time></trkpt><trkpt lat="43.45669274411941" lon="10.73112812645899"><ele>135.8</ele><time>2026-04-19T11:24:39.999Z</time></trkpt><trkpt lat="43.45661635999699" lon="10.731219796129775"><ele>134.0</ele><time>2026-04-19T11:24:41.999Z</time></trkpt><trkpt lat="43.45655360788031" lon="10.731313785133366"><ele>133.16666666666666</ele><time>2026-04-19T11:24:43.999Z</time></trkpt><trkpt lat="43.456500712744855" lon="10.731390133392779"><ele>132.33333333333331</ele><time>2026-04-19T11:24:47.999Z</time></trkpt><trkpt lat="43.45644898952696" lon="10.731462125385898"><ele>131.5</ele><time>2026-04-19T11:24:50.999Z</time></trkpt><trkpt lat="43.456376583370776" lon="10.73156061312203"><ele>130.66666666666666</ele><time>2026-04-19T11:24:53.999Z</time></trkpt><trkpt lat="43.45631242100838" lon="10.731644640801719"><ele>129.83333333333334</ele><time>2026-04-19T11:24:55.999Z</time></trkpt><trkpt lat="43.45623980579878" lon="10.731730747788063"><ele>129.0</ele><time>2026-04-19T11:24:57.999Z</time></trkpt><trkpt lat="43.45619097285876" lon="10.731817241594332"><ele>128.33333333333334</ele><time>2026-04-19T11:25:01Z</time></trkpt><trkpt lat="43.45613042695927" lon="10.731864724181499"><ele>127.66666666666666</ele><time>2026-04-19T11:25:06Z</time></trkpt><trkpt lat="43.45603954734618" lon="10.73178953279712"><ele>127.0</ele><time>2026-04-19T11:25:08Z</time></trkpt><trkpt lat="43.45598140680171" lon="10.731725533870705"><ele>126.33333333333333</ele><time>2026-04-19T11:25:09Z</time></trkpt><trkpt lat="43.455908143459894" lon="10.731659797649577"><ele>125.66666666666666</ele><time>2026-04-19T11:25:10Z</time></trkpt><trkpt lat="43.45582592173711" lon="10.731590986028506"><ele>125.0</ele><time>2026-04-19T11:25:11Z</time></trkpt><trkpt lat="43.45573212448045" lon="10.731513852694787"><ele>125.0</ele><time>2026-04-19T11:25:12Z</time></trkpt><trkpt lat="43.45563192102013" lon="10.731432494767533"><ele>125.0</ele><time>2026-04-19T11:25:13Z</time></trkpt><trkpt lat="43.455513127229565" lon="10.731335355047833"><ele>125.0</ele><time>2026-04-19T11:25:14Z</time></trkpt><trkpt lat="43.455388548405054" lon="10.731239331001493"><ele>125.0</ele><time>2026-04-19T11:25:15Z</time></trkpt><trkpt lat="43.455261595370565" lon="10.731124751344787"><ele>125.33333333333333</ele><time>2026-04-19T11:25:16Z</time></trkpt><trkpt lat="43.455126210320195" lon="10.731004290137067"><ele>125.66666666666666</ele><time>2026-04-19T11:25:17Z</time></trkpt><trkpt lat="43.454983877966846" lon="10.730887785847326"><ele>126.0</ele><time>2026-04-19T11:25:18Z</time></trkpt><trkpt lat="43.45483985040536" lon="10.730766664837855"><ele>126.0</ele><time>2026-04-19T11:25:19Z</time></trkpt><trkpt lat="43.45469434242482" lon="10.73064061047895"><ele>126.0</ele><time>2026-04-19T11:25:20Z</time></trkpt><trkpt lat="43.45455804819427" lon="10.730519176315893"><ele>126.0</ele><time>2026-04-19T11:25:21Z</time></trkpt><trkpt lat="43.454415589762945" lon="10.730399525995683"><ele>125.66666666666666</ele><time>2026-04-19T11:25:22Z</time></trkpt><trkpt lat="43.45428243095602" lon="10.73030065828952"><ele>125.33333333333333</ele><time>2026-04-19T11:25:23Z</time></trkpt><trkpt lat="43.4541500887274" lon="10.730182517638049"><ele>125.0</ele><time>2026-04-19T11:25:24Z</time></trkpt><trkpt lat="43.45402321533864" lon="10.73007390838147"><ele>125.75</ele><time>2026-04-19T11:25:25Z</time></trkpt><trkpt lat="43.453902491523415" lon="10.729973392048446"><ele>126.5</ele><time>2026-04-19T11:25:26Z</time></trkpt><trkpt lat="43.45378450004709" lon="10.72987342337675"><ele>127.25</ele><time>2026-04-19T11:25:27Z</time></trkpt><trkpt lat="43.45366798516978" lon="10.729779462663519"><ele>128.0</ele><time>2026-04-19T11:25:28Z</time></trkpt><trkpt lat="43.453555334321884" lon="10.72967787726015"><ele>128.0</ele><time>2026-04-19T11:25:29Z</time></trkpt><trkpt lat="43.45344297954753" lon="10.729581813507158"><ele>128.0</ele><time>2026-04-19T11:25:30Z</time></trkpt><trkpt lat="43.45333215059994" lon="10.729483901922146"><ele>128.0</ele><time>2026-04-19T11:25:31Z</time></trkpt><trkpt lat="43.453218715111895" lon="10.729384281567228"><ele>128.0</ele><time>2026-04-19T11:25:32Z</time></trkpt><trkpt lat="43.453110809926315" lon="10.729304153319136"><ele>128.75</ele><time>2026-04-19T11:25:33Z</time></trkpt><trkpt lat="43.45299865611027" lon="10.729243069317278"><ele>129.5</ele><time>2026-04-19T11:25:34Z</time></trkpt><trkpt lat="43.45288463468489" lon="10.729204367691844"><ele>130.25</ele><time>2026-04-19T11:25:35Z</time></trkpt><trkpt lat="43.45277963414" lon="10.729148946049051"><ele>131.0</ele><time>2026-04-19T11:25:36Z</time></trkpt><trkpt lat="43.45266276651894" lon="10.729101300264874"><ele>131.25</ele><time>2026-04-19T11:25:37Z</time></trkpt><trkpt lat="43.452539590491185" lon="10.729036502696554"><ele>131.5</ele><time>2026-04-19T11:25:38Z</time></trkpt><trkpt lat="43.45241401017744" lon="10.728978913439198"><ele>131.75</ele><time>2026-04-19T11:25:39Z</time></trkpt><trkpt lat="43.4522837892764" lon="10.728921187616011"><ele>132.0</ele><time>2026-04-19T11:25:40Z</time></trkpt><trkpt lat="43.45215967184165" lon="10.728869694921174"><ele>132.5</ele><time>2026-04-19T11:25:41Z</time></trkpt><trkpt lat="43.452028857601036" lon="10.728805931919423"><ele>133.0</ele><time>2026-04-19T11:25:42Z</time></trkpt><trkpt lat="43.45190309448115" lon="10.728746309083878"><ele>133.5</ele><time>2026-04-19T11:25:43Z</time></trkpt><trkpt lat="43.45177876458005" lon="10.728685669660031"><ele>134.0</ele><time>2026-04-19T11:25:44Z</time></trkpt><trkpt lat="43.451657271983166" lon="10.728635949021026"><ele>134.0</ele><time>2026-04-19T11:25:45Z</time></trkpt><trkpt lat="43.45154463784035" lon="10.72857976016394"><ele>134.0</ele><time>2026-04-19T11:25:46Z</time></trkpt><trkpt lat="43.451434651136786" lon="10.728531123005009"><ele>134.0</ele><time>2026-04-19T11:25:47Z</time></trkpt><trkpt lat="43.451324459418494" lon="10.7284989569007"><ele>134.0</ele><time>2026-04-19T11:25:48Z</time></trkpt><trkpt lat="43.451208938467346" lon="10.72849673758937"><ele>134.5</ele><time>2026-04-19T11:25:49Z</time></trkpt><trkpt lat="43.45108698111339" lon="10.728529185728268"><ele>135.0</ele><time>2026-04-19T11:25:50Z</time></trkpt><trkpt lat="43.450958711509344" lon="10.728577978688946"><ele>135.5</ele><time>2026-04-19T11:25:51Z</time></trkpt><trkpt lat="43.4508309531654" lon="10.728642337548294"><ele>136.0</ele><time>2026-04-19T11:25:52Z</time></trkpt><trkpt lat="43.4507038799525" lon="10.728735806468828"><ele>137.0</ele><time>2026-04-19T11:25:53Z</time></trkpt><trkpt lat="43.45057504927786" lon="10.728823367248228"><ele>138.0</ele><time>2026-04-19T11:25:54Z</time></trkpt><trkpt lat="43.450446025835156" lon="10.728911906537787"><ele>139.0</ele><time>2026-04-19T11:25:55Z</time></trkpt><trkpt lat="43.4503059863507" lon="10.729012278884092"><ele>140.0</ele><time>2026-04-19T11:25:56Z</time></trkpt><trkpt lat="43.450173311030845" lon="10.729104212507279"><ele>140.75</ele><time>2026-04-19T11:25:57Z</time></trkpt><trkpt lat="43.4500424622455" lon="10.729191704370685"><ele>141.5</ele><time>2026-04-19T11:25:58Z</time></trkpt><trkpt lat="43.44992094343748" lon="10.729273827076762"><ele>142.25</ele><time>2026-04-19T11:25:59Z</time></trkpt><trkpt lat="43.449809614961424" lon="10.729349762502096"><ele>143.0</ele><time>2026-04-19T11:26:00Z</time></trkpt><trkpt lat="43.449718616144196" lon="10.729438352483795"><ele>144.75</ele><time>2026-04-19T11:26:01Z</time></trkpt><trkpt lat="43.44964734518389" lon="10.729547715644507"><ele>146.5</ele><time>2026-04-19T11:26:02Z</time></trkpt><trkpt lat="43.44960970935416" lon="10.729704968957835"><ele>148.25</ele><time>2026-04-19T11:26:03Z</time></trkpt><trkpt lat="43.44958191823219" lon="10.729864234113169"><ele>150.0</ele><time>2026-04-19T11:26:04Z</time></trkpt><trkpt lat="43.44955584904932" lon="10.730013248902578"><ele>150.0</ele><time>2026-04-19T11:26:05Z</time></trkpt><trkpt lat="43.449517062023155" lon="10.73013400867839"><ele>150.0</ele><time>2026-04-19T11:26:06Z</time></trkpt><trkpt lat="43.44945468265607" lon="10.730231851401584"><ele>150.0</ele><time>2026-04-19T11:26:07Z</time></trkpt><trkpt lat="43.44936317722425" lon="10.730292295574827"><ele>150.0</ele><time>2026-04-19T11:26:08Z</time></trkpt><trkpt lat="43.44925764592083" lon="10.73030129276229"><ele>150.0</ele><time>2026-04-19T11:26:09Z</time></trkpt><trkpt lat="43.44914888628323" lon="10.730230039699006"><ele>150.0</ele><time>2026-04-19T11:26:10Z</time></trkpt><trkpt lat="43.44902853851868" lon="10.730181695598867"><ele>150.0</ele><time>2026-04-19T11:26:11Z</time></trkpt><trkpt lat="43.44890442446459" lon="10.730107403703409"><ele>150.0</ele><time>2026-04-19T11:26:12Z</time></trkpt><trkpt lat="43.44878217218819" lon="10.730037823115593"><ele>150.0</ele><time>2026-04-19T11:26:13Z</time></trkpt><trkpt lat="43.44866027744206" lon="10.7299737357533"><ele>152.0</ele><time>2026-04-19T11:26:14Z</time></trkpt><trkpt lat="43.44854106582056" lon="10.729900357009269"><ele>154.0</ele><time>2026-04-19T11:26:15Z</time></trkpt><trkpt lat="43.44842495549069" lon="10.729810615639742"><ele>156.0</ele><time>2026-04-19T11:26:16Z</time></trkpt><trkpt lat="43.4483108110177" lon="10.729705697941972"><ele>158.0</ele><time>2026-04-19T11:26:17Z</time></trkpt><trkpt lat="43.448201487667426" lon="10.729580985972504"><ele>158.0</ele><time>2026-04-19T11:26:18Z</time></trkpt><trkpt lat="43.44809505101218" lon="10.729438549293635"><ele>158.0</ele><time>2026-04-19T11:26:19Z</time></trkpt><trkpt lat="43.44798634476872" lon="10.729287539692471"><ele>158.0</ele><time>2026-04-19T11:26:20Z</time></trkpt><trkpt lat="43.44787619461706" lon="10.729138481637436"><ele>160.33333333333331</ele><time>2026-04-19T11:26:21Z</time></trkpt><trkpt lat="43.447779021000194" lon="10.728972787659512"><ele>162.66666666666666</ele><time>2026-04-19T11:26:22Z</time></trkpt><trkpt lat="43.44767326095306" lon="10.728809788163778"><ele>165.0</ele><time>2026-04-19T11:26:23.001Z</time></trkpt><trkpt lat="43.44759157591551" lon="10.728628012887079"><ele>165.0</ele><time>2026-04-19T11:26:23.998Z</time></trkpt><trkpt lat="43.44751446615575" lon="10.728434046638737"><ele>165.0</ele><time>2026-04-19T11:26:24.998Z</time></trkpt><trkpt lat="43.44744053581524" lon="10.728244458395528"><ele>165.0</ele><time>2026-04-19T11:26:25.998Z</time></trkpt><trkpt lat="43.447350110286514" lon="10.728060821175449"><ele>165.0</ele><time>2026-04-19T11:26:26.998Z</time></trkpt><trkpt lat="43.447296306416874" lon="10.727860353109145"><ele>165.0</ele><time>2026-04-19T11:26:27.998Z</time></trkpt><trkpt lat="43.44723028531495" lon="10.727675089743999"><ele>165.0</ele><time>2026-04-19T11:26:28.998Z</time></trkpt><trkpt lat="43.44716193083539" lon="10.727488843599925"><ele>166.75</ele><time>2026-04-19T11:26:29.998Z</time></trkpt><trkpt lat="43.44709307424877" lon="10.72730610902114"><ele>168.5</ele><time>2026-04-19T11:26:30.998Z</time></trkpt><trkpt lat="43.44702548182492" lon="10.7271267288931"><ele>170.25</ele><time>2026-04-19T11:26:31.998Z</time></trkpt><trkpt lat="43.44695913385064" lon="10.726948149057227"><ele>172.0</ele><time>2026-04-19T11:26:32.998Z</time></trkpt><trkpt lat="43.446898174786675" lon="10.726766839929082"><ele>172.5</ele><time>2026-04-19T11:26:33.998Z</time></trkpt><trkpt lat="43.446841143617426" lon="10.726581747036736"><ele>173.0</ele><time>2026-04-19T11:26:34.999Z</time></trkpt><trkpt lat="43.44678678594813" lon="10.726394927763966"><ele>173.5</ele><time>2026-04-19T11:26:35.999Z</time></trkpt><trkpt lat="43.446734197109336" lon="10.726208295684591"><ele>174.0</ele><time>2026-04-19T11:26:36.999Z</time></trkpt><trkpt lat="43.44668242876758" lon="10.726025517431134"><ele>174.0</ele><time>2026-04-19T11:26:37.999Z</time></trkpt><trkpt lat="43.4466283039037" lon="10.725847918175234"><ele>174.0</ele><time>2026-04-19T11:26:38.999Z</time></trkpt><trkpt lat="43.44657067208772" lon="10.725667030018663"><ele>174.0</ele><time>2026-04-19T11:26:39.999Z</time></trkpt><trkpt lat="43.44651385048471" lon="10.72548937175595"><ele>174.0</ele><time>2026-04-19T11:26:40.999Z</time></trkpt><trkpt lat="43.446458161742434" lon="10.725309862959225"><ele>174.0</ele><time>2026-04-19T11:26:41.999Z</time></trkpt><trkpt lat="43.44641125825442" lon="10.72513653482569"><ele>174.0</ele><time>2026-04-19T11:26:42.999Z</time></trkpt><trkpt lat="43.44638697311792" lon="10.72497383385796"><ele>174.0</ele><time>2026-04-19T11:26:43.999Z</time></trkpt><trkpt lat="43.446389832343236" lon="10.724812515115902"><ele>174.0</ele><time>2026-04-19T11:26:44.999Z</time></trkpt><trkpt lat="43.44642067674688" lon="10.724642674259586"><ele>174.0</ele><time>2026-04-19T11:26:45.999Z</time></trkpt><trkpt lat="43.44646236301651" lon="10.724463850808734"><ele>174.0</ele><time>2026-04-19T11:26:46.999Z</time></trkpt><trkpt lat="43.44650181124093" lon="10.724296875215328"><ele>174.0</ele><time>2026-04-19T11:26:47.999Z</time></trkpt><trkpt lat="43.4465221500745" lon="10.72412896691464"><ele>174.0</ele><time>2026-04-19T11:26:48.999Z</time></trkpt><trkpt lat="43.446519002017155" lon="10.723971530531939"><ele>175.25</ele><time>2026-04-19T11:26:49.999Z</time></trkpt><trkpt lat="43.44648633358069" lon="10.723805363908316"><ele>176.5</ele><time>2026-04-19T11:26:50.999Z</time></trkpt><trkpt lat="43.446432983437596" lon="10.723646712666124"><ele>177.75</ele><time>2026-04-19T11:26:51.999Z</time></trkpt><trkpt lat="43.44638139193598" lon="10.723498137938456"><ele>179.0</ele><time>2026-04-19T11:26:52.999Z</time></trkpt><trkpt lat="43.44632353672468" lon="10.72333814893967"><ele>181.75</ele><time>2026-04-19T11:26:53.999Z</time></trkpt><trkpt lat="43.44626337992793" lon="10.723171433717102"><ele>184.5</ele><time>2026-04-19T11:26:54.999Z</time></trkpt><trkpt lat="43.446204830163545" lon="10.72300495256021"><ele>187.25</ele><time>2026-04-19T11:26:55.999Z</time></trkpt><trkpt lat="43.446146247371" lon="10.722834293247585"><ele>190.0</ele><time>2026-04-19T11:26:56.999Z</time></trkpt><trkpt lat="43.4460818110425" lon="10.722663074805046"><ele>190.0</ele><time>2026-04-19T11:26:57.999Z</time></trkpt><trkpt lat="43.44600730129872" lon="10.722502332502938"><ele>190.0</ele><time>2026-04-19T11:26:58.999Z</time></trkpt><trkpt lat="43.44592084276481" lon="10.722337996407797"><ele>190.0</ele><time>2026-04-19T11:26:59.999Z</time></trkpt><trkpt lat="43.44582629109999" lon="10.722187305910877"><ele>190.0</ele><time>2026-04-19T11:27:00.999Z</time></trkpt><trkpt lat="43.445731569044696" lon="10.72205176163552"><ele>190.0</ele><time>2026-04-19T11:27:01.999Z</time></trkpt><trkpt lat="43.44565205994165" lon="10.72191438284965"><ele>190.0</ele><time>2026-04-19T11:27:02.999Z</time></trkpt><trkpt lat="43.44559298535066" lon="10.721762668922702"><ele>190.0</ele><time>2026-04-19T11:27:04Z</time></trkpt><trkpt lat="43.44555864252864" lon="10.721607281220061"><ele>190.0</ele><time>2026-04-19T11:27:05Z</time></trkpt><trkpt lat="43.445532470753356" lon="10.721431321702067"><ele>190.0</ele><time>2026-04-19T11:27:06Z</time></trkpt><trkpt lat="43.44552788926151" lon="10.721246247284023"><ele>190.0</ele><time>2026-04-19T11:27:07Z</time></trkpt><trkpt lat="43.445548775468765" lon="10.72107289796316"><ele>190.0</ele><time>2026-04-19T11:27:08Z</time></trkpt><trkpt lat="43.44558237841782" lon="10.720909048186329"><ele>190.0</ele><time>2026-04-19T11:27:09Z</time></trkpt><trkpt lat="43.44561672219169" lon="10.720754535836333"><ele>191.2</ele><time>2026-04-19T11:27:10Z</time></trkpt><trkpt lat="43.44564451825327" lon="10.720613318859657"><ele>192.4</ele><time>2026-04-19T11:27:11Z</time></trkpt><trkpt lat="43.445658173567566" lon="10.720487173906939"><ele>193.60000000000002</ele><time>2026-04-19T11:27:12Z</time></trkpt><trkpt lat="43.44564358317207" lon="10.720351736984123"><ele>194.8</ele><time>2026-04-19T11:27:13Z</time></trkpt><trkpt lat="43.445591480521955" lon="10.72023905421464"><ele>196.0</ele><time>2026-04-19T11:27:14Z</time></trkpt><trkpt lat="43.44554388093696" lon="10.720130199008901"><ele>196.0</ele><time>2026-04-19T11:27:15Z</time></trkpt><trkpt lat="43.44547874105375" lon="10.720039415566218"><ele>196.0</ele><time>2026-04-19T11:27:16Z</time></trkpt><trkpt lat="43.44539746228749" lon="10.719969689932698"><ele>196.0</ele><time>2026-04-19T11:27:17Z</time></trkpt><trkpt lat="43.44531078152219" lon="10.719940928229764"><ele>196.0</ele><time>2026-04-19T11:27:18Z</time></trkpt><trkpt lat="43.44521841915662" lon="10.719966185542269"><ele>196.0</ele><time>2026-04-19T11:27:19Z</time></trkpt><trkpt lat="43.445143599935285" lon="10.720047809244603"><ele>197.4</ele><time>2026-04-19T11:27:20Z</time></trkpt><trkpt lat="43.44506571518407" lon="10.720098413171447"><ele>198.8</ele><time>2026-04-19T11:27:21Z</time></trkpt><trkpt lat="43.44497968951461" lon="10.720159944988417"><ele>200.20000000000002</ele><time>2026-04-19T11:27:22Z</time></trkpt><trkpt lat="43.44489167368663" lon="10.720233863537704"><ele>201.60000000000002</ele><time>2026-04-19T11:27:23Z</time></trkpt><trkpt lat="43.44480688291723" lon="10.72032524242498"><ele>203.0</ele><time>2026-04-19T11:27:24Z</time></trkpt><trkpt lat="43.44475101149772" lon="10.720469454190837"><ele>203.0</ele><time>2026-04-19T11:27:25Z</time></trkpt><trkpt lat="43.44470808827354" lon="10.72060777955963"><ele>203.0</ele><time>2026-04-19T11:27:26Z</time></trkpt><trkpt lat="43.44466035020791" lon="10.720740711451956"><ele>203.0</ele><time>2026-04-19T11:27:27Z</time></trkpt><trkpt lat="43.44461112126982" lon="10.72083833157682"><ele>203.0</ele><time>2026-04-19T11:27:28Z</time></trkpt><trkpt lat="43.444530843181155" lon="10.720910753479558"><ele>203.0</ele><time>2026-04-19T11:27:29Z</time></trkpt><trkpt lat="43.444440450380164" lon="10.720950594664723"><ele>205.8</ele><time>2026-04-19T11:27:30Z</time></trkpt><trkpt lat="43.44434623287486" lon="10.720988062820277"><ele>208.60000000000002</ele><time>2026-04-19T11:27:31Z</time></trkpt><trkpt lat="43.44425307626126" lon="10.721017695593797"><ele>211.39999999999998</ele><time>2026-04-19T11:27:32Z</time></trkpt><trkpt lat="43.44415537230712" lon="10.72103295489273"><ele>214.2</ele><time>2026-04-19T11:27:33Z</time></trkpt><trkpt lat="43.444055827473434" lon="10.72104836007498"><ele>217.0</ele><time>2026-04-19T11:27:34Z</time></trkpt><trkpt lat="43.44395527338991" lon="10.721057311067813"><ele>217.75</ele><time>2026-04-19T11:27:35Z</time></trkpt><trkpt lat="43.44384061186064" lon="10.721066941100666"><ele>218.5</ele><time>2026-04-19T11:27:36Z</time></trkpt><trkpt lat="43.4437235315751" lon="10.721079443116592"><ele>219.25</ele><time>2026-04-19T11:27:37Z</time></trkpt><trkpt lat="43.443600244540924" lon="10.721108360360391"><ele>220.0</ele><time>2026-04-19T11:27:38Z</time></trkpt><trkpt lat="43.44348685393148" lon="10.72117939522302"><ele>220.0</ele><time>2026-04-19T11:27:39Z</time></trkpt><trkpt lat="43.44337974232933" lon="10.721260970147608"><ele>220.0</ele><time>2026-04-19T11:27:40Z</time></trkpt><trkpt lat="43.44328941935012" lon="10.721337971083459"><ele>220.0</ele><time>2026-04-19T11:27:41Z</time></trkpt><trkpt lat="43.44320618781715" lon="10.721406412722198"><ele>220.0</ele><time>2026-04-19T11:27:42Z</time></trkpt><trkpt lat="43.44312455300921" lon="10.721470925177174"><ele>220.0</ele><time>2026-04-19T11:27:43Z</time></trkpt><trkpt lat="43.44303231501977" lon="10.721523773009103"><ele>221.8</ele><time>2026-04-19T11:27:44Z</time></trkpt><trkpt lat="43.44293301267227" lon="10.72157732913505"><ele>223.6</ele><time>2026-04-19T11:27:45Z</time></trkpt><trkpt lat="43.44283934878708" lon="10.721622287238787"><ele>225.39999999999998</ele><time>2026-04-19T11:27:46Z</time></trkpt><trkpt lat="43.44274159168126" lon="10.721671887436122"><ele>227.2</ele><time>2026-04-19T11:27:47Z</time></trkpt><trkpt lat="43.44264171890672" lon="10.721726407980317"><ele>229.0</ele><time>2026-04-19T11:27:48Z</time></trkpt><trkpt lat="43.44245455942551" lon="10.721855121478113"><ele>229.0</ele><time>2026-04-19T11:27:50Z</time></trkpt><trkpt lat="43.44238390626129" lon="10.72193383504601"><ele>228.99999999999997</ele><time>2026-04-19T11:27:51Z</time></trkpt><trkpt lat="43.44231746092049" lon="10.722000052850973"><ele>228.99999999999997</ele><time>2026-04-19T11:27:52Z</time></trkpt><trkpt lat="43.442207254407734" lon="10.721987119303272"><ele>229.0</ele><time>2026-04-19T11:27:54Z</time></trkpt><trkpt lat="43.44223292040715" lon="10.721864784648353"><ele>229.0</ele><time>2026-04-19T11:27:57Z</time></trkpt><trkpt lat="43.442304342078444" lon="10.721713761181078"><ele>229.0</ele><time>2026-04-19T11:27:59Z</time></trkpt><trkpt lat="43.4423324144606" lon="10.72161054540283"><ele>228.99999999999997</ele><time>2026-04-19T11:28:00Z</time></trkpt><trkpt lat="43.44234851838632" lon="10.721491163641476"><ele>228.99999999999997</ele><time>2026-04-19T11:28:01Z</time></trkpt><trkpt lat="43.44234722515525" lon="10.721366183057714"><ele>229.0</ele><time>2026-04-19T11:28:02Z</time></trkpt><trkpt lat="43.44238103632775" lon="10.721239458773693"><ele>229.0</ele><time>2026-04-19T11:28:03Z</time></trkpt><trkpt lat="43.44240893045407" lon="10.721106976392251"><ele>231.5</ele><time>2026-04-19T11:28:04Z</time></trkpt><trkpt lat="43.442458858450344" lon="10.72097763155119"><ele>234.0</ele><time>2026-04-19T11:28:05Z</time></trkpt><trkpt lat="43.442526348426505" lon="10.72086189558132"><ele>236.5</ele><time>2026-04-19T11:28:06.001Z</time></trkpt><trkpt lat="43.442619276357185" lon="10.720753393946872"><ele>239.0</ele><time>2026-04-19T11:28:07.001Z</time></trkpt><trkpt lat="43.44269315088477" lon="10.720626389620895"><ele>239.0</ele><time>2026-04-19T11:28:08.001Z</time></trkpt><trkpt lat="43.44275557316909" lon="10.720498300848172"><ele>238.99999999999997</ele><time>2026-04-19T11:28:09.001Z</time></trkpt><trkpt lat="43.4428166508281" lon="10.720394093689873"><ele>238.99999999999997</ele><time>2026-04-19T11:28:10.001Z</time></trkpt><trkpt lat="43.44287624260116" lon="10.72027315842756"><ele>239.0</ele><time>2026-04-19T11:28:11.001Z</time></trkpt><trkpt lat="43.442908672432374" lon="10.720163034725909"><ele>239.0</ele><time>2026-04-19T11:28:12.001Z</time></trkpt><trkpt lat="43.44290087920946" lon="10.720065516515184"><ele>239.50000000000003</ele><time>2026-04-19T11:28:13.001Z</time></trkpt><trkpt lat="43.44283904468315" lon="10.719987232313995"><ele>240.0</ele><time>2026-04-19T11:28:14.001Z</time></trkpt><trkpt lat="43.44275957759004" lon="10.719975421623559"><ele>240.5</ele><time>2026-04-19T11:28:15.001Z</time></trkpt><trkpt lat="43.44267849907527" lon="10.719999169878434"><ele>241.0</ele><time>2026-04-19T11:28:16.001Z</time></trkpt><trkpt lat="43.44260783374343" lon="10.720006511425888"><ele>241.50000000000003</ele><time>2026-04-19T11:28:17.001Z</time></trkpt><trkpt lat="43.44252060501738" lon="10.720014293408996"><ele>242.0</ele><time>2026-04-19T11:28:18.001Z</time></trkpt><trkpt lat="43.44243158712496" lon="10.720042479255838"><ele>242.0</ele><time>2026-04-19T11:28:19.001Z</time></trkpt><trkpt lat="43.44233953619729" lon="10.7200764312166"><ele>242.0</ele><time>2026-04-19T11:28:20.001Z</time></trkpt><trkpt lat="43.44224474478932" lon="10.72011488486299"><ele>242.0</ele><time>2026-04-19T11:28:21.001Z</time></trkpt><trkpt lat="43.44214569197566" lon="10.720156747649146"><ele>242.0</ele><time>2026-04-19T11:28:22.001Z</time></trkpt><trkpt lat="43.44204120029836" lon="10.720197281164642"><ele>242.0</ele><time>2026-04-19T11:28:23.001Z</time></trkpt><trkpt lat="43.441934932332025" lon="10.72023471065031"><ele>243.0</ele><time>2026-04-19T11:28:24.001Z</time></trkpt><trkpt lat="43.44182817800112" lon="10.720256856462983"><ele>244.0</ele><time>2026-04-19T11:28:25.001Z</time></trkpt><trkpt lat="43.441722807041224" lon="10.720248386027752"><ele>245.0</ele><time>2026-04-19T11:28:26.001Z</time></trkpt><trkpt lat="43.44161774133778" lon="10.720209606101085"><ele>246.0</ele><time>2026-04-19T11:28:27.001Z</time></trkpt><trkpt lat="43.441529210621674" lon="10.720126140071626"><ele>247.0</ele><time>2026-04-19T11:28:28.001Z</time></trkpt><trkpt lat="43.441438718578404" lon="10.720055826581332"><ele>247.5</ele><time>2026-04-19T11:28:29.001Z</time></trkpt><trkpt lat="43.44136889501126" lon="10.719927107387795"><ele>248.0</ele><time>2026-04-19T11:28:29.999Z</time></trkpt><trkpt lat="43.4412759214302" lon="10.719806452922281"><ele>248.5</ele><time>2026-04-19T11:28:30.999Z</time></trkpt><trkpt lat="43.4411578494999" lon="10.719726621827798"><ele>249.0</ele><time>2026-04-19T11:28:31.999Z</time></trkpt><trkpt lat="43.44103536278694" lon="10.719636397570078"><ele>250.5</ele><time>2026-04-19T11:28:32.999Z</time></trkpt><trkpt lat="43.440914322864124" lon="10.71955765088306"><ele>252.0</ele><time>2026-04-19T11:28:33.999Z</time></trkpt><trkpt lat="43.44079401576347" lon="10.719478695431507"><ele>253.5</ele><time>2026-04-19T11:28:34.999Z</time></trkpt><trkpt lat="43.440676813247435" lon="10.719418020906835"><ele>255.0</ele><time>2026-04-19T11:28:35.999Z</time></trkpt><trkpt lat="43.440567105300396" lon="10.719400541659256"><ele>257.25</ele><time>2026-04-19T11:28:36.999Z</time></trkpt><trkpt lat="43.440458265276" lon="10.719429543494433"><ele>259.5</ele><time>2026-04-19T11:28:37.999Z</time></trkpt><trkpt lat="43.440362221374265" lon="10.719514375694285"><ele>261.75</ele><time>2026-04-19T11:28:38.999Z</time></trkpt><trkpt lat="43.44026881679204" lon="10.71960191006742"><ele>264.0</ele><time>2026-04-19T11:28:39.999Z</time></trkpt><trkpt lat="43.4401666668548" lon="10.719682159103392"><ele>264.0</ele><time>2026-04-19T11:28:40.999Z</time></trkpt><trkpt lat="43.44005581723644" lon="10.71971729712677"><ele>264.0</ele><time>2026-04-19T11:28:42Z</time></trkpt><trkpt lat="43.439947578607295" lon="10.719697201667955"><ele>264.0</ele><time>2026-04-19T11:28:43Z</time></trkpt><trkpt lat="43.43984363073697" lon="10.719630502210824"><ele>264.0</ele><time>2026-04-19T11:28:44Z</time></trkpt><trkpt lat="43.43975908966813" lon="10.719516944319146"><ele>267.0</ele><time>2026-04-19T11:28:45Z</time></trkpt><trkpt lat="43.43968661697024" lon="10.71938634503188"><ele>270.0</ele><time>2026-04-19T11:28:46Z</time></trkpt><trkpt lat="43.439602421572395" lon="10.719278100334131"><ele>273.0</ele><time>2026-04-19T11:28:47Z</time></trkpt><trkpt lat="43.4394912691185" lon="10.719205911508384"><ele>276.0</ele><time>2026-04-19T11:28:48Z</time></trkpt><trkpt lat="43.43937466161715" lon="10.719148807806157"><ele>277.75</ele><time>2026-04-19T11:28:49Z</time></trkpt><trkpt lat="43.43925636523981" lon="10.719121117962834"><ele>279.5</ele><time>2026-04-19T11:28:50Z</time></trkpt><trkpt lat="43.43913924450225" lon="10.719113765249949"><ele>281.25</ele><time>2026-04-19T11:28:51Z</time></trkpt><trkpt lat="43.43902161160523" lon="10.719132769251123"><ele>283.0</ele><time>2026-04-19T11:28:52Z</time></trkpt><trkpt lat="43.4389051649685" lon="10.719176632156064"><ele>284.75</ele><time>2026-04-19T11:28:53Z</time></trkpt><trkpt lat="43.43878461814243" lon="10.719214334287654"><ele>286.5</ele><time>2026-04-19T11:28:54Z</time></trkpt><trkpt lat="43.4386593445608" lon="10.719229638322403"><ele>288.25</ele><time>2026-04-19T11:28:55Z</time></trkpt><trkpt lat="43.43853319677789" lon="10.719204948237715"><ele>290.0</ele><time>2026-04-19T11:28:56Z</time></trkpt><trkpt lat="43.438394175121054" lon="10.719170112503699"><ele>290.0</ele><time>2026-04-19T11:28:57Z</time></trkpt><trkpt lat="43.43827009812958" lon="10.719158304251534"><ele>290.0</ele><time>2026-04-19T11:28:58Z</time></trkpt><trkpt lat="43.43816966314182" lon="10.71916055634941"><ele>290.0</ele><time>2026-04-19T11:28:59Z</time></trkpt><trkpt lat="43.4380692900443" lon="10.719202069353077"><ele>290.0</ele><time>2026-04-19T11:29:00Z</time></trkpt><trkpt lat="43.43800113709329" lon="10.719283226413644"><ele>290.0</ele><time>2026-04-19T11:29:01Z</time></trkpt><trkpt lat="43.437961910145056" lon="10.71941223883717"><ele>288.5</ele><time>2026-04-19T11:29:02Z</time></trkpt><trkpt lat="43.4379468817652" lon="10.719556192520642"><ele>287.0</ele><time>2026-04-19T11:29:03Z</time></trkpt><trkpt lat="43.43795997379735" lon="10.71971682345648"><ele>285.5</ele><time>2026-04-19T11:29:04Z</time></trkpt><trkpt lat="43.43798469540521" lon="10.719882732556952"><ele>284.0</ele><time>2026-04-19T11:29:05Z</time></trkpt><trkpt lat="43.4380042526433" lon="10.72005038193564"><ele>284.0</ele><time>2026-04-19T11:29:06Z</time></trkpt><trkpt lat="43.438006511662564" lon="10.7202165576957"><ele>284.0</ele><time>2026-04-19T11:29:07Z</time></trkpt><trkpt lat="43.43799145274986" lon="10.72037674767895"><ele>284.0</ele><time>2026-04-19T11:29:08Z</time></trkpt><trkpt lat="43.43795725289941" lon="10.720544092025857"><ele>284.0</ele><time>2026-04-19T11:29:09Z</time></trkpt><trkpt lat="43.43792567328373" lon="10.720703647184287"><ele>285.2</ele><time>2026-04-19T11:29:10Z</time></trkpt><trkpt lat="43.43788797681103" lon="10.720843729378277"><ele>286.4</ele><time>2026-04-19T11:29:11Z</time></trkpt><trkpt lat="43.43783819555039" lon="10.720956994509944"><ele>287.6</ele><time>2026-04-19T11:29:12Z</time></trkpt><trkpt lat="43.43775593543122" lon="10.721042814782129"><ele>288.8</ele><time>2026-04-19T11:29:13Z</time></trkpt><trkpt lat="43.43765295885686" lon="10.7210695708078"><ele>290.0</ele><time>2026-04-19T11:29:14Z</time></trkpt><trkpt lat="43.43754980819705" lon="10.721128122477245"><ele>290.0</ele><time>2026-04-19T11:29:15Z</time></trkpt><trkpt lat="43.43744312988243" lon="10.721160222192047"><ele>290.0</ele><time>2026-04-19T11:29:16Z</time></trkpt><trkpt lat="43.437330812845424" lon="10.721193292839903"><ele>290.0</ele><time>2026-04-19T11:29:17Z</time></trkpt><trkpt lat="43.43722839697589" lon="10.721218405110541"><ele>290.0</ele><time>2026-04-19T11:29:18Z</time></trkpt><trkpt lat="43.43712899515878" lon="10.721277682451191"><ele>290.0</ele><time>2026-04-19T11:29:19Z</time></trkpt><trkpt lat="43.43703817641728" lon="10.721378666266927"><ele>293.25</ele><time>2026-04-19T11:29:20Z</time></trkpt><trkpt lat="43.43695448489179" lon="10.72149352590958"><ele>296.5</ele><time>2026-04-19T11:29:21.001Z</time></trkpt><trkpt lat="43.43689183009662" lon="10.721623250024024"><ele>299.75</ele><time>2026-04-19T11:29:22.001Z</time></trkpt><trkpt lat="43.43684355506116" lon="10.721768675269884"><ele>303.0</ele><time>2026-04-19T11:29:23.001Z</time></trkpt><trkpt lat="43.436798718312005" lon="10.72190599110701"><ele>303.0</ele><time>2026-04-19T11:29:24.001Z</time></trkpt><trkpt lat="43.43675373828205" lon="10.722031297667392"><ele>303.0</ele><time>2026-04-19T11:29:25.001Z</time></trkpt><trkpt lat="43.43671205153919" lon="10.722147851546737"><ele>303.0</ele><time>2026-04-19T11:29:26.001Z</time></trkpt><trkpt lat="43.436660985142424" lon="10.722252457299954"><ele>303.0</ele><time>2026-04-19T11:29:27.001Z</time></trkpt><trkpt lat="43.436595411136324" lon="10.722331145378586"><ele>303.0</ele><time>2026-04-19T11:29:28.001Z</time></trkpt><trkpt lat="43.4365052934159" lon="10.722378869923118"><ele>303.0</ele><time>2026-04-19T11:29:29.001Z</time></trkpt><trkpt lat="43.43640307054901" lon="10.722412065179675"><ele>303.0</ele><time>2026-04-19T11:29:30.001Z</time></trkpt><trkpt lat="43.436294155511476" lon="10.72242401593916"><ele>303.0</ele><time>2026-04-19T11:29:31.001Z</time></trkpt><trkpt lat="43.43618532343061" lon="10.722442646698255"><ele>303.0</ele><time>2026-04-19T11:29:32.001Z</time></trkpt><trkpt lat="43.436081182793814" lon="10.722479286867397"><ele>303.0</ele><time>2026-04-19T11:29:33.001Z</time></trkpt><trkpt lat="43.4359925965858" lon="10.72250841365655"><ele>305.1666666666667</ele><time>2026-04-19T11:29:34.001Z</time></trkpt><trkpt lat="43.43591921931213" lon="10.722552791526926"><ele>307.3333333333333</ele><time>2026-04-19T11:29:35.001Z</time></trkpt><trkpt lat="43.435882245720094" lon="10.722644633499584"><ele>309.5</ele><time>2026-04-19T11:29:36.001Z</time></trkpt><trkpt lat="43.435870652375435" lon="10.72273715831123"><ele>311.66666666666663</ele><time>2026-04-19T11:29:37.001Z</time></trkpt><trkpt lat="43.43588191568253" lon="10.7228529332832"><ele>313.8333333333333</ele><time>2026-04-19T11:29:38.001Z</time></trkpt><trkpt lat="43.435894823235884" lon="10.722969644588854"><ele>316.0</ele><time>2026-04-19T11:29:39.001Z</time></trkpt><trkpt lat="43.43590113285813" lon="10.723081865813349"><ele>316.0</ele><time>2026-04-19T11:29:40.001Z</time></trkpt><trkpt lat="43.43589384140624" lon="10.723190831655229"><ele>316.0</ele><time>2026-04-19T11:29:41.001Z</time></trkpt><trkpt lat="43.43586299696118" lon="10.723283278082056"><ele>316.0</ele><time>2026-04-19T11:29:42.001Z</time></trkpt><trkpt lat="43.43576364664609" lon="10.723352500086056"><ele>316.0</ele><time>2026-04-19T11:29:44.001Z</time></trkpt><trkpt lat="43.435670478023134" lon="10.723352414052682"><ele>316.0</ele><time>2026-04-19T11:29:46.001Z</time></trkpt><trkpt lat="43.43560615695796" lon="10.723336579635024"><ele>316.0</ele><time>2026-04-19T11:29:48.001Z</time></trkpt><trkpt lat="43.43553074656165" lon="10.723314641668306"><ele>318.14285714285717</ele><time>2026-04-19T11:29:52.001Z</time></trkpt><trkpt lat="43.43545566955751" lon="10.723338752198233"><ele>320.2857142857143</ele><time>2026-04-19T11:29:55.001Z</time></trkpt><trkpt lat="43.43539285782344" lon="10.723391964874583"><ele>322.42857142857144</ele><time>2026-04-19T11:29:58.001Z</time></trkpt><trkpt lat="43.435312296141426" lon="10.723396886535404"><ele>324.57142857142856</ele><time>2026-04-19T11:30:02.001Z</time></trkpt><trkpt lat="43.435254005431865" lon="10.723353301666863"><ele>326.7142857142857</ele><time>2026-04-19T11:30:04.001Z</time></trkpt><trkpt lat="43.43521491253923" lon="10.723251053829873"><ele>328.8571428571429</ele><time>2026-04-19T11:30:07.001Z</time></trkpt><trkpt lat="43.43519838005695" lon="10.723166013600054"><ele>331.0</ele><time>2026-04-19T11:30:10.001Z</time></trkpt><trkpt lat="43.43518782214176" lon="10.723060693605"><ele>331.0</ele><time>2026-04-19T11:30:12.001Z</time></trkpt><trkpt lat="43.43517120969387" lon="10.722887461832025"><ele>331.0</ele><time>2026-04-19T11:30:14.001Z</time></trkpt><trkpt lat="43.43515751428936" lon="10.722792247957434"><ele>331.0</ele><time>2026-04-19T11:30:15.001Z</time></trkpt><trkpt lat="43.4351418594962" lon="10.722686921054324"><ele>331.0</ele><time>2026-04-19T11:30:16.001Z</time></trkpt><trkpt lat="43.43512918801561" lon="10.722586706507485"><ele>331.0</ele><time>2026-04-19T11:30:17.001Z</time></trkpt><trkpt lat="43.43512029864285" lon="10.722488047852272"><ele>331.0</ele><time>2026-04-19T11:30:18.001Z</time></trkpt><trkpt lat="43.43511981907848" lon="10.72239534255502"><ele>332.6</ele><time>2026-04-19T11:30:19.001Z</time></trkpt><trkpt lat="43.43512059835415" lon="10.722305684863187"><ele>334.20000000000005</ele><time>2026-04-19T11:30:20.001Z</time></trkpt><trkpt lat="43.4351150983638" lon="10.72214061525003"><ele>335.79999999999995</ele><time>2026-04-19T11:30:22.002Z</time></trkpt><trkpt lat="43.435099532020246" lon="10.72201071822196"><ele>337.4</ele><time>2026-04-19T11:30:24.002Z</time></trkpt><trkpt lat="43.435090124765914" lon="10.721912555234768"><ele>339.0</ele><time>2026-04-19T11:30:39Z</time></trkpt><trkpt lat="43.43519218895629" lon="10.721890185465384"><ele>340.3333333333333</ele><time>2026-04-19T11:30:40Z</time></trkpt><trkpt lat="43.43525810396516" lon="10.72180494480462"><ele>341.6666666666667</ele><time>2026-04-19T11:30:42Z</time></trkpt><trkpt lat="43.43528867217498" lon="10.721687266517591"><ele>343.0</ele><time>2026-04-19T11:30:44Z</time></trkpt><trkpt lat="43.43529765059851" lon="10.721574187193838"><ele>344.33333333333337</ele><time>2026-04-19T11:30:46Z</time></trkpt><trkpt lat="43.43529558320774" lon="10.721467137716209"><ele>345.6666666666667</ele><time>2026-04-19T11:30:48Z</time></trkpt><trkpt lat="43.43530038696645" lon="10.721365949936052"><ele>347.0</ele><time>2026-04-19T11:30:50Z</time></trkpt><trkpt lat="43.4353200922253" lon="10.721269958069541"><ele>347.0</ele><time>2026-04-19T11:30:52Z</time></trkpt><trkpt lat="43.43530392685083" lon="10.72117164705936"><ele>347.0</ele><time>2026-04-19T11:30:54Z</time></trkpt><trkpt lat="43.43532710474557" lon="10.721264633366815"><ele>347.0</ele><time>2026-04-19T11:31:09Z</time></trkpt><trkpt lat="43.43530525059428" lon="10.72136748825776"><ele>347.0</ele><time>2026-04-19T11:31:13Z</time></trkpt><trkpt lat="43.43532014793446" lon="10.721269592011934"><ele>347.0</ele><time>2026-04-19T11:32:12.001Z</time></trkpt><trkpt lat="43.43530539145004" lon="10.721180938902984"><ele>347.0</ele><time>2026-04-19T11:32:14.002Z</time></trkpt><trkpt lat="43.43529033235674" lon="10.721090616307968"><ele>347.0</ele><time>2026-04-19T11:32:16.002Z</time></trkpt><trkpt lat="43.4352651622424" lon="10.720971230140307"><ele>348.1666666666667</ele><time>2026-04-19T11:32:19.002Z</time></trkpt><trkpt lat="43.4352521230178" lon="10.720868800099334"><ele>349.33333333333337</ele><time>2026-04-19T11:32:21.002Z</time></trkpt><trkpt lat="43.435234100398844" lon="10.720721344591697"><ele>350.5</ele><time>2026-04-19T11:32:23.002Z</time></trkpt><trkpt lat="43.43522450723896" lon="10.720634449274522"><ele>351.6666666666667</ele><time>2026-04-19T11:32:24.002Z</time></trkpt><trkpt lat="43.43521441480302" lon="10.720543031518183"><ele>352.8333333333333</ele><time>2026-04-19T11:32:25.002Z</time></trkpt><trkpt lat="43.43520381327105" lon="10.72044700240441"><ele>354.0</ele><time>2026-04-19T11:32:26.002Z</time></trkpt><trkpt lat="43.4351903300886" lon="10.720348449868295"><ele>354.0</ele><time>2026-04-19T11:32:27.002Z</time></trkpt><trkpt lat="43.43517388045925" lon="10.72025082434672"><ele>354.0</ele><time>2026-04-19T11:32:28.002Z</time></trkpt><trkpt lat="43.43515656160399" lon="10.720151380617752"><ele>354.0</ele><time>2026-04-19T11:32:29.002Z</time></trkpt><trkpt lat="43.43514177528433" lon="10.720050364722624"><ele>354.0</ele><time>2026-04-19T11:32:30.002Z</time></trkpt><trkpt lat="43.435136050570144" lon="10.719945858445406"><ele>354.0</ele><time>2026-04-19T11:32:31.002Z</time></trkpt><trkpt lat="43.435160541697854" lon="10.719842021064222"><ele>354.0</ele><time>2026-04-19T11:32:32.002Z</time></trkpt><trkpt lat="43.4351967164666" lon="10.719746095676125"><ele>354.5</ele><time>2026-04-19T11:32:33.002Z</time></trkpt><trkpt lat="43.435232078414934" lon="10.719653689544971"><ele>355.0</ele><time>2026-04-19T11:32:34.002Z</time></trkpt><trkpt lat="43.43524726597237" lon="10.71954515715488"><ele>355.5</ele><time>2026-04-19T11:32:35.002Z</time></trkpt><trkpt lat="43.43525095055619" lon="10.719437736811022"><ele>356.0</ele><time>2026-04-19T11:32:36.002Z</time></trkpt><trkpt lat="43.43524277470213" lon="10.719321892492744"><ele>356.5</ele><time>2026-04-19T11:32:37.002Z</time></trkpt><trkpt lat="43.435217313456306" lon="10.719208087343825"><ele>357.0</ele><time>2026-04-19T11:32:38.002Z</time></trkpt><trkpt lat="43.435192129296766" lon="10.719111249494139"><ele>358.0</ele><time>2026-04-19T11:32:39.002Z</time></trkpt><trkpt lat="43.43516933430362" lon="10.719017785265134"><ele>359.0</ele><time>2026-04-19T11:32:40.002Z</time></trkpt><trkpt lat="43.43514915133239" lon="10.718924931948047"><ele>360.0</ele><time>2026-04-19T11:32:41.002Z</time></trkpt><trkpt lat="43.43512954855183" lon="10.718834747828364"><ele>361.0</ele><time>2026-04-19T11:32:41.999Z</time></trkpt><trkpt lat="43.43511009312971" lon="10.718745241640239"><ele>362.0</ele><time>2026-04-19T11:32:42.999Z</time></trkpt><trkpt lat="43.43508613354067" lon="10.718652250916655"><ele>363.0</ele><time>2026-04-19T11:32:43.999Z</time></trkpt><trkpt lat="43.43505838843081" lon="10.718560509534747"><ele>364.0</ele><time>2026-04-19T11:32:44.999Z</time></trkpt><trkpt lat="43.435023543602334" lon="10.718459912101117"><ele>365.0</ele><time>2026-04-19T11:32:45.999Z</time></trkpt><trkpt lat="43.43497910753812" lon="10.718337326275277"><ele>366.0</ele><time>2026-04-19T11:32:46.999Z</time></trkpt><trkpt lat="43.43493953652925" lon="10.718210131641722"><ele>367.0</ele><time>2026-04-19T11:32:47.999Z</time></trkpt><trkpt lat="43.434911623356314" lon="10.718094597821588"><ele>368.0</ele><time>2026-04-19T11:32:48.999Z</time></trkpt><trkpt lat="43.43488453654055" lon="10.717981684478586"><ele>369.0</ele><time>2026-04-19T11:32:49.999Z</time></trkpt><trkpt lat="43.43485133837658" lon="10.717865852292222"><ele>369.0</ele><time>2026-04-19T11:32:50.999Z</time></trkpt><trkpt lat="43.434816420693565" lon="10.717758311951172"><ele>369.0</ele><time>2026-04-19T11:32:51.999Z</time></trkpt><trkpt lat="43.43478122340826" lon="10.71765553877216"><ele>369.0</ele><time>2026-04-19T11:32:52.999Z</time></trkpt><trkpt lat="43.43474652344077" lon="10.717559533202495"><ele>369.0</ele><time>2026-04-19T11:32:53.999Z</time></trkpt><trkpt lat="43.43471427411913" lon="10.717472377162371"><ele>369.0</ele><time>2026-04-19T11:32:54.999Z</time></trkpt><trkpt lat="43.434683768385526" lon="10.717386087513793"><ele>369.0</ele><time>2026-04-19T11:32:55.999Z</time></trkpt><trkpt lat="43.434654947383244" lon="10.717290608927728"><ele>371.8333333333333</ele><time>2026-04-19T11:32:56.999Z</time></trkpt><trkpt lat="43.434635356818546" lon="10.717190490994138"><ele>374.66666666666663</ele><time>2026-04-19T11:32:57.999Z</time></trkpt><trkpt lat="43.4346278199545" lon="10.717095203942366"><ele>377.5</ele><time>2026-04-19T11:32:58.999Z</time></trkpt><trkpt lat="43.43462214773956" lon="10.716994556538033"><ele>380.3333333333333</ele><time>2026-04-19T11:32:59.999Z</time></trkpt><trkpt lat="43.43461516776565" lon="10.716906217810502"><ele>383.16666666666663</ele><time>2026-04-19T11:33:00.999Z</time></trkpt><trkpt lat="43.43461072471175" lon="10.716743351460183"><ele>386.0</ele><time>2026-04-19T11:33:02.999Z</time></trkpt><trkpt lat="43.434585369536926" lon="10.716649951662541"><ele>386.8333333333333</ele><time>2026-04-19T11:33:04Z</time></trkpt><trkpt lat="43.43454940664652" lon="10.716558038622344"><ele>387.66666666666663</ele><time>2026-04-19T11:33:05Z</time></trkpt><trkpt lat="43.43451171929521" lon="10.716474322490976"><ele>388.5</ele><time>2026-04-19T11:33:06Z</time></trkpt><trkpt lat="43.43447453045182" lon="10.716397052960584"><ele>389.33333333333337</ele><time>2026-04-19T11:33:07Z</time></trkpt><trkpt lat="43.434437533447245" lon="10.7163243463987"><ele>390.1666666666667</ele><time>2026-04-19T11:33:08Z</time></trkpt><trkpt lat="43.434358423050796" lon="10.716189117207525"><ele>391.0</ele><time>2026-04-19T11:33:10Z</time></trkpt><trkpt lat="43.43431419628067" lon="10.716124020074838"><ele>391.4285714285714</ele><time>2026-04-19T11:33:11Z</time></trkpt><trkpt lat="43.43426701533003" lon="10.716060319819421"><ele>391.85714285714283</ele><time>2026-04-19T11:33:12Z</time></trkpt><trkpt lat="43.43421607803049" lon="10.715998135805256"><ele>392.2857142857143</ele><time>2026-04-19T11:33:13Z</time></trkpt><trkpt lat="43.43415848732184" lon="10.715942161208256"><ele>392.71428571428567</ele><time>2026-04-19T11:33:14Z</time></trkpt><trkpt lat="43.434096710740015" lon="10.715906015652527"><ele>393.14285714285717</ele><time>2026-04-19T11:33:15Z</time></trkpt><trkpt lat="43.43399998540742" lon="10.715864839403395"><ele>393.57142857142856</ele><time>2026-04-19T11:33:17Z</time></trkpt><trkpt lat="43.43393525635965" lon="10.715837682352351"><ele>394.0</ele><time>2026-04-19T11:33:19Z</time></trkpt><trkpt lat="43.433861775926545" lon="10.715809690663002"><ele>395.6666666666667</ele><time>2026-04-19T11:33:22Z</time></trkpt><trkpt lat="43.43379171461806" lon="10.715784649739229"><ele>397.33333333333337</ele><time>2026-04-19T11:33:24Z</time></trkpt><trkpt lat="43.4337093984441" lon="10.71575931141546"><ele>399.0</ele><time>2026-04-19T11:33:26Z</time></trkpt><trkpt lat="43.433603890687976" lon="10.71575225803841"><ele>400.66666666666663</ele><time>2026-04-19T11:33:28Z</time></trkpt><trkpt lat="43.43351796902093" lon="10.715730048849945"><ele>402.3333333333333</ele><time>2026-04-19T11:33:30Z</time></trkpt><trkpt lat="43.43343448940181" lon="10.715709350742081"><ele>404.0</ele><time>2026-04-19T11:33:34Z</time></trkpt><trkpt lat="43.433364126912856" lon="10.715682921922143"><ele>404.0</ele><time>2026-04-19T11:33:37Z</time></trkpt><trkpt lat="43.43330130124194" lon="10.715633381770628"><ele>404.0</ele><time>2026-04-19T11:33:40.001Z</time></trkpt><trkpt lat="43.433227962352596" lon="10.715598543797295"><ele>404.0</ele><time>2026-04-19T11:33:42.001Z</time></trkpt><trkpt lat="43.43312905556965" lon="10.71554520552374"><ele>404.0</ele><time>2026-04-19T11:33:44.001Z</time></trkpt><trkpt lat="43.43303256337225" lon="10.7154781593382"><ele>404.0</ele><time>2026-04-19T11:33:46.001Z</time></trkpt><trkpt lat="43.4329511157445" lon="10.715412094893901"><ele>404.66666666666663</ele><time>2026-04-19T11:33:48.001Z</time></trkpt><trkpt lat="43.43288609161685" lon="10.715352087511857"><ele>405.3333333333333</ele><time>2026-04-19T11:33:51.001Z</time></trkpt><trkpt lat="43.4328214960655" lon="10.715286579437175"><ele>406.0</ele><time>2026-04-19T11:33:53.001Z</time></trkpt><trkpt lat="43.43274717437232" lon="10.715206177461624"><ele>406.66666666666663</ele><time>2026-04-19T11:33:55.001Z</time></trkpt><trkpt lat="43.432674796305534" lon="10.715118660356866"><ele>407.3333333333333</ele><time>2026-04-19T11:33:57.001Z</time></trkpt><trkpt lat="43.4326076349116" lon="10.715025102241496"><ele>408.0</ele><time>2026-04-19T11:33:59.001Z</time></trkpt><trkpt lat="43.432537762470574" lon="10.7149231602914"><ele>408.0</ele><time>2026-04-19T11:34:01.001Z</time></trkpt><trkpt lat="43.43245445586679" lon="10.714800409437007"><ele>408.0</ele><time>2026-04-19T11:34:03.001Z</time></trkpt><trkpt lat="43.43240568380607" lon="10.714732831690947"><ele>408.0</ele><time>2026-04-19T11:34:04.001Z</time></trkpt><trkpt lat="43.43235214339276" lon="10.71466779382601"><ele>408.0</ele><time>2026-04-19T11:34:05.001Z</time></trkpt><trkpt lat="43.432295065143556" lon="10.714607116161297"><ele>408.0</ele><time>2026-04-19T11:34:06.001Z</time></trkpt><trkpt lat="43.43224136172135" lon="10.714555429261162"><ele>408.0</ele><time>2026-04-19T11:34:07.001Z</time></trkpt><trkpt lat="43.43214412512995" lon="10.714476975304903"><ele>409.0</ele><time>2026-04-19T11:34:09.001Z</time></trkpt><trkpt lat="43.432046018440225" lon="10.714384210058206"><ele>410.0</ele><time>2026-04-19T11:34:11.001Z</time></trkpt><trkpt lat="43.43196124163225" lon="10.714303646027215"><ele>411.0</ele><time>2026-04-19T11:34:13.001Z</time></trkpt><trkpt lat="43.4319075676432" lon="10.714248336900864"><ele>412.0</ele><time>2026-04-19T11:34:15.001Z</time></trkpt><trkpt lat="43.431852880656905" lon="10.714180854941883"><ele>413.0</ele><time>2026-04-19T11:34:19.001Z</time></trkpt><trkpt lat="43.43180895191499" lon="10.714116147179732"><ele>414.0</ele><time>2026-04-19T11:34:22.001Z</time></trkpt><trkpt lat="43.43175940319339" lon="10.714034734697137"><ele>414.0</ele><time>2026-04-19T11:34:24.001Z</time></trkpt><trkpt lat="43.43170934578083" lon="10.713953033539909"><ele>414.0</ele><time>2026-04-19T11:34:26.002Z</time></trkpt><trkpt lat="43.43165185093223" lon="10.71387324712045"><ele>414.0</ele><time>2026-04-19T11:34:28.002Z</time></trkpt><trkpt lat="43.43157248153071" lon="10.713810897711392"><ele>414.0</ele><time>2026-04-19T11:34:31.002Z</time></trkpt><trkpt lat="43.43149735487228" lon="10.713840661839368"><ele>414.0</ele><time>2026-04-19T11:34:33.002Z</time></trkpt><trkpt lat="43.43144320618302" lon="10.713926713416285"><ele>414.0</ele><time>2026-04-19T11:34:35.002Z</time></trkpt><trkpt lat="43.43138612498534" lon="10.714000115857798"><ele>414.0</ele><time>2026-04-19T11:34:37.002Z</time></trkpt><trkpt lat="43.43134221594718" lon="10.714106300236606"><ele>414.0</ele><time>2026-04-19T11:34:39.002Z</time></trkpt><trkpt lat="43.43127785058229" lon="10.714202935396234"><ele>414.0</ele><time>2026-04-19T11:34:41.002Z</time></trkpt><trkpt lat="43.431201720270366" lon="10.714300749850858"><ele>414.0</ele><time>2026-04-19T11:34:43.002Z</time></trkpt><trkpt lat="43.43113972035709" lon="10.714379549564725"><ele>414.0</ele><time>2026-04-19T11:34:45.002Z</time></trkpt><trkpt lat="43.43108060576729" lon="10.714474295939414"><ele>417.79999999999995</ele><time>2026-04-19T11:34:47.999Z</time></trkpt><trkpt lat="43.431025551121344" lon="10.714579893063508"><ele>421.59999999999997</ele><time>2026-04-19T11:34:50.999Z</time></trkpt><trkpt lat="43.430974394848604" lon="10.714679744918431"><ele>425.4</ele><time>2026-04-19T11:34:52.999Z</time></trkpt><trkpt lat="43.43091430305927" lon="10.714746908240413"><ele>429.2</ele><time>2026-04-19T11:34:54.999Z</time></trkpt><trkpt lat="43.430820056083036" lon="10.714831209370628"><ele>433.0</ele><time>2026-04-19T11:34:57.999Z</time></trkpt><trkpt lat="43.430726195648354" lon="10.71484060849186"><ele>433.0</ele><time>2026-04-19T11:35:00Z</time></trkpt><trkpt lat="43.43061995955371" lon="10.71485320631559"><ele>432.99999999999994</ele><time>2026-04-19T11:35:02Z</time></trkpt><trkpt lat="43.430553296980015" lon="10.714867355015366"><ele>432.99999999999994</ele><time>2026-04-19T11:35:03Z</time></trkpt><trkpt lat="43.43043582082093" lon="10.714874792141947"><ele>433.0</ele><time>2026-04-19T11:35:05Z</time></trkpt><trkpt lat="43.430323026694495" lon="10.714854538394743"><ele>433.0</ele><time>2026-04-19T11:35:07Z</time></trkpt><trkpt lat="43.430251471983645" lon="10.714860134395154"><ele>434.1666666666667</ele><time>2026-04-19T11:35:08Z</time></trkpt><trkpt lat="43.43018188825049" lon="10.714875273446518"><ele>435.33333333333337</ele><time>2026-04-19T11:35:09Z</time></trkpt><trkpt lat="43.43006904763906" lon="10.714921048239766"><ele>436.5</ele><time>2026-04-19T11:35:11Z</time></trkpt><trkpt lat="43.429998814124836" lon="10.71495868960128"><ele>437.66666666666663</ele><time>2026-04-19T11:35:13Z</time></trkpt><trkpt lat="43.42991856793307" lon="10.715010183315096"><ele>438.8333333333333</ele><time>2026-04-19T11:35:15Z</time></trkpt><trkpt lat="43.42985128060441" lon="10.715066013518966"><ele>440.0</ele><time>2026-04-19T11:35:17Z</time></trkpt><trkpt lat="43.42979111711396" lon="10.715123494284986"><ele>440.0</ele><time>2026-04-19T11:35:19Z</time></trkpt><trkpt lat="43.429709963860304" lon="10.715191700983747"><ele>440.0</ele><time>2026-04-19T11:35:21Z</time></trkpt><trkpt lat="43.42959992911101" lon="10.715265508438568"><ele>440.0</ele><time>2026-04-19T11:35:23Z</time></trkpt><trkpt lat="43.42954007971933" lon="10.715304864067862"><ele>440.0</ele><time>2026-04-19T11:35:24Z</time></trkpt><trkpt lat="43.42943208821401" lon="10.715380345338374"><ele>440.0</ele><time>2026-04-19T11:35:26Z</time></trkpt><trkpt lat="43.42937531810067" lon="10.715418388098039"><ele>442.0</ele><time>2026-04-19T11:35:27Z</time></trkpt><trkpt lat="43.429272478741694" lon="10.715503437818953"><ele>444.0</ele><time>2026-04-19T11:35:29.001Z</time></trkpt><trkpt lat="43.42917239595349" lon="10.715580279258626"><ele>446.0</ele><time>2026-04-19T11:35:31Z</time></trkpt><trkpt lat="43.429111583756935" lon="10.715663579475324"><ele>448.0</ele><time>2026-04-19T11:35:33Z</time></trkpt><trkpt lat="43.42902967759054" lon="10.715694069018847"><ele>450.0</ele><time>2026-04-19T11:35:35Z</time></trkpt><trkpt lat="43.42894249331546" lon="10.71569025267739"><ele>450.0</ele><time>2026-04-19T11:35:37Z</time></trkpt><trkpt lat="43.42884273152937" lon="10.715642455900996"><ele>450.0</ele><time>2026-04-19T11:35:39Z</time></trkpt><trkpt lat="43.428782916314105" lon="10.7156022862003"><ele>450.0</ele><time>2026-04-19T11:35:40Z</time></trkpt><trkpt lat="43.428717692622236" lon="10.715557233086288"><ele>450.0</ele><time>2026-04-19T11:35:41Z</time></trkpt><trkpt lat="43.42865454423099" lon="10.71550412167841"><ele>450.0</ele><time>2026-04-19T11:35:42Z</time></trkpt><trkpt lat="43.42858848311887" lon="10.715441445938312"><ele>450.0</ele><time>2026-04-19T11:35:43Z</time></trkpt><trkpt lat="43.42852453603558" lon="10.715378828719393"><ele>450.3333333333333</ele><time>2026-04-19T11:35:44Z</time></trkpt><trkpt lat="43.428468024129074" lon="10.715323492052384"><ele>450.66666666666663</ele><time>2026-04-19T11:35:45Z</time></trkpt><trkpt lat="43.428376075934054" lon="10.715233456178016"><ele>451.0</ele><time>2026-04-19T11:35:47Z</time></trkpt><trkpt lat="43.428300827591215" lon="10.715177671670828"><ele>451.3333333333333</ele><time>2026-04-19T11:35:49Z</time></trkpt><trkpt lat="43.428247211765964" lon="10.715124541235653"><ele>451.66666666666663</ele><time>2026-04-19T11:35:50Z</time></trkpt><trkpt lat="43.42818455485683" lon="10.715069914587527"><ele>452.0</ele><time>2026-04-19T11:35:51Z</time></trkpt><trkpt lat="43.42812024056049" lon="10.71500197931957"><ele>452.0</ele><time>2026-04-19T11:35:52Z</time></trkpt><trkpt lat="43.428056563500235" lon="10.714953949897435"><ele>452.0</ele><time>2026-04-19T11:35:53Z</time></trkpt><trkpt lat="43.427987576417635" lon="10.714913038677834"><ele>452.0</ele><time>2026-04-19T11:35:54Z</time></trkpt><trkpt lat="43.427911395453435" lon="10.714872317798186"><ele>452.0</ele><time>2026-04-19T11:35:55Z</time></trkpt><trkpt lat="43.427837440453594" lon="10.714824985151786"><ele>452.0</ele><time>2026-04-19T11:35:56Z</time></trkpt><trkpt lat="43.427780016083624" lon="10.714783674113459"><ele>452.0</ele><time>2026-04-19T11:35:57Z</time></trkpt><trkpt lat="43.42771508113715" lon="10.71474977430014"><ele>452.0</ele><time>2026-04-19T11:35:58Z</time></trkpt><trkpt lat="43.42761636213803" lon="10.714692457502492"><ele>452.28571428571433</ele><time>2026-04-19T11:36:00Z</time></trkpt><trkpt lat="43.42755813033061" lon="10.714628476741762"><ele>452.57142857142856</ele><time>2026-04-19T11:36:03Z</time></trkpt><trkpt lat="43.42750091384541" lon="10.714565426983214"><ele>452.8571428571429</ele><time>2026-04-19T11:36:07Z</time></trkpt><trkpt lat="43.427443762493326" lon="10.714509139605866"><ele>453.14285714285717</ele><time>2026-04-19T11:36:14.001Z</time></trkpt><trkpt lat="43.427386951020765" lon="10.714462576871355"><ele>453.42857142857144</ele><time>2026-04-19T11:36:20.001Z</time></trkpt><trkpt lat="43.42733080090694" lon="10.714419284652664"><ele>453.7142857142857</ele><time>2026-04-19T11:36:25.001Z</time></trkpt><trkpt lat="43.427259923501744" lon="10.7143679993025"><ele>454.0</ele><time>2026-04-19T11:36:30.001Z</time></trkpt><trkpt lat="43.42719725491632" lon="10.714382457131444"><ele>455.0</ele><time>2026-04-19T11:36:37.001Z</time></trkpt><trkpt lat="43.4271289517537" lon="10.71439065007973"><ele>456.00000000000006</ele><time>2026-04-19T11:36:53.999Z</time></trkpt><trkpt lat="43.42706221738654" lon="10.714451165940215"><ele>457.0</ele><time>2026-04-19T11:40:26.001Z</time></trkpt><trkpt lat="43.42710749635545" lon="10.714377376352065"><ele>458.0</ele><time>2026-04-19T11:42:42.002Z</time></trkpt><trkpt lat="43.42703983062884" lon="10.71436433961874"><ele>459.00000000000006</ele><time>2026-04-19T11:43:56.001Z</time></trkpt><trkpt lat="43.426969437428845" lon="10.714377273264226"><ele>460.0</ele><time>2026-04-19T11:44:03.002Z</time></trkpt><trkpt lat="43.42689124001145" lon="10.714401450837183"><ele>461.0</ele><time>2026-04-19T11:44:07.002Z</time></trkpt><trkpt lat="43.42682243121884" lon="10.71442224394559"><ele>461.0</ele><time>2026-04-19T11:44:13.002Z</time></trkpt><trkpt lat="43.42675270709348" lon="10.714473537235728"><ele>461.00000000000006</ele><time>2026-04-19T11:44:19.002Z</time></trkpt><trkpt lat="43.42668718471206" lon="10.714497444154908"><ele>461.0</ele><time>2026-04-19T11:44:23.002Z</time></trkpt><trkpt lat="43.42660934228187" lon="10.714514343204824"><ele>461.0</ele><time>2026-04-19T11:44:28.002Z</time></trkpt><trkpt lat="43.42654636139795" lon="10.714537448171466"><ele>461.00000000000006</ele><time>2026-04-19T11:44:32.002Z</time></trkpt><trkpt lat="43.426471803712055" lon="10.714568681235908"><ele>461.0</ele><time>2026-04-19T11:44:36.002Z</time></trkpt><trkpt lat="43.42641175750782" lon="10.7146351250307"><ele>461.0</ele><time>2026-04-19T11:44:39.002Z</time></trkpt><trkpt lat="43.4263736390019" lon="10.714709461384093"><ele>461.0</ele><time>2026-04-19T11:44:43.002Z</time></trkpt><trkpt lat="43.42633368013643" lon="10.714786001904747"><ele>461.00000000000006</ele><time>2026-04-19T11:44:47.002Z</time></trkpt><trkpt lat="43.42629781496512" lon="10.71485959106803"><ele>461.0</ele><time>2026-04-19T11:44:51.002Z</time></trkpt><trkpt lat="43.426247068916076" lon="10.714946725055903"><ele>461.0</ele><time>2026-04-19T11:44:55.002Z</time></trkpt><trkpt lat="43.42619998887306" lon="10.715027907378001"><ele>461.00000000000006</ele><time>2026-04-19T11:44:58.002Z</time></trkpt><trkpt lat="43.42614542249672" lon="10.715095972690897"><ele>461.0</ele><time>2026-04-19T11:45:01.002Z</time></trkpt><trkpt lat="43.42608063664944" lon="10.715128468490695"><ele>461.0</ele><time>2026-04-19T11:45:04.003Z</time></trkpt><trkpt lat="43.42600757803587" lon="10.715095029954936"><ele>462.7142857142857</ele><time>2026-04-19T11:45:08.003Z</time></trkpt><trkpt lat="43.42595651756478" lon="10.715040286716695"><ele>464.42857142857144</ele><time>2026-04-19T11:45:14.003Z</time></trkpt><trkpt lat="43.425904044136864" lon="10.714969903777316"><ele>466.14285714285717</ele><time>2026-04-19T11:45:20.002Z</time></trkpt><trkpt lat="43.425863039031164" lon="10.71489652600933"><ele>467.8571428571429</ele><time>2026-04-19T11:45:24.002Z</time></trkpt><trkpt lat="43.42581390458726" lon="10.71483273265011"><ele>469.57142857142856</ele><time>2026-04-19T11:45:27.002Z</time></trkpt><trkpt lat="43.42575537008141" lon="10.714782054411872"><ele>471.28571428571433</ele><time>2026-04-19T11:45:31.002Z</time></trkpt><trkpt lat="43.42569593058994" lon="10.714717355290585"><ele>473.0</ele><time>2026-04-19T11:45:37.002Z</time></trkpt><trkpt lat="43.42563242937206" lon="10.714661337613284"><ele>473.0</ele><time>2026-04-19T11:45:41.001Z</time></trkpt><trkpt lat="43.42556884658874" lon="10.714620919071836"><ele>473.0</ele><time>2026-04-19T11:45:44.001Z</time></trkpt><trkpt lat="43.42549833381132" lon="10.71461283697265"><ele>473.0</ele><time>2026-04-19T11:45:48.001Z</time></trkpt><trkpt lat="43.4254318033575" lon="10.71462455198357"><ele>473.0</ele><time>2026-04-19T11:45:53.001Z</time></trkpt><trkpt lat="43.42536185619382" lon="10.714617061605301"><ele>473.0</ele><time>2026-04-19T11:45:57.001Z</time></trkpt><trkpt lat="43.425298613448064" lon="10.714611151377072"><ele>473.0</ele><time>2026-04-19T11:46:00.001Z</time></trkpt><trkpt lat="43.42522499318776" lon="10.714602516842783"><ele>473.0</ele><time>2026-04-19T11:46:05.001Z</time></trkpt><trkpt lat="43.42515426574424" lon="10.71461322213082"><ele>474.0</ele><time>2026-04-19T11:46:12.001Z</time></trkpt><trkpt lat="43.425081663252534" lon="10.714633582228098"><ele>475.0</ele><time>2026-04-19T11:46:24.002Z</time></trkpt><trkpt lat="43.42501736082742" lon="10.714650984053355"><ele>476.0</ele><time>2026-04-19T11:46:28.002Z</time></trkpt><trkpt lat="43.424952440753685" lon="10.714671249750754"><ele>477.0</ele><time>2026-04-19T11:46:34.002Z</time></trkpt><trkpt lat="43.42488371098812" lon="10.714694214232566"><ele>478.0</ele><time>2026-04-19T11:46:40.002Z</time></trkpt><trkpt lat="43.42481496065272" lon="10.714709777306835"><ele>479.0</ele><time>2026-04-19T11:46:45.002Z</time></trkpt><trkpt lat="43.424748573967875" lon="10.714700268811066"><ele>480.0</ele><time>2026-04-19T11:46:58.002Z</time></trkpt><trkpt lat="43.424670998987025" lon="10.71468023495896"><ele>480.6666666666667</ele><time>2026-04-19T11:47:32.001Z</time></trkpt><trkpt lat="43.42460791880482" lon="10.714653258211952"><ele>481.33333333333337</ele><time>2026-04-19T11:47:36.001Z</time></trkpt><trkpt lat="43.42454527010307" lon="10.714623528194705"><ele>482.0</ele><time>2026-04-19T11:47:39.001Z</time></trkpt><trkpt lat="43.42446896583724" lon="10.714581838655294"><ele>482.6666666666667</ele><time>2026-04-19T11:47:42.001Z</time></trkpt><trkpt lat="43.424402440498426" lon="10.714537694680045"><ele>483.33333333333337</ele><time>2026-04-19T11:47:45.001Z</time></trkpt><trkpt lat="43.424323116039595" lon="10.714477300855648"><ele>484.0</ele><time>2026-04-19T11:47:48.001Z</time></trkpt><trkpt lat="43.424259760726486" lon="10.714429546359746"><ele>486.6666666666667</ele><time>2026-04-19T11:47:50.001Z</time></trkpt><trkpt lat="43.4242021154694" lon="10.714386974739991"><ele>489.33333333333337</ele><time>2026-04-19T11:47:52.001Z</time></trkpt><trkpt lat="43.424123886749165" lon="10.714342641896325"><ele>492.0</ele><time>2026-04-19T11:47:55.001Z</time></trkpt><trkpt lat="43.42404717338857" lon="10.71433579664405"><ele>494.66666666666663</ele><time>2026-04-19T11:47:59.001Z</time></trkpt><trkpt lat="43.42397466844527" lon="10.714322914190014"><ele>497.3333333333333</ele><time>2026-04-19T11:48:02.001Z</time></trkpt><trkpt lat="43.42390047952855" lon="10.714318907206085"><ele>500.0</ele><time>2026-04-19T11:48:06.001Z</time></trkpt><trkpt lat="43.423822811288424" lon="10.714310558813004"><ele>500.71428571428567</ele><time>2026-04-19T11:48:10.001Z</time></trkpt><trkpt lat="43.423761286128396" lon="10.714291986142161"><ele>501.42857142857144</ele><time>2026-04-19T11:48:14.001Z</time></trkpt><trkpt lat="43.4236956098452" lon="10.714262514353683"><ele>502.1428571428571</ele><time>2026-04-19T11:48:17.001Z</time></trkpt><trkpt lat="43.423629559230584" lon="10.714244564833205"><ele>502.85714285714283</ele><time>2026-04-19T11:48:20.001Z</time></trkpt><trkpt lat="43.42355244878001" lon="10.714233725359872"><ele>503.57142857142856</ele><time>2026-04-19T11:48:24.001Z</time></trkpt><trkpt lat="43.42346973195277" lon="10.714217965836085"><ele>504.2857142857143</ele><time>2026-04-19T11:48:28.001Z</time></trkpt><trkpt lat="43.4233925678597" lon="10.714206544471933"><ele>505.0</ele><time>2026-04-19T11:48:31.001Z</time></trkpt><trkpt lat="43.42331640901256" lon="10.714207904910943"><ele>505.00000000000006</ele><time>2026-04-19T11:48:34.001Z</time></trkpt><trkpt lat="43.42325225124123" lon="10.714225388601815"><ele>505.0</ele><time>2026-04-19T11:48:36.001Z</time></trkpt><trkpt lat="43.42319141153142" lon="10.71425162029939"><ele>505.0</ele><time>2026-04-19T11:48:38.001Z</time></trkpt><trkpt lat="43.42310694210467" lon="10.714275408928613"><ele>505.0</ele><time>2026-04-19T11:48:41.001Z</time></trkpt><trkpt lat="43.4230243955241" lon="10.714289130440989"><ele>505.00000000000006</ele><time>2026-04-19T11:48:44.001Z</time></trkpt><trkpt lat="43.4229205429461" lon="10.71431731664105"><ele>505.0</ele><time>2026-04-19T11:48:47.001Z</time></trkpt><trkpt lat="43.422847204531585" lon="10.714319388994726"><ele>504.50000000000006</ele><time>2026-04-19T11:48:49.001Z</time></trkpt><trkpt lat="43.42277937711558" lon="10.71431134031034"><ele>504.0</ele><time>2026-04-19T11:48:51.001Z</time></trkpt><trkpt lat="43.42271122997512" lon="10.714300603892356"><ele>503.5</ele><time>2026-04-19T11:48:53.001Z</time></trkpt><trkpt lat="43.4226190908098" lon="10.71428343342904"><ele>503.0</ele><time>2026-04-19T11:48:55.001Z</time></trkpt><trkpt lat="43.422526159901565" lon="10.714316715039613"><ele>502.50000000000006</ele><time>2026-04-19T11:48:57.001Z</time></trkpt><trkpt lat="43.42244898123083" lon="10.714358598124177"><ele>502.0</ele><time>2026-04-19T11:48:59.001Z</time></trkpt><trkpt lat="43.422389033894376" lon="10.714417725948056"><ele>501.99999999999994</ele><time>2026-04-19T11:49:02.001Z</time></trkpt><trkpt lat="43.42232379226298" lon="10.71446744307472"><ele>502.0</ele><time>2026-04-19T11:49:05.001Z</time></trkpt><trkpt lat="43.42225669471524" lon="10.714513821959354"><ele>501.99999999999994</ele><time>2026-04-19T11:49:08.001Z</time></trkpt><trkpt lat="43.422194804504215" lon="10.714558224942246"><ele>501.99999999999994</ele><time>2026-04-19T11:49:13.002Z</time></trkpt><trkpt lat="43.42213281399887" lon="10.714596251979925"><ele>502.0</ele><time>2026-04-19T11:49:17.002Z</time></trkpt><trkpt lat="43.42206067764339" lon="10.71465484910974"><ele>501.99999999999994</ele><time>2026-04-19T11:49:20.002Z</time></trkpt><trkpt lat="43.42199708723767" lon="10.714700603969094"><ele>501.99999999999994</ele><time>2026-04-19T11:49:22.002Z</time></trkpt><trkpt lat="43.42193109085369" lon="10.714728960503635"><ele>502.8571428571428</ele><time>2026-04-19T11:49:24.002Z</time></trkpt><trkpt lat="43.42185626315452" lon="10.714745215953767"><ele>503.71428571428567</ele><time>2026-04-19T11:49:26.002Z</time></trkpt><trkpt lat="43.42178696647834" lon="10.714746584963478"><ele>504.57142857142856</ele><time>2026-04-19T11:49:28.002Z</time></trkpt><trkpt lat="43.421723412946626" lon="10.71474266961409"><ele>505.4285714285714</ele><time>2026-04-19T11:49:31.001Z</time></trkpt><trkpt lat="43.421661004229755" lon="10.714723154104034"><ele>506.2857142857142</ele><time>2026-04-19T11:49:34.001Z</time></trkpt><trkpt lat="43.42159407464746" lon="10.714697137860666"><ele>507.14285714285717</ele><time>2026-04-19T11:49:38.001Z</time></trkpt><trkpt lat="43.42152212509461" lon="10.714685933570477"><ele>508.0</ele><time>2026-04-19T11:49:44.001Z</time></trkpt><trkpt lat="43.42145174251346" lon="10.714671382295416"><ele>508.0</ele><time>2026-04-19T11:49:49.001Z</time></trkpt><trkpt lat="43.421374476815586" lon="10.7146418304033"><ele>508.0</ele><time>2026-04-19T11:49:53.001Z</time></trkpt><trkpt lat="43.42131480685347" lon="10.714606580795863"><ele>508.0</ele><time>2026-04-19T11:49:57.001Z</time></trkpt><trkpt lat="43.42125164473317" lon="10.714568124887045"><ele>508.0</ele><time>2026-04-19T11:50:03.001Z</time></trkpt><trkpt lat="43.421205353218674" lon="10.714506992844443"><ele>508.0</ele><time>2026-04-19T11:50:08.001Z</time></trkpt><trkpt lat="43.421147995787585" lon="10.714454151064093"><ele>508.0</ele><time>2026-04-19T11:50:12.001Z</time></trkpt><trkpt lat="43.42110303151331" lon="10.714387977035294"><ele>508.0</ele><time>2026-04-19T11:50:16.001Z</time></trkpt><trkpt lat="43.421066662754946" lon="10.714312077709554"><ele>508.00000000000006</ele><time>2026-04-19T11:50:20.001Z</time></trkpt><trkpt lat="43.42102312279435" lon="10.714225758699156"><ele>508.0</ele><time>2026-04-19T11:50:25.001Z</time></trkpt><trkpt lat="43.42097458070155" lon="10.714124512298786"><ele>508.0</ele><time>2026-04-19T11:50:29.001Z</time></trkpt><trkpt lat="43.4209361349856" lon="10.714041762265811"><ele>508.0</ele><time>2026-04-19T11:50:31.001Z</time></trkpt><trkpt lat="43.420893300981135" lon="10.713935270606754"><ele>508.00000000000006</ele><time>2026-04-19T11:50:33.001Z</time></trkpt><trkpt lat="43.42085585101862" lon="10.713842666059156"><ele>508.0</ele><time>2026-04-19T11:50:35.001Z</time></trkpt><trkpt lat="43.42081526973138" lon="10.71375511002284"><ele>508.0</ele><time>2026-04-19T11:50:38.001Z</time></trkpt><trkpt lat="43.4207670236241" lon="10.713668711431792"><ele>508.0</ele><time>2026-04-19T11:50:44.001Z</time></trkpt><trkpt lat="43.42071936934569" lon="10.713601822914988"><ele>508.0</ele><time>2026-04-19T11:50:49.001Z</time></trkpt><trkpt lat="43.42066614499012" lon="10.713555103556779"><ele>508.0</ele><time>2026-04-19T11:50:54.001Z</time></trkpt><trkpt lat="43.4205973883079" lon="10.713517706667623"><ele>508.0</ele><time>2026-04-19T11:50:59.001Z</time></trkpt><trkpt lat="43.42053594021753" lon="10.713495968975435"><ele>508.0</ele><time>2026-04-19T11:51:03.001Z</time></trkpt><trkpt lat="43.420461820492356" lon="10.713470489494036"><ele>508.0</ele><time>2026-04-19T11:51:08.001Z</time></trkpt><trkpt lat="43.42039261854383" lon="10.713435260283772"><ele>508.14285714285717</ele><time>2026-04-19T11:51:13.001Z</time></trkpt><trkpt lat="43.42032928621916" lon="10.713393816219737"><ele>508.2857142857142</ele><time>2026-04-19T11:51:16.001Z</time></trkpt><trkpt lat="43.420252007024054" lon="10.713349704028998"><ele>508.4285714285714</ele><time>2026-04-19T11:51:19.001Z</time></trkpt><trkpt lat="43.420176891451995" lon="10.713315338415788"><ele>508.57142857142856</ele><time>2026-04-19T11:51:22.001Z</time></trkpt><trkpt lat="43.42011141461362" lon="10.713271598883809"><ele>508.71428571428567</ele><time>2026-04-19T11:51:25.001Z</time></trkpt><trkpt lat="43.42005260913443" lon="10.71321703107945"><ele>508.8571428571428</ele><time>2026-04-19T11:51:30.001Z</time></trkpt><trkpt lat="43.419994583111986" lon="10.713159844320801"><ele>508.99999999999994</ele><time>2026-04-19T11:51:37.001Z</time></trkpt><trkpt lat="43.419946424133876" lon="10.713099987234466"><ele>508.99999999999994</ele><time>2026-04-19T11:51:40.001Z</time></trkpt><trkpt lat="43.41989209447382" lon="10.713031281464007"><ele>509.0</ele><time>2026-04-19T11:51:43.001Z</time></trkpt><trkpt lat="43.41984002545976" lon="10.712954856794148"><ele>508.99999999999994</ele><time>2026-04-19T11:51:46.001Z</time></trkpt><trkpt lat="43.41979102200538" lon="10.712871693614934"><ele>508.99999999999994</ele><time>2026-04-19T11:51:51.001Z</time></trkpt><trkpt lat="43.41974252133101" lon="10.712790796508397"><ele>509.0</ele><time>2026-04-19T11:51:55.001Z</time></trkpt><trkpt lat="43.41970095824486" lon="10.712718683817451"><ele>508.99999999999994</ele><time>2026-04-19T11:51:59.001Z</time></trkpt><trkpt lat="43.41966778732344" lon="10.712640399186826"><ele>508.99999999999994</ele><time>2026-04-19T11:52:04.001Z</time></trkpt><trkpt lat="43.419634546865574" lon="10.712564843494048"><ele>508.99999999999994</ele><time>2026-04-19T11:52:12.001Z</time></trkpt><trkpt lat="43.41959197552083" lon="10.712482333453352"><ele>509.0</ele><time>2026-04-19T11:52:16.001Z</time></trkpt><trkpt lat="43.419550144133005" lon="10.712411257153823"><ele>509.0</ele><time>2026-04-19T11:52:21.001Z</time></trkpt><trkpt lat="43.419507631140355" lon="10.71231783925688"><ele>509.0</ele><time>2026-04-19T11:52:25.001Z</time></trkpt><trkpt lat="43.41945147083664" lon="10.71225489054141"><ele>508.99999999999994</ele><time>2026-04-19T11:52:32.001Z</time></trkpt><trkpt lat="43.419389077412326" lon="10.712188115672925"><ele>509.0</ele><time>2026-04-19T11:52:37.001Z</time></trkpt><trkpt lat="43.419317149937505" lon="10.712131621867954"><ele>508.99999999999994</ele><time>2026-04-19T11:52:41.001Z</time></trkpt><trkpt lat="43.419262021027976" lon="10.712064163368476"><ele>509.0</ele><time>2026-04-19T11:52:45.001Z</time></trkpt><trkpt lat="43.419210630746086" lon="10.712001460206205"><ele>508.99999999999994</ele><time>2026-04-19T11:52:51.001Z</time></trkpt><trkpt lat="43.419154529536996" lon="10.711950142040708"><ele>508.99999999999994</ele><time>2026-04-19T11:52:57.001Z</time></trkpt><trkpt lat="43.41909370234155" lon="10.71188867753231"><ele>509.0</ele><time>2026-04-19T11:53:02.001Z</time></trkpt><trkpt lat="43.419044385061746" lon="10.711812927765735"><ele>508.99999999999994</ele><time>2026-04-19T11:53:13.001Z</time></trkpt><trkpt lat="43.41899419738276" lon="10.711760144388967"><ele>508.99999999999994</ele><time>2026-04-19T11:53:16.001Z</time></trkpt><trkpt lat="43.41894289316838" lon="10.711697613648077"><ele>508.2857142857142</ele><time>2026-04-19T11:53:21.001Z</time></trkpt><trkpt lat="43.41889756166741" lon="10.7116291984609"><ele>507.57142857142856</ele><time>2026-04-19T11:53:26.001Z</time></trkpt><trkpt lat="43.418857275941164" lon="10.711555439843062"><ele>506.85714285714283</ele><time>2026-04-19T11:53:29.001Z</time></trkpt><trkpt lat="43.418829146994376" lon="10.711464587915582"><ele>506.1428571428571</ele><time>2026-04-19T11:53:33.001Z</time></trkpt><trkpt lat="43.41881782125591" lon="10.711368655334633"><ele>505.42857142857144</ele><time>2026-04-19T11:53:36.001Z</time></trkpt><trkpt lat="43.41880340664198" lon="10.711266537040293"><ele>504.7142857142857</ele><time>2026-04-19T11:53:39.001Z</time></trkpt><trkpt lat="43.41880622388555" lon="10.71117298857689"><ele>504.0</ele><time>2026-04-19T11:53:41.001Z</time></trkpt><trkpt lat="43.41879246198648" lon="10.711073567636317"><ele>505.42857142857144</ele><time>2026-04-19T11:53:44.001Z</time></trkpt><trkpt lat="43.41877705384382" lon="10.710975747076551"><ele>506.8571428571429</ele><time>2026-04-19T11:53:49.001Z</time></trkpt><trkpt lat="43.41875651347113" lon="10.710871958862475"><ele>508.2857142857143</ele><time>2026-04-19T11:53:54Z</time></trkpt><trkpt lat="43.4187546773336" lon="10.710783953414717"><ele>509.7142857142857</ele><time>2026-04-19T11:53:58Z</time></trkpt><trkpt lat="43.41871551792229" lon="10.710701465486615"><ele>511.14285714285717</ele><time>2026-04-19T11:54:02Z</time></trkpt><trkpt lat="43.41864429864184" lon="10.710655523335351"><ele>512.5714285714286</ele><time>2026-04-19T11:54:09Z</time></trkpt><trkpt lat="43.41858203367521" lon="10.710635876114326"><ele>514.0</ele><time>2026-04-19T11:54:12Z</time></trkpt><trkpt lat="43.41849764658562" lon="10.710605880699614"><ele>514.0</ele><time>2026-04-19T11:54:15Z</time></trkpt><trkpt lat="43.41843609307254" lon="10.710569622900998"><ele>514.0</ele><time>2026-04-19T11:54:17Z</time></trkpt><trkpt lat="43.418371077907466" lon="10.71050014768273"><ele>514.0</ele><time>2026-04-19T11:54:20Z</time></trkpt><trkpt lat="43.4183184366477" lon="10.710418612181897"><ele>514.0</ele><time>2026-04-19T11:54:23Z</time></trkpt><trkpt lat="43.41828155676642" lon="10.71032893686124"><ele>514.0</ele><time>2026-04-19T11:54:26Z</time></trkpt><trkpt lat="43.418233353341954" lon="10.710247351543448"><ele>514.0</ele><time>2026-04-19T11:54:29Z</time></trkpt><trkpt lat="43.418172683620696" lon="10.710144090323436"><ele>513.2857142857142</ele><time>2026-04-19T11:54:32Z</time></trkpt><trkpt lat="43.41811825484654" lon="10.710066756946869"><ele>512.5714285714286</ele><time>2026-04-19T11:54:34Z</time></trkpt><trkpt lat="43.418060125799514" lon="10.710004750557722"><ele>511.85714285714283</ele><time>2026-04-19T11:54:37Z</time></trkpt><trkpt lat="43.41800499774422" lon="10.70993962019198"><ele>511.1428571428571</ele><time>2026-04-19T11:54:40Z</time></trkpt><trkpt lat="43.41795708785225" lon="10.709880912045048"><ele>510.42857142857144</ele><time>2026-04-19T11:54:44Z</time></trkpt><trkpt lat="43.41792177374849" lon="10.709791310295824"><ele>509.71428571428567</ele><time>2026-04-19T11:54:48Z</time></trkpt><trkpt lat="43.41789462119071" lon="10.709706538993368"><ele>508.99999999999994</ele><time>2026-04-19T11:54:51Z</time></trkpt><trkpt lat="43.41786351295238" lon="10.709620857975139"><ele>508.99999999999994</ele><time>2026-04-19T11:54:54Z</time></trkpt><trkpt lat="43.417830587314306" lon="10.709543492053035"><ele>509.0</ele><time>2026-04-19T11:54:59Z</time></trkpt><trkpt lat="43.41779093253957" lon="10.709441695600765"><ele>508.99999999999994</ele><time>2026-04-19T11:55:03.001Z</time></trkpt><trkpt lat="43.41776078040092" lon="10.709352208981942"><ele>508.99999999999994</ele><time>2026-04-19T11:55:06.001Z</time></trkpt><trkpt lat="43.41772620420849" lon="10.709265535222864"><ele>509.0</ele><time>2026-04-19T11:55:09.001Z</time></trkpt><trkpt lat="43.41769807465339" lon="10.709184353931697"><ele>508.99999999999994</ele><time>2026-04-19T11:55:12.001Z</time></trkpt><trkpt lat="43.41766945650669" lon="10.70909911624127"><ele>508.99999999999994</ele><time>2026-04-19T11:55:16.001Z</time></trkpt><trkpt lat="43.417638166374495" lon="10.709019589651701"><ele>509.66666666666663</ele><time>2026-04-19T11:55:19.001Z</time></trkpt><trkpt lat="43.41760213473898" lon="10.708938873598454"><ele>510.3333333333333</ele><time>2026-04-19T11:55:22.001Z</time></trkpt><trkpt lat="43.417573895018954" lon="10.708841823487687"><ele>511.0</ele><time>2026-04-19T11:55:25.001Z</time></trkpt><trkpt lat="43.41755393400575" lon="10.708721257659702"><ele>511.66666666666663</ele><time>2026-04-19T11:55:28.001Z</time></trkpt><trkpt lat="43.41752082847298" lon="10.708625504393916"><ele>512.3333333333334</ele><time>2026-04-19T11:55:31.001Z</time></trkpt><trkpt lat="43.417495544624856" lon="10.70852341963776"><ele>513.0</ele><time>2026-04-19T11:55:35.001Z</time></trkpt><trkpt lat="43.41745046635894" lon="10.70843920262578"><ele>512.5714285714287</ele><time>2026-04-19T11:55:39.001Z</time></trkpt><trkpt lat="43.41739867770054" lon="10.708389444699904"><ele>512.1428571428571</ele><time>2026-04-19T11:55:42.001Z</time></trkpt><trkpt lat="43.4173345479149" lon="10.708360992079989"><ele>511.7142857142858</ele><time>2026-04-19T11:55:47Z</time></trkpt><trkpt lat="43.417264806547635" lon="10.708359985139547"><ele>511.28571428571433</ele><time>2026-04-19T11:55:53Z</time></trkpt><trkpt lat="43.417193877232386" lon="10.708360865511574"><ele>510.8571428571429</ele><time>2026-04-19T11:55:59Z</time></trkpt><trkpt lat="43.41713385191704" lon="10.708322300279466"><ele>510.42857142857144</ele><time>2026-04-19T11:56:04Z</time></trkpt><trkpt lat="43.41707755386213" lon="10.70827795955937"><ele>510.0</ele><time>2026-04-19T11:56:08Z</time></trkpt><trkpt lat="43.417025008002696" lon="10.708217297117276"><ele>510.0</ele><time>2026-04-19T11:56:12Z</time></trkpt><trkpt lat="43.416970601823905" lon="10.708146826250355"><ele>510.00000000000006</ele><time>2026-04-19T11:56:17Z</time></trkpt><trkpt lat="43.41690165372356" lon="10.70812289665539"><ele>510.0</ele><time>2026-04-19T11:56:23Z</time></trkpt><trkpt lat="43.416830154509924" lon="10.70812517845634"><ele>510.0</ele><time>2026-04-19T11:56:38Z</time></trkpt><trkpt lat="43.41677447773449" lon="10.708179019798834"><ele>510.00000000000006</ele><time>2026-04-19T11:56:44Z</time></trkpt><trkpt lat="43.4167389532137" lon="10.708252480708786"><ele>510.0</ele><time>2026-04-19T11:56:50Z</time></trkpt><trkpt lat="43.41667797268437" lon="10.708292564660752"><ele>510.0</ele><time>2026-04-19T11:56:55Z</time></trkpt><trkpt lat="43.416618139460184" lon="10.708325088937798"><ele>510.0</ele><time>2026-04-19T11:57:00Z</time></trkpt><trkpt lat="43.4165526267334" lon="10.708288660485799"><ele>510.00000000000006</ele><time>2026-04-19T11:57:08Z</time></trkpt><trkpt lat="43.41648892175678" lon="10.708233528259877"><ele>510.0</ele><time>2026-04-19T11:57:11Z</time></trkpt><trkpt lat="43.416436253637215" lon="10.708175687620978"><ele>510.0</ele><time>2026-04-19T11:57:19Z</time></trkpt><trkpt lat="43.41637610302751" lon="10.708120212448291"><ele>510.00000000000006</ele><time>2026-04-19T11:58:20.999Z</time></trkpt><trkpt lat="43.416319793681645" lon="10.708058622219964"><ele>510.0</ele><time>2026-04-19T11:58:36.999Z</time></trkpt><trkpt lat="43.41625959110381" lon="10.708025814059644"><ele>510.0</ele><time>2026-04-19T11:58:39.999Z</time></trkpt><trkpt lat="43.41618701198608" lon="10.707978029615727"><ele>510.42857142857144</ele><time>2026-04-19T11:58:43.999Z</time></trkpt><trkpt lat="43.41611622990933" lon="10.707915768723055"><ele>510.8571428571429</ele><time>2026-04-19T11:58:46.999Z</time></trkpt><trkpt lat="43.41605535338107" lon="10.70788570390719"><ele>511.28571428571433</ele><time>2026-04-19T11:58:50.999Z</time></trkpt><trkpt lat="43.415991470422206" lon="10.707810825430114"><ele>511.7142857142858</ele><time>2026-04-19T11:59:00.999Z</time></trkpt><trkpt lat="43.41594140048345" lon="10.707755364684333"><ele>512.1428571428571</ele><time>2026-04-19T11:59:08Z</time></trkpt><trkpt lat="43.41588511800864" lon="10.707694106870257"><ele>512.5714285714287</ele><time>2026-04-19T11:59:44Z</time></trkpt><trkpt lat="43.415814264949944" lon="10.707651492603418"><ele>513.0</ele><time>2026-04-19T11:59:48Z</time></trkpt><trkpt lat="43.415755635951726" lon="10.707596387163598"><ele>513.0</ele><time>2026-04-19T12:00:01.996Z</time></trkpt><trkpt lat="43.415685492824224" lon="10.707567390053187"><ele>513.0</ele><time>2026-04-19T12:00:05.996Z</time></trkpt><trkpt lat="43.41559896661642" lon="10.70754077084149"><ele>513.0</ele><time>2026-04-19T12:00:16.997Z</time></trkpt><trkpt lat="43.4155117298776" lon="10.707507966874172"><ele>513.0</ele><time>2026-04-19T12:00:19.997Z</time></trkpt><trkpt lat="43.41543607009091" lon="10.707494637674767"><ele>513.0</ele><time>2026-04-19T12:00:21.997Z</time></trkpt><trkpt lat="43.415370643975834" lon="10.707489509262398"><ele>513.0</ele><time>2026-04-19T12:00:23.997Z</time></trkpt><trkpt lat="43.41530049243175" lon="10.707455324898797"><ele>510.6666666666667</ele><time>2026-04-19T12:00:29.998Z</time></trkpt><trkpt lat="43.41523023671398" lon="10.707413992337719"><ele>508.33333333333337</ele><time>2026-04-19T12:00:40.998Z</time></trkpt><trkpt lat="43.41516646647544" lon="10.707374507840521"><ele>506.0</ele><time>2026-04-19T12:01:00.998Z</time></trkpt><trkpt lat="43.41511352957041" lon="10.707307969525381"><ele>503.6666666666667</ele><time>2026-04-19T12:01:21.999Z</time></trkpt><trkpt lat="43.41505066440118" lon="10.707236752127459"><ele>501.33333333333337</ele><time>2026-04-19T12:01:27.999Z</time></trkpt><trkpt lat="43.41501175571017" lon="10.707151757291731"><ele>499.0</ele><time>2026-04-19T12:01:38.999Z</time></trkpt><trkpt lat="43.414945903740204" lon="10.707078239600017"><ele>499.00000000000006</ele><time>2026-04-19T12:01:46.999Z</time></trkpt><trkpt lat="43.41488793078882" lon="10.707009805052925"><ele>499.0</ele><time>2026-04-19T12:01:49.999Z</time></trkpt><trkpt lat="43.4148411698699" lon="10.7069264854409"><ele>499.00000000000006</ele><time>2026-04-19T12:01:52.999Z</time></trkpt><trkpt lat="43.414808655987" lon="10.70684216912209"><ele>499.00000000000006</ele><time>2026-04-19T12:01:56.999Z</time></trkpt><trkpt lat="43.41477152060998" lon="10.70675878569249"><ele>499.0</ele><time>2026-04-19T12:02:03.996Z</time></trkpt><trkpt lat="43.41474147715944" lon="10.706663012427242"><ele>499.00000000000006</ele><time>2026-04-19T12:02:09.996Z</time></trkpt><trkpt lat="43.41469767111104" lon="10.706598579646425"><ele>499.00000000000006</ele><time>2026-04-19T12:02:14.996Z</time></trkpt><trkpt lat="43.41465397721014" lon="10.706512648485912"><ele>498.50000000000006</ele><time>2026-04-19T12:02:19.997Z</time></trkpt><trkpt lat="43.414592633421" lon="10.706430008468327"><ele>498.0</ele><time>2026-04-19T12:02:22.997Z</time></trkpt><trkpt lat="43.41453212527249" lon="10.706382983813919"><ele>497.5</ele><time>2026-04-19T12:02:25.997Z</time></trkpt><trkpt lat="43.41444743107343" lon="10.706371179569095"><ele>497.0</ele><time>2026-04-19T12:02:37.998Z</time></trkpt><trkpt lat="43.414362853972484" lon="10.706369879656794"><ele>496.50000000000006</ele><time>2026-04-19T12:02:41.998Z</time></trkpt><trkpt lat="43.41428199898266" lon="10.706386636551056"><ele>496.0</ele><time>2026-04-19T12:02:44.998Z</time></trkpt><trkpt lat="43.41419352205985" lon="10.706386686396367"><ele>496.0</ele><time>2026-04-19T12:02:47.998Z</time></trkpt><trkpt lat="43.414130257519915" lon="10.706379274165924"><ele>496.00000000000006</ele><time>2026-04-19T12:02:49.998Z</time></trkpt><trkpt lat="43.41406030315963" lon="10.70635407335934"><ele>496.0</ele><time>2026-04-19T12:02:54.999Z</time></trkpt><trkpt lat="43.41398978367483" lon="10.706350478071695"><ele>496.0</ele><time>2026-04-19T12:03:01.999Z</time></trkpt><trkpt lat="43.41391819683273" lon="10.706315041773104"><ele>496.00000000000006</ele><time>2026-04-19T12:03:06.999Z</time></trkpt><trkpt lat="43.41384790685395" lon="10.706266027628645"><ele>496.0</ele><time>2026-04-19T12:03:10.999Z</time></trkpt><trkpt lat="43.413798979055834" lon="10.706194025007923"><ele>496.0</ele><time>2026-04-19T12:03:13.999Z</time></trkpt><trkpt lat="43.41373959689074" lon="10.706110624342974"><ele>496.42857142857144</ele><time>2026-04-19T12:03:16.999Z</time></trkpt><trkpt lat="43.4136904257133" lon="10.706042640567572"><ele>496.8571428571429</ele><time>2026-04-19T12:03:19.999Z</time></trkpt><trkpt lat="43.4136343012183" lon="10.70596318812075"><ele>497.28571428571433</ele><time>2026-04-19T12:03:23.999Z</time></trkpt><trkpt lat="43.413573714577154" lon="10.70589506152524"><ele>497.7142857142858</ele><time>2026-04-19T12:03:27.999Z</time></trkpt><trkpt lat="43.41351276142883" lon="10.705818822868997"><ele>498.14285714285717</ele><time>2026-04-19T12:03:32Z</time></trkpt><trkpt lat="43.413462413974784" lon="10.705761035036224"><ele>498.57142857142867</ele><time>2026-04-19T12:03:35Z</time></trkpt><trkpt lat="43.413415874813275" lon="10.705701245750904"><ele>499.00000000000006</ele><time>2026-04-19T12:03:39Z</time></trkpt><trkpt lat="43.41337583572898" lon="10.705610064895593"><ele>499.00000000000006</ele><time>2026-04-19T12:03:48Z</time></trkpt><trkpt lat="43.413318553064535" lon="10.705557347756644"><ele>499.0</ele><time>2026-04-19T12:03:51Z</time></trkpt><trkpt lat="43.41326047342971" lon="10.705490590182285"><ele>499.00000000000006</ele><time>2026-04-19T12:04:00Z</time></trkpt><trkpt lat="43.41322363541879" lon="10.705419930171672"><ele>499.00000000000006</ele><time>2026-04-19T12:04:06Z</time></trkpt><trkpt lat="43.41315662567848" lon="10.705378933047253"><ele>499.0</ele><time>2026-04-19T12:04:14.996Z</time></trkpt><trkpt lat="43.41309839202364" lon="10.70534033466044"><ele>499.00000000000006</ele><time>2026-04-19T12:04:17.996Z</time></trkpt><trkpt lat="43.413015335857146" lon="10.705313108448768"><ele>499.00000000000006</ele><time>2026-04-19T12:04:20.997Z</time></trkpt><trkpt lat="43.41294167103822" lon="10.70532589032829"><ele>498.28571428571433</ele><time>2026-04-19T12:04:26.998Z</time></trkpt><trkpt lat="43.4128726787771" lon="10.705298350812408"><ele>497.57142857142856</ele><time>2026-04-19T12:04:29.998Z</time></trkpt><trkpt lat="43.41281258929553" lon="10.70526240150282"><ele>496.8571428571429</ele><time>2026-04-19T12:04:39.998Z</time></trkpt><trkpt lat="43.41274765859951" lon="10.705226040664897"><ele>496.14285714285717</ele><time>2026-04-19T12:04:42.998Z</time></trkpt><trkpt lat="43.412678073444425" lon="10.705258886455068"><ele>495.42857142857144</ele><time>2026-04-19T12:04:47.999Z</time></trkpt><trkpt lat="43.4126139952943" lon="10.705275941581435"><ele>494.7142857142857</ele><time>2026-04-19T12:04:56.999Z</time></trkpt><trkpt lat="43.4125502515453" lon="10.705268963595893"><ele>494.0</ele><time>2026-04-19T12:04:59.999Z</time></trkpt><trkpt lat="43.41248755534541" lon="10.705296991768117"><ele>494.0</ele><time>2026-04-19T12:05:05.999Z</time></trkpt><trkpt lat="43.41241979693202" lon="10.705352781397817"><ele>494.0</ele><time>2026-04-19T12:05:14Z</time></trkpt><trkpt lat="43.412377871960004" lon="10.705428612030383"><ele>494.0</ele><time>2026-04-19T12:05:19Z</time></trkpt><trkpt lat="43.41232473643189" lon="10.705479935721366"><ele>494.0</ele><time>2026-04-19T12:05:35Z</time></trkpt><trkpt lat="43.41226577965579" lon="10.705527833327412"><ele>494.0</ele><time>2026-04-19T12:06:00.001Z</time></trkpt><trkpt lat="43.412187981540946" lon="10.705540581362913"><ele>494.0</ele><time>2026-04-19T12:06:11.001Z</time></trkpt><trkpt lat="43.41211918480324" lon="10.705517570796182"><ele>494.0</ele><time>2026-04-19T12:06:16.998Z</time></trkpt><trkpt lat="43.41205362651572" lon="10.705510712817606"><ele>493.8571428571429</ele><time>2026-04-19T12:06:33.999Z</time></trkpt><trkpt lat="43.41197752719711" lon="10.705481451197505"><ele>493.71428571428567</ele><time>2026-04-19T12:06:42.999Z</time></trkpt><trkpt lat="43.41191944041789" lon="10.705434645980224"><ele>493.57142857142856</ele><time>2026-04-19T12:06:53Z</time></trkpt><trkpt lat="43.411842917087355" lon="10.705408136801239"><ele>493.42857142857144</ele><time>2026-04-19T12:07:00Z</time></trkpt><trkpt lat="43.411773255583036" lon="10.705385226775668"><ele>493.28571428571433</ele><time>2026-04-19T12:07:06Z</time></trkpt><trkpt lat="43.411710079573034" lon="10.705351755221333"><ele>493.1428571428571</ele><time>2026-04-19T12:07:12Z</time></trkpt><trkpt lat="43.411637777882326" lon="10.705321519038284"><ele>493.0</ele><time>2026-04-19T12:07:18Z</time></trkpt><trkpt lat="43.411564844460685" lon="10.7053012044795"><ele>493.00000000000006</ele><time>2026-04-19T12:07:24.001Z</time></trkpt><trkpt lat="43.41149676347602" lon="10.705290749914683"><ele>493.0</ele><time>2026-04-19T12:07:28.001Z</time></trkpt><trkpt lat="43.411426629937495" lon="10.705289506803895"><ele>493.0</ele><time>2026-04-19T12:07:33.001Z</time></trkpt><trkpt lat="43.41135107826786" lon="10.705327095243128"><ele>493.0</ele><time>2026-04-19T12:07:36.001Z</time></trkpt><trkpt lat="43.41127947487417" lon="10.7053413479384"><ele>493.00000000000006</ele><time>2026-04-19T12:07:40.001Z</time></trkpt><trkpt lat="43.411191673037564" lon="10.705386220279573"><ele>493.0</ele><time>2026-04-19T12:07:47.001Z</time></trkpt><trkpt lat="43.41113661784014" lon="10.705451617776854"><ele>494.6666666666667</ele><time>2026-04-19T12:07:50.001Z</time></trkpt><trkpt lat="43.41108355318995" lon="10.705544021126245"><ele>496.33333333333337</ele><time>2026-04-19T12:07:53.002Z</time></trkpt><trkpt lat="43.4110083508593" lon="10.705624152080654"><ele>498.0</ele><time>2026-04-19T12:08:03.002Z</time></trkpt><trkpt lat="43.41095145652846" lon="10.705707946007895"><ele>499.66666666666663</ele><time>2026-04-19T12:08:06.002Z</time></trkpt><trkpt lat="43.41090838182553" lon="10.705777027530251"><ele>501.3333333333333</ele><time>2026-04-19T12:08:08.002Z</time></trkpt><trkpt lat="43.410857321759615" lon="10.705841912682288"><ele>503.0</ele><time>2026-04-19T12:08:12.002Z</time></trkpt><trkpt lat="43.41081245513794" lon="10.705917687708364"><ele>503.0</ele><time>2026-04-19T12:08:19.998Z</time></trkpt><trkpt lat="43.410749737203844" lon="10.705975260446886"><ele>503.00000000000006</ele><time>2026-04-19T12:08:27.999Z</time></trkpt><trkpt lat="43.41070567301946" lon="10.706040677424777"><ele>503.0</ele><time>2026-04-19T12:08:30.999Z</time></trkpt><trkpt lat="43.41063844855484" lon="10.706097518221052"><ele>503.0</ele><time>2026-04-19T12:08:36.999Z</time></trkpt><trkpt lat="43.41058669579188" lon="10.706152616032691"><ele>503.00000000000006</ele><time>2026-04-19T12:08:41Z</time></trkpt><trkpt lat="43.41052685429332" lon="10.706205063474414"><ele>503.0</ele><time>2026-04-19T12:08:50Z</time></trkpt><trkpt lat="43.41045714415058" lon="10.706259113583299"><ele>503.0</ele><time>2026-04-19T12:08:54Z</time></trkpt><trkpt lat="43.41040006742758" lon="10.706302171764596"><ele>503.0</ele><time>2026-04-19T12:08:57.001Z</time></trkpt><trkpt lat="43.41034346204422" lon="10.706341279318279"><ele>503.00000000000006</ele><time>2026-04-19T12:09:00.001Z</time></trkpt><trkpt lat="43.4102793864822" lon="10.70634602365777"><ele>503.0</ele><time>2026-04-19T12:09:04.001Z</time></trkpt><trkpt lat="43.41021626412623" lon="10.706341530126691"><ele>503.0</ele><time>2026-04-19T12:09:07.001Z</time></trkpt><trkpt lat="43.41014832153059" lon="10.706344736748834"><ele>503.00000000000006</ele><time>2026-04-19T12:09:10.001Z</time></trkpt><trkpt lat="43.410054079618085" lon="10.706339303276234"><ele>503.0</ele><time>2026-04-19T12:09:13.001Z</time></trkpt><trkpt lat="43.409991520763576" lon="10.706363561908862"><ele>503.0</ele><time>2026-04-19T12:09:16.001Z</time></trkpt><trkpt lat="43.40991034504823" lon="10.706389585417195"><ele>502.99999999999994</ele><time>2026-04-19T12:09:20.001Z</time></trkpt><trkpt lat="43.40985001017853" lon="10.706427809833912"><ele>503.0</ele><time>2026-04-19T12:09:24.002Z</time></trkpt><trkpt lat="43.40978364023856" lon="10.70646934472648"><ele>503.0</ele><time>2026-04-19T12:09:28.002Z</time></trkpt><trkpt lat="43.4097389594353" lon="10.706533664671865"><ele>503.0</ele><time>2026-04-19T12:09:42.002Z</time></trkpt><trkpt lat="43.40968607841613" lon="10.706609745975628"><ele>502.99999999999994</ele><time>2026-04-19T12:09:44.002Z</time></trkpt><trkpt lat="43.40965050966798" lon="10.70670676831861"><ele>503.0</ele><time>2026-04-19T12:09:47.002Z</time></trkpt><trkpt lat="43.409582468592916" lon="10.70678975793261"><ele>503.42857142857144</ele><time>2026-04-19T12:09:50.002Z</time></trkpt><trkpt lat="43.40954166827083" lon="10.706860985863766"><ele>503.8571428571429</ele><time>2026-04-19T12:10:14.003Z</time></trkpt><trkpt lat="43.40949054036453" lon="10.70692410196013"><ele>504.28571428571433</ele><time>2026-04-19T12:10:20.003Z</time></trkpt><trkpt lat="43.40943022826684" lon="10.70699299934106"><ele>504.7142857142858</ele><time>2026-04-19T12:10:26Z</time></trkpt><trkpt lat="43.409356229446296" lon="10.707038688759136"><ele>505.14285714285717</ele><time>2026-04-19T12:10:30Z</time></trkpt><trkpt lat="43.409305341624936" lon="10.707098789734335"><ele>505.57142857142867</ele><time>2026-04-19T12:10:43Z</time></trkpt><trkpt lat="43.4092352869125" lon="10.707153413589229"><ele>506.00000000000006</ele><time>2026-04-19T12:10:46Z</time></trkpt><trkpt lat="43.40919124430172" lon="10.707247084648927"><ele>506.00000000000006</ele><time>2026-04-19T12:10:50Z</time></trkpt><trkpt lat="43.40916534524055" lon="10.707328483874937"><ele>506.0</ele><time>2026-04-19T12:10:55.001Z</time></trkpt><trkpt lat="43.40913444312218" lon="10.70742100995313"><ele>506.00000000000006</ele><time>2026-04-19T12:11:00.001Z</time></trkpt><trkpt lat="43.409110144078106" lon="10.707522976654031"><ele>506.00000000000006</ele><time>2026-04-19T12:11:06.001Z</time></trkpt><trkpt lat="43.40909723185201" lon="10.707608695355765"><ele>506.0</ele><time>2026-04-19T12:11:10.001Z</time></trkpt><trkpt lat="43.40909507452241" lon="10.707708328408023"><ele>506.00000000000006</ele><time>2026-04-19T12:11:15.001Z</time></trkpt><trkpt lat="43.40908623090069" lon="10.70779556056211"><ele>506.00000000000006</ele><time>2026-04-19T12:11:20.001Z</time></trkpt><trkpt lat="43.40907082684453" lon="10.707901834420163"><ele>505.28571428571433</ele><time>2026-04-19T12:11:25.002Z</time></trkpt><trkpt lat="43.409065439171286" lon="10.707996759923482"><ele>504.57142857142856</ele><time>2026-04-19T12:11:29.002Z</time></trkpt><trkpt lat="43.40905804173937" lon="10.708093639113807"><ele>503.8571428571429</ele><time>2026-04-19T12:11:33.002Z</time></trkpt><trkpt lat="43.40904671423031" lon="10.708196593013833"><ele>503.14285714285717</ele><time>2026-04-19T12:11:38.002Z</time></trkpt><trkpt lat="43.40904385577962" lon="10.708288072422022"><ele>502.42857142857144</ele><time>2026-04-19T12:11:47.002Z</time></trkpt><trkpt lat="43.40903259095979" lon="10.708381658386726"><ele>501.7142857142857</ele><time>2026-04-19T12:11:56.002Z</time></trkpt><trkpt lat="43.40905507636526" lon="10.708471001952534"><ele>501.0</ele><time>2026-04-19T12:12:09.003Z</time></trkpt><trkpt lat="43.40907677884588" lon="10.708560730585686"><ele>500.57142857142856</ele><time>2026-04-19T12:12:15.003Z</time></trkpt><trkpt lat="43.409091214018396" lon="10.708650237205092"><ele>500.1428571428571</ele><time>2026-04-19T12:12:19.003Z</time></trkpt><trkpt lat="43.409115927256074" lon="10.708742080974384"><ele>499.71428571428567</ele><time>2026-04-19T12:12:24.003Z</time></trkpt><trkpt lat="43.409146093600015" lon="10.708868966315332"><ele>499.2857142857143</ele><time>2026-04-19T12:12:50Z</time></trkpt><trkpt lat="43.409157215722516" lon="10.708958782333282"><ele>498.8571428571428</ele><time>2026-04-19T12:12:53Z</time></trkpt><trkpt lat="43.40916633149277" lon="10.70905579894847"><ele>498.4285714285714</ele><time>2026-04-19T12:12:57.001Z</time></trkpt><trkpt lat="43.409178766695284" lon="10.709160189186116"><ele>498.0</ele><time>2026-04-19T12:13:03.001Z</time></trkpt><trkpt lat="43.40919130092696" lon="10.709264094380028"><ele>498.0</ele><time>2026-04-19T12:13:06.001Z</time></trkpt><trkpt lat="43.4091737504416" lon="10.709352285313178"><ele>497.99999999999994</ele><time>2026-04-19T12:13:08.001Z</time></trkpt><trkpt lat="43.409149092895944" lon="10.70944965810767"><ele>498.0</ele><time>2026-04-19T12:13:10.001Z</time></trkpt><trkpt lat="43.40912396489941" lon="10.7095395583413"><ele>498.0</ele><time>2026-04-19T12:13:12.001Z</time></trkpt><trkpt lat="43.40910232177228" lon="10.709622743116897"><ele>497.99999999999994</ele><time>2026-04-19T12:13:15.001Z</time></trkpt><trkpt lat="43.4090756944602" lon="10.709709756597638"><ele>498.0</ele><time>2026-04-19T12:13:17.001Z</time></trkpt><trkpt lat="43.40904855509132" lon="10.709804812790553"><ele>498.0</ele><time>2026-04-19T12:13:19.001Z</time></trkpt><trkpt lat="43.40902135907003" lon="10.709897606878133"><ele>497.4285714285714</ele><time>2026-04-19T12:13:21.001Z</time></trkpt><trkpt lat="43.408989536795744" lon="10.709991943594222"><ele>496.8571428571428</ele><time>2026-04-19T12:13:23.001Z</time></trkpt><trkpt lat="43.40895647741229" lon="10.710090011286562"><ele>496.2857142857143</ele><time>2026-04-19T12:13:25.001Z</time></trkpt><trkpt lat="43.40892969973224" lon="10.710183867559145"><ele>495.71428571428567</ele><time>2026-04-19T12:13:28.001Z</time></trkpt><trkpt lat="43.40891541019643" lon="10.7102765794055"><ele>495.1428571428571</ele><time>2026-04-19T12:13:30.002Z</time></trkpt><trkpt lat="43.40889850110704" lon="10.710367961688446"><ele>494.57142857142856</ele><time>2026-04-19T12:13:32.002Z</time></trkpt><trkpt lat="43.40887929130647" lon="10.710469475173632"><ele>494.0</ele><time>2026-04-19T12:13:34.002Z</time></trkpt><trkpt lat="43.4088566068244" lon="10.710576125189267"><ele>494.49999999999994</ele><time>2026-04-19T12:13:36.002Z</time></trkpt><trkpt lat="43.40881981268736" lon="10.710669933276952"><ele>495.0</ele><time>2026-04-19T12:13:38.002Z</time></trkpt><trkpt lat="43.408773543010945" lon="10.710757742029012"><ele>495.5</ele><time>2026-04-19T12:13:40.002Z</time></trkpt><trkpt lat="43.408720304351036" lon="10.710843397239321"><ele>496.0</ele><time>2026-04-19T12:13:42.002Z</time></trkpt><trkpt lat="43.40864292044019" lon="10.710902327215262"><ele>496.49999999999994</ele><time>2026-04-19T12:13:44.002Z</time></trkpt><trkpt lat="43.40854878670133" lon="10.710935100771769"><ele>497.0</ele><time>2026-04-19T12:13:46.002Z</time></trkpt><trkpt lat="43.40844891793146" lon="10.710949647749326"><ele>496.99999999999994</ele><time>2026-04-19T12:13:48.002Z</time></trkpt><trkpt lat="43.40836752586544" lon="10.710987950009219"><ele>497.0</ele><time>2026-04-19T12:13:50.002Z</time></trkpt><trkpt lat="43.40830105734007" lon="10.71105064051121"><ele>497.0</ele><time>2026-04-19T12:13:52.002Z</time></trkpt><trkpt lat="43.40822538636921" lon="10.711092520640996"><ele>497.0</ele><time>2026-04-19T12:13:54.002Z</time></trkpt><trkpt lat="43.40814758686654" lon="10.711109637523728"><ele>496.99999999999994</ele><time>2026-04-19T12:13:56.002Z</time></trkpt><trkpt lat="43.408087115476725" lon="10.711142017017911"><ele>497.0</ele><time>2026-04-19T12:13:58.002Z</time></trkpt><trkpt lat="43.4080041309079" lon="10.711186724070838"><ele>496.3333333333333</ele><time>2026-04-19T12:14:01.002Z</time></trkpt><trkpt lat="43.40793857953822" lon="10.711208276573513"><ele>495.66666666666663</ele><time>2026-04-19T12:14:03.002Z</time></trkpt><trkpt lat="43.40785389080761" lon="10.71123034317004"><ele>495.0</ele><time>2026-04-19T12:14:05.003Z</time></trkpt><trkpt lat="43.4077792853779" lon="10.71126776463453"><ele>494.33333333333337</ele><time>2026-04-19T12:14:07.003Z</time></trkpt><trkpt lat="43.40768927169817" lon="10.711317957420903"><ele>493.6666666666667</ele><time>2026-04-19T12:14:09.003Z</time></trkpt><trkpt lat="43.40759615622732" lon="10.711370059905638"><ele>493.0</ele><time>2026-04-19T12:14:11.003Z</time></trkpt><trkpt lat="43.407513632472025" lon="10.711421940357123"><ele>493.0</ele><time>2026-04-19T12:14:13.003Z</time></trkpt><trkpt lat="43.40744433877234" lon="10.711458891702305"><ele>493.0</ele><time>2026-04-19T12:14:15.003Z</time></trkpt><trkpt lat="43.407370588961506" lon="10.711469489915263"><ele>493.0</ele><time>2026-04-19T12:14:17.003Z</time></trkpt><trkpt lat="43.407290423451656" lon="10.711460946917564"><ele>493.0</ele><time>2026-04-19T12:14:19.003Z</time></trkpt><trkpt lat="43.407223051603914" lon="10.711440575261307"><ele>493.0</ele><time>2026-04-19T12:14:21.003Z</time></trkpt><trkpt lat="43.407151402636615" lon="10.711445289439034"><ele>493.0</ele><time>2026-04-19T12:14:23.003Z</time></trkpt><trkpt lat="43.407078326558256" lon="10.711475391618242"><ele>493.0</ele><time>2026-04-19T12:14:26.003Z</time></trkpt><trkpt lat="43.40701003282973" lon="10.711537464566925"><ele>495.1428571428571</ele><time>2026-04-19T12:14:29.003Z</time></trkpt><trkpt lat="43.40695730763571" lon="10.71158566315438"><ele>497.28571428571433</ele><time>2026-04-19T12:14:31.003Z</time></trkpt><trkpt lat="43.40688262094545" lon="10.71162746330549"><ele>499.42857142857144</ele><time>2026-04-19T12:14:33.003Z</time></trkpt><trkpt lat="43.40681841426919" lon="10.7116859822655"><ele>501.57142857142856</ele><time>2026-04-19T12:14:35.003Z</time></trkpt><trkpt lat="43.40673331924589" lon="10.711737554298601"><ele>503.71428571428567</ele><time>2026-04-19T12:14:38.002Z</time></trkpt><trkpt lat="43.40667207349762" lon="10.711770115240325"><ele>505.8571428571429</ele><time>2026-04-19T12:14:40.002Z</time></trkpt><trkpt lat="43.40662236573998" lon="10.711827346209326"><ele>508.0</ele><time>2026-04-19T12:14:42.002Z</time></trkpt><trkpt lat="43.40655040338668" lon="10.711891767397887"><ele>509.0</ele><time>2026-04-19T12:14:45.002Z</time></trkpt><trkpt lat="43.40649374344845" lon="10.711937031413775"><ele>510.0</ele><time>2026-04-19T12:14:47.002Z</time></trkpt><trkpt lat="43.40643705126057" lon="10.711995346492735"><ele>511.0</ele><time>2026-04-19T12:14:49.002Z</time></trkpt><trkpt lat="43.40638806065739" lon="10.71207238158469"><ele>512.0</ele><time>2026-04-19T12:14:51.002Z</time></trkpt><trkpt lat="43.40633941351506" lon="10.712153316629559"><ele>513.0</ele><time>2026-04-19T12:14:53.002Z</time></trkpt><trkpt lat="43.40630791714894" lon="10.712245017859008"><ele>514.0</ele><time>2026-04-19T12:14:55.002Z</time></trkpt><trkpt lat="43.406282269438236" lon="10.712342356551149"><ele>515.0</ele><time>2026-04-19T12:14:57.002Z</time></trkpt><trkpt lat="43.40623677183147" lon="10.712467462311126"><ele>515.0</ele><time>2026-04-19T12:14:59.002Z</time></trkpt><trkpt lat="43.406194339234084" lon="10.712590776821944"><ele>515.0</ele><time>2026-04-19T12:15:01.001Z</time></trkpt><trkpt lat="43.40615582147253" lon="10.712687721971694"><ele>515.0</ele><time>2026-04-19T12:15:03.001Z</time></trkpt><trkpt lat="43.406102979521606" lon="10.712779967490727"><ele>515.0</ele><time>2026-04-19T12:15:06.001Z</time></trkpt><trkpt lat="43.40605475494519" lon="10.71284424265165"><ele>515.0</ele><time>2026-04-19T12:15:09.001Z</time></trkpt><trkpt lat="43.405992674618176" lon="10.712915757267169"><ele>515.0</ele><time>2026-04-19T12:15:12.001Z</time></trkpt><trkpt lat="43.40592937561591" lon="10.713001686886749"><ele>513.5714285714286</ele><time>2026-04-19T12:15:15.001Z</time></trkpt><trkpt lat="43.40589935245839" lon="10.713085899819252"><ele>512.1428571428571</ele><time>2026-04-19T12:15:17.001Z</time></trkpt><trkpt lat="43.40585048404462" lon="10.7131923044193"><ele>510.71428571428567</ele><time>2026-04-19T12:15:20.001Z</time></trkpt><trkpt lat="43.40582514106393" lon="10.713276258179633"><ele>509.2857142857143</ele><time>2026-04-19T12:15:22.001Z</time></trkpt><trkpt lat="43.40580744904749" lon="10.713366617543088"><ele>507.8571428571428</ele><time>2026-04-19T12:15:24.002Z</time></trkpt><trkpt lat="43.40578418316836" lon="10.713462953598494"><ele>506.4285714285714</ele><time>2026-04-19T12:15:26.002Z</time></trkpt><trkpt lat="43.40574849646079" lon="10.713552836584187"><ele>505.0</ele><time>2026-04-19T12:15:28.002Z</time></trkpt><trkpt lat="43.405703231488125" lon="10.713636352613591"><ele>503.33333333333337</ele><time>2026-04-19T12:15:30.002Z</time></trkpt><trkpt lat="43.40566103182967" lon="10.713724725780851"><ele>501.6666666666667</ele><time>2026-04-19T12:15:32.002Z</time></trkpt><trkpt lat="43.40562584627404" lon="10.713812828285663"><ele>500.0</ele><time>2026-04-19T12:15:34.002Z</time></trkpt><trkpt lat="43.40559549550444" lon="10.713894375153437"><ele>498.33333333333337</ele><time>2026-04-19T12:15:36.002Z</time></trkpt><trkpt lat="43.405552196366045" lon="10.713996603818416"><ele>496.6666666666667</ele><time>2026-04-19T12:15:38.002Z</time></trkpt><trkpt lat="43.40551305972021" lon="10.714120488373185"><ele>495.0</ele><time>2026-04-19T12:15:40.002Z</time></trkpt><trkpt lat="43.40547182882906" lon="10.714240044810396"><ele>498.8333333333333</ele><time>2026-04-19T12:15:42.002Z</time></trkpt><trkpt lat="43.40544680122307" lon="10.714339628928037"><ele>502.66666666666663</ele><time>2026-04-19T12:15:44.002Z</time></trkpt><trkpt lat="43.40543153766864" lon="10.71445833808024"><ele>506.5</ele><time>2026-04-19T12:15:46.002Z</time></trkpt><trkpt lat="43.405426155998875" lon="10.71458085449792"><ele>510.3333333333333</ele><time>2026-04-19T12:15:48.002Z</time></trkpt><trkpt lat="43.405415481024875" lon="10.714695792307952"><ele>514.1666666666666</ele><time>2026-04-19T12:15:50.002Z</time></trkpt><trkpt lat="43.40542756911223" lon="10.714805265110641"><ele>518.0</ele><time>2026-04-19T12:15:52.002Z</time></trkpt><trkpt lat="43.40541992372571" lon="10.71491282461935"><ele>518.0</ele><time>2026-04-19T12:15:54.002Z</time></trkpt><trkpt lat="43.40539086039355" lon="10.715069373967006"><ele>518.0</ele><time>2026-04-19T12:15:56.002Z</time></trkpt><trkpt lat="43.405373315875146" lon="10.715212687099365"><ele>518.0</ele><time>2026-04-19T12:15:58.002Z</time></trkpt><trkpt lat="43.40535143909747" lon="10.715325615794125"><ele>518.0</ele><time>2026-04-19T12:16:00.002Z</time></trkpt><trkpt lat="43.40533472540148" lon="10.715443684462848"><ele>518.0</ele><time>2026-04-19T12:16:02.002Z</time></trkpt><trkpt lat="43.405319562574675" lon="10.715534961173201"><ele>515.6666666666666</ele><time>2026-04-19T12:16:05.002Z</time></trkpt><trkpt lat="43.40529916644686" lon="10.715646682715148"><ele>513.3333333333333</ele><time>2026-04-19T12:16:07.002Z</time></trkpt><trkpt lat="43.40528113336581" lon="10.715791259167586"><ele>511.0</ele><time>2026-04-19T12:16:09.002Z</time></trkpt><trkpt lat="43.40526776057457" lon="10.71590933015731"><ele>508.66666666666663</ele><time>2026-04-19T12:16:11.002Z</time></trkpt><trkpt lat="43.40523891815979" lon="10.71601316876504"><ele>506.3333333333333</ele><time>2026-04-19T12:16:13.002Z</time></trkpt><trkpt lat="43.40518869946341" lon="10.716092090356533"><ele>504.0</ele><time>2026-04-19T12:16:15.002Z</time></trkpt><trkpt lat="43.40510045204913" lon="10.716138452520296"><ele>502.5</ele><time>2026-04-19T12:16:17.002Z</time></trkpt><trkpt lat="43.40498569549254" lon="10.71615845278974"><ele>501.0</ele><time>2026-04-19T12:16:19.003Z</time></trkpt><trkpt lat="43.40492203459479" lon="10.716183363659892"><ele>499.5</ele><time>2026-04-19T12:16:20.003Z</time></trkpt><trkpt lat="43.40485728750688" lon="10.716221190721523"><ele>498.0</ele><time>2026-04-19T12:16:21.003Z</time></trkpt><trkpt lat="43.40478858746299" lon="10.71625594710686"><ele>496.5</ele><time>2026-04-19T12:16:22.003Z</time></trkpt><trkpt lat="43.404706837107696" lon="10.71629376687261"><ele>495.0</ele><time>2026-04-19T12:16:23.003Z</time></trkpt><trkpt lat="43.40463375230093" lon="10.716327138794254"><ele>495.0</ele><time>2026-04-19T12:16:24.003Z</time></trkpt><trkpt lat="43.40452959962125" lon="10.716402648185744"><ele>495.0</ele><time>2026-04-19T12:16:26.003Z</time></trkpt><trkpt lat="43.40442798457578" lon="10.716461144681512"><ele>495.0</ele><time>2026-04-19T12:16:28.003Z</time></trkpt><trkpt lat="43.40435653210106" lon="10.716497782382616"><ele>495.0</ele><time>2026-04-19T12:16:30.003Z</time></trkpt><trkpt lat="43.40427259983824" lon="10.71653318204127"><ele>495.0</ele><time>2026-04-19T12:16:32.003Z</time></trkpt><trkpt lat="43.404182145528445" lon="10.716559738938917"><ele>495.0</ele><time>2026-04-19T12:16:34.003Z</time></trkpt><trkpt lat="43.40410147161578" lon="10.716617860998575"><ele>495.0</ele><time>2026-04-19T12:16:36.003Z</time></trkpt><trkpt lat="43.40404647294274" lon="10.716703398111342"><ele>495.0</ele><time>2026-04-19T12:16:38.003Z</time></trkpt><trkpt lat="43.404014010282715" lon="10.716814987677632"><ele>495.0</ele><time>2026-04-19T12:16:40.003Z</time></trkpt><trkpt lat="43.40399421325936" lon="10.716936185634534"><ele>495.0</ele><time>2026-04-19T12:16:42.003Z</time></trkpt><trkpt lat="43.40399073014608" lon="10.717031396266226"><ele>495.0</ele><time>2026-04-19T12:16:44.003Z</time></trkpt><trkpt lat="43.40401268524406" lon="10.717145765525457"><ele>492.8333333333333</ele><time>2026-04-19T12:16:46.003Z</time></trkpt><trkpt lat="43.40399851758282" lon="10.717259238935414"><ele>490.66666666666663</ele><time>2026-04-19T12:16:48.003Z</time></trkpt><trkpt lat="43.40393893690254" lon="10.717305349536023"><ele>488.5</ele><time>2026-04-19T12:16:50.003Z</time></trkpt><trkpt lat="43.40386083462373" lon="10.717291137921004"><ele>486.3333333333333</ele><time>2026-04-19T12:16:53.002Z</time></trkpt><trkpt lat="43.403798488150315" lon="10.717250138340104"><ele>484.16666666666663</ele><time>2026-04-19T12:16:56.002Z</time></trkpt><trkpt lat="43.40373805664637" lon="10.717173099148498"><ele>482.0</ele><time>2026-04-19T12:16:59.002Z</time></trkpt><trkpt lat="43.40368357866897" lon="10.717075148277605"><ele>481.40000000000003</ele><time>2026-04-19T12:17:02.002Z</time></trkpt><trkpt lat="43.403635857177484" lon="10.716981614215142"><ele>480.80000000000007</ele><time>2026-04-19T12:17:04.002Z</time></trkpt><trkpt lat="43.40358359109319" lon="10.71686887217469"><ele>480.2</ele><time>2026-04-19T12:17:06.002Z</time></trkpt><trkpt lat="43.403540176608715" lon="10.716751484008629"><ele>479.6</ele><time>2026-04-19T12:17:08.002Z</time></trkpt><trkpt lat="43.40349301991399" lon="10.7166417930129"><ele>479.0</ele><time>2026-04-19T12:17:10.002Z</time></trkpt><trkpt lat="43.40342923113998" lon="10.716518248965215"><ele>481.16666666666663</ele><time>2026-04-19T12:17:12.002Z</time></trkpt><trkpt lat="43.40336604916703" lon="10.71636989841263"><ele>483.3333333333333</ele><time>2026-04-19T12:17:14.002Z</time></trkpt><trkpt lat="43.4033451961915" lon="10.716280913306147"><ele>485.5</ele><time>2026-04-19T12:17:15.002Z</time></trkpt><trkpt lat="43.40333281763201" lon="10.716188095567967"><ele>487.66666666666663</ele><time>2026-04-19T12:17:16.002Z</time></trkpt><trkpt lat="43.403324728771594" lon="10.716094985964379"><ele>489.8333333333333</ele><time>2026-04-19T12:17:17.002Z</time></trkpt><trkpt lat="43.403319849830766" lon="10.716004819041542"><ele>492.0</ele><time>2026-04-19T12:17:18.002Z</time></trkpt><trkpt lat="43.40329981122573" lon="10.71591661973662"><ele>494.1428571428572</ele><time>2026-04-19T12:17:19.002Z</time></trkpt><trkpt lat="43.40327024033032" lon="10.715834174631116"><ele>496.28571428571433</ele><time>2026-04-19T12:17:20.002Z</time></trkpt><trkpt lat="43.40324032880245" lon="10.715754788822268"><ele>498.42857142857144</ele><time>2026-04-19T12:17:21.002Z</time></trkpt><trkpt lat="43.40320521429799" lon="10.71567267751318"><ele>500.5714285714286</ele><time>2026-04-19T12:17:22.002Z</time></trkpt><trkpt lat="43.40316889051754" lon="10.715586607051728"><ele>502.7142857142858</ele><time>2026-04-19T12:17:23.002Z</time></trkpt><trkpt lat="43.403150075712965" lon="10.715488541375388"><ele>504.85714285714283</ele><time>2026-04-19T12:17:24.002Z</time></trkpt><trkpt lat="43.403138536299494" lon="10.715389109891145"><ele>507.0</ele><time>2026-04-19T12:17:25.002Z</time></trkpt><trkpt lat="43.40313842712113" lon="10.715287362376358"><ele>509.0</ele><time>2026-04-19T12:17:26.002Z</time></trkpt><trkpt lat="43.40314366007262" lon="10.715188262836392"><ele>511.0</ele><time>2026-04-19T12:17:27.002Z</time></trkpt><trkpt lat="43.403162716618965" lon="10.715080346118075"><ele>513.0</ele><time>2026-04-19T12:17:28.002Z</time></trkpt><trkpt lat="43.40318362398558" lon="10.71497026711201"><ele>515.0</ele><time>2026-04-19T12:17:29.002Z</time></trkpt><trkpt lat="43.403191613284186" lon="10.714853161213886"><ele>517.0</ele><time>2026-04-19T12:17:30.002Z</time></trkpt><trkpt lat="43.40318459514893" lon="10.714742383553865"><ele>519.0</ele><time>2026-04-19T12:17:31.002Z</time></trkpt><trkpt lat="43.40317684381661" lon="10.714630920720099"><ele>519.0</ele><time>2026-04-19T12:17:32.002Z</time></trkpt><trkpt lat="43.40316832776727" lon="10.714513019404478"><ele>519.0</ele><time>2026-04-19T12:17:33.002Z</time></trkpt><trkpt lat="43.40315272150677" lon="10.71439626732664"><ele>519.0</ele><time>2026-04-19T12:17:34.002Z</time></trkpt><trkpt lat="43.40311591757818" lon="10.71428298073276"><ele>519.0</ele><time>2026-04-19T12:17:35.002Z</time></trkpt><trkpt lat="43.40307905321792" lon="10.714163792404882"><ele>519.0</ele><time>2026-04-19T12:17:36.002Z</time></trkpt><trkpt lat="43.4030417042724" lon="10.71404191529688"><ele>517.8333333333334</ele><time>2026-04-19T12:17:37.002Z</time></trkpt><trkpt lat="43.40300668378802" lon="10.713922052520703"><ele>516.6666666666666</ele><time>2026-04-19T12:17:38.002Z</time></trkpt><trkpt lat="43.40296975226801" lon="10.71380534973085"><ele>515.5</ele><time>2026-04-19T12:17:39.002Z</time></trkpt><trkpt lat="43.40292304218002" lon="10.713708016498401"><ele>514.3333333333333</ele><time>2026-04-19T12:17:40.002Z</time></trkpt><trkpt lat="43.402878448552876" lon="10.713615100579371"><ele>513.1666666666666</ele><time>2026-04-19T12:17:41.002Z</time></trkpt><trkpt lat="43.40284070805955" lon="10.713531443741484"><ele>512.0</ele><time>2026-04-19T12:17:42.002Z</time></trkpt><trkpt lat="43.40280683031557" lon="10.713451430506394"><ele>514.3333333333333</ele><time>2026-04-19T12:17:43.002Z</time></trkpt><trkpt lat="43.40277280410485" lon="10.713366405645921"><ele>516.6666666666666</ele><time>2026-04-19T12:17:44.002Z</time></trkpt><trkpt lat="43.402742267711226" lon="10.713273264704936"><ele>519.0</ele><time>2026-04-19T12:17:45.002Z</time></trkpt><trkpt lat="43.40271479248945" lon="10.713180243000204"><ele>521.3333333333334</ele><time>2026-04-19T12:17:46.002Z</time></trkpt><trkpt lat="43.4026913865617" lon="10.713091760759024"><ele>523.6666666666667</ele><time>2026-04-19T12:17:47.002Z</time></trkpt><trkpt lat="43.40267730589072" lon="10.713004750781623"><ele>526.0</ele><time>2026-04-19T12:17:48.002Z</time></trkpt><trkpt lat="43.40265605022484" lon="10.712848945438342"><ele>528.6666666666667</ele><time>2026-04-19T12:17:50.002Z</time></trkpt><trkpt lat="43.402602037603806" lon="10.712715540438824"><ele>531.3333333333334</ele><time>2026-04-19T12:17:52.002Z</time></trkpt><trkpt lat="43.4025522581668" lon="10.712655551814528"><ele>534.0</ele><time>2026-04-19T12:17:53.002Z</time></trkpt><trkpt lat="43.40249170213212" lon="10.712585157158022"><ele>536.6666666666666</ele><time>2026-04-19T12:17:54.002Z</time></trkpt><trkpt lat="43.40242874478073" lon="10.712518222661329"><ele>539.3333333333333</ele><time>2026-04-19T12:17:55.002Z</time></trkpt><trkpt lat="43.402363700052966" lon="10.712442847142773"><ele>542.0</ele><time>2026-04-19T12:17:56.002Z</time></trkpt><trkpt lat="43.40229417823835" lon="10.712371506975185"><ele>542.0</ele><time>2026-04-19T12:17:57.002Z</time></trkpt><trkpt lat="43.402213575958626" lon="10.71232566831764"><ele>542.0</ele><time>2026-04-19T12:17:58.002Z</time></trkpt><trkpt lat="43.40213407870519" lon="10.712294573176736"><ele>542.0</ele><time>2026-04-19T12:17:59.002Z</time></trkpt><trkpt lat="43.402054454660444" lon="10.712284568401023"><ele>542.0</ele><time>2026-04-19T12:18:00.002Z</time></trkpt><trkpt lat="43.4019695041721" lon="10.712284316563393"><ele>542.0</ele><time>2026-04-19T12:18:01.002Z</time></trkpt><trkpt lat="43.40189127650245" lon="10.712285982049394"><ele>542.0</ele><time>2026-04-19T12:18:02.002Z</time></trkpt><trkpt lat="43.40181330486922" lon="10.712284158812105"><ele>542.1666666666666</ele><time>2026-04-19T12:18:03.002Z</time></trkpt><trkpt lat="43.40174048711933" lon="10.712275308456364"><ele>542.3333333333333</ele><time>2026-04-19T12:18:04.002Z</time></trkpt><trkpt lat="43.4016585874242" lon="10.712257529195455"><ele>542.5</ele><time>2026-04-19T12:18:05.002Z</time></trkpt><trkpt lat="43.401581954483646" lon="10.712243767249198"><ele>542.6666666666666</ele><time>2026-04-19T12:18:06.002Z</time></trkpt><trkpt lat="43.40149578800216" lon="10.712229588672225"><ele>542.8333333333334</ele><time>2026-04-19T12:18:07.002Z</time></trkpt><trkpt lat="43.40141041875751" lon="10.712220302181812"><ele>543.0</ele><time>2026-04-19T12:18:08.002Z</time></trkpt><trkpt lat="43.40131937592818" lon="10.712217345510464"><ele>543.0</ele><time>2026-04-19T12:18:09.002Z</time></trkpt><trkpt lat="43.40122251257365" lon="10.712211192850924"><ele>543.0</ele><time>2026-04-19T12:18:10.002Z</time></trkpt><trkpt lat="43.40112998586544" lon="10.71220903649625"><ele>543.0</ele><time>2026-04-19T12:18:11.002Z</time></trkpt><trkpt lat="43.40104688519677" lon="10.712234851619792"><ele>543.0</ele><time>2026-04-19T12:18:12.002Z</time></trkpt><trkpt lat="43.40097281628205" lon="10.712266261468333"><ele>543.0</ele><time>2026-04-19T12:18:13.002Z</time></trkpt><trkpt lat="43.40090256273492" lon="10.712296100523279"><ele>543.0</ele><time>2026-04-19T12:18:14.002Z</time></trkpt><trkpt lat="43.400830412794804" lon="10.712333024522188"><ele>543.0</ele><time>2026-04-19T12:18:15.002Z</time></trkpt><trkpt lat="43.40076189716997" lon="10.71236899085888"><ele>543.0</ele><time>2026-04-19T12:18:16.002Z</time></trkpt><trkpt lat="43.400688821877274" lon="10.712398288874875"><ele>543.0</ele><time>2026-04-19T12:18:17.002Z</time></trkpt><trkpt lat="43.40061135314437" lon="10.712422925225708"><ele>543.0</ele><time>2026-04-19T12:18:18.002Z</time></trkpt><trkpt lat="43.40053212347245" lon="10.712447597397057"><ele>543.0</ele><time>2026-04-19T12:18:19.002Z</time></trkpt><trkpt lat="43.40044756251296" lon="10.712471711573237"><ele>543.0</ele><time>2026-04-19T12:18:20.002Z</time></trkpt><trkpt lat="43.40036397652842" lon="10.71251966425418"><ele>543.0</ele><time>2026-04-19T12:18:21.002Z</time></trkpt><trkpt lat="43.400283921357705" lon="10.712571205824258"><ele>543.0</ele><time>2026-04-19T12:18:22.002Z</time></trkpt><trkpt lat="43.400207181219876" lon="10.712606887201693"><ele>543.0</ele><time>2026-04-19T12:18:23.002Z</time></trkpt><trkpt lat="43.40012488012279" lon="10.712629659881586"><ele>543.0</ele><time>2026-04-19T12:18:24.002Z</time></trkpt><trkpt lat="43.4000417034696" lon="10.712646910743153"><ele>543.0</ele><time>2026-04-19T12:18:25.002Z</time></trkpt><trkpt lat="43.399961568157984" lon="10.712688396696626"><ele>543.0</ele><time>2026-04-19T12:18:26.002Z</time></trkpt><trkpt lat="43.39988057969731" lon="10.712745239012753"><ele>543.8333333333334</ele><time>2026-04-19T12:18:27.002Z</time></trkpt><trkpt lat="43.399799416257586" lon="10.712799069063182"><ele>544.6666666666666</ele><time>2026-04-19T12:18:28.002Z</time></trkpt><trkpt lat="43.39971329397082" lon="10.712842760723937"><ele>545.5</ele><time>2026-04-19T12:18:29.002Z</time></trkpt><trkpt lat="43.39962601548416" lon="10.712873097902714"><ele>546.3333333333333</ele><time>2026-04-19T12:18:30.002Z</time></trkpt><trkpt lat="43.399546264438364" lon="10.712891493437892"><ele>547.1666666666666</ele><time>2026-04-19T12:18:31.002Z</time></trkpt><trkpt lat="43.399480581764685" lon="10.712916817736865"><ele>548.0</ele><time>2026-04-19T12:18:32.002Z</time></trkpt><trkpt lat="43.399424253809364" lon="10.712969972257632"><ele>548.0</ele><time>2026-04-19T12:18:33.002Z</time></trkpt><trkpt lat="43.399380080501004" lon="10.71305443608674"><ele>548.0</ele><time>2026-04-19T12:18:34.002Z</time></trkpt><trkpt lat="43.39934208513502" lon="10.713160534455206"><ele>548.0</ele><time>2026-04-19T12:18:35.002Z</time></trkpt><trkpt lat="43.39929966327788" lon="10.713266882679974"><ele>548.0</ele><time>2026-04-19T12:18:36.002Z</time></trkpt><trkpt lat="43.39923522464626" lon="10.713352035930473"><ele>548.0</ele><time>2026-04-19T12:18:37.002Z</time></trkpt><trkpt lat="43.39916842635185" lon="10.713421219386168"><ele>548.0</ele><time>2026-04-19T12:18:38.002Z</time></trkpt><trkpt lat="43.39910268963668" lon="10.71348589305745"><ele>548.0000000000001</ele><time>2026-04-19T12:18:39.002Z</time></trkpt><trkpt lat="43.399036630227414" lon="10.713540515476291"><ele>548.0</ele><time>2026-04-19T12:18:40.002Z</time></trkpt><trkpt lat="43.398973832439296" lon="10.713591485689927"><ele>548.0</ele><time>2026-04-19T12:18:41.002Z</time></trkpt><trkpt lat="43.39891292657796" lon="10.713643347771315"><ele>548.0</ele><time>2026-04-19T12:18:42.002Z</time></trkpt><trkpt lat="43.39885553089139" lon="10.713698906807165"><ele>548.0</ele><time>2026-04-19T12:18:43.003Z</time></trkpt><trkpt lat="43.39879767321928" lon="10.713753392869704"><ele>548.0000000000001</ele><time>2026-04-19T12:18:44.003Z</time></trkpt><trkpt lat="43.39873849377874" lon="10.713813495082569"><ele>548.0</ele><time>2026-04-19T12:18:45.003Z</time></trkpt><trkpt lat="43.39869334935305" lon="10.713896120729412"><ele>547.1666666666666</ele><time>2026-04-19T12:18:46.003Z</time></trkpt><trkpt lat="43.398651893096805" lon="10.71397566873929"><ele>546.3333333333333</ele><time>2026-04-19T12:18:47.003Z</time></trkpt><trkpt lat="43.39860949071052" lon="10.71406966340512"><ele>545.5</ele><time>2026-04-19T12:18:48.003Z</time></trkpt><trkpt lat="43.39857161456995" lon="10.714160617622058"><ele>544.6666666666666</ele><time>2026-04-19T12:18:49.003Z</time></trkpt><trkpt lat="43.39853654836726" lon="10.714253968131093"><ele>543.8333333333334</ele><time>2026-04-19T12:18:50.002Z</time></trkpt><trkpt lat="43.39849223751886" lon="10.714341228478439"><ele>543.0</ele><time>2026-04-19T12:18:51.002Z</time></trkpt><trkpt lat="43.39843585727544" lon="10.714417154033383"><ele>543.0</ele><time>2026-04-19T12:18:52.002Z</time></trkpt><trkpt lat="43.39838098509258" lon="10.71448551473113"><ele>543.0</ele><time>2026-04-19T12:18:53.002Z</time></trkpt><trkpt lat="43.398317996424716" lon="10.714541828048022"><ele>543.0</ele><time>2026-04-19T12:18:54.002Z</time></trkpt><trkpt lat="43.398255363415714" lon="10.71459242498403"><ele>543.0</ele><time>2026-04-19T12:18:55.002Z</time></trkpt><trkpt lat="43.39818688562293" lon="10.714636719189409"><ele>543.0</ele><time>2026-04-19T12:18:56.002Z</time></trkpt><trkpt lat="43.398113709782386" lon="10.714686341513444"><ele>543.0</ele><time>2026-04-19T12:18:57.002Z</time></trkpt><trkpt lat="43.3980493662991" lon="10.714741360020115"><ele>544.8333333333334</ele><time>2026-04-19T12:18:58.002Z</time></trkpt><trkpt lat="43.397989263754035" lon="10.71479370964151"><ele>546.6666666666666</ele><time>2026-04-19T12:18:59.002Z</time></trkpt><trkpt lat="43.39792180627138" lon="10.714844254578514"><ele>548.5</ele><time>2026-04-19T12:19:00.002Z</time></trkpt><trkpt lat="43.39783915135061" lon="10.714888199698033"><ele>550.3333333333333</ele><time>2026-04-19T12:19:01.002Z</time></trkpt><trkpt lat="43.397756718739586" lon="10.714914511144702"><ele>552.1666666666666</ele><time>2026-04-19T12:19:02.002Z</time></trkpt><trkpt lat="43.39766931392058" lon="10.714921552002531"><ele>554.0</ele><time>2026-04-19T12:19:03.002Z</time></trkpt><trkpt lat="43.39757381043471" lon="10.714936128965231"><ele>554.0</ele><time>2026-04-19T12:19:04.002Z</time></trkpt><trkpt lat="43.397481137804846" lon="10.714981563381063"><ele>554.0</ele><time>2026-04-19T12:19:05.002Z</time></trkpt><trkpt lat="43.39739348037216" lon="10.715026833179492"><ele>554.0</ele><time>2026-04-19T12:19:06.002Z</time></trkpt><trkpt lat="43.397302080172466" lon="10.715074157565079"><ele>554.0</ele><time>2026-04-19T12:19:07.002Z</time></trkpt><trkpt lat="43.397211339126926" lon="10.715122244997929"><ele>554.0</ele><time>2026-04-19T12:19:08.002Z</time></trkpt><trkpt lat="43.39712103921196" lon="10.715165868770997"><ele>554.0</ele><time>2026-04-19T12:19:09.002Z</time></trkpt><trkpt lat="43.39703822696144" lon="10.715205862385313"><ele>554.0</ele><time>2026-04-19T12:19:10.002Z</time></trkpt><trkpt lat="43.39695721585893" lon="10.715224273658887"><ele>554.0</ele><time>2026-04-19T12:19:11.002Z</time></trkpt><trkpt lat="43.3968741342455" lon="10.71521857543501"><ele>554.0</ele><time>2026-04-19T12:19:12.001Z</time></trkpt><trkpt lat="43.39678996207163" lon="10.715180398415107"><ele>554.0</ele><time>2026-04-19T12:19:13.001Z</time></trkpt><trkpt lat="43.39670900571159" lon="10.71512784015544"><ele>554.0</ele><time>2026-04-19T12:19:14.001Z</time></trkpt><trkpt lat="43.396554428943965" lon="10.714982850206843"><ele>554.0</ele><time>2026-04-19T12:19:16.001Z</time></trkpt><trkpt lat="43.39647867501383" lon="10.714897837789655"><ele>554.0</ele><time>2026-04-19T12:19:17.001Z</time></trkpt><trkpt lat="43.39640681112948" lon="10.71480774602394"><ele>554.0</ele><time>2026-04-19T12:19:18.001Z</time></trkpt><trkpt lat="43.396337221898854" lon="10.714718182637698"><ele>554.0</ele><time>2026-04-19T12:19:19.001Z</time></trkpt><trkpt lat="43.396268283030416" lon="10.714635306445224"><ele>554.0</ele><time>2026-04-19T12:19:20.001Z</time></trkpt><trkpt lat="43.39618399130882" lon="10.714570150505471"><ele>554.6</ele><time>2026-04-19T12:19:21.001Z</time></trkpt><trkpt lat="43.3960975701118" lon="10.714512483931175"><ele>555.2</ele><time>2026-04-19T12:19:22.001Z</time></trkpt><trkpt lat="43.39601162829043" lon="10.714446054272882"><ele>555.8000000000001</ele><time>2026-04-19T12:19:23.001Z</time></trkpt><trkpt lat="43.39592450834394" lon="10.714403943944937"><ele>556.4</ele><time>2026-04-19T12:19:24.001Z</time></trkpt><trkpt lat="43.395834689331274" lon="10.714373766851555"><ele>557.0</ele><time>2026-04-19T12:19:25.001Z</time></trkpt><trkpt lat="43.39571389202394" lon="10.714290804665698"><ele>557.0</ele><time>2026-04-19T12:19:26.001Z</time></trkpt><trkpt lat="43.39560719410614" lon="10.714242315293054"><ele>557.0</ele><time>2026-04-19T12:19:27.001Z</time></trkpt><trkpt lat="43.39550573959189" lon="10.714194433060632"><ele>557.0</ele><time>2026-04-19T12:19:28.001Z</time></trkpt><trkpt lat="43.39540618404496" lon="10.714161128585156"><ele>557.0</ele><time>2026-04-19T12:19:29.001Z</time></trkpt><trkpt lat="43.39530578399934" lon="10.714124225218667"><ele>557.0</ele><time>2026-04-19T12:19:30.001Z</time></trkpt><trkpt lat="43.39520407566055" lon="10.714081594918751"><ele>556.4</ele><time>2026-04-19T12:19:31.001Z</time></trkpt><trkpt lat="43.395092696624545" lon="10.714046170007938"><ele>555.8000000000001</ele><time>2026-04-19T12:19:32.001Z</time></trkpt><trkpt lat="43.394978032797695" lon="10.714026123042565"><ele>555.2</ele><time>2026-04-19T12:19:33.001Z</time></trkpt><trkpt lat="43.394873496072385" lon="10.713994844058174"><ele>554.6</ele><time>2026-04-19T12:19:34.001Z</time></trkpt><trkpt lat="43.39478008546787" lon="10.713960809556164"><ele>554.0</ele><time>2026-04-19T12:19:35.001Z</time></trkpt><trkpt lat="43.394710771843904" lon="10.713911704781122"><ele>553.5</ele><time>2026-04-19T12:19:36.001Z</time></trkpt><trkpt lat="43.39465203655667" lon="10.713880387756946"><ele>553.0</ele><time>2026-04-19T12:19:37.001Z</time></trkpt><trkpt lat="43.39458930118246" lon="10.713898917533854"><ele>552.5</ele><time>2026-04-19T12:19:38.001Z</time></trkpt><trkpt lat="43.394545338263214" lon="10.713973212995384"><ele>552.0</ele><time>2026-04-19T12:19:39.001Z</time></trkpt><trkpt lat="43.39451602471014" lon="10.71407774189411"><ele>551.5</ele><time>2026-04-19T12:19:40.001Z</time></trkpt><trkpt lat="43.39450055603012" lon="10.714211980040966"><ele>551.0</ele><time>2026-04-19T12:19:41.001Z</time></trkpt><trkpt lat="43.394472714815166" lon="10.714345381162776"><ele>551.0</ele><time>2026-04-19T12:19:42.001Z</time></trkpt><trkpt lat="43.39444466335162" lon="10.714475167612846"><ele>551.0</ele><time>2026-04-19T12:19:43.001Z</time></trkpt><trkpt lat="43.39441110126409" lon="10.714608486629853"><ele>551.0</ele><time>2026-04-19T12:19:44.001Z</time></trkpt><trkpt lat="43.39437877904302" lon="10.714728295453646"><ele>551.0</ele><time>2026-04-19T12:19:45.001Z</time></trkpt><trkpt lat="43.39435428411642" lon="10.714851248932616"><ele>551.0</ele><time>2026-04-19T12:19:46.001Z</time></trkpt><trkpt lat="43.394322917487656" lon="10.714959418070853"><ele>551.0</ele><time>2026-04-19T12:19:47.001Z</time></trkpt><trkpt lat="43.39428765151802" lon="10.71506380378386"><ele>551.0</ele><time>2026-04-19T12:19:48.001Z</time></trkpt><trkpt lat="43.39424247089015" lon="10.7151608726429"><ele>551.0</ele><time>2026-04-19T12:19:49.001Z</time></trkpt><trkpt lat="43.394179543521815" lon="10.715247577308777"><ele>551.0</ele><time>2026-04-19T12:19:50.001Z</time></trkpt><trkpt lat="43.394109186810724" lon="10.71533055297499"><ele>551.0</ele><time>2026-04-19T12:19:51.002Z</time></trkpt><trkpt lat="43.39403574956305" lon="10.71541156368438"><ele>551.0</ele><time>2026-04-19T12:19:52.002Z</time></trkpt><trkpt lat="43.393957145585524" lon="10.715494498962979"><ele>551.2</ele><time>2026-04-19T12:19:53.002Z</time></trkpt><trkpt lat="43.3938819977146" lon="10.715576876501554"><ele>551.4000000000001</ele><time>2026-04-19T12:19:54.002Z</time></trkpt><trkpt lat="43.39381171190564" lon="10.715659399013175"><ele>551.6</ele><time>2026-04-19T12:19:55.002Z</time></trkpt><trkpt lat="43.39374405946738" lon="10.715741900857529"><ele>551.8000000000001</ele><time>2026-04-19T12:19:56.002Z</time></trkpt><trkpt lat="43.39367881863779" lon="10.715816337020453"><ele>552.0</ele><time>2026-04-19T12:19:57.002Z</time></trkpt><trkpt lat="43.39361092210714" lon="10.715895591855215"><ele>553.0</ele><time>2026-04-19T12:19:58.002Z</time></trkpt><trkpt lat="43.393551849955855" lon="10.71598751009187"><ele>554.0</ele><time>2026-04-19T12:19:59.002Z</time></trkpt><trkpt lat="43.39350441074771" lon="10.716093134270768"><ele>555.0</ele><time>2026-04-19T12:20:00.002Z</time></trkpt><trkpt lat="43.3934679305976" lon="10.716211091082826"><ele>556.0</ele><time>2026-04-19T12:20:01.002Z</time></trkpt><trkpt lat="43.393444332210116" lon="10.716342793938471"><ele>557.0</ele><time>2026-04-19T12:20:02.002Z</time></trkpt><trkpt lat="43.39342816420855" lon="10.71648453628643"><ele>557.25</ele><time>2026-04-19T12:20:03.002Z</time></trkpt><trkpt lat="43.39341655596903" lon="10.71663623518917"><ele>557.5</ele><time>2026-04-19T12:20:04.002Z</time></trkpt><trkpt lat="43.393407004053884" lon="10.716795152575115"><ele>557.75</ele><time>2026-04-19T12:20:05.002Z</time></trkpt><trkpt lat="43.39339649389829" lon="10.71696163891569"><ele>558.0</ele><time>2026-04-19T12:20:06.002Z</time></trkpt><trkpt lat="43.39337686819705" lon="10.717128697157014"><ele>558.0</ele><time>2026-04-19T12:20:07.002Z</time></trkpt><trkpt lat="43.39335664943416" lon="10.71729836596163"><ele>558.0</ele><time>2026-04-19T12:20:08.002Z</time></trkpt><trkpt lat="43.39332908645166" lon="10.717465006931741"><ele>558.0</ele><time>2026-04-19T12:20:09.002Z</time></trkpt><trkpt lat="43.393285226314106" lon="10.71762076333585"><ele>558.0</ele><time>2026-04-19T12:20:10.002Z</time></trkpt><trkpt lat="43.39324125449559" lon="10.71778090482745"><ele>556.75</ele><time>2026-04-19T12:20:11.002Z</time></trkpt><trkpt lat="43.39319950480892" lon="10.717933369781877"><ele>555.5</ele><time>2026-04-19T12:20:12.002Z</time></trkpt><trkpt lat="43.393153690042396" lon="10.718091234760251"><ele>554.25</ele><time>2026-04-19T12:20:13.002Z</time></trkpt><trkpt lat="43.393102383957185" lon="10.718248098167646"><ele>553.0</ele><time>2026-04-19T12:20:14.002Z</time></trkpt><trkpt lat="43.39304669005465" lon="10.718403281979832"><ele>552.5</ele><time>2026-04-19T12:20:15.002Z</time></trkpt><trkpt lat="43.39299047475682" lon="10.718558086049688"><ele>552.0</ele><time>2026-04-19T12:20:16.002Z</time></trkpt><trkpt lat="43.392926631263954" lon="10.71871523933063"><ele>551.5</ele><time>2026-04-19T12:20:17.002Z</time></trkpt><trkpt lat="43.39287449287095" lon="10.71886973483"><ele>551.0</ele><time>2026-04-19T12:20:18.002Z</time></trkpt><trkpt lat="43.39281645864062" lon="10.719018564968675"><ele>551.0</ele><time>2026-04-19T12:20:19.002Z</time></trkpt><trkpt lat="43.392748785063674" lon="10.719168458948978"><ele>551.0</ele><time>2026-04-19T12:20:20.002Z</time></trkpt><trkpt lat="43.39268100239143" lon="10.719312973648979"><ele>551.0</ele><time>2026-04-19T12:20:21.002Z</time></trkpt><trkpt lat="43.39259996015738" lon="10.719453013168643"><ele>551.0</ele><time>2026-04-19T12:20:22.002Z</time></trkpt><trkpt lat="43.39252058555995" lon="10.719583553152658"><ele>549.25</ele><time>2026-04-19T12:20:23.002Z</time></trkpt><trkpt lat="43.392433535342036" lon="10.719717849378736"><ele>547.5</ele><time>2026-04-19T12:20:24.002Z</time></trkpt><trkpt lat="43.392354073054804" lon="10.719846264178889"><ele>545.75</ele><time>2026-04-19T12:20:25.002Z</time></trkpt><trkpt lat="43.392275170882264" lon="10.719974585743605"><ele>544.0</ele><time>2026-04-19T12:20:26.002Z</time></trkpt><trkpt lat="43.392205171990526" lon="10.720117059597543"><ele>540.25</ele><time>2026-04-19T12:20:27.002Z</time></trkpt><trkpt lat="43.39215497010718" lon="10.720269759291629"><ele>536.5</ele><time>2026-04-19T12:20:28.002Z</time></trkpt><trkpt lat="43.39210607900296" lon="10.72042836839096"><ele>532.75</ele><time>2026-04-19T12:20:29.002Z</time></trkpt><trkpt lat="43.39205900518446" lon="10.720589741623897"><ele>529.0</ele><time>2026-04-19T12:20:30.002Z</time></trkpt><trkpt lat="43.39200799271832" lon="10.720754738977337"><ele>529.0</ele><time>2026-04-19T12:20:31.002Z</time></trkpt><trkpt lat="43.39196169537111" lon="10.720915148421621"><ele>529.0</ele><time>2026-04-19T12:20:32.002Z</time></trkpt><trkpt lat="43.391912698715466" lon="10.721073239992005"><ele>529.0</ele><time>2026-04-19T12:20:33.002Z</time></trkpt><trkpt lat="43.39186655375988" lon="10.721221813200573"><ele>529.0</ele><time>2026-04-19T12:20:34.002Z</time></trkpt><trkpt lat="43.39182310900115" lon="10.721370893992962"><ele>528.75</ele><time>2026-04-19T12:20:35.002Z</time></trkpt><trkpt lat="43.391798460884736" lon="10.721519783390091"><ele>528.5</ele><time>2026-04-19T12:20:36.002Z</time></trkpt><trkpt lat="43.391805117364505" lon="10.721681295523348"><ele>528.25</ele><time>2026-04-19T12:20:37.002Z</time></trkpt><trkpt lat="43.39182545285223" lon="10.721847431485187"><ele>528.0</ele><time>2026-04-19T12:20:38.002Z</time></trkpt><trkpt lat="43.391852763574526" lon="10.722004793429091"><ele>527.0</ele><time>2026-04-19T12:20:39.002Z</time></trkpt><trkpt lat="43.391880729360835" lon="10.722169734588396"><ele>526.0</ele><time>2026-04-19T12:20:40.002Z</time></trkpt><trkpt lat="43.391911368172266" lon="10.722340933174959"><ele>525.0</ele><time>2026-04-19T12:20:41.002Z</time></trkpt><trkpt lat="43.39194306137056" lon="10.722514805936536"><ele>524.0</ele><time>2026-04-19T12:20:42.002Z</time></trkpt><trkpt lat="43.39197397785516" lon="10.722688492833791"><ele>522.5</ele><time>2026-04-19T12:20:43.002Z</time></trkpt><trkpt lat="43.39199549357457" lon="10.722860705806132"><ele>521.0</ele><time>2026-04-19T12:20:44.002Z</time></trkpt><trkpt lat="43.392022177672665" lon="10.723025212514413"><ele>519.5</ele><time>2026-04-19T12:20:45.002Z</time></trkpt><trkpt lat="43.39206341575976" lon="10.72317909685674"><ele>518.0</ele><time>2026-04-19T12:20:46.002Z</time></trkpt><trkpt lat="43.3921295351266" lon="10.723325068765456"><ele>517.75</ele><time>2026-04-19T12:20:47.002Z</time></trkpt><trkpt lat="43.39219707766088" lon="10.723471960399136"><ele>517.5</ele><time>2026-04-19T12:20:48.002Z</time></trkpt><trkpt lat="43.392259165104875" lon="10.72362006619843"><ele>517.25</ele><time>2026-04-19T12:20:49.002Z</time></trkpt><trkpt lat="43.39231882826044" lon="10.72377372234835"><ele>517.0</ele><time>2026-04-19T12:20:50.002Z</time></trkpt><trkpt lat="43.392376446536694" lon="10.723925886818492"><ele>515.5</ele><time>2026-04-19T12:20:51.002Z</time></trkpt><trkpt lat="43.392444894083134" lon="10.724066951489366"><ele>514.0</ele><time>2026-04-19T12:20:52.002Z</time></trkpt><trkpt lat="43.39251482034376" lon="10.724209780380235"><ele>512.5</ele><time>2026-04-19T12:20:53.002Z</time></trkpt><trkpt lat="43.392587831487646" lon="10.72434283251219"><ele>511.0</ele><time>2026-04-19T12:20:54.002Z</time></trkpt><trkpt lat="43.39265990771408" lon="10.724482630414888"><ele>509.75</ele><time>2026-04-19T12:20:55.002Z</time></trkpt><trkpt lat="43.39273180303463" lon="10.72463302495535"><ele>508.5</ele><time>2026-04-19T12:20:56.001Z</time></trkpt><trkpt lat="43.39280115666601" lon="10.724784104998642"><ele>507.25</ele><time>2026-04-19T12:20:57.001Z</time></trkpt><trkpt lat="43.392862748847435" lon="10.724936010185123"><ele>506.0</ele><time>2026-04-19T12:20:58.001Z</time></trkpt><trkpt lat="43.39291401892493" lon="10.725098796817598"><ele>506.75</ele><time>2026-04-19T12:20:59.001Z</time></trkpt><trkpt lat="43.39295487176342" lon="10.725262637600691"><ele>507.5</ele><time>2026-04-19T12:21:00.001Z</time></trkpt><trkpt lat="43.39299191922994" lon="10.725428366313064"><ele>508.25</ele><time>2026-04-19T12:21:01.001Z</time></trkpt><trkpt lat="43.39300774859105" lon="10.725571976314534"><ele>509.0</ele><time>2026-04-19T12:21:02.001Z</time></trkpt><trkpt lat="43.3930071851425" lon="10.725729690810276"><ele>509.0</ele><time>2026-04-19T12:21:03.001Z</time></trkpt><trkpt lat="43.39296869318649" lon="10.72588452255673"><ele>509.0</ele><time>2026-04-19T12:21:04.001Z</time></trkpt><trkpt lat="43.39291158226546" lon="10.726027979674548"><ele>509.0</ele><time>2026-04-19T12:21:05.001Z</time></trkpt><trkpt lat="43.39283297415808" lon="10.726158189017632"><ele>509.0</ele><time>2026-04-19T12:21:06.001Z</time></trkpt><trkpt lat="43.39275845303618" lon="10.726284751592065"><ele>510.75</ele><time>2026-04-19T12:21:07.001Z</time></trkpt><trkpt lat="43.39269154201782" lon="10.726421878516293"><ele>512.5</ele><time>2026-04-19T12:21:08.001Z</time></trkpt><trkpt lat="43.392642336747755" lon="10.726569495248768"><ele>514.25</ele><time>2026-04-19T12:21:09.001Z</time></trkpt><trkpt lat="43.392599328850686" lon="10.726724356646974"><ele>516.0</ele><time>2026-04-19T12:21:10.001Z</time></trkpt><trkpt lat="43.392551747061475" lon="10.72687346988843"><ele>518.25</ele><time>2026-04-19T12:21:11.001Z</time></trkpt><trkpt lat="43.39249134173921" lon="10.727019356645725"><ele>520.5</ele><time>2026-04-19T12:21:12.001Z</time></trkpt><trkpt lat="43.392436918593134" lon="10.727163074498279"><ele>522.75</ele><time>2026-04-19T12:21:13.001Z</time></trkpt><trkpt lat="43.392401850241136" lon="10.727312335664129"><ele>525.0</ele><time>2026-04-19T12:21:14.001Z</time></trkpt><trkpt lat="43.39238276964624" lon="10.727469490624705"><ele>525.0</ele><time>2026-04-19T12:21:15.001Z</time></trkpt><trkpt lat="43.39236405595679" lon="10.727630555950947"><ele>525.0</ele><time>2026-04-19T12:21:16.001Z</time></trkpt><trkpt lat="43.39233961756389" lon="10.727792550859304"><ele>525.0</ele><time>2026-04-19T12:21:17.001Z</time></trkpt><trkpt lat="43.39230633627347" lon="10.727953859683362"><ele>525.0</ele><time>2026-04-19T12:21:18.001Z</time></trkpt><trkpt lat="43.39225568323686" lon="10.728110644317773"><ele>525.5</ele><time>2026-04-19T12:21:19.001Z</time></trkpt><trkpt lat="43.3921811013766" lon="10.72824269387831"><ele>526.0</ele><time>2026-04-19T12:21:20.001Z</time></trkpt><trkpt lat="43.392106365004025" lon="10.728372207128501"><ele>526.5</ele><time>2026-04-19T12:21:21.001Z</time></trkpt><trkpt lat="43.392058058872465" lon="10.72851197781107"><ele>527.0</ele><time>2026-04-19T12:21:22.001Z</time></trkpt><trkpt lat="43.39203919549457" lon="10.728661326162417"><ele>528.0</ele><time>2026-04-19T12:21:23.001Z</time></trkpt><trkpt lat="43.392043925639484" lon="10.72881279065421"><ele>529.0</ele><time>2026-04-19T12:21:24.001Z</time></trkpt><trkpt lat="43.39205261292168" lon="10.728963126941705"><ele>530.0</ele><time>2026-04-19T12:21:25.001Z</time></trkpt><trkpt lat="43.39205461957246" lon="10.72910810211425"><ele>531.0</ele><time>2026-04-19T12:21:26.001Z</time></trkpt><trkpt lat="43.39206197049109" lon="10.729257512400146"><ele>532.0</ele><time>2026-04-19T12:21:27.001Z</time></trkpt><trkpt lat="43.39205723812613" lon="10.729414561852606"><ele>532.75</ele><time>2026-04-19T12:21:28.001Z</time></trkpt><trkpt lat="43.392047307705106" lon="10.729576912626653"><ele>533.5</ele><time>2026-04-19T12:21:29.001Z</time></trkpt><trkpt lat="43.39203588494109" lon="10.7297451649834"><ele>534.25</ele><time>2026-04-19T12:21:30.001Z</time></trkpt><trkpt lat="43.39201848557621" lon="10.729919959820085"><ele>535.0</ele><time>2026-04-19T12:21:31.001Z</time></trkpt><trkpt lat="43.39199435834311" lon="10.730099871675158"><ele>534.75</ele><time>2026-04-19T12:21:32.001Z</time></trkpt><trkpt lat="43.39196550120249" lon="10.730266714658274"><ele>534.5</ele><time>2026-04-19T12:21:33.001Z</time></trkpt><trkpt lat="43.39193283285507" lon="10.730425852382163"><ele>534.25</ele><time>2026-04-19T12:21:34.001Z</time></trkpt><trkpt lat="43.39190280360041" lon="10.730580475846189"><ele>534.0</ele><time>2026-04-19T12:21:35.001Z</time></trkpt><trkpt lat="43.39187057604394" lon="10.730735929639126"><ele>534.0</ele><time>2026-04-19T12:21:36.001Z</time></trkpt><trkpt lat="43.39184180424381" lon="10.730893093787513"><ele>534.0</ele><time>2026-04-19T12:21:37.001Z</time></trkpt><trkpt lat="43.391812817181005" lon="10.7310543131723"><ele>534.0</ele><time>2026-04-19T12:21:38.001Z</time></trkpt><trkpt lat="43.39178430459997" lon="10.731214723513528"><ele>534.0</ele><time>2026-04-19T12:21:39.001Z</time></trkpt><trkpt lat="43.39175608981161" lon="10.731371086214695"><ele>533.0</ele><time>2026-04-19T12:21:40.001Z</time></trkpt><trkpt lat="43.39172754885305" lon="10.731524840005093"><ele>532.0</ele><time>2026-04-19T12:21:41.001Z</time></trkpt><trkpt lat="43.391696303287404" lon="10.731681246634638"><ele>531.0</ele><time>2026-04-19T12:21:42.001Z</time></trkpt><trkpt lat="43.39165845339285" lon="10.731843422369872"><ele>530.0</ele><time>2026-04-19T12:21:43.001Z</time></trkpt><trkpt lat="43.39161225109251" lon="10.73200713664345"><ele>529.5</ele><time>2026-04-19T12:21:44.001Z</time></trkpt><trkpt lat="43.39156483801913" lon="10.73217660023181"><ele>529.0</ele><time>2026-04-19T12:21:45.001Z</time></trkpt><trkpt lat="43.39151521814199" lon="10.732345945991897"><ele>528.5</ele><time>2026-04-19T12:21:46.001Z</time></trkpt><trkpt lat="43.3914642089002" lon="10.732505439155103"><ele>528.0</ele><time>2026-04-19T12:21:47.001Z</time></trkpt><trkpt lat="43.39140501480203" lon="10.732654330082475"><ele>527.0</ele><time>2026-04-19T12:21:48.001Z</time></trkpt><trkpt lat="43.391346784130484" lon="10.732792148083709"><ele>526.0</ele><time>2026-04-19T12:21:49.001Z</time></trkpt><trkpt lat="43.39129420595884" lon="10.732906088996081"><ele>525.0</ele><time>2026-04-19T12:21:50.001Z</time></trkpt><trkpt lat="43.391229341560226" lon="10.73300812723946"><ele>524.0</ele><time>2026-04-19T12:21:51.001Z</time></trkpt><trkpt lat="43.39116139042705" lon="10.733104218972427"><ele>523.0</ele><time>2026-04-19T12:21:52.001Z</time></trkpt><trkpt lat="43.391079705220164" lon="10.73320412900477"><ele>520.4</ele><time>2026-04-19T12:21:53.001Z</time></trkpt><trkpt lat="43.390995168708514" lon="10.733314980190194"><ele>517.8</ele><time>2026-04-19T12:21:54.001Z</time></trkpt><trkpt lat="43.39092378822596" lon="10.733424314469133"><ele>515.2</ele><time>2026-04-19T12:21:55.001Z</time></trkpt><trkpt lat="43.39084979008379" lon="10.733535256605366"><ele>512.6</ele><time>2026-04-19T12:21:56.001Z</time></trkpt><trkpt lat="43.39078454669805" lon="10.733637139797967"><ele>510.0</ele><time>2026-04-19T12:21:57.001Z</time></trkpt><trkpt lat="43.39071901316424" lon="10.733734437715322"><ele>510.0</ele><time>2026-04-19T12:21:58.001Z</time></trkpt><trkpt lat="43.39065984926081" lon="10.733822782550188"><ele>510.0</ele><time>2026-04-19T12:21:59.001Z</time></trkpt><trkpt lat="43.39061173498544" lon="10.733902845224945"><ele>510.0</ele><time>2026-04-19T12:22:00.001Z</time></trkpt><trkpt lat="43.39057027388601" lon="10.733976661970337"><ele>510.0</ele><time>2026-04-19T12:22:01.001Z</time></trkpt><trkpt lat="43.39050906089078" lon="10.734109921257328"><ele>510.0</ele><time>2026-04-19T12:22:03.001Z</time></trkpt><trkpt lat="43.39045299315136" lon="10.734216652906202"><ele>510.0</ele><time>2026-04-19T12:22:05.001Z</time></trkpt><trkpt lat="43.39038934917451" lon="10.734318257171337"><ele>507.6</ele><time>2026-04-19T12:22:07.001Z</time></trkpt><trkpt lat="43.3903157139108" lon="10.734428257842449"><ele>505.2</ele><time>2026-04-19T12:22:09.001Z</time></trkpt><trkpt lat="43.39023839950918" lon="10.734546873846588"><ele>502.79999999999995</ele><time>2026-04-19T12:22:11.001Z</time></trkpt><trkpt lat="43.39014532497463" lon="10.734680389108496"><ele>500.4</ele><time>2026-04-19T12:22:13.001Z</time></trkpt><trkpt lat="43.39007082851786" lon="10.734746557757076"><ele>498.0</ele><time>2026-04-19T12:22:14.001Z</time></trkpt><trkpt lat="43.390002502239376" lon="10.734834598004456"><ele>498.0</ele><time>2026-04-19T12:22:15.001Z</time></trkpt><trkpt lat="43.38993343787863" lon="10.73493093009072"><ele>498.0</ele><time>2026-04-19T12:22:16.001Z</time></trkpt><trkpt lat="43.38987090652501" lon="10.735036539004572"><ele>498.0</ele><time>2026-04-19T12:22:17.001Z</time></trkpt><trkpt lat="43.38981682439607" lon="10.735129102105832"><ele>498.0</ele><time>2026-04-19T12:22:18.001Z</time></trkpt><trkpt lat="43.38978101687933" lon="10.73522928120669"><ele>498.0</ele><time>2026-04-19T12:22:19.001Z</time></trkpt><trkpt lat="43.389769787352115" lon="10.735341389376226"><ele>498.0</ele><time>2026-04-19T12:22:20.001Z</time></trkpt><trkpt lat="43.38980076083742" lon="10.735468750488948"><ele>496.5</ele><time>2026-04-19T12:22:21.001Z</time></trkpt><trkpt lat="43.38984062441159" lon="10.735613978135145"><ele>495.0</ele><time>2026-04-19T12:22:22.001Z</time></trkpt><trkpt lat="43.38988915566242" lon="10.73577343862523"><ele>493.5</ele><time>2026-04-19T12:22:23.001Z</time></trkpt><trkpt lat="43.3899693298581" lon="10.735928110070699"><ele>492.0</ele><time>2026-04-19T12:22:24.001Z</time></trkpt><trkpt lat="43.39007032597278" lon="10.736074500804435"><ele>489.6</ele><time>2026-04-19T12:22:25.001Z</time></trkpt><trkpt lat="43.3901696471103" lon="10.73619734569275"><ele>487.20000000000005</ele><time>2026-04-19T12:22:26.001Z</time></trkpt><trkpt lat="43.39025787151936" lon="10.736284946387155"><ele>484.8</ele><time>2026-04-19T12:22:27.001Z</time></trkpt><trkpt lat="43.39034745617503" lon="10.736324695429783"><ele>482.4</ele><time>2026-04-19T12:22:28.001Z</time></trkpt><trkpt lat="43.39044340934422" lon="10.736309118403788"><ele>480.0</ele><time>2026-04-19T12:22:29.001Z</time></trkpt><trkpt lat="43.39053235934272" lon="10.736236002738169"><ele>480.0</ele><time>2026-04-19T12:22:30.001Z</time></trkpt><trkpt lat="43.39060719603281" lon="10.736143375161918"><ele>480.0</ele><time>2026-04-19T12:22:31.001Z</time></trkpt><trkpt lat="43.39069336476111" lon="10.736112589277814"><ele>480.0</ele><time>2026-04-19T12:22:32.001Z</time></trkpt><trkpt lat="43.3907912160499" lon="10.736160290222557"><ele>480.0</ele><time>2026-04-19T12:22:33.001Z</time></trkpt><trkpt lat="43.39087619525728" lon="10.736252757127183"><ele>480.0</ele><time>2026-04-19T12:22:34.002Z</time></trkpt><trkpt lat="43.390972718792604" lon="10.736296331705416"><ele>480.0</ele><time>2026-04-19T12:22:35.002Z</time></trkpt><trkpt lat="43.39109144020956" lon="10.736311725061112"><ele>480.0</ele><time>2026-04-19T12:22:36.002Z</time></trkpt><trkpt lat="43.391219443843006" lon="10.736292121179199"><ele>480.0</ele><time>2026-04-19T12:22:37.002Z</time></trkpt><trkpt lat="43.39134873449007" lon="10.73631445813276"><ele>480.0</ele><time>2026-04-19T12:22:38.002Z</time></trkpt><trkpt lat="43.391463632732396" lon="10.736342132771718"><ele>481.2</ele><time>2026-04-19T12:22:39.002Z</time></trkpt><trkpt lat="43.39156318030566" lon="10.736373797383926"><ele>482.4</ele><time>2026-04-19T12:22:40.002Z</time></trkpt><trkpt lat="43.39164030679555" lon="10.736439493997228"><ele>483.6</ele><time>2026-04-19T12:22:41.002Z</time></trkpt><trkpt lat="43.391697245306005" lon="10.736543029699678"><ele>484.8</ele><time>2026-04-19T12:22:42.002Z</time></trkpt><trkpt lat="43.39172946057346" lon="10.736665003598773"><ele>486.0</ele><time>2026-04-19T12:22:43.002Z</time></trkpt><trkpt lat="43.39173410798898" lon="10.736805034189569"><ele>484.20000000000005</ele><time>2026-04-19T12:22:44.002Z</time></trkpt><trkpt lat="43.39173708162856" lon="10.736950364087008"><ele>482.40000000000003</ele><time>2026-04-19T12:22:45.002Z</time></trkpt><trkpt lat="43.39172181009146" lon="10.737100026339892"><ele>480.6</ele><time>2026-04-19T12:22:46.002Z</time></trkpt><trkpt lat="43.39169470841743" lon="10.737251591468354"><ele>478.8</ele><time>2026-04-19T12:22:47.002Z</time></trkpt><trkpt lat="43.391656765255476" lon="10.737400702716489"><ele>477.0</ele><time>2026-04-19T12:22:48.002Z</time></trkpt><trkpt lat="43.3916216413801" lon="10.737555950685119"><ele>477.0</ele><time>2026-04-19T12:22:49.002Z</time></trkpt><trkpt lat="43.39159318456968" lon="10.737707750648685"><ele>477.00000000000006</ele><time>2026-04-19T12:22:50.002Z</time></trkpt><trkpt lat="43.39157143551026" lon="10.737853851264065"><ele>477.00000000000006</ele><time>2026-04-19T12:22:51.002Z</time></trkpt><trkpt lat="43.39156807318361" lon="10.737997619185055"><ele>477.0</ele><time>2026-04-19T12:22:52.002Z</time></trkpt><trkpt lat="43.39157996409536" lon="10.738145482936487"><ele>477.0</ele><time>2026-04-19T12:22:53.002Z</time></trkpt><trkpt lat="43.39159834821033" lon="10.738285933043928"><ele>475.20000000000005</ele><time>2026-04-19T12:22:54.002Z</time></trkpt><trkpt lat="43.3916197338222" lon="10.738419964163748"><ele>473.40000000000003</ele><time>2026-04-19T12:22:55.002Z</time></trkpt><trkpt lat="43.39162060723151" lon="10.738559629887403"><ele>471.59999999999997</ele><time>2026-04-19T12:22:56.002Z</time></trkpt><trkpt lat="43.3915992776078" lon="10.738693318497074"><ele>469.79999999999995</ele><time>2026-04-19T12:22:57.002Z</time></trkpt><trkpt lat="43.39157863861742" lon="10.738831759599496"><ele>468.0</ele><time>2026-04-19T12:22:58.002Z</time></trkpt><trkpt lat="43.391565252758454" lon="10.738967886433732"><ele>467.3333333333333</ele><time>2026-04-19T12:22:59.002Z</time></trkpt><trkpt lat="43.39155586631739" lon="10.739093988966905"><ele>466.66666666666663</ele><time>2026-04-19T12:23:00.002Z</time></trkpt><trkpt lat="43.391544747840456" lon="10.739212134708737"><ele>466.0</ele><time>2026-04-19T12:23:01.002Z</time></trkpt><trkpt lat="43.39152504176973" lon="10.739315468639475"><ele>465.3333333333333</ele><time>2026-04-19T12:23:02.001Z</time></trkpt><trkpt lat="43.391484985879764" lon="10.739384050827331"><ele>464.66666666666663</ele><time>2026-04-19T12:23:03.001Z</time></trkpt><trkpt lat="43.39142369149173" lon="10.739509020246668"><ele>464.0</ele><time>2026-04-19T12:23:05.001Z</time></trkpt><trkpt lat="43.391369030204054" lon="10.73956157440804"><ele>461.66666666666663</ele><time>2026-04-19T12:23:06.001Z</time></trkpt><trkpt lat="43.39129755455778" lon="10.739587238843912"><ele>459.3333333333333</ele><time>2026-04-19T12:23:07.001Z</time></trkpt><trkpt lat="43.39122979490132" lon="10.739617301316343"><ele>457.0</ele><time>2026-04-19T12:23:08.001Z</time></trkpt><trkpt lat="43.39117006473706" lon="10.739660496915063"><ele>454.66666666666663</ele><time>2026-04-19T12:23:09.001Z</time></trkpt><trkpt lat="43.39109270515367" lon="10.739700635484319"><ele>452.3333333333333</ele><time>2026-04-19T12:23:12.001Z</time></trkpt><trkpt lat="43.391152760304394" lon="10.739885374508143"><ele>450.0</ele><time>2026-04-19T12:23:13.001Z</time></trkpt><trkpt lat="43.39119273693603" lon="10.739979878372715"><ele>450.0</ele><time>2026-04-19T12:23:14.001Z</time></trkpt><trkpt lat="43.391222499694386" lon="10.740086102888029"><ele>450.0</ele><time>2026-04-19T12:23:15.001Z</time></trkpt><trkpt lat="43.39125566459314" lon="10.740200526234208"><ele>450.0</ele><time>2026-04-19T12:23:16.001Z</time></trkpt><trkpt lat="43.39129550162982" lon="10.740320854581919"><ele>450.0</ele><time>2026-04-19T12:23:17.001Z</time></trkpt><trkpt lat="43.39133493222676" lon="10.740438833282544"><ele>450.0</ele><time>2026-04-19T12:23:18.001Z</time></trkpt><trkpt lat="43.39137286202368" lon="10.740552139140316"><ele>450.8333333333333</ele><time>2026-04-19T12:23:19.001Z</time></trkpt><trkpt lat="43.39140607021977" lon="10.740657842739811"><ele>451.66666666666663</ele><time>2026-04-19T12:23:20.001Z</time></trkpt><trkpt lat="43.391436454071524" lon="10.740767026871824"><ele>452.5</ele><time>2026-04-19T12:23:21.001Z</time></trkpt><trkpt lat="43.39147981948676" lon="10.740873920993277"><ele>453.3333333333333</ele><time>2026-04-19T12:23:22.001Z</time></trkpt><trkpt lat="43.39153514851518" lon="10.740969219240503"><ele>454.16666666666663</ele><time>2026-04-19T12:23:23.001Z</time></trkpt><trkpt lat="43.39160445778317" lon="10.741049632688307"><ele>455.0</ele><time>2026-04-19T12:23:24.001Z</time></trkpt><trkpt lat="43.39167409995585" lon="10.741126184980526"><ele>452.6</ele><time>2026-04-19T12:23:25.001Z</time></trkpt><trkpt lat="43.391742913466125" lon="10.741188355841441"><ele>450.2</ele><time>2026-04-19T12:23:26.001Z</time></trkpt><trkpt lat="43.391797856573426" lon="10.74124048570428"><ele>447.79999999999995</ele><time>2026-04-19T12:23:27.001Z</time></trkpt><trkpt lat="43.391877602531544" lon="10.741330045360831"><ele>445.4</ele><time>2026-04-19T12:23:29.001Z</time></trkpt><trkpt lat="43.3918849054855" lon="10.741496828302822"><ele>443.0</ele><time>2026-04-19T12:23:31.001Z</time></trkpt><trkpt lat="43.391859461938424" lon="10.741597803533322"><ele>443.0</ele><time>2026-04-19T12:23:32.001Z</time></trkpt><trkpt lat="43.39184127244349" lon="10.741708819448325"><ele>442.99999999999994</ele><time>2026-04-19T12:23:33.001Z</time></trkpt><trkpt lat="43.39182368051526" lon="10.741829193251018"><ele>442.99999999999994</ele><time>2026-04-19T12:23:34.001Z</time></trkpt><trkpt lat="43.39180275749272" lon="10.741959842587148"><ele>443.0</ele><time>2026-04-19T12:23:35.001Z</time></trkpt><trkpt lat="43.39178579321378" lon="10.742098988526077"><ele>443.0</ele><time>2026-04-19T12:23:36.001Z</time></trkpt><trkpt lat="43.391772218103945" lon="10.742239686728839"><ele>442.0</ele><time>2026-04-19T12:23:37.001Z</time></trkpt><trkpt lat="43.39175660746561" lon="10.742383281665616"><ele>440.99999999999994</ele><time>2026-04-19T12:23:38.001Z</time></trkpt><trkpt lat="43.39174091657315" lon="10.742530689458182"><ele>439.99999999999994</ele><time>2026-04-19T12:23:39.001Z</time></trkpt><trkpt lat="43.39172711565899" lon="10.742681352027969"><ele>439.0</ele><time>2026-04-19T12:23:40.001Z</time></trkpt><trkpt lat="43.391718679749424" lon="10.742834557463322"><ele>438.0</ele><time>2026-04-19T12:23:41.001Z</time></trkpt><trkpt lat="43.391710470075424" lon="10.742990978339938"><ele>437.3333333333333</ele><time>2026-04-19T12:23:42.001Z</time></trkpt><trkpt lat="43.39170870718222" lon="10.743137038687651"><ele>436.66666666666663</ele><time>2026-04-19T12:23:43.001Z</time></trkpt><trkpt lat="43.39172139801749" lon="10.743259600789221"><ele>436.0</ele><time>2026-04-19T12:23:44.001Z</time></trkpt><trkpt lat="43.39174023774871" lon="10.743351748023443"><ele>435.3333333333333</ele><time>2026-04-19T12:23:45.001Z</time></trkpt><trkpt lat="43.39171836468954" lon="10.743452871954696"><ele>434.66666666666663</ele><time>2026-04-19T12:23:47.001Z</time></trkpt><trkpt lat="43.39162043024238" lon="10.743427794152996"><ele>434.0</ele><time>2026-04-19T12:23:49.001Z</time></trkpt><trkpt lat="43.39159111300482" lon="10.74326480297237"><ele>433.99999999999994</ele><time>2026-04-19T12:23:51.001Z</time></trkpt><trkpt lat="43.391581526823465" lon="10.743158966037377"><ele>434.0</ele><time>2026-04-19T12:23:52.001Z</time></trkpt><trkpt lat="43.39157434530189" lon="10.743042247993811"><ele>434.0</ele><time>2026-04-19T12:23:53.001Z</time></trkpt><trkpt lat="43.39156916811684" lon="10.742928274520777"><ele>434.0</ele><time>2026-04-19T12:23:54.001Z</time></trkpt><trkpt lat="43.39156114378231" lon="10.74281683800761"><ele>433.99999999999994</ele><time>2026-04-19T12:23:55.001Z</time></trkpt><trkpt lat="43.39154805870469" lon="10.742715683431943"><ele>434.0</ele><time>2026-04-19T12:23:56.001Z</time></trkpt><trkpt lat="43.3914989907303" lon="10.74263729495501"><ele>433.99999999999994</ele><time>2026-04-19T12:23:57.001Z</time></trkpt><trkpt lat="43.391416636042166" lon="10.742660312419664"><ele>434.0</ele><time>2026-04-19T12:23:58.001Z</time></trkpt><trkpt lat="43.39136421175244" lon="10.742713919204556"><ele>434.0</ele><time>2026-04-19T12:23:59.001Z</time></trkpt><trkpt lat="43.39134253783194" lon="10.742813067515707"><ele>434.0</ele><time>2026-04-19T12:24:00.001Z</time></trkpt><trkpt lat="43.391346612020534" lon="10.74292415118905"><ele>433.99999999999994</ele><time>2026-04-19T12:24:01.001Z</time></trkpt><trkpt lat="43.3913396669737" lon="10.743043618885123"><ele>434.0</ele><time>2026-04-19T12:24:02.001Z</time></trkpt><trkpt lat="43.39133492795098" lon="10.743172893586667"><ele>434.0</ele><time>2026-04-19T12:24:03.001Z</time></trkpt><trkpt lat="43.39133219244297" lon="10.74331092720755"><ele>434.0</ele><time>2026-04-19T12:24:04.001Z</time></trkpt><trkpt lat="43.391343185476956" lon="10.743456707197081"><ele>434.0</ele><time>2026-04-19T12:24:05.001Z</time></trkpt><trkpt lat="43.391373019905934" lon="10.743602508857055"><ele>434.0</ele><time>2026-04-19T12:24:06.001Z</time></trkpt><trkpt lat="43.391417610910814" lon="10.74374623215769"><ele>434.0</ele><time>2026-04-19T12:24:07.001Z</time></trkpt><trkpt lat="43.39147522365355" lon="10.743879505837008"><ele>430.5</ele><time>2026-04-19T12:24:08.001Z</time></trkpt><trkpt lat="43.39152804414985" lon="10.744001477551123"><ele>427.0</ele><time>2026-04-19T12:24:09.001Z</time></trkpt><trkpt lat="43.39160614111331" lon="10.744211900309885"><ele>423.5</ele><time>2026-04-19T12:24:11.001Z</time></trkpt><trkpt lat="43.39164095551594" lon="10.744374509492468"><ele>420.0</ele><time>2026-04-19T12:24:13.001Z</time></trkpt><trkpt lat="43.39164386749988" lon="10.74448366253173"><ele>416.8</ele><time>2026-04-19T12:24:14.001Z</time></trkpt><trkpt lat="43.39172372607329" lon="10.744589373140625"><ele>413.6</ele><time>2026-04-19T12:24:15.001Z</time></trkpt><trkpt lat="43.39176883739882" lon="10.744713556363951"><ele>410.4</ele><time>2026-04-19T12:24:16.001Z</time></trkpt><trkpt lat="43.39184006902888" lon="10.744828139607256"><ele>407.2</ele><time>2026-04-19T12:24:17.001Z</time></trkpt><trkpt lat="43.39191343420433" lon="10.744940347275936"><ele>404.0</ele><time>2026-04-19T12:24:18.001Z</time></trkpt><trkpt lat="43.39198001143751" lon="10.74504622984882"><ele>403.99999999999994</ele><time>2026-04-19T12:24:19.001Z</time></trkpt><trkpt lat="43.39204259410021" lon="10.745144508113285"><ele>404.0</ele><time>2026-04-19T12:24:20.001Z</time></trkpt><trkpt lat="43.39210120304459" lon="10.745235559284906"><ele>404.0</ele><time>2026-04-19T12:24:21.001Z</time></trkpt><trkpt lat="43.39214815935457" lon="10.745324060915308"><ele>404.0</ele><time>2026-04-19T12:24:22.001Z</time></trkpt><trkpt lat="43.39216774111012" lon="10.745427635627035"><ele>403.99999999999994</ele><time>2026-04-19T12:24:23.001Z</time></trkpt><trkpt lat="43.39216008243425" lon="10.745530149389369"><ele>404.0</ele><time>2026-04-19T12:24:24.001Z</time></trkpt><trkpt lat="43.39213819684541" lon="10.74562234247195"><ele>403.8333333333333</ele><time>2026-04-19T12:24:25.001Z</time></trkpt><trkpt lat="43.39207809217499" lon="10.74575065077825"><ele>403.66666666666663</ele><time>2026-04-19T12:24:27.001Z</time></trkpt><trkpt lat="43.39203193819229" lon="10.745823338634995"><ele>403.5</ele><time>2026-04-19T12:24:29.001Z</time></trkpt><trkpt lat="43.39197332893738" lon="10.745926401820622"><ele>403.33333333333337</ele><time>2026-04-19T12:24:41.001Z</time></trkpt><trkpt lat="43.39193140359556" lon="10.745992111355408"><ele>403.1666666666667</ele><time>2026-04-19T12:24:43.001Z</time></trkpt><trkpt lat="43.3918594854371" lon="10.746103583187898"><ele>403.0</ele><time>2026-04-19T12:24:45.001Z</time></trkpt><trkpt lat="43.39181559952348" lon="10.746169200029986"><ele>403.00000000000006</ele><time>2026-04-19T12:24:46.001Z</time></trkpt><trkpt lat="43.391772018229005" lon="10.746252173492717"><ele>403.0</ele><time>2026-04-19T12:24:47.001Z</time></trkpt><trkpt lat="43.39171875104033" lon="10.74634342286549"><ele>403.0</ele><time>2026-04-19T12:24:48.001Z</time></trkpt><trkpt lat="43.39166026523646" lon="10.746436891589362"><ele>403.0</ele><time>2026-04-19T12:24:49.001Z</time></trkpt><trkpt lat="43.39160548320862" lon="10.746534064688447"><ele>403.00000000000006</ele><time>2026-04-19T12:24:50.001Z</time></trkpt><trkpt lat="43.39156218609974" lon="10.74662843358877"><ele>403.0</ele><time>2026-04-19T12:24:51.001Z</time></trkpt><trkpt lat="43.3915331666304" lon="10.746727291267229"><ele>403.0</ele><time>2026-04-19T12:24:52.001Z</time></trkpt><trkpt lat="43.39151424850105" lon="10.746827098279113"><ele>403.0</ele><time>2026-04-19T12:24:53.001Z</time></trkpt><trkpt lat="43.39150268898648" lon="10.746964000291404"><ele>403.0</ele><time>2026-04-19T12:24:55.001Z</time></trkpt><trkpt lat="43.391484457998686" lon="10.747050423685518"><ele>403.0</ele><time>2026-04-19T12:25:21Z</time></trkpt><trkpt lat="43.39147470342752" lon="10.747178238842876"><ele>403.0</ele><time>2026-04-19T12:25:23Z</time></trkpt><trkpt lat="43.39147126103022" lon="10.74734358085659"><ele>402.83333333333337</ele><time>2026-04-19T12:25:25Z</time></trkpt><trkpt lat="43.391479356249185" lon="10.747431966629717"><ele>402.6666666666667</ele><time>2026-04-19T12:25:26Z</time></trkpt><trkpt lat="43.39149675821428" lon="10.747526674764508"><ele>402.5</ele><time>2026-04-19T12:25:27Z</time></trkpt><trkpt lat="43.39152611926603" lon="10.74762171986171"><ele>402.33333333333337</ele><time>2026-04-19T12:25:28Z</time></trkpt><trkpt lat="43.39156323610296" lon="10.747716790132708"><ele>402.1666666666667</ele><time>2026-04-19T12:25:29Z</time></trkpt><trkpt lat="43.39160964253845" lon="10.747806555645761"><ele>402.0</ele><time>2026-04-19T12:25:30Z</time></trkpt><trkpt lat="43.39166583994455" lon="10.747892127133257"><ele>400.6666666666667</ele><time>2026-04-19T12:25:31.001Z</time></trkpt><trkpt lat="43.391734831574304" lon="10.7479550900135"><ele>399.33333333333337</ele><time>2026-04-19T12:25:32.001Z</time></trkpt><trkpt lat="43.39180600648427" lon="10.748017056487642"><ele>398.0</ele><time>2026-04-19T12:25:33.001Z</time></trkpt><trkpt lat="43.39187576545019" lon="10.748079664417862"><ele>396.6666666666667</ele><time>2026-04-19T12:25:34.001Z</time></trkpt><trkpt lat="43.39194152739839" lon="10.74814531504222"><ele>395.33333333333337</ele><time>2026-04-19T12:25:35.001Z</time></trkpt><trkpt lat="43.391999365399364" lon="10.748214750662274"><ele>394.0</ele><time>2026-04-19T12:25:36.001Z</time></trkpt><trkpt lat="43.392047504897256" lon="10.748293525935352"><ele>394.00000000000006</ele><time>2026-04-19T12:25:37.001Z</time></trkpt><trkpt lat="43.392078190387366" lon="10.74839096986088"><ele>394.0</ele><time>2026-04-19T12:25:38.001Z</time></trkpt><trkpt lat="43.39210992236844" lon="10.748490861455364"><ele>394.0</ele><time>2026-04-19T12:25:39.001Z</time></trkpt><trkpt lat="43.39214029239118" lon="10.74860007495466"><ele>394.0</ele><time>2026-04-19T12:25:40.001Z</time></trkpt><trkpt lat="43.39217343038921" lon="10.748711056058658"><ele>394.00000000000006</ele><time>2026-04-19T12:25:41.001Z</time></trkpt><trkpt lat="43.39220815616954" lon="10.74882221309101"><ele>394.0</ele><time>2026-04-19T12:25:42.001Z</time></trkpt><trkpt lat="43.39224188423202" lon="10.74892651040255"><ele>394.00000000000006</ele><time>2026-04-19T12:25:43.001Z</time></trkpt><trkpt lat="43.392273809680084" lon="10.749024952428439"><ele>394.0</ele><time>2026-04-19T12:25:44.001Z</time></trkpt><trkpt lat="43.39230318187441" lon="10.749125590359183"><ele>394.0</ele><time>2026-04-19T12:25:45.001Z</time></trkpt><trkpt lat="43.392329973915935" lon="10.749220023899506"><ele>394.0</ele><time>2026-04-19T12:25:46.001Z</time></trkpt><trkpt lat="43.392353077937884" lon="10.749308414399565"><ele>394.00000000000006</ele><time>2026-04-19T12:25:47.001Z</time></trkpt><trkpt lat="43.39239182773333" lon="10.74946779428395"><ele>394.0</ele><time>2026-04-19T12:25:49.001Z</time></trkpt><trkpt lat="43.39243096918708" lon="10.749615136283799"><ele>394.0</ele><time>2026-04-19T12:25:51.001Z</time></trkpt><trkpt lat="43.392521208765785" lon="10.749735241606968"><ele>394.0</ele><time>2026-04-19T12:25:53.001Z</time></trkpt><trkpt lat="43.39260129631987" lon="10.749855240601736"><ele>394.0</ele><time>2026-04-19T12:25:55.001Z</time></trkpt><trkpt lat="43.39271118971965" lon="10.74989420726572"><ele>394.0</ele><time>2026-04-19T12:25:57.001Z</time></trkpt><trkpt lat="43.39283278827797" lon="10.749872895079264"><ele>394.0</ele><time>2026-04-19T12:25:59.001Z</time></trkpt><trkpt lat="43.39295735549547" lon="10.749807480053391"><ele>394.0</ele><time>2026-04-19T12:26:01.001Z</time></trkpt><trkpt lat="43.39302292294081" lon="10.74974774292752"><ele>394.0</ele><time>2026-04-19T12:26:02.001Z</time></trkpt><trkpt lat="43.393084330940766" lon="10.74967117099282"><ele>394.0</ele><time>2026-04-19T12:26:03.001Z</time></trkpt><trkpt lat="43.39313632775165" lon="10.749573870870258"><ele>394.0</ele><time>2026-04-19T12:26:04.001Z</time></trkpt><trkpt lat="43.39318747608551" lon="10.74946453586127"><ele>392.79999999999995</ele><time>2026-04-19T12:26:05.001Z</time></trkpt><trkpt lat="43.39323636408249" lon="10.74935497258577"><ele>391.59999999999997</ele><time>2026-04-19T12:26:06.001Z</time></trkpt><trkpt lat="43.393282585095236" lon="10.749244185919412"><ele>390.4</ele><time>2026-04-19T12:26:07.001Z</time></trkpt><trkpt lat="43.39333058605094" lon="10.74913657781247"><ele>389.2</ele><time>2026-04-19T12:26:08.001Z</time></trkpt><trkpt lat="43.3933803525428" lon="10.749036254315483"><ele>388.0</ele><time>2026-04-19T12:26:09.001Z</time></trkpt><trkpt lat="43.39343366726583" lon="10.74894244604047"><ele>388.00000000000006</ele><time>2026-04-19T12:26:10.001Z</time></trkpt><trkpt lat="43.39349042007797" lon="10.748855385197519"><ele>388.0</ele><time>2026-04-19T12:26:11.001Z</time></trkpt><trkpt lat="43.39356146802196" lon="10.74878067154488"><ele>388.0</ele><time>2026-04-19T12:26:12.001Z</time></trkpt><trkpt lat="43.39363175676282" lon="10.748707032532842"><ele>388.0</ele><time>2026-04-19T12:26:13.001Z</time></trkpt><trkpt lat="43.3937044214778" lon="10.748640803512668"><ele>388.00000000000006</ele><time>2026-04-19T12:26:14.001Z</time></trkpt><trkpt lat="43.393789174672854" lon="10.748602936586199"><ele>388.0</ele><time>2026-04-19T12:26:15.001Z</time></trkpt><trkpt lat="43.393878060263546" lon="10.748595242866031"><ele>385.0</ele><time>2026-04-19T12:26:16.001Z</time></trkpt><trkpt lat="43.39396849039064" lon="10.748602369732106"><ele>382.0</ele><time>2026-04-19T12:26:17.001Z</time></trkpt><trkpt lat="43.39405697053647" lon="10.748615011125521"><ele>379.0</ele><time>2026-04-19T12:26:18.001Z</time></trkpt><trkpt lat="43.39415288651452" lon="10.74862234907019"><ele>376.0</ele><time>2026-04-19T12:26:19.001Z</time></trkpt><trkpt lat="43.39424886885283" lon="10.748617803650596"><ele>373.0</ele><time>2026-04-19T12:26:20.001Z</time></trkpt><trkpt lat="43.39433620180509" lon="10.748577088533608"><ele>374.8333333333333</ele><time>2026-04-19T12:26:21.001Z</time></trkpt><trkpt lat="43.39441670151796" lon="10.748513391488846"><ele>376.66666666666663</ele><time>2026-04-19T12:26:22.001Z</time></trkpt><trkpt lat="43.394490938307676" lon="10.74843700234705"><ele>378.5</ele><time>2026-04-19T12:26:23.001Z</time></trkpt><trkpt lat="43.3945669866843" lon="10.748374229709572"><ele>380.3333333333333</ele><time>2026-04-19T12:26:24.001Z</time></trkpt><trkpt lat="43.394652723278746" lon="10.748349094332774"><ele>382.1666666666667</ele><time>2026-04-19T12:26:25.001Z</time></trkpt><trkpt lat="43.394735000554576" lon="10.748372988208663"><ele>384.0</ele><time>2026-04-19T12:26:26.001Z</time></trkpt><trkpt lat="43.39481573349713" lon="10.748425471524989"><ele>384.0</ele><time>2026-04-19T12:26:27.001Z</time></trkpt><trkpt lat="43.39490191829382" lon="10.748480845189617"><ele>384.0</ele><time>2026-04-19T12:26:28.001Z</time></trkpt><trkpt lat="43.394992057484714" lon="10.748531689860117"><ele>384.0</ele><time>2026-04-19T12:26:29.001Z</time></trkpt><trkpt lat="43.39508471987111" lon="10.748596189901638"><ele>384.0</ele><time>2026-04-19T12:26:30.001Z</time></trkpt><trkpt lat="43.39517316340569" lon="10.748685573707384"><ele>384.0</ele><time>2026-04-19T12:26:31.001Z</time></trkpt><trkpt lat="43.39525291472535" lon="10.748792756553039"><ele>381.6</ele><time>2026-04-19T12:26:32.001Z</time></trkpt><trkpt lat="43.395333292579714" lon="10.748903192043006"><ele>379.2</ele><time>2026-04-19T12:26:33.001Z</time></trkpt><trkpt lat="43.395409022292704" lon="10.749013868763116"><ele>376.8</ele><time>2026-04-19T12:26:34.001Z</time></trkpt><trkpt lat="43.395485516551624" lon="10.749122969670292"><ele>374.40000000000003</ele><time>2026-04-19T12:26:35.001Z</time></trkpt><trkpt lat="43.39556643245678" lon="10.749221807034273"><ele>372.0</ele><time>2026-04-19T12:26:36.001Z</time></trkpt><trkpt lat="43.3956567379237" lon="10.749299839364014"><ele>372.0</ele><time>2026-04-19T12:26:37.001Z</time></trkpt><trkpt lat="43.395756043287015" lon="10.749343008269472"><ele>372.0</ele><time>2026-04-19T12:26:38.001Z</time></trkpt><trkpt lat="43.39586477978842" lon="10.749340764553905"><ele>372.0</ele><time>2026-04-19T12:26:39.001Z</time></trkpt><trkpt lat="43.395979580366266" lon="10.749301058420334"><ele>372.0</ele><time>2026-04-19T12:26:40.001Z</time></trkpt><trkpt lat="43.39609293992172" lon="10.749245296665071"><ele>372.0</ele><time>2026-04-19T12:26:41.001Z</time></trkpt><trkpt lat="43.39621868170954" lon="10.749193199542903"><ele>372.0</ele><time>2026-04-19T12:26:42.001Z</time></trkpt><trkpt lat="43.396352333665675" lon="10.749141713927594"><ele>372.0</ele><time>2026-04-19T12:26:43.001Z</time></trkpt><trkpt lat="43.39649104275805" lon="10.749090190866028"><ele>372.0</ele><time>2026-04-19T12:26:44.001Z</time></trkpt><trkpt lat="43.39663272303329" lon="10.749042448607744"><ele>369.5</ele><time>2026-04-19T12:26:45.001Z</time></trkpt><trkpt lat="43.396774069875825" lon="10.748991216523647"><ele>367.0</ele><time>2026-04-19T12:26:46.001Z</time></trkpt><trkpt lat="43.396917110159244" lon="10.748938611804716"><ele>364.5</ele><time>2026-04-19T12:26:47.001Z</time></trkpt><trkpt lat="43.39704992299081" lon="10.748887349865422"><ele>362.0</ele><time>2026-04-19T12:26:48.001Z</time></trkpt><trkpt lat="43.39717611180637" lon="10.748843675659792"><ele>360.20000000000005</ele><time>2026-04-19T12:26:49.001Z</time></trkpt><trkpt lat="43.397291992735994" lon="10.748805594175764"><ele>358.4</ele><time>2026-04-19T12:26:50.001Z</time></trkpt><trkpt lat="43.397393962988396" lon="10.74877047047118"><ele>356.6</ele><time>2026-04-19T12:26:51.001Z</time></trkpt><trkpt lat="43.397480565499414" lon="10.748742278593625"><ele>354.79999999999995</ele><time>2026-04-19T12:26:52.001Z</time></trkpt><trkpt lat="43.39755622090605" lon="10.74871765733996"><ele>353.0</ele><time>2026-04-19T12:26:53.001Z</time></trkpt><trkpt lat="43.39765848055883" lon="10.748741168859306"><ele>353.0</ele><time>2026-04-19T12:26:55.001Z</time></trkpt><trkpt lat="43.39765723997083" lon="10.748892321796792"><ele>353.0</ele><time>2026-04-19T12:26:57.001Z</time></trkpt><trkpt lat="43.39758588702467" lon="10.74893653024101"><ele>353.0</ele><time>2026-04-19T12:26:58.001Z</time></trkpt><trkpt lat="43.39750759010712" lon="10.748968304172056"><ele>353.0</ele><time>2026-04-19T12:26:59.001Z</time></trkpt><trkpt lat="43.397425714264465" lon="10.749008676794796"><ele>353.0</ele><time>2026-04-19T12:27:00.001Z</time></trkpt><trkpt lat="43.39733956854277" lon="10.749057408579109"><ele>353.0</ele><time>2026-04-19T12:27:01.001Z</time></trkpt><trkpt lat="43.39724772150699" lon="10.749113640117201"><ele>353.0</ele><time>2026-04-19T12:27:02.001Z</time></trkpt><trkpt lat="43.397159000577055" lon="10.749167168439014"><ele>353.0</ele><time>2026-04-19T12:27:03.001Z</time></trkpt><trkpt lat="43.39708127328808" lon="10.749215591350584"><ele>353.0</ele><time>2026-04-19T12:27:04.001Z</time></trkpt><trkpt lat="43.397010609336625" lon="10.749256363947408"><ele>353.0</ele><time>2026-04-19T12:27:05.001Z</time></trkpt><trkpt lat="43.39695025835033" lon="10.749293261928996"><ele>353.0</ele><time>2026-04-19T12:27:06.001Z</time></trkpt><trkpt lat="43.39688408938754" lon="10.749415044426268"><ele>350.6666666666667</ele><time>2026-04-19T12:27:08.001Z</time></trkpt><trkpt lat="43.39690031039636" lon="10.749502840406588"><ele>348.33333333333337</ele><time>2026-04-19T12:27:09.001Z</time></trkpt><trkpt lat="43.39696630773866" lon="10.749557125153503"><ele>346.0</ele><time>2026-04-19T12:27:10.001Z</time></trkpt><trkpt lat="43.397049662830725" lon="10.749548565575875"><ele>343.6666666666667</ele><time>2026-04-19T12:27:11.001Z</time></trkpt><trkpt lat="43.39713258742735" lon="10.749506228796406"><ele>341.3333333333333</ele><time>2026-04-19T12:27:12.001Z</time></trkpt><trkpt lat="43.39722097146912" lon="10.749470862548606"><ele>339.0</ele><time>2026-04-19T12:27:13.001Z</time></trkpt><trkpt lat="43.3973198435257" lon="10.749432826506725"><ele>336.6</ele><time>2026-04-19T12:27:14.001Z</time></trkpt><trkpt lat="43.397418040858476" lon="10.749392424687503"><ele>334.2</ele><time>2026-04-19T12:27:15.001Z</time></trkpt><trkpt lat="43.39752064436588" lon="10.749355051672799"><ele>331.8</ele><time>2026-04-19T12:27:16.001Z</time></trkpt><trkpt lat="43.39762734928667" lon="10.749315442786207"><ele>329.40000000000003</ele><time>2026-04-19T12:27:17.001Z</time></trkpt><trkpt lat="43.397735966816526" lon="10.749274608861937"><ele>327.0</ele><time>2026-04-19T12:27:18.001Z</time></trkpt><trkpt lat="43.397847657473015" lon="10.749237957638996"><ele>329.6666666666667</ele><time>2026-04-19T12:27:19.001Z</time></trkpt><trkpt lat="43.39806622734887" lon="10.749140740121266"><ele>332.33333333333337</ele><time>2026-04-19T12:27:21.001Z</time></trkpt><trkpt lat="43.398174524988605" lon="10.749070634645403"><ele>335.0</ele><time>2026-04-19T12:27:22.001Z</time></trkpt><trkpt lat="43.398290118933986" lon="10.748996920129569"><ele>335.0</ele><time>2026-04-19T12:27:23.001Z</time></trkpt><trkpt lat="43.39841766421707" lon="10.748925001486896"><ele>335.0</ele><time>2026-04-19T12:27:24.001Z</time></trkpt><trkpt lat="43.39852155189763" lon="10.748855879027117"><ele>335.0</ele><time>2026-04-19T12:27:25.001Z</time></trkpt><trkpt lat="43.39862131798725" lon="10.74878125045357"><ele>335.0</ele><time>2026-04-19T12:27:26.001Z</time></trkpt><trkpt lat="43.3987282217659" lon="10.748705622233352"><ele>334.25</ele><time>2026-04-19T12:27:27.001Z</time></trkpt><trkpt lat="43.39883823601311" lon="10.748620571208491"><ele>333.5</ele><time>2026-04-19T12:27:28.001Z</time></trkpt><trkpt lat="43.39893030596253" lon="10.748510098864495"><ele>332.75</ele><time>2026-04-19T12:27:29.001Z</time></trkpt><trkpt lat="43.39901300997467" lon="10.748394311186612"><ele>332.0</ele><time>2026-04-19T12:27:30.001Z</time></trkpt><trkpt lat="43.399099127461554" lon="10.748278751592432"><ele>332.0</ele><time>2026-04-19T12:27:31.001Z</time></trkpt><trkpt lat="43.399153306619795" lon="10.748151857832974"><ele>332.0</ele><time>2026-04-19T12:27:32.001Z</time></trkpt><trkpt lat="43.39920548673373" lon="10.748046021672353"><ele>332.0</ele><time>2026-04-19T12:27:33.001Z</time></trkpt><trkpt lat="43.399270698934764" lon="10.747985162140433"><ele>332.0</ele><time>2026-04-19T12:27:34.001Z</time></trkpt><trkpt lat="43.39934544347259" lon="10.747969744611868"><ele>332.0</ele><time>2026-04-19T12:27:35.001Z</time></trkpt><trkpt lat="43.39942605143191" lon="10.748026170796107"><ele>332.0</ele><time>2026-04-19T12:27:36.001Z</time></trkpt><trkpt lat="43.39949967107414" lon="10.748118812655061"><ele>332.0</ele><time>2026-04-19T12:27:37.001Z</time></trkpt><trkpt lat="43.399554521971545" lon="10.748245904894917"><ele>332.0</ele><time>2026-04-19T12:27:38.001Z</time></trkpt><trkpt lat="43.399597243128746" lon="10.748391108298463"><ele>332.0</ele><time>2026-04-19T12:27:39.001Z</time></trkpt><trkpt lat="43.3996582862276" lon="10.748531617912942"><ele>332.0</ele><time>2026-04-19T12:27:40.001Z</time></trkpt><trkpt lat="43.399716202870984" lon="10.748673887387177"><ele>327.6</ele><time>2026-04-19T12:27:41.001Z</time></trkpt><trkpt lat="43.39975789318496" lon="10.748817329005705"><ele>323.20000000000005</ele><time>2026-04-19T12:27:42.001Z</time></trkpt><trkpt lat="43.399807337572376" lon="10.748948500254585"><ele>318.8</ele><time>2026-04-19T12:27:43.001Z</time></trkpt><trkpt lat="43.39987286641661" lon="10.749058762123266"><ele>314.4</ele><time>2026-04-19T12:27:44.001Z</time></trkpt><trkpt lat="43.39996659542651" lon="10.749129346583208"><ele>310.0</ele><time>2026-04-19T12:27:45.001Z</time></trkpt><trkpt lat="43.40007830421071" lon="10.749174465209233"><ele>310.0</ele><time>2026-04-19T12:27:46.001Z</time></trkpt><trkpt lat="43.40020379732286" lon="10.749197588629956"><ele>310.0</ele><time>2026-04-19T12:27:47.001Z</time></trkpt><trkpt lat="43.40033433598365" lon="10.7492041468023"><ele>310.0</ele><time>2026-04-19T12:27:48.001Z</time></trkpt><trkpt lat="43.40047325530549" lon="10.74918718875822"><ele>310.0</ele><time>2026-04-19T12:27:49.001Z</time></trkpt><trkpt lat="43.40061404490184" lon="10.749142232081846"><ele>307.0</ele><time>2026-04-19T12:27:50.001Z</time></trkpt><trkpt lat="43.40074843501287" lon="10.74905071159751"><ele>304.0</ele><time>2026-04-19T12:27:51.001Z</time></trkpt><trkpt lat="43.40086360336957" lon="10.74892088090491"><ele>301.0</ele><time>2026-04-19T12:27:52.001Z</time></trkpt><trkpt lat="43.400968820027735" lon="10.748769461100345"><ele>301.0</ele><time>2026-04-19T12:27:53.001Z</time></trkpt><trkpt lat="43.401048016463825" lon="10.748587678396328"><ele>301.0</ele><time>2026-04-19T12:27:54.001Z</time></trkpt><trkpt lat="43.40114332879647" lon="10.748426182127446"><ele>301.0</ele><time>2026-04-19T12:27:55.001Z</time></trkpt><trkpt lat="43.40125445556908" lon="10.748285367021838"><ele>300.75</ele><time>2026-04-19T12:27:56.001Z</time></trkpt><trkpt lat="43.40138260677451" lon="10.748174561390078"><ele>300.5</ele><time>2026-04-19T12:27:57.001Z</time></trkpt><trkpt lat="43.401509510523645" lon="10.748066764405914"><ele>300.25</ele><time>2026-04-19T12:27:58.001Z</time></trkpt><trkpt lat="43.401651668822915" lon="10.748025752422139"><ele>300.0</ele><time>2026-04-19T12:27:59.001Z</time></trkpt><trkpt lat="43.40179074312738" lon="10.748040364926545"><ele>300.0</ele><time>2026-04-19T12:28:00.001Z</time></trkpt><trkpt lat="43.40191841711873" lon="10.74809007026565"><ele>300.0</ele><time>2026-04-19T12:28:01.001Z</time></trkpt><trkpt lat="43.40204628127294" lon="10.748152571143974"><ele>300.0</ele><time>2026-04-19T12:28:02.001Z</time></trkpt><trkpt lat="43.40216223724945" lon="10.748252921000747"><ele>300.0</ele><time>2026-04-19T12:28:03.001Z</time></trkpt><trkpt lat="43.40226423010354" lon="10.748390850648274"><ele>298.75</ele><time>2026-04-19T12:28:04.001Z</time></trkpt><trkpt lat="43.40233839133555" lon="10.748561622397151"><ele>297.5</ele><time>2026-04-19T12:28:05.001Z</time></trkpt><trkpt lat="43.40239897274942" lon="10.748731559843483"><ele>296.25</ele><time>2026-04-19T12:28:06.001Z</time></trkpt><trkpt lat="43.40245597465246" lon="10.748897999513263"><ele>295.0</ele><time>2026-04-19T12:28:07.001Z</time></trkpt><trkpt lat="43.40254343588974" lon="10.749040610093315"><ele>295.0</ele><time>2026-04-19T12:28:08.001Z</time></trkpt><trkpt lat="43.4026480522688" lon="10.74916475003618"><ele>295.0</ele><time>2026-04-19T12:28:09.001Z</time></trkpt><trkpt lat="43.402758140102" lon="10.74928118815063"><ele>295.0</ele><time>2026-04-19T12:28:10.001Z</time></trkpt><trkpt lat="43.40288648863121" lon="10.749356061930634"><ele>295.0</ele><time>2026-04-19T12:28:11.001Z</time></trkpt><trkpt lat="43.403024690112154" lon="10.749393177959462"><ele>293.25</ele><time>2026-04-19T12:28:12.001Z</time></trkpt><trkpt lat="43.403157923278" lon="10.74941375968508"><ele>291.5</ele><time>2026-04-19T12:28:13.001Z</time></trkpt><trkpt lat="43.40326920934243" lon="10.749450756838113"><ele>289.75</ele><time>2026-04-19T12:28:14.001Z</time></trkpt><trkpt lat="43.40336154590505" lon="10.74951467775677"><ele>288.0</ele><time>2026-04-19T12:28:15.001Z</time></trkpt><trkpt lat="43.40344269642772" lon="10.749613208843334"><ele>288.0</ele><time>2026-04-19T12:28:16.001Z</time></trkpt><trkpt lat="43.40350576592595" lon="10.74973248911595"><ele>288.0</ele><time>2026-04-19T12:28:17.001Z</time></trkpt><trkpt lat="43.40355908350866" lon="10.749858382555319"><ele>288.0</ele><time>2026-04-19T12:28:18.001Z</time></trkpt><trkpt lat="43.40362260534503" lon="10.749978276913868"><ele>288.0</ele><time>2026-04-19T12:28:19.001Z</time></trkpt><trkpt lat="43.40370178993123" lon="10.750088705522165"><ele>288.0</ele><time>2026-04-19T12:28:20.001Z</time></trkpt><trkpt lat="43.40378938311567" lon="10.75018704124465"><ele>287.6</ele><time>2026-04-19T12:28:21.001Z</time></trkpt><trkpt lat="43.40387012746904" lon="10.750287361672228"><ele>287.20000000000005</ele><time>2026-04-19T12:28:22.001Z</time></trkpt><trkpt lat="43.403946075805536" lon="10.750381582001463"><ele>286.8</ele><time>2026-04-19T12:28:23.001Z</time></trkpt><trkpt lat="43.40399193280573" lon="10.750497587608482"><ele>286.40000000000003</ele><time>2026-04-19T12:28:24.001Z</time></trkpt><trkpt lat="43.40401440215558" lon="10.750636227122454"><ele>286.0</ele><time>2026-04-19T12:28:25.001Z</time></trkpt><trkpt lat="43.40403322959313" lon="10.750783537257336"><ele>286.0</ele><time>2026-04-19T12:28:26.001Z</time></trkpt><trkpt lat="43.404040548370105" lon="10.750932779143254"><ele>286.0</ele><time>2026-04-19T12:28:27.001Z</time></trkpt><trkpt lat="43.40404873158823" lon="10.751077074271352"><ele>286.0</ele><time>2026-04-19T12:28:28.001Z</time></trkpt><trkpt lat="43.404058839220276" lon="10.751226032912074"><ele>286.0</ele><time>2026-04-19T12:28:29.001Z</time></trkpt><trkpt lat="43.4040648324253" lon="10.751381582656716"><ele>286.0</ele><time>2026-04-19T12:28:30.001Z</time></trkpt><trkpt lat="43.40407677913657" lon="10.75154067006016"><ele>284.0</ele><time>2026-04-19T12:28:31.001Z</time></trkpt><trkpt lat="43.404086491279706" lon="10.751703379303912"><ele>282.0</ele><time>2026-04-19T12:28:32.001Z</time></trkpt><trkpt lat="43.40409454565139" lon="10.751865184908976"><ele>280.0</ele><time>2026-04-19T12:28:33.001Z</time></trkpt><trkpt lat="43.40410078565823" lon="10.752027545803092"><ele>278.0</ele><time>2026-04-19T12:28:34.001Z</time></trkpt><trkpt lat="43.40411002331563" lon="10.752192474933372"><ele>276.25</ele><time>2026-04-19T12:28:35.001Z</time></trkpt><trkpt lat="43.40412791286022" lon="10.752364408041464"><ele>274.5</ele><time>2026-04-19T12:28:36.001Z</time></trkpt><trkpt lat="43.40415676508663" lon="10.752543471958218"><ele>272.75</ele><time>2026-04-19T12:28:37.001Z</time></trkpt><trkpt lat="43.404198652648645" lon="10.752720323732811"><ele>271.0</ele><time>2026-04-19T12:28:38.001Z</time></trkpt><trkpt lat="43.404259080886696" lon="10.752890483471385"><ele>269.25</ele><time>2026-04-19T12:28:39.001Z</time></trkpt><trkpt lat="43.40432499762462" lon="10.75304922735397"><ele>267.5</ele><time>2026-04-19T12:28:40.001Z</time></trkpt><trkpt lat="43.404391092405845" lon="10.753197017574182"><ele>265.75</ele><time>2026-04-19T12:28:41.001Z</time></trkpt><trkpt lat="43.40446636303374" lon="10.75333791359139"><ele>264.0</ele><time>2026-04-19T12:28:42.001Z</time></trkpt><trkpt lat="43.40455512933738" lon="10.75347356964765"><ele>262.3333333333333</ele><time>2026-04-19T12:28:43.001Z</time></trkpt><trkpt lat="43.40465667819801" lon="10.753603358600646"><ele>260.66666666666663</ele><time>2026-04-19T12:28:44.001Z</time></trkpt><trkpt lat="43.40477371577574" lon="10.753718137834781"><ele>259.0</ele><time>2026-04-19T12:28:45.001Z</time></trkpt><trkpt lat="43.40504009459145" lon="10.753874445863884"><ele>259.0</ele><time>2026-04-19T12:28:47.001Z</time></trkpt><trkpt lat="43.40518667704696" lon="10.753892830730363"><ele>259.0</ele><time>2026-04-19T12:28:48.001Z</time></trkpt><trkpt lat="43.40532485627802" lon="10.753923139227528"><ele>259.0</ele><time>2026-04-19T12:28:49.001Z</time></trkpt><trkpt lat="43.405445256372715" lon="10.754015921290774"><ele>259.0</ele><time>2026-04-19T12:28:50.001Z</time></trkpt><trkpt lat="43.40556732618299" lon="10.754106625398128"><ele>257.75</ele><time>2026-04-19T12:28:51.001Z</time></trkpt><trkpt lat="43.405658534777416" lon="10.754254449327366"><ele>256.5</ele><time>2026-04-19T12:28:52.001Z</time></trkpt><trkpt lat="43.40571436191614" lon="10.754437171655779"><ele>255.25</ele><time>2026-04-19T12:28:53.001Z</time></trkpt><trkpt lat="43.4057522695708" lon="10.754627896074371"><ele>254.0</ele><time>2026-04-19T12:28:54.001Z</time></trkpt><trkpt lat="43.405804893453414" lon="10.754798929787162"><ele>254.0</ele><time>2026-04-19T12:28:55.001Z</time></trkpt><trkpt lat="43.40586847422942" lon="10.754955491956514"><ele>254.0</ele><time>2026-04-19T12:28:56.001Z</time></trkpt><trkpt lat="43.405942503129324" lon="10.755089606799096"><ele>254.0</ele><time>2026-04-19T12:28:57.001Z</time></trkpt><trkpt lat="43.40603516705752" lon="10.755208046212836"><ele>254.0</ele><time>2026-04-19T12:28:58.001Z</time></trkpt><trkpt lat="43.40614161793651" lon="10.755294654225604"><ele>252.66666666666669</ele><time>2026-04-19T12:28:59.001Z</time></trkpt><trkpt lat="43.40624103822485" lon="10.755363279747712"><ele>251.33333333333334</ele><time>2026-04-19T12:29:00.001Z</time></trkpt><trkpt lat="43.406309541324745" lon="10.755431973352161"><ele>250.0</ele><time>2026-04-19T12:29:01.001Z</time></trkpt><trkpt lat="43.406348109968235" lon="10.755513655141712"><ele>248.66666666666669</ele><time>2026-04-19T12:29:02.001Z</time></trkpt><trkpt lat="43.40633503101948" lon="10.755598760528503"><ele>247.33333333333334</ele><time>2026-04-19T12:29:03.001Z</time></trkpt><trkpt lat="43.406289440176124" lon="10.755673009964195"><ele>246.0</ele><time>2026-04-19T12:29:04.001Z</time></trkpt><trkpt lat="43.40614337554922" lon="10.755729984369756"><ele>244.60000000000002</ele><time>2026-04-19T12:29:06.001Z</time></trkpt><trkpt lat="43.40605884369998" lon="10.755701959156399"><ele>243.20000000000002</ele><time>2026-04-19T12:29:07.001Z</time></trkpt><trkpt lat="43.40598712433434" lon="10.755620469598039"><ele>241.79999999999998</ele><time>2026-04-19T12:29:08.001Z</time></trkpt><trkpt lat="43.40590514726751" lon="10.755551987157993"><ele>240.39999999999998</ele><time>2026-04-19T12:29:09.001Z</time></trkpt><trkpt lat="43.40583096606662" lon="10.755477759002412"><ele>239.0</ele><time>2026-04-19T12:29:10.001Z</time></trkpt><trkpt lat="43.40575641749617" lon="10.755399466355554"><ele>239.00000000000003</ele><time>2026-04-19T12:29:11.001Z</time></trkpt><trkpt lat="43.40568430409513" lon="10.75532615480802"><ele>239.0</ele><time>2026-04-19T12:29:12.001Z</time></trkpt><trkpt lat="43.40560555728622" lon="10.755277005756007"><ele>239.0</ele><time>2026-04-19T12:29:13.001Z</time></trkpt><trkpt lat="43.40553400053627" lon="10.755226293646729"><ele>239.0</ele><time>2026-04-19T12:29:14.001Z</time></trkpt><trkpt lat="43.40545339792225" lon="10.755198722346943"><ele>239.00000000000003</ele><time>2026-04-19T12:29:15.001Z</time></trkpt><trkpt lat="43.40536543409238" lon="10.755198975569757"><ele>239.0</ele><time>2026-04-19T12:29:16.001Z</time></trkpt><trkpt lat="43.405277057443044" lon="10.755221975444057"><ele>237.79999999999998</ele><time>2026-04-19T12:29:17.001Z</time></trkpt><trkpt lat="43.40518888091572" lon="10.755249795862778"><ele>236.59999999999997</ele><time>2026-04-19T12:29:18.001Z</time></trkpt><trkpt lat="43.40509562932258" lon="10.755269993813917"><ele>235.4</ele><time>2026-04-19T12:29:19Z</time></trkpt><trkpt lat="43.404996233604514" lon="10.755283386799"><ele>234.2</ele><time>2026-04-19T12:29:20Z</time></trkpt><trkpt lat="43.40489001798164" lon="10.755282712295175"><ele>233.0</ele><time>2026-04-19T12:29:21Z</time></trkpt><trkpt lat="43.40477966790648" lon="10.755250473125209"><ele>233.0</ele><time>2026-04-19T12:29:22Z</time></trkpt><trkpt lat="43.404666133217546" lon="10.755221381730083"><ele>233.0</ele><time>2026-04-19T12:29:23Z</time></trkpt><trkpt lat="43.404552701496385" lon="10.755189519484569"><ele>233.0</ele><time>2026-04-19T12:29:24Z</time></trkpt><trkpt lat="43.404440256843294" lon="10.755149355960349"><ele>233.0</ele><time>2026-04-19T12:29:25Z</time></trkpt><trkpt lat="43.40432740360758" lon="10.755113081887467"><ele>233.60000000000002</ele><time>2026-04-19T12:29:26Z</time></trkpt><trkpt lat="43.40421790672986" lon="10.755106398184658"><ele>234.20000000000002</ele><time>2026-04-19T12:29:27Z</time></trkpt><trkpt lat="43.40411389124391" lon="10.755092177570528"><ele>234.8</ele><time>2026-04-19T12:29:28Z</time></trkpt><trkpt lat="43.404015434883306" lon="10.755096341503553"><ele>235.4</ele><time>2026-04-19T12:29:29Z</time></trkpt><trkpt lat="43.40391271719791" lon="10.755112840053608"><ele>236.0</ele><time>2026-04-19T12:29:30Z</time></trkpt><trkpt lat="43.40380717198989" lon="10.755153040068352"><ele>234.4</ele><time>2026-04-19T12:29:31Z</time></trkpt><trkpt lat="43.403710554007944" lon="10.75519892965184"><ele>232.8</ele><time>2026-04-19T12:29:32Z</time></trkpt><trkpt lat="43.40361960319035" lon="10.755257830307729"><ele>231.20000000000002</ele><time>2026-04-19T12:29:33Z</time></trkpt><trkpt lat="43.40353581965419" lon="10.75532343944226"><ele>229.60000000000002</ele><time>2026-04-19T12:29:34Z</time></trkpt><trkpt lat="43.40346983975573" lon="10.75540699327819"><ele>228.0</ele><time>2026-04-19T12:29:35Z</time></trkpt><trkpt lat="43.40342272607628" lon="10.755508613993106"><ele>225.60000000000002</ele><time>2026-04-19T12:29:36Z</time></trkpt><trkpt lat="43.40340093460127" lon="10.755631512059514"><ele>223.20000000000002</ele><time>2026-04-19T12:29:37Z</time></trkpt><trkpt lat="43.40340235633281" lon="10.755756939824693"><ele>220.8</ele><time>2026-04-19T12:29:38Z</time></trkpt><trkpt lat="43.40341881263186" lon="10.755883384523992"><ele>218.4</ele><time>2026-04-19T12:29:39Z</time></trkpt><trkpt lat="43.40344217291025" lon="10.756011495889929"><ele>216.0</ele><time>2026-04-19T12:29:40Z</time></trkpt><trkpt lat="43.40347297235779" lon="10.756140280908886"><ele>214.4</ele><time>2026-04-19T12:29:41Z</time></trkpt><trkpt lat="43.403512127791096" lon="10.75626728783847"><ele>212.8</ele><time>2026-04-19T12:29:42Z</time></trkpt><trkpt lat="43.40356702752466" lon="10.756389498117619"><ele>211.20000000000002</ele><time>2026-04-19T12:29:43Z</time></trkpt><trkpt lat="43.403631562396114" lon="10.756501209998495"><ele>209.60000000000002</ele><time>2026-04-19T12:29:44Z</time></trkpt><trkpt lat="43.403704211162136" lon="10.756608691447125"><ele>208.0</ele><time>2026-04-19T12:29:45Z</time></trkpt><trkpt lat="43.40377582534392" lon="10.756718512464717"><ele>208.2</ele><time>2026-04-19T12:29:46Z</time></trkpt><trkpt lat="43.40385158388539" lon="10.756829516639115"><ele>208.4</ele><time>2026-04-19T12:29:47Z</time></trkpt><trkpt lat="43.403924754091655" lon="10.756943069281682"><ele>208.6</ele><time>2026-04-19T12:29:48Z</time></trkpt><trkpt lat="43.403991429428636" lon="10.75705229188102"><ele>208.79999999999998</ele><time>2026-04-19T12:29:49Z</time></trkpt><trkpt lat="43.40405780411299" lon="10.757157363350773"><ele>209.0</ele><time>2026-04-19T12:29:50Z</time></trkpt><trkpt lat="43.404115511198384" lon="10.757268001214843"><ele>209.0</ele><time>2026-04-19T12:29:51Z</time></trkpt><trkpt lat="43.404154709171586" lon="10.757393097240554"><ele>209.0</ele><time>2026-04-19T12:29:52Z</time></trkpt><trkpt lat="43.404180478814645" lon="10.757527801204144"><ele>209.0</ele><time>2026-04-19T12:29:53Z</time></trkpt><trkpt lat="43.40419059258623" lon="10.757668571287246"><ele>209.0</ele><time>2026-04-19T12:29:54Z</time></trkpt><trkpt lat="43.40418863975532" lon="10.757807310220642"><ele>209.0</ele><time>2026-04-19T12:29:55Z</time></trkpt><trkpt lat="43.40417204509952" lon="10.757941130925124"><ele>208.0</ele><time>2026-04-19T12:29:56Z</time></trkpt><trkpt lat="43.40413467458805" lon="10.758066910828473"><ele>207.0</ele><time>2026-04-19T12:29:57Z</time></trkpt><trkpt lat="43.40407210181769" lon="10.75817863962609"><ele>206.0</ele><time>2026-04-19T12:29:58Z</time></trkpt><trkpt lat="43.40398714403226" lon="10.758265241898744"><ele>205.0</ele><time>2026-04-19T12:29:59Z</time></trkpt><trkpt lat="43.40388694530718" lon="10.758332381436551"><ele>204.0</ele><time>2026-04-19T12:30:00Z</time></trkpt><trkpt lat="43.40378077779016" lon="10.758387866586869"><ele>202.5</ele><time>2026-04-19T12:30:01Z</time></trkpt><trkpt lat="43.40366877628393" lon="10.758442377411043"><ele>201.0</ele><time>2026-04-19T12:30:02Z</time></trkpt><trkpt lat="43.40355097637064" lon="10.758505256061135"><ele>199.5</ele><time>2026-04-19T12:30:03Z</time></trkpt><trkpt lat="43.40342759087049" lon="10.758571583032971"><ele>198.0</ele><time>2026-04-19T12:30:04Z</time></trkpt><trkpt lat="43.40330066845109" lon="10.758644463658053"><ele>196.25</ele><time>2026-04-19T12:30:05Z</time></trkpt><trkpt lat="43.40316859435015" lon="10.758721209677592"><ele>194.5</ele><time>2026-04-19T12:30:06Z</time></trkpt><trkpt lat="43.40303247748083" lon="10.758792842787761"><ele>192.75</ele><time>2026-04-19T12:30:07Z</time></trkpt><trkpt lat="43.402894681957385" lon="10.758861859323948"><ele>191.0</ele><time>2026-04-19T12:30:08Z</time></trkpt><trkpt lat="43.402756912633045" lon="10.758933547707107"><ele>190.25</ele><time>2026-04-19T12:30:09Z</time></trkpt><trkpt lat="43.40262033430702" lon="10.759004532383377"><ele>189.5</ele><time>2026-04-19T12:30:10Z</time></trkpt><trkpt lat="43.40248790747876" lon="10.759077812443651"><ele>188.75</ele><time>2026-04-19T12:30:11Z</time></trkpt><trkpt lat="43.40237040649328" lon="10.759144297853991"><ele>188.0</ele><time>2026-04-19T12:30:12Z</time></trkpt><trkpt lat="43.4022709902242" lon="10.759210020697923"><ele>188.0</ele><time>2026-04-19T12:30:13.001Z</time></trkpt><trkpt lat="43.4021964896261" lon="10.759309230678635"><ele>188.0</ele><time>2026-04-19T12:30:14.001Z</time></trkpt><trkpt lat="43.40215279580041" lon="10.759449659677747"><ele>188.0</ele><time>2026-04-19T12:30:15.001Z</time></trkpt><trkpt lat="43.402142042189006" lon="10.759609007922588"><ele>188.0</ele><time>2026-04-19T12:30:16.001Z</time></trkpt><trkpt lat="43.40216382083309" lon="10.759775992135166"><ele>187.75</ele><time>2026-04-19T12:30:17.001Z</time></trkpt><trkpt lat="43.40221500812284" lon="10.75994716211166"><ele>187.5</ele><time>2026-04-19T12:30:18.001Z</time></trkpt><trkpt lat="43.402279304487166" lon="10.760121293032823"><ele>187.25</ele><time>2026-04-19T12:30:19.001Z</time></trkpt><trkpt lat="43.40235043247124" lon="10.760300457844513"><ele>187.0</ele><time>2026-04-19T12:30:20.001Z</time></trkpt><trkpt lat="43.4024273821461" lon="10.760489269181784"><ele>188.0</ele><time>2026-04-19T12:30:21.001Z</time></trkpt><trkpt lat="43.40250672571556" lon="10.760685735490657"><ele>189.0</ele><time>2026-04-19T12:30:22.001Z</time></trkpt><trkpt lat="43.402589382827635" lon="10.76089230332577"><ele>190.0</ele><time>2026-04-19T12:30:23.001Z</time></trkpt><trkpt lat="43.40267372435314" lon="10.761102302311674"><ele>193.0</ele><time>2026-04-19T12:30:24.001Z</time></trkpt><trkpt lat="43.40275937990943" lon="10.761311607395946"><ele>196.0</ele><time>2026-04-19T12:30:25.001Z</time></trkpt><trkpt lat="43.40284459869097" lon="10.761522908312154"><ele>199.0</ele><time>2026-04-19T12:30:26.001Z</time></trkpt><trkpt lat="43.40293090662665" lon="10.761735279227251"><ele>198.66666666666666</ele><time>2026-04-19T12:30:27.001Z</time></trkpt><trkpt lat="43.40301479480401" lon="10.761950851097827"><ele>198.33333333333331</ele><time>2026-04-19T12:30:28.001Z</time></trkpt><trkpt lat="43.40309987145754" lon="10.762164396820639"><ele>198.0</ele><time>2026-04-19T12:30:29.001Z</time></trkpt><trkpt lat="43.40318335390257" lon="10.76237621506391"><ele>198.0</ele><time>2026-04-19T12:30:30.001Z</time></trkpt><trkpt lat="43.403269563888664" lon="10.76258841635997"><ele>198.0</ele><time>2026-04-19T12:30:31.001Z</time></trkpt><trkpt lat="43.403353453986874" lon="10.762799433856353"><ele>198.0</ele><time>2026-04-19T12:30:32.001Z</time></trkpt><trkpt lat="43.403438244765766" lon="10.76301056187256"><ele>201.0</ele><time>2026-04-19T12:30:33.001Z</time></trkpt><trkpt lat="43.40352322807176" lon="10.763221699471037"><ele>204.0</ele><time>2026-04-19T12:30:34.001Z</time></trkpt><trkpt lat="43.40359710629744" lon="10.763441963916229"><ele>207.0</ele><time>2026-04-19T12:30:35.001Z</time></trkpt><trkpt lat="43.40366543730628" lon="10.763666500570313"><ele>207.33333333333331</ele><time>2026-04-19T12:30:36.001Z</time></trkpt><trkpt lat="43.40372207478698" lon="10.76388802427156"><ele>207.66666666666666</ele><time>2026-04-19T12:30:37.001Z</time></trkpt><trkpt lat="43.40378499758975" lon="10.764092389067951"><ele>208.0</ele><time>2026-04-19T12:30:38.001Z</time></trkpt><trkpt lat="43.40384238228608" lon="10.764283859815395"><ele>207.25</ele><time>2026-04-19T12:30:39.001Z</time></trkpt><trkpt lat="43.403878930027815" lon="10.76446502785237"><ele>206.5</ele><time>2026-04-19T12:30:40.001Z</time></trkpt><trkpt lat="43.40387832531021" lon="10.764645837819572"><ele>205.75</ele><time>2026-04-19T12:30:41.001Z</time></trkpt><trkpt lat="43.40384343024019" lon="10.76482522727771"><ele>205.0</ele><time>2026-04-19T12:30:42.001Z</time></trkpt><trkpt lat="43.40379706424458" lon="10.76500739514722"><ele>202.0</ele><time>2026-04-19T12:30:43.001Z</time></trkpt><trkpt lat="43.40374148712098" lon="10.765202922386093"><ele>199.0</ele><time>2026-04-19T12:30:44.001Z</time></trkpt><trkpt lat="43.403688184410846" lon="10.765412942935109"><ele>196.0</ele><time>2026-04-19T12:30:45.001Z</time></trkpt><trkpt lat="43.40362871101046" lon="10.765630262210438"><ele>196.0</ele><time>2026-04-19T12:30:46.001Z</time></trkpt><trkpt lat="43.40356979086624" lon="10.76585589396671"><ele>196.0</ele><time>2026-04-19T12:30:47.001Z</time></trkpt><trkpt lat="43.403508467611466" lon="10.766086305128688"><ele>196.0</ele><time>2026-04-19T12:30:48.001Z</time></trkpt><trkpt lat="43.40344846278284" lon="10.766312852964552"><ele>195.33333333333331</ele><time>2026-04-19T12:30:49.001Z</time></trkpt><trkpt lat="43.403389385297615" lon="10.766529636629341"><ele>194.66666666666669</ele><time>2026-04-19T12:30:50.001Z</time></trkpt><trkpt lat="43.403345488255574" lon="10.76674767238596"><ele>194.0</ele><time>2026-04-19T12:30:51.001Z</time></trkpt><trkpt lat="43.403331526985276" lon="10.766979045834349"><ele>194.0</ele><time>2026-04-19T12:30:52.001Z</time></trkpt><trkpt lat="43.40336033482233" lon="10.767214840355962"><ele>194.0</ele><time>2026-04-19T12:30:53.001Z</time></trkpt><trkpt lat="43.40342374291211" lon="10.767443187422096"><ele>194.0</ele><time>2026-04-19T12:30:54.001Z</time></trkpt><trkpt lat="43.40350813943853" lon="10.767668013283718"><ele>193.0</ele><time>2026-04-19T12:30:55.001Z</time></trkpt><trkpt lat="43.403593828470655" lon="10.767890977862786"><ele>192.0</ele><time>2026-04-19T12:30:56.001Z</time></trkpt><trkpt lat="43.40367330812914" lon="10.768109921716373"><ele>191.0</ele><time>2026-04-19T12:30:57.001Z</time></trkpt><trkpt lat="43.40373811338217" lon="10.768320841630786"><ele>189.0</ele><time>2026-04-19T12:30:58.001Z</time></trkpt><trkpt lat="43.40377400945261" lon="10.768539023773073"><ele>187.0</ele><time>2026-04-19T12:30:59.001Z</time></trkpt><trkpt lat="43.4037654441066" lon="10.768766062539665"><ele>185.0</ele><time>2026-04-19T12:31:00.001Z</time></trkpt><trkpt lat="43.403724623292575" lon="10.76899052195919"><ele>185.0</ele><time>2026-04-19T12:31:01.001Z</time></trkpt><trkpt lat="43.403665525388234" lon="10.769210593313511"><ele>185.0</ele><time>2026-04-19T12:31:02.001Z</time></trkpt><trkpt lat="43.40360590190841" lon="10.769431612190543"><ele>185.0</ele><time>2026-04-19T12:31:03.001Z</time></trkpt><trkpt lat="43.403558917150136" lon="10.769651460112522"><ele>183.0</ele><time>2026-04-19T12:31:04.001Z</time></trkpt><trkpt lat="43.403530104820604" lon="10.769878240502495"><ele>181.0</ele><time>2026-04-19T12:31:05.001Z</time></trkpt><trkpt lat="43.40351942947624" lon="10.770112136458481"><ele>179.0</ele><time>2026-04-19T12:31:06.001Z</time></trkpt><trkpt lat="43.403520423949644" lon="10.770355205038763"><ele>177.33333333333331</ele><time>2026-04-19T12:31:07.001Z</time></trkpt><trkpt lat="43.403532847497935" lon="10.770603514985481"><ele>175.66666666666666</ele><time>2026-04-19T12:31:08.001Z</time></trkpt><trkpt lat="43.40354938056861" lon="10.770853906495354"><ele>174.0</ele><time>2026-04-19T12:31:09.001Z</time></trkpt><trkpt lat="43.403564302414956" lon="10.77110443084682"><ele>172.0</ele><time>2026-04-19T12:31:10.001Z</time></trkpt><trkpt lat="43.40358390190413" lon="10.77135631530541"><ele>170.0</ele><time>2026-04-19T12:31:11.001Z</time></trkpt><trkpt lat="43.40359710540468" lon="10.771611507070256"><ele>168.0</ele><time>2026-04-19T12:31:12.001Z</time></trkpt><trkpt lat="43.403613170351505" lon="10.771870542382704"><ele>166.66666666666666</ele><time>2026-04-19T12:31:13.001Z</time></trkpt><trkpt lat="43.40362923253988" lon="10.77213168466584"><ele>165.33333333333331</ele><time>2026-04-19T12:31:14.001Z</time></trkpt><trkpt lat="43.40364378094924" lon="10.772382730800794"><ele>164.0</ele><time>2026-04-19T12:31:15.001Z</time></trkpt><trkpt lat="43.40365942879219" lon="10.772623167217178"><ele>163.66666666666666</ele><time>2026-04-19T12:31:16.001Z</time></trkpt><trkpt lat="43.40367005291693" lon="10.77285088056877"><ele>163.33333333333334</ele><time>2026-04-19T12:31:17.001Z</time></trkpt><trkpt lat="43.403654972540785" lon="10.77307175375951"><ele>163.0</ele><time>2026-04-19T12:31:18.001Z</time></trkpt><trkpt lat="43.403596014961096" lon="10.773289100408165"><ele>163.0</ele><time>2026-04-19T12:31:19.001Z</time></trkpt><trkpt lat="43.40350487278844" lon="10.773498119816104"><ele>163.0</ele><time>2026-04-19T12:31:20.001Z</time></trkpt><trkpt lat="43.40339836154572" lon="10.773702608182514"><ele>163.0</ele><time>2026-04-19T12:31:21.001Z</time></trkpt><trkpt lat="43.40329689148543" lon="10.773905582233924"><ele>162.66666666666669</ele><time>2026-04-19T12:31:22.001Z</time></trkpt><trkpt lat="43.40319899231582" lon="10.774103461239964"><ele>162.33333333333334</ele><time>2026-04-19T12:31:23.001Z</time></trkpt><trkpt lat="43.40310426477391" lon="10.774293350884804"><ele>162.0</ele><time>2026-04-19T12:31:24.001Z</time></trkpt><trkpt lat="43.40300809622157" lon="10.774476929266957"><ele>161.66666666666666</ele><time>2026-04-19T12:31:25Z</time></trkpt><trkpt lat="43.402895512391275" lon="10.774641783220389"><ele>161.33333333333331</ele><time>2026-04-19T12:31:26Z</time></trkpt><trkpt lat="43.402767410391476" lon="10.774773875372624"><ele>161.0</ele><time>2026-04-19T12:31:27Z</time></trkpt><trkpt lat="43.402639236373744" lon="10.774883173098099"><ele>161.0</ele><time>2026-04-19T12:31:28Z</time></trkpt><trkpt lat="43.40254924523268" lon="10.775033479588746"><ele>161.0</ele><time>2026-04-19T12:31:29Z</time></trkpt><trkpt lat="43.40248278626604" lon="10.775157504200006"><ele>161.0</ele><time>2026-04-19T12:31:30Z</time></trkpt><trkpt lat="43.402463117494875" lon="10.775287277767038"><ele>161.0</ele><time>2026-04-19T12:31:31Z</time></trkpt><trkpt lat="43.40246495269943" lon="10.775390506151627"><ele>161.0</ele><time>2026-04-19T12:31:32Z</time></trkpt><trkpt lat="43.40252352459699" lon="10.775479414683156"><ele>160.0</ele><time>2026-04-19T12:31:34Z</time></trkpt><trkpt lat="43.40255349934194" lon="10.775585646157648"><ele>159.0</ele><time>2026-04-19T12:31:37Z</time></trkpt><trkpt lat="43.40230793964571" lon="10.775663055724046"><ele>158.0</ele><time>2026-04-19T12:31:38Z</time></trkpt><trkpt lat="43.402381067703836" lon="10.775824480628383"><ele>158.0</ele><time>2026-04-19T12:31:39Z</time></trkpt><trkpt lat="43.40234600675182" lon="10.775943293561799"><ele>158.0</ele><time>2026-04-19T12:31:40Z</time></trkpt><trkpt lat="43.402321892105185" lon="10.776082790640455"><ele>158.0</ele><time>2026-04-19T12:31:41Z</time></trkpt><trkpt lat="43.40230991991995" lon="10.776241134661499"><ele>158.0</ele><time>2026-04-19T12:31:42Z</time></trkpt><trkpt lat="43.40230366845107" lon="10.776411784572215"><ele>158.0</ele><time>2026-04-19T12:31:43Z</time></trkpt><trkpt lat="43.40228755465675" lon="10.776589923833194"><ele>158.0</ele><time>2026-04-19T12:31:44Z</time></trkpt><trkpt lat="43.40225403210247" lon="10.776760608730092"><ele>158.0</ele><time>2026-04-19T12:31:45Z</time></trkpt><trkpt lat="43.40221341960473" lon="10.776950231936528"><ele>158.0</ele><time>2026-04-19T12:31:46Z</time></trkpt><trkpt lat="43.402162911149134" lon="10.77713995881026"><ele>158.0</ele><time>2026-04-19T12:31:47Z</time></trkpt><trkpt lat="43.402107445438496" lon="10.777337705675892"><ele>160.0</ele><time>2026-04-19T12:31:48Z</time></trkpt><trkpt lat="43.40205871960963" lon="10.777546513100415"><ele>162.0</ele><time>2026-04-19T12:31:49Z</time></trkpt><trkpt lat="43.402023971480915" lon="10.777769910946567"><ele>164.0</ele><time>2026-04-19T12:31:50Z</time></trkpt><trkpt lat="43.40199675409619" lon="10.778005351747815"><ele>164.66666666666666</ele><time>2026-04-19T12:31:51Z</time></trkpt><trkpt lat="43.40197832486827" lon="10.778249825579984"><ele>165.33333333333334</ele><time>2026-04-19T12:31:52Z</time></trkpt><trkpt lat="43.40197462000208" lon="10.778505441799698"><ele>166.0</ele><time>2026-04-19T12:31:53Z</time></trkpt><trkpt lat="43.40198302445881" lon="10.778768103135997"><ele>166.0</ele><time>2026-04-19T12:31:54Z</time></trkpt><trkpt lat="43.40199794574521" lon="10.779034741836762"><ele>166.0</ele><time>2026-04-19T12:31:55Z</time></trkpt><trkpt lat="43.402007555193464" lon="10.779302881664417"><ele>166.0</ele><time>2026-04-19T12:31:56Z</time></trkpt><trkpt lat="43.402018254863066" lon="10.779571466536224"><ele>166.0</ele><time>2026-04-19T12:31:57Z</time></trkpt><trkpt lat="43.402021909076836" lon="10.779836234765755"><ele>166.0</ele><time>2026-04-19T12:31:58Z</time></trkpt><trkpt lat="43.402012962029694" lon="10.780093122813128"><ele>166.0</ele><time>2026-04-19T12:31:59Z</time></trkpt><trkpt lat="43.40198496597432" lon="10.78034832317896"><ele>165.66666666666669</ele><time>2026-04-19T12:32:00Z</time></trkpt><trkpt lat="43.401948426924626" lon="10.780597444095333"><ele>165.33333333333334</ele><time>2026-04-19T12:32:01Z</time></trkpt><trkpt lat="43.40191475500357" lon="10.780840851548941"><ele>165.0</ele><time>2026-04-19T12:32:02Z</time></trkpt><trkpt lat="43.40188487632035" lon="10.781081174451769"><ele>165.0</ele><time>2026-04-19T12:32:03Z</time></trkpt><trkpt lat="43.40185900720541" lon="10.781320040306317"><ele>165.0</ele><time>2026-04-19T12:32:04Z</time></trkpt><trkpt lat="43.40184090538299" lon="10.781554682460754"><ele>165.0</ele><time>2026-04-19T12:32:05Z</time></trkpt><trkpt lat="43.40183254098078" lon="10.781784788237301"><ele>164.66666666666666</ele><time>2026-04-19T12:32:06Z</time></trkpt><trkpt lat="43.40184014465903" lon="10.782006992366771"><ele>164.33333333333331</ele><time>2026-04-19T12:32:07Z</time></trkpt><trkpt lat="43.4018551560571" lon="10.7822214084527"><ele>164.0</ele><time>2026-04-19T12:32:08Z</time></trkpt><trkpt lat="43.401869156045414" lon="10.782416351278217"><ele>164.0</ele><time>2026-04-19T12:32:09Z</time></trkpt><trkpt lat="43.40188419359713" lon="10.78257290540179"><ele>164.0</ele><time>2026-04-19T12:32:10Z</time></trkpt><trkpt lat="43.40189730902659" lon="10.782686584390376"><ele>164.0</ele><time>2026-04-19T12:32:11Z</time></trkpt><trkpt lat="43.40190002006369" lon="10.782838042447768"><ele>164.0</ele><time>2026-04-19T12:32:13Z</time></trkpt><trkpt lat="43.40191138787762" lon="10.782937324735578"><ele>164.0</ele><time>2026-04-19T12:32:16Z</time></trkpt><trkpt lat="43.40186474555595" lon="10.783014887182647"><ele>163.5</ele><time>2026-04-19T12:32:20Z</time></trkpt><trkpt lat="43.40184711223652" lon="10.783129559629282"><ele>163.0</ele><time>2026-04-19T12:32:25.001Z</time></trkpt><trkpt lat="43.40186214684803" lon="10.783222203337411"><ele>162.5</ele><time>2026-04-19T12:32:27.001Z</time></trkpt><trkpt lat="43.401869759902716" lon="10.783310191169637"><ele>162.0</ele><time>2026-04-19T12:38:39.001Z</time></trkpt><trkpt lat="43.4019081231097" lon="10.783405177240514"><ele>161.5</ele><time>2026-04-19T12:38:42.001Z</time></trkpt><trkpt lat="43.401972396402925" lon="10.783485221829226"><ele>161.0</ele><time>2026-04-19T12:38:46.001Z</time></trkpt><trkpt lat="43.40188209368826" lon="10.783554755502038"><ele>160.5</ele><time>2026-04-19T12:38:47.001Z</time></trkpt><trkpt lat="43.40200795257717" lon="10.783603551309504"><ele>160.0</ele><time>2026-04-19T12:38:48.001Z</time></trkpt><trkpt lat="43.40201074448826" lon="10.78369642674612"><ele>159.5</ele><time>2026-04-19T12:38:49.001Z</time></trkpt><trkpt lat="43.40201987734567" lon="10.783792327721045"><ele>159.0</ele><time>2026-04-19T12:38:50.001Z</time></trkpt><trkpt lat="43.402028514674406" lon="10.783897664220548"><ele>158.5</ele><time>2026-04-19T12:38:51.001Z</time></trkpt><trkpt lat="43.40203932341483" lon="10.784014791122127"><ele>158.0</ele><time>2026-04-19T12:38:52.001Z</time></trkpt><trkpt lat="43.4020517944157" lon="10.784143561957602"><ele>158.0</ele><time>2026-04-19T12:38:53.001Z</time></trkpt><trkpt lat="43.40206810452548" lon="10.784280797713393"><ele>158.0</ele><time>2026-04-19T12:38:54.001Z</time></trkpt><trkpt lat="43.402094730589006" lon="10.784422050426722"><ele>158.0</ele><time>2026-04-19T12:38:55.001Z</time></trkpt><trkpt lat="43.402127084937526" lon="10.784569557603996"><ele>158.0</ele><time>2026-04-19T12:38:56.001Z</time></trkpt><trkpt lat="43.402167838566605" lon="10.784723421176622"><ele>158.0</ele><time>2026-04-19T12:38:57.001Z</time></trkpt><trkpt lat="43.4022072246597" lon="10.784883746640078"><ele>159.5</ele><time>2026-04-19T12:38:58.001Z</time></trkpt><trkpt lat="43.402250594857406" lon="10.785049881192002"><ele>161.0</ele><time>2026-04-19T12:38:59.001Z</time></trkpt><trkpt lat="43.40229534258708" lon="10.785223221096969"><ele>162.5</ele><time>2026-04-19T12:39:00.001Z</time></trkpt><trkpt lat="43.402339919553114" lon="10.78540889065629"><ele>164.0</ele><time>2026-04-19T12:39:01.001Z</time></trkpt><trkpt lat="43.402387548536744" lon="10.785600934151338"><ele>164.0</ele><time>2026-04-19T12:39:02.001Z</time></trkpt><trkpt lat="43.40243648175533" lon="10.785800367775767"><ele>164.0</ele><time>2026-04-19T12:39:03.001Z</time></trkpt><trkpt lat="43.40248744292798" lon="10.786008984244907"><ele>164.0</ele><time>2026-04-19T12:39:04.001Z</time></trkpt><trkpt lat="43.402542964451314" lon="10.786219756321913"><ele>164.66666666666666</ele><time>2026-04-19T12:39:05.001Z</time></trkpt><trkpt lat="43.402600557337074" lon="10.786432923922836"><ele>165.33333333333334</ele><time>2026-04-19T12:39:06.001Z</time></trkpt><trkpt lat="43.40265655872913" lon="10.786651314284601"><ele>166.0</ele><time>2026-04-19T12:39:07.001Z</time></trkpt><trkpt lat="43.40270937073205" lon="10.786863173983106"><ele>166.5</ele><time>2026-04-19T12:39:08.001Z</time></trkpt><trkpt lat="43.40275780289601" lon="10.787060732000652"><ele>167.0</ele><time>2026-04-19T12:39:09.001Z</time></trkpt><trkpt lat="43.402799005687605" lon="10.78724032597027"><ele>167.5</ele><time>2026-04-19T12:39:10.001Z</time></trkpt><trkpt lat="43.40283336674856" lon="10.787396109342135"><ele>168.0</ele><time>2026-04-19T12:39:11.001Z</time></trkpt><trkpt lat="43.40285927353991" lon="10.787535191959451"><ele>168.0</ele><time>2026-04-19T12:39:12.001Z</time></trkpt><trkpt lat="43.40287701960423" lon="10.787664971154244"><ele>168.0</ele><time>2026-04-19T12:39:13.001Z</time></trkpt><trkpt lat="43.402883684409346" lon="10.787775074544381"><ele>168.0</ele><time>2026-04-19T12:39:14.001Z</time></trkpt><trkpt lat="43.40289592233925" lon="10.787862528508878"><ele>168.0</ele><time>2026-04-19T12:39:15.001Z</time></trkpt><trkpt lat="43.40300763116146" lon="10.787927494728393"><ele>168.0</ele><time>2026-04-19T12:39:17.001Z</time></trkpt><trkpt lat="43.40305891339731" lon="10.78799110825153"><ele>168.0</ele><time>2026-04-19T12:39:18.001Z</time></trkpt><trkpt lat="43.40313018589769" lon="10.788031105316735"><ele>170.0</ele><time>2026-04-19T12:39:19.001Z</time></trkpt><trkpt lat="43.403195557012204" lon="10.788099765900427"><ele>172.0</ele><time>2026-04-19T12:39:20.001Z</time></trkpt><trkpt lat="43.40325549050174" lon="10.78818570784838"><ele>174.0</ele><time>2026-04-19T12:39:21.001Z</time></trkpt><trkpt lat="43.403313334409454" lon="10.788287266504055"><ele>176.0</ele><time>2026-04-19T12:39:22.001Z</time></trkpt><trkpt lat="43.40336574809677" lon="10.788402834980982"><ele>178.0</ele><time>2026-04-19T12:39:23.001Z</time></trkpt><trkpt lat="43.40342005335276" lon="10.788529668927348"><ele>179.75</ele><time>2026-04-19T12:39:24.001Z</time></trkpt><trkpt lat="43.40347930825657" lon="10.788661281577646"><ele>181.5</ele><time>2026-04-19T12:39:25.001Z</time></trkpt><trkpt lat="43.403543081317665" lon="10.788796840213996"><ele>183.25</ele><time>2026-04-19T12:39:26.001Z</time></trkpt><trkpt lat="43.403610989931906" lon="10.788934442657112"><ele>185.0</ele><time>2026-04-19T12:39:27.001Z</time></trkpt><trkpt lat="43.40368125490707" lon="10.78907573665139"><ele>185.0</ele><time>2026-04-19T12:39:28.001Z</time></trkpt><trkpt lat="43.40375322233161" lon="10.789225461705247"><ele>185.0</ele><time>2026-04-19T12:39:29.001Z</time></trkpt><trkpt lat="43.40382387961058" lon="10.789381425803374"><ele>185.0</ele><time>2026-04-19T12:39:30.001Z</time></trkpt><trkpt lat="43.403885751900255" lon="10.789549467397752"><ele>185.0</ele><time>2026-04-19T12:39:31.001Z</time></trkpt><trkpt lat="43.40393608693909" lon="10.789728510625329"><ele>185.0</ele><time>2026-04-19T12:39:32.001Z</time></trkpt><trkpt lat="43.403980120896534" lon="10.789912463883011"><ele>185.0</ele><time>2026-04-19T12:39:33.001Z</time></trkpt><trkpt lat="43.40403561928975" lon="10.790094795829743"><ele>185.0</ele><time>2026-04-19T12:39:34.001Z</time></trkpt><trkpt lat="43.404107988871445" lon="10.790264274601661"><ele>185.0</ele><time>2026-04-19T12:39:35.001Z</time></trkpt><trkpt lat="43.40419295511221" lon="10.790406132573128"><ele>186.25</ele><time>2026-04-19T12:39:36.001Z</time></trkpt><trkpt lat="43.404290106361614" lon="10.790527078229605"><ele>187.5</ele><time>2026-04-19T12:39:37.001Z</time></trkpt><trkpt lat="43.404387557430425" lon="10.790640394120079"><ele>188.75</ele><time>2026-04-19T12:39:38.001Z</time></trkpt><trkpt lat="43.40448651024259" lon="10.790759312062306"><ele>190.0</ele><time>2026-04-19T12:39:39.002Z</time></trkpt><trkpt lat="43.4045919802937" lon="10.79087887647335"><ele>189.25</ele><time>2026-04-19T12:39:40.002Z</time></trkpt><trkpt lat="43.40469776958435" lon="10.791004932444954"><ele>188.5</ele><time>2026-04-19T12:39:41.002Z</time></trkpt><trkpt lat="43.40479871889121" lon="10.791142042161658"><ele>187.75</ele><time>2026-04-19T12:39:42.002Z</time></trkpt><trkpt lat="43.404891610418446" lon="10.79129546279346"><ele>187.0</ele><time>2026-04-19T12:39:43.002Z</time></trkpt><trkpt lat="43.40497725308944" lon="10.791456258073776"><ele>189.25</ele><time>2026-04-19T12:39:44.002Z</time></trkpt><trkpt lat="43.405069909875884" lon="10.791609179930704"><ele>191.5</ele><time>2026-04-19T12:39:45.002Z</time></trkpt><trkpt lat="43.40517119567348" lon="10.791740128181678"><ele>193.75</ele><time>2026-04-19T12:39:46.002Z</time></trkpt><trkpt lat="43.405277328190294" lon="10.791856893392797"><ele>196.0</ele><time>2026-04-19T12:39:47.002Z</time></trkpt><trkpt lat="43.40536281414242" lon="10.791992309522941"><ele>196.8</ele><time>2026-04-19T12:39:48.002Z</time></trkpt><trkpt lat="43.40540326306333" lon="10.792132272420064"><ele>197.60000000000002</ele><time>2026-04-19T12:39:49.001Z</time></trkpt><trkpt lat="43.40540322758427" lon="10.792280056064905"><ele>198.4</ele><time>2026-04-19T12:39:50.001Z</time></trkpt><trkpt lat="43.40538377137296" lon="10.792434691835778"><ele>199.2</ele><time>2026-04-19T12:39:51.001Z</time></trkpt><trkpt lat="43.40537882864806" lon="10.792592987860653"><ele>200.0</ele><time>2026-04-19T12:39:52.001Z</time></trkpt><trkpt lat="43.40540476422935" lon="10.792751475319207"><ele>200.0</ele><time>2026-04-19T12:39:53.001Z</time></trkpt><trkpt lat="43.40545778353789" lon="10.792905161505928"><ele>200.0</ele><time>2026-04-19T12:39:54.001Z</time></trkpt><trkpt lat="43.40552153314187" lon="10.793056526019878"><ele>200.0</ele><time>2026-04-19T12:39:55.001Z</time></trkpt><trkpt lat="43.405589152800644" lon="10.79319306363456"><ele>200.0</ele><time>2026-04-19T12:39:56.001Z</time></trkpt><trkpt lat="43.4056722738011" lon="10.793308549952545"><ele>200.0</ele><time>2026-04-19T12:39:57.001Z</time></trkpt><trkpt lat="43.405779341914446" lon="10.79338780526569"><ele>200.0</ele><time>2026-04-19T12:39:58.001Z</time></trkpt><trkpt lat="43.40589859723324" lon="10.793427991349883"><ele>200.0</ele><time>2026-04-19T12:39:59.001Z</time></trkpt><trkpt lat="43.406023846256836" lon="10.793426314516745"><ele>200.0</ele><time>2026-04-19T12:40:00.001Z</time></trkpt><trkpt lat="43.40614921700416" lon="10.793416702539758"><ele>200.0</ele><time>2026-04-19T12:40:01.001Z</time></trkpt><trkpt lat="43.40627494721613" lon="10.793422066996115"><ele>200.0</ele><time>2026-04-19T12:40:02.001Z</time></trkpt><trkpt lat="43.40639795289525" lon="10.793425192545085"><ele>200.0</ele><time>2026-04-19T12:40:03.001Z</time></trkpt><trkpt lat="43.40651278496173" lon="10.793439491220527"><ele>200.0</ele><time>2026-04-19T12:40:04.001Z</time></trkpt><trkpt lat="43.4066267642987" lon="10.793453580014559"><ele>201.0</ele><time>2026-04-19T12:40:05.001Z</time></trkpt><trkpt lat="43.40673820498335" lon="10.793500535632361"><ele>202.0</ele><time>2026-04-19T12:40:06.001Z</time></trkpt><trkpt lat="43.40684492467755" lon="10.793575808755591"><ele>203.0</ele><time>2026-04-19T12:40:07.001Z</time></trkpt><trkpt lat="43.40694302677305" lon="10.793674652631388"><ele>204.0</ele><time>2026-04-19T12:40:08.001Z</time></trkpt><trkpt lat="43.4070337900546" lon="10.793793591035776"><ele>203.5</ele><time>2026-04-19T12:40:09.001Z</time></trkpt><trkpt lat="43.407125584762575" lon="10.793921325270151"><ele>203.0</ele><time>2026-04-19T12:40:10.001Z</time></trkpt><trkpt lat="43.407214101498866" lon="10.794057969509625"><ele>202.5</ele><time>2026-04-19T12:40:11.001Z</time></trkpt><trkpt lat="43.407292371278515" lon="10.794215933530507"><ele>202.0</ele><time>2026-04-19T12:40:12.001Z</time></trkpt><trkpt lat="43.4073528442349" lon="10.794400164046225"><ele>202.0</ele><time>2026-04-19T12:40:13.001Z</time></trkpt><trkpt lat="43.40739917331558" lon="10.794601630961894"><ele>202.0</ele><time>2026-04-19T12:40:14.001Z</time></trkpt><trkpt lat="43.40744056996374" lon="10.794813120987241"><ele>202.0</ele><time>2026-04-19T12:40:15.001Z</time></trkpt><trkpt lat="43.407489305993444" lon="10.79502831024907"><ele>200.66666666666666</ele><time>2026-04-19T12:40:16.001Z</time></trkpt><trkpt lat="43.40753555523333" lon="10.795240515566686"><ele>199.33333333333331</ele><time>2026-04-19T12:40:17.001Z</time></trkpt><trkpt lat="43.40758269367674" lon="10.795448038720831"><ele>198.0</ele><time>2026-04-19T12:40:18.001Z</time></trkpt><trkpt lat="43.4076251230722" lon="10.795643900501952"><ele>198.0</ele><time>2026-04-19T12:40:19.001Z</time></trkpt><trkpt lat="43.4076617149824" lon="10.795809542279606"><ele>198.0</ele><time>2026-04-19T12:40:20.001Z</time></trkpt><trkpt lat="43.40770795617296" lon="10.795921843824585"><ele>198.0</ele><time>2026-04-19T12:40:21.001Z</time></trkpt><trkpt lat="43.40778026112045" lon="10.795995764012567"><ele>198.0</ele><time>2026-04-19T12:40:22.001Z</time></trkpt><trkpt lat="43.40787986655173" lon="10.796030047789436"><ele>198.0</ele><time>2026-04-19T12:40:23.001Z</time></trkpt><trkpt lat="43.40799270800067" lon="10.79602329995653"><ele>198.8</ele><time>2026-04-19T12:40:24.001Z</time></trkpt><trkpt lat="43.40810603497913" lon="10.795992074590204"><ele>199.60000000000002</ele><time>2026-04-19T12:40:25.001Z</time></trkpt><trkpt lat="43.40821330369644" lon="10.795942027708564"><ele>200.39999999999998</ele><time>2026-04-19T12:40:26.001Z</time></trkpt><trkpt lat="43.4083113384067" lon="10.795911195349975"><ele>201.2</ele><time>2026-04-19T12:40:27.001Z</time></trkpt><trkpt lat="43.408376319657165" lon="10.795875439690995"><ele>202.0</ele><time>2026-04-19T12:40:28.001Z</time></trkpt><trkpt lat="43.408475489746145" lon="10.795926884240915"><ele>202.0</ele><time>2026-04-19T12:40:30.001Z</time></trkpt><trkpt lat="43.40858739283943" lon="10.795870971668844"><ele>202.0</ele><time>2026-04-19T12:40:32.001Z</time></trkpt><trkpt lat="43.40864627466707" lon="10.795808494005039"><ele>202.0</ele><time>2026-04-19T12:40:33.001Z</time></trkpt><trkpt lat="43.408723413669854" lon="10.795688311686837"><ele>202.0</ele><time>2026-04-19T12:40:35.001Z</time></trkpt><trkpt lat="43.408667760701135" lon="10.795483322783815"><ele>202.0</ele><time>2026-04-19T12:40:36.001Z</time></trkpt><trkpt lat="43.40862759423936" lon="10.795373840239565"><ele>202.0</ele><time>2026-04-19T12:40:37.001Z</time></trkpt><trkpt lat="43.408612671910674" lon="10.7952490285331"><ele>202.0</ele><time>2026-04-19T12:40:38.001Z</time></trkpt><trkpt lat="43.40859302259943" lon="10.795111061937819"><ele>202.0</ele><time>2026-04-19T12:40:39.001Z</time></trkpt><trkpt lat="43.40857001477581" lon="10.794968760111008"><ele>202.0</ele><time>2026-04-19T12:40:40.001Z</time></trkpt><trkpt lat="43.408570590318185" lon="10.794812104089534"><ele>202.8</ele><time>2026-04-19T12:40:41.001Z</time></trkpt><trkpt lat="43.408546100888174" lon="10.794660682441588"><ele>203.6</ele><time>2026-04-19T12:40:42.001Z</time></trkpt><trkpt lat="43.40852354728402" lon="10.79450662960142"><ele>204.4</ele><time>2026-04-19T12:40:43.001Z</time></trkpt><trkpt lat="43.40850739761432" lon="10.79435165176406"><ele>205.20000000000002</ele><time>2026-04-19T12:40:44.001Z</time></trkpt><trkpt lat="43.408513628118634" lon="10.794204798028321"><ele>206.0</ele><time>2026-04-19T12:40:45.001Z</time></trkpt><trkpt lat="43.40851993573075" lon="10.79405392863198"><ele>206.8</ele><time>2026-04-19T12:40:46.001Z</time></trkpt><trkpt lat="43.40852503897046" lon="10.793896403818936"><ele>207.60000000000002</ele><time>2026-04-19T12:40:47.001Z</time></trkpt><trkpt lat="43.40853018479857" lon="10.793737564363623"><ele>208.4</ele><time>2026-04-19T12:40:48.001Z</time></trkpt><trkpt lat="43.4085262689728" lon="10.793578940025466"><ele>209.2</ele><time>2026-04-19T12:40:49.001Z</time></trkpt><trkpt lat="43.40851222122201" lon="10.793438446421826"><ele>210.0</ele><time>2026-04-19T12:40:50.001Z</time></trkpt><trkpt lat="43.408463804326956" lon="10.793314290336843"><ele>210.0</ele><time>2026-04-19T12:40:51.001Z</time></trkpt><trkpt lat="43.40841263171703" lon="10.793215990852534"><ele>210.0</ele><time>2026-04-19T12:40:52.001Z</time></trkpt><trkpt lat="43.408365952688335" lon="10.793129988450525"><ele>210.0</ele><time>2026-04-19T12:40:53.001Z</time></trkpt><trkpt lat="43.40831647628198" lon="10.793044542162049"><ele>210.0</ele><time>2026-04-19T12:40:54.001Z</time></trkpt><trkpt lat="43.408265364655435" lon="10.792950359682465"><ele>210.0</ele><time>2026-04-19T12:40:55.001Z</time></trkpt><trkpt lat="43.40822501196612" lon="10.792842406872506"><ele>210.0</ele><time>2026-04-19T12:40:56.001Z</time></trkpt><trkpt lat="43.40820429863881" lon="10.792719891611455"><ele>210.0</ele><time>2026-04-19T12:40:57.001Z</time></trkpt><trkpt lat="43.408202108855285" lon="10.792581347026603"><ele>210.0</ele><time>2026-04-19T12:40:58.001Z</time></trkpt><trkpt lat="43.40820390259349" lon="10.79242977591239"><ele>210.0</ele><time>2026-04-19T12:40:59.001Z</time></trkpt><trkpt lat="43.40820773602358" lon="10.792277571176076"><ele>210.0</ele><time>2026-04-19T12:41:00.001Z</time></trkpt><trkpt lat="43.40822010923687" lon="10.792128904910548"><ele>210.0</ele><time>2026-04-19T12:41:01.001Z</time></trkpt><trkpt lat="43.40824941630354" lon="10.792000892270632"><ele>210.0</ele><time>2026-04-19T12:41:02.001Z</time></trkpt><trkpt lat="43.40829375668631" lon="10.791889214077388"><ele>210.0</ele><time>2026-04-19T12:41:03.001Z</time></trkpt><trkpt lat="43.40835802660861" lon="10.791799570737053"><ele>210.0</ele><time>2026-04-19T12:41:04.001Z</time></trkpt><trkpt lat="43.408434408450404" lon="10.791688089628707"><ele>210.0</ele><time>2026-04-19T12:41:05.001Z</time></trkpt><trkpt lat="43.40851005200007" lon="10.791569655302267"><ele>210.0</ele><time>2026-04-19T12:41:06.001Z</time></trkpt><trkpt lat="43.40858056971227" lon="10.791450687442385"><ele>210.75</ele><time>2026-04-19T12:41:07.001Z</time></trkpt><trkpt lat="43.40864498629722" lon="10.791328031251593"><ele>211.5</ele><time>2026-04-19T12:41:08.001Z</time></trkpt><trkpt lat="43.408702780837324" lon="10.791190048267296"><ele>212.25</ele><time>2026-04-19T12:41:09.001Z</time></trkpt><trkpt lat="43.40874812591547" lon="10.791039838707745"><ele>213.0</ele><time>2026-04-19T12:41:10.001Z</time></trkpt><trkpt lat="43.40878561214387" lon="10.790880483990621"><ele>215.0</ele><time>2026-04-19T12:41:11.001Z</time></trkpt><trkpt lat="43.40882176602807" lon="10.790716717456082"><ele>217.0</ele><time>2026-04-19T12:41:12.001Z</time></trkpt><trkpt lat="43.40885609176482" lon="10.79056402784731"><ele>219.0</ele><time>2026-04-19T12:41:13.001Z</time></trkpt><trkpt lat="43.40889415233228" lon="10.79042498508608"><ele>221.0</ele><time>2026-04-19T12:41:14.001Z</time></trkpt><trkpt lat="43.40893967080368" lon="10.790293778890288"><ele>218.4</ele><time>2026-04-19T12:41:15.001Z</time></trkpt><trkpt lat="43.4089780311615" lon="10.790162828956172"><ele>215.8</ele><time>2026-04-19T12:41:16.001Z</time></trkpt><trkpt lat="43.40901542465201" lon="10.790034782107464"><ele>213.20000000000002</ele><time>2026-04-19T12:41:17.001Z</time></trkpt><trkpt lat="43.409053103026345" lon="10.789901387907948"><ele>210.60000000000002</ele><time>2026-04-19T12:41:18.001Z</time></trkpt><trkpt lat="43.40908726777595" lon="10.78975974244819"><ele>208.0</ele><time>2026-04-19T12:41:19.001Z</time></trkpt><trkpt lat="43.4091166421732" lon="10.78964523672812"><ele>207.99999999999997</ele><time>2026-04-19T12:41:20.001Z</time></trkpt><trkpt lat="43.40914902715253" lon="10.789555399558784"><ele>208.0</ele><time>2026-04-19T12:41:21.001Z</time></trkpt><trkpt lat="43.409200994850124" lon="10.789490316405791"><ele>208.0</ele><time>2026-04-19T12:41:22.001Z</time></trkpt><trkpt lat="43.40927086163654" lon="10.789414522464801"><ele>208.0</ele><time>2026-04-19T12:41:23.001Z</time></trkpt><trkpt lat="43.40936357130621" lon="10.789374198738559"><ele>207.99999999999997</ele><time>2026-04-19T12:41:24.001Z</time></trkpt><trkpt lat="43.409457457551866" lon="10.789303100511008"><ele>208.0</ele><time>2026-04-19T12:41:25.001Z</time></trkpt><trkpt lat="43.409557520310685" lon="10.78923542036843"><ele>208.4</ele><time>2026-04-19T12:41:26.001Z</time></trkpt><trkpt lat="43.40965783740781" lon="10.789170677853184"><ele>208.8</ele><time>2026-04-19T12:41:27.001Z</time></trkpt><trkpt lat="43.40976225025193" lon="10.789157881537625"><ele>209.2</ele><time>2026-04-19T12:41:28.001Z</time></trkpt><trkpt lat="43.40985632198824" lon="10.789204485757297"><ele>209.6</ele><time>2026-04-19T12:41:29.001Z</time></trkpt><trkpt lat="43.40994743547905" lon="10.789267461369118"><ele>210.0</ele><time>2026-04-19T12:41:30.001Z</time></trkpt><trkpt lat="43.41003316204874" lon="10.789348064429605"><ele>208.0</ele><time>2026-04-19T12:41:31.001Z</time></trkpt><trkpt lat="43.41012311312146" lon="10.789431735191167"><ele>206.0</ele><time>2026-04-19T12:41:32.001Z</time></trkpt><trkpt lat="43.41021754175697" lon="10.789520157087333"><ele>204.0</ele><time>2026-04-19T12:41:33.001Z</time></trkpt><trkpt lat="43.410321217276696" lon="10.78961468103563"><ele>202.0</ele><time>2026-04-19T12:41:34.001Z</time></trkpt><trkpt lat="43.41042750013755" lon="10.789684442344397"><ele>204.25</ele><time>2026-04-19T12:41:35.001Z</time></trkpt><trkpt lat="43.41053143048383" lon="10.789776117885406"><ele>206.5</ele><time>2026-04-19T12:41:36.001Z</time></trkpt><trkpt lat="43.410632335966476" lon="10.789866733001425"><ele>208.75</ele><time>2026-04-19T12:41:37.001Z</time></trkpt><trkpt lat="43.4107324983958" lon="10.789949215631989"><ele>211.0</ele><time>2026-04-19T12:41:38.001Z</time></trkpt><trkpt lat="43.41082492054409" lon="10.790046177584255"><ele>211.0</ele><time>2026-04-19T12:41:39.001Z</time></trkpt><trkpt lat="43.410912830109616" lon="10.790148068836137"><ele>211.0</ele><time>2026-04-19T12:41:40.001Z</time></trkpt><trkpt lat="43.411001553823446" lon="10.790223539575972"><ele>211.0</ele><time>2026-04-19T12:41:41.001Z</time></trkpt><trkpt lat="43.41109504100269" lon="10.79029801774564"><ele>211.0</ele><time>2026-04-19T12:41:42Z</time></trkpt><trkpt lat="43.41119554119481" lon="10.790355030142834"><ele>211.0</ele><time>2026-04-19T12:41:43Z</time></trkpt><trkpt lat="43.41128684171115" lon="10.790405253588688"><ele>209.66666666666666</ele><time>2026-04-19T12:41:44Z</time></trkpt><trkpt lat="43.41135914699047" lon="10.790435487729159"><ele>208.33333333333331</ele><time>2026-04-19T12:41:45Z</time></trkpt><trkpt lat="43.41143390153318" lon="10.790427037586399"><ele>207.0</ele><time>2026-04-19T12:41:46Z</time></trkpt><trkpt lat="43.41150580555049" lon="10.790378174605447"><ele>205.66666666666669</ele><time>2026-04-19T12:41:47Z</time></trkpt><trkpt lat="43.411595581174126" lon="10.790325578413805"><ele>204.33333333333334</ele><time>2026-04-19T12:41:48Z</time></trkpt><trkpt lat="43.41168541877261" lon="10.790258251063667"><ele>203.0</ele><time>2026-04-19T12:41:49Z</time></trkpt><trkpt lat="43.41176977100296" lon="10.790187338732045"><ele>204.2</ele><time>2026-04-19T12:41:50Z</time></trkpt><trkpt lat="43.41184193043969" lon="10.790105979854914"><ele>205.4</ele><time>2026-04-19T12:41:51Z</time></trkpt><trkpt lat="43.411895463169905" lon="10.789993887382545"><ele>206.6</ele><time>2026-04-19T12:41:52Z</time></trkpt><trkpt lat="43.41192967726558" lon="10.789862127920072"><ele>207.79999999999998</ele><time>2026-04-19T12:41:53Z</time></trkpt><trkpt lat="43.41195539602367" lon="10.78971885467903"><ele>209.0</ele><time>2026-04-19T12:41:54Z</time></trkpt><trkpt lat="43.4119802766904" lon="10.789571308872292"><ele>209.0</ele><time>2026-04-19T12:41:54.999Z</time></trkpt><trkpt lat="43.41199911047924" lon="10.789419476433613"><ele>209.0</ele><time>2026-04-19T12:41:55.999Z</time></trkpt><trkpt lat="43.41201031672987" lon="10.789273756475536"><ele>209.0</ele><time>2026-04-19T12:41:56.999Z</time></trkpt><trkpt lat="43.41201941797922" lon="10.789124749999083"><ele>209.0</ele><time>2026-04-19T12:41:57.999Z</time></trkpt><trkpt lat="43.412027754731426" lon="10.788974941870041"><ele>209.0</ele><time>2026-04-19T12:41:58.999Z</time></trkpt><trkpt lat="43.41203503094623" lon="10.788830514167284"><ele>209.33333333333334</ele><time>2026-04-19T12:41:59.999Z</time></trkpt><trkpt lat="43.41204209154647" lon="10.788709152254679"><ele>209.66666666666669</ele><time>2026-04-19T12:42:00.999Z</time></trkpt><trkpt lat="43.41205037723777" lon="10.788591912945513"><ele>210.0</ele><time>2026-04-19T12:42:01.999Z</time></trkpt><trkpt lat="43.41205262694186" lon="10.788474083979404"><ele>210.33333333333331</ele><time>2026-04-19T12:42:02.999Z</time></trkpt><trkpt lat="43.41206669217778" lon="10.788369459368164"><ele>210.66666666666666</ele><time>2026-04-19T12:42:03.999Z</time></trkpt><trkpt lat="43.41209717035799" lon="10.788282035632495"><ele>211.0</ele><time>2026-04-19T12:42:04.999Z</time></trkpt><trkpt lat="43.41213696337603" lon="10.788187746201551"><ele>207.4</ele><time>2026-04-19T12:42:05.999Z</time></trkpt><trkpt lat="43.412185844736754" lon="10.788086275266393"><ele>203.8</ele><time>2026-04-19T12:42:06.999Z</time></trkpt><trkpt lat="43.412245052303575" lon="10.787984456420384"><ele>200.20000000000002</ele><time>2026-04-19T12:42:07.999Z</time></trkpt><trkpt lat="43.41230524616948" lon="10.787877190115795"><ele>196.60000000000002</ele><time>2026-04-19T12:42:08.999Z</time></trkpt><trkpt lat="43.412356769823816" lon="10.78776736420514"><ele>193.0</ele><time>2026-04-19T12:42:09.999Z</time></trkpt><trkpt lat="43.41239229803151" lon="10.787645802238389"><ele>192.83333333333331</ele><time>2026-04-19T12:42:10.999Z</time></trkpt><trkpt lat="43.412394509236506" lon="10.78750157379433"><ele>192.66666666666666</ele><time>2026-04-19T12:42:11.999Z</time></trkpt><trkpt lat="43.4123817000403" lon="10.787371153273481"><ele>192.5</ele><time>2026-04-19T12:42:12.999Z</time></trkpt><trkpt lat="43.41237454770369" lon="10.787270071220732"><ele>192.33333333333331</ele><time>2026-04-19T12:42:13.999Z</time></trkpt><trkpt lat="43.412373051032915" lon="10.787169914784315"><ele>192.16666666666666</ele><time>2026-04-19T12:42:14.999Z</time></trkpt><trkpt lat="43.41239113625456" lon="10.787086844712311"><ele>192.0</ele><time>2026-04-19T12:42:15.999Z</time></trkpt><trkpt lat="43.412472437680684" lon="10.78696309152602"><ele>192.0</ele><time>2026-04-19T12:42:17.999Z</time></trkpt><trkpt lat="43.41252987835494" lon="10.786907583877309"><ele>192.0</ele><time>2026-04-19T12:42:18.999Z</time></trkpt><trkpt lat="43.41263877962789" lon="10.786819190721014"><ele>192.0</ele><time>2026-04-19T12:42:20.999Z</time></trkpt><trkpt lat="43.41271079283999" lon="10.786762406181609"><ele>192.0</ele><time>2026-04-19T12:42:21.999Z</time></trkpt><trkpt lat="43.41279390767226" lon="10.786698304823997"><ele>192.0</ele><time>2026-04-19T12:42:22.999Z</time></trkpt><trkpt lat="43.41288433865781" lon="10.786628560960994"><ele>193.0</ele><time>2026-04-19T12:42:23.999Z</time></trkpt><trkpt lat="43.41297774063078" lon="10.786550027899818"><ele>194.0</ele><time>2026-04-19T12:42:24.999Z</time></trkpt><trkpt lat="43.41307344523458" lon="10.78646306290438"><ele>195.0</ele><time>2026-04-19T12:42:25.999Z</time></trkpt><trkpt lat="43.413163757878436" lon="10.78638206964442"><ele>196.0</ele><time>2026-04-19T12:42:26.999Z</time></trkpt><trkpt lat="43.41325251464475" lon="10.78630836122709"><ele>197.0</ele><time>2026-04-19T12:42:27.999Z</time></trkpt><trkpt lat="43.41334336741048" lon="10.78623114971559"><ele>194.25</ele><time>2026-04-19T12:42:28.999Z</time></trkpt><trkpt lat="43.41344183552289" lon="10.78622489545211"><ele>191.5</ele><time>2026-04-19T12:42:29.999Z</time></trkpt><trkpt lat="43.41355921267894" lon="10.786254981557505"><ele>188.75</ele><time>2026-04-19T12:42:30.999Z</time></trkpt><trkpt lat="43.41367805875061" lon="10.786296244997203"><ele>186.0</ele><time>2026-04-19T12:42:31.999Z</time></trkpt><trkpt lat="43.41379886754105" lon="10.78631541671868"><ele>184.75</ele><time>2026-04-19T12:42:32.999Z</time></trkpt><trkpt lat="43.41393344059637" lon="10.786297095454627"><ele>183.5</ele><time>2026-04-19T12:42:33.999Z</time></trkpt><trkpt lat="43.41407358856703" lon="10.786257511729051"><ele>182.25</ele><time>2026-04-19T12:42:34.999Z</time></trkpt><trkpt lat="43.41421954194698" lon="10.786224818422708"><ele>181.0</ele><time>2026-04-19T12:42:35.999Z</time></trkpt><trkpt lat="43.41437235390747" lon="10.786198540038082"><ele>181.0</ele><time>2026-04-19T12:42:36.999Z</time></trkpt><trkpt lat="43.414528103466104" lon="10.786198149639494"><ele>181.0</ele><time>2026-04-19T12:42:37.999Z</time></trkpt><trkpt lat="43.41468157928168" lon="10.786210742752864"><ele>181.0</ele><time>2026-04-19T12:42:38.999Z</time></trkpt><trkpt lat="43.4148296817209" lon="10.78625370957187"><ele>180.66666666666669</ele><time>2026-04-19T12:42:39.999Z</time></trkpt><trkpt lat="43.41497808321572" lon="10.786292086490208"><ele>180.33333333333334</ele><time>2026-04-19T12:42:40.999Z</time></trkpt><trkpt lat="43.415130136095854" lon="10.78632918472865"><ele>180.0</ele><time>2026-04-19T12:42:41.999Z</time></trkpt><trkpt lat="43.41528555305027" lon="10.786353371631694"><ele>180.0</ele><time>2026-04-19T12:42:42.999Z</time></trkpt><trkpt lat="43.415440506761236" lon="10.786385190692222"><ele>180.0</ele><time>2026-04-19T12:42:43.999Z</time></trkpt><trkpt lat="43.415598417930724" lon="10.786424925572168"><ele>180.0</ele><time>2026-04-19T12:42:44.999Z</time></trkpt><trkpt lat="43.415756425366176" lon="10.786467789025531"><ele>181.66666666666666</ele><time>2026-04-19T12:42:45.999Z</time></trkpt><trkpt lat="43.41591390710193" lon="10.786501741225202"><ele>183.33333333333331</ele><time>2026-04-19T12:42:47Z</time></trkpt><trkpt lat="43.41605844905471" lon="10.786530495216379"><ele>185.0</ele><time>2026-04-19T12:42:48Z</time></trkpt><trkpt lat="43.41620112145622" lon="10.786565185412716"><ele>184.25</ele><time>2026-04-19T12:42:49Z</time></trkpt><trkpt lat="43.41634495314919" lon="10.786613847147002"><ele>183.5</ele><time>2026-04-19T12:42:50Z</time></trkpt><trkpt lat="43.41647753271214" lon="10.786709692691817"><ele>182.75</ele><time>2026-04-19T12:42:51Z</time></trkpt><trkpt lat="43.41660952070771" lon="10.786803777167773"><ele>182.0</ele><time>2026-04-19T12:42:52Z</time></trkpt><trkpt lat="43.41673195682507" lon="10.786903044606863"><ele>182.0</ele><time>2026-04-19T12:42:53Z</time></trkpt><trkpt lat="43.416859670281056" lon="10.787004998569396"><ele>182.0</ele><time>2026-04-19T12:42:54Z</time></trkpt><trkpt lat="43.41698082431601" lon="10.787106314431579"><ele>182.0</ele><time>2026-04-19T12:42:55Z</time></trkpt><trkpt lat="43.41710305015969" lon="10.787204981173637"><ele>182.0</ele><time>2026-04-19T12:42:56Z</time></trkpt><trkpt lat="43.417224100142235" lon="10.78729116020066"><ele>184.5</ele><time>2026-04-19T12:42:57Z</time></trkpt><trkpt lat="43.4173380645877" lon="10.787366171134208"><ele>187.0</ele><time>2026-04-19T12:42:58Z</time></trkpt><trkpt lat="43.41744381866089" lon="10.787435716103106"><ele>189.5</ele><time>2026-04-19T12:42:59Z</time></trkpt><trkpt lat="43.41755853657339" lon="10.787499555517424"><ele>192.0</ele><time>2026-04-19T12:43:00Z</time></trkpt><trkpt lat="43.417678228623764" lon="10.787544081867269"><ele>192.0</ele><time>2026-04-19T12:43:01Z</time></trkpt><trkpt lat="43.41780145542576" lon="10.787593407012482"><ele>192.0</ele><time>2026-04-19T12:43:02Z</time></trkpt><trkpt lat="43.41791953840687" lon="10.787658042045503"><ele>192.0</ele><time>2026-04-19T12:43:03Z</time></trkpt><trkpt lat="43.41802792686413" lon="10.787734586418225"><ele>192.0</ele><time>2026-04-19T12:43:04Z</time></trkpt><trkpt lat="43.41811476300162" lon="10.78784178121165"><ele>192.5</ele><time>2026-04-19T12:43:05Z</time></trkpt><trkpt lat="43.41818782788997" lon="10.78797357472362"><ele>193.0</ele><time>2026-04-19T12:43:06Z</time></trkpt><trkpt lat="43.418252516179514" lon="10.788117229564547"><ele>193.5</ele><time>2026-04-19T12:43:07Z</time></trkpt><trkpt lat="43.418318226217025" lon="10.788259991226662"><ele>194.0</ele><time>2026-04-19T12:43:08Z</time></trkpt><trkpt lat="43.41840897055876" lon="10.788385831098303"><ele>194.0</ele><time>2026-04-19T12:43:09Z</time></trkpt><trkpt lat="43.4185191850897" lon="10.78849316896458"><ele>194.0</ele><time>2026-04-19T12:43:10Z</time></trkpt><trkpt lat="43.41864507201004" lon="10.788571436815404"><ele>194.0</ele><time>2026-04-19T12:43:11Z</time></trkpt><trkpt lat="43.41878897743761" lon="10.788614014419913"><ele>194.0</ele><time>2026-04-19T12:43:12Z</time></trkpt><trkpt lat="43.418936065797524" lon="10.788645601680498"><ele>193.0</ele><time>2026-04-19T12:43:13Z</time></trkpt><trkpt lat="43.419081223669956" lon="10.78868402453169"><ele>192.0</ele><time>2026-04-19T12:43:14Z</time></trkpt><trkpt lat="43.41922141391884" lon="10.788735516460012"><ele>191.0</ele><time>2026-04-19T12:43:15Z</time></trkpt><trkpt lat="43.4193531711149" lon="10.788823842355635"><ele>190.0</ele><time>2026-04-19T12:43:16Z</time></trkpt><trkpt lat="43.41948302294963" lon="10.788929768289922"><ele>190.0</ele><time>2026-04-19T12:43:17Z</time></trkpt><trkpt lat="43.4196123214169" lon="10.789048041093155"><ele>190.0</ele><time>2026-04-19T12:43:18Z</time></trkpt><trkpt lat="43.41974219038451" lon="10.789164098286035"><ele>190.0</ele><time>2026-04-19T12:43:19Z</time></trkpt><trkpt lat="43.4198751770523" lon="10.789280024823027"><ele>191.33333333333334</ele><time>2026-04-19T12:43:20Z</time></trkpt><trkpt lat="43.42000623496834" lon="10.789397778512889"><ele>192.66666666666669</ele><time>2026-04-19T12:43:21Z</time></trkpt><trkpt lat="43.42013947600304" lon="10.789510145945304"><ele>194.0</ele><time>2026-04-19T12:43:22Z</time></trkpt><trkpt lat="43.420275631035345" lon="10.78962172115638"><ele>194.0</ele><time>2026-04-19T12:43:23Z</time></trkpt><trkpt lat="43.420407376856545" lon="10.78974211182861"><ele>194.0</ele><time>2026-04-19T12:43:24Z</time></trkpt><trkpt lat="43.420541858415866" lon="10.789858171931094"><ele>194.0</ele><time>2026-04-19T12:43:25Z</time></trkpt><trkpt lat="43.42067986346245" lon="10.789966186782538"><ele>195.25</ele><time>2026-04-19T12:43:26Z</time></trkpt><trkpt lat="43.420814864494695" lon="10.790066544173907"><ele>196.5</ele><time>2026-04-19T12:43:27Z</time></trkpt><trkpt lat="43.42094481590818" lon="10.790159346192493"><ele>197.75</ele><time>2026-04-19T12:43:28Z</time></trkpt><trkpt lat="43.421072458160275" lon="10.790250493313788"><ele>199.0</ele><time>2026-04-19T12:43:29Z</time></trkpt><trkpt lat="43.4211999712537" lon="10.79034266373779"><ele>200.0</ele><time>2026-04-19T12:43:30Z</time></trkpt><trkpt lat="43.42132851902276" lon="10.79043380753596"><ele>201.0</ele><time>2026-04-19T12:43:31Z</time></trkpt><trkpt lat="43.421456264197175" lon="10.790529053578041"><ele>202.0</ele><time>2026-04-19T12:43:32Z</time></trkpt><trkpt lat="43.421579324785135" lon="10.790621221852495"><ele>203.0</ele><time>2026-04-19T12:43:33Z</time></trkpt><trkpt lat="43.42169699197596" lon="10.790715830781034"><ele>203.0</ele><time>2026-04-19T12:43:34Z</time></trkpt><trkpt lat="43.421815404250296" lon="10.790807287715007"><ele>203.0</ele><time>2026-04-19T12:43:35Z</time></trkpt><trkpt lat="43.42193448739051" lon="10.790885949238044"><ele>203.0</ele><time>2026-04-19T12:43:36Z</time></trkpt><trkpt lat="43.42205133358765" lon="10.790949507119537"><ele>203.0</ele><time>2026-04-19T12:43:37Z</time></trkpt><trkpt lat="43.422170792889254" lon="10.791000920783361"><ele>201.50000000000003</ele><time>2026-04-19T12:43:38Z</time></trkpt><trkpt lat="43.42226552379293" lon="10.791064204895571"><ele>200.0</ele><time>2026-04-19T12:43:39Z</time></trkpt><trkpt lat="43.422349453860186" lon="10.791132319419821"><ele>198.5</ele><time>2026-04-19T12:43:40Z</time></trkpt><trkpt lat="43.42241377037747" lon="10.791211273403285"><ele>197.0</ele><time>2026-04-19T12:43:41Z</time></trkpt><trkpt lat="43.422467438807715" lon="10.791269481056188"><ele>195.50000000000003</ele><time>2026-04-19T12:43:43Z</time></trkpt><trkpt lat="43.422526818801146" lon="10.791327471457935"><ele>194.0</ele><time>2026-04-19T12:43:45Z</time></trkpt><trkpt lat="43.42258093031779" lon="10.791372039561987"><ele>194.00000000000003</ele><time>2026-04-19T12:43:46Z</time></trkpt><trkpt lat="43.42264517312495" lon="10.791416182204646"><ele>194.0</ele><time>2026-04-19T12:43:47Z</time></trkpt><trkpt lat="43.42271378278545" lon="10.79145843207761"><ele>194.0</ele><time>2026-04-19T12:43:48Z</time></trkpt><trkpt lat="43.42278592919163" lon="10.791499580387088"><ele>194.0</ele><time>2026-04-19T12:43:49Z</time></trkpt><trkpt lat="43.422861061680265" lon="10.791541805995045"><ele>194.00000000000003</ele><time>2026-04-19T12:43:50Z</time></trkpt><trkpt lat="43.422933426445795" lon="10.791581276331675"><ele>194.0</ele><time>2026-04-19T12:43:51Z</time></trkpt><trkpt lat="43.42300215964307" lon="10.791624719074328"><ele>194.16666666666669</ele><time>2026-04-19T12:43:52Z</time></trkpt><trkpt lat="43.42307143566059" lon="10.791651265284006"><ele>194.33333333333334</ele><time>2026-04-19T12:43:53Z</time></trkpt><trkpt lat="43.423144851512575" lon="10.791662791762255"><ele>194.5</ele><time>2026-04-19T12:43:54Z</time></trkpt><trkpt lat="43.42322317339879" lon="10.79167611445967"><ele>194.66666666666669</ele><time>2026-04-19T12:43:55Z</time></trkpt><trkpt lat="43.423303879782715" lon="10.791704730881431"><ele>194.83333333333334</ele><time>2026-04-19T12:43:56Z</time></trkpt><trkpt lat="43.42337678625053" lon="10.791746201692076"><ele>195.0</ele><time>2026-04-19T12:43:57Z</time></trkpt><trkpt lat="43.42347626584695" lon="10.791828866172963"><ele>195.0</ele><time>2026-04-19T12:43:59Z</time></trkpt><trkpt lat="43.42352492726005" lon="10.791884006460567"><ele>195.0</ele><time>2026-04-19T12:44:00Z</time></trkpt><trkpt lat="43.423575998911396" lon="10.7919517957669"><ele>195.0</ele><time>2026-04-19T12:44:00.998Z</time></trkpt><trkpt lat="43.42362808865037" lon="10.79202625295649"><ele>195.0</ele><time>2026-04-19T12:44:01.998Z</time></trkpt><trkpt lat="43.42368677205483" lon="10.79209670814675"><ele>195.0</ele><time>2026-04-19T12:44:02.998Z</time></trkpt><trkpt lat="43.423755122129116" lon="10.792154446333269"><ele>195.0</ele><time>2026-04-19T12:44:03.998Z</time></trkpt><trkpt lat="43.423828318454404" lon="10.792204640007625"><ele>195.0</ele><time>2026-04-19T12:44:04.998Z</time></trkpt><trkpt lat="43.42390298318011" lon="10.79224593469068"><ele>195.0</ele><time>2026-04-19T12:44:05.998Z</time></trkpt><trkpt lat="43.42397600219599" lon="10.792283620130169"><ele>195.0</ele><time>2026-04-19T12:44:06.998Z</time></trkpt><trkpt lat="43.42404648773323" lon="10.79231504043075"><ele>195.0</ele><time>2026-04-19T12:44:07.998Z</time></trkpt><trkpt lat="43.424110671922676" lon="10.792337830743914"><ele>195.0</ele><time>2026-04-19T12:44:08.999Z</time></trkpt><trkpt lat="43.42422840877288" lon="10.792376255442527"><ele>195.0</ele><time>2026-04-19T12:44:10.999Z</time></trkpt><trkpt lat="43.42434203480184" lon="10.79246617140841"><ele>195.0</ele><time>2026-04-19T12:44:12.999Z</time></trkpt><trkpt lat="43.42439731911436" lon="10.792537541769565"><ele>195.0</ele><time>2026-04-19T12:44:13.999Z</time></trkpt><trkpt lat="43.42445057518562" lon="10.792613972132022"><ele>195.0</ele><time>2026-04-19T12:44:14.999Z</time></trkpt><trkpt lat="43.42449814702062" lon="10.792690958363114"><ele>195.0</ele><time>2026-04-19T12:44:15.999Z</time></trkpt><trkpt lat="43.42454329515748" lon="10.792764532845766"><ele>195.0</ele><time>2026-04-19T12:44:16.999Z</time></trkpt><trkpt lat="43.42458750649414" lon="10.792833201742425"><ele>195.0</ele><time>2026-04-19T12:44:17.999Z</time></trkpt><trkpt lat="43.424634541778644" lon="10.792894101542648"><ele>195.0</ele><time>2026-04-19T12:44:18.999Z</time></trkpt><trkpt lat="43.4247370906804" lon="10.793004821048598"><ele>195.16666666666666</ele><time>2026-04-19T12:44:20.999Z</time></trkpt><trkpt lat="43.42478957833118" lon="10.793059016797375"><ele>195.33333333333331</ele><time>2026-04-19T12:44:21.999Z</time></trkpt><trkpt lat="43.42484662724216" lon="10.79310923722388"><ele>195.5</ele><time>2026-04-19T12:44:22.999Z</time></trkpt><trkpt lat="43.42490917023064" lon="10.793187534726824"><ele>195.66666666666666</ele><time>2026-04-19T12:44:24.999Z</time></trkpt><trkpt lat="43.42496235243786" lon="10.793247967349481"><ele>195.83333333333331</ele><time>2026-04-19T12:44:39.999Z</time></trkpt><trkpt lat="43.42503344450137" lon="10.793326887035574"><ele>196.0</ele><time>2026-04-19T12:44:41.999Z</time></trkpt><trkpt lat="43.42511798992415" lon="10.793415363926503"><ele>196.0</ele><time>2026-04-19T12:44:43.999Z</time></trkpt><trkpt lat="43.42520927002328" lon="10.793477082375674"><ele>196.0</ele><time>2026-04-19T12:44:45.999Z</time></trkpt><trkpt lat="43.42530118873782" lon="10.793497237694183"><ele>196.0</ele><time>2026-04-19T12:44:47.999Z</time></trkpt><trkpt lat="43.42537522872724" lon="10.7934816545306"><ele>196.0</ele><time>2026-04-19T12:44:49.999Z</time></trkpt><trkpt lat="43.42543311269653" lon="10.793407435628541"><ele>196.0</ele><time>2026-04-19T12:44:51.999Z</time></trkpt><trkpt lat="43.42550298948216" lon="10.793304445258963"><ele>195.16666666666666</ele><time>2026-04-19T12:44:53.999Z</time></trkpt><trkpt lat="43.42554113978509" lon="10.793220322797902"><ele>194.33333333333331</ele><time>2026-04-19T12:44:54.999Z</time></trkpt><trkpt lat="43.42558005865401" lon="10.793127418797564"><ele>193.5</ele><time>2026-04-19T12:44:55.999Z</time></trkpt><trkpt lat="43.42561757358383" lon="10.793023986695024"><ele>192.66666666666666</ele><time>2026-04-19T12:44:56.999Z</time></trkpt><trkpt lat="43.42565529244001" lon="10.792913242228671"><ele>191.83333333333331</ele><time>2026-04-19T12:44:57.999Z</time></trkpt><trkpt lat="43.42569310417124" lon="10.792806143541185"><ele>191.0</ele><time>2026-04-19T12:44:58.999Z</time></trkpt><trkpt lat="43.42573291937527" lon="10.792706122801704"><ele>191.33333333333331</ele><time>2026-04-19T12:44:59.999Z</time></trkpt><trkpt lat="43.42577681165935" lon="10.7926016104071"><ele>191.66666666666666</ele><time>2026-04-19T12:45:00.999Z</time></trkpt><trkpt lat="43.42582031226656" lon="10.792490648582616"><ele>192.0</ele><time>2026-04-19T12:45:01.999Z</time></trkpt><trkpt lat="43.42586133858346" lon="10.792380493940726"><ele>192.33333333333331</ele><time>2026-04-19T12:45:02.999Z</time></trkpt><trkpt lat="43.425899607671454" lon="10.79227780755775"><ele>192.66666666666666</ele><time>2026-04-19T12:45:03.999Z</time></trkpt><trkpt lat="43.4259359446829" lon="10.79218647179999"><ele>193.0</ele><time>2026-04-19T12:45:04.999Z</time></trkpt><trkpt lat="43.42598968799929" lon="10.792065779733642"><ele>192.99999999999997</ele><time>2026-04-19T12:45:06.999Z</time></trkpt><trkpt lat="43.426042638004866" lon="10.791947113862074"><ele>193.0</ele><time>2026-04-19T12:45:08.999Z</time></trkpt><trkpt lat="43.426109742972756" lon="10.791801847205202"><ele>193.0</ele><time>2026-04-19T12:45:10.999Z</time></trkpt><trkpt lat="43.426146310460524" lon="10.79172328150518"><ele>193.0</ele><time>2026-04-19T12:45:12Z</time></trkpt><trkpt lat="43.426184886674115" lon="10.791634576747226"><ele>192.99999999999997</ele><time>2026-04-19T12:45:12.999Z</time></trkpt><trkpt lat="43.426215993096946" lon="10.79155012264612"><ele>193.0</ele><time>2026-04-19T12:45:14Z</time></trkpt><trkpt lat="43.426259378958804" lon="10.791400572193433"><ele>192.66666666666666</ele><time>2026-04-19T12:45:16Z</time></trkpt><trkpt lat="43.426284075329626" lon="10.791304667178231"><ele>192.33333333333331</ele><time>2026-04-19T12:45:18Z</time></trkpt><trkpt lat="43.426305153385115" lon="10.791219942918893"><ele>192.0</ele><time>2026-04-19T12:45:21Z</time></trkpt><trkpt lat="43.426331826581475" lon="10.7911131285446"><ele>191.66666666666666</ele><time>2026-04-19T12:45:23Z</time></trkpt><trkpt lat="43.426370730918954" lon="10.790960650269819"><ele>191.33333333333331</ele><time>2026-04-19T12:45:25Z</time></trkpt><trkpt lat="43.42639191861384" lon="10.790877608784635"><ele>191.0</ele><time>2026-04-19T12:45:26Z</time></trkpt><trkpt lat="43.426426729347995" lon="10.790736108267932"><ele>190.5</ele><time>2026-04-19T12:45:28Z</time></trkpt><trkpt lat="43.42645531136823" lon="10.790615594115176"><ele>190.0</ele><time>2026-04-19T12:45:31Z</time></trkpt><trkpt lat="43.42647660616123" lon="10.79052580678823"><ele>189.5</ele><time>2026-04-19T12:45:33Z</time></trkpt><trkpt lat="43.42650670554196" lon="10.7904287376502"><ele>189.0</ele><time>2026-04-19T12:45:36Z</time></trkpt><trkpt lat="43.42653681911385" lon="10.790326961488836"><ele>188.5</ele><time>2026-04-19T12:45:38Z</time></trkpt><trkpt lat="43.426565404558886" lon="10.790185659403862"><ele>188.0</ele><time>2026-04-19T12:45:40Z</time></trkpt><trkpt lat="43.426576107411506" lon="10.790061954213547"><ele>188.0</ele><time>2026-04-19T12:45:42Z</time></trkpt><trkpt lat="43.426576151011666" lon="10.78997018467096"><ele>188.0</ele><time>2026-04-19T12:45:46Z</time></trkpt><trkpt lat="43.426578476136044" lon="10.78987301631131"><ele>188.0</ele><time>2026-04-19T12:45:58Z</time></trkpt><trkpt lat="43.42660349907126" lon="10.789761792003716"><ele>188.0</ele><time>2026-04-19T12:46:04Z</time></trkpt><trkpt lat="43.42661946123689" lon="10.789672219955953"><ele>188.0</ele><time>2026-04-19T12:46:07.999Z</time></trkpt><trkpt lat="43.42666357893808" lon="10.789565132922363"><ele>188.0</ele><time>2026-04-19T12:46:10.999Z</time></trkpt><trkpt lat="43.42671231787683" lon="10.789438091150753"><ele>188.0</ele><time>2026-04-19T12:46:12.999Z</time></trkpt><trkpt lat="43.42674708157794" lon="10.789347476397278"><ele>188.0</ele><time>2026-04-19T12:46:14.999Z</time></trkpt><trkpt lat="43.42678394608979" lon="10.789255781508464"><ele>188.0</ele><time>2026-04-19T12:46:17.999Z</time></trkpt><trkpt lat="43.426815924215255" lon="10.789172578151513"><ele>188.0</ele><time>2026-04-19T12:46:25.999Z</time></trkpt><trkpt lat="43.426874503961265" lon="10.789082134880317"><ele>188.0</ele><time>2026-04-19T12:47:02Z</time></trkpt><trkpt lat="43.426894656159526" lon="10.788900788121946"><ele>188.0</ele><time>2026-04-19T12:47:04Z</time></trkpt><trkpt lat="43.42689339992665" lon="10.7887210999012"><ele>188.5</ele><time>2026-04-19T12:47:06Z</time></trkpt><trkpt lat="43.42691985204456" lon="10.788623272676885"><ele>189.0</ele><time>2026-04-19T12:47:07Z</time></trkpt><trkpt lat="43.42693225848271" lon="10.788510241163296"><ele>189.5</ele><time>2026-04-19T12:47:08Z</time></trkpt><trkpt lat="43.42695175341295" lon="10.78839395709513"><ele>190.0</ele><time>2026-04-19T12:47:09Z</time></trkpt><trkpt lat="43.42696773290894" lon="10.788256757771013"><ele>190.5</ele><time>2026-04-19T12:47:10Z</time></trkpt><trkpt lat="43.42701787460769" lon="10.788139293392412"><ele>191.0</ele><time>2026-04-19T12:47:11Z</time></trkpt><trkpt lat="43.42708753415159" lon="10.788034714934826"><ele>191.25</ele><time>2026-04-19T12:47:12Z</time></trkpt><trkpt lat="43.42713907040821" lon="10.787905949128682"><ele>191.5</ele><time>2026-04-19T12:47:13Z</time></trkpt><trkpt lat="43.42720684688892" lon="10.787784832383755"><ele>191.75</ele><time>2026-04-19T12:47:14Z</time></trkpt><trkpt lat="43.427295809087" lon="10.787678963191842"><ele>192.0</ele><time>2026-04-19T12:47:15Z</time></trkpt><trkpt lat="43.42736502012423" lon="10.78754432556361"><ele>194.0</ele><time>2026-04-19T12:47:16Z</time></trkpt><trkpt lat="43.42744707174173" lon="10.78742265239342"><ele>196.0</ele><time>2026-04-19T12:47:17Z</time></trkpt><trkpt lat="43.42752375085146" lon="10.787312342972482"><ele>198.0</ele><time>2026-04-19T12:47:18Z</time></trkpt><trkpt lat="43.42759224522457" lon="10.787224295940307"><ele>200.0</ele><time>2026-04-19T12:47:19Z</time></trkpt><trkpt lat="43.427642445852165" lon="10.787166608722806"><ele>202.0</ele><time>2026-04-19T12:47:20Z</time></trkpt><trkpt lat="43.427707973636764" lon="10.787148403485299"><ele>201.99999999999997</ele><time>2026-04-19T12:47:23Z</time></trkpt><trkpt lat="43.427750591370646" lon="10.787079332292723"><ele>202.0</ele><time>2026-04-19T12:47:27Z</time></trkpt><trkpt lat="43.427810678169536" lon="10.78700661381051"><ele>202.0</ele><time>2026-04-19T12:47:30Z</time></trkpt><trkpt lat="43.42791923922169" lon="10.787092934953728"><ele>202.0</ele><time>2026-04-19T12:47:32Z</time></trkpt><trkpt lat="43.42799271581243" lon="10.78706371085238"><ele>201.99999999999997</ele><time>2026-04-19T12:47:37Z</time></trkpt><trkpt lat="43.42805944126199" lon="10.787033401885436"><ele>202.0</ele><time>2026-04-19T12:47:39Z</time></trkpt><trkpt lat="43.42813756630127" lon="10.786993221934226"><ele>202.83333333333331</ele><time>2026-04-19T12:47:41Z</time></trkpt><trkpt lat="43.428219769815215" lon="10.786954121436546"><ele>203.66666666666666</ele><time>2026-04-19T12:47:43Z</time></trkpt><trkpt lat="43.42830256984194" lon="10.78691812664027"><ele>204.5</ele><time>2026-04-19T12:47:45Z</time></trkpt><trkpt lat="43.42837990037998" lon="10.786879585186872"><ele>205.33333333333331</ele><time>2026-04-19T12:47:47Z</time></trkpt><trkpt lat="43.428461524997346" lon="10.786866940359186"><ele>206.16666666666666</ele><time>2026-04-19T12:47:49Z</time></trkpt><trkpt lat="43.428544639770266" lon="10.786832625436741"><ele>207.0</ele><time>2026-04-19T12:47:51Z</time></trkpt><trkpt lat="43.42863944661686" lon="10.786804449041218"><ele>207.33333333333334</ele><time>2026-04-19T12:47:53Z</time></trkpt><trkpt lat="43.428740893388486" lon="10.786862838446115"><ele>207.66666666666669</ele><time>2026-04-19T12:47:55Z</time></trkpt><trkpt lat="43.42878400962324" lon="10.786929926974391"><ele>208.0</ele><time>2026-04-19T12:47:56Z</time></trkpt><trkpt lat="43.42883440683099" lon="10.786987477261025"><ele>208.33333333333334</ele><time>2026-04-19T12:47:57Z</time></trkpt><trkpt lat="43.42889783428492" lon="10.78705506432968"><ele>208.66666666666669</ele><time>2026-04-19T12:47:58Z</time></trkpt><trkpt lat="43.42898140736722" lon="10.78710954802971"><ele>209.0</ele><time>2026-04-19T12:47:59Z</time></trkpt><trkpt lat="43.42903408372148" lon="10.787175480648644"><ele>209.50000000000003</ele><time>2026-04-19T12:48:00Z</time></trkpt><trkpt lat="43.42908723267878" lon="10.787237292836267"><ele>210.0</ele><time>2026-04-19T12:48:01Z</time></trkpt><trkpt lat="43.42916437079843" lon="10.787287450117056"><ele>210.5</ele><time>2026-04-19T12:48:02Z</time></trkpt><trkpt lat="43.42924477802071" lon="10.787340542734082"><ele>211.0</ele><time>2026-04-19T12:48:03Z</time></trkpt><trkpt lat="43.429339737993025" lon="10.787360312124198"><ele>211.50000000000003</ele><time>2026-04-19T12:48:04Z</time></trkpt><trkpt lat="43.42943337788389" lon="10.7873719775971"><ele>212.0</ele><time>2026-04-19T12:48:05Z</time></trkpt><trkpt lat="43.429529219763474" lon="10.787362196949857"><ele>212.0</ele><time>2026-04-19T12:48:06Z</time></trkpt><trkpt lat="43.42962568916918" lon="10.787378761702467"><ele>212.0</ele><time>2026-04-19T12:48:07Z</time></trkpt><trkpt lat="43.42972082070816" lon="10.787395664686503"><ele>212.0</ele><time>2026-04-19T12:48:08Z</time></trkpt><trkpt lat="43.42981889264392" lon="10.78741448627173"><ele>212.0</ele><time>2026-04-19T12:48:09Z</time></trkpt><trkpt lat="43.42991171082862" lon="10.787424699443758"><ele>212.0</ele><time>2026-04-19T12:48:10Z</time></trkpt><trkpt lat="43.429988685088816" lon="10.787436668107675"><ele>211.83333333333334</ele><time>2026-04-19T12:48:11Z</time></trkpt><trkpt lat="43.43005144515796" lon="10.787455114790363"><ele>211.66666666666669</ele><time>2026-04-19T12:48:12Z</time></trkpt><trkpt lat="43.43011367131461" lon="10.787479872600194"><ele>211.5</ele><time>2026-04-19T12:48:12.999Z</time></trkpt><trkpt lat="43.430178230506556" lon="10.787514779866134"><ele>211.33333333333331</ele><time>2026-04-19T12:48:13.999Z</time></trkpt><trkpt lat="43.4302519385239" lon="10.787569552754542"><ele>211.16666666666666</ele><time>2026-04-19T12:48:14.999Z</time></trkpt><trkpt lat="43.430330628009806" lon="10.787631124789026"><ele>211.0</ele><time>2026-04-19T12:48:15.999Z</time></trkpt><trkpt lat="43.43040013512102" lon="10.78770860597212"><ele>208.20000000000002</ele><time>2026-04-19T12:48:16.999Z</time></trkpt><trkpt lat="43.43047534982011" lon="10.787771329580183"><ele>205.4</ele><time>2026-04-19T12:48:17.999Z</time></trkpt><trkpt lat="43.43056175779742" lon="10.787812131930423"><ele>202.6</ele><time>2026-04-19T12:48:18.999Z</time></trkpt><trkpt lat="43.430634690816476" lon="10.787885359024044"><ele>199.8</ele><time>2026-04-19T12:48:19.999Z</time></trkpt><trkpt lat="43.43073196783753" lon="10.787910900810315"><ele>197.0</ele><time>2026-04-19T12:48:20.999Z</time></trkpt><trkpt lat="43.430834748656885" lon="10.787874556631063"><ele>197.0</ele><time>2026-04-19T12:48:21.999Z</time></trkpt><trkpt lat="43.43093957952379" lon="10.787869989576116"><ele>197.0</ele><time>2026-04-19T12:48:22.999Z</time></trkpt><trkpt lat="43.43104767439355" lon="10.787825788610643"><ele>197.0</ele><time>2026-04-19T12:48:23.999Z</time></trkpt><trkpt lat="43.431166985636075" lon="10.787792144273103"><ele>197.0</ele><time>2026-04-19T12:48:24.999Z</time></trkpt><trkpt lat="43.43128753189088" lon="10.787755651202154"><ele>197.25</ele><time>2026-04-19T12:48:25.999Z</time></trkpt><trkpt lat="43.431405256321405" lon="10.787716326990326"><ele>197.5</ele><time>2026-04-19T12:48:26.999Z</time></trkpt><trkpt lat="43.43151962295756" lon="10.787683337842404"><ele>197.75</ele><time>2026-04-19T12:48:27.999Z</time></trkpt><trkpt lat="43.43162905152949" lon="10.787658160802021"><ele>198.0</ele><time>2026-04-19T12:48:28.999Z</time></trkpt><trkpt lat="43.431729750928874" lon="10.787631529653497"><ele>198.0</ele><time>2026-04-19T12:48:29.999Z</time></trkpt><trkpt lat="43.431825599275406" lon="10.787599367934964"><ele>198.0</ele><time>2026-04-19T12:48:30.999Z</time></trkpt><trkpt lat="43.431909825023276" lon="10.78754473469755"><ele>198.0</ele><time>2026-04-19T12:48:31.999Z</time></trkpt><trkpt lat="43.431985976490154" lon="10.787478529657507"><ele>198.0</ele><time>2026-04-19T12:48:32.999Z</time></trkpt><trkpt lat="43.43205712661549" lon="10.787409833397392"><ele>198.0</ele><time>2026-04-19T12:48:33.999Z</time></trkpt><trkpt lat="43.43212884634019" lon="10.787348749626082"><ele>196.83333333333334</ele><time>2026-04-19T12:48:34.999Z</time></trkpt><trkpt lat="43.43219825855897" lon="10.787296161707294"><ele>195.66666666666666</ele><time>2026-04-19T12:48:35.999Z</time></trkpt><trkpt lat="43.43225662867064" lon="10.787241586008818"><ele>194.5</ele><time>2026-04-19T12:48:36.999Z</time></trkpt><trkpt lat="43.43229849672942" lon="10.787172515913275"><ele>193.33333333333331</ele><time>2026-04-19T12:48:37.999Z</time></trkpt><trkpt lat="43.43236418680371" lon="10.787044464959399"><ele>192.16666666666666</ele><time>2026-04-19T12:48:39.999Z</time></trkpt><trkpt lat="43.43243826811215" lon="10.786930352025157"><ele>191.0</ele><time>2026-04-19T12:48:41.999Z</time></trkpt><trkpt lat="43.43249266343476" lon="10.786811289573283"><ele>191.0</ele><time>2026-04-19T12:48:43.999Z</time></trkpt><trkpt lat="43.432548417076966" lon="10.786689254998848"><ele>191.0</ele><time>2026-04-19T12:48:45.999Z</time></trkpt><trkpt lat="43.432611993467454" lon="10.786561329148864"><ele>191.0</ele><time>2026-04-19T12:48:47.999Z</time></trkpt><trkpt lat="43.43268341974253" lon="10.786438574974424"><ele>191.0</ele><time>2026-04-19T12:48:49.999Z</time></trkpt><trkpt lat="43.43277068508013" lon="10.786333195685035"><ele>191.0</ele><time>2026-04-19T12:48:51.999Z</time></trkpt><trkpt lat="43.43286104538791" lon="10.786222125186722"><ele>191.0</ele><time>2026-04-19T12:48:53.999Z</time></trkpt><trkpt lat="43.43294612247942" lon="10.786115935893088"><ele>191.0</ele><time>2026-04-19T12:48:55.999Z</time></trkpt><trkpt lat="43.43303240872047" lon="10.786007297260799"><ele>191.0</ele><time>2026-04-19T12:48:58Z</time></trkpt><trkpt lat="43.43311727672434" lon="10.785900103738795"><ele>191.0</ele><time>2026-04-19T12:49:00Z</time></trkpt><trkpt lat="43.433203663736776" lon="10.785787685310328"><ele>190.0</ele><time>2026-04-19T12:49:02Z</time></trkpt><trkpt lat="43.43324956190054" lon="10.785727532114034"><ele>189.0</ele><time>2026-04-19T12:49:03Z</time></trkpt><trkpt lat="43.43334076305157" lon="10.785613619085755"><ele>188.0</ele><time>2026-04-19T12:49:05Z</time></trkpt><trkpt lat="43.43338972806276" lon="10.785557321268817"><ele>187.0</ele><time>2026-04-19T12:49:06Z</time></trkpt><trkpt lat="43.4334410202773" lon="10.785503337269292"><ele>186.0</ele><time>2026-04-19T12:49:07Z</time></trkpt><trkpt lat="43.43349250824502" lon="10.78545275358655"><ele>185.0</ele><time>2026-04-19T12:49:08Z</time></trkpt><trkpt lat="43.43359276050885" lon="10.785353275731214"><ele>185.0</ele><time>2026-04-19T12:49:10Z</time></trkpt><trkpt lat="43.43363567011967" lon="10.785285410500329"><ele>185.0</ele><time>2026-04-19T12:49:11Z</time></trkpt><trkpt lat="43.43374120136135" lon="10.785182873121995"><ele>185.0</ele><time>2026-04-19T12:49:13Z</time></trkpt><trkpt lat="43.43380633480587" lon="10.785135478245117"><ele>185.0</ele><time>2026-04-19T12:49:14Z</time></trkpt><trkpt lat="43.433866437504726" lon="10.78507982210708"><ele>185.0</ele><time>2026-04-19T12:49:15Z</time></trkpt><trkpt lat="43.43392849311237" lon="10.785020675044894"><ele>185.0</ele><time>2026-04-19T12:49:16Z</time></trkpt><trkpt lat="43.43398759820283" lon="10.784963238255834"><ele>183.0</ele><time>2026-04-19T12:49:17Z</time></trkpt><trkpt lat="43.43404575344068" lon="10.78490393127143"><ele>181.0</ele><time>2026-04-19T12:49:18Z</time></trkpt><trkpt lat="43.434101421241564" lon="10.784839485568497"><ele>179.0</ele><time>2026-04-19T12:49:19Z</time></trkpt><trkpt lat="43.434157093801694" lon="10.784766939813997"><ele>177.0</ele><time>2026-04-19T12:49:20Z</time></trkpt><trkpt lat="43.434214055472054" lon="10.784682480786467"><ele>175.0</ele><time>2026-04-19T12:49:21Z</time></trkpt><trkpt lat="43.434272070810806" lon="10.784594711865047"><ele>173.0</ele><time>2026-04-19T12:49:22Z</time></trkpt><trkpt lat="43.43433361259597" lon="10.784502376340871"><ele>173.0</ele><time>2026-04-19T12:49:23Z</time></trkpt><trkpt lat="43.434394560302266" lon="10.784397712895922"><ele>173.0</ele><time>2026-04-19T12:49:24Z</time></trkpt><trkpt lat="43.43445374462398" lon="10.784290480964646"><ele>173.0</ele><time>2026-04-19T12:49:25Z</time></trkpt><trkpt lat="43.43451559511884" lon="10.784183221353846"><ele>173.0</ele><time>2026-04-19T12:49:26Z</time></trkpt><trkpt lat="43.43458129641515" lon="10.78407170818695"><ele>173.0</ele><time>2026-04-19T12:49:27Z</time></trkpt><trkpt lat="43.43464462816911" lon="10.78396239225923"><ele>171.8</ele><time>2026-04-19T12:49:28Z</time></trkpt><trkpt lat="43.43471410654756" lon="10.783851269023534"><ele>170.60000000000002</ele><time>2026-04-19T12:49:29Z</time></trkpt><trkpt lat="43.43477986837831" lon="10.783745791598388"><ele>169.39999999999998</ele><time>2026-04-19T12:49:30Z</time></trkpt><trkpt lat="43.43484400887993" lon="10.783636497384776"><ele>168.2</ele><time>2026-04-19T12:49:31Z</time></trkpt><trkpt lat="43.434908880221414" lon="10.783525614909443"><ele>167.0</ele><time>2026-04-19T12:49:32Z</time></trkpt><trkpt lat="43.434972256701535" lon="10.783415072266257"><ele>167.0</ele><time>2026-04-19T12:49:33Z</time></trkpt><trkpt lat="43.43503749412732" lon="10.78329757970418"><ele>167.0</ele><time>2026-04-19T12:49:34Z</time></trkpt><trkpt lat="43.43510789789607" lon="10.783175071651954"><ele>167.0</ele><time>2026-04-19T12:49:35Z</time></trkpt><trkpt lat="43.43517376642015" lon="10.78305094356305"><ele>167.0</ele><time>2026-04-19T12:49:36Z</time></trkpt><trkpt lat="43.43523852576359" lon="10.782927018940784"><ele>167.0</ele><time>2026-04-19T12:49:37Z</time></trkpt><trkpt lat="43.43529312028024" lon="10.782806203037854"><ele>167.0</ele><time>2026-04-19T12:49:38Z</time></trkpt><trkpt lat="43.43534213448218" lon="10.782686496550308"><ele>167.0</ele><time>2026-04-19T12:49:39Z</time></trkpt><trkpt lat="43.43539205732961" lon="10.782559721984848"><ele>167.0</ele><time>2026-04-19T12:49:40Z</time></trkpt><trkpt lat="43.435439717620625" lon="10.78244343843143"><ele>167.0</ele><time>2026-04-19T12:49:41Z</time></trkpt><trkpt lat="43.43550794841624" lon="10.78233972875856"><ele>167.0</ele><time>2026-04-19T12:49:42Z</time></trkpt><trkpt lat="43.435557130754255" lon="10.78222016408008"><ele>167.5</ele><time>2026-04-19T12:49:43Z</time></trkpt><trkpt lat="43.43563400293569" lon="10.782119955821841"><ele>168.0</ele><time>2026-04-19T12:49:44Z</time></trkpt><trkpt lat="43.435722283539164" lon="10.782022711979176"><ele>168.5</ele><time>2026-04-19T12:49:45Z</time></trkpt><trkpt lat="43.435813294626065" lon="10.781916100384194"><ele>169.0</ele><time>2026-04-19T12:49:46Z</time></trkpt><trkpt lat="43.43589659205314" lon="10.781813533824295"><ele>169.0</ele><time>2026-04-19T12:49:47Z</time></trkpt><trkpt lat="43.43597890525837" lon="10.781719102775007"><ele>169.0</ele><time>2026-04-19T12:49:48Z</time></trkpt><trkpt lat="43.43606698663136" lon="10.781618321436333"><ele>169.0</ele><time>2026-04-19T12:49:49Z</time></trkpt><trkpt lat="43.436149522697704" lon="10.781515688373776"><ele>169.0</ele><time>2026-04-19T12:49:50Z</time></trkpt><trkpt lat="43.43622542199233" lon="10.78141285787214"><ele>169.0</ele><time>2026-04-19T12:49:51Z</time></trkpt><trkpt lat="43.436304669331456" lon="10.781320750420946"><ele>168.0</ele><time>2026-04-19T12:49:52Z</time></trkpt><trkpt lat="43.436380829402204" lon="10.781229328367436"><ele>167.0</ele><time>2026-04-19T12:49:53Z</time></trkpt><trkpt lat="43.43645441584751" lon="10.78113712301484"><ele>166.0</ele><time>2026-04-19T12:49:54Z</time></trkpt><trkpt lat="43.43652098209394" lon="10.781045400600158"><ele>165.0</ele><time>2026-04-19T12:49:55Z</time></trkpt><trkpt lat="43.43658242041886" lon="10.780952523139451"><ele>164.0</ele><time>2026-04-19T12:49:56Z</time></trkpt><trkpt lat="43.43664619029023" lon="10.780857118221036"><ele>164.0</ele><time>2026-04-19T12:49:57Z</time></trkpt><trkpt lat="43.43670832883263" lon="10.780763726401885"><ele>164.0</ele><time>2026-04-19T12:49:58Z</time></trkpt><trkpt lat="43.436769201970364" lon="10.780668852863224"><ele>164.0</ele><time>2026-04-19T12:49:59Z</time></trkpt><trkpt lat="43.43683477936368" lon="10.780575549883661"><ele>164.0</ele><time>2026-04-19T12:50:00Z</time></trkpt><trkpt lat="43.43690139412923" lon="10.78047926749127"><ele>164.0</ele><time>2026-04-19T12:50:01Z</time></trkpt><trkpt lat="43.43696677447767" lon="10.780382547858803"><ele>164.0</ele><time>2026-04-19T12:50:02Z</time></trkpt><trkpt lat="43.43702580009653" lon="10.780284234495221"><ele>164.0</ele><time>2026-04-19T12:50:03Z</time></trkpt><trkpt lat="43.43708186168755" lon="10.7801798305685"><ele>164.0</ele><time>2026-04-19T12:50:04Z</time></trkpt><trkpt lat="43.43714251343491" lon="10.780081330205395"><ele>164.0</ele><time>2026-04-19T12:50:05Z</time></trkpt><trkpt lat="43.43721438609962" lon="10.780000154963918"><ele>164.0</ele><time>2026-04-19T12:50:06Z</time></trkpt><trkpt lat="43.43728970229283" lon="10.779932772927019"><ele>162.83333333333331</ele><time>2026-04-19T12:50:07Z</time></trkpt><trkpt lat="43.43737408043046" lon="10.779889375052633"><ele>161.66666666666666</ele><time>2026-04-19T12:50:08Z</time></trkpt><trkpt lat="43.43746522662224" lon="10.779873755669351"><ele>160.5</ele><time>2026-04-19T12:50:09Z</time></trkpt><trkpt lat="43.43755323602885" lon="10.779898028629608"><ele>159.33333333333334</ele><time>2026-04-19T12:50:10Z</time></trkpt><trkpt lat="43.43763425649711" lon="10.779939990829744"><ele>158.16666666666669</ele><time>2026-04-19T12:50:11Z</time></trkpt><trkpt lat="43.43770364825427" lon="10.779983243631152"><ele>157.0</ele><time>2026-04-19T12:50:12Z</time></trkpt><trkpt lat="43.43776528717778" lon="10.780017420355057"><ele>157.0</ele><time>2026-04-19T12:50:13Z</time></trkpt><trkpt lat="43.43782407052975" lon="10.780052674838197"><ele>157.0</ele><time>2026-04-19T12:50:14Z</time></trkpt><trkpt lat="43.43793226988226" lon="10.780120597449613"><ele>157.0</ele><time>2026-04-19T12:50:16Z</time></trkpt><trkpt lat="43.43804564667967" lon="10.780197710743332"><ele>157.0</ele><time>2026-04-19T12:50:18Z</time></trkpt><trkpt lat="43.43811479408862" lon="10.780237434767706"><ele>157.0</ele><time>2026-04-19T12:50:18.999Z</time></trkpt><trkpt lat="43.43819114876092" lon="10.78027837503798"><ele>156.2</ele><time>2026-04-19T12:50:19.999Z</time></trkpt><trkpt lat="43.438275561019466" lon="10.780323112739978"><ele>155.39999999999998</ele><time>2026-04-19T12:50:20.999Z</time></trkpt><trkpt lat="43.438359880085656" lon="10.780372150478337"><ele>154.60000000000002</ele><time>2026-04-19T12:50:21.999Z</time></trkpt><trkpt lat="43.438447635635995" lon="10.780426017922597"><ele>153.8</ele><time>2026-04-19T12:50:22.999Z</time></trkpt><trkpt lat="43.43853590176345" lon="10.780483650600495"><ele>153.0</ele><time>2026-04-19T12:50:23.999Z</time></trkpt><trkpt lat="43.43862910333142" lon="10.780538198136004"><ele>153.0</ele><time>2026-04-19T12:50:24.999Z</time></trkpt><trkpt lat="43.43872599466489" lon="10.780593902444823"><ele>153.0</ele><time>2026-04-19T12:50:25.999Z</time></trkpt><trkpt lat="43.438825197209304" lon="10.780649139089501"><ele>153.0</ele><time>2026-04-19T12:50:26.999Z</time></trkpt><trkpt lat="43.43893037582972" lon="10.780699577142633"><ele>153.0</ele><time>2026-04-19T12:50:27.999Z</time></trkpt><trkpt lat="43.43904482378911" lon="10.780736694271493"><ele>153.0</ele><time>2026-04-19T12:50:28.999Z</time></trkpt><trkpt lat="43.43916742527573" lon="10.780757442948696"><ele>152.75</ele><time>2026-04-19T12:50:29.999Z</time></trkpt><trkpt lat="43.43929479595203" lon="10.780776726747986"><ele>152.5</ele><time>2026-04-19T12:50:30.999Z</time></trkpt><trkpt lat="43.43942686340361" lon="10.780787205010132"><ele>152.25</ele><time>2026-04-19T12:50:31.999Z</time></trkpt><trkpt lat="43.439563278126315" lon="10.780798470663505"><ele>152.0</ele><time>2026-04-19T12:50:32.999Z</time></trkpt><trkpt lat="43.439699982111705" lon="10.780810422440991"><ele>151.25</ele><time>2026-04-19T12:50:33.999Z</time></trkpt><trkpt lat="43.439834728718886" lon="10.780820495273888"><ele>150.5</ele><time>2026-04-19T12:50:34.999Z</time></trkpt><trkpt lat="43.439974742962725" lon="10.780830074246634"><ele>149.75</ele><time>2026-04-19T12:50:35.999Z</time></trkpt><trkpt lat="43.440117036808715" lon="10.780841481924227"><ele>149.0</ele><time>2026-04-19T12:50:36.999Z</time></trkpt><trkpt lat="43.44025760214103" lon="10.78085284810993"><ele>149.0</ele><time>2026-04-19T12:50:37.999Z</time></trkpt><trkpt lat="43.440398284797325" lon="10.780868214261435"><ele>149.0</ele><time>2026-04-19T12:50:38.999Z</time></trkpt><trkpt lat="43.4405358342452" lon="10.780875615792917"><ele>149.0</ele><time>2026-04-19T12:50:39.999Z</time></trkpt><trkpt lat="43.44067211925606" lon="10.78089098119691"><ele>149.0</ele><time>2026-04-19T12:50:40.999Z</time></trkpt><trkpt lat="43.440804995675464" lon="10.780905244896609"><ele>150.0</ele><time>2026-04-19T12:50:41.999Z</time></trkpt><trkpt lat="43.44092912377092" lon="10.780914992531175"><ele>151.0</ele><time>2026-04-19T12:50:42.999Z</time></trkpt><trkpt lat="43.441054049458174" lon="10.780922169067138"><ele>152.0</ele><time>2026-04-19T12:50:43.999Z</time></trkpt><trkpt lat="43.441168849919315" lon="10.78092852476833"><ele>153.0</ele><time>2026-04-19T12:50:44.999Z</time></trkpt><trkpt lat="43.44126701388764" lon="10.780935587665955"><ele>153.8</ele><time>2026-04-19T12:50:45.999Z</time></trkpt><trkpt lat="43.44136080572643" lon="10.780924411371718"><ele>154.60000000000002</ele><time>2026-04-19T12:50:46.999Z</time></trkpt><trkpt lat="43.441451039243866" lon="10.780883814970624"><ele>155.39999999999998</ele><time>2026-04-19T12:50:47.999Z</time></trkpt><trkpt lat="43.441527878967655" lon="10.780814788956071"><ele>156.2</ele><time>2026-04-19T12:50:48.999Z</time></trkpt><trkpt lat="43.441621190266325" lon="10.780730590717015"><ele>157.0</ele><time>2026-04-19T12:50:49.999Z</time></trkpt><trkpt lat="43.44170471486533" lon="10.780651509852586"><ele>157.0</ele><time>2026-04-19T12:50:50.999Z</time></trkpt><trkpt lat="43.441784846614226" lon="10.780581058387066"><ele>157.0</ele><time>2026-04-19T12:50:51.999Z</time></trkpt><trkpt lat="43.44186952675838" lon="10.780522628692108"><ele>157.0</ele><time>2026-04-19T12:50:52.999Z</time></trkpt><trkpt lat="43.44195024278666" lon="10.780495994390623"><ele>157.0</ele><time>2026-04-19T12:50:53.999Z</time></trkpt><trkpt lat="43.44203114139199" lon="10.780529447565726"><ele>157.0</ele><time>2026-04-19T12:50:54.999Z</time></trkpt><trkpt lat="43.44211438189451" lon="10.780546181606116"><ele>157.0</ele><time>2026-04-19T12:50:55.999Z</time></trkpt><trkpt lat="43.44219350433972" lon="10.780597379772626"><ele>155.33333333333334</ele><time>2026-04-19T12:50:56.999Z</time></trkpt><trkpt lat="43.442273270566055" lon="10.78064614565741"><ele>153.66666666666669</ele><time>2026-04-19T12:50:58Z</time></trkpt><trkpt lat="43.44233887262482" lon="10.780711636654523"><ele>152.0</ele><time>2026-04-19T12:50:59Z</time></trkpt><trkpt lat="43.4424113051556" lon="10.78073584988755"><ele>150.33333333333334</ele><time>2026-04-19T12:51:00Z</time></trkpt><trkpt lat="43.442479516542974" lon="10.780772089705323"><ele>148.66666666666666</ele><time>2026-04-19T12:51:01Z</time></trkpt><trkpt lat="43.44256867840426" lon="10.780787578734381"><ele>147.0</ele><time>2026-04-19T12:51:02Z</time></trkpt><trkpt lat="43.442659016282086" lon="10.780752499610479"><ele>147.0</ele><time>2026-04-19T12:51:03Z</time></trkpt><trkpt lat="43.44275729946026" lon="10.780692969943127"><ele>147.0</ele><time>2026-04-19T12:51:04Z</time></trkpt><trkpt lat="43.44283090435411" lon="10.780563483483743"><ele>147.0</ele><time>2026-04-19T12:51:05Z</time></trkpt><trkpt lat="43.44293406847349" lon="10.780465133937703"><ele>147.0</ele><time>2026-04-19T12:51:06Z</time></trkpt><trkpt lat="43.44303828154841" lon="10.780349035110971"><ele>144.75</ele><time>2026-04-19T12:51:07Z</time></trkpt><trkpt lat="43.443138178496824" lon="10.780243472968166"><ele>142.5</ele><time>2026-04-19T12:51:08Z</time></trkpt><trkpt lat="43.443242317472176" lon="10.780122131279104"><ele>140.25</ele><time>2026-04-19T12:51:09Z</time></trkpt><trkpt lat="43.44335756826585" lon="10.780017370957538"><ele>138.0</ele><time>2026-04-19T12:51:10Z</time></trkpt><trkpt lat="43.44347391932915" lon="10.779908290092472"><ele>138.0</ele><time>2026-04-19T12:51:11Z</time></trkpt><trkpt lat="43.44359325198469" lon="10.779794202661115"><ele>138.0</ele><time>2026-04-19T12:51:12Z</time></trkpt><trkpt lat="43.44371053995779" lon="10.779673663721196"><ele>138.0</ele><time>2026-04-19T12:51:13Z</time></trkpt><trkpt lat="43.44382496936748" lon="10.779549210968867"><ele>138.0</ele><time>2026-04-19T12:51:14Z</time></trkpt><trkpt lat="43.4439412538351" lon="10.779434150223302"><ele>136.25</ele><time>2026-04-19T12:51:15Z</time></trkpt><trkpt lat="43.44406031317766" lon="10.779318332884367"><ele>134.5</ele><time>2026-04-19T12:51:16Z</time></trkpt><trkpt lat="43.444180052822624" lon="10.779202211449372"><ele>132.75</ele><time>2026-04-19T12:51:17Z</time></trkpt><trkpt lat="43.44430319492899" lon="10.77908827432147"><ele>131.0</ele><time>2026-04-19T12:51:18Z</time></trkpt><trkpt lat="43.444432560419024" lon="10.778982166133858"><ele>131.0</ele><time>2026-04-19T12:51:19Z</time></trkpt><trkpt lat="43.444568729468415" lon="10.778908477673248"><ele>131.0</ele><time>2026-04-19T12:51:20Z</time></trkpt><trkpt lat="43.44469100892277" lon="10.778825285881375"><ele>131.0</ele><time>2026-04-19T12:51:21Z</time></trkpt><trkpt lat="43.444797558018486" lon="10.778716744944365"><ele>131.0</ele><time>2026-04-19T12:51:22Z</time></trkpt><trkpt lat="43.444905160549034" lon="10.7786270732911"><ele>129.25</ele><time>2026-04-19T12:51:23Z</time></trkpt><trkpt lat="43.445011428687835" lon="10.778536789053627"><ele>127.5</ele><time>2026-04-19T12:51:24Z</time></trkpt><trkpt lat="43.44511517267287" lon="10.77844972779801"><ele>125.75</ele><time>2026-04-19T12:51:25Z</time></trkpt><trkpt lat="43.44521896313903" lon="10.778365117803215"><ele>124.0</ele><time>2026-04-19T12:51:26Z</time></trkpt><trkpt lat="43.44530784655271" lon="10.778296142496675"><ele>123.6</ele><time>2026-04-19T12:51:27Z</time></trkpt><trkpt lat="43.44540691898497" lon="10.778261869648887"><ele>123.2</ele><time>2026-04-19T12:51:28Z</time></trkpt><trkpt lat="43.445515322393796" lon="10.778270236382946"><ele>122.79999999999998</ele><time>2026-04-19T12:51:29Z</time></trkpt><trkpt lat="43.4456248375329" lon="10.778309746530827"><ele>122.39999999999999</ele><time>2026-04-19T12:51:30Z</time></trkpt><trkpt lat="43.445736344734335" lon="10.778361355934239"><ele>122.0</ele><time>2026-04-19T12:51:31Z</time></trkpt><trkpt lat="43.44584982781225" lon="10.778414904118335"><ele>122.19999999999999</ele><time>2026-04-19T12:51:32Z</time></trkpt><trkpt lat="43.44595991491265" lon="10.778463721892459"><ele>122.39999999999999</ele><time>2026-04-19T12:51:33Z</time></trkpt><trkpt lat="43.446064753845505" lon="10.778512349328055"><ele>122.60000000000001</ele><time>2026-04-19T12:51:34Z</time></trkpt><trkpt lat="43.44616632169513" lon="10.778559876061887"><ele>122.80000000000001</ele><time>2026-04-19T12:51:35Z</time></trkpt><trkpt lat="43.446262472326026" lon="10.77860265023676"><ele>123.0</ele><time>2026-04-19T12:51:36Z</time></trkpt><trkpt lat="43.44635514876494" lon="10.778642165635251"><ele>123.0</ele><time>2026-04-19T12:51:37Z</time></trkpt><trkpt lat="43.44644604211532" lon="10.778678008295728"><ele>123.00000000000001</ele><time>2026-04-19T12:51:38Z</time></trkpt><trkpt lat="43.44653965826521" lon="10.778703892803396"><ele>123.00000000000001</ele><time>2026-04-19T12:51:39Z</time></trkpt><trkpt lat="43.446634607583825" lon="10.778723675276062"><ele>123.0</ele><time>2026-04-19T12:51:40Z</time></trkpt><trkpt lat="43.44673074302577" lon="10.778722862721411"><ele>123.0</ele><time>2026-04-19T12:51:41Z</time></trkpt><trkpt lat="43.44682658786417" lon="10.778719669349378"><ele>123.0</ele><time>2026-04-19T12:51:42Z</time></trkpt><trkpt lat="43.44692278814288" lon="10.778715328901859"><ele>123.00000000000001</ele><time>2026-04-19T12:51:43Z</time></trkpt><trkpt lat="43.447019704962365" lon="10.778728654451209"><ele>123.00000000000001</ele><time>2026-04-19T12:51:44Z</time></trkpt><trkpt lat="43.44712357987004" lon="10.778752042931362"><ele>123.0</ele><time>2026-04-19T12:51:45Z</time></trkpt><trkpt lat="43.447231047653815" lon="10.77878779635488"><ele>123.0</ele><time>2026-04-19T12:51:46Z</time></trkpt><trkpt lat="43.447345057792724" lon="10.778831784457042"><ele>123.75</ele><time>2026-04-19T12:51:47Z</time></trkpt><trkpt lat="43.4474604034819" lon="10.778873702774526"><ele>124.5</ele><time>2026-04-19T12:51:48Z</time></trkpt><trkpt lat="43.44757732537701" lon="10.77891802133911"><ele>125.25</ele><time>2026-04-19T12:51:49Z</time></trkpt><trkpt lat="43.447686932160394" lon="10.778967735224514"><ele>126.0</ele><time>2026-04-19T12:51:50Z</time></trkpt><trkpt lat="43.447791806216124" lon="10.779004272600993"><ele>126.0</ele><time>2026-04-19T12:51:51Z</time></trkpt><trkpt lat="43.447901742025465" lon="10.779014658009832"><ele>126.0</ele><time>2026-04-19T12:51:52Z</time></trkpt><trkpt lat="43.448021967721694" lon="10.77898537228041"><ele>126.0</ele><time>2026-04-19T12:51:53Z</time></trkpt><trkpt lat="43.448145318611154" lon="10.778941193726366"><ele>126.0</ele><time>2026-04-19T12:51:54Z</time></trkpt><trkpt lat="43.448266266498514" lon="10.77889482379097"><ele>124.0</ele><time>2026-04-19T12:51:55Z</time></trkpt><trkpt lat="43.44839320352304" lon="10.778852618401885"><ele>122.0</ele><time>2026-04-19T12:51:56Z</time></trkpt><trkpt lat="43.44852021671102" lon="10.778807360465953"><ele>120.0</ele><time>2026-04-19T12:51:57Z</time></trkpt><trkpt lat="43.44864632225033" lon="10.77876246044527"><ele>118.0</ele><time>2026-04-19T12:51:58Z</time></trkpt><trkpt lat="43.44877445101386" lon="10.778716964981383"><ele>116.75</ele><time>2026-04-19T12:51:59Z</time></trkpt><trkpt lat="43.44890462395047" lon="10.77867416704248"><ele>115.5</ele><time>2026-04-19T12:52:00Z</time></trkpt><trkpt lat="43.44903575753908" lon="10.778625259274328"><ele>114.25</ele><time>2026-04-19T12:52:01Z</time></trkpt><trkpt lat="43.4491689315551" lon="10.778585475057566"><ele>113.0</ele><time>2026-04-19T12:52:02Z</time></trkpt><trkpt lat="43.44930342839653" lon="10.778539872607737"><ele>113.25</ele><time>2026-04-19T12:52:03Z</time></trkpt><trkpt lat="43.449435015187476" lon="10.778497514978993"><ele>113.5</ele><time>2026-04-19T12:52:04Z</time></trkpt><trkpt lat="43.44956472495519" lon="10.778449205647453"><ele>113.75</ele><time>2026-04-19T12:52:05Z</time></trkpt><trkpt lat="43.44969850455202" lon="10.778405063061578"><ele>114.0</ele><time>2026-04-19T12:52:06Z</time></trkpt><trkpt lat="43.44984132682288" lon="10.77836067269313"><ele>115.75</ele><time>2026-04-19T12:52:07Z</time></trkpt><trkpt lat="43.449983691751264" lon="10.778311127391175"><ele>117.5</ele><time>2026-04-19T12:52:08Z</time></trkpt><trkpt lat="43.450124954836646" lon="10.778258003718971"><ele>119.25</ele><time>2026-04-19T12:52:09Z</time></trkpt><trkpt lat="43.450263665179826" lon="10.778212428476918"><ele>121.0</ele><time>2026-04-19T12:52:10Z</time></trkpt><trkpt lat="43.45040375977618" lon="10.778173416165654"><ele>123.75</ele><time>2026-04-19T12:52:11Z</time></trkpt><trkpt lat="43.45054310398083" lon="10.77813178712831"><ele>126.5</ele><time>2026-04-19T12:52:12.001Z</time></trkpt><trkpt lat="43.450677121648944" lon="10.77808929763461"><ele>129.25</ele><time>2026-04-19T12:52:13.001Z</time></trkpt><trkpt lat="43.450809595800344" lon="10.778063818605228"><ele>132.0</ele><time>2026-04-19T12:52:14.001Z</time></trkpt><trkpt lat="43.45093717991853" lon="10.778079918446936"><ele>132.0</ele><time>2026-04-19T12:52:15.001Z</time></trkpt><trkpt lat="43.45105996294846" lon="10.77812436089826"><ele>132.0</ele><time>2026-04-19T12:52:16.001Z</time></trkpt><trkpt lat="43.45118188226874" lon="10.778171394174214"><ele>132.0</ele><time>2026-04-19T12:52:17.001Z</time></trkpt><trkpt lat="43.451318318865226" lon="10.77821700244798"><ele>132.0</ele><time>2026-04-19T12:52:18.001Z</time></trkpt><trkpt lat="43.451461410901445" lon="10.778262971702276"><ele>132.0</ele><time>2026-04-19T12:52:19.001Z</time></trkpt><trkpt lat="43.45160561219922" lon="10.778309969067957"><ele>132.0</ele><time>2026-04-19T12:52:20.001Z</time></trkpt><trkpt lat="43.45174544343274" lon="10.778349078697538"><ele>132.0</ele><time>2026-04-19T12:52:21.001Z</time></trkpt><trkpt lat="43.451855932876654" lon="10.778385016063766"><ele>132.0</ele><time>2026-04-19T12:52:22.001Z</time></trkpt><trkpt lat="43.45191851634313" lon="10.778428923753816"><ele>132.0</ele><time>2026-04-19T12:52:23.001Z</time></trkpt><trkpt lat="43.4519821368183" lon="10.778424541408576"><ele>132.0</ele><time>2026-04-19T12:52:31.998Z</time></trkpt><trkpt lat="43.45206318907514" lon="10.77842302222831"><ele>132.0</ele><time>2026-04-19T12:52:33.998Z</time></trkpt><trkpt lat="43.452124751360095" lon="10.77837955712204"><ele>132.0</ele><time>2026-04-19T12:52:34.998Z</time></trkpt><trkpt lat="43.45219104061191" lon="10.778323324869714"><ele>132.0</ele><time>2026-04-19T12:52:35.998Z</time></trkpt><trkpt lat="43.45226088465787" lon="10.778266167333442"><ele>132.0</ele><time>2026-04-19T12:52:36.998Z</time></trkpt><trkpt lat="43.45232116130603" lon="10.778213478848913"><ele>132.0</ele><time>2026-04-19T12:52:37.998Z</time></trkpt><trkpt lat="43.45240929858263" lon="10.778171591171587"><ele>130.6</ele><time>2026-04-19T12:52:39.998Z</time></trkpt><trkpt lat="43.45245766349759" lon="10.778287470899357"><ele>129.2</ele><time>2026-04-19T12:52:42.999Z</time></trkpt><trkpt lat="43.45247100097558" lon="10.778403261178706"><ele>127.8</ele><time>2026-04-19T12:52:43.999Z</time></trkpt><trkpt lat="43.452457600822854" lon="10.778520386859995"><ele>126.4</ele><time>2026-04-19T12:52:44.999Z</time></trkpt><trkpt lat="43.45245848805365" lon="10.778652050007597"><ele>125.0</ele><time>2026-04-19T12:52:45.999Z</time></trkpt><trkpt lat="43.45246502294154" lon="10.778791784035699"><ele>125.0</ele><time>2026-04-19T12:52:46.999Z</time></trkpt><trkpt lat="43.452487962195" lon="10.778936848196581"><ele>125.0</ele><time>2026-04-19T12:52:47.999Z</time></trkpt><trkpt lat="43.45251217719851" lon="10.779083338108464"><ele>125.0</ele><time>2026-04-19T12:52:48.999Z</time></trkpt><trkpt lat="43.45252906167246" lon="10.779235393313105"><ele>125.0</ele><time>2026-04-19T12:52:49.999Z</time></trkpt><trkpt lat="43.45258610616464" lon="10.779378842226427"><ele>125.0</ele><time>2026-04-19T12:52:50.999Z</time></trkpt><trkpt lat="43.45262699935952" lon="10.779540146915817"><ele>126.75</ele><time>2026-04-19T12:52:51.999Z</time></trkpt><trkpt lat="43.45268764478861" lon="10.779685288389983"><ele>128.5</ele><time>2026-04-19T12:52:52.999Z</time></trkpt><trkpt lat="43.4527551355611" lon="10.77982899895332"><ele>130.25</ele><time>2026-04-19T12:52:53.999Z</time></trkpt><trkpt lat="43.45282111818338" lon="10.779972451246648"><ele>132.0</ele><time>2026-04-19T12:52:54.999Z</time></trkpt><trkpt lat="43.45288479253967" lon="10.780121832783218"><ele>133.2</ele><time>2026-04-19T12:52:55.999Z</time></trkpt><trkpt lat="43.45292985195065" lon="10.780275059144454"><ele>134.39999999999998</ele><time>2026-04-19T12:52:56.999Z</time></trkpt><trkpt lat="43.45299282371501" lon="10.780407120578962"><ele>135.60000000000002</ele><time>2026-04-19T12:52:57.999Z</time></trkpt><trkpt lat="43.45302363140442" lon="10.780537025400113"><ele>136.8</ele><time>2026-04-19T12:52:58.999Z</time></trkpt><trkpt lat="43.453067126502" lon="10.780639705261814"><ele>138.0</ele><time>2026-04-19T12:52:59.999Z</time></trkpt><trkpt lat="43.45312453595328" lon="10.780745289068967"><ele>136.33333333333334</ele><time>2026-04-19T12:53:00.999Z</time></trkpt><trkpt lat="43.453187731041425" lon="10.780835583782101"><ele>134.66666666666666</ele><time>2026-04-19T12:53:01.999Z</time></trkpt><trkpt lat="43.453233642093124" lon="10.780927234238868"><ele>133.0</ele><time>2026-04-19T12:53:02.999Z</time></trkpt><trkpt lat="43.45329915260513" lon="10.7810116341312"><ele>131.33333333333331</ele><time>2026-04-19T12:53:03.999Z</time></trkpt><trkpt lat="43.45336677650346" lon="10.781073746015917"><ele>129.66666666666666</ele><time>2026-04-19T12:53:04.999Z</time></trkpt><trkpt lat="43.45342999376425" lon="10.781119025159697"><ele>128.0</ele><time>2026-04-19T12:53:06.999Z</time></trkpt><trkpt lat="43.45349774063713" lon="10.781157000331593"><ele>127.99999999999999</ele><time>2026-04-19T12:53:10.999Z</time></trkpt><trkpt lat="43.453604482430315" lon="10.781181825602173"><ele>128.0</ele><time>2026-04-19T12:53:12.999Z</time></trkpt><trkpt lat="43.453679924047485" lon="10.78120999040814"><ele>128.0</ele><time>2026-04-19T12:53:13.999Z</time></trkpt><trkpt lat="43.45376566983353" lon="10.781247824164218"><ele>128.0</ele><time>2026-04-19T12:53:14.999Z</time></trkpt><trkpt lat="43.453843712503385" lon="10.781269214640696"><ele>127.99999999999999</ele><time>2026-04-19T12:53:15.999Z</time></trkpt><trkpt lat="43.45392414446406" lon="10.7812942351667"><ele>128.0</ele><time>2026-04-19T12:53:16.999Z</time></trkpt><trkpt lat="43.45401750488327" lon="10.781325535588364"><ele>126.83333333333333</ele><time>2026-04-19T12:53:17.999Z</time></trkpt><trkpt lat="43.4541118172156" lon="10.781348176544059"><ele>125.66666666666666</ele><time>2026-04-19T12:53:19Z</time></trkpt><trkpt lat="43.45419714469351" lon="10.781356978023496"><ele>124.5</ele><time>2026-04-19T12:53:20Z</time></trkpt><trkpt lat="43.45426867995778" lon="10.781362490914319"><ele>123.33333333333334</ele><time>2026-04-19T12:53:21Z</time></trkpt><trkpt lat="43.45434668845174" lon="10.781367735451948"><ele>122.16666666666667</ele><time>2026-04-19T12:53:22Z</time></trkpt><trkpt lat="43.454426032160036" lon="10.781371101241758"><ele>121.0</ele><time>2026-04-19T12:53:23Z</time></trkpt><trkpt lat="43.454507289849076" lon="10.781363155374658"><ele>121.0</ele><time>2026-04-19T12:53:24Z</time></trkpt><trkpt lat="43.45458045897948" lon="10.781338043840806"><ele>121.0</ele><time>2026-04-19T12:53:25Z</time></trkpt><trkpt lat="43.45469937302675" lon="10.781263804462403"><ele>121.0</ele><time>2026-04-19T12:53:27Z</time></trkpt><trkpt lat="43.454768049333985" lon="10.781200188800502"><ele>121.0</ele><time>2026-04-19T12:53:28Z</time></trkpt><trkpt lat="43.45483316820802" lon="10.781130291074668"><ele>121.0</ele><time>2026-04-19T12:53:29Z</time></trkpt><trkpt lat="43.45490131384385" lon="10.781072389236058"><ele>118.50000000000001</ele><time>2026-04-19T12:53:30Z</time></trkpt><trkpt lat="43.454970719488216" lon="10.781004143413073"><ele>116.0</ele><time>2026-04-19T12:53:31Z</time></trkpt><trkpt lat="43.45503852822946" lon="10.780914130648991"><ele>113.5</ele><time>2026-04-19T12:53:32Z</time></trkpt><trkpt lat="43.45510947867881" lon="10.780825851012292"><ele>111.0</ele><time>2026-04-19T12:53:33Z</time></trkpt><trkpt lat="43.45517345667689" lon="10.780759646686661"><ele>108.50000000000001</ele><time>2026-04-19T12:53:34Z</time></trkpt><trkpt lat="43.45525222190845" lon="10.780712655088129"><ele>106.0</ele><time>2026-04-19T12:53:35Z</time></trkpt><trkpt lat="43.45534853643147" lon="10.780698833380715"><ele>106.00000000000001</ele><time>2026-04-19T12:53:36Z</time></trkpt><trkpt lat="43.45545066335693" lon="10.780749720643009"><ele>106.0</ele><time>2026-04-19T12:53:37Z</time></trkpt><trkpt lat="43.45553093744147" lon="10.780796822508215"><ele>106.0</ele><time>2026-04-19T12:53:38Z</time></trkpt><trkpt lat="43.45561076064553" lon="10.780832178553677"><ele>106.0</ele><time>2026-04-19T12:53:39Z</time></trkpt><trkpt lat="43.45568552658076" lon="10.780902224327503"><ele>106.00000000000001</ele><time>2026-04-19T12:53:40Z</time></trkpt><trkpt lat="43.455756112415735" lon="10.780946521546689"><ele>106.0</ele><time>2026-04-19T12:53:41Z</time></trkpt><trkpt lat="43.4558773119442" lon="10.781014594286848"><ele>106.00000000000001</ele><time>2026-04-19T12:53:43Z</time></trkpt><trkpt lat="43.45594832924963" lon="10.781049621546854"><ele>106.0</ele><time>2026-04-19T12:53:44Z</time></trkpt><trkpt lat="43.456022821333775" lon="10.781069192021237"><ele>106.0</ele><time>2026-04-19T12:53:45Z</time></trkpt><trkpt lat="43.45613560453434" lon="10.781132181309314"><ele>106.0</ele><time>2026-04-19T12:53:47Z</time></trkpt><trkpt lat="43.456197024360506" lon="10.781181303438316"><ele>106.00000000000001</ele><time>2026-04-19T12:53:48Z</time></trkpt><trkpt lat="43.45626687641189" lon="10.78122432908367"><ele>106.0</ele><time>2026-04-19T12:53:49Z</time></trkpt><trkpt lat="43.4563191269703" lon="10.781289984466698"><ele>103.00000000000001</ele><time>2026-04-19T12:53:50Z</time></trkpt><trkpt lat="43.45635786844542" lon="10.781370250395296"><ele>100.0</ele><time>2026-04-19T12:53:51Z</time></trkpt><trkpt lat="43.45638692892978" lon="10.781459485642214"><ele>97.0</ele><time>2026-04-19T12:53:52Z</time></trkpt><trkpt lat="43.45640626141881" lon="10.7815569925621"><ele>94.0</ele><time>2026-04-19T12:53:53Z</time></trkpt><trkpt lat="43.45643659959233" lon="10.781650656409951"><ele>91.0</ele><time>2026-04-19T12:53:54Z</time></trkpt><trkpt lat="43.45649895335051" lon="10.781724653438559"><ele>88.0</ele><time>2026-04-19T12:53:55Z</time></trkpt><trkpt lat="43.4565692897001" lon="10.781779239495673"><ele>88.0</ele><time>2026-04-19T12:53:56Z</time></trkpt><trkpt lat="43.456670885760225" lon="10.781796809438626"><ele>88.0</ele><time>2026-04-19T12:53:57Z</time></trkpt><trkpt lat="43.456796205005126" lon="10.781790687208662"><ele>88.0</ele><time>2026-04-19T12:53:58Z</time></trkpt><trkpt lat="43.45692433982783" lon="10.781792632579426"><ele>88.0</ele><time>2026-04-19T12:53:59Z</time></trkpt><trkpt lat="43.45704404403697" lon="10.781803880968194"><ele>87.60000000000001</ele><time>2026-04-19T12:54:00Z</time></trkpt><trkpt lat="43.45716493929761" lon="10.781817062707338"><ele>87.2</ele><time>2026-04-19T12:54:01Z</time></trkpt><trkpt lat="43.45727155712249" lon="10.781831785009558"><ele>86.8</ele><time>2026-04-19T12:54:02Z</time></trkpt><trkpt lat="43.45735666862451" lon="10.781834601842647"><ele>86.4</ele><time>2026-04-19T12:54:03Z</time></trkpt><trkpt lat="43.457429390480534" lon="10.781843711163258"><ele>86.0</ele><time>2026-04-19T12:54:04Z</time></trkpt><trkpt lat="43.45753419655654" lon="10.781892048599929"><ele>85.5</ele><time>2026-04-19T12:54:06Z</time></trkpt><trkpt lat="43.457601273355436" lon="10.782003254730558"><ele>85.0</ele><time>2026-04-19T12:54:08Z</time></trkpt><trkpt lat="43.45761750234095" lon="10.78208732761361"><ele>84.5</ele><time>2026-04-19T12:54:13Z</time></trkpt><trkpt lat="43.45765092089297" lon="10.782175818154407"><ele>84.0</ele><time>2026-04-19T12:54:22.001Z</time></trkpt><trkpt lat="43.45775493829753" lon="10.78211074814818"><ele>83.5</ele><time>2026-04-19T12:54:23.001Z</time></trkpt><trkpt lat="43.45781548452161" lon="10.782023645682985"><ele>83.0</ele><time>2026-04-19T12:54:24.001Z</time></trkpt><trkpt lat="43.457873759673674" lon="10.781960222863594"><ele>83.0</ele><time>2026-04-19T12:54:25.001Z</time></trkpt><trkpt lat="43.457943855446445" lon="10.781885762598778"><ele>83.0</ele><time>2026-04-19T12:54:26.001Z</time></trkpt><trkpt lat="43.45802220864034" lon="10.781800477553709"><ele>83.0</ele><time>2026-04-19T12:54:27.001Z</time></trkpt><trkpt lat="43.45811238276581" lon="10.781703862277766"><ele>83.0</ele><time>2026-04-19T12:54:28.001Z</time></trkpt><trkpt lat="43.45820837604058" lon="10.781600877347707"><ele>83.0</ele><time>2026-04-19T12:54:29.001Z</time></trkpt><trkpt lat="43.45831099706547" lon="10.781491405266081"><ele>83.0</ele><time>2026-04-19T12:54:30.001Z</time></trkpt><trkpt lat="43.45842171918963" lon="10.78137286053607"><ele>83.0</ele><time>2026-04-19T12:54:30.998Z</time></trkpt><trkpt lat="43.45853986430861" lon="10.781247897412412"><ele>83.0</ele><time>2026-04-19T12:54:31.998Z</time></trkpt><trkpt lat="43.45866511002361" lon="10.781118214614203"><ele>83.0</ele><time>2026-04-19T12:54:32.998Z</time></trkpt><trkpt lat="43.45879718109452" lon="10.780978931745762"><ele>82.66666666666667</ele><time>2026-04-19T12:54:33.998Z</time></trkpt><trkpt lat="43.45893429729636" lon="10.780834336971086"><ele>82.33333333333333</ele><time>2026-04-19T12:54:34.998Z</time></trkpt><trkpt lat="43.45907683001284" lon="10.780685176338201"><ele>82.0</ele><time>2026-04-19T12:54:35.998Z</time></trkpt><trkpt lat="43.459222543060584" lon="10.780528978503654"><ele>82.0</ele><time>2026-04-19T12:54:36.998Z</time></trkpt><trkpt lat="43.45937325904989" lon="10.780371617337265"><ele>82.0</ele><time>2026-04-19T12:54:37.998Z</time></trkpt><trkpt lat="43.45952828952818" lon="10.780210613945236"><ele>82.0</ele><time>2026-04-19T12:54:38.998Z</time></trkpt><trkpt lat="43.45968763191204" lon="10.78004532522163"><ele>82.66666666666666</ele><time>2026-04-19T12:54:39.998Z</time></trkpt><trkpt lat="43.45984844187199" lon="10.779877110751102"><ele>83.33333333333333</ele><time>2026-04-19T12:54:40.998Z</time></trkpt><trkpt lat="43.46001239252362" lon="10.779706555436094"><ele>84.0</ele><time>2026-04-19T12:54:41.998Z</time></trkpt><trkpt lat="43.460180209615736" lon="10.779534501029406"><ele>84.0</ele><time>2026-04-19T12:54:42.998Z</time></trkpt><trkpt lat="43.46034902076307" lon="10.779361337141484"><ele>84.0</ele><time>2026-04-19T12:54:43.998Z</time></trkpt><trkpt lat="43.46051560050532" lon="10.779186760866786"><ele>84.0</ele><time>2026-04-19T12:54:44.998Z</time></trkpt><trkpt lat="43.46068151342731" lon="10.779011036786354"><ele>84.33333333333333</ele><time>2026-04-19T12:54:45.998Z</time></trkpt><trkpt lat="43.46084712214758" lon="10.778835913256067"><ele>84.66666666666666</ele><time>2026-04-19T12:54:46.998Z</time></trkpt><trkpt lat="43.461009499685616" lon="10.778664632003048"><ele>85.0</ele><time>2026-04-19T12:54:47.998Z</time></trkpt><trkpt lat="43.46116697442875" lon="10.77849840446699"><ele>84.33333333333333</ele><time>2026-04-19T12:54:48.998Z</time></trkpt><trkpt lat="43.4613237574562" lon="10.778341487859304"><ele>83.66666666666667</ele><time>2026-04-19T12:54:49.999Z</time></trkpt><trkpt lat="43.46148283809139" lon="10.778199610718032"><ele>83.0</ele><time>2026-04-19T12:54:50.999Z</time></trkpt><trkpt lat="43.461645263913546" lon="10.778069663775685"><ele>83.0</ele><time>2026-04-19T12:54:51.999Z</time></trkpt><trkpt lat="43.46180517332495" lon="10.77794324683848"><ele>83.0</ele><time>2026-04-19T12:54:52.999Z</time></trkpt><trkpt lat="43.46196493957406" lon="10.777820118526686"><ele>83.0</ele><time>2026-04-19T12:54:53.999Z</time></trkpt><trkpt lat="43.46212032000325" lon="10.777696081645894"><ele>83.0</ele><time>2026-04-19T12:54:54.999Z</time></trkpt><trkpt lat="43.46227593658657" lon="10.777575333802874"><ele>83.0</ele><time>2026-04-19T12:54:55.999Z</time></trkpt><trkpt lat="43.46242925603204" lon="10.777459094577708"><ele>83.0</ele><time>2026-04-19T12:54:56.999Z</time></trkpt><trkpt lat="43.462583599318286" lon="10.777343849519058"><ele>83.0</ele><time>2026-04-19T12:54:57.999Z</time></trkpt><trkpt lat="43.46273173270022" lon="10.777221835113883"><ele>83.0</ele><time>2026-04-19T12:54:58.999Z</time></trkpt><trkpt lat="43.46288007515699" lon="10.777099668742633"><ele>83.0</ele><time>2026-04-19T12:54:59.999Z</time></trkpt><trkpt lat="43.46302655512149" lon="10.77697921914488"><ele>82.33333333333334</ele><time>2026-04-19T12:55:00.999Z</time></trkpt><trkpt lat="43.46317148536254" lon="10.776864167198626"><ele>81.66666666666667</ele><time>2026-04-19T12:55:01.999Z</time></trkpt><trkpt lat="43.4633181331107" lon="10.776748308726235"><ele>81.0</ele><time>2026-04-19T12:55:02.999Z</time></trkpt><trkpt lat="43.463461966673655" lon="10.776635655470686"><ele>81.0</ele><time>2026-04-19T12:55:03.999Z</time></trkpt><trkpt lat="43.46360579667849" lon="10.776525379987996"><ele>81.0</ele><time>2026-04-19T12:55:04.999Z</time></trkpt><trkpt lat="43.46374867824103" lon="10.77641329308803"><ele>81.0</ele><time>2026-04-19T12:55:05.999Z</time></trkpt><trkpt lat="43.46389099073111" lon="10.77630055827138"><ele>80.33333333333333</ele><time>2026-04-19T12:55:06.999Z</time></trkpt><trkpt lat="43.464032204819496" lon="10.776186158821798"><ele>79.66666666666666</ele><time>2026-04-19T12:55:07.999Z</time></trkpt><trkpt lat="43.46417448179306" lon="10.776073086576657"><ele>79.0</ele><time>2026-04-19T12:55:08.999Z</time></trkpt><trkpt lat="43.464318192434376" lon="10.775958026404426"><ele>79.0</ele><time>2026-04-19T12:55:09.999Z</time></trkpt><trkpt lat="43.46446536084934" lon="10.775844522442933"><ele>79.0</ele><time>2026-04-19T12:55:10.999Z</time></trkpt><trkpt lat="43.4646105600255" lon="10.775728712336974"><ele>79.0</ele><time>2026-04-19T12:55:11.999Z</time></trkpt><trkpt lat="43.4647571019948" lon="10.775613464924731"><ele>79.0</ele><time>2026-04-19T12:55:12.999Z</time></trkpt><trkpt lat="43.46490350829851" lon="10.775497150948413"><ele>79.0</ele><time>2026-04-19T12:55:13.999Z</time></trkpt><trkpt lat="43.46505390388564" lon="10.775378844172097"><ele>79.0</ele><time>2026-04-19T12:55:14.999Z</time></trkpt><trkpt lat="43.465205924914585" lon="10.775259276867555"><ele>78.66666666666666</ele><time>2026-04-19T12:55:15.999Z</time></trkpt><trkpt lat="43.465359973672996" lon="10.775136330652812"><ele>78.33333333333333</ele><time>2026-04-19T12:55:16.999Z</time></trkpt><trkpt lat="43.465514610862776" lon="10.77501193985483"><ele>78.0</ele><time>2026-04-19T12:55:17.999Z</time></trkpt><trkpt lat="43.46567385685815" lon="10.774893233634657"><ele>78.0</ele><time>2026-04-19T12:55:18.999Z</time></trkpt><trkpt lat="43.46584195540429" lon="10.774789338829803"><ele>78.0</ele><time>2026-04-19T12:55:19.999Z</time></trkpt><trkpt lat="43.466016149737165" lon="10.77471121498327"><ele>78.0</ele><time>2026-04-19T12:55:20.999Z</time></trkpt><trkpt lat="43.466196046694556" lon="10.774657070686368"><ele>77.66666666666667</ele><time>2026-04-19T12:55:22Z</time></trkpt><trkpt lat="43.46637347670009" lon="10.774604160698194"><ele>77.33333333333334</ele><time>2026-04-19T12:55:23Z</time></trkpt><trkpt lat="43.466545261724164" lon="10.774552415253122"><ele>77.0</ele><time>2026-04-19T12:55:24Z</time></trkpt><trkpt lat="43.466714789565835" lon="10.77450487288559"><ele>77.0</ele><time>2026-04-19T12:55:25Z</time></trkpt><trkpt lat="43.46688151031261" lon="10.774457810515521"><ele>77.0</ele><time>2026-04-19T12:55:26Z</time></trkpt><trkpt lat="43.46704486064323" lon="10.77440919824548"><ele>77.0</ele><time>2026-04-19T12:55:27Z</time></trkpt><trkpt lat="43.46720568511403" lon="10.774361581238917"><ele>79.0</ele><time>2026-04-19T12:55:28Z</time></trkpt><trkpt lat="43.46736586012455" lon="10.77431420548304"><ele>81.0</ele><time>2026-04-19T12:55:29Z</time></trkpt><trkpt lat="43.467524991443916" lon="10.77426093161424"><ele>83.0</ele><time>2026-04-19T12:55:30Z</time></trkpt><trkpt lat="43.46767736304411" lon="10.774185633297696"><ele>83.0</ele><time>2026-04-19T12:55:31Z</time></trkpt><trkpt lat="43.46781720356237" lon="10.774080697429394"><ele>83.0</ele><time>2026-04-19T12:55:32Z</time></trkpt><trkpt lat="43.46794787289878" lon="10.773958765087121"><ele>83.0</ele><time>2026-04-19T12:55:33Z</time></trkpt><trkpt lat="43.46807082442889" lon="10.773826492230745"><ele>84.0</ele><time>2026-04-19T12:55:34Z</time></trkpt><trkpt lat="43.46819653707138" lon="10.773695027017222"><ele>85.0</ele><time>2026-04-19T12:55:35Z</time></trkpt><trkpt lat="43.468322606277034" lon="10.7735627947417"><ele>86.0</ele><time>2026-04-19T12:55:36Z</time></trkpt><trkpt lat="43.46844936164268" lon="10.773428955325329"><ele>86.0</ele><time>2026-04-19T12:55:37Z</time></trkpt><trkpt lat="43.46857923350117" lon="10.773295364723511"><ele>86.0</ele><time>2026-04-19T12:55:38Z</time></trkpt><trkpt lat="43.468706943950565" lon="10.773159955032755"><ele>86.0</ele><time>2026-04-19T12:55:39Z</time></trkpt><trkpt lat="43.46883748156464" lon="10.773023045502924"><ele>84.66666666666667</ele><time>2026-04-19T12:55:40Z</time></trkpt><trkpt lat="43.46896931804432" lon="10.772885754485506"><ele>83.33333333333333</ele><time>2026-04-19T12:55:41Z</time></trkpt><trkpt lat="43.46910328908732" lon="10.772747703035417"><ele>82.0</ele><time>2026-04-19T12:55:42Z</time></trkpt><trkpt lat="43.46923906296477" lon="10.772609453781794"><ele>82.0</ele><time>2026-04-19T12:55:43Z</time></trkpt><trkpt lat="43.46937699495669" lon="10.772468619301227"><ele>82.0</ele><time>2026-04-19T12:55:44Z</time></trkpt><trkpt lat="43.46951427746203" lon="10.772324586505492"><ele>82.0</ele><time>2026-04-19T12:55:45Z</time></trkpt><trkpt lat="43.46965064697344" lon="10.772179088497028"><ele>82.33333333333333</ele><time>2026-04-19T12:55:46Z</time></trkpt><trkpt lat="43.46978535640993" lon="10.77203075970645"><ele>82.66666666666667</ele><time>2026-04-19T12:55:47Z</time></trkpt><trkpt lat="43.46991805813801" lon="10.771875499134385"><ele>83.0</ele><time>2026-04-19T12:55:48Z</time></trkpt><trkpt lat="43.470049700513634" lon="10.771717981190973"><ele>83.0</ele><time>2026-04-19T12:55:49Z</time></trkpt><trkpt lat="43.47018742678812" lon="10.771557960211702"><ele>83.0</ele><time>2026-04-19T12:55:50Z</time></trkpt><trkpt lat="43.47032735788222" lon="10.771392678755019"><ele>83.0</ele><time>2026-04-19T12:55:51Z</time></trkpt><trkpt lat="43.4704695242376" lon="10.771222978931407"><ele>81.66666666666667</ele><time>2026-04-19T12:55:52Z</time></trkpt><trkpt lat="43.470613658788935" lon="10.771049132858726"><ele>80.33333333333333</ele><time>2026-04-19T12:55:53Z</time></trkpt><trkpt lat="43.47075930441975" lon="10.77087046094371"><ele>79.0</ele><time>2026-04-19T12:55:54Z</time></trkpt><trkpt lat="43.47090338748722" lon="10.770681866301233"><ele>79.0</ele><time>2026-04-19T12:55:55Z</time></trkpt><trkpt lat="43.4710411278982" lon="10.770478855595455"><ele>79.0</ele><time>2026-04-19T12:55:56Z</time></trkpt><trkpt lat="43.47117433682563" lon="10.770262722764874"><ele>79.0</ele><time>2026-04-19T12:55:57Z</time></trkpt><trkpt lat="43.4713032787298" lon="10.770039578614414"><ele>77.66666666666666</ele><time>2026-04-19T12:55:58Z</time></trkpt><trkpt lat="43.47142843274237" lon="10.769822434667155"><ele>76.33333333333333</ele><time>2026-04-19T12:55:59Z</time></trkpt><trkpt lat="43.47154762673499" lon="10.769607021967479"><ele>75.0</ele><time>2026-04-19T12:56:00Z</time></trkpt><trkpt lat="43.471656927722314" lon="10.769389077086002"><ele>77.0</ele><time>2026-04-19T12:56:01Z</time></trkpt><trkpt lat="43.47174682067103" lon="10.769164613246845"><ele>79.0</ele><time>2026-04-19T12:56:02Z</time></trkpt><trkpt lat="43.47182268321439" lon="10.768936476295103"><ele>81.0</ele><time>2026-04-19T12:56:03Z</time></trkpt><trkpt lat="43.47188891071918" lon="10.768707076305112"><ele>80.0</ele><time>2026-04-19T12:56:04Z</time></trkpt><trkpt lat="43.471949533072674" lon="10.768488958359876"><ele>79.0</ele><time>2026-04-19T12:56:05Z</time></trkpt><trkpt lat="43.47200614833581" lon="10.76828133752989"><ele>78.0</ele><time>2026-04-19T12:56:06Z</time></trkpt><trkpt lat="43.472059854288496" lon="10.768088400760547"><ele>77.5</ele><time>2026-04-19T12:56:07Z</time></trkpt><trkpt lat="43.47211007523489" lon="10.767911157901775"><ele>77.0</ele><time>2026-04-19T12:56:08Z</time></trkpt><trkpt lat="43.47215689024999" lon="10.767737919324809"><ele>76.5</ele><time>2026-04-19T12:56:09Z</time></trkpt><trkpt lat="43.472206451488546" lon="10.76756197907074"><ele>76.0</ele><time>2026-04-19T12:56:10Z</time></trkpt><trkpt lat="43.472256426250894" lon="10.76738086971207"><ele>76.0</ele><time>2026-04-19T12:56:11Z</time></trkpt><trkpt lat="43.47230827069837" lon="10.767189057902797"><ele>76.0</ele><time>2026-04-19T12:56:12Z</time></trkpt><trkpt lat="43.47236173206728" lon="10.76699676048638"><ele>76.0</ele><time>2026-04-19T12:56:13Z</time></trkpt><trkpt lat="43.472420146990764" lon="10.766799070693757"><ele>76.0</ele><time>2026-04-19T12:56:14Z</time></trkpt><trkpt lat="43.472476427423786" lon="10.766598429497218"><ele>76.0</ele><time>2026-04-19T12:56:15.001Z</time></trkpt><trkpt lat="43.47253378027547" lon="10.766394168935541"><ele>76.0</ele><time>2026-04-19T12:56:16.001Z</time></trkpt><trkpt lat="43.47258976660758" lon="10.766186964484069"><ele>76.66666666666666</ele><time>2026-04-19T12:56:17.001Z</time></trkpt><trkpt lat="43.47264360023235" lon="10.765974806812089"><ele>77.33333333333333</ele><time>2026-04-19T12:56:18.001Z</time></trkpt><trkpt lat="43.47270489354176" lon="10.765763672341542"><ele>78.0</ele><time>2026-04-19T12:56:19.001Z</time></trkpt><trkpt lat="43.47276919452107" lon="10.765550970290422"><ele>78.0</ele><time>2026-04-19T12:56:20.001Z</time></trkpt><trkpt lat="43.47282627711368" lon="10.765332716262407"><ele>78.0</ele><time>2026-04-19T12:56:21.001Z</time></trkpt><trkpt lat="43.47287552187769" lon="10.765108446201253"><ele>78.0</ele><time>2026-04-19T12:56:22.001Z</time></trkpt><trkpt lat="43.472915402402585" lon="10.76488621083002"><ele>78.33333333333333</ele><time>2026-04-19T12:56:23.001Z</time></trkpt><trkpt lat="43.472943066722436" lon="10.764671013057999"><ele>78.66666666666666</ele><time>2026-04-19T12:56:24.001Z</time></trkpt><trkpt lat="43.47296623416813" lon="10.764462813099525"><ele>79.0</ele><time>2026-04-19T12:56:25.001Z</time></trkpt><trkpt lat="43.472984242643115" lon="10.76427399598235"><ele>79.0</ele><time>2026-04-19T12:56:26.001Z</time></trkpt><trkpt lat="43.47300022329057" lon="10.76409908025526"><ele>79.0</ele><time>2026-04-19T12:56:27.001Z</time></trkpt><trkpt lat="43.473010558165456" lon="10.763945774107402"><ele>79.0</ele><time>2026-04-19T12:56:28.001Z</time></trkpt><trkpt lat="43.47301989910388" lon="10.763810378091627"><ele>79.0</ele><time>2026-04-19T12:56:29.001Z</time></trkpt><trkpt lat="43.4730250814964" lon="10.763707238627138"><ele>79.0</ele><time>2026-04-19T12:56:30.001Z</time></trkpt><trkpt lat="43.47303761803935" lon="10.763569998207856"><ele>79.66666666666666</ele><time>2026-04-19T12:56:32.001Z</time></trkpt><trkpt lat="43.47304859365738" lon="10.763478863942748"><ele>80.33333333333333</ele><time>2026-04-19T12:56:38.997Z</time></trkpt><trkpt lat="43.47304836644483" lon="10.763315993603095"><ele>81.0</ele><time>2026-04-19T12:56:53.998Z</time></trkpt><trkpt lat="43.47306423349877" lon="10.763172299806264"><ele>81.66666666666667</ele><time>2026-04-19T12:56:55.998Z</time></trkpt><trkpt lat="43.47306761736698" lon="10.763079111401762"><ele>82.33333333333334</ele><time>2026-04-19T12:56:56.998Z</time></trkpt><trkpt lat="43.47310271516524" lon="10.76299320089403"><ele>83.0</ele><time>2026-04-19T12:56:57.998Z</time></trkpt><trkpt lat="43.47311707129748" lon="10.76289187761679"><ele>83.0</ele><time>2026-04-19T12:56:58.998Z</time></trkpt><trkpt lat="43.47315455034157" lon="10.762795281291018"><ele>83.0</ele><time>2026-04-19T12:56:59.998Z</time></trkpt><trkpt lat="43.47320428385255" lon="10.762704188296746"><ele>83.0</ele><time>2026-04-19T12:57:00.998Z</time></trkpt><trkpt lat="43.473273464853314" lon="10.76262726790597"><ele>83.0</ele><time>2026-04-19T12:57:01.998Z</time></trkpt><trkpt lat="43.47335677155924" lon="10.762567096380707"><ele>83.0</ele><time>2026-04-19T12:57:02.998Z</time></trkpt><trkpt lat="43.47344719427772" lon="10.76250899612779"><ele>83.0</ele><time>2026-04-19T12:57:03.998Z</time></trkpt><trkpt lat="43.47354346051714" lon="10.762448021509282"><ele>84.2</ele><time>2026-04-19T12:57:04.998Z</time></trkpt><trkpt lat="43.473641665308186" lon="10.762379974031221"><ele>85.4</ele><time>2026-04-19T12:57:05.998Z</time></trkpt><trkpt lat="43.473736109570524" lon="10.76230695260784"><ele>86.60000000000001</ele><time>2026-04-19T12:57:06.998Z</time></trkpt><trkpt lat="43.47382931562364" lon="10.76223130791163"><ele>87.80000000000001</ele><time>2026-04-19T12:57:07.998Z</time></trkpt><trkpt lat="43.47392241193243" lon="10.762155475320013"><ele>89.0</ele><time>2026-04-19T12:57:08.998Z</time></trkpt><trkpt lat="43.47401770128079" lon="10.762077732134218"><ele>89.0</ele><time>2026-04-19T12:57:09.998Z</time></trkpt><trkpt lat="43.47411146302956" lon="10.761989709174081"><ele>89.0</ele><time>2026-04-19T12:57:10.999Z</time></trkpt><trkpt lat="43.474208085584564" lon="10.761907851970445"><ele>89.0</ele><time>2026-04-19T12:57:11.999Z</time></trkpt><trkpt lat="43.47430839388655" lon="10.761828046141058"><ele>89.0</ele><time>2026-04-19T12:57:12.999Z</time></trkpt><trkpt lat="43.474408099696944" lon="10.761745088531857"><ele>90.5</ele><time>2026-04-19T12:57:13.999Z</time></trkpt><trkpt lat="43.47450818917711" lon="10.761659924352132"><ele>92.0</ele><time>2026-04-19T12:57:14.999Z</time></trkpt><trkpt lat="43.47461021541349" lon="10.76157816369756"><ele>93.5</ele><time>2026-04-19T12:57:15.999Z</time></trkpt><trkpt lat="43.47471469144671" lon="10.761494741833806"><ele>95.0</ele><time>2026-04-19T12:57:16.999Z</time></trkpt><trkpt lat="43.47481996162154" lon="10.761411306706037"><ele>95.0</ele><time>2026-04-19T12:57:17.999Z</time></trkpt><trkpt lat="43.47492937684581" lon="10.761321503191095"><ele>95.0</ele><time>2026-04-19T12:57:18.999Z</time></trkpt><trkpt lat="43.47503505481191" lon="10.761216304953882"><ele>95.0</ele><time>2026-04-19T12:57:19.999Z</time></trkpt><trkpt lat="43.47512705193113" lon="10.761087328997107"><ele>95.0</ele><time>2026-04-19T12:57:20.999Z</time></trkpt><trkpt lat="43.47520154673122" lon="10.760938578003897"><ele>98.0</ele><time>2026-04-19T12:57:21.999Z</time></trkpt><trkpt lat="43.475240617469524" lon="10.760776294868156"><ele>101.0</ele><time>2026-04-19T12:57:22.999Z</time></trkpt><trkpt lat="43.47526291227732" lon="10.760595884596807"><ele>104.0</ele><time>2026-04-19T12:57:23.999Z</time></trkpt><trkpt lat="43.47528023692868" lon="10.760415443733962"><ele>107.0</ele><time>2026-04-19T12:57:24.999Z</time></trkpt><trkpt lat="43.475281893474694" lon="10.760229645256878"><ele>108.5</ele><time>2026-04-19T12:57:25.999Z</time></trkpt><trkpt lat="43.475264780444746" lon="10.760060445628609"><ele>110.0</ele><time>2026-04-19T12:57:26.999Z</time></trkpt><trkpt lat="43.47526756667828" lon="10.75989312311935"><ele>111.5</ele><time>2026-04-19T12:57:27.999Z</time></trkpt><trkpt lat="43.47525742784118" lon="10.759722549934454"><ele>113.0</ele><time>2026-04-19T12:57:28.999Z</time></trkpt><trkpt lat="43.47524827666718" lon="10.759548606953741"><ele>113.0</ele><time>2026-04-19T12:57:29.999Z</time></trkpt><trkpt lat="43.47522608877586" lon="10.759368068779644"><ele>113.0</ele><time>2026-04-19T12:57:30.999Z</time></trkpt><trkpt lat="43.475220157307646" lon="10.759189290167347"><ele>113.0</ele><time>2026-04-19T12:57:31.999Z</time></trkpt><trkpt lat="43.475213641069935" lon="10.759005925727765"><ele>113.0</ele><time>2026-04-19T12:57:32.999Z</time></trkpt><trkpt lat="43.47518899045894" lon="10.758823805664782"><ele>113.5</ele><time>2026-04-19T12:57:33.999Z</time></trkpt><trkpt lat="43.47517417331594" lon="10.758641283118578"><ele>114.0</ele><time>2026-04-19T12:57:34.999Z</time></trkpt><trkpt lat="43.47513800555926" lon="10.758468979709821"><ele>114.5</ele><time>2026-04-19T12:57:35.999Z</time></trkpt><trkpt lat="43.47509783662693" lon="10.758311911495095"><ele>115.0</ele><time>2026-04-19T12:57:36.999Z</time></trkpt><trkpt lat="43.4750541741398" lon="10.758166908866128"><ele>116.00000000000001</ele><time>2026-04-19T12:57:37.999Z</time></trkpt><trkpt lat="43.47499918222984" lon="10.758046113657327"><ele>117.0</ele><time>2026-04-19T12:57:38.999Z</time></trkpt><trkpt lat="43.47492055677164" lon="10.757969232421756"><ele>118.0</ele><time>2026-04-19T12:57:39.999Z</time></trkpt><trkpt lat="43.47485615294566" lon="10.757905169864932"><ele>119.0</ele><time>2026-04-19T12:57:40.999Z</time></trkpt><trkpt lat="43.474805248429675" lon="10.757844546059708"><ele>120.00000000000001</ele><time>2026-04-19T12:57:41.999Z</time></trkpt><trkpt lat="43.474742374273184" lon="10.757782377203359"><ele>121.0</ele><time>2026-04-19T12:57:45Z</time></trkpt><trkpt lat="43.474654087023424" lon="10.757702942724892"><ele>122.16666666666667</ele><time>2026-04-19T12:57:47Z</time></trkpt><trkpt lat="43.47460127450016" lon="10.757648767426529"><ele>123.33333333333334</ele><time>2026-04-19T12:57:48Z</time></trkpt><trkpt lat="43.474544346237735" lon="10.757590369714224"><ele>124.5</ele><time>2026-04-19T12:57:49Z</time></trkpt><trkpt lat="43.47448388762661" lon="10.757528350657992"><ele>125.66666666666666</ele><time>2026-04-19T12:57:50Z</time></trkpt><trkpt lat="43.47441633901903" lon="10.757458756091879"><ele>126.83333333333333</ele><time>2026-04-19T12:57:51Z</time></trkpt><trkpt lat="43.474345064535264" lon="10.757384944987264"><ele>128.0</ele><time>2026-04-19T12:57:52Z</time></trkpt><trkpt lat="43.47427134424613" lon="10.757308601000222"><ele>128.0</ele><time>2026-04-19T12:57:53Z</time></trkpt><trkpt lat="43.47419508450735" lon="10.757231174206932"><ele>128.0</ele><time>2026-04-19T12:57:54Z</time></trkpt><trkpt lat="43.47411968361458" lon="10.757155304991802"><ele>128.0</ele><time>2026-04-19T12:57:55Z</time></trkpt><trkpt lat="43.47404607421572" lon="10.757079798722136"><ele>128.0</ele><time>2026-04-19T12:57:56Z</time></trkpt><trkpt lat="43.47397314447338" lon="10.757000774561384"><ele>128.0</ele><time>2026-04-19T12:57:57Z</time></trkpt><trkpt lat="43.47390600842314" lon="10.756920600030382"><ele>127.66666666666666</ele><time>2026-04-19T12:57:58Z</time></trkpt><trkpt lat="43.47384572370145" lon="10.756834359120708"><ele>127.33333333333333</ele><time>2026-04-19T12:57:59Z</time></trkpt><trkpt lat="43.473792400382074" lon="10.756743439417097"><ele>127.0</ele><time>2026-04-19T12:58:00Z</time></trkpt><trkpt lat="43.473744403900405" lon="10.756645629901785"><ele>126.66666666666666</ele><time>2026-04-19T12:58:01Z</time></trkpt><trkpt lat="43.47369881951354" lon="10.756542105504506"><ele>126.33333333333333</ele><time>2026-04-19T12:58:02Z</time></trkpt><trkpt lat="43.473660542527064" lon="10.75643168229139"><ele>126.0</ele><time>2026-04-19T12:58:03Z</time></trkpt><trkpt lat="43.47362405987641" lon="10.756312375156137"><ele>126.0</ele><time>2026-04-19T12:58:04Z</time></trkpt><trkpt lat="43.473586957007534" lon="10.756184423247102"><ele>126.0</ele><time>2026-04-19T12:58:05Z</time></trkpt><trkpt lat="43.473548679370865" lon="10.756054771904386"><ele>126.0</ele><time>2026-04-19T12:58:06Z</time></trkpt><trkpt lat="43.47351087826481" lon="10.755926961794898"><ele>126.0</ele><time>2026-04-19T12:58:07Z</time></trkpt><trkpt lat="43.47347363301555" lon="10.755801030867554"><ele>126.0</ele><time>2026-04-19T12:58:08Z</time></trkpt><trkpt lat="43.47343592659184" lon="10.75567354070802"><ele>126.0</ele><time>2026-04-19T12:58:09Z</time></trkpt><trkpt lat="43.47339587141863" lon="10.755542444410995"><ele>126.0</ele><time>2026-04-19T12:58:10Z</time></trkpt><trkpt lat="43.473352593016934" lon="10.755409954039347"><ele>126.0</ele><time>2026-04-19T12:58:11Z</time></trkpt><trkpt lat="43.47330625908458" lon="10.75527770947613"><ele>126.0</ele><time>2026-04-19T12:58:12Z</time></trkpt><trkpt lat="43.47325724202675" lon="10.755145157796585"><ele>126.0</ele><time>2026-04-19T12:58:13Z</time></trkpt><trkpt lat="43.47320930062164" lon="10.755016623496592"><ele>126.0</ele><time>2026-04-19T12:58:14Z</time></trkpt><trkpt lat="43.47316541400848" lon="10.754898959982423"><ele>126.0</ele><time>2026-04-19T12:58:15Z</time></trkpt><trkpt lat="43.473127823308126" lon="10.754798176518385"><ele>126.0</ele><time>2026-04-19T12:58:16Z</time></trkpt><trkpt lat="43.47308940079906" lon="10.754696143476245"><ele>126.0</ele><time>2026-04-19T12:58:17Z</time></trkpt><trkpt lat="43.47304869355772" lon="10.75458994464403"><ele>126.0</ele><time>2026-04-19T12:58:18Z</time></trkpt><trkpt lat="43.47300778278928" lon="10.754482769053197"><ele>126.0</ele><time>2026-04-19T12:58:19Z</time></trkpt><trkpt lat="43.472966674534554" lon="10.754371633591628"><ele>125.8</ele><time>2026-04-19T12:58:20Z</time></trkpt><trkpt lat="43.4729260484674" lon="10.754258796748807"><ele>125.6</ele><time>2026-04-19T12:58:21Z</time></trkpt><trkpt lat="43.472887272996985" lon="10.754143481812541"><ele>125.4</ele><time>2026-04-19T12:58:22Z</time></trkpt><trkpt lat="43.4728514260259" lon="10.754025507179604"><ele>125.2</ele><time>2026-04-19T12:58:23Z</time></trkpt><trkpt lat="43.47281607373867" lon="10.753900724695646"><ele>125.0</ele><time>2026-04-19T12:58:24.001Z</time></trkpt><trkpt lat="43.47278246927569" lon="10.75377781473028"><ele>125.0</ele><time>2026-04-19T12:58:25.001Z</time></trkpt><trkpt lat="43.47274989846835" lon="10.753651949287068"><ele>125.0</ele><time>2026-04-19T12:58:26.001Z</time></trkpt><trkpt lat="43.472718666462164" lon="10.753531257113814"><ele>125.0</ele><time>2026-04-19T12:58:27.001Z</time></trkpt><trkpt lat="43.47268528794545" lon="10.753402270324008"><ele>125.0</ele><time>2026-04-19T12:58:28.001Z</time></trkpt><trkpt lat="43.47265186355436" lon="10.753275344188408"><ele>125.0</ele><time>2026-04-19T12:58:29.001Z</time></trkpt><trkpt lat="43.472618033786425" lon="10.753148619584511"><ele>125.2</ele><time>2026-04-19T12:58:30.001Z</time></trkpt><trkpt lat="43.47258231804104" lon="10.753019846579432"><ele>125.4</ele><time>2026-04-19T12:58:31.001Z</time></trkpt><trkpt lat="43.472546097940786" lon="10.752889694118323"><ele>125.6</ele><time>2026-04-19T12:58:32.001Z</time></trkpt><trkpt lat="43.47250918438981" lon="10.75275704980287"><ele>125.8</ele><time>2026-04-19T12:58:33.001Z</time></trkpt><trkpt lat="43.47247147328292" lon="10.752621539895468"><ele>126.0</ele><time>2026-04-19T12:58:34.001Z</time></trkpt><trkpt lat="43.47242064246598" lon="10.752496051860003"><ele>126.0</ele><time>2026-04-19T12:58:35.001Z</time></trkpt><trkpt lat="43.47239875522343" lon="10.752360132252885"><ele>126.0</ele><time>2026-04-19T12:58:36.001Z</time></trkpt><trkpt lat="43.47236256584665" lon="10.752229624418636"><ele>126.0</ele><time>2026-04-19T12:58:37.001Z</time></trkpt><trkpt lat="43.47232654258839" lon="10.752099716075202"><ele>126.0</ele><time>2026-04-19T12:58:38.001Z</time></trkpt><trkpt lat="43.472291829538214" lon="10.751971630105304"><ele>126.0</ele><time>2026-04-19T12:58:39.001Z</time></trkpt><trkpt lat="43.472258157837445" lon="10.751843766427996"><ele>125.6</ele><time>2026-04-19T12:58:40.001Z</time></trkpt><trkpt lat="43.47222538285692" lon="10.75171671755615"><ele>125.19999999999999</ele><time>2026-04-19T12:58:41.001Z</time></trkpt><trkpt lat="43.47219243772467" lon="10.751588411199887"><ele>124.80000000000001</ele><time>2026-04-19T12:58:41.998Z</time></trkpt><trkpt lat="43.472159151165364" lon="10.75145621063226"><ele>124.4</ele><time>2026-04-19T12:58:42.998Z</time></trkpt><trkpt lat="43.472125190126015" lon="10.751321331684574"><ele>124.0</ele><time>2026-04-19T12:58:43.998Z</time></trkpt><trkpt lat="43.47209031118069" lon="10.7511851092575"><ele>123.80000000000001</ele><time>2026-04-19T12:58:44.998Z</time></trkpt><trkpt lat="43.472054221635325" lon="10.751046694907417"><ele>123.60000000000001</ele><time>2026-04-19T12:58:45.998Z</time></trkpt><trkpt lat="43.472016428040064" lon="10.750904941992491"><ele>123.4</ele><time>2026-04-19T12:58:46.998Z</time></trkpt><trkpt lat="43.47197704384648" lon="10.75076240233271"><ele>123.2</ele><time>2026-04-19T12:58:47.998Z</time></trkpt><trkpt lat="43.47193379404613" lon="10.750616623806412"><ele>123.0</ele><time>2026-04-19T12:58:48.998Z</time></trkpt><trkpt lat="43.47188996687261" lon="10.75047077809305"><ele>123.0</ele><time>2026-04-19T12:58:49.999Z</time></trkpt><trkpt lat="43.471844484867425" lon="10.750326255575223"><ele>123.00000000000001</ele><time>2026-04-19T12:58:50.999Z</time></trkpt><trkpt lat="43.47179878810227" lon="10.750185461486941"><ele>123.00000000000001</ele><time>2026-04-19T12:58:51.999Z</time></trkpt><trkpt lat="43.471752971268586" lon="10.750046458619938"><ele>123.0</ele><time>2026-04-19T12:58:52.999Z</time></trkpt><trkpt lat="43.47170560937149" lon="10.749906404910215"><ele>123.0</ele><time>2026-04-19T12:58:53.999Z</time></trkpt><trkpt lat="43.47165769631999" lon="10.749767751926452"><ele>123.0</ele><time>2026-04-19T12:58:54.999Z</time></trkpt><trkpt lat="43.471606093403636" lon="10.749624479946206"><ele>123.0</ele><time>2026-04-19T12:58:55.999Z</time></trkpt><trkpt lat="43.47155026595918" lon="10.749477131945376"><ele>123.0</ele><time>2026-04-19T12:58:56.999Z</time></trkpt><trkpt lat="43.47149133182973" lon="10.749328688905903"><ele>123.0</ele><time>2026-04-19T12:58:57.999Z</time></trkpt><trkpt lat="43.47142777805778" lon="10.749175834373728"><ele>122.5</ele><time>2026-04-19T12:58:58.999Z</time></trkpt><trkpt lat="43.47136246500602" lon="10.74902023424232"><ele>122.0</ele><time>2026-04-19T12:58:59.999Z</time></trkpt><trkpt lat="43.47129156070384" lon="10.748859823731829"><ele>121.5</ele><time>2026-04-19T12:59:00.999Z</time></trkpt><trkpt lat="43.47120294614811" lon="10.748714545549387"><ele>121.0</ele><time>2026-04-19T12:59:01.999Z</time></trkpt><trkpt lat="43.471097444184146" lon="10.748601045021719"><ele>121.25</ele><time>2026-04-19T12:59:02.999Z</time></trkpt><trkpt lat="43.470983252842245" lon="10.748509339355381"><ele>121.5</ele><time>2026-04-19T12:59:03.999Z</time></trkpt><trkpt lat="43.47086198588102" lon="10.748426961888972"><ele>121.75</ele><time>2026-04-19T12:59:04.999Z</time></trkpt><trkpt lat="43.470734540007484" lon="10.748346111892312"><ele>122.0</ele><time>2026-04-19T12:59:05.999Z</time></trkpt><trkpt lat="43.470606443213924" lon="10.748274187707604"><ele>122.0</ele><time>2026-04-19T12:59:06.999Z</time></trkpt><trkpt lat="43.47048008748659" lon="10.748206902970768"><ele>122.0</ele><time>2026-04-19T12:59:07.999Z</time></trkpt><trkpt lat="43.470360371908065" lon="10.748142639876384"><ele>122.0</ele><time>2026-04-19T12:59:08.999Z</time></trkpt><trkpt lat="43.47024257271922" lon="10.748072790851353"><ele>122.0</ele><time>2026-04-19T12:59:09.999Z</time></trkpt><trkpt lat="43.47012501016174" lon="10.7479962634466"><ele>121.75</ele><time>2026-04-19T12:59:10.999Z</time></trkpt><trkpt lat="43.47001014458783" lon="10.747914137558038"><ele>121.5</ele><time>2026-04-19T12:59:11.999Z</time></trkpt><trkpt lat="43.46989617806987" lon="10.747826155528148"><ele>121.25</ele><time>2026-04-19T12:59:13Z</time></trkpt><trkpt lat="43.46978016564364" lon="10.747728735829007"><ele>121.0</ele><time>2026-04-19T12:59:14Z</time></trkpt><trkpt lat="43.46966285999401" lon="10.747623130004497"><ele>122.75</ele><time>2026-04-19T12:59:15Z</time></trkpt><trkpt lat="43.4695441556554" lon="10.74751626484473"><ele>124.5</ele><time>2026-04-19T12:59:16Z</time></trkpt><trkpt lat="43.46942417211204" lon="10.747408317076992"><ele>126.25</ele><time>2026-04-19T12:59:17Z</time></trkpt><trkpt lat="43.469303287407655" lon="10.747299563075565"><ele>128.0</ele><time>2026-04-19T12:59:18Z</time></trkpt><trkpt lat="43.46917552500289" lon="10.747184621434238"><ele>128.0</ele><time>2026-04-19T12:59:19Z</time></trkpt><trkpt lat="43.469047492279174" lon="10.7470694366912"><ele>128.0</ele><time>2026-04-19T12:59:20Z</time></trkpt><trkpt lat="43.46890935487634" lon="10.746940298444471"><ele>128.0</ele><time>2026-04-19T12:59:21Z</time></trkpt><trkpt lat="43.468805892893684" lon="10.746825957091628"><ele>130.0</ele><time>2026-04-19T12:59:22Z</time></trkpt><trkpt lat="43.468719778151936" lon="10.746689680762817"><ele>132.0</ele><time>2026-04-19T12:59:23Z</time></trkpt><trkpt lat="43.468653174934275" lon="10.746533279690459"><ele>134.0</ele><time>2026-04-19T12:59:24Z</time></trkpt><trkpt lat="43.468610595943375" lon="10.746358585278156"><ele>136.0</ele><time>2026-04-19T12:59:25Z</time></trkpt><trkpt lat="43.46856393942983" lon="10.74616406268581"><ele>135.75</ele><time>2026-04-19T12:59:26Z</time></trkpt><trkpt lat="43.46851720386986" lon="10.745957105022681"><ele>135.5</ele><time>2026-04-19T12:59:27Z</time></trkpt><trkpt lat="43.46847689885172" lon="10.745767936822704"><ele>135.25</ele><time>2026-04-19T12:59:28Z</time></trkpt><trkpt lat="43.46843600496784" lon="10.745586801420624"><ele>135.0</ele><time>2026-04-19T12:59:29Z</time></trkpt><trkpt lat="43.468374367522166" lon="10.745391797150512"><ele>135.0</ele><time>2026-04-19T12:59:30Z</time></trkpt><trkpt lat="43.46829618512786" lon="10.745228873820608"><ele>135.0</ele><time>2026-04-19T12:59:31Z</time></trkpt><trkpt lat="43.468210566517065" lon="10.745084202429098"><ele>135.0</ele><time>2026-04-19T12:59:32Z</time></trkpt><trkpt lat="43.468115541497596" lon="10.744960134270052"><ele>135.0</ele><time>2026-04-19T12:59:33Z</time></trkpt><trkpt lat="43.46800689943934" lon="10.744860604157761"><ele>136.25</ele><time>2026-04-19T12:59:34Z</time></trkpt><trkpt lat="43.467888425260234" lon="10.74478251071283"><ele>137.5</ele><time>2026-04-19T12:59:35Z</time></trkpt><trkpt lat="43.46776504826318" lon="10.74469606500276"><ele>138.75</ele><time>2026-04-19T12:59:36Z</time></trkpt><trkpt lat="43.467660047924376" lon="10.744610083608908"><ele>140.0</ele><time>2026-04-19T12:59:37Z</time></trkpt><trkpt lat="43.467559840515484" lon="10.744534735343418"><ele>140.0</ele><time>2026-04-19T12:59:38Z</time></trkpt><trkpt lat="43.467457560910816" lon="10.744465289291037"><ele>140.0</ele><time>2026-04-19T12:59:39Z</time></trkpt><trkpt lat="43.467371074478926" lon="10.744370852012894"><ele>140.0</ele><time>2026-04-19T12:59:40Z</time></trkpt><trkpt lat="43.46729691979143" lon="10.74428436826729"><ele>140.0</ele><time>2026-04-19T12:59:41Z</time></trkpt><trkpt lat="43.467244426375586" lon="10.744184773764882"><ele>140.0</ele><time>2026-04-19T12:59:42Z</time></trkpt><trkpt lat="43.4672453203599" lon="10.744068441843218"><ele>138.75</ele><time>2026-04-19T12:59:43Z</time></trkpt><trkpt lat="43.467261356741815" lon="10.743930696557856"><ele>137.5</ele><time>2026-04-19T12:59:44Z</time></trkpt><trkpt lat="43.46727986083832" lon="10.743767193647278"><ele>136.25</ele><time>2026-04-19T12:59:45Z</time></trkpt><trkpt lat="43.4672986584666" lon="10.74360078364461"><ele>135.0</ele><time>2026-04-19T12:59:46Z</time></trkpt><trkpt lat="43.46731505592207" lon="10.74342181341407"><ele>134.5</ele><time>2026-04-19T12:59:47.001Z</time></trkpt><trkpt lat="43.46733172707144" lon="10.743239047920172"><ele>134.0</ele><time>2026-04-19T12:59:48.001Z</time></trkpt><trkpt lat="43.46735301603363" lon="10.743047344055642"><ele>133.5</ele><time>2026-04-19T12:59:49.001Z</time></trkpt><trkpt lat="43.467383100630656" lon="10.742860629289494"><ele>133.0</ele><time>2026-04-19T12:59:50.001Z</time></trkpt><trkpt lat="43.46743041553289" lon="10.74267711409286"><ele>133.0</ele><time>2026-04-19T12:59:51.001Z</time></trkpt><trkpt lat="43.46748791632465" lon="10.74249752177864"><ele>133.0</ele><time>2026-04-19T12:59:52.001Z</time></trkpt><trkpt lat="43.467559154053255" lon="10.742317808110878"><ele>133.0</ele><time>2026-04-19T12:59:53.001Z</time></trkpt><trkpt lat="43.46762014453782" lon="10.742143644262866"><ele>133.0</ele><time>2026-04-19T12:59:54.001Z</time></trkpt><trkpt lat="43.46766444838617" lon="10.741962566838321"><ele>133.25</ele><time>2026-04-19T12:59:55.001Z</time></trkpt><trkpt lat="43.46773235102072" lon="10.741811603959702"><ele>133.5</ele><time>2026-04-19T12:59:56.001Z</time></trkpt><trkpt lat="43.46778775546248" lon="10.741654572076358"><ele>133.75</ele><time>2026-04-19T12:59:57.001Z</time></trkpt><trkpt lat="43.46785178813351" lon="10.741491412661341"><ele>134.0</ele><time>2026-04-19T12:59:58.001Z</time></trkpt><trkpt lat="43.467922601129345" lon="10.741346029748437"><ele>133.25</ele><time>2026-04-19T12:59:59.001Z</time></trkpt><trkpt lat="43.46800248959926" lon="10.741199707473843"><ele>132.5</ele><time>2026-04-19T13:00:00.001Z</time></trkpt><trkpt lat="43.468093788449416" lon="10.741071265318158"><ele>131.75</ele><time>2026-04-19T13:00:01.001Z</time></trkpt><trkpt lat="43.468200469024744" lon="10.740944736461602"><ele>131.0</ele><time>2026-04-19T13:00:02.001Z</time></trkpt><trkpt lat="43.468302689012255" lon="10.740807999295836"><ele>131.0</ele><time>2026-04-19T13:00:03.001Z</time></trkpt><trkpt lat="43.46837953550837" lon="10.740662935532018"><ele>131.0</ele><time>2026-04-19T13:00:04.001Z</time></trkpt><trkpt lat="43.468437243737064" lon="10.740499284241508"><ele>131.0</ele><time>2026-04-19T13:00:05.001Z</time></trkpt><trkpt lat="43.46846723613608" lon="10.740314248509936"><ele>131.0</ele><time>2026-04-19T13:00:06.001Z</time></trkpt><trkpt lat="43.468476629396164" lon="10.740114713879747"><ele>131.0</ele><time>2026-04-19T13:00:07.001Z</time></trkpt><trkpt lat="43.4685175955361" lon="10.739925041405398"><ele>131.0</ele><time>2026-04-19T13:00:08.001Z</time></trkpt><trkpt lat="43.46853680705839" lon="10.73972935710531"><ele>131.0</ele><time>2026-04-19T13:00:09.001Z</time></trkpt><trkpt lat="43.46854221066252" lon="10.739544645758043"><ele>131.0</ele><time>2026-04-19T13:00:10.001Z</time></trkpt><trkpt lat="43.46852171046" lon="10.739376517310156"><ele>131.5</ele><time>2026-04-19T13:00:11.001Z</time></trkpt><trkpt lat="43.46849595508375" lon="10.739220630063375"><ele>132.0</ele><time>2026-04-19T13:00:12.001Z</time></trkpt><trkpt lat="43.468437408883666" lon="10.739070645632195"><ele>132.5</ele><time>2026-04-19T13:00:13.001Z</time></trkpt><trkpt lat="43.46834094169115" lon="10.738938798958849"><ele>133.0</ele><time>2026-04-19T13:00:14.001Z</time></trkpt><trkpt lat="43.46828388962851" lon="10.738781833510377"><ele>133.0</ele><time>2026-04-19T13:00:15.001Z</time></trkpt><trkpt lat="43.46823129954603" lon="10.738653256462426"><ele>133.0</ele><time>2026-04-19T13:00:16.001Z</time></trkpt><trkpt lat="43.468207463300494" lon="10.738545008355045"><ele>137.0</ele><time>2026-04-19T13:00:17.001Z</time></trkpt><trkpt lat="43.4682046644312" lon="10.738410786474121"><ele>137.0</ele><time>2026-04-19T13:00:19.001Z</time></trkpt><trkpt lat="43.468251153852776" lon="10.738329936270565"><ele>137.0</ele><time>2026-04-19T13:00:24.001Z</time></trkpt><trkpt lat="43.46826909501686" lon="10.73823858396996"><ele>137.0</ele><time>2026-04-19T13:01:07Z</time></trkpt></trkseg><trkseg><trkpt lat="43.479186856882734" lon="10.729721934703896"><ele>161.0</ele><time>2026-04-19T13:19:39.896Z</time></trkpt><trkpt lat="43.47924291509511" lon="10.729632766933305"><ele>161.0</ele><time>2026-04-19T13:19:41.896Z</time></trkpt><trkpt lat="43.479298240148154" lon="10.72957532866359"><ele>161.0</ele><time>2026-04-19T13:19:43.896Z</time></trkpt><trkpt lat="43.47926629258" lon="10.72949481188533"><ele>161.0</ele><time>2026-04-19T13:19:48.004Z</time></trkpt><trkpt lat="43.479212015839146" lon="10.729436607861519"><ele>161.0</ele><time>2026-04-19T13:19:51.003Z</time></trkpt><trkpt lat="43.479163172623" lon="10.729312540511094"><ele>161.0</ele><time>2026-04-19T13:19:53.003Z</time></trkpt><trkpt lat="43.479102243233996" lon="10.72918569696158"><ele>161.33333333333331</ele><time>2026-04-19T13:19:55.003Z</time></trkpt><trkpt lat="43.47908719478011" lon="10.729100310800712"><ele>161.66666666666666</ele><time>2026-04-19T13:19:56.003Z</time></trkpt><trkpt lat="43.47899566282713" lon="10.728983010503226"><ele>162.0</ele><time>2026-04-19T13:19:58.002Z</time></trkpt><trkpt lat="43.47894499053135" lon="10.728931056890477"><ele>162.33333333333334</ele><time>2026-04-19T13:19:59.002Z</time></trkpt><trkpt lat="43.478878580936744" lon="10.728908617934037"><ele>162.66666666666669</ele><time>2026-04-19T13:20:00.002Z</time></trkpt><trkpt lat="43.47881434259544" lon="10.728868729145802"><ele>163.0</ele><time>2026-04-19T13:20:01.002Z</time></trkpt><trkpt lat="43.4787537160455" lon="10.728835429332136"><ele>169.25</ele><time>2026-04-19T13:20:02.002Z</time></trkpt><trkpt lat="43.47864742659337" lon="10.72875371505372"><ele>175.5</ele><time>2026-04-19T13:20:04.002Z</time></trkpt><trkpt lat="43.47853214099932" lon="10.72869913940963"><ele>181.75</ele><time>2026-04-19T13:20:06.002Z</time></trkpt><trkpt lat="43.478405692563" lon="10.728646268201576"><ele>188.0</ele><time>2026-04-19T13:20:08.002Z</time></trkpt><trkpt lat="43.47833183062422" lon="10.72861754844085"><ele>188.0</ele><time>2026-04-19T13:20:09.002Z</time></trkpt><trkpt lat="43.47825215009059" lon="10.728608110822744"><ele>188.0</ele><time>2026-04-19T13:20:10.001Z</time></trkpt><trkpt lat="43.478180812700785" lon="10.728569988635185"><ele>188.0</ele><time>2026-04-19T13:20:11.001Z</time></trkpt><trkpt lat="43.47808477215201" lon="10.728529439618756"><ele>188.0</ele><time>2026-04-19T13:20:12.001Z</time></trkpt><trkpt lat="43.47798364261083" lon="10.728493547554207"><ele>188.0</ele><time>2026-04-19T13:20:13.001Z</time></trkpt><trkpt lat="43.47787788283202" lon="10.728454240938131"><ele>188.5</ele><time>2026-04-19T13:20:14.001Z</time></trkpt><trkpt lat="43.4777771258704" lon="10.728414832949825"><ele>189.0</ele><time>2026-04-19T13:20:15.001Z</time></trkpt><trkpt lat="43.47768736909273" lon="10.728387000047817"><ele>189.5</ele><time>2026-04-19T13:20:16.001Z</time></trkpt><trkpt lat="43.47775206795628" lon="10.728412239727339"><ele>190.0</ele><time>2026-04-19T13:20:31.001Z</time></trkpt><trkpt lat="43.477842449544994" lon="10.728426930716719"><ele>190.5</ele><time>2026-04-19T13:20:41.001Z</time></trkpt><trkpt lat="43.4779146330112" lon="10.728450375215713"><ele>191.0</ele><time>2026-04-19T13:20:44.001Z</time></trkpt><trkpt lat="43.47797565292641" lon="10.728473716858108"><ele>190.5</ele><time>2026-04-19T13:20:49.001Z</time></trkpt><trkpt lat="43.478036321683916" lon="10.728497235823903"><ele>190.0</ele><time>2026-04-19T13:20:53.001Z</time></trkpt><trkpt lat="43.478103049977015" lon="10.728524457915723"><ele>189.5</ele><time>2026-04-19T13:21:07.001Z</time></trkpt><trkpt lat="43.47818992478169" lon="10.728560480181265"><ele>189.0</ele><time>2026-04-19T13:21:10.001Z</time></trkpt><trkpt lat="43.47828027638871" lon="10.7285993931202"><ele>188.5</ele><time>2026-04-19T13:21:12.001Z</time></trkpt><trkpt lat="43.47831922064991" lon="10.728672456703217"><ele>188.0</ele><time>2026-04-19T13:21:13.001Z</time></trkpt><trkpt lat="43.478429341159966" lon="10.728715693378552"><ele>188.0</ele><time>2026-04-19T13:21:15.001Z</time></trkpt><trkpt lat="43.47853911131929" lon="10.728762571452355"><ele>188.0</ele><time>2026-04-19T13:21:17.001Z</time></trkpt><trkpt lat="43.47864850932787" lon="10.72881283814391"><ele>188.0</ele><time>2026-04-19T13:21:19.001Z</time></trkpt><trkpt lat="43.47876845543346" lon="10.728869365349068"><ele>188.0</ele><time>2026-04-19T13:21:21.001Z</time></trkpt><trkpt lat="43.478834780356415" lon="10.728905929878536"><ele>188.0</ele><time>2026-04-19T13:21:22.001Z</time></trkpt><trkpt lat="43.47890004642699" lon="10.728954070297789"><ele>183.83333333333331</ele><time>2026-04-19T13:21:23.001Z</time></trkpt><trkpt lat="43.4789713772214" lon="10.72900929078289"><ele>179.66666666666666</ele><time>2026-04-19T13:21:24.001Z</time></trkpt><trkpt lat="43.47903401173544" lon="10.729080491237115"><ele>175.5</ele><time>2026-04-19T13:21:25.001Z</time></trkpt><trkpt lat="43.47909295777787" lon="10.72916458201132"><ele>171.33333333333334</ele><time>2026-04-19T13:21:26.001Z</time></trkpt><trkpt lat="43.479143629958465" lon="10.729249360316842"><ele>167.16666666666669</ele><time>2026-04-19T13:21:27.001Z</time></trkpt><trkpt lat="43.47918426712251" lon="10.729334908554442"><ele>163.0</ele><time>2026-04-19T13:21:28.001Z</time></trkpt><trkpt lat="43.47921347980443" lon="10.72943426439786"><ele>162.66666666666669</ele><time>2026-04-19T13:21:29.001Z</time></trkpt><trkpt lat="43.47924726358784" lon="10.729543335419827"><ele>162.33333333333334</ele><time>2026-04-19T13:21:31.001Z</time></trkpt><trkpt lat="43.479231313075125" lon="10.729667283136786"><ele>162.0</ele><time>2026-04-19T13:21:33.001Z</time></trkpt><trkpt lat="43.47916248608887" lon="10.729729163000085"><ele>161.66666666666666</ele><time>2026-04-19T13:21:34.001Z</time></trkpt><trkpt lat="43.47912425597569" lon="10.729835748794656"><ele>161.33333333333331</ele><time>2026-04-19T13:21:35.001Z</time></trkpt><trkpt lat="43.47909555263423" lon="10.729950565324978"><ele>161.0</ele><time>2026-04-19T13:21:36.001Z</time></trkpt><trkpt lat="43.47905990038435" lon="10.730079542505893"><ele>161.0</ele><time>2026-04-19T13:21:37.001Z</time></trkpt><trkpt lat="43.47900712335831" lon="10.730199689106138"><ele>161.0</ele><time>2026-04-19T13:21:38.001Z</time></trkpt><trkpt lat="43.478950801769926" lon="10.730328435566026"><ele>161.0</ele><time>2026-04-19T13:21:39.001Z</time></trkpt><trkpt lat="43.47885193294409" lon="10.730385298817387"><ele>161.0</ele><time>2026-04-19T13:21:40.001Z</time></trkpt><trkpt lat="43.478749940238494" lon="10.73044542161738"><ele>161.0</ele><time>2026-04-19T13:21:41.001Z</time></trkpt><trkpt lat="43.478638752173154" lon="10.73049863644261"><ele>164.25</ele><time>2026-04-19T13:21:42.001Z</time></trkpt><trkpt lat="43.478526801183044" lon="10.730562117769903"><ele>167.5</ele><time>2026-04-19T13:21:43.001Z</time></trkpt><trkpt lat="43.478399175426304" lon="10.730589518271602"><ele>170.75</ele><time>2026-04-19T13:21:44.001Z</time></trkpt><trkpt lat="43.47829333204385" lon="10.730636265719452"><ele>174.0</ele><time>2026-04-19T13:21:45.001Z</time></trkpt><trkpt lat="43.47820086353447" lon="10.730711559858415"><ele>174.0</ele><time>2026-04-19T13:21:46.001Z</time></trkpt><trkpt lat="43.478161881063826" lon="10.730897944748973"><ele>174.0</ele><time>2026-04-19T13:21:47.001Z</time></trkpt><trkpt lat="43.47815458550665" lon="10.731046228974625"><ele>174.0</ele><time>2026-04-19T13:21:48.001Z</time></trkpt><trkpt lat="43.478138290249895" lon="10.731205614110992"><ele>174.0</ele><time>2026-04-19T13:21:49.001Z</time></trkpt><trkpt lat="43.4781216751434" lon="10.731345130045552"><ele>172.79999999999998</ele><time>2026-04-19T13:21:50Z</time></trkpt><trkpt lat="43.47809926033142" lon="10.73148720534619"><ele>171.6</ele><time>2026-04-19T13:21:51Z</time></trkpt><trkpt lat="43.478058882672634" lon="10.731619186251876"><ele>170.4</ele><time>2026-04-19T13:21:52Z</time></trkpt><trkpt lat="43.478004584126" lon="10.731734505262718"><ele>169.2</ele><time>2026-04-19T13:21:53Z</time></trkpt><trkpt lat="43.47793737746712" lon="10.73182140180945"><ele>168.0</ele><time>2026-04-19T13:21:54Z</time></trkpt><trkpt lat="43.477875165288566" lon="10.731864373867825"><ele>168.2</ele><time>2026-04-19T13:21:55Z</time></trkpt><trkpt lat="43.47779931492648" lon="10.731925887769087"><ele>168.4</ele><time>2026-04-19T13:21:57Z</time></trkpt><trkpt lat="43.4777811645286" lon="10.73206881874625"><ele>168.6</ele><time>2026-04-19T13:22:00Z</time></trkpt><trkpt lat="43.477808975318126" lon="10.732235513191855"><ele>168.79999999999998</ele><time>2026-04-19T13:22:02Z</time></trkpt><trkpt lat="43.47782521375256" lon="10.732342959998542"><ele>169.0</ele><time>2026-04-19T13:22:03Z</time></trkpt><trkpt lat="43.47783933757389" lon="10.732456212202244"><ele>169.0</ele><time>2026-04-19T13:22:04Z</time></trkpt><trkpt lat="43.47785138703939" lon="10.732564283612685"><ele>169.0</ele><time>2026-04-19T13:22:05Z</time></trkpt><trkpt lat="43.47786228519885" lon="10.73266476813451"><ele>169.0</ele><time>2026-04-19T13:22:06Z</time></trkpt><trkpt lat="43.477875004555656" lon="10.732769600759326"><ele>169.0</ele><time>2026-04-19T13:22:23Z</time></trkpt><trkpt lat="43.477890948793856" lon="10.732905901976006"><ele>169.0</ele><time>2026-04-19T13:22:26Z</time></trkpt><trkpt lat="43.47790887602105" lon="10.733044051418613"><ele>169.0</ele><time>2026-04-19T13:22:28Z</time></trkpt><trkpt lat="43.477928459928634" lon="10.733199995994038"><ele>168.0</ele><time>2026-04-19T13:22:30Z</time></trkpt><trkpt lat="43.47794929501125" lon="10.733370489121059"><ele>167.0</ele><time>2026-04-19T13:22:32Z</time></trkpt><trkpt lat="43.47795996177253" lon="10.733459000927771"><ele>166.0</ele><time>2026-04-19T13:22:33Z</time></trkpt><trkpt lat="43.47796906730184" lon="10.733546840790297"><ele>165.0</ele><time>2026-04-19T13:22:34Z</time></trkpt><trkpt lat="43.47797779246063" lon="10.733633962586255"><ele>164.0</ele><time>2026-04-19T13:22:36Z</time></trkpt><trkpt lat="43.47796657788994" lon="10.733513237620198"><ele>163.0</ele><time>2026-04-19T13:23:00Z</time></trkpt><trkpt lat="43.477949761603305" lon="10.733375531950102"><ele>163.0</ele><time>2026-04-19T13:23:02Z</time></trkpt><trkpt lat="43.47793887349941" lon="10.733278977229869"><ele>163.0</ele><time>2026-04-19T13:23:03Z</time></trkpt><trkpt lat="43.47794500326669" lon="10.73314325825823"><ele>163.0</ele><time>2026-04-19T13:23:04Z</time></trkpt><trkpt lat="43.47790878659164" lon="10.733022839399021"><ele>163.0</ele><time>2026-04-19T13:23:05Z</time></trkpt><trkpt lat="43.47789406486783" lon="10.732921851939897"><ele>163.0</ele><time>2026-04-19T13:23:06Z</time></trkpt><trkpt lat="43.47787991421072" lon="10.73281218867083"><ele>163.0</ele><time>2026-04-19T13:23:08Z</time></trkpt><trkpt lat="43.47787795288151" lon="10.73272037249151"><ele>163.0</ele><time>2026-04-19T13:23:22.001Z</time></trkpt><trkpt lat="43.47796618478353" lon="10.732858295505222"><ele>163.0</ele><time>2026-04-19T13:23:35.001Z</time></trkpt><trkpt lat="43.47800642918064" lon="10.732945190828566"><ele>163.0</ele><time>2026-04-19T13:23:36.001Z</time></trkpt><trkpt lat="43.478053561930466" lon="10.73303475469939"><ele>163.0</ele><time>2026-04-19T13:23:37.001Z</time></trkpt><trkpt lat="43.478087628849444" lon="10.73313952743812"><ele>163.0</ele><time>2026-04-19T13:23:38.001Z</time></trkpt><trkpt lat="43.478136078633575" lon="10.733237087632064"><ele>163.0</ele><time>2026-04-19T13:23:39.001Z</time></trkpt><trkpt lat="43.47818192397814" lon="10.733326554454676"><ele>163.0</ele><time>2026-04-19T13:23:40.001Z</time></trkpt><trkpt lat="43.47823317434649" lon="10.733398993409498"><ele>163.0</ele><time>2026-04-19T13:23:41.001Z</time></trkpt><trkpt lat="43.47829112912496" lon="10.73344647049223"><ele>163.0</ele><time>2026-04-19T13:23:42.001Z</time></trkpt><trkpt lat="43.47840164846124" lon="10.73349627835861"><ele>163.0</ele><time>2026-04-19T13:23:44.001Z</time></trkpt><trkpt lat="43.478457569144204" lon="10.733616244928138"><ele>163.0</ele><time>2026-04-19T13:23:46.001Z</time></trkpt><trkpt lat="43.47848534175392" lon="10.733705907453533"><ele>162.4</ele><time>2026-04-19T13:23:47.001Z</time></trkpt><trkpt lat="43.47852056053318" lon="10.733818986863"><ele>161.8</ele><time>2026-04-19T13:23:48.001Z</time></trkpt><trkpt lat="43.478557226944396" lon="10.733937451662962"><ele>161.2</ele><time>2026-04-19T13:23:49.001Z</time></trkpt><trkpt lat="43.47858510975074" lon="10.734070870730283"><ele>160.6</ele><time>2026-04-19T13:23:50.001Z</time></trkpt><trkpt lat="43.47860343562974" lon="10.734217481613811"><ele>160.0</ele><time>2026-04-19T13:23:51.001Z</time></trkpt><trkpt lat="43.47860452061922" lon="10.734380993407648"><ele>158.5</ele><time>2026-04-19T13:23:52.001Z</time></trkpt><trkpt lat="43.478629742565154" lon="10.734552143614124"><ele>157.0</ele><time>2026-04-19T13:23:53.001Z</time></trkpt><trkpt lat="43.47863154998444" lon="10.734725181980568"><ele>155.5</ele><time>2026-04-19T13:23:54.001Z</time></trkpt><trkpt lat="43.47867479298873" lon="10.734880945690682"><ele>154.0</ele><time>2026-04-19T13:23:55.001Z</time></trkpt><trkpt lat="43.478690635128736" lon="10.735047015742625"><ele>154.0</ele><time>2026-04-19T13:23:55.999Z</time></trkpt><trkpt lat="43.478721575748516" lon="10.73521156658169"><ele>154.0</ele><time>2026-04-19T13:23:56.999Z</time></trkpt><trkpt lat="43.47875338385187" lon="10.735367928301173"><ele>154.0</ele><time>2026-04-19T13:23:57.999Z</time></trkpt><trkpt lat="43.478786635909955" lon="10.735499729838589"><ele>154.0</ele><time>2026-04-19T13:23:58.999Z</time></trkpt><trkpt lat="43.47881298799974" lon="10.735611577986464"><ele>154.0</ele><time>2026-04-19T13:23:59.999Z</time></trkpt><trkpt lat="43.47883924690239" lon="10.735692163164387"><ele>151.33333333333334</ele><time>2026-04-19T13:24:00.999Z</time></trkpt><trkpt lat="43.47887112045" lon="10.73577135810842"><ele>148.66666666666669</ele><time>2026-04-19T13:24:01.999Z</time></trkpt><trkpt lat="43.47889866502019" lon="10.735849518215728"><ele>146.0</ele><time>2026-04-19T13:24:02.999Z</time></trkpt><trkpt lat="43.47895937939473" lon="10.735988778884343"><ele>143.33333333333334</ele><time>2026-04-19T13:24:04.999Z</time></trkpt><trkpt lat="43.479052648248896" lon="10.736108888283127"><ele>140.66666666666666</ele><time>2026-04-19T13:24:06.999Z</time></trkpt><trkpt lat="43.47910881087018" lon="10.73615934557825"><ele>138.0</ele><time>2026-04-19T13:24:07.999Z</time></trkpt><trkpt lat="43.47917285881187" lon="10.73621186663078"><ele>136.0</ele><time>2026-04-19T13:24:08.999Z</time></trkpt><trkpt lat="43.479253410594545" lon="10.736255556701023"><ele>134.0</ele><time>2026-04-19T13:24:09.999Z</time></trkpt><trkpt lat="43.479341307868154" lon="10.736309340431674"><ele>132.0</ele><time>2026-04-19T13:24:10.999Z</time></trkpt><trkpt lat="43.47942860826603" lon="10.736365858411029"><ele>130.0</ele><time>2026-04-19T13:24:11.999Z</time></trkpt><trkpt lat="43.47950056319977" lon="10.736435938623822"><ele>128.0</ele><time>2026-04-19T13:24:12.999Z</time></trkpt><trkpt lat="43.47957415605271" lon="10.736511328124507"><ele>127.0</ele><time>2026-04-19T13:24:13.999Z</time></trkpt><trkpt lat="43.47964485802655" lon="10.736600716446691"><ele>126.00000000000001</ele><time>2026-04-19T13:24:14.999Z</time></trkpt><trkpt lat="43.4797152845192" lon="10.736690697506535"><ele>125.00000000000001</ele><time>2026-04-19T13:24:15.999Z</time></trkpt><trkpt lat="43.47977821580068" lon="10.736774528444682"><ele>124.0</ele><time>2026-04-19T13:24:16.999Z</time></trkpt><trkpt lat="43.479848065002834" lon="10.736853180837779"><ele>123.0</ele><time>2026-04-19T13:24:18Z</time></trkpt><trkpt lat="43.47992280509298" lon="10.73692642349816"><ele>122.60000000000001</ele><time>2026-04-19T13:24:19Z</time></trkpt><trkpt lat="43.48000066749494" lon="10.736997273517824"><ele>122.20000000000002</ele><time>2026-04-19T13:24:20Z</time></trkpt><trkpt lat="43.480083037510504" lon="10.737071459237562"><ele>121.8</ele><time>2026-04-19T13:24:21Z</time></trkpt><trkpt lat="43.48016983703701" lon="10.737138985972667"><ele>121.4</ele><time>2026-04-19T13:24:22Z</time></trkpt><trkpt lat="43.480254575532705" lon="10.73721697138559"><ele>121.0</ele><time>2026-04-19T13:24:23Z</time></trkpt><trkpt lat="43.48033568708871" lon="10.737288292753627"><ele>121.0</ele><time>2026-04-19T13:24:24Z</time></trkpt><trkpt lat="43.48041049157384" lon="10.737360740777076"><ele>120.99999999999999</ele><time>2026-04-19T13:24:25Z</time></trkpt><trkpt lat="43.48047561870328" lon="10.7374280563584"><ele>121.0</ele><time>2026-04-19T13:24:26Z</time></trkpt><trkpt lat="43.480530695654835" lon="10.737492398899304"><ele>121.0</ele><time>2026-04-19T13:24:27Z</time></trkpt><trkpt lat="43.480574359909724" lon="10.737555046980084"><ele>120.99999999999999</ele><time>2026-04-19T13:24:28Z</time></trkpt><trkpt lat="43.48062775530822" lon="10.737616139012365"><ele>121.0</ele><time>2026-04-19T13:24:31Z</time></trkpt><trkpt lat="43.48067591437176" lon="10.73768867672935"><ele>121.0</ele><time>2026-04-19T13:24:35Z</time></trkpt><trkpt lat="43.48076857178457" lon="10.73763883271041"><ele>120.66666666666667</ele><time>2026-04-19T13:24:36Z</time></trkpt><trkpt lat="43.480835173227106" lon="10.737640112357559"><ele>120.33333333333334</ele><time>2026-04-19T13:24:37Z</time></trkpt><trkpt lat="43.480906290862464" lon="10.737657114612357"><ele>120.0</ele><time>2026-04-19T13:24:38Z</time></trkpt><trkpt lat="43.48098700178493" lon="10.737676313779772"><ele>119.66666666666666</ele><time>2026-04-19T13:24:39Z</time></trkpt><trkpt lat="43.48107615593135" lon="10.737688517167438"><ele>119.33333333333333</ele><time>2026-04-19T13:24:40Z</time></trkpt><trkpt lat="43.48117548555002" lon="10.737688354597305"><ele>119.0</ele><time>2026-04-19T13:24:41Z</time></trkpt><trkpt lat="43.48128133987711" lon="10.737676707983391"><ele>118.0</ele><time>2026-04-19T13:24:42Z</time></trkpt><trkpt lat="43.481393899761066" lon="10.737662147907304"><ele>117.0</ele><time>2026-04-19T13:24:43Z</time></trkpt><trkpt lat="43.48151117200771" lon="10.737662778268872"><ele>116.0</ele><time>2026-04-19T13:24:44Z</time></trkpt><trkpt lat="43.48163284178036" lon="10.737677954764784"><ele>115.0</ele><time>2026-04-19T13:24:45Z</time></trkpt><trkpt lat="43.48174993548124" lon="10.737700784102962"><ele>114.4</ele><time>2026-04-19T13:24:46Z</time></trkpt><trkpt lat="43.48186411727036" lon="10.737740390375269"><ele>113.8</ele><time>2026-04-19T13:24:47Z</time></trkpt><trkpt lat="43.481962360869225" lon="10.737785358067063"><ele>113.19999999999999</ele><time>2026-04-19T13:24:48Z</time></trkpt><trkpt lat="43.482058733953416" lon="10.73784643937572"><ele>112.6</ele><time>2026-04-19T13:24:49Z</time></trkpt><trkpt lat="43.48214601343461" lon="10.737918531965882"><ele>112.0</ele><time>2026-04-19T13:24:50Z</time></trkpt><trkpt lat="43.48222765598288" lon="10.73797611150794"><ele>111.16666666666667</ele><time>2026-04-19T13:24:51Z</time></trkpt><trkpt lat="43.48231769826174" lon="10.73802485463567"><ele>110.33333333333334</ele><time>2026-04-19T13:24:52Z</time></trkpt><trkpt lat="43.482397209865404" lon="10.738060467457048"><ele>109.5</ele><time>2026-04-19T13:24:53Z</time></trkpt><trkpt lat="43.48248084787289" lon="10.738096391531826"><ele>108.66666666666666</ele><time>2026-04-19T13:24:54Z</time></trkpt><trkpt lat="43.482566521457755" lon="10.73813060971507"><ele>107.83333333333333</ele><time>2026-04-19T13:24:55Z</time></trkpt><trkpt lat="43.48265059477228" lon="10.7381772780312"><ele>107.0</ele><time>2026-04-19T13:24:56Z</time></trkpt><trkpt lat="43.482733799579414" lon="10.738238937811328"><ele>107.0</ele><time>2026-04-19T13:24:57Z</time></trkpt><trkpt lat="43.48281663978458" lon="10.738316192080301"><ele>106.99999999999999</ele><time>2026-04-19T13:24:58Z</time></trkpt><trkpt lat="43.482898280013735" lon="10.73840472037757"><ele>106.99999999999999</ele><time>2026-04-19T13:24:59Z</time></trkpt><trkpt lat="43.4829803011324" lon="10.738500424054054"><ele>107.0</ele><time>2026-04-19T13:25:00Z</time></trkpt><trkpt lat="43.483064181866304" lon="10.73859782280588"><ele>107.0</ele><time>2026-04-19T13:25:01Z</time></trkpt><trkpt lat="43.48315165612746" lon="10.738691389760984"><ele>106.19999999999999</ele><time>2026-04-19T13:25:02Z</time></trkpt><trkpt lat="43.48324122757901" lon="10.738786523394323"><ele>105.39999999999999</ele><time>2026-04-19T13:25:03Z</time></trkpt><trkpt lat="43.483330538759944" lon="10.738878314030137"><ele>104.6</ele><time>2026-04-19T13:25:04Z</time></trkpt><trkpt lat="43.48341492382864" lon="10.738969815898436"><ele>103.80000000000001</ele><time>2026-04-19T13:25:05Z</time></trkpt><trkpt lat="43.48349891148581" lon="10.739057462823993"><ele>103.0</ele><time>2026-04-19T13:25:06Z</time></trkpt><trkpt lat="43.48358213922041" lon="10.739144555049108"><ele>103.0</ele><time>2026-04-19T13:25:07Z</time></trkpt><trkpt lat="43.48366136327458" lon="10.739230116162895"><ele>103.0</ele><time>2026-04-19T13:25:08Z</time></trkpt><trkpt lat="43.48374115943227" lon="10.73930843853495"><ele>103.0</ele><time>2026-04-19T13:25:09Z</time></trkpt><trkpt lat="43.48381350498502" lon="10.739398810273194"><ele>103.0</ele><time>2026-04-19T13:25:10Z</time></trkpt><trkpt lat="43.483875478577474" lon="10.73949775869977"><ele>103.0</ele><time>2026-04-19T13:25:11Z</time></trkpt><trkpt lat="43.483931842559905" lon="10.73960677502828"><ele>102.0</ele><time>2026-04-19T13:25:12Z</time></trkpt><trkpt lat="43.48397611501876" lon="10.739722764343359"><ele>101.0</ele><time>2026-04-19T13:25:13Z</time></trkpt><trkpt lat="43.484005847353245" lon="10.739849022651725"><ele>100.0</ele><time>2026-04-19T13:25:14Z</time></trkpt><trkpt lat="43.4840197476831" lon="10.73997954698824"><ele>99.0</ele><time>2026-04-19T13:25:15Z</time></trkpt><trkpt lat="43.48402984076508" lon="10.74011314613556"><ele>98.0</ele><time>2026-04-19T13:25:16Z</time></trkpt><trkpt lat="43.48404652839775" lon="10.740250092081066"><ele>97.83333333333333</ele><time>2026-04-19T13:25:17Z</time></trkpt><trkpt lat="43.48407071897469" lon="10.740375439147504"><ele>97.66666666666666</ele><time>2026-04-19T13:25:18Z</time></trkpt><trkpt lat="43.48410956827674" lon="10.740490253672037"><ele>97.5</ele><time>2026-04-19T13:25:19Z</time></trkpt><trkpt lat="43.48415719350916" lon="10.740587049599077"><ele>97.33333333333334</ele><time>2026-04-19T13:25:20Z</time></trkpt><trkpt lat="43.48421017272672" lon="10.740672275033495"><ele>97.16666666666667</ele><time>2026-04-19T13:25:21Z</time></trkpt><trkpt lat="43.48426812317707" lon="10.740751295868314"><ele>97.0</ele><time>2026-04-19T13:25:22Z</time></trkpt><trkpt lat="43.484330971679015" lon="10.740834667651871"><ele>97.0</ele><time>2026-04-19T13:25:23Z</time></trkpt><trkpt lat="43.48439654798823" lon="10.740922962352444"><ele>97.0</ele><time>2026-04-19T13:25:24Z</time></trkpt><trkpt lat="43.48446510120307" lon="10.741016386484551"><ele>97.0</ele><time>2026-04-19T13:25:25Z</time></trkpt><trkpt lat="43.48453002412214" lon="10.741103871935513"><ele>97.0</ele><time>2026-04-19T13:25:26Z</time></trkpt><trkpt lat="43.48458579765031" lon="10.741197002986299"><ele>97.0</ele><time>2026-04-19T13:25:28Z</time></trkpt><trkpt lat="43.48466017554173" lon="10.741285641465845"><ele>96.50000000000001</ele><time>2026-04-19T13:25:30Z</time></trkpt><trkpt lat="43.48471010124322" lon="10.741355943139855"><ele>96.0</ele><time>2026-04-19T13:25:31Z</time></trkpt><trkpt lat="43.48476432447343" lon="10.741434149958932"><ele>95.5</ele><time>2026-04-19T13:25:32Z</time></trkpt><trkpt lat="43.48482509188004" lon="10.741514150019665"><ele>95.0</ele><time>2026-04-19T13:25:33Z</time></trkpt><trkpt lat="43.48488712151243" lon="10.74159709146289"><ele>94.5</ele><time>2026-04-19T13:25:34Z</time></trkpt><trkpt lat="43.484944831312426" lon="10.74168418452478"><ele>94.0</ele><time>2026-04-19T13:25:35Z</time></trkpt><trkpt lat="43.484991531808475" lon="10.74176346145651"><ele>94.0</ele><time>2026-04-19T13:25:36Z</time></trkpt><trkpt lat="43.48504642132823" lon="10.741824375350303"><ele>94.0</ele><time>2026-04-19T13:25:37Z</time></trkpt><trkpt lat="43.48509146151934" lon="10.741887275073559"><ele>94.0</ele><time>2026-04-19T13:25:38Z</time></trkpt><trkpt lat="43.48513898071349" lon="10.74195598713425"><ele>94.0</ele><time>2026-04-19T13:25:39Z</time></trkpt><trkpt lat="43.48520139571249" lon="10.742014194199372"><ele>94.0</ele><time>2026-04-19T13:25:40Z</time></trkpt><trkpt lat="43.485256701131746" lon="10.742077743991985"><ele>94.0</ele><time>2026-04-19T13:25:41Z</time></trkpt><trkpt lat="43.48529799343774" lon="10.742148250892454"><ele>94.0</ele><time>2026-04-19T13:25:42Z</time></trkpt><trkpt lat="43.48534667926261" lon="10.742208983984515"><ele>93.83333333333333</ele><time>2026-04-19T13:25:43Z</time></trkpt><trkpt lat="43.485417011209016" lon="10.742296856983321"><ele>93.66666666666666</ele><time>2026-04-19T13:25:45Z</time></trkpt><trkpt lat="43.48549610661998" lon="10.742406765816888"><ele>93.5</ele><time>2026-04-19T13:25:47Z</time></trkpt><trkpt lat="43.485541941790686" lon="10.742474577186394"><ele>93.33333333333333</ele><time>2026-04-19T13:25:48Z</time></trkpt><trkpt lat="43.48559045026456" lon="10.742545277579312"><ele>93.16666666666667</ele><time>2026-04-19T13:25:49Z</time></trkpt><trkpt lat="43.4856381267197" lon="10.742614500045585"><ele>93.0</ele><time>2026-04-19T13:25:50Z</time></trkpt><trkpt lat="43.48568905177699" lon="10.742679137697687"><ele>93.0</ele><time>2026-04-19T13:25:51.001Z</time></trkpt><trkpt lat="43.485800603973814" lon="10.742698252287804"><ele>93.0</ele><time>2026-04-19T13:25:53.001Z</time></trkpt><trkpt lat="43.48585424484371" lon="10.74264659964795"><ele>93.0</ele><time>2026-04-19T13:25:54.001Z</time></trkpt><trkpt lat="43.48592278170193" lon="10.742608088004731"><ele>93.0</ele><time>2026-04-19T13:25:55.001Z</time></trkpt><trkpt lat="43.485994703975166" lon="10.742546584473066"><ele>93.0</ele><time>2026-04-19T13:25:56.001Z</time></trkpt><trkpt lat="43.486075460491485" lon="10.742497030383939"><ele>93.0</ele><time>2026-04-19T13:25:57.001Z</time></trkpt><trkpt lat="43.486157671476334" lon="10.742438430149711"><ele>93.0</ele><time>2026-04-19T13:25:58.001Z</time></trkpt><trkpt lat="43.48624704041474" lon="10.742485346876466"><ele>93.0</ele><time>2026-04-19T13:25:59.001Z</time></trkpt><trkpt lat="43.486335969436034" lon="10.742533610351547"><ele>93.0</ele><time>2026-04-19T13:26:00.001Z</time></trkpt><trkpt lat="43.48642822044596" lon="10.742583116738274"><ele>93.0</ele><time>2026-04-19T13:26:01.001Z</time></trkpt><trkpt lat="43.486519458303874" lon="10.742636217008872"><ele>93.0</ele><time>2026-04-19T13:26:01.999Z</time></trkpt><trkpt lat="43.486724603750005" lon="10.742644502815267"><ele>92.25</ele><time>2026-04-19T13:26:03.999Z</time></trkpt><trkpt lat="43.4868328476858" lon="10.7426264482162"><ele>91.5</ele><time>2026-04-19T13:26:04.999Z</time></trkpt><trkpt lat="43.48694993983561" lon="10.742614699492588"><ele>90.75</ele><time>2026-04-19T13:26:05.999Z</time></trkpt><trkpt lat="43.48707106784799" lon="10.74260577939997"><ele>90.0</ele><time>2026-04-19T13:26:06.999Z</time></trkpt><trkpt lat="43.48719260237312" lon="10.742597699357994"><ele>87.25</ele><time>2026-04-19T13:26:07.999Z</time></trkpt><trkpt lat="43.487317633889504" lon="10.742593841035106"><ele>84.5</ele><time>2026-04-19T13:26:08.999Z</time></trkpt><trkpt lat="43.48744048861934" lon="10.742590479077144"><ele>81.75</ele><time>2026-04-19T13:26:09.999Z</time></trkpt><trkpt lat="43.48756396030351" lon="10.742587795266017"><ele>79.0</ele><time>2026-04-19T13:26:10.999Z</time></trkpt><trkpt lat="43.487689673114545" lon="10.742572269479485"><ele>79.0</ele><time>2026-04-19T13:26:11.999Z</time></trkpt><trkpt lat="43.48781113443898" lon="10.742613885660559"><ele>79.0</ele><time>2026-04-19T13:26:12.999Z</time></trkpt><trkpt lat="43.48793367925648" lon="10.742625890373484"><ele>79.0</ele><time>2026-04-19T13:26:13.999Z</time></trkpt><trkpt lat="43.48804611363267" lon="10.742671188238988"><ele>79.0</ele><time>2026-04-19T13:26:14.999Z</time></trkpt><trkpt lat="43.488146691627534" lon="10.742700671619524"><ele>77.4</ele><time>2026-04-19T13:26:15.999Z</time></trkpt><trkpt lat="43.488236180557976" lon="10.742730155438712"><ele>75.80000000000001</ele><time>2026-04-19T13:26:16.999Z</time></trkpt><trkpt lat="43.48829970935626" lon="10.742793282445183"><ele>74.19999999999999</ele><time>2026-04-19T13:26:17.999Z</time></trkpt><trkpt lat="43.4883533908359" lon="10.742846726492118"><ele>72.6</ele><time>2026-04-19T13:26:20.999Z</time></trkpt><trkpt lat="43.48840305952823" lon="10.74291657330486"><ele>71.0</ele><time>2026-04-19T13:26:23.999Z</time></trkpt><trkpt lat="43.48854862549562" lon="10.742826978457952"><ele>71.0</ele><time>2026-04-19T13:26:25.999Z</time></trkpt><trkpt lat="43.488619178201695" lon="10.74276069317503"><ele>71.0</ele><time>2026-04-19T13:26:26.999Z</time></trkpt><trkpt lat="43.48869676113226" lon="10.742689157110574"><ele>71.0</ele><time>2026-04-19T13:26:27.999Z</time></trkpt><trkpt lat="43.48878457746119" lon="10.742604501333137"><ele>71.0</ele><time>2026-04-19T13:26:28.999Z</time></trkpt><trkpt lat="43.488881507118094" lon="10.742510546733088"><ele>71.0</ele><time>2026-04-19T13:26:29.999Z</time></trkpt><trkpt lat="43.48898779848495" lon="10.74241577447769"><ele>70.75</ele><time>2026-04-19T13:26:30.999Z</time></trkpt><trkpt lat="43.48910334804319" lon="10.742320062482252"><ele>70.5</ele><time>2026-04-19T13:26:31.999Z</time></trkpt><trkpt lat="43.489229598945286" lon="10.74222358071246"><ele>70.25</ele><time>2026-04-19T13:26:32.999Z</time></trkpt><trkpt lat="43.48936689411136" lon="10.742127464027234"><ele>70.0</ele><time>2026-04-19T13:26:33.999Z</time></trkpt><trkpt lat="43.48951205650709" lon="10.742031495909208"><ele>69.66666666666666</ele><time>2026-04-19T13:26:34.999Z</time></trkpt><trkpt lat="43.48966544559761" lon="10.741933449136274"><ele>69.33333333333333</ele><time>2026-04-19T13:26:35.999Z</time></trkpt><trkpt lat="43.48982492731723" lon="10.741830851555303"><ele>69.0</ele><time>2026-04-19T13:26:36.999Z</time></trkpt><trkpt lat="43.48998567028735" lon="10.741717661490336"><ele>68.66666666666667</ele><time>2026-04-19T13:26:38Z</time></trkpt><trkpt lat="43.490146878150085" lon="10.741592314736796"><ele>68.33333333333334</ele><time>2026-04-19T13:26:39Z</time></trkpt><trkpt lat="43.490306339614264" lon="10.741450376607212"><ele>68.0</ele><time>2026-04-19T13:26:40Z</time></trkpt><trkpt lat="43.49046496279585" lon="10.741296811617893"><ele>68.0</ele><time>2026-04-19T13:26:41Z</time></trkpt><trkpt lat="43.49062286320552" lon="10.741132581720528"><ele>68.0</ele><time>2026-04-19T13:26:42Z</time></trkpt><trkpt lat="43.490778560943276" lon="10.740956365047943"><ele>68.0</ele><time>2026-04-19T13:26:43Z</time></trkpt><trkpt lat="43.49092856226643" lon="10.740760680099058"><ele>68.0</ele><time>2026-04-19T13:26:44Z</time></trkpt><trkpt lat="43.49107212607484" lon="10.740550601769973"><ele>68.0</ele><time>2026-04-19T13:26:45Z</time></trkpt><trkpt lat="43.49120820113415" lon="10.740323745493397"><ele>68.0</ele><time>2026-04-19T13:26:46Z</time></trkpt><trkpt lat="43.49133731181066" lon="10.740082637260976"><ele>68.0</ele><time>2026-04-19T13:26:47Z</time></trkpt><trkpt lat="43.49146095567599" lon="10.739831326318239"><ele>68.0</ele><time>2026-04-19T13:26:48Z</time></trkpt><trkpt lat="43.49157915139374" lon="10.739572633838371"><ele>68.0</ele><time>2026-04-19T13:26:49Z</time></trkpt><trkpt lat="43.491698396563876" lon="10.7393099625868"><ele>69.0</ele><time>2026-04-19T13:26:50Z</time></trkpt><trkpt lat="43.49181967997615" lon="10.739045112003973"><ele>70.0</ele><time>2026-04-19T13:26:51Z</time></trkpt><trkpt lat="43.49194462889404" lon="10.738784497035285"><ele>69.66666666666666</ele><time>2026-04-19T13:26:52Z</time></trkpt><trkpt lat="43.49207548049789" lon="10.738536475475314"><ele>69.33333333333333</ele><time>2026-04-19T13:26:53Z</time></trkpt><trkpt lat="43.49221230974512" lon="10.738304341525895"><ele>69.0</ele><time>2026-04-19T13:26:54Z</time></trkpt><trkpt lat="43.49235302078107" lon="10.73807921551828"><ele>69.0</ele><time>2026-04-19T13:26:55Z</time></trkpt><trkpt lat="43.49250010761605" lon="10.737866143547413"><ele>69.0</ele><time>2026-04-19T13:26:56Z</time></trkpt><trkpt lat="43.49265435101168" lon="10.737662939074722"><ele>69.0</ele><time>2026-04-19T13:26:57Z</time></trkpt><trkpt lat="43.49281473493651" lon="10.737473184158613"><ele>69.0</ele><time>2026-04-19T13:26:58Z</time></trkpt><trkpt lat="43.49297973714147" lon="10.737292305868962"><ele>69.0</ele><time>2026-04-19T13:26:59Z</time></trkpt><trkpt lat="43.493143455703496" lon="10.737122157997568"><ele>69.0</ele><time>2026-04-19T13:27:00Z</time></trkpt><trkpt lat="43.49330807225931" lon="10.736960712223448"><ele>69.0</ele><time>2026-04-19T13:27:01Z</time></trkpt><trkpt lat="43.49347264475713" lon="10.736805326994473"><ele>69.0</ele><time>2026-04-19T13:27:02Z</time></trkpt><trkpt lat="43.49363602643179" lon="10.736658135975226"><ele>69.0</ele><time>2026-04-19T13:27:03Z</time></trkpt><trkpt lat="43.49379709994026" lon="10.736520850691942"><ele>69.33333333333333</ele><time>2026-04-19T13:27:04Z</time></trkpt><trkpt lat="43.493960767328815" lon="10.736394773582155"><ele>69.66666666666666</ele><time>2026-04-19T13:27:05Z</time></trkpt><trkpt lat="43.494124917336" lon="10.736281010923113"><ele>70.0</ele><time>2026-04-19T13:27:06Z</time></trkpt><trkpt lat="43.49428953076956" lon="10.736178872797387"><ele>70.0</ele><time>2026-04-19T13:27:07Z</time></trkpt><trkpt lat="43.49445435988334" lon="10.736090728864994"><ele>70.0</ele><time>2026-04-19T13:27:08Z</time></trkpt><trkpt lat="43.494618949289176" lon="10.73601143241227"><ele>70.0</ele><time>2026-04-19T13:27:09Z</time></trkpt><trkpt lat="43.49477968060779" lon="10.735939632280978"><ele>70.33333333333333</ele><time>2026-04-19T13:27:10Z</time></trkpt><trkpt lat="43.49493891418185" lon="10.735868850997461"><ele>70.66666666666667</ele><time>2026-04-19T13:27:11Z</time></trkpt><trkpt lat="43.49510075630663" lon="10.735804485634167"><ele>71.0</ele><time>2026-04-19T13:27:12Z</time></trkpt><trkpt lat="43.495259575514595" lon="10.735739630343101"><ele>71.0</ele><time>2026-04-19T13:27:13Z</time></trkpt><trkpt lat="43.49541669533259" lon="10.735675361143375"><ele>71.0</ele><time>2026-04-19T13:27:14Z</time></trkpt><trkpt lat="43.49556857347893" lon="10.735603317775118"><ele>71.0</ele><time>2026-04-19T13:27:15Z</time></trkpt><trkpt lat="43.495718642099206" lon="10.735520012744722"><ele>70.0</ele><time>2026-04-19T13:27:16Z</time></trkpt><trkpt lat="43.49586578992584" lon="10.735426322100443"><ele>69.0</ele><time>2026-04-19T13:27:17Z</time></trkpt><trkpt lat="43.49600798283759" lon="10.73532526413308"><ele>68.0</ele><time>2026-04-19T13:27:18Z</time></trkpt><trkpt lat="43.496144895589225" lon="10.735219395142128"><ele>67.66666666666667</ele><time>2026-04-19T13:27:19Z</time></trkpt><trkpt lat="43.49627634933426" lon="10.735104115634384"><ele>67.33333333333333</ele><time>2026-04-19T13:27:20Z</time></trkpt><trkpt lat="43.496403355899176" lon="10.734980494416483"><ele>67.0</ele><time>2026-04-19T13:27:21Z</time></trkpt><trkpt lat="43.49652517094468" lon="10.734849490056966"><ele>67.0</ele><time>2026-04-19T13:27:22Z</time></trkpt><trkpt lat="43.496644859140126" lon="10.7347146755422"><ele>67.0</ele><time>2026-04-19T13:27:23Z</time></trkpt><trkpt lat="43.49676578453435" lon="10.734580286394865"><ele>67.0</ele><time>2026-04-19T13:27:24Z</time></trkpt><trkpt lat="43.49688859069279" lon="10.73444914799479"><ele>66.66666666666666</ele><time>2026-04-19T13:27:25Z</time></trkpt><trkpt lat="43.4970157678482" lon="10.734319481984837"><ele>66.33333333333333</ele><time>2026-04-19T13:27:26Z</time></trkpt><trkpt lat="43.49714694361055" lon="10.734195575239605"><ele>66.0</ele><time>2026-04-19T13:27:27Z</time></trkpt><trkpt lat="43.49728389391934" lon="10.734077662895748"><ele>66.0</ele><time>2026-04-19T13:27:28Z</time></trkpt><trkpt lat="43.49742751007322" lon="10.73397008893401"><ele>66.0</ele><time>2026-04-19T13:27:29Z</time></trkpt><trkpt lat="43.49757454411778" lon="10.73387091581906"><ele>66.0</ele><time>2026-04-19T13:27:30Z</time></trkpt><trkpt lat="43.49772351655263" lon="10.733776664355013"><ele>66.0</ele><time>2026-04-19T13:27:31Z</time></trkpt><trkpt lat="43.497874436678316" lon="10.733690021156072"><ele>66.0</ele><time>2026-04-19T13:27:32Z</time></trkpt><trkpt lat="43.49802536855108" lon="10.733607023133745"><ele>66.0</ele><time>2026-04-19T13:27:33Z</time></trkpt><trkpt lat="43.49817687229963" lon="10.733525551080014"><ele>67.33333333333333</ele><time>2026-04-19T13:27:34Z</time></trkpt><trkpt lat="43.49832840640982" lon="10.733446393585293"><ele>68.66666666666666</ele><time>2026-04-19T13:27:35Z</time></trkpt><trkpt lat="43.49848018266039" lon="10.733371975742992"><ele>70.0</ele><time>2026-04-19T13:27:36Z</time></trkpt><trkpt lat="43.49863254907612" lon="10.733295758902964"><ele>69.33333333333333</ele><time>2026-04-19T13:27:37Z</time></trkpt><trkpt lat="43.49878786450941" lon="10.733217878367434"><ele>68.66666666666667</ele><time>2026-04-19T13:27:38Z</time></trkpt><trkpt lat="43.4989437268401" lon="10.733138240316507"><ele>68.0</ele><time>2026-04-19T13:27:39Z</time></trkpt><trkpt lat="43.49909745860653" lon="10.733061186630758"><ele>68.0</ele><time>2026-04-19T13:27:40Z</time></trkpt><trkpt lat="43.4992489906344" lon="10.732986535195465"><ele>68.0</ele><time>2026-04-19T13:27:41Z</time></trkpt><trkpt lat="43.49939727669679" lon="10.732915138221166"><ele>68.0</ele><time>2026-04-19T13:27:42Z</time></trkpt><trkpt lat="43.49954171172251" lon="10.73283982433854"><ele>67.66666666666667</ele><time>2026-04-19T13:27:43Z</time></trkpt><trkpt lat="43.499679193397846" lon="10.732747769908416"><ele>67.33333333333333</ele><time>2026-04-19T13:27:44Z</time></trkpt><trkpt lat="43.49980805283021" lon="10.732636955668717"><ele>67.0</ele><time>2026-04-19T13:27:45Z</time></trkpt><trkpt lat="43.49992479194371" lon="10.732502310456306"><ele>67.0</ele><time>2026-04-19T13:27:46Z</time></trkpt><trkpt lat="43.50002885770115" lon="10.732348316587657"><ele>67.0</ele><time>2026-04-19T13:27:47Z</time></trkpt><trkpt lat="43.50011573062968" lon="10.73217793168398"><ele>67.0</ele><time>2026-04-19T13:27:48Z</time></trkpt><trkpt lat="43.50018661819126" lon="10.731992909062233"><ele>67.0</ele><time>2026-04-19T13:27:49Z</time></trkpt><trkpt lat="43.50024080846803" lon="10.731804272072612"><ele>67.0</ele><time>2026-04-19T13:27:50Z</time></trkpt><trkpt lat="43.500277352542945" lon="10.731623135646704"><ele>67.0</ele><time>2026-04-19T13:27:51Z</time></trkpt><trkpt lat="43.500298945429485" lon="10.73144303831014"><ele>67.0</ele><time>2026-04-19T13:27:52Z</time></trkpt><trkpt lat="43.50030584950517" lon="10.731263776253623"><ele>67.0</ele><time>2026-04-19T13:27:53Z</time></trkpt><trkpt lat="43.50030414781846" lon="10.7310884872817"><ele>67.0</ele><time>2026-04-19T13:27:54Z</time></trkpt><trkpt lat="43.500298526369164" lon="10.730914830150457"><ele>67.0</ele><time>2026-04-19T13:27:55.001Z</time></trkpt><trkpt lat="43.500291609075326" lon="10.730747512303981"><ele>67.0</ele><time>2026-04-19T13:27:56.001Z</time></trkpt><trkpt lat="43.50028509004609" lon="10.73058529026078"><ele>67.0</ele><time>2026-04-19T13:27:57.001Z</time></trkpt><trkpt lat="43.50027504504579" lon="10.730426881098312"><ele>67.0</ele><time>2026-04-19T13:27:58.001Z</time></trkpt><trkpt lat="43.500262517364646" lon="10.73027084001278"><ele>67.0</ele><time>2026-04-19T13:27:59.001Z</time></trkpt><trkpt lat="43.50025025276148" lon="10.730116815912824"><ele>67.0</ele><time>2026-04-19T13:28:00.001Z</time></trkpt><trkpt lat="43.50023793018294" lon="10.729964404876613"><ele>67.75</ele><time>2026-04-19T13:28:01.001Z</time></trkpt><trkpt lat="43.500224817088025" lon="10.729812210437697"><ele>68.5</ele><time>2026-04-19T13:28:02.001Z</time></trkpt><trkpt lat="43.50020977035414" lon="10.7296609077055"><ele>69.25</ele><time>2026-04-19T13:28:03.001Z</time></trkpt><trkpt lat="43.50018968683041" lon="10.729507571827478"><ele>70.0</ele><time>2026-04-19T13:28:04.001Z</time></trkpt><trkpt lat="43.500162089638984" lon="10.729350182264657"><ele>70.0</ele><time>2026-04-19T13:28:05.001Z</time></trkpt><trkpt lat="43.50012741797856" lon="10.729190814361496"><ele>70.0</ele><time>2026-04-19T13:28:06.001Z</time></trkpt><trkpt lat="43.50008885613888" lon="10.729032858528438"><ele>70.0</ele><time>2026-04-19T13:28:07.001Z</time></trkpt><trkpt lat="43.50004752295041" lon="10.728876258693685"><ele>70.0</ele><time>2026-04-19T13:28:07.999Z</time></trkpt><trkpt lat="43.50000407330569" lon="10.728719792525894"><ele>70.0</ele><time>2026-04-19T13:28:08.999Z</time></trkpt><trkpt lat="43.49995980997881" lon="10.728566673614575"><ele>70.0</ele><time>2026-04-19T13:28:09.999Z</time></trkpt><trkpt lat="43.49991598866427" lon="10.728418430664698"><ele>70.0</ele><time>2026-04-19T13:28:10.999Z</time></trkpt><trkpt lat="43.49987355542518" lon="10.728275344211843"><ele>70.0</ele><time>2026-04-19T13:28:11.999Z</time></trkpt><trkpt lat="43.49982798528893" lon="10.72813251423911"><ele>71.75</ele><time>2026-04-19T13:28:12.999Z</time></trkpt><trkpt lat="43.49978040370063" lon="10.727991059618267"><ele>73.5</ele><time>2026-04-19T13:28:13.999Z</time></trkpt><trkpt lat="43.499731290686306" lon="10.727850156630677"><ele>75.25</ele><time>2026-04-19T13:28:14.999Z</time></trkpt><trkpt lat="43.49968099893073" lon="10.72771015755762"><ele>77.0</ele><time>2026-04-19T13:28:15.999Z</time></trkpt><trkpt lat="43.49962979657972" lon="10.72757039417582"><ele>75.5</ele><time>2026-04-19T13:28:16.999Z</time></trkpt><trkpt lat="43.49957732930946" lon="10.727432252316115"><ele>74.0</ele><time>2026-04-19T13:28:17.999Z</time></trkpt><trkpt lat="43.49952276453769" lon="10.727293438441466"><ele>72.5</ele><time>2026-04-19T13:28:18.999Z</time></trkpt><trkpt lat="43.49946684134272" lon="10.72715509426909"><ele>71.0</ele><time>2026-04-19T13:28:19.999Z</time></trkpt><trkpt lat="43.49941124606663" lon="10.727015685591255"><ele>71.5</ele><time>2026-04-19T13:28:20.999Z</time></trkpt><trkpt lat="43.4993544026994" lon="10.7268755628853"><ele>72.0</ele><time>2026-04-19T13:28:21.999Z</time></trkpt><trkpt lat="43.49929558733804" lon="10.726735353269998"><ele>72.5</ele><time>2026-04-19T13:28:22.999Z</time></trkpt><trkpt lat="43.49923442008375" lon="10.726595613814503"><ele>73.0</ele><time>2026-04-19T13:28:23.999Z</time></trkpt><trkpt lat="43.49917288893407" lon="10.726456668158422"><ele>73.0</ele><time>2026-04-19T13:28:24.999Z</time></trkpt><trkpt lat="43.499112295532235" lon="10.726318376543647"><ele>73.0</ele><time>2026-04-19T13:28:25.999Z</time></trkpt><trkpt lat="43.49905375217544" lon="10.726184571319203"><ele>73.0</ele><time>2026-04-19T13:28:26.999Z</time></trkpt><trkpt lat="43.49899873114996" lon="10.726055389876322"><ele>73.0</ele><time>2026-04-19T13:28:27.999Z</time></trkpt><trkpt lat="43.49894585825033" lon="10.725929333546935"><ele>73.0</ele><time>2026-04-19T13:28:28.999Z</time></trkpt><trkpt lat="43.498895660154005" lon="10.725806476720209"><ele>73.4</ele><time>2026-04-19T13:28:29.999Z</time></trkpt><trkpt lat="43.49884390344909" lon="10.725682658675519"><ele>73.8</ele><time>2026-04-19T13:28:31Z</time></trkpt><trkpt lat="43.498790461392105" lon="10.725557568793876"><ele>74.2</ele><time>2026-04-19T13:28:32Z</time></trkpt><trkpt lat="43.498734441774694" lon="10.725434585476307"><ele>74.6</ele><time>2026-04-19T13:28:33Z</time></trkpt><trkpt lat="43.49867829617311" lon="10.72531135768211"><ele>75.0</ele><time>2026-04-19T13:28:34Z</time></trkpt><trkpt lat="43.498624756777396" lon="10.725181550680258"><ele>75.25</ele><time>2026-04-19T13:28:35Z</time></trkpt><trkpt lat="43.498582476488195" lon="10.725053976658115"><ele>75.5</ele><time>2026-04-19T13:28:36Z</time></trkpt><trkpt lat="43.49855340759374" lon="10.724919659299943"><ele>75.75</ele><time>2026-04-19T13:28:37Z</time></trkpt><trkpt lat="43.49853453890044" lon="10.724639230765135"><ele>76.0</ele><time>2026-04-19T13:28:39Z</time></trkpt><trkpt lat="43.49853430867648" lon="10.724495400151513"><ele>75.25</ele><time>2026-04-19T13:28:40Z</time></trkpt><trkpt lat="43.498535827127974" lon="10.724347236314971"><ele>74.5</ele><time>2026-04-19T13:28:41Z</time></trkpt><trkpt lat="43.49854220639447" lon="10.724192571413303"><ele>73.75</ele><time>2026-04-19T13:28:42Z</time></trkpt><trkpt lat="43.49855610548386" lon="10.724032356706847"><ele>73.0</ele><time>2026-04-19T13:28:43Z</time></trkpt><trkpt lat="43.49858180124643" lon="10.723871366957423"><ele>73.0</ele><time>2026-04-19T13:28:44Z</time></trkpt><trkpt lat="43.498613347278734" lon="10.723713696628225"><ele>73.0</ele><time>2026-04-19T13:28:45Z</time></trkpt><trkpt lat="43.49864827731656" lon="10.723556384879224"><ele>73.0</ele><time>2026-04-19T13:28:46Z</time></trkpt><trkpt lat="43.49868292759498" lon="10.723400422561927"><ele>73.0</ele><time>2026-04-19T13:28:47Z</time></trkpt><trkpt lat="43.49871579621563" lon="10.723246842731893"><ele>71.75</ele><time>2026-04-19T13:28:48Z</time></trkpt><trkpt lat="43.49874673881537" lon="10.723096479414554"><ele>70.5</ele><time>2026-04-19T13:28:49Z</time></trkpt><trkpt lat="43.49877190542623" lon="10.72294455825053"><ele>69.25</ele><time>2026-04-19T13:28:50Z</time></trkpt><trkpt lat="43.49880096929653" lon="10.7227940558285"><ele>68.0</ele><time>2026-04-19T13:28:51Z</time></trkpt><trkpt lat="43.498830756910465" lon="10.72264708560549"><ele>68.0</ele><time>2026-04-19T13:28:52Z</time></trkpt><trkpt lat="43.4988593879455" lon="10.72250468234497"><ele>68.0</ele><time>2026-04-19T13:28:53Z</time></trkpt><trkpt lat="43.498888816018656" lon="10.72236549912132"><ele>68.0</ele><time>2026-04-19T13:28:54Z</time></trkpt><trkpt lat="43.498917060391896" lon="10.722229513270536"><ele>68.0</ele><time>2026-04-19T13:28:55Z</time></trkpt><trkpt lat="43.49894474035814" lon="10.722097957497379"><ele>68.0</ele><time>2026-04-19T13:28:56Z</time></trkpt><trkpt lat="43.498973705360086" lon="10.721973748095776"><ele>68.33333333333334</ele><time>2026-04-19T13:28:57Z</time></trkpt><trkpt lat="43.49900000871649" lon="10.721861872322226"><ele>68.66666666666667</ele><time>2026-04-19T13:28:58Z</time></trkpt><trkpt lat="43.49902497986881" lon="10.72176401898711"><ele>69.0</ele><time>2026-04-19T13:28:59Z</time></trkpt><trkpt lat="43.49905946648192" lon="10.721676238194917"><ele>69.33333333333333</ele><time>2026-04-19T13:29:00Z</time></trkpt><trkpt lat="43.499109070630944" lon="10.721606116410484"><ele>69.66666666666666</ele><time>2026-04-19T13:29:01Z</time></trkpt><trkpt lat="43.49916653972537" lon="10.72155185188444"><ele>70.0</ele><time>2026-04-19T13:29:02Z</time></trkpt><trkpt lat="43.499243650912625" lon="10.721439197805175"><ele>70.0</ele><time>2026-04-19T13:29:04Z</time></trkpt><trkpt lat="43.499205267437304" lon="10.721213242368828"><ele>70.0</ele><time>2026-04-19T13:29:07Z</time></trkpt><trkpt lat="43.49914728602725" lon="10.721154083301819"><ele>70.0</ele><time>2026-04-19T13:29:08Z</time></trkpt><trkpt lat="43.499097766618846" lon="10.721084329361327"><ele>70.0</ele><time>2026-04-19T13:29:09Z</time></trkpt><trkpt lat="43.49906336279251" lon="10.720995717666382"><ele>70.0</ele><time>2026-04-19T13:29:10Z</time></trkpt><trkpt lat="43.49903871179757" lon="10.720893912678568"><ele>69.2</ele><time>2026-04-19T13:29:11Z</time></trkpt><trkpt lat="43.49901732889216" lon="10.720785032266992"><ele>68.4</ele><time>2026-04-19T13:29:12Z</time></trkpt><trkpt lat="43.49899636298827" lon="10.720667754742776"><ele>67.6</ele><time>2026-04-19T13:29:13Z</time></trkpt><trkpt lat="43.498980772007314" lon="10.720539123332362"><ele>66.8</ele><time>2026-04-19T13:29:14Z</time></trkpt><trkpt lat="43.49896666355471" lon="10.720401271889605"><ele>66.0</ele><time>2026-04-19T13:29:15Z</time></trkpt><trkpt lat="43.49895369206239" lon="10.72025350675142"><ele>66.25</ele><time>2026-04-19T13:29:16Z</time></trkpt><trkpt lat="43.49894155141083" lon="10.720096765572036"><ele>66.5</ele><time>2026-04-19T13:29:17Z</time></trkpt><trkpt lat="43.4989287531388" lon="10.719928905400502"><ele>66.75</ele><time>2026-04-19T13:29:18Z</time></trkpt><trkpt lat="43.49891382327996" lon="10.719753048186218"><ele>67.0</ele><time>2026-04-19T13:29:19Z</time></trkpt><trkpt lat="43.49889774009181" lon="10.719568271651717"><ele>67.0</ele><time>2026-04-19T13:29:20Z</time></trkpt><trkpt lat="43.49888105003562" lon="10.71937499049394"><ele>67.0</ele><time>2026-04-19T13:29:21Z</time></trkpt><trkpt lat="43.498866297382214" lon="10.719171464536473"><ele>67.0</ele><time>2026-04-19T13:29:22Z</time></trkpt><trkpt lat="43.49885306073134" lon="10.718962377843882"><ele>67.0</ele><time>2026-04-19T13:29:23Z</time></trkpt><trkpt lat="43.49883912901539" lon="10.718750634889927"><ele>67.0</ele><time>2026-04-19T13:29:24.001Z</time></trkpt><trkpt lat="43.4988227327225" lon="10.718534955707687"><ele>67.0</ele><time>2026-04-19T13:29:25.001Z</time></trkpt><trkpt lat="43.49879509750369" lon="10.718319162451321"><ele>67.0</ele><time>2026-04-19T13:29:26.001Z</time></trkpt><trkpt lat="43.498750247644736" lon="10.718106528633411"><ele>68.0</ele><time>2026-04-19T13:29:27.001Z</time></trkpt><trkpt lat="43.498689774209744" lon="10.717897249145375"><ele>69.0</ele><time>2026-04-19T13:29:28.001Z</time></trkpt><trkpt lat="43.498629400459514" lon="10.717684155774936"><ele>70.0</ele><time>2026-04-19T13:29:29.001Z</time></trkpt><trkpt lat="43.49853822271785" lon="10.71748230124564"><ele>71.0</ele><time>2026-04-19T13:29:30.001Z</time></trkpt><trkpt lat="43.498430470200795" lon="10.717296033442183"><ele>72.0</ele><time>2026-04-19T13:29:31.001Z</time></trkpt><trkpt lat="43.498310324498924" lon="10.717119140392967"><ele>73.0</ele><time>2026-04-19T13:29:32.001Z</time></trkpt><trkpt lat="43.4981809405949" lon="10.716950622104084"><ele>73.33333333333333</ele><time>2026-04-19T13:29:33.001Z</time></trkpt><trkpt lat="43.49804929087512" lon="10.716779303435121"><ele>73.66666666666667</ele><time>2026-04-19T13:29:34.001Z</time></trkpt><trkpt lat="43.49791574771751" lon="10.716605520785347"><ele>74.0</ele><time>2026-04-19T13:29:35.001Z</time></trkpt><trkpt lat="43.497773477753896" lon="10.716433207006565"><ele>74.0</ele><time>2026-04-19T13:29:36.001Z</time></trkpt><trkpt lat="43.49762270831235" lon="10.71626465158109"><ele>74.0</ele><time>2026-04-19T13:29:37.001Z</time></trkpt><trkpt lat="43.49746140977334" lon="10.716118697374899"><ele>74.0</ele><time>2026-04-19T13:29:38.001Z</time></trkpt><trkpt lat="43.49729583353757" lon="10.715976392142718"><ele>75.0</ele><time>2026-04-19T13:29:39.001Z</time></trkpt><trkpt lat="43.49712517164715" lon="10.715831389261199"><ele>76.0</ele><time>2026-04-19T13:29:40.001Z</time></trkpt><trkpt lat="43.49695257330808" lon="10.715687342042974"><ele>77.0</ele><time>2026-04-19T13:29:41.001Z</time></trkpt><trkpt lat="43.49678360182929" lon="10.715545858940606"><ele>77.0</ele><time>2026-04-19T13:29:42.001Z</time></trkpt><trkpt lat="43.49661849430199" lon="10.715403632174443"><ele>77.0</ele><time>2026-04-19T13:29:43.001Z</time></trkpt><trkpt lat="43.49645477926544" lon="10.715267956998643"><ele>77.0</ele><time>2026-04-19T13:29:44.001Z</time></trkpt><trkpt lat="43.49629779193426" lon="10.715133577281463"><ele>76.0</ele><time>2026-04-19T13:29:45.001Z</time></trkpt><trkpt lat="43.49614360474518" lon="10.71500159447558"><ele>75.0</ele><time>2026-04-19T13:29:46.001Z</time></trkpt><trkpt lat="43.49599090823433" lon="10.714870404411359"><ele>74.0</ele><time>2026-04-19T13:29:47.001Z</time></trkpt><trkpt lat="43.49583513599879" lon="10.714739910271984"><ele>74.0</ele><time>2026-04-19T13:29:48.001Z</time></trkpt><trkpt lat="43.49567001228971" lon="10.71462231470874"><ele>74.0</ele><time>2026-04-19T13:29:49.001Z</time></trkpt><trkpt lat="43.495496563355786" lon="10.714527193099173"><ele>74.0</ele><time>2026-04-19T13:29:50.001Z</time></trkpt><trkpt lat="43.49532665780145" lon="10.714471501524748"><ele>75.66666666666667</ele><time>2026-04-19T13:29:51.001Z</time></trkpt><trkpt lat="43.495119032933275" lon="10.71439834729525"><ele>77.33333333333333</ele><time>2026-04-19T13:29:52.001Z</time></trkpt><trkpt lat="43.49492588116738" lon="10.714336378479734"><ele>79.0</ele><time>2026-04-19T13:29:53.001Z</time></trkpt><trkpt lat="43.49472916272712" lon="10.714273784005949"><ele>78.0</ele><time>2026-04-19T13:29:54.001Z</time></trkpt><trkpt lat="43.49453015780188" lon="10.714210417353963"><ele>77.0</ele><time>2026-04-19T13:29:55.001Z</time></trkpt><trkpt lat="43.49432900114922" lon="10.714143120637512"><ele>76.0</ele><time>2026-04-19T13:29:56.001Z</time></trkpt><trkpt lat="43.49412970305771" lon="10.714068915798451"><ele>76.0</ele><time>2026-04-19T13:29:57.001Z</time></trkpt><trkpt lat="43.49393413893507" lon="10.713971945181648"><ele>76.0</ele><time>2026-04-19T13:29:58.001Z</time></trkpt><trkpt lat="43.49374454063965" lon="10.713848222428705"><ele>76.0</ele><time>2026-04-19T13:29:59.001Z</time></trkpt><trkpt lat="43.49356470170085" lon="10.713699363916101"><ele>77.66666666666666</ele><time>2026-04-19T13:30:00.001Z</time></trkpt><trkpt lat="43.49339136320886" lon="10.713531547926623"><ele>79.33333333333333</ele><time>2026-04-19T13:30:01.001Z</time></trkpt><trkpt lat="43.49322133468375" lon="10.713352874673996"><ele>81.0</ele><time>2026-04-19T13:30:02.001Z</time></trkpt><trkpt lat="43.4930525359191" lon="10.713174675509796"><ele>81.33333333333333</ele><time>2026-04-19T13:30:03.001Z</time></trkpt><trkpt lat="43.49287928370731" lon="10.71300332022708"><ele>81.66666666666666</ele><time>2026-04-19T13:30:04.001Z</time></trkpt><trkpt lat="43.49270550867428" lon="10.712836901193288"><ele>82.0</ele><time>2026-04-19T13:30:05.001Z</time></trkpt><trkpt lat="43.492540609861024" lon="10.71266446570464"><ele>82.0</ele><time>2026-04-19T13:30:06.001Z</time></trkpt><trkpt lat="43.49239050575093" lon="10.712468347203748"><ele>82.0</ele><time>2026-04-19T13:30:07.001Z</time></trkpt><trkpt lat="43.49225807451837" lon="10.712248825327604"><ele>82.0</ele><time>2026-04-19T13:30:08.001Z</time></trkpt><trkpt lat="43.49213899556683" lon="10.71201259569944"><ele>80.66666666666666</ele><time>2026-04-19T13:30:09.001Z</time></trkpt><trkpt lat="43.49202354968747" lon="10.711767993767008"><ele>79.33333333333333</ele><time>2026-04-19T13:30:10.001Z</time></trkpt><trkpt lat="43.4919049863748" lon="10.711522397123247"><ele>78.0</ele><time>2026-04-19T13:30:11.001Z</time></trkpt><trkpt lat="43.491784679069745" lon="10.711276213033786"><ele>79.5</ele><time>2026-04-19T13:30:12.001Z</time></trkpt><trkpt lat="43.491662490893965" lon="10.711029586086747"><ele>81.0</ele><time>2026-04-19T13:30:13.001Z</time></trkpt><trkpt lat="43.491417233858826" lon="10.710550150995038"><ele>81.0</ele><time>2026-04-19T13:30:15Z</time></trkpt><trkpt lat="43.491291140074566" lon="10.710326177758851"><ele>81.0</ele><time>2026-04-19T13:30:16Z</time></trkpt><trkpt lat="43.49115330092067" lon="10.710132600078731"><ele>81.0</ele><time>2026-04-19T13:30:17Z</time></trkpt><trkpt lat="43.491006850959764" lon="10.709981761822812"><ele>80.66666666666667</ele><time>2026-04-19T13:30:18Z</time></trkpt><trkpt lat="43.49086475019782" lon="10.709851204177731"><ele>80.33333333333334</ele><time>2026-04-19T13:30:19Z</time></trkpt><trkpt lat="43.49072913936208" lon="10.7097324271476"><ele>80.0</ele><time>2026-04-19T13:30:20Z</time></trkpt><trkpt lat="43.49059664569298" lon="10.709621107739954"><ele>80.0</ele><time>2026-04-19T13:30:21Z</time></trkpt><trkpt lat="43.490468774105324" lon="10.709519712932366"><ele>80.0</ele><time>2026-04-19T13:30:22Z</time></trkpt><trkpt lat="43.490351956863734" lon="10.709415323610665"><ele>80.0</ele><time>2026-04-19T13:30:23Z</time></trkpt><trkpt lat="43.49025234604141" lon="10.70929659042668"><ele>80.0</ele><time>2026-04-19T13:30:24Z</time></trkpt><trkpt lat="43.49016323305611" lon="10.709177755184784"><ele>80.6</ele><time>2026-04-19T13:30:25Z</time></trkpt><trkpt lat="43.49007592027039" lon="10.709071411419501"><ele>81.2</ele><time>2026-04-19T13:30:26Z</time></trkpt><trkpt lat="43.489985076140194" lon="10.70899219362267"><ele>81.80000000000001</ele><time>2026-04-19T13:30:27Z</time></trkpt><trkpt lat="43.48989643523793" lon="10.70893024896965"><ele>82.4</ele><time>2026-04-19T13:30:28Z</time></trkpt><trkpt lat="43.48981320941215" lon="10.708857151319638"><ele>83.0</ele><time>2026-04-19T13:30:29Z</time></trkpt><trkpt lat="43.48974466456862" lon="10.708763136398135"><ele>83.0</ele><time>2026-04-19T13:30:30Z</time></trkpt><trkpt lat="43.489721075905706" lon="10.708639131394168"><ele>83.0</ele><time>2026-04-19T13:30:31Z</time></trkpt><trkpt lat="43.48970645944789" lon="10.70853091774773"><ele>83.0</ele><time>2026-04-19T13:30:32Z</time></trkpt><trkpt lat="43.4897018311231" lon="10.708417453771288"><ele>83.0</ele><time>2026-04-19T13:30:33Z</time></trkpt><trkpt lat="43.48971026058266" lon="10.708306648671464"><ele>83.0</ele><time>2026-04-19T13:30:34Z</time></trkpt><trkpt lat="43.489732044319204" lon="10.70818564154156"><ele>83.0</ele><time>2026-04-19T13:30:35Z</time></trkpt><trkpt lat="43.489766178537735" lon="10.708062818906562"><ele>84.60000000000001</ele><time>2026-04-19T13:30:36Z</time></trkpt><trkpt lat="43.489815502328916" lon="10.707943900200565"><ele>86.2</ele><time>2026-04-19T13:30:37Z</time></trkpt><trkpt lat="43.48987213632129" lon="10.707819519092727"><ele>87.8</ele><time>2026-04-19T13:30:38Z</time></trkpt><trkpt lat="43.48993069353968" lon="10.707696367660999"><ele>89.4</ele><time>2026-04-19T13:30:39Z</time></trkpt><trkpt lat="43.48998924673917" lon="10.707574668314521"><ele>91.0</ele><time>2026-04-19T13:30:40Z</time></trkpt><trkpt lat="43.49004632750351" lon="10.70744930615637"><ele>91.0</ele><time>2026-04-19T13:30:41Z</time></trkpt><trkpt lat="43.49010362460017" lon="10.707323125483722"><ele>91.0</ele><time>2026-04-19T13:30:42Z</time></trkpt><trkpt lat="43.490159268574395" lon="10.70719552851471"><ele>91.0</ele><time>2026-04-19T13:30:43Z</time></trkpt><trkpt lat="43.49021429556521" lon="10.70707191953992"><ele>91.0</ele><time>2026-04-19T13:30:44Z</time></trkpt><trkpt lat="43.490282932079374" lon="10.70696110933135"><ele>91.0</ele><time>2026-04-19T13:30:45Z</time></trkpt><trkpt lat="43.490360536234135" lon="10.706851849281563"><ele>93.0</ele><time>2026-04-19T13:30:46Z</time></trkpt><trkpt lat="43.490439581058965" lon="10.706739902840555"><ele>95.0</ele><time>2026-04-19T13:30:47Z</time></trkpt><trkpt lat="43.49051939188533" lon="10.706617839940959"><ele>97.0</ele><time>2026-04-19T13:30:48Z</time></trkpt><trkpt lat="43.49056711792873" lon="10.706468529964122"><ele>99.0</ele><time>2026-04-19T13:30:49Z</time></trkpt><trkpt lat="43.49063150306938" lon="10.70633221130244"><ele>99.0</ele><time>2026-04-19T13:30:50Z</time></trkpt><trkpt lat="43.49067771109419" lon="10.706182794828978"><ele>99.0</ele><time>2026-04-19T13:30:51Z</time></trkpt><trkpt lat="43.49072097473428" lon="10.706027731599592"><ele>99.0</ele><time>2026-04-19T13:30:52.001Z</time></trkpt><trkpt lat="43.490764120998655" lon="10.705867170334729"><ele>99.0</ele><time>2026-04-19T13:30:53.001Z</time></trkpt><trkpt lat="43.490807759026694" lon="10.705702079568644"><ele>99.5</ele><time>2026-04-19T13:30:54.001Z</time></trkpt><trkpt lat="43.490852477040015" lon="10.705535220342393"><ele>100.0</ele><time>2026-04-19T13:30:55.001Z</time></trkpt><trkpt lat="43.49089834568938" lon="10.705366204375117"><ele>100.5</ele><time>2026-04-19T13:30:56.001Z</time></trkpt><trkpt lat="43.49094387194177" lon="10.70519881757112"><ele>101.0</ele><time>2026-04-19T13:30:57.001Z</time></trkpt><trkpt lat="43.49098933203612" lon="10.705032519873104"><ele>101.5</ele><time>2026-04-19T13:30:58.001Z</time></trkpt><trkpt lat="43.49103583727828" lon="10.704862107272714"><ele>102.0</ele><time>2026-04-19T13:30:59.001Z</time></trkpt><trkpt lat="43.49108241533405" lon="10.704688722666173"><ele>102.5</ele><time>2026-04-19T13:31:00.001Z</time></trkpt><trkpt lat="43.49112958140676" lon="10.704513149208188"><ele>103.0</ele><time>2026-04-19T13:31:01.001Z</time></trkpt><trkpt lat="43.49117822802665" lon="10.70433502112669"><ele>103.25</ele><time>2026-04-19T13:31:02.001Z</time></trkpt><trkpt lat="43.49122747239984" lon="10.704157260921427"><ele>103.5</ele><time>2026-04-19T13:31:03.001Z</time></trkpt><trkpt lat="43.49127680561483" lon="10.703978550922788"><ele>103.75</ele><time>2026-04-19T13:31:04.001Z</time></trkpt><trkpt lat="43.49132601819109" lon="10.703797817511148"><ele>104.0</ele><time>2026-04-19T13:31:05.001Z</time></trkpt><trkpt lat="43.4913758294319" lon="10.703614885501134"><ele>105.75</ele><time>2026-04-19T13:31:06.001Z</time></trkpt><trkpt lat="43.49142476529189" lon="10.703435168321569"><ele>107.5</ele><time>2026-04-19T13:31:07.001Z</time></trkpt><trkpt lat="43.49147503412026" lon="10.703260053035097"><ele>109.25</ele><time>2026-04-19T13:31:08.001Z</time></trkpt><trkpt lat="43.491529835693555" lon="10.703090973297913"><ele>111.0</ele><time>2026-04-19T13:31:09.001Z</time></trkpt><trkpt lat="43.491591740991794" lon="10.702921133010312"><ele>111.0</ele><time>2026-04-19T13:31:10.001Z</time></trkpt><trkpt lat="43.49165731316469" lon="10.702753214181413"><ele>111.0</ele><time>2026-04-19T13:31:11.001Z</time></trkpt><trkpt lat="43.49172610808883" lon="10.702587426084353"><ele>111.0</ele><time>2026-04-19T13:31:12.001Z</time></trkpt><trkpt lat="43.4917918031062" lon="10.702421062162298"><ele>111.0</ele><time>2026-04-19T13:31:13.001Z</time></trkpt><trkpt lat="43.49185485431183" lon="10.702254639828546"><ele>111.75</ele><time>2026-04-19T13:31:14.001Z</time></trkpt><trkpt lat="43.49191311859556" lon="10.702086722628188"><ele>112.5</ele><time>2026-04-19T13:31:15.001Z</time></trkpt><trkpt lat="43.4919643275029" lon="10.7019147292229"><ele>113.25</ele><time>2026-04-19T13:31:16.001Z</time></trkpt><trkpt lat="43.49200104471432" lon="10.701731877032527"><ele>114.0</ele><time>2026-04-19T13:31:17.001Z</time></trkpt><trkpt lat="43.4920506386351" lon="10.70156057201055"><ele>114.5</ele><time>2026-04-19T13:31:18.001Z</time></trkpt><trkpt lat="43.4920943843906" lon="10.701385980116578"><ele>115.0</ele><time>2026-04-19T13:31:19.001Z</time></trkpt><trkpt lat="43.49212349823617" lon="10.701207246526423"><ele>115.5</ele><time>2026-04-19T13:31:20.001Z</time></trkpt><trkpt lat="43.49213889003486" lon="10.701025075413755"><ele>116.0</ele><time>2026-04-19T13:31:21.001Z</time></trkpt><trkpt lat="43.492161629384405" lon="10.700849176272254"><ele>116.5</ele><time>2026-04-19T13:31:22.001Z</time></trkpt><trkpt lat="43.492159632103444" lon="10.700667720087653"><ele>117.0</ele><time>2026-04-19T13:31:23.001Z</time></trkpt><trkpt lat="43.49215353377293" lon="10.700487324211538"><ele>117.5</ele><time>2026-04-19T13:31:24.001Z</time></trkpt><trkpt lat="43.492148129535664" lon="10.70030192640525"><ele>118.0</ele><time>2026-04-19T13:31:25.001Z</time></trkpt><trkpt lat="43.492149869984544" lon="10.700122419234166"><ele>119.0</ele><time>2026-04-19T13:31:26.001Z</time></trkpt><trkpt lat="43.492165599963386" lon="10.699942563518189"><ele>120.0</ele><time>2026-04-19T13:31:27.001Z</time></trkpt><trkpt lat="43.49218406606833" lon="10.699765853814542"><ele>121.0</ele><time>2026-04-19T13:31:28.001Z</time></trkpt><trkpt lat="43.49225983659143" lon="10.699607213264025"><ele>122.0</ele><time>2026-04-19T13:31:29.001Z</time></trkpt><trkpt lat="43.492332639452044" lon="10.699459981094831"><ele>123.25</ele><time>2026-04-19T13:31:30.001Z</time></trkpt><trkpt lat="43.49239851548272" lon="10.699307051637588"><ele>124.5</ele><time>2026-04-19T13:31:31.001Z</time></trkpt><trkpt lat="43.49241859488498" lon="10.69915600834978"><ele>125.75</ele><time>2026-04-19T13:31:32.001Z</time></trkpt><trkpt lat="43.492440650463784" lon="10.699015916614917"><ele>127.0</ele><time>2026-04-19T13:31:33.001Z</time></trkpt><trkpt lat="43.49245144672568" lon="10.698871463342945"><ele>127.0</ele><time>2026-04-19T13:31:34.001Z</time></trkpt><trkpt lat="43.49244889611844" lon="10.69872634634969"><ele>127.0</ele><time>2026-04-19T13:31:35.001Z</time></trkpt><trkpt lat="43.4924821796674" lon="10.698578532343731"><ele>127.0</ele><time>2026-04-19T13:31:36.001Z</time></trkpt><trkpt lat="43.49251681654673" lon="10.698427075360192"><ele>127.0</ele><time>2026-04-19T13:31:37.001Z</time></trkpt><trkpt lat="43.49257097456051" lon="10.698284481200865"><ele>128.0</ele><time>2026-04-19T13:31:38.001Z</time></trkpt><trkpt lat="43.49260341075379" lon="10.698130645876097"><ele>129.0</ele><time>2026-04-19T13:31:39.001Z</time></trkpt><trkpt lat="43.49264523508842" lon="10.697980474682739"><ele>130.0</ele><time>2026-04-19T13:31:40.001Z</time></trkpt><trkpt lat="43.49268729687115" lon="10.697831547349548"><ele>131.0</ele><time>2026-04-19T13:31:41.001Z</time></trkpt><trkpt lat="43.49273360922757" lon="10.697680840947484"><ele>130.75</ele><time>2026-04-19T13:31:42.001Z</time></trkpt><trkpt lat="43.492781724835126" lon="10.697532547435042"><ele>130.5</ele><time>2026-04-19T13:31:43.001Z</time></trkpt><trkpt lat="43.49284322957049" lon="10.69739477584075"><ele>130.25</ele><time>2026-04-19T13:31:44.001Z</time></trkpt><trkpt lat="43.49292694575108" lon="10.697277734805187"><ele>130.0</ele><time>2026-04-19T13:31:45.001Z</time></trkpt><trkpt lat="43.493018693929024" lon="10.697182202554986"><ele>130.0</ele><time>2026-04-19T13:31:46.001Z</time></trkpt><trkpt lat="43.49309380499106" lon="10.697108370370794"><ele>130.0</ele><time>2026-04-19T13:31:47.001Z</time></trkpt><trkpt lat="43.49315939757848" lon="10.697041621927664"><ele>130.0</ele><time>2026-04-19T13:31:48.001Z</time></trkpt><trkpt lat="43.49322576934029" lon="10.696971732796696"><ele>130.0</ele><time>2026-04-19T13:31:49.001Z</time></trkpt><trkpt lat="43.49328480059814" lon="10.696900341085865"><ele>130.0</ele><time>2026-04-19T13:31:50.001Z</time></trkpt><trkpt lat="43.493361848149945" lon="10.696848494559491"><ele>130.0</ele><time>2026-04-19T13:31:51.001Z</time></trkpt><trkpt lat="43.49343386166703" lon="10.696776063244975"><ele>130.6</ele><time>2026-04-19T13:31:52.001Z</time></trkpt><trkpt lat="43.49350078437607" lon="10.696688050928143"><ele>131.2</ele><time>2026-04-19T13:31:53.001Z</time></trkpt><trkpt lat="43.49358471604069" lon="10.696613874161962"><ele>131.8</ele><time>2026-04-19T13:31:54.001Z</time></trkpt><trkpt lat="43.493670412572556" lon="10.696531380688196"><ele>132.4</ele><time>2026-04-19T13:31:55.001Z</time></trkpt><trkpt lat="43.49375471411648" lon="10.69643773306057"><ele>133.0</ele><time>2026-04-19T13:31:56.001Z</time></trkpt><trkpt lat="43.49384492272842" lon="10.696342194781028"><ele>133.0</ele><time>2026-04-19T13:31:57.001Z</time></trkpt><trkpt lat="43.49393982783511" lon="10.696242727549048"><ele>133.0</ele><time>2026-04-19T13:31:58.001Z</time></trkpt><trkpt lat="43.49403812621163" lon="10.696140773356033"><ele>133.0</ele><time>2026-04-19T13:31:59.001Z</time></trkpt><trkpt lat="43.494149103515134" lon="10.696052803592437"><ele>133.0</ele><time>2026-04-19T13:32:00.002Z</time></trkpt><trkpt lat="43.49425381652918" lon="10.695945429352145"><ele>133.75</ele><time>2026-04-19T13:32:01.002Z</time></trkpt><trkpt lat="43.494356783040004" lon="10.69584111623332"><ele>134.5</ele><time>2026-04-19T13:32:02.002Z</time></trkpt><trkpt lat="43.494456212558156" lon="10.69574057955767"><ele>135.25</ele><time>2026-04-19T13:32:03.002Z</time></trkpt><trkpt lat="43.494554706302196" lon="10.695640955430253"><ele>136.0</ele><time>2026-04-19T13:32:04.002Z</time></trkpt><trkpt lat="43.494645539868685" lon="10.69554905325741"><ele>136.6</ele><time>2026-04-19T13:32:05.002Z</time></trkpt><trkpt lat="43.494715677734206" lon="10.695455555312146"><ele>137.2</ele><time>2026-04-19T13:32:06.002Z</time></trkpt><trkpt lat="43.494790935368016" lon="10.69538487738596"><ele>137.8</ele><time>2026-04-19T13:32:07.002Z</time></trkpt><trkpt lat="43.4948778020747" lon="10.695294436272773"><ele>138.4</ele><time>2026-04-19T13:32:08.002Z</time></trkpt><trkpt lat="43.49496484840242" lon="10.695208381095217"><ele>139.0</ele><time>2026-04-19T13:32:09.002Z</time></trkpt><trkpt lat="43.49505594666967" lon="10.695119581796927"><ele>138.4</ele><time>2026-04-19T13:32:10.002Z</time></trkpt><trkpt lat="43.49514332100067" lon="10.695028752196551"><ele>137.8</ele><time>2026-04-19T13:32:11.002Z</time></trkpt><trkpt lat="43.495230892653026" lon="10.694936195970458"><ele>137.2</ele><time>2026-04-19T13:32:12.002Z</time></trkpt><trkpt lat="43.49531984459016" lon="10.694848248673077"><ele>136.6</ele><time>2026-04-19T13:32:13.002Z</time></trkpt><trkpt lat="43.49541454747205" lon="10.69476873728247"><ele>136.0</ele><time>2026-04-19T13:32:14.002Z</time></trkpt><trkpt lat="43.495512938157276" lon="10.694713092849694"><ele>136.0</ele><time>2026-04-19T13:32:15.002Z</time></trkpt><trkpt lat="43.495584835175755" lon="10.694690554179328"><ele>136.0</ele><time>2026-04-19T13:32:16.002Z</time></trkpt><trkpt lat="43.49565792388498" lon="10.694668835606548"><ele>136.0</ele><time>2026-04-19T13:32:17.002Z</time></trkpt><trkpt lat="43.49573149734555" lon="10.694649025465765"><ele>136.0</ele><time>2026-04-19T13:32:18.002Z</time></trkpt><trkpt lat="43.49579563498746" lon="10.69462412911335"><ele>136.0</ele><time>2026-04-19T13:32:19.002Z</time></trkpt><trkpt lat="43.49590552143474" lon="10.694606191284748"><ele>136.0</ele><time>2026-04-19T13:32:21.001Z</time></trkpt><trkpt lat="43.496017727973594" lon="10.69456037741635"><ele>135.99999999999997</ele><time>2026-04-19T13:32:23.001Z</time></trkpt><trkpt lat="43.49608257203227" lon="10.694537606002806"><ele>136.0</ele><time>2026-04-19T13:32:24.001Z</time></trkpt><trkpt lat="43.4961557930672" lon="10.694511733856597"><ele>136.0</ele><time>2026-04-19T13:32:25.001Z</time></trkpt><trkpt lat="43.49622350885382" lon="10.694502897148066"><ele>136.0</ele><time>2026-04-19T13:32:26.001Z</time></trkpt><trkpt lat="43.4962959028275" lon="10.694481609024525"><ele>136.0</ele><time>2026-04-19T13:32:27.001Z</time></trkpt><trkpt lat="43.49637237716698" lon="10.69445049760382"><ele>135.99999999999997</ele><time>2026-04-19T13:32:28.001Z</time></trkpt><trkpt lat="43.4964476237659" lon="10.69440485118369"><ele>136.0</ele><time>2026-04-19T13:32:29.001Z</time></trkpt><trkpt lat="43.49652280634449" lon="10.694350274262368"><ele>138.16666666666669</ele><time>2026-04-19T13:32:30.001Z</time></trkpt><trkpt lat="43.4965924307822" lon="10.694280721346383"><ele>140.33333333333334</ele><time>2026-04-19T13:32:31.001Z</time></trkpt><trkpt lat="43.49665518668878" lon="10.69420690479435"><ele>142.5</ele><time>2026-04-19T13:32:32.001Z</time></trkpt><trkpt lat="43.496711484212234" lon="10.694131018937822"><ele>144.66666666666666</ele><time>2026-04-19T13:32:33.001Z</time></trkpt><trkpt lat="43.49674833764898" lon="10.694039133744418"><ele>146.83333333333331</ele><time>2026-04-19T13:32:34.001Z</time></trkpt><trkpt lat="43.49676985447312" lon="10.69394872938091"><ele>149.0</ele><time>2026-04-19T13:32:35.001Z</time></trkpt><trkpt lat="43.49678618695262" lon="10.693843219626963"><ele>149.0</ele><time>2026-04-19T13:32:36.001Z</time></trkpt><trkpt lat="43.49680447544626" lon="10.693738991123995"><ele>149.0</ele><time>2026-04-19T13:32:37.001Z</time></trkpt><trkpt lat="43.49682068971035" lon="10.693631989613625"><ele>149.0</ele><time>2026-04-19T13:32:38.001Z</time></trkpt><trkpt lat="43.49683904981772" lon="10.693516951482467"><ele>149.0</ele><time>2026-04-19T13:32:39.001Z</time></trkpt><trkpt lat="43.496857617648025" lon="10.693395305022774"><ele>149.0</ele><time>2026-04-19T13:32:40.001Z</time></trkpt><trkpt lat="43.49687548798554" lon="10.693280019399726"><ele>149.0</ele><time>2026-04-19T13:32:41.001Z</time></trkpt><trkpt lat="43.496890246357985" lon="10.693172186013713"><ele>148.71428571428572</ele><time>2026-04-19T13:32:42.001Z</time></trkpt><trkpt lat="43.49690812005233" lon="10.693065784431164"><ele>148.42857142857142</ele><time>2026-04-19T13:32:43.001Z</time></trkpt><trkpt lat="43.49692031343609" lon="10.692971275892699"><ele>148.14285714285714</ele><time>2026-04-19T13:32:44.001Z</time></trkpt><trkpt lat="43.4969342541411" lon="10.692876027910614"><ele>147.85714285714286</ele><time>2026-04-19T13:32:45.001Z</time></trkpt><trkpt lat="43.49694590636776" lon="10.692782171225668"><ele>147.57142857142856</ele><time>2026-04-19T13:32:46.001Z</time></trkpt><trkpt lat="43.49695630090072" lon="10.692692357018837"><ele>147.28571428571428</ele><time>2026-04-19T13:32:47.001Z</time></trkpt><trkpt lat="43.49696895983074" lon="10.69260542936036"><ele>147.0</ele><time>2026-04-19T13:32:48.001Z</time></trkpt><trkpt lat="43.496990416603545" lon="10.692481580893572"><ele>145.85714285714286</ele><time>2026-04-19T13:32:50.001Z</time></trkpt><trkpt lat="43.49700543771047" lon="10.692394208359248"><ele>144.71428571428572</ele><time>2026-04-19T13:32:55.001Z</time></trkpt><trkpt lat="43.497018248618744" lon="10.692296974916266"><ele>143.57142857142856</ele><time>2026-04-19T13:33:01.001Z</time></trkpt><trkpt lat="43.49702879607052" lon="10.692208374299423"><ele>142.42857142857144</ele><time>2026-04-19T13:33:08.001Z</time></trkpt><trkpt lat="43.49704827103044" lon="10.692114811684089"><ele>141.28571428571428</ele><time>2026-04-19T13:33:12.001Z</time></trkpt><trkpt lat="43.49706189950982" lon="10.692017576284707"><ele>140.14285714285714</ele><time>2026-04-19T13:33:18.001Z</time></trkpt><trkpt lat="43.49706475838194" lon="10.691891897102053"><ele>139.0</ele><time>2026-04-19T13:33:21.001Z</time></trkpt><trkpt lat="43.49708013973301" lon="10.691782742008554"><ele>139.2</ele><time>2026-04-19T13:33:23.001Z</time></trkpt><trkpt lat="43.49709888707214" lon="10.691657246956186"><ele>139.4</ele><time>2026-04-19T13:33:25.001Z</time></trkpt><trkpt lat="43.49711875241164" lon="10.691520237201239"><ele>139.6</ele><time>2026-04-19T13:33:27.001Z</time></trkpt><trkpt lat="43.49713738612936" lon="10.691368055695776"><ele>139.8</ele><time>2026-04-19T13:33:29.001Z</time></trkpt><trkpt lat="43.497157270285264" lon="10.691204059226651"><ele>140.0</ele><time>2026-04-19T13:33:31.001Z</time></trkpt><trkpt lat="43.49718125866323" lon="10.691035158982366"><ele>140.2</ele><time>2026-04-19T13:33:33.001Z</time></trkpt><trkpt lat="43.49720541385802" lon="10.69086351622495"><ele>140.4</ele><time>2026-04-19T13:33:35.001Z</time></trkpt><trkpt lat="43.497235416435224" lon="10.690705841267736"><ele>140.6</ele><time>2026-04-19T13:33:37.001Z</time></trkpt><trkpt lat="43.497256254643034" lon="10.690579375313224"><ele>140.8</ele><time>2026-04-19T13:33:39.001Z</time></trkpt><trkpt lat="43.497265633751574" lon="10.690473696431862"><ele>141.0</ele><time>2026-04-19T13:33:48.002Z</time></trkpt><trkpt lat="43.497279782351484" lon="10.690364807398897"><ele>141.2</ele><time>2026-04-19T13:33:51.002Z</time></trkpt><trkpt lat="43.497288089714175" lon="10.69022829170145"><ele>141.39999999999998</ele><time>2026-04-19T13:33:55.002Z</time></trkpt><trkpt lat="43.497315590627224" lon="10.690110957462936"><ele>141.6</ele><time>2026-04-19T13:33:57.002Z</time></trkpt><trkpt lat="43.49732581226704" lon="10.6900073313165"><ele>141.79999999999998</ele><time>2026-04-19T13:33:59.002Z</time></trkpt><trkpt lat="43.49734128382872" lon="10.689880909636093"><ele>142.0</ele><time>2026-04-19T13:34:03.002Z</time></trkpt><trkpt lat="43.49735936059941" lon="10.689746175951178"><ele>142.0</ele><time>2026-04-19T13:34:05.002Z</time></trkpt><trkpt lat="43.497380428616424" lon="10.68958418052778"><ele>142.0</ele><time>2026-04-19T13:34:07.002Z</time></trkpt><trkpt lat="43.497400606503845" lon="10.689432030258404"><ele>142.0</ele><time>2026-04-19T13:34:09.002Z</time></trkpt><trkpt lat="43.49743319541507" lon="10.68932750829623"><ele>142.0</ele><time>2026-04-19T13:34:11.002Z</time></trkpt><trkpt lat="43.49744608142154" lon="10.689240437104367"><ele>142.0</ele><time>2026-04-19T13:34:13.002Z</time></trkpt><trkpt lat="43.49746569921785" lon="10.689099484302428"><ele>142.0</ele><time>2026-04-19T13:34:16.002Z</time></trkpt><trkpt lat="43.49746769858282" lon="10.688960711541178"><ele>142.0</ele><time>2026-04-19T13:34:18.002Z</time></trkpt><trkpt lat="43.49750255304152" lon="10.688813055512314"><ele>142.0</ele><time>2026-04-19T13:34:20.002Z</time></trkpt><trkpt lat="43.49751395619001" lon="10.688724429886753"><ele>142.0</ele><time>2026-04-19T13:34:21.002Z</time></trkpt><trkpt lat="43.497509942547715" lon="10.688626100233146"><ele>142.0</ele><time>2026-04-19T13:34:22.002Z</time></trkpt><trkpt lat="43.4975273906476" lon="10.688533650755517"><ele>142.0</ele><time>2026-04-19T13:34:23.002Z</time></trkpt><trkpt lat="43.497538124066" lon="10.688435230709304"><ele>142.16666666666669</ele><time>2026-04-19T13:34:24.002Z</time></trkpt><trkpt lat="43.49755224588556" lon="10.688332340809927"><ele>142.33333333333334</ele><time>2026-04-19T13:34:25.002Z</time></trkpt><trkpt lat="43.49756616238831" lon="10.688227817704044"><ele>142.5</ele><time>2026-04-19T13:34:26.001Z</time></trkpt><trkpt lat="43.4975808112684" lon="10.688120095007656"><ele>142.66666666666666</ele><time>2026-04-19T13:34:27.001Z</time></trkpt><trkpt lat="43.497597056931056" lon="10.688015100498522"><ele>142.83333333333331</ele><time>2026-04-19T13:34:28.001Z</time></trkpt><trkpt lat="43.4976087837242" lon="10.68791285590773"><ele>143.0</ele><time>2026-04-19T13:34:29.001Z</time></trkpt><trkpt lat="43.4976186106111" lon="10.687814497606071"><ele>143.42857142857142</ele><time>2026-04-19T13:34:30.001Z</time></trkpt><trkpt lat="43.497634999881875" lon="10.68771462851905"><ele>143.85714285714286</ele><time>2026-04-19T13:34:31.001Z</time></trkpt><trkpt lat="43.49765202995081" lon="10.687618851931509"><ele>144.28571428571428</ele><time>2026-04-19T13:34:32.001Z</time></trkpt><trkpt lat="43.49766496294211" lon="10.687521927549795"><ele>144.71428571428572</ele><time>2026-04-19T13:34:33.001Z</time></trkpt><trkpt lat="43.49767903778166" lon="10.687429414977233"><ele>145.14285714285714</ele><time>2026-04-19T13:34:34.001Z</time></trkpt><trkpt lat="43.49768992935312" lon="10.68733696951602"><ele>145.57142857142856</ele><time>2026-04-19T13:34:35.001Z</time></trkpt><trkpt lat="43.49771933629084" lon="10.687251837967649"><ele>146.0</ele><time>2026-04-19T13:34:36.001Z</time></trkpt><trkpt lat="43.49771505455405" lon="10.68715751471616"><ele>146.0</ele><time>2026-04-19T13:34:37.001Z</time></trkpt><trkpt lat="43.49773138359731" lon="10.68707329411281"><ele>146.0</ele><time>2026-04-19T13:34:38.001Z</time></trkpt><trkpt lat="43.49776512390812" lon="10.68691453345783"><ele>146.0</ele><time>2026-04-19T13:34:40.001Z</time></trkpt><trkpt lat="43.4977874918628" lon="10.686828994131675"><ele>146.0</ele><time>2026-04-19T13:34:41.001Z</time></trkpt><trkpt lat="43.4978175397959" lon="10.68674941902314"><ele>146.0</ele><time>2026-04-19T13:34:42.001Z</time></trkpt><trkpt lat="43.49784907898178" lon="10.68667063138658"><ele>146.0</ele><time>2026-04-19T13:34:43.001Z</time></trkpt><trkpt lat="43.49788700089014" lon="10.686595267230054"><ele>146.0</ele><time>2026-04-19T13:34:44.001Z</time></trkpt><trkpt lat="43.497953397378204" lon="10.686459485352533"><ele>146.25</ele><time>2026-04-19T13:34:46.001Z</time></trkpt><trkpt lat="43.49802041647453" lon="10.686331847704722"><ele>146.5</ele><time>2026-04-19T13:34:48.001Z</time></trkpt><trkpt lat="43.49809141483071" lon="10.686210440747216"><ele>146.75</ele><time>2026-04-19T13:34:50.001Z</time></trkpt><trkpt lat="43.49815847449194" lon="10.686065445702528"><ele>147.0</ele><time>2026-04-19T13:34:52.001Z</time></trkpt><trkpt lat="43.498229632863364" lon="10.685924270089684"><ele>147.0</ele><time>2026-04-19T13:34:54.001Z</time></trkpt><trkpt lat="43.49829287631551" lon="10.685799622116482"><ele>147.0</ele><time>2026-04-19T13:34:56.001Z</time></trkpt><trkpt lat="43.49834066838819" lon="10.685648449540388"><ele>147.0</ele><time>2026-04-19T13:34:58.001Z</time></trkpt><trkpt lat="43.498376310915745" lon="10.685546377541643"><ele>147.0</ele><time>2026-04-19T13:35:00.001Z</time></trkpt><trkpt lat="43.49840414263884" lon="10.685420177665533"><ele>147.0</ele><time>2026-04-19T13:35:02.001Z</time></trkpt><trkpt lat="43.4984455702691" lon="10.68525965983177"><ele>148.2</ele><time>2026-04-19T13:35:04.001Z</time></trkpt><trkpt lat="43.49844249232022" lon="10.685135489199933"><ele>149.39999999999998</ele><time>2026-04-19T13:35:07.001Z</time></trkpt><trkpt lat="43.49846062923912" lon="10.684993211294287"><ele>150.60000000000002</ele><time>2026-04-19T13:35:09.001Z</time></trkpt><trkpt lat="43.498443641789144" lon="10.684829919332719"><ele>151.8</ele><time>2026-04-19T13:35:11.001Z</time></trkpt><trkpt lat="43.4984147418349" lon="10.684689757947362"><ele>153.0</ele><time>2026-04-19T13:35:13.001Z</time></trkpt><trkpt lat="43.49838005908681" lon="10.684539110680467"><ele>153.0</ele><time>2026-04-19T13:35:15.001Z</time></trkpt><trkpt lat="43.49834333147191" lon="10.684384060333693"><ele>153.0</ele><time>2026-04-19T13:35:17.001Z</time></trkpt><trkpt lat="43.49830864551338" lon="10.684237628869084"><ele>153.0</ele><time>2026-04-19T13:35:19.001Z</time></trkpt><trkpt lat="43.4982789711611" lon="10.684108452784145"><ele>153.0</ele><time>2026-04-19T13:35:21.001Z</time></trkpt><trkpt lat="43.4982573355607" lon="10.683993241608052"><ele>153.0</ele><time>2026-04-19T13:35:23.001Z</time></trkpt><trkpt lat="43.498238229294934" lon="10.683863860224875"><ele>153.0</ele><time>2026-04-19T13:35:25.001Z</time></trkpt><trkpt lat="43.49822108211454" lon="10.683704495302313"><ele>153.0</ele><time>2026-04-19T13:35:27.001Z</time></trkpt><trkpt lat="43.49823160353836" lon="10.683618200964734"><ele>153.0</ele><time>2026-04-19T13:35:28.001Z</time></trkpt><trkpt lat="43.4982452156861" lon="10.683531614118062"><ele>153.0</ele><time>2026-04-19T13:35:29.001Z</time></trkpt><trkpt lat="43.4982598047111" lon="10.683440932327663"><ele>153.0</ele><time>2026-04-19T13:35:30.001Z</time></trkpt><trkpt lat="43.49827534491548" lon="10.683352140292737"><ele>153.0</ele><time>2026-04-19T13:35:31.001Z</time></trkpt><trkpt lat="43.498290671807915" lon="10.683226427445314"><ele>152.83333333333334</ele><time>2026-04-19T13:35:33.001Z</time></trkpt><trkpt lat="43.49830444295756" lon="10.683140462875716"><ele>152.66666666666666</ele><time>2026-04-19T13:35:38.001Z</time></trkpt><trkpt lat="43.498319923573355" lon="10.683047117329327"><ele>152.5</ele><time>2026-04-19T13:35:40.001Z</time></trkpt><trkpt lat="43.49833878552447" lon="10.682929242843661"><ele>152.33333333333331</ele><time>2026-04-19T13:35:42.001Z</time></trkpt><trkpt lat="43.498358817512624" lon="10.682799197502344"><ele>152.16666666666666</ele><time>2026-04-19T13:35:44.001Z</time></trkpt><trkpt lat="43.49838128741323" lon="10.68268413969133"><ele>152.0</ele><time>2026-04-19T13:35:46.001Z</time></trkpt><trkpt lat="43.498408616269245" lon="10.682561569112297"><ele>152.79999999999998</ele><time>2026-04-19T13:35:49.002Z</time></trkpt><trkpt lat="43.49844940199784" lon="10.682438575751629"><ele>153.6</ele><time>2026-04-19T13:35:51.002Z</time></trkpt><trkpt lat="43.49849716760779" lon="10.68233094454042"><ele>154.39999999999998</ele><time>2026-04-19T13:35:53.002Z</time></trkpt><trkpt lat="43.498567483659755" lon="10.682267220561613"><ele>155.2</ele><time>2026-04-19T13:35:55.002Z</time></trkpt><trkpt lat="43.49865811095636" lon="10.682171498443406"><ele>156.0</ele><time>2026-04-19T13:35:57.002Z</time></trkpt><trkpt lat="43.49871704900294" lon="10.682136843663399"><ele>154.83333333333334</ele><time>2026-04-19T13:35:58.002Z</time></trkpt><trkpt lat="43.498779516220964" lon="10.682117175937142"><ele>153.66666666666666</ele><time>2026-04-19T13:35:59.002Z</time></trkpt><trkpt lat="43.49884328096831" lon="10.682095828506135"><ele>152.5</ele><time>2026-04-19T13:36:00.002Z</time></trkpt><trkpt lat="43.49890800912276" lon="10.682068016820436"><ele>151.33333333333331</ele><time>2026-04-19T13:36:01.002Z</time></trkpt><trkpt lat="43.49900518387213" lon="10.682034326431076"><ele>150.16666666666666</ele><time>2026-04-19T13:36:03.002Z</time></trkpt><trkpt lat="43.49908205089141" lon="10.682001429855669"><ele>149.0</ele><time>2026-04-19T13:36:06.002Z</time></trkpt><trkpt lat="43.49915064732741" lon="10.681967607168788"><ele>149.0</ele><time>2026-04-19T13:36:09.002Z</time></trkpt><trkpt lat="43.4992121394659" lon="10.681944796465556"><ele>149.0</ele><time>2026-04-19T13:36:11.002Z</time></trkpt><trkpt lat="43.49929641223609" lon="10.681915408128972"><ele>149.0</ele><time>2026-04-19T13:36:14.002Z</time></trkpt><trkpt lat="43.49937818052863" lon="10.68188311934891"><ele>149.0</ele><time>2026-04-19T13:36:17.002Z</time></trkpt><trkpt lat="43.499459612315306" lon="10.681854265274598"><ele>149.0</ele><time>2026-04-19T13:36:20.002Z</time></trkpt><trkpt lat="43.49953914446535" lon="10.681824660470925"><ele>149.0</ele><time>2026-04-19T13:36:24.002Z</time></trkpt><trkpt lat="43.499600838517225" lon="10.68179901073597"><ele>149.66666666666666</ele><time>2026-04-19T13:36:26.002Z</time></trkpt><trkpt lat="43.49968184797359" lon="10.681764577991084"><ele>150.33333333333331</ele><time>2026-04-19T13:36:29.002Z</time></trkpt><trkpt lat="43.499747179720316" lon="10.68173682438701"><ele>151.0</ele><time>2026-04-19T13:36:33.001Z</time></trkpt><trkpt lat="43.49982692021304" lon="10.681707312838915"><ele>151.66666666666666</ele><time>2026-04-19T13:36:37.001Z</time></trkpt><trkpt lat="43.4998976474607" lon="10.681682851322996"><ele>152.33333333333334</ele><time>2026-04-19T13:36:41.001Z</time></trkpt><trkpt lat="43.49996578830352" lon="10.681650745308259"><ele>153.0</ele><time>2026-04-19T13:36:46.001Z</time></trkpt><trkpt lat="43.500033913836894" lon="10.681618822796198"><ele>153.0</ele><time>2026-04-19T13:36:53.001Z</time></trkpt><trkpt lat="43.50009968327926" lon="10.681593751121506"><ele>153.0</ele><time>2026-04-19T13:37:01.001Z</time></trkpt><trkpt lat="43.50016140746181" lon="10.681565341312954"><ele>153.0</ele><time>2026-04-19T13:37:07.001Z</time></trkpt><trkpt lat="43.500231587169836" lon="10.681529156427477"><ele>153.0</ele><time>2026-04-19T13:37:14.001Z</time></trkpt><trkpt lat="43.50033589297332" lon="10.68148430108875"><ele>153.0</ele><time>2026-04-19T13:37:17.001Z</time></trkpt><trkpt lat="43.500448797029435" lon="10.681447211582386"><ele>153.0</ele><time>2026-04-19T13:37:19.001Z</time></trkpt><trkpt lat="43.5005121487256" lon="10.681432300268742"><ele>152.66666666666666</ele><time>2026-04-19T13:37:20.001Z</time></trkpt><trkpt lat="43.50063745227327" lon="10.681405614711174"><ele>152.33333333333334</ele><time>2026-04-19T13:37:22.001Z</time></trkpt><trkpt lat="43.50070703416587" lon="10.681398720795855"><ele>152.0</ele><time>2026-04-19T13:37:23.001Z</time></trkpt><trkpt lat="43.50077513996307" lon="10.681391842796174"><ele>151.66666666666669</ele><time>2026-04-19T13:37:24.001Z</time></trkpt><trkpt lat="43.50083997632529" lon="10.681383256057673"><ele>151.33333333333334</ele><time>2026-04-19T13:37:25.001Z</time></trkpt><trkpt lat="43.50095751854726" lon="10.681366637082755"><ele>151.0</ele><time>2026-04-19T13:37:27.001Z</time></trkpt><trkpt lat="43.501046982923405" lon="10.68134784771018"><ele>151.0</ele><time>2026-04-19T13:37:29.001Z</time></trkpt><trkpt lat="43.50114468942567" lon="10.681336498457794"><ele>151.0</ele><time>2026-04-19T13:37:32.001Z</time></trkpt><trkpt lat="43.50121977394633" lon="10.681323429745635"><ele>151.0</ele><time>2026-04-19T13:37:34.001Z</time></trkpt><trkpt lat="43.50128468700099" lon="10.681284897511162"><ele>151.0</ele><time>2026-04-19T13:37:36.001Z</time></trkpt><trkpt lat="43.50135048609096" lon="10.681252329700492"><ele>151.0</ele><time>2026-04-19T13:37:38.001Z</time></trkpt><trkpt lat="43.50141891175657" lon="10.681205429764614"><ele>151.0</ele><time>2026-04-19T13:37:40.001Z</time></trkpt><trkpt lat="43.50149731947232" lon="10.681148795571529"><ele>150.8</ele><time>2026-04-19T13:37:42.001Z</time></trkpt><trkpt lat="43.50157487781142" lon="10.681079781352718"><ele>150.6</ele><time>2026-04-19T13:37:44.001Z</time></trkpt><trkpt lat="43.50165135623719" lon="10.680996691484234"><ele>150.4</ele><time>2026-04-19T13:37:46.001Z</time></trkpt><trkpt lat="43.50173165477965" lon="10.68090346016051"><ele>150.2</ele><time>2026-04-19T13:37:48.001Z</time></trkpt><trkpt lat="43.50180632140934" lon="10.680809390231891"><ele>150.0</ele><time>2026-04-19T13:37:50.001Z</time></trkpt><trkpt lat="43.50188520974469" lon="10.680706191944012"><ele>150.0</ele><time>2026-04-19T13:37:52.001Z</time></trkpt><trkpt lat="43.50195941076917" lon="10.680603885506951"><ele>150.0</ele><time>2026-04-19T13:37:54.001Z</time></trkpt><trkpt lat="43.502018863116156" lon="10.680519529314807"><ele>150.0</ele><time>2026-04-19T13:37:56.001Z</time></trkpt><trkpt lat="43.502083725397185" lon="10.68043094098896"><ele>150.0</ele><time>2026-04-19T13:37:58.001Z</time></trkpt><trkpt lat="43.50216434093184" lon="10.680324681098423"><ele>150.0</ele><time>2026-04-19T13:38:00.001Z</time></trkpt><trkpt lat="43.50222735407425" lon="10.680243680636796"><ele>149.16666666666666</ele><time>2026-04-19T13:38:02.001Z</time></trkpt><trkpt lat="43.5022769360605" lon="10.680176972314555"><ele>148.33333333333334</ele><time>2026-04-19T13:38:04.002Z</time></trkpt><trkpt lat="43.502357098270515" lon="10.680081578504778"><ele>147.5</ele><time>2026-04-19T13:38:08.002Z</time></trkpt><trkpt lat="43.502442475874425" lon="10.67997926672195"><ele>146.66666666666669</ele><time>2026-04-19T13:38:10.002Z</time></trkpt><trkpt lat="43.502491428467685" lon="10.679924157353138"><ele>145.83333333333334</ele><time>2026-04-19T13:38:11.002Z</time></trkpt><trkpt lat="43.502544002480384" lon="10.679868985912721"><ele>145.0</ele><time>2026-04-19T13:38:12.002Z</time></trkpt><trkpt lat="43.502592600758895" lon="10.679807625357322"><ele>145.0</ele><time>2026-04-19T13:38:13.002Z</time></trkpt><trkpt lat="43.50264401036533" lon="10.679744883841652"><ele>145.0</ele><time>2026-04-19T13:38:14.002Z</time></trkpt><trkpt lat="43.50269712777133" lon="10.679680890092106"><ele>145.0</ele><time>2026-04-19T13:38:15.002Z</time></trkpt><trkpt lat="43.50274328503412" lon="10.679621739271392"><ele>145.0</ele><time>2026-04-19T13:38:16.002Z</time></trkpt><trkpt lat="43.50283848972038" lon="10.679554173945238"><ele>145.0</ele><time>2026-04-19T13:38:18.002Z</time></trkpt><trkpt lat="43.50289966922039" lon="10.67947762296967"><ele>145.0</ele><time>2026-04-19T13:38:20.002Z</time></trkpt><trkpt lat="43.5029879345508" lon="10.67942780339198"><ele>146.83333333333334</ele><time>2026-04-19T13:38:23.002Z</time></trkpt><trkpt lat="43.50306346002184" lon="10.679377811940498"><ele>148.66666666666669</ele><time>2026-04-19T13:38:25.002Z</time></trkpt><trkpt lat="43.50314181945166" lon="10.679332206774843"><ele>150.5</ele><time>2026-04-19T13:38:27.002Z</time></trkpt><trkpt lat="43.503212589374535" lon="10.679292970286657"><ele>152.33333333333334</ele><time>2026-04-19T13:38:29.002Z</time></trkpt><trkpt lat="43.50328395520307" lon="10.67925332390922"><ele>154.16666666666666</ele><time>2026-04-19T13:38:31.002Z</time></trkpt><trkpt lat="43.50334875939625" lon="10.679219083956818"><ele>156.0</ele><time>2026-04-19T13:38:34.002Z</time></trkpt><trkpt lat="43.503411781280334" lon="10.67919497750773"><ele>156.0</ele><time>2026-04-19T13:38:38Z</time></trkpt><trkpt lat="43.503479210006674" lon="10.679179235905103"><ele>156.0</ele><time>2026-04-19T13:38:40Z</time></trkpt><trkpt lat="43.503564149129" lon="10.679189202499664"><ele>156.0</ele><time>2026-04-19T13:38:43Z</time></trkpt><trkpt lat="43.50364288166383" lon="10.679202005944244"><ele>156.0</ele><time>2026-04-19T13:38:45Z</time></trkpt><trkpt lat="43.50372610158295" lon="10.679219402094153"><ele>156.0</ele><time>2026-04-19T13:38:49Z</time></trkpt><trkpt lat="43.503809971136775" lon="10.679238666184077"><ele>156.0</ele><time>2026-04-19T13:38:52Z</time></trkpt><trkpt lat="43.503885739424994" lon="10.679257605176105"><ele>155.71428571428572</ele><time>2026-04-19T13:38:55Z</time></trkpt><trkpt lat="43.50394974175073" lon="10.679281708492784"><ele>155.42857142857142</ele><time>2026-04-19T13:38:57Z</time></trkpt><trkpt lat="43.5040305436973" lon="10.679303290353001"><ele>155.14285714285714</ele><time>2026-04-19T13:39:00Z</time></trkpt><trkpt lat="43.504097033347946" lon="10.679321025996247"><ele>154.85714285714286</ele><time>2026-04-19T13:39:02Z</time></trkpt><trkpt lat="43.50416525790851" lon="10.67934157434411"><ele>154.57142857142856</ele><time>2026-04-19T13:39:04Z</time></trkpt><trkpt lat="43.50423960657959" lon="10.679363487322332"><ele>154.28571428571428</ele><time>2026-04-19T13:39:06Z</time></trkpt><trkpt lat="43.50432288683423" lon="10.679389082970468"><ele>154.0</ele><time>2026-04-19T13:39:08.001Z</time></trkpt><trkpt lat="43.504425636881116" lon="10.679426533906968"><ele>154.0</ele><time>2026-04-19T13:39:10.001Z</time></trkpt><trkpt lat="43.50450321950455" lon="10.679456834209818"><ele>154.0</ele><time>2026-04-19T13:39:12.001Z</time></trkpt><trkpt lat="43.50457520250458" lon="10.679475576993472"><ele>154.0</ele><time>2026-04-19T13:39:16.001Z</time></trkpt><trkpt lat="43.50466435411911" lon="10.679493840548986"><ele>154.0</ele><time>2026-04-19T13:39:20.001Z</time></trkpt><trkpt lat="43.50474267183036" lon="10.679533756837683"><ele>154.0</ele><time>2026-04-19T13:39:23.001Z</time></trkpt><trkpt lat="43.50481368943992" lon="10.679559671212012"><ele>154.0</ele><time>2026-04-19T13:39:26.001Z</time></trkpt><trkpt lat="43.504875043227095" lon="10.679590498957971"><ele>154.0</ele><time>2026-04-19T13:39:28.001Z</time></trkpt><trkpt lat="43.504935014103694" lon="10.679639605952728"><ele>154.0</ele><time>2026-04-19T13:39:30.001Z</time></trkpt><trkpt lat="43.505074271333314" lon="10.67950054413827"><ele>154.0</ele><time>2026-04-19T13:39:34.001Z</time></trkpt><trkpt lat="43.505129759772935" lon="10.679385041997186"><ele>154.0</ele><time>2026-04-19T13:39:36.001Z</time></trkpt><trkpt lat="43.50517968428092" lon="10.679274818360003"><ele>154.0</ele><time>2026-04-19T13:39:38.001Z</time></trkpt><trkpt lat="43.505225847028306" lon="10.679174729909045"><ele>153.5</ele><time>2026-04-19T13:39:40.001Z</time></trkpt><trkpt lat="43.50526817538184" lon="10.679083948494698"><ele>153.0</ele><time>2026-04-19T13:39:42.001Z</time></trkpt><trkpt lat="43.50530368479419" lon="10.679007734832947"><ele>152.5</ele><time>2026-04-19T13:39:44.001Z</time></trkpt><trkpt lat="43.50535141819392" lon="10.678933332345686"><ele>152.0</ele><time>2026-04-19T13:39:50.001Z</time></trkpt><trkpt lat="43.50538837374836" lon="10.678831077796387"><ele>151.5</ele><time>2026-04-19T13:39:54.001Z</time></trkpt><trkpt lat="43.50545546148701" lon="10.678721728767632"><ele>151.0</ele><time>2026-04-19T13:39:56.001Z</time></trkpt><trkpt lat="43.50551905894459" lon="10.678580958540811"><ele>150.57142857142858</ele><time>2026-04-19T13:39:58.001Z</time></trkpt><trkpt lat="43.50554701472716" lon="10.67850319066646"><ele>150.14285714285714</ele><time>2026-04-19T13:39:59.001Z</time></trkpt><trkpt lat="43.505570556274414" lon="10.67841515845074"><ele>149.71428571428572</ele><time>2026-04-19T13:40:00.001Z</time></trkpt><trkpt lat="43.50559339806364" lon="10.67832316384409"><ele>149.28571428571428</ele><time>2026-04-19T13:40:01.001Z</time></trkpt><trkpt lat="43.50561573008434" lon="10.678227666191745"><ele>148.85714285714286</ele><time>2026-04-19T13:40:02.001Z</time></trkpt><trkpt lat="43.50563271281136" lon="10.678129311411226"><ele>148.42857142857144</ele><time>2026-04-19T13:40:03.001Z</time></trkpt><trkpt lat="43.50564381334685" lon="10.678037480368005"><ele>148.0</ele><time>2026-04-19T13:40:04.001Z</time></trkpt><trkpt lat="43.505656739414256" lon="10.677948975992372"><ele>148.0</ele><time>2026-04-19T13:40:05.001Z</time></trkpt><trkpt lat="43.5056691346504" lon="10.677861950286916"><ele>148.0</ele><time>2026-04-19T13:40:06.001Z</time></trkpt><trkpt lat="43.50568213596908" lon="10.677772860790782"><ele>148.0</ele><time>2026-04-19T13:40:07.001Z</time></trkpt><trkpt lat="43.50569676708149" lon="10.677682167719352"><ele>148.0</ele><time>2026-04-19T13:40:08.001Z</time></trkpt><trkpt lat="43.50571343688239" lon="10.677589321803373"><ele>148.0</ele><time>2026-04-19T13:40:09.001Z</time></trkpt><trkpt lat="43.505728208601" lon="10.677495103616561"><ele>148.0</ele><time>2026-04-19T13:40:10.001Z</time></trkpt><trkpt lat="43.50573976619993" lon="10.677401185323815"><ele>148.0</ele><time>2026-04-19T13:40:11.001Z</time></trkpt><trkpt lat="43.505730890919246" lon="10.677304064632343"><ele>148.33333333333334</ele><time>2026-04-19T13:40:12.001Z</time></trkpt><trkpt lat="43.50573753524883" lon="10.677206131386535"><ele>148.66666666666669</ele><time>2026-04-19T13:40:13.001Z</time></trkpt><trkpt lat="43.505711684060635" lon="10.67710850182096"><ele>149.0</ele><time>2026-04-19T13:40:14.001Z</time></trkpt><trkpt lat="43.50570760464241" lon="10.677008490021706"><ele>149.33333333333334</ele><time>2026-04-19T13:40:15.001Z</time></trkpt><trkpt lat="43.50569497690416" lon="10.676915668747"><ele>149.66666666666666</ele><time>2026-04-19T13:40:16.001Z</time></trkpt><trkpt lat="43.50569351083912" lon="10.676788513293692"><ele>150.0</ele><time>2026-04-19T13:40:18.001Z</time></trkpt><trkpt lat="43.50568390080944" lon="10.676678000158397"><ele>150.0</ele><time>2026-04-19T13:40:21.001Z</time></trkpt><trkpt lat="43.50566530780894" lon="10.67654368215814"><ele>150.0</ele><time>2026-04-19T13:40:23.001Z</time></trkpt><trkpt lat="43.50565956804694" lon="10.676374171362394"><ele>150.0</ele><time>2026-04-19T13:40:25.001Z</time></trkpt><trkpt lat="43.50565845026676" lon="10.676281098230247"><ele>150.0</ele><time>2026-04-19T13:40:26.002Z</time></trkpt><trkpt lat="43.50565920647976" lon="10.676183523030646"><ele>150.0</ele><time>2026-04-19T13:40:27.002Z</time></trkpt><trkpt lat="43.505659512748835" lon="10.67608100860492"><ele>150.0</ele><time>2026-04-19T13:40:28.002Z</time></trkpt><trkpt lat="43.50565992737886" lon="10.675978332941046"><ele>150.5</ele><time>2026-04-19T13:40:29.002Z</time></trkpt><trkpt lat="43.50566249253326" lon="10.67587819025274"><ele>151.0</ele><time>2026-04-19T13:40:30.002Z</time></trkpt><trkpt lat="43.50567501911666" lon="10.675740170700058"><ele>151.5</ele><time>2026-04-19T13:40:32.002Z</time></trkpt><trkpt lat="43.50568599085426" lon="10.675638982274315"><ele>152.0</ele><time>2026-04-19T13:40:34.002Z</time></trkpt><trkpt lat="43.50570387858438" lon="10.675516943733527"><ele>152.5</ele><time>2026-04-19T13:40:36.002Z</time></trkpt><trkpt lat="43.505720241769055" lon="10.675408925706911"><ele>153.0</ele><time>2026-04-19T13:40:38.002Z</time></trkpt><trkpt lat="43.50573356752242" lon="10.67530286014275"><ele>153.0</ele><time>2026-04-19T13:40:41.002Z</time></trkpt><trkpt lat="43.50574432724622" lon="10.675143774484669"><ele>153.0</ele><time>2026-04-19T13:40:43.002Z</time></trkpt><trkpt lat="43.505754066598534" lon="10.675047288702961"><ele>153.0</ele><time>2026-04-19T13:40:44Z</time></trkpt><trkpt lat="43.505775389796916" lon="10.674945261837692"><ele>153.0</ele><time>2026-04-19T13:40:45Z</time></trkpt><trkpt lat="43.50577890236097" lon="10.674840588886918"><ele>153.0</ele><time>2026-04-19T13:40:46Z</time></trkpt><trkpt lat="43.5057653360584" lon="10.674737565780035"><ele>153.0</ele><time>2026-04-19T13:40:47Z</time></trkpt><trkpt lat="43.5057696388892" lon="10.674627503098224"><ele>153.0</ele><time>2026-04-19T13:40:48Z</time></trkpt><trkpt lat="43.505770195506685" lon="10.674514119632917"><ele>153.0</ele><time>2026-04-19T13:40:49Z</time></trkpt><trkpt lat="43.50576880266186" lon="10.674405180544387"><ele>153.0</ele><time>2026-04-19T13:40:50Z</time></trkpt><trkpt lat="43.505759722855444" lon="10.674306461053321"><ele>153.0</ele><time>2026-04-19T13:40:51Z</time></trkpt><trkpt lat="43.50573921612404" lon="10.674217401219154"><ele>153.0</ele><time>2026-04-19T13:40:52Z</time></trkpt><trkpt lat="43.505706279938536" lon="10.674134610649501"><ele>153.0</ele><time>2026-04-19T13:40:53Z</time></trkpt><trkpt lat="43.50566521184119" lon="10.67405094209271"><ele>153.0</ele><time>2026-04-19T13:40:54Z</time></trkpt><trkpt lat="43.505621585998085" lon="10.673964534459179"><ele>152.42857142857142</ele><time>2026-04-19T13:40:55Z</time></trkpt><trkpt lat="43.50558827258944" lon="10.673872370763501"><ele>151.85714285714286</ele><time>2026-04-19T13:40:56Z</time></trkpt><trkpt lat="43.505562905537964" lon="10.673777261770404"><ele>151.28571428571428</ele><time>2026-04-19T13:40:57Z</time></trkpt><trkpt lat="43.505561070619436" lon="10.673676894659765"><ele>150.71428571428572</ele><time>2026-04-19T13:40:58Z</time></trkpt><trkpt lat="43.505547979974196" lon="10.673585073996927"><ele>150.14285714285714</ele><time>2026-04-19T13:40:59Z</time></trkpt><trkpt lat="43.505524171107375" lon="10.673490895610435"><ele>149.57142857142856</ele><time>2026-04-19T13:41:00Z</time></trkpt><trkpt lat="43.50551605099131" lon="10.673391643382917"><ele>149.0</ele><time>2026-04-19T13:41:01Z</time></trkpt><trkpt lat="43.50550767447292" lon="10.673287360816031"><ele>148.0</ele><time>2026-04-19T13:41:02Z</time></trkpt><trkpt lat="43.505500580192084" lon="10.673180820177626"><ele>147.0</ele><time>2026-04-19T13:41:03Z</time></trkpt><trkpt lat="43.50549339914354" lon="10.673073088707588"><ele>146.0</ele><time>2026-04-19T13:41:04Z</time></trkpt><trkpt lat="43.50548710826991" lon="10.672960396616812"><ele>145.0</ele><time>2026-04-19T13:41:05Z</time></trkpt><trkpt lat="43.50549030280092" lon="10.672847652879"><ele>144.0</ele><time>2026-04-19T13:41:06Z</time></trkpt><trkpt lat="43.505490807710565" lon="10.672743291661904"><ele>143.0</ele><time>2026-04-19T13:41:07Z</time></trkpt><trkpt lat="43.50549020395131" lon="10.672641082658759"><ele>142.5</ele><time>2026-04-19T13:41:08Z</time></trkpt><trkpt lat="43.50548837686804" lon="10.672540170589585"><ele>142.0</ele><time>2026-04-19T13:41:09Z</time></trkpt><trkpt lat="43.50548652935099" lon="10.67244441660111"><ele>141.5</ele><time>2026-04-19T13:41:10Z</time></trkpt><trkpt lat="43.50548638037457" lon="10.6723513577794"><ele>141.0</ele><time>2026-04-19T13:41:11Z</time></trkpt><trkpt lat="43.505478442545126" lon="10.672262805673515"><ele>140.5</ele><time>2026-04-19T13:41:12Z</time></trkpt><trkpt lat="43.50546170794648" lon="10.672093281187498"><ele>140.0</ele><time>2026-04-19T13:41:14Z</time></trkpt><trkpt lat="43.50545353076129" lon="10.672004555210277"><ele>139.33333333333331</ele><time>2026-04-19T13:41:15Z</time></trkpt><trkpt lat="43.50544498975786" lon="10.671906927233955"><ele>138.66666666666666</ele><time>2026-04-19T13:41:16Z</time></trkpt><trkpt lat="43.50543186681493" lon="10.671806476852653"><ele>138.0</ele><time>2026-04-19T13:41:17Z</time></trkpt><trkpt lat="43.50542043439127" lon="10.671701207235898"><ele>137.33333333333334</ele><time>2026-04-19T13:41:18Z</time></trkpt><trkpt lat="43.50541960095971" lon="10.671591033241317"><ele>136.66666666666669</ele><time>2026-04-19T13:41:19Z</time></trkpt><trkpt lat="43.50540521344262" lon="10.671477592407546"><ele>136.0</ele><time>2026-04-19T13:41:20Z</time></trkpt><trkpt lat="43.505389599757216" lon="10.671364602921685"><ele>135.6</ele><time>2026-04-19T13:41:21Z</time></trkpt><trkpt lat="43.50535909414513" lon="10.671258441664094"><ele>135.2</ele><time>2026-04-19T13:41:22.001Z</time></trkpt><trkpt lat="43.50534930961863" lon="10.671153597815918"><ele>134.8</ele><time>2026-04-19T13:41:23.001Z</time></trkpt><trkpt lat="43.50534692388347" lon="10.67106177168173"><ele>134.4</ele><time>2026-04-19T13:41:24.001Z</time></trkpt><trkpt lat="43.505325746730655" lon="10.670911496973526"><ele>134.0</ele><time>2026-04-19T13:41:26.001Z</time></trkpt><trkpt lat="43.50530085747732" lon="10.670732088461072"><ele>134.0</ele><time>2026-04-19T13:41:28.001Z</time></trkpt><trkpt lat="43.50528791514269" lon="10.670638134726655"><ele>134.0</ele><time>2026-04-19T13:41:29.001Z</time></trkpt><trkpt lat="43.50527375068044" lon="10.670535309078208"><ele>134.0</ele><time>2026-04-19T13:41:30.001Z</time></trkpt><trkpt lat="43.50525890040133" lon="10.670427504801726"><ele>134.0</ele><time>2026-04-19T13:41:31.001Z</time></trkpt><trkpt lat="43.50524384930843" lon="10.67031824273213"><ele>134.0</ele><time>2026-04-19T13:41:32.001Z</time></trkpt><trkpt lat="43.50522874688609" lon="10.670208608053178"><ele>134.0</ele><time>2026-04-19T13:41:33.001Z</time></trkpt><trkpt lat="43.505214234961024" lon="10.670100523653122"><ele>133.57142857142858</ele><time>2026-04-19T13:41:34.001Z</time></trkpt><trkpt lat="43.50520032458808" lon="10.669992550516204"><ele>133.14285714285714</ele><time>2026-04-19T13:41:35.001Z</time></trkpt><trkpt lat="43.50518604163639" lon="10.669879428317556"><ele>132.71428571428572</ele><time>2026-04-19T13:41:36.001Z</time></trkpt><trkpt lat="43.505157297267715" lon="10.669774311791562"><ele>132.28571428571428</ele><time>2026-04-19T13:41:37.001Z</time></trkpt><trkpt lat="43.50515506656897" lon="10.669679442513702"><ele>131.85714285714286</ele><time>2026-04-19T13:41:38.001Z</time></trkpt><trkpt lat="43.5051671917836" lon="10.66958890595588"><ele>131.42857142857144</ele><time>2026-04-19T13:41:39.001Z</time></trkpt><trkpt lat="43.50517534593641" lon="10.669496750846465"><ele>131.0</ele><time>2026-04-19T13:41:40.001Z</time></trkpt><trkpt lat="43.50518578277225" lon="10.669397713771062"><ele>130.5</ele><time>2026-04-19T13:41:41.001Z</time></trkpt><trkpt lat="43.50518719259116" lon="10.669296716818403"><ele>130.0</ele><time>2026-04-19T13:41:42.001Z</time></trkpt><trkpt lat="43.50516957886596" lon="10.669190429574432"><ele>129.5</ele><time>2026-04-19T13:41:43.001Z</time></trkpt><trkpt lat="43.505139072995625" lon="10.669083147230062"><ele>129.0</ele><time>2026-04-19T13:41:44.001Z</time></trkpt><trkpt lat="43.50509806771085" lon="10.668976865739893"><ele>128.5</ele><time>2026-04-19T13:41:45.001Z</time></trkpt><trkpt lat="43.50505516735895" lon="10.66887822965632"><ele>128.0</ele><time>2026-04-19T13:41:46.001Z</time></trkpt><trkpt lat="43.505015564404765" lon="10.66878064631435"><ele>128.0</ele><time>2026-04-19T13:41:47.001Z</time></trkpt><trkpt lat="43.504987071590584" lon="10.668683273535692"><ele>127.99999999999999</ele><time>2026-04-19T13:41:48.001Z</time></trkpt><trkpt lat="43.50497132223448" lon="10.668574501884924"><ele>128.0</ele><time>2026-04-19T13:41:49.001Z</time></trkpt><trkpt lat="43.504963769310706" lon="10.668471562982324"><ele>128.0</ele><time>2026-04-19T13:41:50.001Z</time></trkpt><trkpt lat="43.50495198508261" lon="10.668371804153582"><ele>127.99999999999999</ele><time>2026-04-19T13:41:51.001Z</time></trkpt><trkpt lat="43.504939534996325" lon="10.668274865764026"><ele>128.0</ele><time>2026-04-19T13:41:52.001Z</time></trkpt><trkpt lat="43.50492586927008" lon="10.668182389047146"><ele>128.0</ele><time>2026-04-19T13:41:53.001Z</time></trkpt><trkpt lat="43.50491007383504" lon="10.668090650677154"><ele>127.2</ele><time>2026-04-19T13:41:54.001Z</time></trkpt><trkpt lat="43.504892801171835" lon="10.66799945282013"><ele>126.4</ele><time>2026-04-19T13:41:55.001Z</time></trkpt><trkpt lat="43.50487934505355" lon="10.667909213677047"><ele>125.60000000000001</ele><time>2026-04-19T13:41:56.001Z</time></trkpt><trkpt lat="43.504854377748295" lon="10.667789184060165"><ele>124.80000000000001</ele><time>2026-04-19T13:41:58.001Z</time></trkpt><trkpt lat="43.50485080860143" lon="10.667659694455455"><ele>124.0</ele><time>2026-04-19T13:42:00.001Z</time></trkpt><trkpt lat="43.50480986736669" lon="10.667488336303116"><ele>123.50000000000001</ele><time>2026-04-19T13:42:02.001Z</time></trkpt><trkpt lat="43.50479190670659" lon="10.667397439081826"><ele>123.0</ele><time>2026-04-19T13:42:03.001Z</time></trkpt><trkpt lat="43.50477316738507" lon="10.667312211751454"><ele>122.5</ele><time>2026-04-19T13:42:04.001Z</time></trkpt><trkpt lat="43.50475617673761" lon="10.667226025499827"><ele>122.0</ele><time>2026-04-19T13:42:05.001Z</time></trkpt><trkpt lat="43.50472846697983" lon="10.667057860009743"><ele>121.50000000000001</ele><time>2026-04-19T13:42:07.001Z</time></trkpt><trkpt lat="43.504716072335945" lon="10.666968357588813"><ele>121.0</ele><time>2026-04-19T13:42:08.001Z</time></trkpt><trkpt lat="43.504708351968226" lon="10.666874567318967"><ele>120.00000000000001</ele><time>2026-04-19T13:42:09.001Z</time></trkpt><trkpt lat="43.504706758972354" lon="10.666716339051396"><ele>119.0</ele><time>2026-04-19T13:42:11.001Z</time></trkpt><trkpt lat="43.504748366101346" lon="10.666586343119212"><ele>118.0</ele><time>2026-04-19T13:42:13.001Z</time></trkpt><trkpt lat="43.50480139893003" lon="10.666522266491695"><ele>117.0</ele><time>2026-04-19T13:42:14.001Z</time></trkpt><trkpt lat="43.50486222580498" lon="10.666467611808514"><ele>116.00000000000001</ele><time>2026-04-19T13:42:15.001Z</time></trkpt><trkpt lat="43.504914668396616" lon="10.666407104530675"><ele>115.0</ele><time>2026-04-19T13:42:16.001Z</time></trkpt><trkpt lat="43.50495272191287" lon="10.666332487715643"><ele>115.00000000000001</ele><time>2026-04-19T13:42:17.001Z</time></trkpt><trkpt lat="43.504978866931864" lon="10.666242558221905"><ele>115.0</ele><time>2026-04-19T13:42:18.001Z</time></trkpt><trkpt lat="43.504994059229944" lon="10.666084952886834"><ele>115.0</ele><time>2026-04-19T13:42:20.001Z</time></trkpt><trkpt lat="43.50500406208895" lon="10.665990926331558"><ele>115.0</ele><time>2026-04-19T13:42:21.001Z</time></trkpt><trkpt lat="43.50501849832014" lon="10.665897930736936"><ele>115.00000000000001</ele><time>2026-04-19T13:42:22.001Z</time></trkpt><trkpt lat="43.505041495863" lon="10.665806570439205"><ele>115.0</ele><time>2026-04-19T13:42:23.001Z</time></trkpt><trkpt lat="43.505052100918405" lon="10.665718860830387"><ele>113.99999999999999</ele><time>2026-04-19T13:42:24.001Z</time></trkpt><trkpt lat="43.505062699206874" lon="10.665630331168847"><ele>113.0</ele><time>2026-04-19T13:42:25.001Z</time></trkpt><trkpt lat="43.50505852485286" lon="10.665535793808221"><ele>112.0</ele><time>2026-04-19T13:42:26.001Z</time></trkpt><trkpt lat="43.50506946873169" lon="10.66544311919374"><ele>111.0</ele><time>2026-04-19T13:42:27.001Z</time></trkpt><trkpt lat="43.50507718039585" lon="10.665351680150005"><ele>110.0</ele><time>2026-04-19T13:42:28.001Z</time></trkpt><trkpt lat="43.50508244901657" lon="10.66525702960838"><ele>109.0</ele><time>2026-04-19T13:42:29.001Z</time></trkpt><trkpt lat="43.5050812785539" lon="10.665159157738628"><ele>108.0</ele><time>2026-04-19T13:42:30.001Z</time></trkpt><trkpt lat="43.50507317434396" lon="10.665062950893494"><ele>106.71428571428571</ele><time>2026-04-19T13:42:31.001Z</time></trkpt><trkpt lat="43.50505526753646" lon="10.664965833210427"><ele>105.42857142857142</ele><time>2026-04-19T13:42:32.001Z</time></trkpt><trkpt lat="43.50503826314894" lon="10.664864697799539"><ele>104.14285714285714</ele><time>2026-04-19T13:42:33.001Z</time></trkpt><trkpt lat="43.50502133462137" lon="10.664776922310583"><ele>102.85714285714286</ele><time>2026-04-19T13:42:34.002Z</time></trkpt><trkpt lat="43.50500790379609" lon="10.664676860393508"><ele>101.57142857142857</ele><time>2026-04-19T13:42:35.002Z</time></trkpt><trkpt lat="43.5049901422311" lon="10.664578242066769"><ele>100.28571428571429</ele><time>2026-04-19T13:42:36.002Z</time></trkpt><trkpt lat="43.504974670737056" lon="10.664487714579248"><ele>99.0</ele><time>2026-04-19T13:42:37.002Z</time></trkpt><trkpt lat="43.5049453080103" lon="10.664317587947176"><ele>98.0</ele><time>2026-04-19T13:42:39.002Z</time></trkpt><trkpt lat="43.50492488777024" lon="10.664227190397439"><ele>97.0</ele><time>2026-04-19T13:42:40.002Z</time></trkpt><trkpt lat="43.504912635179956" lon="10.66414001193235"><ele>96.0</ele><time>2026-04-19T13:42:41.002Z</time></trkpt><trkpt lat="43.5049002512773" lon="10.664052528333816"><ele>95.0</ele><time>2026-04-19T13:42:42.002Z</time></trkpt><trkpt lat="43.504891006853406" lon="10.663965170823651"><ele>94.0</ele><time>2026-04-19T13:42:43.002Z</time></trkpt><trkpt lat="43.504882464430324" lon="10.66387280307828"><ele>93.0</ele><time>2026-04-19T13:42:44.002Z</time></trkpt><trkpt lat="43.50487569136274" lon="10.66377472643286"><ele>92.0</ele><time>2026-04-19T13:42:45.002Z</time></trkpt><trkpt lat="43.50486716544826" lon="10.66367837700613"><ele>90.6</ele><time>2026-04-19T13:42:46.002Z</time></trkpt><trkpt lat="43.504862100833876" lon="10.663582661756783"><ele>89.19999999999999</ele><time>2026-04-19T13:42:47.002Z</time></trkpt><trkpt lat="43.50486271295804" lon="10.663433720150554"><ele>87.8</ele><time>2026-04-19T13:42:49.002Z</time></trkpt><trkpt lat="43.50488321406897" lon="10.663298860769322"><ele>86.4</ele><time>2026-04-19T13:42:51Z</time></trkpt><trkpt lat="43.504929230686095" lon="10.663187495703626"><ele>85.0</ele><time>2026-04-19T13:42:53Z</time></trkpt><trkpt lat="43.50495581145724" lon="10.6630430446848"><ele>85.0</ele><time>2026-04-19T13:42:55Z</time></trkpt><trkpt lat="43.504976378886866" lon="10.662907302732192"><ele>85.0</ele><time>2026-04-19T13:42:57Z</time></trkpt><trkpt lat="43.504995816025065" lon="10.66275960398754"><ele>85.0</ele><time>2026-04-19T13:42:59Z</time></trkpt><trkpt lat="43.504996917390386" lon="10.662576550655961"><ele>85.0</ele><time>2026-04-19T13:43:01Z</time></trkpt><trkpt lat="43.505004944381426" lon="10.662462970992143"><ele>85.0</ele><time>2026-04-19T13:43:02Z</time></trkpt><trkpt lat="43.505015025678524" lon="10.66234225867112"><ele>84.0</ele><time>2026-04-19T13:43:03Z</time></trkpt><trkpt lat="43.505022399580504" lon="10.662216201661474"><ele>83.0</ele><time>2026-04-19T13:43:04Z</time></trkpt><trkpt lat="43.505026633740464" lon="10.662085779470928"><ele>82.0</ele><time>2026-04-19T13:43:05Z</time></trkpt><trkpt lat="43.50503020884497" lon="10.6619536981558"><ele>81.0</ele><time>2026-04-19T13:43:05.999Z</time></trkpt><trkpt lat="43.505034414884925" lon="10.661851854737165"><ele>80.0</ele><time>2026-04-19T13:43:06.999Z</time></trkpt><trkpt lat="43.50503816682408" lon="10.661694543731187"><ele>80.0</ele><time>2026-04-19T13:43:08.999Z</time></trkpt><trkpt lat="43.50504190474985" lon="10.661520050732031"><ele>80.0</ele><time>2026-04-19T13:43:10.999Z</time></trkpt><trkpt lat="43.50502884472958" lon="10.661420998110449"><ele>80.0</ele><time>2026-04-19T13:43:11.999Z</time></trkpt><trkpt lat="43.50500453484217" lon="10.661321506606823"><ele>80.0</ele><time>2026-04-19T13:43:12.999Z</time></trkpt><trkpt lat="43.5049921839918" lon="10.66121082289329"><ele>80.0</ele><time>2026-04-19T13:43:13.999Z</time></trkpt><trkpt lat="43.50495683902952" lon="10.661106776930545"><ele>80.0</ele><time>2026-04-19T13:43:14.999Z</time></trkpt><trkpt lat="43.50494795477615" lon="10.660988348355387"><ele>80.0</ele><time>2026-04-19T13:43:15.999Z</time></trkpt><trkpt lat="43.50493942226822" lon="10.660872558050764"><ele>80.0</ele><time>2026-04-19T13:43:16.999Z</time></trkpt><trkpt lat="43.50492936598899" lon="10.66076504470546"><ele>80.0</ele><time>2026-04-19T13:43:17.999Z</time></trkpt><trkpt lat="43.50491839385321" lon="10.660664660662635"><ele>80.0</ele><time>2026-04-19T13:43:18.999Z</time></trkpt><trkpt lat="43.50490311251559" lon="10.660576654939327"><ele>80.0</ele><time>2026-04-19T13:43:19.999Z</time></trkpt><trkpt lat="43.50489266771459" lon="10.660480773998843"><ele>80.0</ele><time>2026-04-19T13:43:21.999Z</time></trkpt><trkpt lat="43.50488246921532" lon="10.660372420692099"><ele>80.0</ele><time>2026-04-19T13:43:33Z</time></trkpt><trkpt lat="43.5048892455839" lon="10.660279254940754"><ele>80.0</ele><time>2026-04-19T13:43:37Z</time></trkpt><trkpt lat="43.504991705259464" lon="10.660252354347412"><ele>80.0</ele><time>2026-04-19T13:43:40Z</time></trkpt><trkpt lat="43.505064301294155" lon="10.660261792906812"><ele>80.0</ele><time>2026-04-19T13:43:41Z</time></trkpt><trkpt lat="43.50514120407472" lon="10.660270159828677"><ele>80.0</ele><time>2026-04-19T13:43:42Z</time></trkpt><trkpt lat="43.50523051877456" lon="10.660276325032891"><ele>80.0</ele><time>2026-04-19T13:43:43Z</time></trkpt><trkpt lat="43.50533235488285" lon="10.660283998157562"><ele>80.0</ele><time>2026-04-19T13:43:44Z</time></trkpt><trkpt lat="43.50544790256152" lon="10.660290699541841"><ele>80.0</ele><time>2026-04-19T13:43:45Z</time></trkpt><trkpt lat="43.505572353043874" lon="10.660298695677778"><ele>80.0</ele><time>2026-04-19T13:43:46Z</time></trkpt><trkpt lat="43.50570438032881" lon="10.660296756176203"><ele>80.0</ele><time>2026-04-19T13:43:47Z</time></trkpt><trkpt lat="43.505840187704564" lon="10.66026614278625"><ele>80.0</ele><time>2026-04-19T13:43:48Z</time></trkpt><trkpt lat="43.50597666450815" lon="10.660200842730573"><ele>80.0</ele><time>2026-04-19T13:43:49Z</time></trkpt><trkpt lat="43.50610539638887" lon="10.660103632538249"><ele>80.0</ele><time>2026-04-19T13:43:50Z</time></trkpt><trkpt lat="43.50621771416858" lon="10.6599699097024"><ele>80.0</ele><time>2026-04-19T13:43:51Z</time></trkpt><trkpt lat="43.506316064595154" lon="10.659814939582342"><ele>78.66666666666667</ele><time>2026-04-19T13:43:52Z</time></trkpt><trkpt lat="43.50641283355709" lon="10.659657500299357"><ele>77.33333333333333</ele><time>2026-04-19T13:43:53Z</time></trkpt><trkpt lat="43.50651220211851" lon="10.659499630735914"><ele>76.0</ele><time>2026-04-19T13:43:54Z</time></trkpt><trkpt lat="43.50661360263918" lon="10.659342256051348"><ele>76.0</ele><time>2026-04-19T13:43:55Z</time></trkpt><trkpt lat="43.50672197638605" lon="10.659191252248338"><ele>76.0</ele><time>2026-04-19T13:43:56Z</time></trkpt><trkpt lat="43.50696460213728" lon="10.65892212574788"><ele>76.0</ele><time>2026-04-19T13:43:58Z</time></trkpt><trkpt lat="43.50709634573376" lon="10.658806092242525"><ele>76.0</ele><time>2026-04-19T13:43:59Z</time></trkpt><trkpt lat="43.5072308182578" lon="10.658693478246935"><ele>76.0</ele><time>2026-04-19T13:44:00Z</time></trkpt><trkpt lat="43.50736407540213" lon="10.658575334340547"><ele>76.0</ele><time>2026-04-19T13:44:01Z</time></trkpt><trkpt lat="43.50750222356152" lon="10.658453267864749"><ele>76.0</ele><time>2026-04-19T13:44:02Z</time></trkpt><trkpt lat="43.50764383295738" lon="10.658329171613959"><ele>76.0</ele><time>2026-04-19T13:44:03Z</time></trkpt><trkpt lat="43.507785422370716" lon="10.658201441803339"><ele>76.0</ele><time>2026-04-19T13:44:04Z</time></trkpt><trkpt lat="43.50792900524088" lon="10.658071094332572"><ele>76.0</ele><time>2026-04-19T13:44:05Z</time></trkpt><trkpt lat="43.50807419696169" lon="10.6579382685424"><ele>76.0</ele><time>2026-04-19T13:44:06Z</time></trkpt><trkpt lat="43.50822171968381" lon="10.65780466603671"><ele>76.0</ele><time>2026-04-19T13:44:07Z</time></trkpt><trkpt lat="43.508370724596666" lon="10.657670522225418"><ele>76.0</ele><time>2026-04-19T13:44:08Z</time></trkpt><trkpt lat="43.508521353014984" lon="10.657537038580662"><ele>76.0</ele><time>2026-04-19T13:44:09Z</time></trkpt><trkpt lat="43.50867085352992" lon="10.657406129825597"><ele>76.0</ele><time>2026-04-19T13:44:10Z</time></trkpt><trkpt lat="43.508816607887795" lon="10.657277764339776"><ele>76.0</ele><time>2026-04-19T13:44:11Z</time></trkpt><trkpt lat="43.508966332918504" lon="10.657166332565406"><ele>76.0</ele><time>2026-04-19T13:44:12Z</time></trkpt><trkpt lat="43.509118659157345" lon="10.657081012705024"><ele>76.0</ele><time>2026-04-19T13:44:13Z</time></trkpt><trkpt lat="43.50926355493495" lon="10.657022444551737"><ele>76.0</ele><time>2026-04-19T13:44:14Z</time></trkpt><trkpt lat="43.50939837787217" lon="10.656980488969038"><ele>76.0</ele><time>2026-04-19T13:44:15Z</time></trkpt><trkpt lat="43.50960832875217" lon="10.656926475116693"><ele>76.0</ele><time>2026-04-19T13:44:17Z</time></trkpt><trkpt lat="43.509677086183146" lon="10.656910242676117"><ele>76.0</ele><time>2026-04-19T13:44:18Z</time></trkpt><trkpt lat="43.50963473630561" lon="10.656718330767355"><ele>76.0</ele><time>2026-04-19T13:44:22Z</time></trkpt><trkpt lat="43.509559297481246" lon="10.656682678283339"><ele>76.0</ele><time>2026-04-19T13:44:23Z</time></trkpt><trkpt lat="43.50948597567282" lon="10.656650577419555"><ele>76.0</ele><time>2026-04-19T13:44:24Z</time></trkpt><trkpt lat="43.509401901755965" lon="10.656619038377766"><ele>76.33333333333333</ele><time>2026-04-19T13:44:25Z</time></trkpt><trkpt lat="43.509318849029405" lon="10.656584392328496"><ele>76.66666666666666</ele><time>2026-04-19T13:44:26Z</time></trkpt><trkpt lat="43.5092429238183" lon="10.656539871829175"><ele>77.0</ele><time>2026-04-19T13:44:27Z</time></trkpt><trkpt lat="43.509168841934844" lon="10.65649058554697"><ele>77.33333333333333</ele><time>2026-04-19T13:44:28Z</time></trkpt><trkpt lat="43.50912543565925" lon="10.656396335522711"><ele>77.66666666666667</ele><time>2026-04-19T13:44:29Z</time></trkpt><trkpt lat="43.50910512874021" lon="10.656282648956747"><ele>78.0</ele><time>2026-04-19T13:44:30Z</time></trkpt><trkpt lat="43.509091163809714" lon="10.656171744661231"><ele>79.33333333333333</ele><time>2026-04-19T13:44:31Z</time></trkpt><trkpt lat="43.50907262168158" lon="10.65605664401575"><ele>80.66666666666667</ele><time>2026-04-19T13:44:32.001Z</time></trkpt><trkpt lat="43.509048942524316" lon="10.655948450668198"><ele>82.0</ele><time>2026-04-19T13:44:33.001Z</time></trkpt><trkpt lat="43.509019004083534" lon="10.655842963555807"><ele>83.33333333333334</ele><time>2026-04-19T13:44:34.001Z</time></trkpt><trkpt lat="43.50898572982311" lon="10.655735918750239"><ele>84.66666666666667</ele><time>2026-04-19T13:44:35.001Z</time></trkpt><trkpt lat="43.50893969121824" lon="10.655636595771309"><ele>86.0</ele><time>2026-04-19T13:44:36.001Z</time></trkpt><trkpt lat="43.50888354102816" lon="10.655545009701049"><ele>86.0</ele><time>2026-04-19T13:44:37.001Z</time></trkpt><trkpt lat="43.50882319579468" lon="10.65545154385282"><ele>86.0</ele><time>2026-04-19T13:44:38.001Z</time></trkpt><trkpt lat="43.50875707995787" lon="10.655356601704177"><ele>86.0</ele><time>2026-04-19T13:44:39.001Z</time></trkpt><trkpt lat="43.508683421111485" lon="10.655264968889673"><ele>86.0</ele><time>2026-04-19T13:44:40.001Z</time></trkpt><trkpt lat="43.508617511592796" lon="10.655168961725291"><ele>86.0</ele><time>2026-04-19T13:44:41.001Z</time></trkpt><trkpt lat="43.50856069663944" lon="10.655077706169086"><ele>88.19999999999999</ele><time>2026-04-19T13:44:42.001Z</time></trkpt><trkpt lat="43.5085050509726" lon="10.654992279448733"><ele>90.39999999999999</ele><time>2026-04-19T13:44:43.001Z</time></trkpt><trkpt lat="43.508440852093756" lon="10.654904615087291"><ele>92.6</ele><time>2026-04-19T13:44:44.001Z</time></trkpt><trkpt lat="43.508372886290516" lon="10.654815617467525"><ele>94.8</ele><time>2026-04-19T13:44:45.001Z</time></trkpt><trkpt lat="43.50829325213606" lon="10.654740639332134"><ele>97.0</ele><time>2026-04-19T13:44:46.001Z</time></trkpt><trkpt lat="43.50819728854112" lon="10.654691324631786"><ele>97.0</ele><time>2026-04-19T13:44:47.001Z</time></trkpt><trkpt lat="43.50809940107604" lon="10.654633331956303"><ele>97.0</ele><time>2026-04-19T13:44:48.001Z</time></trkpt><trkpt lat="43.507995418279776" lon="10.65458788001154"><ele>97.0</ele><time>2026-04-19T13:44:49.001Z</time></trkpt><trkpt lat="43.50788484023205" lon="10.65455820949916"><ele>97.0</ele><time>2026-04-19T13:44:50.001Z</time></trkpt><trkpt lat="43.50777643187376" lon="10.654515871153027"><ele>97.0</ele><time>2026-04-19T13:44:51.001Z</time></trkpt><trkpt lat="43.507668793294656" lon="10.654460306940484"><ele>98.5</ele><time>2026-04-19T13:44:52.001Z</time></trkpt><trkpt lat="43.50755938302988" lon="10.654401375562152"><ele>100.0</ele><time>2026-04-19T13:44:53.001Z</time></trkpt><trkpt lat="43.50745208352576" lon="10.65432086614611"><ele>101.5</ele><time>2026-04-19T13:44:54.001Z</time></trkpt><trkpt lat="43.50734656685346" lon="10.654229253597116"><ele>103.0</ele><time>2026-04-19T13:44:55.001Z</time></trkpt><trkpt lat="43.507241148454085" lon="10.654126402693459"><ele>103.0</ele><time>2026-04-19T13:44:55.998Z</time></trkpt><trkpt lat="43.50713238188399" lon="10.654021357175738"><ele>103.0</ele><time>2026-04-19T13:44:56.998Z</time></trkpt><trkpt lat="43.507027651400485" lon="10.653921907496903"><ele>103.0</ele><time>2026-04-19T13:44:57.998Z</time></trkpt><trkpt lat="43.50692703217632" lon="10.653806619207977"><ele>103.0</ele><time>2026-04-19T13:44:58.998Z</time></trkpt><trkpt lat="43.50682991798931" lon="10.653683372237866"><ele>104.0</ele><time>2026-04-19T13:44:59.998Z</time></trkpt><trkpt lat="43.50673655592464" lon="10.653549773349821"><ele>105.0</ele><time>2026-04-19T13:45:00.999Z</time></trkpt><trkpt lat="43.50664169236161" lon="10.653413707388097"><ele>106.0</ele><time>2026-04-19T13:45:01.999Z</time></trkpt><trkpt lat="43.506551830476376" lon="10.653302817759243"><ele>107.0</ele><time>2026-04-19T13:45:02.999Z</time></trkpt><trkpt lat="43.50647905845352" lon="10.653217298466108"><ele>107.0</ele><time>2026-04-19T13:45:03.999Z</time></trkpt><trkpt lat="43.50639330492404" lon="10.653093959775617"><ele>107.0</ele><time>2026-04-19T13:45:04.999Z</time></trkpt><trkpt lat="43.50631609631242" lon="10.652967033576678"><ele>107.0</ele><time>2026-04-19T13:45:05.999Z</time></trkpt><trkpt lat="43.50624710147023" lon="10.652824257759006"><ele>107.0</ele><time>2026-04-19T13:45:06.999Z</time></trkpt><trkpt lat="43.50618448132699" lon="10.652678984484359"><ele>106.75</ele><time>2026-04-19T13:45:07.999Z</time></trkpt><trkpt lat="43.50611715885312" lon="10.65254341603715"><ele>106.5</ele><time>2026-04-19T13:45:08.999Z</time></trkpt><trkpt lat="43.506065211287826" lon="10.65239461309177"><ele>106.25</ele><time>2026-04-19T13:45:09.999Z</time></trkpt><trkpt lat="43.50600501950861" lon="10.652254049388999"><ele>106.0</ele><time>2026-04-19T13:45:10.999Z</time></trkpt><trkpt lat="43.50594686419359" lon="10.652110591990775"><ele>106.0</ele><time>2026-04-19T13:45:11.999Z</time></trkpt><trkpt lat="43.50588640805458" lon="10.651972753873872"><ele>106.0</ele><time>2026-04-19T13:45:12.999Z</time></trkpt><trkpt lat="43.505825744494594" lon="10.651833399724005"><ele>106.0</ele><time>2026-04-19T13:45:13.999Z</time></trkpt><trkpt lat="43.50576640495438" lon="10.651698892724632"><ele>106.0</ele><time>2026-04-19T13:45:14.999Z</time></trkpt><trkpt lat="43.5057073359807" lon="10.651561463470998"><ele>106.5</ele><time>2026-04-19T13:45:15.999Z</time></trkpt><trkpt lat="43.50565003968651" lon="10.651425216172377"><ele>107.0</ele><time>2026-04-19T13:45:16.999Z</time></trkpt><trkpt lat="43.50558918398584" lon="10.651297626926825"><ele>107.5</ele><time>2026-04-19T13:45:17.999Z</time></trkpt><trkpt lat="43.50552791596001" lon="10.651168226193198"><ele>108.0</ele><time>2026-04-19T13:45:18.999Z</time></trkpt><trkpt lat="43.50546238697839" lon="10.65104182424004"><ele>108.0</ele><time>2026-04-19T13:45:19.999Z</time></trkpt><trkpt lat="43.50539494736942" lon="10.650913728902825"><ele>108.0</ele><time>2026-04-19T13:45:20.999Z</time></trkpt><trkpt lat="43.505319662181606" lon="10.650777569087218"><ele>108.0</ele><time>2026-04-19T13:45:21.999Z</time></trkpt><trkpt lat="43.505251514615026" lon="10.650640555695512"><ele>108.0</ele><time>2026-04-19T13:45:22.999Z</time></trkpt><trkpt lat="43.50518701769471" lon="10.650507250650255"><ele>108.0</ele><time>2026-04-19T13:45:23.999Z</time></trkpt><trkpt lat="43.50513634057265" lon="10.650370714967359"><ele>108.00000000000001</ele><time>2026-04-19T13:45:24.999Z</time></trkpt><trkpt lat="43.505086140651706" lon="10.650232121610376"><ele>108.00000000000001</ele><time>2026-04-19T13:45:25.999Z</time></trkpt><trkpt lat="43.50504559649605" lon="10.650085300175034"><ele>108.0</ele><time>2026-04-19T13:45:26.999Z</time></trkpt><trkpt lat="43.50502297094172" lon="10.649934166424437"><ele>108.0</ele><time>2026-04-19T13:45:27.999Z</time></trkpt><trkpt lat="43.50501136598645" lon="10.64977602098423"><ele>108.25</ele><time>2026-04-19T13:45:28.999Z</time></trkpt><trkpt lat="43.50500274260036" lon="10.64961897882412"><ele>108.5</ele><time>2026-04-19T13:45:29.999Z</time></trkpt><trkpt lat="43.50499680636274" lon="10.649453429824023"><ele>108.75</ele><time>2026-04-19T13:45:30.999Z</time></trkpt><trkpt lat="43.50499167991142" lon="10.649288159278905"><ele>109.0</ele><time>2026-04-19T13:45:31.999Z</time></trkpt><trkpt lat="43.504988806438455" lon="10.649124303466058"><ele>109.75</ele><time>2026-04-19T13:45:32.999Z</time></trkpt><trkpt lat="43.504982901847825" lon="10.648962547285846"><ele>110.5</ele><time>2026-04-19T13:45:33.999Z</time></trkpt><trkpt lat="43.50496496536491" lon="10.64880687518551"><ele>111.25</ele><time>2026-04-19T13:45:34.999Z</time></trkpt><trkpt lat="43.5049113901753" lon="10.648664922495135"><ele>112.0</ele><time>2026-04-19T13:45:35.999Z</time></trkpt><trkpt lat="43.504852738978876" lon="10.648542469451652"><ele>112.75</ele><time>2026-04-19T13:45:36.999Z</time></trkpt><trkpt lat="43.504798866143574" lon="10.648396532920351"><ele>113.5</ele><time>2026-04-19T13:45:37.999Z</time></trkpt><trkpt lat="43.504741026050105" lon="10.648265537694211"><ele>114.25</ele><time>2026-04-19T13:45:38.999Z</time></trkpt><trkpt lat="43.50468386493604" lon="10.648129361255585"><ele>115.0</ele><time>2026-04-19T13:45:39.999Z</time></trkpt><trkpt lat="43.50462435422134" lon="10.647991527598855"><ele>115.0</ele><time>2026-04-19T13:45:40.999Z</time></trkpt><trkpt lat="43.504562898301906" lon="10.647857072085092"><ele>115.0</ele><time>2026-04-19T13:45:42Z</time></trkpt><trkpt lat="43.50449080392651" lon="10.64774088618205"><ele>115.0</ele><time>2026-04-19T13:45:43Z</time></trkpt><trkpt lat="43.50443927152246" lon="10.647611372795005"><ele>115.0</ele><time>2026-04-19T13:45:44Z</time></trkpt><trkpt lat="43.5043871483745" lon="10.647485234302891"><ele>115.0</ele><time>2026-04-19T13:45:45Z</time></trkpt><trkpt lat="43.50433822501012" lon="10.647367355397295"><ele>115.00000000000001</ele><time>2026-04-19T13:45:46Z</time></trkpt><trkpt lat="43.50429882086573" lon="10.647257907087987"><ele>115.0</ele><time>2026-04-19T13:45:47Z</time></trkpt><trkpt lat="43.50425775906619" lon="10.647155939709357"><ele>115.0</ele><time>2026-04-19T13:45:48Z</time></trkpt><trkpt lat="43.50421933944144" lon="10.64705207002201"><ele>115.0</ele><time>2026-04-19T13:45:49Z</time></trkpt><trkpt lat="43.504182002267726" lon="10.646950242652714"><ele>115.00000000000001</ele><time>2026-04-19T13:45:50Z</time></trkpt><trkpt lat="43.50414508810782" lon="10.646856443459255"><ele>115.0</ele><time>2026-04-19T13:45:51Z</time></trkpt><trkpt lat="43.50410896227221" lon="10.646754330394753"><ele>116.4</ele><time>2026-04-19T13:45:52Z</time></trkpt><trkpt lat="43.504069028785196" lon="10.646646114112997"><ele>117.8</ele><time>2026-04-19T13:45:53Z</time></trkpt><trkpt lat="43.50402731381585" lon="10.646534642259095"><ele>119.19999999999999</ele><time>2026-04-19T13:45:54Z</time></trkpt><trkpt lat="43.503990209981325" lon="10.646422922263033"><ele>120.6</ele><time>2026-04-19T13:45:55Z</time></trkpt><trkpt lat="43.50397653368536" lon="10.646293639198884"><ele>122.0</ele><time>2026-04-19T13:45:56Z</time></trkpt><trkpt lat="43.50393205208143" lon="10.646180020030267"><ele>123.0</ele><time>2026-04-19T13:45:57Z</time></trkpt><trkpt lat="43.50383820456046" lon="10.646119485644064"><ele>123.99999999999999</ele><time>2026-04-19T13:45:58Z</time></trkpt><trkpt lat="43.503757052116384" lon="10.646056146455322"><ele>124.99999999999999</ele><time>2026-04-19T13:45:59Z</time></trkpt><trkpt lat="43.50368168149101" lon="10.645966442508895"><ele>126.0</ele><time>2026-04-19T13:46:00Z</time></trkpt><trkpt lat="43.50359408511733" lon="10.64589177100451"><ele>127.0</ele><time>2026-04-19T13:46:01Z</time></trkpt><trkpt lat="43.50349397437512" lon="10.64582933267628"><ele>127.39999999999999</ele><time>2026-04-19T13:46:02Z</time></trkpt><trkpt lat="43.503402868205136" lon="10.645748490355567"><ele>127.79999999999998</ele><time>2026-04-19T13:46:03Z</time></trkpt><trkpt lat="43.50332984201414" lon="10.645655914954355"><ele>128.2</ele><time>2026-04-19T13:46:04Z</time></trkpt><trkpt lat="43.50327731539308" lon="10.645554816488994"><ele>128.6</ele><time>2026-04-19T13:46:05Z</time></trkpt><trkpt lat="43.50324118132188" lon="10.64543581460868"><ele>129.0</ele><time>2026-04-19T13:46:06Z</time></trkpt><trkpt lat="43.50323857309985" lon="10.645296358701668"><ele>129.4</ele><time>2026-04-19T13:46:07Z</time></trkpt><trkpt lat="43.50322752522337" lon="10.645154918903392"><ele>129.8</ele><time>2026-04-19T13:46:08Z</time></trkpt><trkpt lat="43.503216752321855" lon="10.645009833889256"><ele>130.2</ele><time>2026-04-19T13:46:09Z</time></trkpt><trkpt lat="43.503204877434875" lon="10.644862703690293"><ele>130.6</ele><time>2026-04-19T13:46:10Z</time></trkpt><trkpt lat="43.503176817858886" lon="10.64471530414259"><ele>131.0</ele><time>2026-04-19T13:46:11Z</time></trkpt><trkpt lat="43.503164518146065" lon="10.644559793385758"><ele>131.0</ele><time>2026-04-19T13:46:12Z</time></trkpt><trkpt lat="43.50315086312672" lon="10.644402710812798"><ele>131.0</ele><time>2026-04-19T13:46:13Z</time></trkpt><trkpt lat="43.5031337982857" lon="10.644254412986228"><ele>131.0</ele><time>2026-04-19T13:46:14Z</time></trkpt><trkpt lat="43.50312533273732" lon="10.644109211990772"><ele>131.0</ele><time>2026-04-19T13:46:15Z</time></trkpt><trkpt lat="43.503106453203046" lon="10.643964940331166"><ele>131.0</ele><time>2026-04-19T13:46:16Z</time></trkpt><trkpt lat="43.50306669985258" lon="10.643817710941091"><ele>131.0</ele><time>2026-04-19T13:46:17Z</time></trkpt><trkpt lat="43.50301893678579" lon="10.643668185606467"><ele>131.0</ele><time>2026-04-19T13:46:18Z</time></trkpt><trkpt lat="43.5029669362996" lon="10.643516024327067"><ele>131.0</ele><time>2026-04-19T13:46:19Z</time></trkpt><trkpt lat="43.50290887552436" lon="10.643365425246458"><ele>131.0</ele><time>2026-04-19T13:46:20Z</time></trkpt><trkpt lat="43.50286574181612" lon="10.643202257305237"><ele>131.5</ele><time>2026-04-19T13:46:21Z</time></trkpt><trkpt lat="43.50280131036121" lon="10.64305074660871"><ele>132.0</ele><time>2026-04-19T13:46:22Z</time></trkpt><trkpt lat="43.50273599747325" lon="10.642902030601475"><ele>132.5</ele><time>2026-04-19T13:46:23Z</time></trkpt><trkpt lat="43.50268418086669" lon="10.642742755666418"><ele>133.0</ele><time>2026-04-19T13:46:24Z</time></trkpt><trkpt lat="43.50265230168313" lon="10.642587134301078"><ele>134.20000000000002</ele><time>2026-04-19T13:46:25Z</time></trkpt><trkpt lat="43.50261876333477" lon="10.642419686446221"><ele>135.4</ele><time>2026-04-19T13:46:26Z</time></trkpt><trkpt lat="43.5025882232863" lon="10.642263805761054"><ele>136.60000000000002</ele><time>2026-04-19T13:46:27Z</time></trkpt><trkpt lat="43.50256254286815" lon="10.642123355008986"><ele>137.8</ele><time>2026-04-19T13:46:28Z</time></trkpt><trkpt lat="43.50254763115086" lon="10.642013884595888"><ele>139.0</ele><time>2026-04-19T13:46:29Z</time></trkpt><trkpt lat="43.5025356898757" lon="10.641880338247237"><ele>140.0</ele><time>2026-04-19T13:46:31Z</time></trkpt><trkpt lat="43.50256836173441" lon="10.641689937238496"><ele>141.0</ele><time>2026-04-19T13:46:33Z</time></trkpt><trkpt lat="43.50257114001199" lon="10.641567454846989"><ele>142.0</ele><time>2026-04-19T13:46:34Z</time></trkpt><trkpt lat="43.502593979992575" lon="10.64148407173107"><ele>143.0</ele><time>2026-04-19T13:46:35Z</time></trkpt><trkpt lat="43.502610872360734" lon="10.641365843679084"><ele>144.0</ele><time>2026-04-19T13:46:37Z</time></trkpt><trkpt lat="43.50262636318293" lon="10.641236989581133"><ele>144.85714285714286</ele><time>2026-04-19T13:46:39Z</time></trkpt><trkpt lat="43.50258766125434" lon="10.641131097519045"><ele>145.71428571428572</ele><time>2026-04-19T13:46:43.001Z</time></trkpt><trkpt lat="43.50254354468587" lon="10.641063906525037"><ele>146.57142857142856</ele><time>2026-04-19T13:46:46.001Z</time></trkpt><trkpt lat="43.502506529990626" lon="10.64099360206954"><ele>147.42857142857144</ele><time>2026-04-19T13:46:50.001Z</time></trkpt><trkpt lat="43.502446334749536" lon="10.640939292697265"><ele>148.28571428571428</ele><time>2026-04-19T13:46:53.001Z</time></trkpt><trkpt lat="43.5023726830336" lon="10.64092828809018"><ele>149.14285714285714</ele><time>2026-04-19T13:46:56.001Z</time></trkpt><trkpt lat="43.50232507551312" lon="10.640856532526229"><ele>150.0</ele><time>2026-04-19T13:47:00.001Z</time></trkpt><trkpt lat="43.50226623050024" lon="10.640775488984417"><ele>149.99999999999997</ele><time>2026-04-19T13:47:02.999Z</time></trkpt><trkpt lat="43.50223134467387" lon="10.640694472843371"><ele>150.0</ele><time>2026-04-19T13:47:04.999Z</time></trkpt><trkpt lat="43.50219122470037" lon="10.64059132381128"><ele>150.0</ele><time>2026-04-19T13:47:07.999Z</time></trkpt><trkpt lat="43.5021488887564" lon="10.640510078183162"><ele>150.0</ele><time>2026-04-19T13:50:30.001Z</time></trkpt><trkpt lat="43.50211596112687" lon="10.640429652818963"><ele>150.0</ele><time>2026-04-19T13:50:36.001Z</time></trkpt><trkpt lat="43.50207828286302" lon="10.640345693369875"><ele>149.99999999999997</ele><time>2026-04-19T13:50:42.001Z</time></trkpt><trkpt lat="43.50203741646533" lon="10.640273546746213"><ele>150.0</ele><time>2026-04-19T13:50:49.001Z</time></trkpt><trkpt lat="43.502007415835145" lon="10.64019329173355"><ele>153.42857142857142</ele><time>2026-04-19T13:51:05.001Z</time></trkpt><trkpt lat="43.501957534254615" lon="10.640137932185871"><ele>156.85714285714286</ele><time>2026-04-19T13:51:20Z</time></trkpt><trkpt lat="43.50193548607744" lon="10.640029009657807"><ele>160.28571428571428</ele><time>2026-04-19T13:51:55Z</time></trkpt><trkpt lat="43.50196751550676" lon="10.639952305097639"><ele>163.71428571428572</ele><time>2026-04-19T13:51:58Z</time></trkpt><trkpt lat="43.501985081168776" lon="10.639846824193986"><ele>167.14285714285714</ele><time>2026-04-19T13:52:02Z</time></trkpt><trkpt lat="43.501984884310865" lon="10.639748346592814"><ele>170.57142857142856</ele><time>2026-04-19T13:52:06.001Z</time></trkpt><trkpt lat="43.50199833736642" lon="10.639657248135402"><ele>174.0</ele><time>2026-04-19T13:52:10.001Z</time></trkpt><trkpt lat="43.502004375242535" lon="10.639564146987516"><ele>174.0</ele><time>2026-04-19T13:52:13.001Z</time></trkpt><trkpt lat="43.50201547969347" lon="10.639468762716474"><ele>174.0</ele><time>2026-04-19T13:52:16.001Z</time></trkpt><trkpt lat="43.50203086650471" lon="10.639376117955962"><ele>174.0</ele><time>2026-04-19T13:52:19.001Z</time></trkpt><trkpt lat="43.50206511069647" lon="10.639286548574194"><ele>174.0</ele><time>2026-04-19T13:52:23.001Z</time></trkpt><trkpt lat="43.50208699572321" lon="10.639178716358082"><ele>174.0</ele><time>2026-04-19T13:52:27.001Z</time></trkpt><trkpt lat="43.50210521060889" lon="10.639082318497948"><ele>174.0</ele><time>2026-04-19T13:52:32.001Z</time></trkpt><trkpt lat="43.502112542766326" lon="10.63896934607303"><ele>174.0</ele><time>2026-04-19T13:52:36.001Z</time></trkpt><trkpt lat="43.50213765459439" lon="10.638873161036644"><ele>175.42857142857142</ele><time>2026-04-19T13:52:42.001Z</time></trkpt><trkpt lat="43.502125684916535" lon="10.638785114667744"><ele>176.85714285714286</ele><time>2026-04-19T13:52:46.001Z</time></trkpt><trkpt lat="43.50209550477358" lon="10.638705741755595"><ele>178.28571428571428</ele><time>2026-04-19T13:52:50.001Z</time></trkpt><trkpt lat="43.50205698535032" lon="10.638633233806658"><ele>179.71428571428572</ele><time>2026-04-19T13:52:55.001Z</time></trkpt><trkpt lat="43.50200072389091" lon="10.6385498320753"><ele>181.14285714285714</ele><time>2026-04-19T13:52:58.001Z</time></trkpt><trkpt lat="43.50196536979435" lon="10.638464054764613"><ele>182.57142857142858</ele><time>2026-04-19T13:53:00.001Z</time></trkpt><trkpt lat="43.50192151856622" lon="10.638379118914289"><ele>184.0</ele><time>2026-04-19T13:53:02.001Z</time></trkpt><trkpt lat="43.501868672884264" lon="10.638306108531626"><ele>184.0</ele><time>2026-04-19T13:53:04.001Z</time></trkpt><trkpt lat="43.50181293289141" lon="10.638235563161174"><ele>184.0</ele><time>2026-04-19T13:53:06.002Z</time></trkpt><trkpt lat="43.50174856191598" lon="10.638150893060711"><ele>184.0</ele><time>2026-04-19T13:53:09.002Z</time></trkpt><trkpt lat="43.501705352513774" lon="10.63808617708923"><ele>184.0</ele><time>2026-04-19T13:53:14.002Z</time></trkpt><trkpt lat="43.50173630850567" lon="10.637943398560777"><ele>184.0</ele><time>2026-04-19T13:53:17.002Z</time></trkpt><trkpt lat="43.50182804198386" lon="10.63783751028248"><ele>185.0</ele><time>2026-04-19T13:53:19.002Z</time></trkpt><trkpt lat="43.50187978863756" lon="10.63777964951085"><ele>186.0</ele><time>2026-04-19T13:53:20Z</time></trkpt><trkpt lat="43.501937440059685" lon="10.637718772201652"><ele>187.0</ele><time>2026-04-19T13:53:21Z</time></trkpt><trkpt lat="43.50199933184696" lon="10.637651738529526"><ele>188.0</ele><time>2026-04-19T13:53:22Z</time></trkpt><trkpt lat="43.50206401427078" lon="10.637580676248069"><ele>189.0</ele><time>2026-04-19T13:53:23Z</time></trkpt><trkpt lat="43.50213247553165" lon="10.63750639464949"><ele>190.0</ele><time>2026-04-19T13:53:24Z</time></trkpt><trkpt lat="43.502202963436865" lon="10.637427066825149"><ele>188.4</ele><time>2026-04-19T13:53:25Z</time></trkpt><trkpt lat="43.502272791884536" lon="10.637345858114916"><ele>186.8</ele><time>2026-04-19T13:53:26Z</time></trkpt><trkpt lat="43.5023400869219" lon="10.637260866669473"><ele>185.2</ele><time>2026-04-19T13:53:27Z</time></trkpt><trkpt lat="43.502398314322136" lon="10.637165381981806"><ele>183.6</ele><time>2026-04-19T13:53:28Z</time></trkpt><trkpt lat="43.5024503044378" lon="10.637060246614487"><ele>182.0</ele><time>2026-04-19T13:53:29Z</time></trkpt><trkpt lat="43.50250020916675" lon="10.636952714973786"><ele>182.0</ele><time>2026-04-19T13:53:30Z</time></trkpt><trkpt lat="43.50255007174698" lon="10.636851609799349"><ele>182.0</ele><time>2026-04-19T13:53:31Z</time></trkpt><trkpt lat="43.50260125813696" lon="10.636764121440438"><ele>182.0</ele><time>2026-04-19T13:53:32Z</time></trkpt><trkpt lat="43.50266569119334" lon="10.636708735806295"><ele>182.0</ele><time>2026-04-19T13:53:33Z</time></trkpt><trkpt lat="43.50273656282524" lon="10.636684336307045"><ele>182.0</ele><time>2026-04-19T13:53:34Z</time></trkpt><trkpt lat="43.502809787491934" lon="10.63667628060408"><ele>182.0</ele><time>2026-04-19T13:53:35Z</time></trkpt><trkpt lat="43.502885814674976" lon="10.636673994704424"><ele>180.33333333333331</ele><time>2026-04-19T13:53:36Z</time></trkpt><trkpt lat="43.502960563740174" lon="10.636673385885098"><ele>178.66666666666666</ele><time>2026-04-19T13:53:37Z</time></trkpt><trkpt lat="43.50303702431487" lon="10.636662960038477"><ele>177.0</ele><time>2026-04-19T13:53:38Z</time></trkpt><trkpt lat="43.503110179450026" lon="10.636633502496755"><ele>175.33333333333334</ele><time>2026-04-19T13:53:39Z</time></trkpt><trkpt lat="43.50318340044778" lon="10.636590163606412"><ele>173.66666666666669</ele><time>2026-04-19T13:53:40Z</time></trkpt><trkpt lat="43.50325295942175" lon="10.636539151146362"><ele>172.0</ele><time>2026-04-19T13:53:41Z</time></trkpt><trkpt lat="43.503324043911405" lon="10.636488362910464"><ele>172.0</ele><time>2026-04-19T13:53:42Z</time></trkpt><trkpt lat="43.503395787776434" lon="10.63643578271987"><ele>172.0</ele><time>2026-04-19T13:53:43Z</time></trkpt><trkpt lat="43.50346913319212" lon="10.636383801820388"><ele>172.0</ele><time>2026-04-19T13:53:44Z</time></trkpt><trkpt lat="43.503543031402806" lon="10.63632727697997"><ele>172.0</ele><time>2026-04-19T13:53:45Z</time></trkpt><trkpt lat="43.50361967679055" lon="10.636266906477905"><ele>172.0</ele><time>2026-04-19T13:53:46Z</time></trkpt><trkpt lat="43.50369696130443" lon="10.63620068646412"><ele>172.0</ele><time>2026-04-19T13:53:47Z</time></trkpt><trkpt lat="43.50376302501602" lon="10.636116698161695"><ele>171.0</ele><time>2026-04-19T13:53:48Z</time></trkpt><trkpt lat="43.5038149162749" lon="10.636012312127281"><ele>170.0</ele><time>2026-04-19T13:53:49Z</time></trkpt><trkpt lat="43.503850695083955" lon="10.635888509604328"><ele>169.0</ele><time>2026-04-19T13:53:50Z</time></trkpt><trkpt lat="43.503881011708586" lon="10.635762540245533"><ele>168.0</ele><time>2026-04-19T13:53:51Z</time></trkpt><trkpt lat="43.503910920653766" lon="10.635638450995998"><ele>167.0</ele><time>2026-04-19T13:53:52Z</time></trkpt><trkpt lat="43.5039436715704" lon="10.635518214100166"><ele>167.0</ele><time>2026-04-19T13:53:53Z</time></trkpt><trkpt lat="43.50399141570902" lon="10.635405793379858"><ele>167.0</ele><time>2026-04-19T13:53:54Z</time></trkpt><trkpt lat="43.50405855250666" lon="10.635320363799522"><ele>167.0</ele><time>2026-04-19T13:53:55Z</time></trkpt><trkpt lat="43.50414018438654" lon="10.63527225479566"><ele>167.0</ele><time>2026-04-19T13:53:56Z</time></trkpt><trkpt lat="43.504231068680745" lon="10.635288952332651"><ele>167.0</ele><time>2026-04-19T13:53:57Z</time></trkpt><trkpt lat="43.50430131328934" lon="10.635372837861755"><ele>167.0</ele><time>2026-04-19T13:53:58Z</time></trkpt><trkpt lat="43.504384616107785" lon="10.63544279635057"><ele>167.0</ele><time>2026-04-19T13:53:59Z</time></trkpt><trkpt lat="43.50446007340234" lon="10.63553492075742"><ele>167.0</ele><time>2026-04-19T13:54:00Z</time></trkpt><trkpt lat="43.50453694349863" lon="10.635635634200247"><ele>167.0</ele><time>2026-04-19T13:54:01Z</time></trkpt><trkpt lat="43.50462149457822" lon="10.635734886815202"><ele>167.0</ele><time>2026-04-19T13:54:02Z</time></trkpt><trkpt lat="43.50470972352758" lon="10.635834325062147"><ele>165.0</ele><time>2026-04-19T13:54:03Z</time></trkpt><trkpt lat="43.50478905172107" lon="10.635941434683762"><ele>163.0</ele><time>2026-04-19T13:54:04Z</time></trkpt><trkpt lat="43.50486458589675" lon="10.636060299699178"><ele>161.0</ele><time>2026-04-19T13:54:05Z</time></trkpt><trkpt lat="43.504935361018674" lon="10.636193085194792"><ele>159.0</ele><time>2026-04-19T13:54:06Z</time></trkpt><trkpt lat="43.504998079935376" lon="10.636329098606355"><ele>159.0</ele><time>2026-04-19T13:54:07Z</time></trkpt><trkpt lat="43.50502729204017" lon="10.636481581821409"><ele>159.0</ele><time>2026-04-19T13:54:08Z</time></trkpt><trkpt lat="43.50505928686433" lon="10.636625886142564"><ele>159.0</ele><time>2026-04-19T13:54:09Z</time></trkpt><trkpt lat="43.5051013375625" lon="10.636752622405732"><ele>159.0</ele><time>2026-04-19T13:54:10Z</time></trkpt><trkpt lat="43.50515410574016" lon="10.63686155691216"><ele>159.0</ele><time>2026-04-19T13:54:11Z</time></trkpt><trkpt lat="43.505240575123416" lon="10.636910963143611"><ele>159.0</ele><time>2026-04-19T13:54:12Z</time></trkpt><trkpt lat="43.505340635213344" lon="10.636897458018598"><ele>159.0</ele><time>2026-04-19T13:54:13Z</time></trkpt><trkpt lat="43.505428527099056" lon="10.636824619037144"><ele>159.0</ele><time>2026-04-19T13:54:14Z</time></trkpt><trkpt lat="43.505474801437515" lon="10.636691327388693"><ele>159.0</ele><time>2026-04-19T13:54:15Z</time></trkpt><trkpt lat="43.50548118718903" lon="10.636540286620498"><ele>159.0</ele><time>2026-04-19T13:54:16Z</time></trkpt><trkpt lat="43.50545342647226" lon="10.636387165791051"><ele>159.0</ele><time>2026-04-19T13:54:17Z</time></trkpt><trkpt lat="43.50539800291102" lon="10.636250097351526"><ele>159.0</ele><time>2026-04-19T13:54:18Z</time></trkpt><trkpt lat="43.50532770311643" lon="10.636141298908282"><ele>159.0</ele><time>2026-04-19T13:54:19Z</time></trkpt><trkpt lat="43.505266354995626" lon="10.636047618385845"><ele>159.0</ele><time>2026-04-19T13:54:20Z</time></trkpt><trkpt lat="43.50521806975685" lon="10.635947232689663"><ele>159.0</ele><time>2026-04-19T13:54:21Z</time></trkpt><trkpt lat="43.505196766222774" lon="10.635834778181664"><ele>158.66666666666666</ele><time>2026-04-19T13:54:22Z</time></trkpt><trkpt lat="43.50519704651402" lon="10.635720312969674"><ele>158.33333333333334</ele><time>2026-04-19T13:54:23.001Z</time></trkpt><trkpt lat="43.505215222503644" lon="10.635604500407798"><ele>158.0</ele><time>2026-04-19T13:54:24.001Z</time></trkpt><trkpt lat="43.505244045567274" lon="10.635486930954137"><ele>157.66666666666669</ele><time>2026-04-19T13:54:25.001Z</time></trkpt><trkpt lat="43.50526434843727" lon="10.6353679929994"><ele>157.33333333333334</ele><time>2026-04-19T13:54:26.001Z</time></trkpt><trkpt lat="43.505294397223494" lon="10.635250547655632"><ele>157.0</ele><time>2026-04-19T13:54:27.001Z</time></trkpt><trkpt lat="43.505290867548915" lon="10.635112834777672"><ele>156.2</ele><time>2026-04-19T13:54:28.001Z</time></trkpt><trkpt lat="43.505268553238125" lon="10.634984776490958"><ele>155.39999999999998</ele><time>2026-04-19T13:54:29.001Z</time></trkpt><trkpt lat="43.50523091305086" lon="10.634859656694355"><ele>154.60000000000002</ele><time>2026-04-19T13:54:30.001Z</time></trkpt><trkpt lat="43.50519503567389" lon="10.63473718275495"><ele>153.8</ele><time>2026-04-19T13:54:31.001Z</time></trkpt><trkpt lat="43.50516075969661" lon="10.634615524347655"><ele>153.0</ele><time>2026-04-19T13:54:32.001Z</time></trkpt><trkpt lat="43.50513733679989" lon="10.634490229767438"><ele>152.20000000000002</ele><time>2026-04-19T13:54:33.001Z</time></trkpt><trkpt lat="43.505128995838945" lon="10.63435864043752"><ele>151.4</ele><time>2026-04-19T13:54:34.001Z</time></trkpt><trkpt lat="43.50513718602372" lon="10.634230689953922"><ele>150.60000000000002</ele><time>2026-04-19T13:54:35.001Z</time></trkpt><trkpt lat="43.50515212167153" lon="10.634118555479471"><ele>149.8</ele><time>2026-04-19T13:54:36.001Z</time></trkpt><trkpt lat="43.50516761632402" lon="10.634021934548338"><ele>149.0</ele><time>2026-04-19T13:54:37.001Z</time></trkpt><trkpt lat="43.50521387725533" lon="10.63388124811304"><ele>149.0</ele><time>2026-04-19T13:54:39.001Z</time></trkpt><trkpt lat="43.50522656968634" lon="10.633767908687826"><ele>149.0</ele><time>2026-04-19T13:54:42.001Z</time></trkpt><trkpt lat="43.50521497620356" lon="10.633652961871741"><ele>149.0</ele><time>2026-04-19T13:54:45.001Z</time></trkpt></trkseg><trkseg><trkpt lat="43.50516442460512" lon="10.633367386333315"><ele>150.0</ele><time>2026-04-19T15:04:08Z</time></trkpt><trkpt lat="43.50513239559271" lon="10.633203701257022"><ele>150.0</ele><time>2026-04-19T15:04:10Z</time></trkpt><trkpt lat="43.50511232638883" lon="10.6331080939029"><ele>150.0</ele><time>2026-04-19T15:04:11Z</time></trkpt><trkpt lat="43.505112136668515" lon="10.633005635637526"><ele>150.0</ele><time>2026-04-19T15:04:12Z</time></trkpt><trkpt lat="43.50508408001441" lon="10.632908669618512"><ele>150.0</ele><time>2026-04-19T15:04:13Z</time></trkpt><trkpt lat="43.50509243328098" lon="10.632809844684555"><ele>150.0</ele><time>2026-04-19T15:04:14Z</time></trkpt><trkpt lat="43.50511052004011" lon="10.632647113868707"><ele>147.0</ele><time>2026-04-19T15:04:16Z</time></trkpt><trkpt lat="43.50514803377405" lon="10.63257414137806"><ele>147.0</ele><time>2026-04-19T15:04:17Z</time></trkpt><trkpt lat="43.50519616049549" lon="10.632510149525368"><ele>147.0</ele><time>2026-04-19T15:04:18Z</time></trkpt><trkpt lat="43.50526279925383" lon="10.632485460104217"><ele>147.0</ele><time>2026-04-19T15:04:19Z</time></trkpt></trkseg></trk></gpx>